<?xml version="1.0" encoding="UTF-8" standalone="no" ?>
<gpx xmlns="http://www.topografix.com/GPX/1/1" xmlns:xsi="http://www.w3.org/2001/XMLSchema-instance" xsi:schemaLocation="http://www.topografix.com/GPX/1/1 http://www.topografix.com/GPX/1/1/gpx.xsd" version="1.1" creator="VisuGPX - https://www.visugpx.com">
  <metadata>
    <name>Day 17: Damgan -&gt; Sarzeau</name>
  </metadata>
  <trk>
    <name><![CDATA[Day 17: Damgan -> Sarzeau_1]]></name>
    <trkseg>
      <trkpt lat="47.51815" lon="-2.58625">
        <ele>56</ele>
        <time>2025-05-13T07:20:49Z</time>
      </trkpt>
      <trkpt lat="47.51815" lon="-2.58624">
        <ele>56</ele>
        <time>2025-05-13T07:20:50Z</time>
      </trkpt>
      <trkpt lat="47.51816" lon="-2.58624">
        <ele>56</ele>
        <time>2025-05-13T07:20:51Z</time>
      </trkpt>
      <trkpt lat="47.51818" lon="-2.58623">
        <ele>56</ele>
        <time>2025-05-13T07:20:52Z</time>
      </trkpt>
      <trkpt lat="47.5182" lon="-2.58622">
        <ele>56</ele>
        <time>2025-05-13T07:20:53Z</time>
      </trkpt>
      <trkpt lat="47.5182" lon="-2.58622">
        <ele>56</ele>
        <time>2025-05-13T07:20:54Z</time>
      </trkpt>
      <trkpt lat="47.51821" lon="-2.58622">
        <ele>56</ele>
        <time>2025-05-13T07:20:55Z</time>
      </trkpt>
      <trkpt lat="47.51821" lon="-2.58622">
        <ele>56</ele>
        <time>2025-05-13T07:20:56Z</time>
      </trkpt>
      <trkpt lat="47.51821" lon="-2.58622">
        <ele>56</ele>
        <time>2025-05-13T07:20:57Z</time>
      </trkpt>
      <trkpt lat="47.51821" lon="-2.58622">
        <ele>56</ele>
        <time>2025-05-13T07:20:58Z</time>
      </trkpt>
      <trkpt lat="47.51821" lon="-2.58622">
        <ele>56</ele>
        <time>2025-05-13T07:20:59Z</time>
      </trkpt>
      <trkpt lat="47.51821" lon="-2.58622">
        <ele>56</ele>
        <time>2025-05-13T07:21:00Z</time>
      </trkpt>
      <trkpt lat="47.51821" lon="-2.58622">
        <ele>56</ele>
        <time>2025-05-13T07:21:01Z</time>
      </trkpt>
      <trkpt lat="47.51821" lon="-2.58622">
        <ele>56</ele>
        <time>2025-05-13T07:21:02Z</time>
      </trkpt>
      <trkpt lat="47.51821" lon="-2.58622">
        <ele>56</ele>
        <time>2025-05-13T07:21:03Z</time>
      </trkpt>
      <trkpt lat="47.51821" lon="-2.58622">
        <ele>56</ele>
        <time>2025-05-13T07:21:04Z</time>
      </trkpt>
      <trkpt lat="47.51821" lon="-2.58622">
        <ele>56</ele>
        <time>2025-05-13T07:21:05Z</time>
      </trkpt>
      <trkpt lat="47.51821" lon="-2.58621">
        <ele>56</ele>
        <time>2025-05-13T07:21:06Z</time>
      </trkpt>
      <trkpt lat="47.51821" lon="-2.5862">
        <ele>56</ele>
        <time>2025-05-13T07:21:07Z</time>
      </trkpt>
      <trkpt lat="47.5182" lon="-2.58619">
        <ele>56</ele>
        <time>2025-05-13T07:21:08Z</time>
      </trkpt>
      <trkpt lat="47.5182" lon="-2.58617">
        <ele>56</ele>
        <time>2025-05-13T07:21:09Z</time>
      </trkpt>
      <trkpt lat="47.51819" lon="-2.58615">
        <ele>56</ele>
        <time>2025-05-13T07:21:10Z</time>
      </trkpt>
      <trkpt lat="47.51818" lon="-2.58615">
        <ele>56</ele>
        <time>2025-05-13T07:21:11Z</time>
      </trkpt>
      <trkpt lat="47.51816" lon="-2.58614">
        <ele>56</ele>
        <time>2025-05-13T07:21:12Z</time>
      </trkpt>
      <trkpt lat="47.51815" lon="-2.58614">
        <ele>56</ele>
        <time>2025-05-13T07:21:13Z</time>
      </trkpt>
      <trkpt lat="47.51814" lon="-2.58614">
        <ele>56</ele>
        <time>2025-05-13T07:21:14Z</time>
      </trkpt>
      <trkpt lat="47.51813" lon="-2.58613">
        <ele>56</ele>
        <time>2025-05-13T07:21:15Z</time>
      </trkpt>
      <trkpt lat="47.51813" lon="-2.58613">
        <ele>56</ele>
        <time>2025-05-13T07:21:16Z</time>
      </trkpt>
      <trkpt lat="47.51811" lon="-2.58613">
        <ele>56</ele>
        <time>2025-05-13T07:21:17Z</time>
      </trkpt>
      <trkpt lat="47.5181" lon="-2.58612">
        <ele>56</ele>
        <time>2025-05-13T07:21:18Z</time>
      </trkpt>
      <trkpt lat="47.51808" lon="-2.58613">
        <ele>56</ele>
        <time>2025-05-13T07:21:19Z</time>
      </trkpt>
      <trkpt lat="47.51807" lon="-2.58613">
        <ele>56</ele>
        <time>2025-05-13T07:21:20Z</time>
      </trkpt>
      <trkpt lat="47.51806" lon="-2.58614">
        <ele>56</ele>
        <time>2025-05-13T07:21:21Z</time>
      </trkpt>
      <trkpt lat="47.51804" lon="-2.58613">
        <ele>56</ele>
        <time>2025-05-13T07:21:22Z</time>
      </trkpt>
      <trkpt lat="47.51803" lon="-2.58613">
        <ele>56</ele>
        <time>2025-05-13T07:21:23Z</time>
      </trkpt>
      <trkpt lat="47.51801" lon="-2.58612">
        <ele>56</ele>
        <time>2025-05-13T07:21:24Z</time>
      </trkpt>
      <trkpt lat="47.518" lon="-2.58612">
        <ele>56</ele>
        <time>2025-05-13T07:21:25Z</time>
      </trkpt>
      <trkpt lat="47.51798" lon="-2.58612">
        <ele>56</ele>
        <time>2025-05-13T07:21:26Z</time>
      </trkpt>
      <trkpt lat="47.51797" lon="-2.58612">
        <ele>56</ele>
        <time>2025-05-13T07:21:27Z</time>
      </trkpt>
      <trkpt lat="47.51796" lon="-2.58611">
        <ele>56</ele>
        <time>2025-05-13T07:21:28Z</time>
      </trkpt>
      <trkpt lat="47.51794" lon="-2.5861">
        <ele>56</ele>
        <time>2025-05-13T07:21:29Z</time>
      </trkpt>
      <trkpt lat="47.51793" lon="-2.5861">
        <ele>56</ele>
        <time>2025-05-13T07:21:30Z</time>
      </trkpt>
      <trkpt lat="47.51792" lon="-2.58609">
        <ele>56</ele>
        <time>2025-05-13T07:21:31Z</time>
      </trkpt>
      <trkpt lat="47.51791" lon="-2.58608">
        <ele>56</ele>
        <time>2025-05-13T07:21:32Z</time>
      </trkpt>
      <trkpt lat="47.5179" lon="-2.58606">
        <ele>56</ele>
        <time>2025-05-13T07:21:33Z</time>
      </trkpt>
      <trkpt lat="47.5179" lon="-2.58603">
        <ele>56</ele>
        <time>2025-05-13T07:21:34Z</time>
      </trkpt>
      <trkpt lat="47.5179" lon="-2.58601">
        <ele>56</ele>
        <time>2025-05-13T07:21:35Z</time>
      </trkpt>
      <trkpt lat="47.51789" lon="-2.58599">
        <ele>56</ele>
        <time>2025-05-13T07:21:36Z</time>
      </trkpt>
      <trkpt lat="47.51788" lon="-2.58596">
        <ele>56</ele>
        <time>2025-05-13T07:21:37Z</time>
      </trkpt>
      <trkpt lat="47.51788" lon="-2.58594">
        <ele>56</ele>
        <time>2025-05-13T07:21:38Z</time>
      </trkpt>
      <trkpt lat="47.51788" lon="-2.5859">
        <ele>56</ele>
        <time>2025-05-13T07:21:39Z</time>
      </trkpt>
      <trkpt lat="47.51788" lon="-2.58586">
        <ele>56</ele>
        <time>2025-05-13T07:21:40Z</time>
      </trkpt>
      <trkpt lat="47.51788" lon="-2.58581">
        <ele>56</ele>
        <time>2025-05-13T07:21:41Z</time>
      </trkpt>
      <trkpt lat="47.51788" lon="-2.58576">
        <ele>56</ele>
        <time>2025-05-13T07:21:42Z</time>
      </trkpt>
      <trkpt lat="47.51788" lon="-2.58572">
        <ele>56</ele>
        <time>2025-05-13T07:21:43Z</time>
      </trkpt>
      <trkpt lat="47.51788" lon="-2.58567">
        <ele>56</ele>
        <time>2025-05-13T07:21:44Z</time>
      </trkpt>
      <trkpt lat="47.51788" lon="-2.58563">
        <ele>56</ele>
        <time>2025-05-13T07:21:45Z</time>
      </trkpt>
      <trkpt lat="47.51788" lon="-2.58558">
        <ele>56</ele>
        <time>2025-05-13T07:21:46Z</time>
      </trkpt>
      <trkpt lat="47.51788" lon="-2.58554">
        <ele>56</ele>
        <time>2025-05-13T07:21:47Z</time>
      </trkpt>
      <trkpt lat="47.51788" lon="-2.58549">
        <ele>56</ele>
        <time>2025-05-13T07:21:48Z</time>
      </trkpt>
      <trkpt lat="47.51788" lon="-2.58544">
        <ele>56</ele>
        <time>2025-05-13T07:21:49Z</time>
      </trkpt>
      <trkpt lat="47.51788" lon="-2.58539">
        <ele>56</ele>
        <time>2025-05-13T07:21:50Z</time>
      </trkpt>
      <trkpt lat="47.51787" lon="-2.58534">
        <ele>56</ele>
        <time>2025-05-13T07:21:51Z</time>
      </trkpt>
      <trkpt lat="47.51787" lon="-2.58528">
        <ele>56</ele>
        <time>2025-05-13T07:21:52Z</time>
      </trkpt>
      <trkpt lat="47.51787" lon="-2.58523">
        <ele>56</ele>
        <time>2025-05-13T07:21:53Z</time>
      </trkpt>
      <trkpt lat="47.51787" lon="-2.58518">
        <ele>56</ele>
        <time>2025-05-13T07:21:54Z</time>
      </trkpt>
      <trkpt lat="47.51787" lon="-2.58513">
        <ele>56</ele>
        <time>2025-05-13T07:21:55Z</time>
      </trkpt>
      <trkpt lat="47.51787" lon="-2.58508">
        <ele>56</ele>
        <time>2025-05-13T07:21:56Z</time>
      </trkpt>
      <trkpt lat="47.51787" lon="-2.58503">
        <ele>56</ele>
        <time>2025-05-13T07:21:57Z</time>
      </trkpt>
      <trkpt lat="47.51787" lon="-2.58498">
        <ele>56</ele>
        <time>2025-05-13T07:21:58Z</time>
      </trkpt>
      <trkpt lat="47.51787" lon="-2.58494">
        <ele>56</ele>
        <time>2025-05-13T07:21:59Z</time>
      </trkpt>
      <trkpt lat="47.51787" lon="-2.58489">
        <ele>56</ele>
        <time>2025-05-13T07:22:00Z</time>
      </trkpt>
      <trkpt lat="47.51787" lon="-2.58484">
        <ele>56</ele>
        <time>2025-05-13T07:22:01Z</time>
      </trkpt>
      <trkpt lat="47.51787" lon="-2.58479">
        <ele>56</ele>
        <time>2025-05-13T07:22:02Z</time>
      </trkpt>
      <trkpt lat="47.51786" lon="-2.58474">
        <ele>56</ele>
        <time>2025-05-13T07:22:03Z</time>
      </trkpt>
      <trkpt lat="47.51786" lon="-2.58469">
        <ele>56</ele>
        <time>2025-05-13T07:22:04Z</time>
      </trkpt>
      <trkpt lat="47.51786" lon="-2.58464">
        <ele>56</ele>
        <time>2025-05-13T07:22:05Z</time>
      </trkpt>
      <trkpt lat="47.51786" lon="-2.58459">
        <ele>56</ele>
        <time>2025-05-13T07:22:06Z</time>
      </trkpt>
      <trkpt lat="47.51787" lon="-2.58454">
        <ele>56</ele>
        <time>2025-05-13T07:22:07Z</time>
      </trkpt>
      <trkpt lat="47.51787" lon="-2.58449">
        <ele>56</ele>
        <time>2025-05-13T07:22:08Z</time>
      </trkpt>
      <trkpt lat="47.51787" lon="-2.58444">
        <ele>56</ele>
        <time>2025-05-13T07:22:09Z</time>
      </trkpt>
      <trkpt lat="47.51787" lon="-2.58439">
        <ele>56</ele>
        <time>2025-05-13T07:22:10Z</time>
      </trkpt>
      <trkpt lat="47.51787" lon="-2.58434">
        <ele>56</ele>
        <time>2025-05-13T07:22:11Z</time>
      </trkpt>
      <trkpt lat="47.51787" lon="-2.58429">
        <ele>56</ele>
        <time>2025-05-13T07:22:12Z</time>
      </trkpt>
      <trkpt lat="47.51787" lon="-2.58424">
        <ele>56</ele>
        <time>2025-05-13T07:22:13Z</time>
      </trkpt>
      <trkpt lat="47.51787" lon="-2.58419">
        <ele>56</ele>
        <time>2025-05-13T07:22:14Z</time>
      </trkpt>
      <trkpt lat="47.51787" lon="-2.58414">
        <ele>56</ele>
        <time>2025-05-13T07:22:15Z</time>
      </trkpt>
      <trkpt lat="47.51787" lon="-2.58409">
        <ele>57</ele>
        <time>2025-05-13T07:22:16Z</time>
      </trkpt>
      <trkpt lat="47.51787" lon="-2.58404">
        <ele>57</ele>
        <time>2025-05-13T07:22:17Z</time>
      </trkpt>
      <trkpt lat="47.51787" lon="-2.58398">
        <ele>57</ele>
        <time>2025-05-13T07:22:18Z</time>
      </trkpt>
      <trkpt lat="47.51786" lon="-2.58393">
        <ele>57</ele>
        <time>2025-05-13T07:22:19Z</time>
      </trkpt>
      <trkpt lat="47.51786" lon="-2.58387">
        <ele>57</ele>
        <time>2025-05-13T07:22:20Z</time>
      </trkpt>
      <trkpt lat="47.51785" lon="-2.58382">
        <ele>57</ele>
        <time>2025-05-13T07:22:21Z</time>
      </trkpt>
      <trkpt lat="47.51785" lon="-2.58377">
        <ele>57</ele>
        <time>2025-05-13T07:22:22Z</time>
      </trkpt>
      <trkpt lat="47.51785" lon="-2.58372">
        <ele>57</ele>
        <time>2025-05-13T07:22:23Z</time>
      </trkpt>
      <trkpt lat="47.51785" lon="-2.58366">
        <ele>57</ele>
        <time>2025-05-13T07:22:24Z</time>
      </trkpt>
      <trkpt lat="47.51785" lon="-2.58361">
        <ele>57</ele>
        <time>2025-05-13T07:22:25Z</time>
      </trkpt>
      <trkpt lat="47.51785" lon="-2.58356">
        <ele>57</ele>
        <time>2025-05-13T07:22:26Z</time>
      </trkpt>
      <trkpt lat="47.51784" lon="-2.58351">
        <ele>57</ele>
        <time>2025-05-13T07:22:27Z</time>
      </trkpt>
      <trkpt lat="47.51784" lon="-2.58345">
        <ele>57</ele>
        <time>2025-05-13T07:22:28Z</time>
      </trkpt>
      <trkpt lat="47.51783" lon="-2.5834">
        <ele>57</ele>
        <time>2025-05-13T07:22:29Z</time>
      </trkpt>
      <trkpt lat="47.51783" lon="-2.58335">
        <ele>57</ele>
        <time>2025-05-13T07:22:30Z</time>
      </trkpt>
      <trkpt lat="47.51782" lon="-2.5833">
        <ele>57</ele>
        <time>2025-05-13T07:22:31Z</time>
      </trkpt>
      <trkpt lat="47.51781" lon="-2.58326">
        <ele>57</ele>
        <time>2025-05-13T07:22:32Z</time>
      </trkpt>
      <trkpt lat="47.5178" lon="-2.58321">
        <ele>56</ele>
        <time>2025-05-13T07:22:33Z</time>
      </trkpt>
      <trkpt lat="47.5178" lon="-2.58315">
        <ele>56</ele>
        <time>2025-05-13T07:22:34Z</time>
      </trkpt>
      <trkpt lat="47.51779" lon="-2.5831">
        <ele>56</ele>
        <time>2025-05-13T07:22:35Z</time>
      </trkpt>
      <trkpt lat="47.51779" lon="-2.58304">
        <ele>56</ele>
        <time>2025-05-13T07:22:36Z</time>
      </trkpt>
      <trkpt lat="47.51779" lon="-2.58299">
        <ele>56</ele>
        <time>2025-05-13T07:22:37Z</time>
      </trkpt>
      <trkpt lat="47.51779" lon="-2.58293">
        <ele>56</ele>
        <time>2025-05-13T07:22:38Z</time>
      </trkpt>
      <trkpt lat="47.51779" lon="-2.58287">
        <ele>56</ele>
        <time>2025-05-13T07:22:39Z</time>
      </trkpt>
      <trkpt lat="47.51779" lon="-2.58281">
        <ele>56</ele>
        <time>2025-05-13T07:22:40Z</time>
      </trkpt>
      <trkpt lat="47.51779" lon="-2.58276">
        <ele>56</ele>
        <time>2025-05-13T07:22:41Z</time>
      </trkpt>
      <trkpt lat="47.51779" lon="-2.5827">
        <ele>56</ele>
        <time>2025-05-13T07:22:42Z</time>
      </trkpt>
      <trkpt lat="47.51779" lon="-2.58264">
        <ele>56</ele>
        <time>2025-05-13T07:22:43Z</time>
      </trkpt>
      <trkpt lat="47.51779" lon="-2.58258">
        <ele>56</ele>
        <time>2025-05-13T07:22:44Z</time>
      </trkpt>
      <trkpt lat="47.51779" lon="-2.58251">
        <ele>56</ele>
        <time>2025-05-13T07:22:45Z</time>
      </trkpt>
      <trkpt lat="47.51779" lon="-2.58245">
        <ele>55</ele>
        <time>2025-05-13T07:22:46Z</time>
      </trkpt>
      <trkpt lat="47.5178" lon="-2.58239">
        <ele>55</ele>
        <time>2025-05-13T07:22:47Z</time>
      </trkpt>
      <trkpt lat="47.5178" lon="-2.58233">
        <ele>55</ele>
        <time>2025-05-13T07:22:48Z</time>
      </trkpt>
      <trkpt lat="47.5178" lon="-2.58227">
        <ele>55</ele>
        <time>2025-05-13T07:22:49Z</time>
      </trkpt>
      <trkpt lat="47.5178" lon="-2.58221">
        <ele>55</ele>
        <time>2025-05-13T07:22:50Z</time>
      </trkpt>
      <trkpt lat="47.51781" lon="-2.58215">
        <ele>55</ele>
        <time>2025-05-13T07:22:51Z</time>
      </trkpt>
      <trkpt lat="47.51781" lon="-2.5821">
        <ele>55</ele>
        <time>2025-05-13T07:22:52Z</time>
      </trkpt>
      <trkpt lat="47.5178" lon="-2.58205">
        <ele>55</ele>
        <time>2025-05-13T07:22:53Z</time>
      </trkpt>
      <trkpt lat="47.51779" lon="-2.582">
        <ele>55</ele>
        <time>2025-05-13T07:22:54Z</time>
      </trkpt>
      <trkpt lat="47.51779" lon="-2.58195">
        <ele>55</ele>
        <time>2025-05-13T07:22:55Z</time>
      </trkpt>
      <trkpt lat="47.51779" lon="-2.5819">
        <ele>55</ele>
        <time>2025-05-13T07:22:56Z</time>
      </trkpt>
      <trkpt lat="47.51779" lon="-2.58185">
        <ele>55</ele>
        <time>2025-05-13T07:22:57Z</time>
      </trkpt>
      <trkpt lat="47.51779" lon="-2.5818">
        <ele>55</ele>
        <time>2025-05-13T07:22:58Z</time>
      </trkpt>
      <trkpt lat="47.51778" lon="-2.58177">
        <ele>56</ele>
        <time>2025-05-13T07:22:59Z</time>
      </trkpt>
      <trkpt lat="47.51779" lon="-2.58174">
        <ele>56</ele>
        <time>2025-05-13T07:23:00Z</time>
      </trkpt>
      <trkpt lat="47.5178" lon="-2.58173">
        <ele>56</ele>
        <time>2025-05-13T07:23:01Z</time>
      </trkpt>
      <trkpt lat="47.51782" lon="-2.58172">
        <ele>56</ele>
        <time>2025-05-13T07:23:02Z</time>
      </trkpt>
      <trkpt lat="47.51783" lon="-2.58171">
        <ele>56</ele>
        <time>2025-05-13T07:23:03Z</time>
      </trkpt>
      <trkpt lat="47.51785" lon="-2.58171">
        <ele>56</ele>
        <time>2025-05-13T07:23:04Z</time>
      </trkpt>
      <trkpt lat="47.51788" lon="-2.58171">
        <ele>56</ele>
        <time>2025-05-13T07:23:05Z</time>
      </trkpt>
      <trkpt lat="47.51791" lon="-2.58173">
        <ele>56</ele>
        <time>2025-05-13T07:23:06Z</time>
      </trkpt>
      <trkpt lat="47.51794" lon="-2.58174">
        <ele>56</ele>
        <time>2025-05-13T07:23:07Z</time>
      </trkpt>
      <trkpt lat="47.51797" lon="-2.58174">
        <ele>56</ele>
        <time>2025-05-13T07:23:08Z</time>
      </trkpt>
      <trkpt lat="47.51801" lon="-2.58172">
        <ele>56</ele>
        <time>2025-05-13T07:23:09Z</time>
      </trkpt>
      <trkpt lat="47.51804" lon="-2.58169">
        <ele>56</ele>
        <time>2025-05-13T07:23:10Z</time>
      </trkpt>
      <trkpt lat="47.51807" lon="-2.58165">
        <ele>56</ele>
        <time>2025-05-13T07:23:11Z</time>
      </trkpt>
      <trkpt lat="47.51809" lon="-2.5816">
        <ele>56</ele>
        <time>2025-05-13T07:23:12Z</time>
      </trkpt>
      <trkpt lat="47.51811" lon="-2.58155">
        <ele>56</ele>
        <time>2025-05-13T07:23:13Z</time>
      </trkpt>
      <trkpt lat="47.51813" lon="-2.58149">
        <ele>56</ele>
        <time>2025-05-13T07:23:14Z</time>
      </trkpt>
      <trkpt lat="47.51815" lon="-2.58144">
        <ele>56</ele>
        <time>2025-05-13T07:23:15Z</time>
      </trkpt>
      <trkpt lat="47.51817" lon="-2.58139">
        <ele>56</ele>
        <time>2025-05-13T07:23:16Z</time>
      </trkpt>
      <trkpt lat="47.51819" lon="-2.58133">
        <ele>57</ele>
        <time>2025-05-13T07:23:17Z</time>
      </trkpt>
      <trkpt lat="47.51821" lon="-2.58128">
        <ele>56</ele>
        <time>2025-05-13T07:23:18Z</time>
      </trkpt>
      <trkpt lat="47.51823" lon="-2.58123">
        <ele>56</ele>
        <time>2025-05-13T07:23:19Z</time>
      </trkpt>
      <trkpt lat="47.51825" lon="-2.58117">
        <ele>56</ele>
        <time>2025-05-13T07:23:20Z</time>
      </trkpt>
      <trkpt lat="47.51827" lon="-2.58112">
        <ele>57</ele>
        <time>2025-05-13T07:23:21Z</time>
      </trkpt>
      <trkpt lat="47.51829" lon="-2.58106">
        <ele>57</ele>
        <time>2025-05-13T07:23:22Z</time>
      </trkpt>
      <trkpt lat="47.51831" lon="-2.58102">
        <ele>57</ele>
        <time>2025-05-13T07:23:23Z</time>
      </trkpt>
      <trkpt lat="47.51833" lon="-2.58096">
        <ele>57</ele>
        <time>2025-05-13T07:23:24Z</time>
      </trkpt>
      <trkpt lat="47.51835" lon="-2.58091">
        <ele>57</ele>
        <time>2025-05-13T07:23:25Z</time>
      </trkpt>
      <trkpt lat="47.51836" lon="-2.58087">
        <ele>58</ele>
        <time>2025-05-13T07:23:26Z</time>
      </trkpt>
      <trkpt lat="47.51838" lon="-2.58082">
        <ele>58</ele>
        <time>2025-05-13T07:23:27Z</time>
      </trkpt>
      <trkpt lat="47.5184" lon="-2.58077">
        <ele>58</ele>
        <time>2025-05-13T07:23:28Z</time>
      </trkpt>
      <trkpt lat="47.51842" lon="-2.58072">
        <ele>59</ele>
        <time>2025-05-13T07:23:29Z</time>
      </trkpt>
      <trkpt lat="47.51843" lon="-2.58067">
        <ele>59</ele>
        <time>2025-05-13T07:23:30Z</time>
      </trkpt>
      <trkpt lat="47.51845" lon="-2.58063">
        <ele>59</ele>
        <time>2025-05-13T07:23:31Z</time>
      </trkpt>
      <trkpt lat="47.51846" lon="-2.58058">
        <ele>59</ele>
        <time>2025-05-13T07:23:32Z</time>
      </trkpt>
      <trkpt lat="47.51847" lon="-2.58053">
        <ele>58</ele>
        <time>2025-05-13T07:23:33Z</time>
      </trkpt>
      <trkpt lat="47.51849" lon="-2.58048">
        <ele>58</ele>
        <time>2025-05-13T07:23:34Z</time>
      </trkpt>
      <trkpt lat="47.51851" lon="-2.58043">
        <ele>57</ele>
        <time>2025-05-13T07:23:35Z</time>
      </trkpt>
      <trkpt lat="47.51852" lon="-2.58038">
        <ele>57</ele>
        <time>2025-05-13T07:23:36Z</time>
      </trkpt>
      <trkpt lat="47.51853" lon="-2.58033">
        <ele>57</ele>
        <time>2025-05-13T07:23:37Z</time>
      </trkpt>
      <trkpt lat="47.51855" lon="-2.58028">
        <ele>57</ele>
        <time>2025-05-13T07:23:38Z</time>
      </trkpt>
      <trkpt lat="47.51856" lon="-2.58024">
        <ele>57</ele>
        <time>2025-05-13T07:23:39Z</time>
      </trkpt>
      <trkpt lat="47.51858" lon="-2.58018">
        <ele>57</ele>
        <time>2025-05-13T07:23:40Z</time>
      </trkpt>
      <trkpt lat="47.51859" lon="-2.58013">
        <ele>57</ele>
        <time>2025-05-13T07:23:41Z</time>
      </trkpt>
      <trkpt lat="47.5186" lon="-2.58008">
        <ele>57</ele>
        <time>2025-05-13T07:23:42Z</time>
      </trkpt>
      <trkpt lat="47.51861" lon="-2.58003">
        <ele>56</ele>
        <time>2025-05-13T07:23:43Z</time>
      </trkpt>
      <trkpt lat="47.51862" lon="-2.57999">
        <ele>56</ele>
        <time>2025-05-13T07:23:44Z</time>
      </trkpt>
      <trkpt lat="47.51863" lon="-2.57994">
        <ele>56</ele>
        <time>2025-05-13T07:23:45Z</time>
      </trkpt>
      <trkpt lat="47.51865" lon="-2.57989">
        <ele>56</ele>
        <time>2025-05-13T07:23:46Z</time>
      </trkpt>
      <trkpt lat="47.51866" lon="-2.57984">
        <ele>56</ele>
        <time>2025-05-13T07:23:47Z</time>
      </trkpt>
      <trkpt lat="47.51867" lon="-2.57979">
        <ele>56</ele>
        <time>2025-05-13T07:23:48Z</time>
      </trkpt>
      <trkpt lat="47.51868" lon="-2.57974">
        <ele>57</ele>
        <time>2025-05-13T07:23:49Z</time>
      </trkpt>
      <trkpt lat="47.51869" lon="-2.5797">
        <ele>57</ele>
        <time>2025-05-13T07:23:50Z</time>
      </trkpt>
      <trkpt lat="47.5187" lon="-2.57965">
        <ele>57</ele>
        <time>2025-05-13T07:23:51Z</time>
      </trkpt>
      <trkpt lat="47.51871" lon="-2.5796">
        <ele>57</ele>
        <time>2025-05-13T07:23:52Z</time>
      </trkpt>
      <trkpt lat="47.51873" lon="-2.57955">
        <ele>57</ele>
        <time>2025-05-13T07:23:53Z</time>
      </trkpt>
      <trkpt lat="47.51874" lon="-2.57951">
        <ele>57</ele>
        <time>2025-05-13T07:23:54Z</time>
      </trkpt>
      <trkpt lat="47.51875" lon="-2.57947">
        <ele>57</ele>
        <time>2025-05-13T07:23:55Z</time>
      </trkpt>
      <trkpt lat="47.51877" lon="-2.57943">
        <ele>57</ele>
        <time>2025-05-13T07:23:56Z</time>
      </trkpt>
      <trkpt lat="47.51878" lon="-2.57939">
        <ele>57</ele>
        <time>2025-05-13T07:23:57Z</time>
      </trkpt>
      <trkpt lat="47.5188" lon="-2.57935">
        <ele>57</ele>
        <time>2025-05-13T07:23:58Z</time>
      </trkpt>
      <trkpt lat="47.51881" lon="-2.57931">
        <ele>57</ele>
        <time>2025-05-13T07:23:59Z</time>
      </trkpt>
      <trkpt lat="47.51884" lon="-2.57928">
        <ele>58</ele>
        <time>2025-05-13T07:24:00Z</time>
      </trkpt>
      <trkpt lat="47.51886" lon="-2.57925">
        <ele>57</ele>
        <time>2025-05-13T07:24:01Z</time>
      </trkpt>
      <trkpt lat="47.51889" lon="-2.57921">
        <ele>58</ele>
        <time>2025-05-13T07:24:02Z</time>
      </trkpt>
      <trkpt lat="47.51891" lon="-2.57918">
        <ele>57</ele>
        <time>2025-05-13T07:24:03Z</time>
      </trkpt>
      <trkpt lat="47.51894" lon="-2.57915">
        <ele>57</ele>
        <time>2025-05-13T07:24:04Z</time>
      </trkpt>
      <trkpt lat="47.51896" lon="-2.57911">
        <ele>58</ele>
        <time>2025-05-13T07:24:05Z</time>
      </trkpt>
      <trkpt lat="47.51898" lon="-2.57908">
        <ele>58</ele>
        <time>2025-05-13T07:24:06Z</time>
      </trkpt>
      <trkpt lat="47.519" lon="-2.57905">
        <ele>59</ele>
        <time>2025-05-13T07:24:07Z</time>
      </trkpt>
      <trkpt lat="47.51902" lon="-2.57901">
        <ele>59</ele>
        <time>2025-05-13T07:24:08Z</time>
      </trkpt>
      <trkpt lat="47.51903" lon="-2.57898">
        <ele>59</ele>
        <time>2025-05-13T07:24:09Z</time>
      </trkpt>
      <trkpt lat="47.51903" lon="-2.57895">
        <ele>58</ele>
        <time>2025-05-13T07:24:10Z</time>
      </trkpt>
      <trkpt lat="47.51904" lon="-2.57893">
        <ele>58</ele>
        <time>2025-05-13T07:24:11Z</time>
      </trkpt>
      <trkpt lat="47.51905" lon="-2.57894">
        <ele>58</ele>
        <time>2025-05-13T07:24:12Z</time>
      </trkpt>
      <trkpt lat="47.51906" lon="-2.57894">
        <ele>58</ele>
        <time>2025-05-13T07:24:13Z</time>
      </trkpt>
      <trkpt lat="47.51907" lon="-2.57895">
        <ele>58</ele>
        <time>2025-05-13T07:24:14Z</time>
      </trkpt>
      <trkpt lat="47.51908" lon="-2.57895">
        <ele>59</ele>
        <time>2025-05-13T07:24:15Z</time>
      </trkpt>
      <trkpt lat="47.5191" lon="-2.57895">
        <ele>59</ele>
        <time>2025-05-13T07:24:16Z</time>
      </trkpt>
      <trkpt lat="47.51912" lon="-2.57894">
        <ele>60</ele>
        <time>2025-05-13T07:24:17Z</time>
      </trkpt>
      <trkpt lat="47.51915" lon="-2.57893">
        <ele>60</ele>
        <time>2025-05-13T07:24:18Z</time>
      </trkpt>
      <trkpt lat="47.51918" lon="-2.57892">
        <ele>60</ele>
        <time>2025-05-13T07:24:19Z</time>
      </trkpt>
      <trkpt lat="47.51921" lon="-2.5789">
        <ele>60</ele>
        <time>2025-05-13T07:24:20Z</time>
      </trkpt>
      <trkpt lat="47.51923" lon="-2.57888">
        <ele>60</ele>
        <time>2025-05-13T07:24:21Z</time>
      </trkpt>
      <trkpt lat="47.51926" lon="-2.57885">
        <ele>59</ele>
        <time>2025-05-13T07:24:22Z</time>
      </trkpt>
      <trkpt lat="47.51929" lon="-2.57883">
        <ele>59</ele>
        <time>2025-05-13T07:24:23Z</time>
      </trkpt>
      <trkpt lat="47.51932" lon="-2.5788">
        <ele>59</ele>
        <time>2025-05-13T07:24:24Z</time>
      </trkpt>
      <trkpt lat="47.51935" lon="-2.57877">
        <ele>59</ele>
        <time>2025-05-13T07:24:25Z</time>
      </trkpt>
      <trkpt lat="47.51938" lon="-2.57874">
        <ele>59</ele>
        <time>2025-05-13T07:24:26Z</time>
      </trkpt>
      <trkpt lat="47.51941" lon="-2.57871">
        <ele>59</ele>
        <time>2025-05-13T07:24:27Z</time>
      </trkpt>
      <trkpt lat="47.51944" lon="-2.57868">
        <ele>59</ele>
        <time>2025-05-13T07:24:28Z</time>
      </trkpt>
      <trkpt lat="47.51947" lon="-2.57866">
        <ele>59</ele>
        <time>2025-05-13T07:24:29Z</time>
      </trkpt>
      <trkpt lat="47.5195" lon="-2.57864">
        <ele>59</ele>
        <time>2025-05-13T07:24:30Z</time>
      </trkpt>
      <trkpt lat="47.51953" lon="-2.57862">
        <ele>59</ele>
        <time>2025-05-13T07:24:31Z</time>
      </trkpt>
      <trkpt lat="47.51956" lon="-2.57859">
        <ele>59</ele>
        <time>2025-05-13T07:24:32Z</time>
      </trkpt>
      <trkpt lat="47.51959" lon="-2.57855">
        <ele>59</ele>
        <time>2025-05-13T07:24:33Z</time>
      </trkpt>
      <trkpt lat="47.51961" lon="-2.57853">
        <ele>59</ele>
        <time>2025-05-13T07:24:34Z</time>
      </trkpt>
      <trkpt lat="47.51964" lon="-2.5785">
        <ele>59</ele>
        <time>2025-05-13T07:24:35Z</time>
      </trkpt>
      <trkpt lat="47.51966" lon="-2.57848">
        <ele>59</ele>
        <time>2025-05-13T07:24:36Z</time>
      </trkpt>
      <trkpt lat="47.51969" lon="-2.57846">
        <ele>59</ele>
        <time>2025-05-13T07:24:37Z</time>
      </trkpt>
      <trkpt lat="47.51971" lon="-2.57843">
        <ele>59</ele>
        <time>2025-05-13T07:24:38Z</time>
      </trkpt>
      <trkpt lat="47.51974" lon="-2.57839">
        <ele>59</ele>
        <time>2025-05-13T07:24:39Z</time>
      </trkpt>
      <trkpt lat="47.51976" lon="-2.57836">
        <ele>59</ele>
        <time>2025-05-13T07:24:40Z</time>
      </trkpt>
      <trkpt lat="47.51978" lon="-2.57832">
        <ele>59</ele>
        <time>2025-05-13T07:24:41Z</time>
      </trkpt>
      <trkpt lat="47.51981" lon="-2.57828">
        <ele>59</ele>
        <time>2025-05-13T07:24:42Z</time>
      </trkpt>
      <trkpt lat="47.51983" lon="-2.57825">
        <ele>59</ele>
        <time>2025-05-13T07:24:43Z</time>
      </trkpt>
      <trkpt lat="47.51986" lon="-2.57822">
        <ele>59</ele>
        <time>2025-05-13T07:24:44Z</time>
      </trkpt>
      <trkpt lat="47.51988" lon="-2.57819">
        <ele>59</ele>
        <time>2025-05-13T07:24:45Z</time>
      </trkpt>
      <trkpt lat="47.51991" lon="-2.57817">
        <ele>60</ele>
        <time>2025-05-13T07:24:46Z</time>
      </trkpt>
      <trkpt lat="47.51993" lon="-2.57814">
        <ele>60</ele>
        <time>2025-05-13T07:24:47Z</time>
      </trkpt>
      <trkpt lat="47.51995" lon="-2.57812">
        <ele>60</ele>
        <time>2025-05-13T07:24:48Z</time>
      </trkpt>
      <trkpt lat="47.51996" lon="-2.57809">
        <ele>59</ele>
        <time>2025-05-13T07:24:49Z</time>
      </trkpt>
      <trkpt lat="47.51996" lon="-2.57806">
        <ele>58</ele>
        <time>2025-05-13T07:24:50Z</time>
      </trkpt>
      <trkpt lat="47.51997" lon="-2.57802">
        <ele>58</ele>
        <time>2025-05-13T07:24:51Z</time>
      </trkpt>
      <trkpt lat="47.51998" lon="-2.57798">
        <ele>58</ele>
        <time>2025-05-13T07:24:52Z</time>
      </trkpt>
      <trkpt lat="47.51999" lon="-2.57794">
        <ele>58</ele>
        <time>2025-05-13T07:24:53Z</time>
      </trkpt>
      <trkpt lat="47.52" lon="-2.5779">
        <ele>58</ele>
        <time>2025-05-13T07:24:54Z</time>
      </trkpt>
      <trkpt lat="47.52001" lon="-2.57786">
        <ele>58</ele>
        <time>2025-05-13T07:24:55Z</time>
      </trkpt>
      <trkpt lat="47.52002" lon="-2.57782">
        <ele>58</ele>
        <time>2025-05-13T07:24:56Z</time>
      </trkpt>
      <trkpt lat="47.52004" lon="-2.57778">
        <ele>58</ele>
        <time>2025-05-13T07:24:57Z</time>
      </trkpt>
      <trkpt lat="47.52005" lon="-2.57774">
        <ele>58</ele>
        <time>2025-05-13T07:24:58Z</time>
      </trkpt>
      <trkpt lat="47.52006" lon="-2.5777">
        <ele>58</ele>
        <time>2025-05-13T07:24:59Z</time>
      </trkpt>
      <trkpt lat="47.52007" lon="-2.57765">
        <ele>58</ele>
        <time>2025-05-13T07:25:00Z</time>
      </trkpt>
      <trkpt lat="47.52009" lon="-2.5776">
        <ele>58</ele>
        <time>2025-05-13T07:25:01Z</time>
      </trkpt>
      <trkpt lat="47.52011" lon="-2.57756">
        <ele>58</ele>
        <time>2025-05-13T07:25:02Z</time>
      </trkpt>
      <trkpt lat="47.52012" lon="-2.57751">
        <ele>57</ele>
        <time>2025-05-13T07:25:03Z</time>
      </trkpt>
      <trkpt lat="47.52014" lon="-2.57747">
        <ele>57</ele>
        <time>2025-05-13T07:25:04Z</time>
      </trkpt>
      <trkpt lat="47.52015" lon="-2.57742">
        <ele>57</ele>
        <time>2025-05-13T07:25:05Z</time>
      </trkpt>
      <trkpt lat="47.52018" lon="-2.57738">
        <ele>57</ele>
        <time>2025-05-13T07:25:06Z</time>
      </trkpt>
      <trkpt lat="47.52019" lon="-2.57734">
        <ele>56</ele>
        <time>2025-05-13T07:25:07Z</time>
      </trkpt>
      <trkpt lat="47.5202" lon="-2.5773">
        <ele>56</ele>
        <time>2025-05-13T07:25:08Z</time>
      </trkpt>
      <trkpt lat="47.52021" lon="-2.57725">
        <ele>56</ele>
        <time>2025-05-13T07:25:09Z</time>
      </trkpt>
      <trkpt lat="47.52022" lon="-2.5772">
        <ele>56</ele>
        <time>2025-05-13T07:25:10Z</time>
      </trkpt>
      <trkpt lat="47.52024" lon="-2.57716">
        <ele>56</ele>
        <time>2025-05-13T07:25:11Z</time>
      </trkpt>
      <trkpt lat="47.52025" lon="-2.57711">
        <ele>56</ele>
        <time>2025-05-13T07:25:12Z</time>
      </trkpt>
      <trkpt lat="47.52027" lon="-2.57707">
        <ele>56</ele>
        <time>2025-05-13T07:25:13Z</time>
      </trkpt>
      <trkpt lat="47.52029" lon="-2.57703">
        <ele>55</ele>
        <time>2025-05-13T07:25:14Z</time>
      </trkpt>
      <trkpt lat="47.52031" lon="-2.57698">
        <ele>55</ele>
        <time>2025-05-13T07:25:15Z</time>
      </trkpt>
      <trkpt lat="47.52033" lon="-2.57694">
        <ele>55</ele>
        <time>2025-05-13T07:25:16Z</time>
      </trkpt>
      <trkpt lat="47.52036" lon="-2.5769">
        <ele>55</ele>
        <time>2025-05-13T07:25:17Z</time>
      </trkpt>
      <trkpt lat="47.52037" lon="-2.57686">
        <ele>54</ele>
        <time>2025-05-13T07:25:18Z</time>
      </trkpt>
      <trkpt lat="47.52039" lon="-2.57682">
        <ele>54</ele>
        <time>2025-05-13T07:25:19Z</time>
      </trkpt>
      <trkpt lat="47.52041" lon="-2.57678">
        <ele>53</ele>
        <time>2025-05-13T07:25:20Z</time>
      </trkpt>
      <trkpt lat="47.52043" lon="-2.57673">
        <ele>53</ele>
        <time>2025-05-13T07:25:21Z</time>
      </trkpt>
      <trkpt lat="47.52044" lon="-2.57669">
        <ele>53</ele>
        <time>2025-05-13T07:25:22Z</time>
      </trkpt>
      <trkpt lat="47.52046" lon="-2.57664">
        <ele>54</ele>
        <time>2025-05-13T07:25:23Z</time>
      </trkpt>
      <trkpt lat="47.52048" lon="-2.57659">
        <ele>55</ele>
        <time>2025-05-13T07:25:24Z</time>
      </trkpt>
      <trkpt lat="47.52051" lon="-2.57655">
        <ele>56</ele>
        <time>2025-05-13T07:25:25Z</time>
      </trkpt>
      <trkpt lat="47.52053" lon="-2.57651">
        <ele>57</ele>
        <time>2025-05-13T07:25:26Z</time>
      </trkpt>
      <trkpt lat="47.52056" lon="-2.57646">
        <ele>57</ele>
        <time>2025-05-13T07:25:27Z</time>
      </trkpt>
      <trkpt lat="47.52058" lon="-2.57642">
        <ele>57</ele>
        <time>2025-05-13T07:25:28Z</time>
      </trkpt>
      <trkpt lat="47.5206" lon="-2.57638">
        <ele>58</ele>
        <time>2025-05-13T07:25:29Z</time>
      </trkpt>
      <trkpt lat="47.52063" lon="-2.57633">
        <ele>58</ele>
        <time>2025-05-13T07:25:30Z</time>
      </trkpt>
      <trkpt lat="47.52065" lon="-2.57629">
        <ele>58</ele>
        <time>2025-05-13T07:25:31Z</time>
      </trkpt>
      <trkpt lat="47.52068" lon="-2.57625">
        <ele>57</ele>
        <time>2025-05-13T07:25:32Z</time>
      </trkpt>
      <trkpt lat="47.5207" lon="-2.57622">
        <ele>57</ele>
        <time>2025-05-13T07:25:33Z</time>
      </trkpt>
      <trkpt lat="47.52072" lon="-2.57619">
        <ele>58</ele>
        <time>2025-05-13T07:25:34Z</time>
      </trkpt>
      <trkpt lat="47.52074" lon="-2.57616">
        <ele>57</ele>
        <time>2025-05-13T07:25:35Z</time>
      </trkpt>
      <trkpt lat="47.52076" lon="-2.57613">
        <ele>57</ele>
        <time>2025-05-13T07:25:36Z</time>
      </trkpt>
      <trkpt lat="47.52078" lon="-2.5761">
        <ele>57</ele>
        <time>2025-05-13T07:25:37Z</time>
      </trkpt>
      <trkpt lat="47.5208" lon="-2.57607">
        <ele>57</ele>
        <time>2025-05-13T07:25:38Z</time>
      </trkpt>
      <trkpt lat="47.52081" lon="-2.57604">
        <ele>57</ele>
        <time>2025-05-13T07:25:39Z</time>
      </trkpt>
      <trkpt lat="47.52083" lon="-2.57601">
        <ele>57</ele>
        <time>2025-05-13T07:25:40Z</time>
      </trkpt>
      <trkpt lat="47.52084" lon="-2.57598">
        <ele>57</ele>
        <time>2025-05-13T07:25:41Z</time>
      </trkpt>
      <trkpt lat="47.52086" lon="-2.57595">
        <ele>58</ele>
        <time>2025-05-13T07:25:42Z</time>
      </trkpt>
      <trkpt lat="47.52087" lon="-2.57592">
        <ele>57</ele>
        <time>2025-05-13T07:25:43Z</time>
      </trkpt>
      <trkpt lat="47.52088" lon="-2.5759">
        <ele>58</ele>
        <time>2025-05-13T07:25:44Z</time>
      </trkpt>
      <trkpt lat="47.52089" lon="-2.57588">
        <ele>57</ele>
        <time>2025-05-13T07:25:45Z</time>
      </trkpt>
      <trkpt lat="47.5209" lon="-2.57587">
        <ele>57</ele>
        <time>2025-05-13T07:25:46Z</time>
      </trkpt>
      <trkpt lat="47.5209" lon="-2.57586">
        <ele>57</ele>
        <time>2025-05-13T07:25:47Z</time>
      </trkpt>
      <trkpt lat="47.5209" lon="-2.57585">
        <ele>57</ele>
        <time>2025-05-13T07:25:48Z</time>
      </trkpt>
      <trkpt lat="47.52089" lon="-2.57585">
        <ele>57</ele>
        <time>2025-05-13T07:25:49Z</time>
      </trkpt>
      <trkpt lat="47.52088" lon="-2.57585">
        <ele>57</ele>
        <time>2025-05-13T07:25:50Z</time>
      </trkpt>
      <trkpt lat="47.52088" lon="-2.57585">
        <ele>57</ele>
        <time>2025-05-13T07:25:51Z</time>
      </trkpt>
      <trkpt lat="47.52087" lon="-2.57586">
        <ele>57</ele>
        <time>2025-05-13T07:25:52Z</time>
      </trkpt>
      <trkpt lat="47.52087" lon="-2.57586">
        <ele>57</ele>
        <time>2025-05-13T07:25:53Z</time>
      </trkpt>
      <trkpt lat="47.52086" lon="-2.57586">
        <ele>57</ele>
        <time>2025-05-13T07:25:54Z</time>
      </trkpt>
      <trkpt lat="47.52086" lon="-2.57587">
        <ele>57</ele>
        <time>2025-05-13T07:25:55Z</time>
      </trkpt>
      <trkpt lat="47.52086" lon="-2.57588">
        <ele>57</ele>
        <time>2025-05-13T07:25:56Z</time>
      </trkpt>
      <trkpt lat="47.52086" lon="-2.57588">
        <ele>57</ele>
        <time>2025-05-13T07:25:57Z</time>
      </trkpt>
      <trkpt lat="47.52086" lon="-2.57588">
        <ele>57</ele>
        <time>2025-05-13T07:25:58Z</time>
      </trkpt>
      <trkpt lat="47.52086" lon="-2.57588">
        <ele>57</ele>
        <time>2025-05-13T07:25:59Z</time>
      </trkpt>
      <trkpt lat="47.52086" lon="-2.57588">
        <ele>57</ele>
        <time>2025-05-13T07:26:00Z</time>
      </trkpt>
      <trkpt lat="47.52086" lon="-2.57588">
        <ele>57</ele>
        <time>2025-05-13T07:26:01Z</time>
      </trkpt>
      <trkpt lat="47.52086" lon="-2.57588">
        <ele>57</ele>
        <time>2025-05-13T07:26:02Z</time>
      </trkpt>
      <trkpt lat="47.52086" lon="-2.57588">
        <ele>57</ele>
        <time>2025-05-13T07:26:03Z</time>
      </trkpt>
      <trkpt lat="47.52086" lon="-2.57588">
        <ele>57</ele>
        <time>2025-05-13T07:26:04Z</time>
      </trkpt>
      <trkpt lat="47.52086" lon="-2.57588">
        <ele>57</ele>
        <time>2025-05-13T07:26:05Z</time>
      </trkpt>
      <trkpt lat="47.52086" lon="-2.57588">
        <ele>57</ele>
        <time>2025-05-13T07:26:06Z</time>
      </trkpt>
      <trkpt lat="47.52086" lon="-2.5759">
        <ele>56</ele>
        <time>2025-05-13T07:26:07Z</time>
      </trkpt>
      <trkpt lat="47.52087" lon="-2.5759">
        <ele>56</ele>
        <time>2025-05-13T07:26:08Z</time>
      </trkpt>
      <trkpt lat="47.52087" lon="-2.5759">
        <ele>56</ele>
        <time>2025-05-13T07:26:09Z</time>
      </trkpt>
      <trkpt lat="47.52088" lon="-2.57589">
        <ele>56</ele>
        <time>2025-05-13T07:26:10Z</time>
      </trkpt>
      <trkpt lat="47.52088" lon="-2.57589">
        <ele>56</ele>
        <time>2025-05-13T07:26:11Z</time>
      </trkpt>
      <trkpt lat="47.52088" lon="-2.57589">
        <ele>56</ele>
        <time>2025-05-13T07:26:12Z</time>
      </trkpt>
      <trkpt lat="47.52088" lon="-2.57589">
        <ele>56</ele>
        <time>2025-05-13T07:26:13Z</time>
      </trkpt>
      <trkpt lat="47.52088" lon="-2.57589">
        <ele>56</ele>
        <time>2025-05-13T07:26:14Z</time>
      </trkpt>
      <trkpt lat="47.52088" lon="-2.57589">
        <ele>56</ele>
        <time>2025-05-13T07:26:15Z</time>
      </trkpt>
      <trkpt lat="47.52088" lon="-2.57589">
        <ele>56</ele>
        <time>2025-05-13T07:26:16Z</time>
      </trkpt>
      <trkpt lat="47.52088" lon="-2.57589">
        <ele>56</ele>
        <time>2025-05-13T07:26:17Z</time>
      </trkpt>
      <trkpt lat="47.52088" lon="-2.57589">
        <ele>56</ele>
        <time>2025-05-13T07:26:18Z</time>
      </trkpt>
      <trkpt lat="47.52088" lon="-2.57589">
        <ele>56</ele>
        <time>2025-05-13T07:26:19Z</time>
      </trkpt>
      <trkpt lat="47.52088" lon="-2.57589">
        <ele>56</ele>
        <time>2025-05-13T07:26:20Z</time>
      </trkpt>
      <trkpt lat="47.52088" lon="-2.57589">
        <ele>56</ele>
        <time>2025-05-13T07:26:21Z</time>
      </trkpt>
      <trkpt lat="47.52088" lon="-2.57589">
        <ele>56</ele>
        <time>2025-05-13T07:26:22Z</time>
      </trkpt>
      <trkpt lat="47.52088" lon="-2.57589">
        <ele>56</ele>
        <time>2025-05-13T07:26:23Z</time>
      </trkpt>
      <trkpt lat="47.52088" lon="-2.57589">
        <ele>56</ele>
        <time>2025-05-13T07:26:24Z</time>
      </trkpt>
      <trkpt lat="47.52088" lon="-2.57589">
        <ele>56</ele>
        <time>2025-05-13T07:26:25Z</time>
      </trkpt>
      <trkpt lat="47.52088" lon="-2.57589">
        <ele>56</ele>
        <time>2025-05-13T07:26:26Z</time>
      </trkpt>
      <trkpt lat="47.52088" lon="-2.57589">
        <ele>56</ele>
        <time>2025-05-13T07:26:27Z</time>
      </trkpt>
      <trkpt lat="47.52088" lon="-2.57589">
        <ele>56</ele>
        <time>2025-05-13T07:26:28Z</time>
      </trkpt>
      <trkpt lat="47.52088" lon="-2.57589">
        <ele>56</ele>
        <time>2025-05-13T07:26:29Z</time>
      </trkpt>
      <trkpt lat="47.52088" lon="-2.57589">
        <ele>56</ele>
        <time>2025-05-13T07:26:30Z</time>
      </trkpt>
      <trkpt lat="47.52088" lon="-2.57589">
        <ele>56</ele>
        <time>2025-05-13T07:26:31Z</time>
      </trkpt>
      <trkpt lat="47.52088" lon="-2.57589">
        <ele>56</ele>
        <time>2025-05-13T07:26:32Z</time>
      </trkpt>
      <trkpt lat="47.52088" lon="-2.57589">
        <ele>56</ele>
        <time>2025-05-13T07:26:33Z</time>
      </trkpt>
      <trkpt lat="47.52088" lon="-2.57589">
        <ele>56</ele>
        <time>2025-05-13T07:26:34Z</time>
      </trkpt>
      <trkpt lat="47.52088" lon="-2.57589">
        <ele>56</ele>
        <time>2025-05-13T07:26:35Z</time>
      </trkpt>
      <trkpt lat="47.52088" lon="-2.57589">
        <ele>56</ele>
        <time>2025-05-13T07:26:36Z</time>
      </trkpt>
      <trkpt lat="47.52088" lon="-2.57589">
        <ele>56</ele>
        <time>2025-05-13T07:26:37Z</time>
      </trkpt>
      <trkpt lat="47.52088" lon="-2.57589">
        <ele>56</ele>
        <time>2025-05-13T07:26:38Z</time>
      </trkpt>
      <trkpt lat="47.52088" lon="-2.57589">
        <ele>56</ele>
        <time>2025-05-13T07:26:39Z</time>
      </trkpt>
      <trkpt lat="47.52088" lon="-2.57589">
        <ele>56</ele>
        <time>2025-05-13T07:26:40Z</time>
      </trkpt>
      <trkpt lat="47.52088" lon="-2.57589">
        <ele>56</ele>
        <time>2025-05-13T07:26:41Z</time>
      </trkpt>
      <trkpt lat="47.52088" lon="-2.57589">
        <ele>56</ele>
        <time>2025-05-13T07:26:42Z</time>
      </trkpt>
      <trkpt lat="47.52088" lon="-2.57589">
        <ele>56</ele>
        <time>2025-05-13T07:26:43Z</time>
      </trkpt>
      <trkpt lat="47.52088" lon="-2.57589">
        <ele>56</ele>
        <time>2025-05-13T07:26:44Z</time>
      </trkpt>
      <trkpt lat="47.52088" lon="-2.57589">
        <ele>56</ele>
        <time>2025-05-13T07:26:45Z</time>
      </trkpt>
      <trkpt lat="47.52088" lon="-2.57589">
        <ele>56</ele>
        <time>2025-05-13T07:26:46Z</time>
      </trkpt>
      <trkpt lat="47.52088" lon="-2.57589">
        <ele>56</ele>
        <time>2025-05-13T07:26:47Z</time>
      </trkpt>
      <trkpt lat="47.52088" lon="-2.57589">
        <ele>56</ele>
        <time>2025-05-13T07:26:48Z</time>
      </trkpt>
      <trkpt lat="47.52088" lon="-2.57589">
        <ele>56</ele>
        <time>2025-05-13T07:26:49Z</time>
      </trkpt>
      <trkpt lat="47.52088" lon="-2.57589">
        <ele>56</ele>
        <time>2025-05-13T07:26:50Z</time>
      </trkpt>
      <trkpt lat="47.52088" lon="-2.57589">
        <ele>56</ele>
        <time>2025-05-13T07:26:51Z</time>
      </trkpt>
      <trkpt lat="47.52088" lon="-2.57589">
        <ele>56</ele>
        <time>2025-05-13T07:26:52Z</time>
      </trkpt>
      <trkpt lat="47.52088" lon="-2.57589">
        <ele>56</ele>
        <time>2025-05-13T07:26:53Z</time>
      </trkpt>
      <trkpt lat="47.52088" lon="-2.57589">
        <ele>56</ele>
        <time>2025-05-13T07:26:54Z</time>
      </trkpt>
      <trkpt lat="47.52088" lon="-2.57589">
        <ele>56</ele>
        <time>2025-05-13T07:26:55Z</time>
      </trkpt>
      <trkpt lat="47.52088" lon="-2.57589">
        <ele>56</ele>
        <time>2025-05-13T07:26:56Z</time>
      </trkpt>
      <trkpt lat="47.52088" lon="-2.57589">
        <ele>56</ele>
        <time>2025-05-13T07:26:57Z</time>
      </trkpt>
      <trkpt lat="47.52088" lon="-2.57589">
        <ele>56</ele>
        <time>2025-05-13T07:26:58Z</time>
      </trkpt>
      <trkpt lat="47.52088" lon="-2.57589">
        <ele>56</ele>
        <time>2025-05-13T07:26:59Z</time>
      </trkpt>
      <trkpt lat="47.52087" lon="-2.57595">
        <ele>60</ele>
        <time>2025-05-13T08:10:18Z</time>
      </trkpt>
      <trkpt lat="47.52087" lon="-2.57595">
        <ele>60</ele>
        <time>2025-05-13T08:10:19Z</time>
      </trkpt>
      <trkpt lat="47.52087" lon="-2.57595">
        <ele>60</ele>
        <time>2025-05-13T08:10:20Z</time>
      </trkpt>
      <trkpt lat="47.52087" lon="-2.57595">
        <ele>60</ele>
        <time>2025-05-13T08:10:21Z</time>
      </trkpt>
      <trkpt lat="47.52087" lon="-2.57595">
        <ele>60</ele>
        <time>2025-05-13T08:10:22Z</time>
      </trkpt>
      <trkpt lat="47.52087" lon="-2.57595">
        <ele>60</ele>
        <time>2025-05-13T08:10:23Z</time>
      </trkpt>
      <trkpt lat="47.52087" lon="-2.57595">
        <ele>60</ele>
        <time>2025-05-13T08:10:24Z</time>
      </trkpt>
      <trkpt lat="47.52087" lon="-2.57595">
        <ele>60</ele>
        <time>2025-05-13T08:10:25Z</time>
      </trkpt>
      <trkpt lat="47.52087" lon="-2.57595">
        <ele>60</ele>
        <time>2025-05-13T08:10:26Z</time>
      </trkpt>
      <trkpt lat="47.52087" lon="-2.57595">
        <ele>60</ele>
        <time>2025-05-13T08:10:27Z</time>
      </trkpt>
      <trkpt lat="47.52087" lon="-2.57595">
        <ele>60</ele>
        <time>2025-05-13T08:10:28Z</time>
      </trkpt>
      <trkpt lat="47.52087" lon="-2.57595">
        <ele>60</ele>
        <time>2025-05-13T08:10:29Z</time>
      </trkpt>
      <trkpt lat="47.52087" lon="-2.57595">
        <ele>60</ele>
        <time>2025-05-13T08:10:30Z</time>
      </trkpt>
      <trkpt lat="47.52087" lon="-2.57595">
        <ele>60</ele>
        <time>2025-05-13T08:10:31Z</time>
      </trkpt>
      <trkpt lat="47.52087" lon="-2.57595">
        <ele>60</ele>
        <time>2025-05-13T08:10:32Z</time>
      </trkpt>
      <trkpt lat="47.52087" lon="-2.57595">
        <ele>60</ele>
        <time>2025-05-13T08:10:33Z</time>
      </trkpt>
      <trkpt lat="47.52087" lon="-2.57595">
        <ele>60</ele>
        <time>2025-05-13T08:10:34Z</time>
      </trkpt>
      <trkpt lat="47.52087" lon="-2.57595">
        <ele>60</ele>
        <time>2025-05-13T08:10:35Z</time>
      </trkpt>
      <trkpt lat="47.52087" lon="-2.57595">
        <ele>60</ele>
        <time>2025-05-13T08:10:36Z</time>
      </trkpt>
      <trkpt lat="47.52087" lon="-2.57595">
        <ele>60</ele>
        <time>2025-05-13T08:10:37Z</time>
      </trkpt>
      <trkpt lat="47.52087" lon="-2.57595">
        <ele>60</ele>
        <time>2025-05-13T08:10:38Z</time>
      </trkpt>
      <trkpt lat="47.52087" lon="-2.57595">
        <ele>60</ele>
        <time>2025-05-13T08:10:39Z</time>
      </trkpt>
      <trkpt lat="47.52087" lon="-2.57594">
        <ele>60</ele>
        <time>2025-05-13T08:10:40Z</time>
      </trkpt>
      <trkpt lat="47.52086" lon="-2.57595">
        <ele>59</ele>
        <time>2025-05-13T08:10:41Z</time>
      </trkpt>
      <trkpt lat="47.52086" lon="-2.57597">
        <ele>59</ele>
        <time>2025-05-13T08:10:42Z</time>
      </trkpt>
      <trkpt lat="47.52085" lon="-2.57599">
        <ele>58</ele>
        <time>2025-05-13T08:10:43Z</time>
      </trkpt>
      <trkpt lat="47.52085" lon="-2.57601">
        <ele>58</ele>
        <time>2025-05-13T08:10:44Z</time>
      </trkpt>
      <trkpt lat="47.52085" lon="-2.57603">
        <ele>57</ele>
        <time>2025-05-13T08:10:45Z</time>
      </trkpt>
      <trkpt lat="47.52085" lon="-2.57605">
        <ele>57</ele>
        <time>2025-05-13T08:10:46Z</time>
      </trkpt>
      <trkpt lat="47.52084" lon="-2.57606">
        <ele>57</ele>
        <time>2025-05-13T08:10:47Z</time>
      </trkpt>
      <trkpt lat="47.52083" lon="-2.57607">
        <ele>57</ele>
        <time>2025-05-13T08:10:48Z</time>
      </trkpt>
      <trkpt lat="47.52082" lon="-2.57609">
        <ele>57</ele>
        <time>2025-05-13T08:10:49Z</time>
      </trkpt>
      <trkpt lat="47.52081" lon="-2.5761">
        <ele>57</ele>
        <time>2025-05-13T08:10:50Z</time>
      </trkpt>
      <trkpt lat="47.52079" lon="-2.57611">
        <ele>57</ele>
        <time>2025-05-13T08:10:51Z</time>
      </trkpt>
      <trkpt lat="47.52077" lon="-2.57612">
        <ele>57</ele>
        <time>2025-05-13T08:10:52Z</time>
      </trkpt>
      <trkpt lat="47.52076" lon="-2.57614">
        <ele>57</ele>
        <time>2025-05-13T08:10:53Z</time>
      </trkpt>
      <trkpt lat="47.52074" lon="-2.57616">
        <ele>57</ele>
        <time>2025-05-13T08:10:54Z</time>
      </trkpt>
      <trkpt lat="47.52073" lon="-2.57618">
        <ele>58</ele>
        <time>2025-05-13T08:10:55Z</time>
      </trkpt>
      <trkpt lat="47.52072" lon="-2.57621">
        <ele>58</ele>
        <time>2025-05-13T08:10:56Z</time>
      </trkpt>
      <trkpt lat="47.52071" lon="-2.57624">
        <ele>58</ele>
        <time>2025-05-13T08:10:57Z</time>
      </trkpt>
      <trkpt lat="47.52069" lon="-2.57627">
        <ele>58</ele>
        <time>2025-05-13T08:10:58Z</time>
      </trkpt>
      <trkpt lat="47.52068" lon="-2.57629">
        <ele>58</ele>
        <time>2025-05-13T08:10:59Z</time>
      </trkpt>
      <trkpt lat="47.52066" lon="-2.57632">
        <ele>58</ele>
        <time>2025-05-13T08:11:00Z</time>
      </trkpt>
      <trkpt lat="47.52064" lon="-2.57635">
        <ele>58</ele>
        <time>2025-05-13T08:11:01Z</time>
      </trkpt>
      <trkpt lat="47.52063" lon="-2.57638">
        <ele>58</ele>
        <time>2025-05-13T08:11:02Z</time>
      </trkpt>
      <trkpt lat="47.52061" lon="-2.57641">
        <ele>58</ele>
        <time>2025-05-13T08:11:03Z</time>
      </trkpt>
      <trkpt lat="47.5206" lon="-2.57644">
        <ele>58</ele>
        <time>2025-05-13T08:11:04Z</time>
      </trkpt>
      <trkpt lat="47.52058" lon="-2.57647">
        <ele>58</ele>
        <time>2025-05-13T08:11:05Z</time>
      </trkpt>
      <trkpt lat="47.52057" lon="-2.5765">
        <ele>58</ele>
        <time>2025-05-13T08:11:06Z</time>
      </trkpt>
      <trkpt lat="47.52055" lon="-2.57653">
        <ele>58</ele>
        <time>2025-05-13T08:11:07Z</time>
      </trkpt>
      <trkpt lat="47.52054" lon="-2.57655">
        <ele>58</ele>
        <time>2025-05-13T08:11:08Z</time>
      </trkpt>
      <trkpt lat="47.52053" lon="-2.57658">
        <ele>58</ele>
        <time>2025-05-13T08:11:09Z</time>
      </trkpt>
      <trkpt lat="47.52051" lon="-2.57661">
        <ele>59</ele>
        <time>2025-05-13T08:11:10Z</time>
      </trkpt>
      <trkpt lat="47.5205" lon="-2.57664">
        <ele>59</ele>
        <time>2025-05-13T08:11:11Z</time>
      </trkpt>
      <trkpt lat="47.52048" lon="-2.57666">
        <ele>59</ele>
        <time>2025-05-13T08:11:12Z</time>
      </trkpt>
      <trkpt lat="47.52047" lon="-2.57669">
        <ele>59</ele>
        <time>2025-05-13T08:11:13Z</time>
      </trkpt>
      <trkpt lat="47.52046" lon="-2.57672">
        <ele>59</ele>
        <time>2025-05-13T08:11:14Z</time>
      </trkpt>
      <trkpt lat="47.52044" lon="-2.57675">
        <ele>59</ele>
        <time>2025-05-13T08:11:15Z</time>
      </trkpt>
      <trkpt lat="47.52043" lon="-2.57677">
        <ele>58</ele>
        <time>2025-05-13T08:11:16Z</time>
      </trkpt>
      <trkpt lat="47.52041" lon="-2.5768">
        <ele>58</ele>
        <time>2025-05-13T08:11:17Z</time>
      </trkpt>
      <trkpt lat="47.52039" lon="-2.57683">
        <ele>58</ele>
        <time>2025-05-13T08:11:18Z</time>
      </trkpt>
      <trkpt lat="47.52037" lon="-2.57686">
        <ele>58</ele>
        <time>2025-05-13T08:11:19Z</time>
      </trkpt>
      <trkpt lat="47.52036" lon="-2.57689">
        <ele>58</ele>
        <time>2025-05-13T08:11:20Z</time>
      </trkpt>
      <trkpt lat="47.52034" lon="-2.57692">
        <ele>57</ele>
        <time>2025-05-13T08:11:21Z</time>
      </trkpt>
      <trkpt lat="47.52033" lon="-2.57696">
        <ele>57</ele>
        <time>2025-05-13T08:11:22Z</time>
      </trkpt>
      <trkpt lat="47.52032" lon="-2.577">
        <ele>57</ele>
        <time>2025-05-13T08:11:23Z</time>
      </trkpt>
      <trkpt lat="47.52031" lon="-2.57704">
        <ele>57</ele>
        <time>2025-05-13T08:11:24Z</time>
      </trkpt>
      <trkpt lat="47.5203" lon="-2.57707">
        <ele>58</ele>
        <time>2025-05-13T08:11:25Z</time>
      </trkpt>
      <trkpt lat="47.52029" lon="-2.57711">
        <ele>58</ele>
        <time>2025-05-13T08:11:26Z</time>
      </trkpt>
      <trkpt lat="47.52027" lon="-2.57714">
        <ele>58</ele>
        <time>2025-05-13T08:11:27Z</time>
      </trkpt>
      <trkpt lat="47.52026" lon="-2.57718">
        <ele>58</ele>
        <time>2025-05-13T08:11:28Z</time>
      </trkpt>
      <trkpt lat="47.52025" lon="-2.57721">
        <ele>58</ele>
        <time>2025-05-13T08:11:29Z</time>
      </trkpt>
      <trkpt lat="47.52023" lon="-2.57725">
        <ele>58</ele>
        <time>2025-05-13T08:11:30Z</time>
      </trkpt>
      <trkpt lat="47.52022" lon="-2.57728">
        <ele>58</ele>
        <time>2025-05-13T08:11:31Z</time>
      </trkpt>
      <trkpt lat="47.52022" lon="-2.57732">
        <ele>58</ele>
        <time>2025-05-13T08:11:32Z</time>
      </trkpt>
      <trkpt lat="47.52021" lon="-2.57735">
        <ele>57</ele>
        <time>2025-05-13T08:11:33Z</time>
      </trkpt>
      <trkpt lat="47.5202" lon="-2.57737">
        <ele>58</ele>
        <time>2025-05-13T08:11:34Z</time>
      </trkpt>
      <trkpt lat="47.5202" lon="-2.57738">
        <ele>57</ele>
        <time>2025-05-13T08:11:35Z</time>
      </trkpt>
      <trkpt lat="47.52019" lon="-2.57738">
        <ele>57</ele>
        <time>2025-05-13T08:11:36Z</time>
      </trkpt>
      <trkpt lat="47.52019" lon="-2.57737">
        <ele>57</ele>
        <time>2025-05-13T08:11:37Z</time>
      </trkpt>
      <trkpt lat="47.52019" lon="-2.57737">
        <ele>56</ele>
        <time>2025-05-13T08:11:38Z</time>
      </trkpt>
      <trkpt lat="47.52019" lon="-2.57738">
        <ele>56</ele>
        <time>2025-05-13T08:11:39Z</time>
      </trkpt>
      <trkpt lat="47.52018" lon="-2.57739">
        <ele>56</ele>
        <time>2025-05-13T08:11:40Z</time>
      </trkpt>
      <trkpt lat="47.52018" lon="-2.5774">
        <ele>56</ele>
        <time>2025-05-13T08:11:41Z</time>
      </trkpt>
      <trkpt lat="47.52017" lon="-2.57742">
        <ele>57</ele>
        <time>2025-05-13T08:11:42Z</time>
      </trkpt>
      <trkpt lat="47.52016" lon="-2.57745">
        <ele>57</ele>
        <time>2025-05-13T08:11:43Z</time>
      </trkpt>
      <trkpt lat="47.52016" lon="-2.57747">
        <ele>57</ele>
        <time>2025-05-13T08:11:44Z</time>
      </trkpt>
      <trkpt lat="47.52015" lon="-2.5775">
        <ele>58</ele>
        <time>2025-05-13T08:11:45Z</time>
      </trkpt>
      <trkpt lat="47.52014" lon="-2.57752">
        <ele>59</ele>
        <time>2025-05-13T08:11:46Z</time>
      </trkpt>
      <trkpt lat="47.52013" lon="-2.57755">
        <ele>59</ele>
        <time>2025-05-13T08:11:47Z</time>
      </trkpt>
      <trkpt lat="47.52012" lon="-2.57757">
        <ele>60</ele>
        <time>2025-05-13T08:11:48Z</time>
      </trkpt>
      <trkpt lat="47.52011" lon="-2.5776">
        <ele>61</ele>
        <time>2025-05-13T08:11:49Z</time>
      </trkpt>
      <trkpt lat="47.5201" lon="-2.57763">
        <ele>61</ele>
        <time>2025-05-13T08:11:50Z</time>
      </trkpt>
      <trkpt lat="47.5201" lon="-2.57766">
        <ele>62</ele>
        <time>2025-05-13T08:11:51Z</time>
      </trkpt>
      <trkpt lat="47.52009" lon="-2.57769">
        <ele>61</ele>
        <time>2025-05-13T08:11:52Z</time>
      </trkpt>
      <trkpt lat="47.52007" lon="-2.57772">
        <ele>61</ele>
        <time>2025-05-13T08:11:53Z</time>
      </trkpt>
      <trkpt lat="47.52006" lon="-2.57775">
        <ele>62</ele>
        <time>2025-05-13T08:11:54Z</time>
      </trkpt>
      <trkpt lat="47.52005" lon="-2.57779">
        <ele>62</ele>
        <time>2025-05-13T08:11:55Z</time>
      </trkpt>
      <trkpt lat="47.52005" lon="-2.57782">
        <ele>62</ele>
        <time>2025-05-13T08:11:56Z</time>
      </trkpt>
      <trkpt lat="47.52004" lon="-2.57785">
        <ele>61</ele>
        <time>2025-05-13T08:11:57Z</time>
      </trkpt>
      <trkpt lat="47.52003" lon="-2.57788">
        <ele>61</ele>
        <time>2025-05-13T08:11:58Z</time>
      </trkpt>
      <trkpt lat="47.52003" lon="-2.57791">
        <ele>61</ele>
        <time>2025-05-13T08:11:59Z</time>
      </trkpt>
      <trkpt lat="47.52003" lon="-2.57794">
        <ele>60</ele>
        <time>2025-05-13T08:12:00Z</time>
      </trkpt>
      <trkpt lat="47.52002" lon="-2.57796">
        <ele>60</ele>
        <time>2025-05-13T08:12:01Z</time>
      </trkpt>
      <trkpt lat="47.52001" lon="-2.57798">
        <ele>60</ele>
        <time>2025-05-13T08:12:02Z</time>
      </trkpt>
      <trkpt lat="47.52001" lon="-2.578">
        <ele>60</ele>
        <time>2025-05-13T08:12:03Z</time>
      </trkpt>
      <trkpt lat="47.52" lon="-2.57801">
        <ele>60</ele>
        <time>2025-05-13T08:12:04Z</time>
      </trkpt>
      <trkpt lat="47.51999" lon="-2.57802">
        <ele>60</ele>
        <time>2025-05-13T08:12:05Z</time>
      </trkpt>
      <trkpt lat="47.51999" lon="-2.57804">
        <ele>60</ele>
        <time>2025-05-13T08:12:06Z</time>
      </trkpt>
      <trkpt lat="47.51999" lon="-2.57807">
        <ele>61</ele>
        <time>2025-05-13T08:12:07Z</time>
      </trkpt>
      <trkpt lat="47.51999" lon="-2.57809">
        <ele>61</ele>
        <time>2025-05-13T08:12:08Z</time>
      </trkpt>
      <trkpt lat="47.51999" lon="-2.57811">
        <ele>61</ele>
        <time>2025-05-13T08:12:09Z</time>
      </trkpt>
      <trkpt lat="47.51998" lon="-2.57812">
        <ele>60</ele>
        <time>2025-05-13T08:12:10Z</time>
      </trkpt>
      <trkpt lat="47.51997" lon="-2.57813">
        <ele>61</ele>
        <time>2025-05-13T08:12:11Z</time>
      </trkpt>
      <trkpt lat="47.51997" lon="-2.57813">
        <ele>61</ele>
        <time>2025-05-13T08:12:12Z</time>
      </trkpt>
      <trkpt lat="47.51997" lon="-2.57813">
        <ele>61</ele>
        <time>2025-05-13T08:12:13Z</time>
      </trkpt>
      <trkpt lat="47.51997" lon="-2.57813">
        <ele>61</ele>
        <time>2025-05-13T08:12:14Z</time>
      </trkpt>
      <trkpt lat="47.51996" lon="-2.57813">
        <ele>61</ele>
        <time>2025-05-13T08:12:15Z</time>
      </trkpt>
      <trkpt lat="47.51996" lon="-2.57813">
        <ele>61</ele>
        <time>2025-05-13T08:12:16Z</time>
      </trkpt>
      <trkpt lat="47.51996" lon="-2.57813">
        <ele>60</ele>
        <time>2025-05-13T08:12:17Z</time>
      </trkpt>
      <trkpt lat="47.51996" lon="-2.57813">
        <ele>60</ele>
        <time>2025-05-13T08:12:18Z</time>
      </trkpt>
      <trkpt lat="47.51996" lon="-2.57813">
        <ele>60</ele>
        <time>2025-05-13T08:12:19Z</time>
      </trkpt>
      <trkpt lat="47.51996" lon="-2.57812">
        <ele>60</ele>
        <time>2025-05-13T08:12:20Z</time>
      </trkpt>
      <trkpt lat="47.51995" lon="-2.57813">
        <ele>60</ele>
        <time>2025-05-13T08:12:21Z</time>
      </trkpt>
      <trkpt lat="47.51994" lon="-2.57813">
        <ele>60</ele>
        <time>2025-05-13T08:12:22Z</time>
      </trkpt>
      <trkpt lat="47.51993" lon="-2.57814">
        <ele>60</ele>
        <time>2025-05-13T08:12:23Z</time>
      </trkpt>
      <trkpt lat="47.51991" lon="-2.57815">
        <ele>60</ele>
        <time>2025-05-13T08:12:24Z</time>
      </trkpt>
      <trkpt lat="47.51989" lon="-2.57815">
        <ele>59</ele>
        <time>2025-05-13T08:12:25Z</time>
      </trkpt>
      <trkpt lat="47.51988" lon="-2.57817">
        <ele>59</ele>
        <time>2025-05-13T08:12:26Z</time>
      </trkpt>
      <trkpt lat="47.51986" lon="-2.57818">
        <ele>59</ele>
        <time>2025-05-13T08:12:27Z</time>
      </trkpt>
      <trkpt lat="47.51984" lon="-2.57821">
        <ele>59</ele>
        <time>2025-05-13T08:12:28Z</time>
      </trkpt>
      <trkpt lat="47.51984" lon="-2.57823">
        <ele>58</ele>
        <time>2025-05-13T08:12:29Z</time>
      </trkpt>
      <trkpt lat="47.51983" lon="-2.57826">
        <ele>58</ele>
        <time>2025-05-13T08:12:30Z</time>
      </trkpt>
      <trkpt lat="47.51982" lon="-2.57829">
        <ele>58</ele>
        <time>2025-05-13T08:12:31Z</time>
      </trkpt>
      <trkpt lat="47.51982" lon="-2.5783">
        <ele>58</ele>
        <time>2025-05-13T08:12:32Z</time>
      </trkpt>
      <trkpt lat="47.51981" lon="-2.5783">
        <ele>58</ele>
        <time>2025-05-13T08:12:33Z</time>
      </trkpt>
      <trkpt lat="47.5198" lon="-2.57831">
        <ele>59</ele>
        <time>2025-05-13T08:12:34Z</time>
      </trkpt>
      <trkpt lat="47.51979" lon="-2.57832">
        <ele>59</ele>
        <time>2025-05-13T08:12:35Z</time>
      </trkpt>
      <trkpt lat="47.51978" lon="-2.57834">
        <ele>59</ele>
        <time>2025-05-13T08:12:36Z</time>
      </trkpt>
      <trkpt lat="47.51976" lon="-2.57837">
        <ele>59</ele>
        <time>2025-05-13T08:12:37Z</time>
      </trkpt>
      <trkpt lat="47.51975" lon="-2.57839">
        <ele>59</ele>
        <time>2025-05-13T08:12:38Z</time>
      </trkpt>
      <trkpt lat="47.51975" lon="-2.57841">
        <ele>59</ele>
        <time>2025-05-13T08:12:39Z</time>
      </trkpt>
      <trkpt lat="47.51974" lon="-2.57842">
        <ele>60</ele>
        <time>2025-05-13T08:12:40Z</time>
      </trkpt>
      <trkpt lat="47.51973" lon="-2.57842">
        <ele>60</ele>
        <time>2025-05-13T08:12:41Z</time>
      </trkpt>
      <trkpt lat="47.51973" lon="-2.57842">
        <ele>60</ele>
        <time>2025-05-13T08:12:42Z</time>
      </trkpt>
      <trkpt lat="47.51972" lon="-2.57842">
        <ele>61</ele>
        <time>2025-05-13T08:12:43Z</time>
      </trkpt>
      <trkpt lat="47.51971" lon="-2.57841">
        <ele>61</ele>
        <time>2025-05-13T08:12:44Z</time>
      </trkpt>
      <trkpt lat="47.5197" lon="-2.57841">
        <ele>62</ele>
        <time>2025-05-13T08:12:45Z</time>
      </trkpt>
      <trkpt lat="47.51969" lon="-2.57841">
        <ele>62</ele>
        <time>2025-05-13T08:12:46Z</time>
      </trkpt>
      <trkpt lat="47.51968" lon="-2.57842">
        <ele>62</ele>
        <time>2025-05-13T08:12:47Z</time>
      </trkpt>
      <trkpt lat="47.51967" lon="-2.57843">
        <ele>62</ele>
        <time>2025-05-13T08:12:48Z</time>
      </trkpt>
      <trkpt lat="47.51966" lon="-2.57844">
        <ele>62</ele>
        <time>2025-05-13T08:12:49Z</time>
      </trkpt>
      <trkpt lat="47.51966" lon="-2.57845">
        <ele>62</ele>
        <time>2025-05-13T08:12:50Z</time>
      </trkpt>
      <trkpt lat="47.51965" lon="-2.57846">
        <ele>62</ele>
        <time>2025-05-13T08:12:51Z</time>
      </trkpt>
      <trkpt lat="47.51965" lon="-2.57848">
        <ele>62</ele>
        <time>2025-05-13T08:12:52Z</time>
      </trkpt>
      <trkpt lat="47.51964" lon="-2.5785">
        <ele>62</ele>
        <time>2025-05-13T08:12:53Z</time>
      </trkpt>
      <trkpt lat="47.51963" lon="-2.57852">
        <ele>63</ele>
        <time>2025-05-13T08:12:54Z</time>
      </trkpt>
      <trkpt lat="47.51962" lon="-2.57854">
        <ele>63</ele>
        <time>2025-05-13T08:12:55Z</time>
      </trkpt>
      <trkpt lat="47.5196" lon="-2.57855">
        <ele>64</ele>
        <time>2025-05-13T08:12:56Z</time>
      </trkpt>
      <trkpt lat="47.51958" lon="-2.57857">
        <ele>63</ele>
        <time>2025-05-13T08:12:57Z</time>
      </trkpt>
      <trkpt lat="47.51956" lon="-2.57858">
        <ele>63</ele>
        <time>2025-05-13T08:12:58Z</time>
      </trkpt>
      <trkpt lat="47.51954" lon="-2.5786">
        <ele>63</ele>
        <time>2025-05-13T08:12:59Z</time>
      </trkpt>
      <trkpt lat="47.51951" lon="-2.57861">
        <ele>63</ele>
        <time>2025-05-13T08:13:00Z</time>
      </trkpt>
      <trkpt lat="47.51949" lon="-2.57863">
        <ele>63</ele>
        <time>2025-05-13T08:13:01Z</time>
      </trkpt>
      <trkpt lat="47.51947" lon="-2.57864">
        <ele>62</ele>
        <time>2025-05-13T08:13:02Z</time>
      </trkpt>
      <trkpt lat="47.51944" lon="-2.57865">
        <ele>62</ele>
        <time>2025-05-13T08:13:03Z</time>
      </trkpt>
      <trkpt lat="47.51942" lon="-2.57868">
        <ele>62</ele>
        <time>2025-05-13T08:13:04Z</time>
      </trkpt>
      <trkpt lat="47.5194" lon="-2.5787">
        <ele>62</ele>
        <time>2025-05-13T08:13:05Z</time>
      </trkpt>
      <trkpt lat="47.51937" lon="-2.57872">
        <ele>62</ele>
        <time>2025-05-13T08:13:06Z</time>
      </trkpt>
      <trkpt lat="47.51936" lon="-2.57874">
        <ele>62</ele>
        <time>2025-05-13T08:13:07Z</time>
      </trkpt>
      <trkpt lat="47.51934" lon="-2.57876">
        <ele>61</ele>
        <time>2025-05-13T08:13:08Z</time>
      </trkpt>
      <trkpt lat="47.51932" lon="-2.57878">
        <ele>61</ele>
        <time>2025-05-13T08:13:09Z</time>
      </trkpt>
      <trkpt lat="47.5193" lon="-2.57879">
        <ele>61</ele>
        <time>2025-05-13T08:13:10Z</time>
      </trkpt>
      <trkpt lat="47.51927" lon="-2.57881">
        <ele>61</ele>
        <time>2025-05-13T08:13:11Z</time>
      </trkpt>
      <trkpt lat="47.51925" lon="-2.57883">
        <ele>61</ele>
        <time>2025-05-13T08:13:12Z</time>
      </trkpt>
      <trkpt lat="47.51924" lon="-2.57885">
        <ele>62</ele>
        <time>2025-05-13T08:13:13Z</time>
      </trkpt>
      <trkpt lat="47.51922" lon="-2.57887">
        <ele>62</ele>
        <time>2025-05-13T08:13:14Z</time>
      </trkpt>
      <trkpt lat="47.5192" lon="-2.57889">
        <ele>62</ele>
        <time>2025-05-13T08:13:15Z</time>
      </trkpt>
      <trkpt lat="47.51918" lon="-2.5789">
        <ele>62</ele>
        <time>2025-05-13T08:13:16Z</time>
      </trkpt>
      <trkpt lat="47.51916" lon="-2.57891">
        <ele>62</ele>
        <time>2025-05-13T08:13:17Z</time>
      </trkpt>
      <trkpt lat="47.51913" lon="-2.57891">
        <ele>62</ele>
        <time>2025-05-13T08:13:18Z</time>
      </trkpt>
      <trkpt lat="47.51911" lon="-2.57892">
        <ele>62</ele>
        <time>2025-05-13T08:13:19Z</time>
      </trkpt>
      <trkpt lat="47.51908" lon="-2.57895">
        <ele>62</ele>
        <time>2025-05-13T08:13:20Z</time>
      </trkpt>
      <trkpt lat="47.51906" lon="-2.57898">
        <ele>62</ele>
        <time>2025-05-13T08:13:21Z</time>
      </trkpt>
      <trkpt lat="47.51904" lon="-2.57901">
        <ele>62</ele>
        <time>2025-05-13T08:13:22Z</time>
      </trkpt>
      <trkpt lat="47.51902" lon="-2.57904">
        <ele>62</ele>
        <time>2025-05-13T08:13:23Z</time>
      </trkpt>
      <trkpt lat="47.519" lon="-2.57907">
        <ele>62</ele>
        <time>2025-05-13T08:13:24Z</time>
      </trkpt>
      <trkpt lat="47.51898" lon="-2.57911">
        <ele>62</ele>
        <time>2025-05-13T08:13:25Z</time>
      </trkpt>
      <trkpt lat="47.51895" lon="-2.57914">
        <ele>62</ele>
        <time>2025-05-13T08:13:26Z</time>
      </trkpt>
      <trkpt lat="47.51893" lon="-2.57917">
        <ele>62</ele>
        <time>2025-05-13T08:13:27Z</time>
      </trkpt>
      <trkpt lat="47.5189" lon="-2.57921">
        <ele>61</ele>
        <time>2025-05-13T08:13:28Z</time>
      </trkpt>
      <trkpt lat="47.51887" lon="-2.57924">
        <ele>61</ele>
        <time>2025-05-13T08:13:29Z</time>
      </trkpt>
      <trkpt lat="47.51885" lon="-2.57927">
        <ele>61</ele>
        <time>2025-05-13T08:13:30Z</time>
      </trkpt>
      <trkpt lat="47.51882" lon="-2.5793">
        <ele>62</ele>
        <time>2025-05-13T08:13:31Z</time>
      </trkpt>
      <trkpt lat="47.5188" lon="-2.57935">
        <ele>62</ele>
        <time>2025-05-13T08:13:32Z</time>
      </trkpt>
      <trkpt lat="47.51879" lon="-2.5794">
        <ele>62</ele>
        <time>2025-05-13T08:13:33Z</time>
      </trkpt>
      <trkpt lat="47.51877" lon="-2.57945">
        <ele>62</ele>
        <time>2025-05-13T08:13:34Z</time>
      </trkpt>
      <trkpt lat="47.51876" lon="-2.5795">
        <ele>62</ele>
        <time>2025-05-13T08:13:35Z</time>
      </trkpt>
      <trkpt lat="47.51874" lon="-2.57956">
        <ele>62</ele>
        <time>2025-05-13T08:13:36Z</time>
      </trkpt>
      <trkpt lat="47.51873" lon="-2.57961">
        <ele>62</ele>
        <time>2025-05-13T08:13:37Z</time>
      </trkpt>
      <trkpt lat="47.51871" lon="-2.57966">
        <ele>61</ele>
        <time>2025-05-13T08:13:38Z</time>
      </trkpt>
      <trkpt lat="47.51869" lon="-2.57972">
        <ele>60</ele>
        <time>2025-05-13T08:13:39Z</time>
      </trkpt>
      <trkpt lat="47.51868" lon="-2.57978">
        <ele>59</ele>
        <time>2025-05-13T08:13:40Z</time>
      </trkpt>
      <trkpt lat="47.51866" lon="-2.57984">
        <ele>59</ele>
        <time>2025-05-13T08:13:41Z</time>
      </trkpt>
      <trkpt lat="47.51865" lon="-2.5799">
        <ele>59</ele>
        <time>2025-05-13T08:13:42Z</time>
      </trkpt>
      <trkpt lat="47.51863" lon="-2.57996">
        <ele>59</ele>
        <time>2025-05-13T08:13:43Z</time>
      </trkpt>
      <trkpt lat="47.51862" lon="-2.58003">
        <ele>59</ele>
        <time>2025-05-13T08:13:44Z</time>
      </trkpt>
      <trkpt lat="47.5186" lon="-2.58009">
        <ele>59</ele>
        <time>2025-05-13T08:13:45Z</time>
      </trkpt>
      <trkpt lat="47.51859" lon="-2.58015">
        <ele>58</ele>
        <time>2025-05-13T08:13:46Z</time>
      </trkpt>
      <trkpt lat="47.51857" lon="-2.58022">
        <ele>59</ele>
        <time>2025-05-13T08:13:47Z</time>
      </trkpt>
      <trkpt lat="47.51856" lon="-2.58028">
        <ele>58</ele>
        <time>2025-05-13T08:13:48Z</time>
      </trkpt>
      <trkpt lat="47.51854" lon="-2.58035">
        <ele>58</ele>
        <time>2025-05-13T08:13:49Z</time>
      </trkpt>
      <trkpt lat="47.51853" lon="-2.58041">
        <ele>59</ele>
        <time>2025-05-13T08:13:50Z</time>
      </trkpt>
      <trkpt lat="47.51851" lon="-2.58047">
        <ele>59</ele>
        <time>2025-05-13T08:13:51Z</time>
      </trkpt>
      <trkpt lat="47.51849" lon="-2.58053">
        <ele>59</ele>
        <time>2025-05-13T08:13:52Z</time>
      </trkpt>
      <trkpt lat="47.51847" lon="-2.5806">
        <ele>60</ele>
        <time>2025-05-13T08:13:53Z</time>
      </trkpt>
      <trkpt lat="47.51845" lon="-2.58066">
        <ele>59</ele>
        <time>2025-05-13T08:13:54Z</time>
      </trkpt>
      <trkpt lat="47.51843" lon="-2.58072">
        <ele>59</ele>
        <time>2025-05-13T08:13:55Z</time>
      </trkpt>
      <trkpt lat="47.51841" lon="-2.58078">
        <ele>59</ele>
        <time>2025-05-13T08:13:56Z</time>
      </trkpt>
      <trkpt lat="47.51838" lon="-2.58084">
        <ele>58</ele>
        <time>2025-05-13T08:13:57Z</time>
      </trkpt>
      <trkpt lat="47.51836" lon="-2.58091">
        <ele>58</ele>
        <time>2025-05-13T08:13:58Z</time>
      </trkpt>
      <trkpt lat="47.51834" lon="-2.58097">
        <ele>58</ele>
        <time>2025-05-13T08:13:59Z</time>
      </trkpt>
      <trkpt lat="47.51831" lon="-2.58103">
        <ele>58</ele>
        <time>2025-05-13T08:14:00Z</time>
      </trkpt>
      <trkpt lat="47.51829" lon="-2.5811">
        <ele>58</ele>
        <time>2025-05-13T08:14:01Z</time>
      </trkpt>
      <trkpt lat="47.51826" lon="-2.58116">
        <ele>58</ele>
        <time>2025-05-13T08:14:02Z</time>
      </trkpt>
      <trkpt lat="47.51824" lon="-2.58122">
        <ele>57</ele>
        <time>2025-05-13T08:14:03Z</time>
      </trkpt>
      <trkpt lat="47.51822" lon="-2.58129">
        <ele>58</ele>
        <time>2025-05-13T08:14:04Z</time>
      </trkpt>
      <trkpt lat="47.5182" lon="-2.58135">
        <ele>58</ele>
        <time>2025-05-13T08:14:05Z</time>
      </trkpt>
      <trkpt lat="47.51817" lon="-2.58141">
        <ele>58</ele>
        <time>2025-05-13T08:14:06Z</time>
      </trkpt>
      <trkpt lat="47.51815" lon="-2.58147">
        <ele>58</ele>
        <time>2025-05-13T08:14:07Z</time>
      </trkpt>
      <trkpt lat="47.51812" lon="-2.58153">
        <ele>59</ele>
        <time>2025-05-13T08:14:08Z</time>
      </trkpt>
      <trkpt lat="47.5181" lon="-2.58159">
        <ele>59</ele>
        <time>2025-05-13T08:14:09Z</time>
      </trkpt>
      <trkpt lat="47.51807" lon="-2.58163">
        <ele>59</ele>
        <time>2025-05-13T08:14:10Z</time>
      </trkpt>
      <trkpt lat="47.51804" lon="-2.58167">
        <ele>60</ele>
        <time>2025-05-13T08:14:11Z</time>
      </trkpt>
      <trkpt lat="47.51802" lon="-2.58172">
        <ele>60</ele>
        <time>2025-05-13T08:14:12Z</time>
      </trkpt>
      <trkpt lat="47.518" lon="-2.58177">
        <ele>60</ele>
        <time>2025-05-13T08:14:13Z</time>
      </trkpt>
      <trkpt lat="47.518" lon="-2.58183">
        <ele>60</ele>
        <time>2025-05-13T08:14:14Z</time>
      </trkpt>
      <trkpt lat="47.518" lon="-2.58189">
        <ele>59</ele>
        <time>2025-05-13T08:14:15Z</time>
      </trkpt>
      <trkpt lat="47.51799" lon="-2.58195">
        <ele>59</ele>
        <time>2025-05-13T08:14:16Z</time>
      </trkpt>
      <trkpt lat="47.51798" lon="-2.582">
        <ele>59</ele>
        <time>2025-05-13T08:14:17Z</time>
      </trkpt>
      <trkpt lat="47.51797" lon="-2.58206">
        <ele>58</ele>
        <time>2025-05-13T08:14:18Z</time>
      </trkpt>
      <trkpt lat="47.51796" lon="-2.58212">
        <ele>58</ele>
        <time>2025-05-13T08:14:19Z</time>
      </trkpt>
      <trkpt lat="47.51795" lon="-2.58218">
        <ele>58</ele>
        <time>2025-05-13T08:14:20Z</time>
      </trkpt>
      <trkpt lat="47.51795" lon="-2.58225">
        <ele>58</ele>
        <time>2025-05-13T08:14:21Z</time>
      </trkpt>
      <trkpt lat="47.51795" lon="-2.58231">
        <ele>58</ele>
        <time>2025-05-13T08:14:22Z</time>
      </trkpt>
      <trkpt lat="47.51794" lon="-2.58238">
        <ele>57</ele>
        <time>2025-05-13T08:14:23Z</time>
      </trkpt>
      <trkpt lat="47.51793" lon="-2.58244">
        <ele>57</ele>
        <time>2025-05-13T08:14:24Z</time>
      </trkpt>
      <trkpt lat="47.51793" lon="-2.58251">
        <ele>57</ele>
        <time>2025-05-13T08:14:25Z</time>
      </trkpt>
      <trkpt lat="47.51794" lon="-2.58257">
        <ele>57</ele>
        <time>2025-05-13T08:14:26Z</time>
      </trkpt>
      <trkpt lat="47.51793" lon="-2.58263">
        <ele>57</ele>
        <time>2025-05-13T08:14:27Z</time>
      </trkpt>
      <trkpt lat="47.51793" lon="-2.58269">
        <ele>57</ele>
        <time>2025-05-13T08:14:28Z</time>
      </trkpt>
      <trkpt lat="47.51793" lon="-2.58275">
        <ele>57</ele>
        <time>2025-05-13T08:14:29Z</time>
      </trkpt>
      <trkpt lat="47.51792" lon="-2.58282">
        <ele>57</ele>
        <time>2025-05-13T08:14:30Z</time>
      </trkpt>
      <trkpt lat="47.51792" lon="-2.58288">
        <ele>57</ele>
        <time>2025-05-13T08:14:31Z</time>
      </trkpt>
      <trkpt lat="47.51792" lon="-2.58295">
        <ele>57</ele>
        <time>2025-05-13T08:14:32Z</time>
      </trkpt>
      <trkpt lat="47.51792" lon="-2.58301">
        <ele>57</ele>
        <time>2025-05-13T08:14:33Z</time>
      </trkpt>
      <trkpt lat="47.51791" lon="-2.58307">
        <ele>57</ele>
        <time>2025-05-13T08:14:34Z</time>
      </trkpt>
      <trkpt lat="47.5179" lon="-2.58313">
        <ele>57</ele>
        <time>2025-05-13T08:14:35Z</time>
      </trkpt>
      <trkpt lat="47.51789" lon="-2.58319">
        <ele>57</ele>
        <time>2025-05-13T08:14:36Z</time>
      </trkpt>
      <trkpt lat="47.51787" lon="-2.58325">
        <ele>57</ele>
        <time>2025-05-13T08:14:37Z</time>
      </trkpt>
      <trkpt lat="47.51785" lon="-2.5833">
        <ele>57</ele>
        <time>2025-05-13T08:14:38Z</time>
      </trkpt>
      <trkpt lat="47.51783" lon="-2.58335">
        <ele>57</ele>
        <time>2025-05-13T08:14:39Z</time>
      </trkpt>
      <trkpt lat="47.51782" lon="-2.5834">
        <ele>57</ele>
        <time>2025-05-13T08:14:40Z</time>
      </trkpt>
      <trkpt lat="47.51781" lon="-2.58345">
        <ele>57</ele>
        <time>2025-05-13T08:14:41Z</time>
      </trkpt>
      <trkpt lat="47.5178" lon="-2.5835">
        <ele>57</ele>
        <time>2025-05-13T08:14:42Z</time>
      </trkpt>
      <trkpt lat="47.51779" lon="-2.58355">
        <ele>57</ele>
        <time>2025-05-13T08:14:43Z</time>
      </trkpt>
      <trkpt lat="47.51779" lon="-2.5836">
        <ele>57</ele>
        <time>2025-05-13T08:14:44Z</time>
      </trkpt>
      <trkpt lat="47.51778" lon="-2.58365">
        <ele>57</ele>
        <time>2025-05-13T08:14:45Z</time>
      </trkpt>
      <trkpt lat="47.51779" lon="-2.5837">
        <ele>57</ele>
        <time>2025-05-13T08:14:46Z</time>
      </trkpt>
      <trkpt lat="47.5178" lon="-2.58375">
        <ele>57</ele>
        <time>2025-05-13T08:14:47Z</time>
      </trkpt>
      <trkpt lat="47.51781" lon="-2.5838">
        <ele>57</ele>
        <time>2025-05-13T08:14:48Z</time>
      </trkpt>
      <trkpt lat="47.51781" lon="-2.58385">
        <ele>57</ele>
        <time>2025-05-13T08:14:49Z</time>
      </trkpt>
      <trkpt lat="47.51782" lon="-2.5839">
        <ele>57</ele>
        <time>2025-05-13T08:14:50Z</time>
      </trkpt>
      <trkpt lat="47.51782" lon="-2.58395">
        <ele>57</ele>
        <time>2025-05-13T08:14:51Z</time>
      </trkpt>
      <trkpt lat="47.51782" lon="-2.58401">
        <ele>57</ele>
        <time>2025-05-13T08:14:52Z</time>
      </trkpt>
      <trkpt lat="47.51782" lon="-2.58406">
        <ele>58</ele>
        <time>2025-05-13T08:14:53Z</time>
      </trkpt>
      <trkpt lat="47.51782" lon="-2.58412">
        <ele>58</ele>
        <time>2025-05-13T08:14:54Z</time>
      </trkpt>
      <trkpt lat="47.51782" lon="-2.58418">
        <ele>58</ele>
        <time>2025-05-13T08:14:55Z</time>
      </trkpt>
      <trkpt lat="47.51783" lon="-2.58424">
        <ele>58</ele>
        <time>2025-05-13T08:14:56Z</time>
      </trkpt>
      <trkpt lat="47.51783" lon="-2.5843">
        <ele>58</ele>
        <time>2025-05-13T08:14:57Z</time>
      </trkpt>
      <trkpt lat="47.51783" lon="-2.58436">
        <ele>58</ele>
        <time>2025-05-13T08:14:58Z</time>
      </trkpt>
      <trkpt lat="47.51784" lon="-2.58442">
        <ele>58</ele>
        <time>2025-05-13T08:14:59Z</time>
      </trkpt>
      <trkpt lat="47.51784" lon="-2.58448">
        <ele>58</ele>
        <time>2025-05-13T08:15:00Z</time>
      </trkpt>
      <trkpt lat="47.51785" lon="-2.58455">
        <ele>58</ele>
        <time>2025-05-13T08:15:01Z</time>
      </trkpt>
      <trkpt lat="47.51785" lon="-2.58461">
        <ele>58</ele>
        <time>2025-05-13T08:15:02Z</time>
      </trkpt>
      <trkpt lat="47.51785" lon="-2.58468">
        <ele>58</ele>
        <time>2025-05-13T08:15:03Z</time>
      </trkpt>
      <trkpt lat="47.51785" lon="-2.58474">
        <ele>58</ele>
        <time>2025-05-13T08:15:04Z</time>
      </trkpt>
      <trkpt lat="47.51785" lon="-2.58481">
        <ele>58</ele>
        <time>2025-05-13T08:15:05Z</time>
      </trkpt>
      <trkpt lat="47.51785" lon="-2.58488">
        <ele>58</ele>
        <time>2025-05-13T08:15:06Z</time>
      </trkpt>
      <trkpt lat="47.51785" lon="-2.58495">
        <ele>58</ele>
        <time>2025-05-13T08:15:07Z</time>
      </trkpt>
      <trkpt lat="47.51785" lon="-2.58501">
        <ele>58</ele>
        <time>2025-05-13T08:15:08Z</time>
      </trkpt>
      <trkpt lat="47.51785" lon="-2.58508">
        <ele>58</ele>
        <time>2025-05-13T08:15:09Z</time>
      </trkpt>
      <trkpt lat="47.51785" lon="-2.58515">
        <ele>58</ele>
        <time>2025-05-13T08:15:10Z</time>
      </trkpt>
      <trkpt lat="47.51785" lon="-2.58522">
        <ele>58</ele>
        <time>2025-05-13T08:15:11Z</time>
      </trkpt>
      <trkpt lat="47.51785" lon="-2.58529">
        <ele>58</ele>
        <time>2025-05-13T08:15:12Z</time>
      </trkpt>
      <trkpt lat="47.51784" lon="-2.58536">
        <ele>58</ele>
        <time>2025-05-13T08:15:13Z</time>
      </trkpt>
      <trkpt lat="47.51785" lon="-2.58543">
        <ele>57</ele>
        <time>2025-05-13T08:15:14Z</time>
      </trkpt>
      <trkpt lat="47.51785" lon="-2.5855">
        <ele>57</ele>
        <time>2025-05-13T08:15:15Z</time>
      </trkpt>
      <trkpt lat="47.51786" lon="-2.58557">
        <ele>57</ele>
        <time>2025-05-13T08:15:16Z</time>
      </trkpt>
      <trkpt lat="47.51786" lon="-2.58564">
        <ele>57</ele>
        <time>2025-05-13T08:15:17Z</time>
      </trkpt>
      <trkpt lat="47.51787" lon="-2.58571">
        <ele>57</ele>
        <time>2025-05-13T08:15:18Z</time>
      </trkpt>
      <trkpt lat="47.51787" lon="-2.58578">
        <ele>57</ele>
        <time>2025-05-13T08:15:19Z</time>
      </trkpt>
      <trkpt lat="47.51788" lon="-2.58584">
        <ele>57</ele>
        <time>2025-05-13T08:15:20Z</time>
      </trkpt>
      <trkpt lat="47.51789" lon="-2.58591">
        <ele>57</ele>
        <time>2025-05-13T08:15:21Z</time>
      </trkpt>
      <trkpt lat="47.51789" lon="-2.58598">
        <ele>57</ele>
        <time>2025-05-13T08:15:22Z</time>
      </trkpt>
      <trkpt lat="47.51789" lon="-2.58604">
        <ele>58</ele>
        <time>2025-05-13T08:15:23Z</time>
      </trkpt>
      <trkpt lat="47.5179" lon="-2.58611">
        <ele>58</ele>
        <time>2025-05-13T08:15:24Z</time>
      </trkpt>
      <trkpt lat="47.5179" lon="-2.58618">
        <ele>57</ele>
        <time>2025-05-13T08:15:25Z</time>
      </trkpt>
      <trkpt lat="47.51791" lon="-2.58625">
        <ele>56</ele>
        <time>2025-05-13T08:15:26Z</time>
      </trkpt>
      <trkpt lat="47.51791" lon="-2.58632">
        <ele>56</ele>
        <time>2025-05-13T08:15:27Z</time>
      </trkpt>
      <trkpt lat="47.51792" lon="-2.58639">
        <ele>56</ele>
        <time>2025-05-13T08:15:28Z</time>
      </trkpt>
      <trkpt lat="47.51792" lon="-2.58646">
        <ele>57</ele>
        <time>2025-05-13T08:15:29Z</time>
      </trkpt>
      <trkpt lat="47.51792" lon="-2.58652">
        <ele>57</ele>
        <time>2025-05-13T08:15:30Z</time>
      </trkpt>
      <trkpt lat="47.51793" lon="-2.58659">
        <ele>57</ele>
        <time>2025-05-13T08:15:31Z</time>
      </trkpt>
      <trkpt lat="47.51793" lon="-2.58665">
        <ele>57</ele>
        <time>2025-05-13T08:15:32Z</time>
      </trkpt>
      <trkpt lat="47.51794" lon="-2.58672">
        <ele>57</ele>
        <time>2025-05-13T08:15:33Z</time>
      </trkpt>
      <trkpt lat="47.51794" lon="-2.58679">
        <ele>57</ele>
        <time>2025-05-13T08:15:34Z</time>
      </trkpt>
      <trkpt lat="47.51795" lon="-2.58685">
        <ele>57</ele>
        <time>2025-05-13T08:15:35Z</time>
      </trkpt>
      <trkpt lat="47.51795" lon="-2.58691">
        <ele>57</ele>
        <time>2025-05-13T08:15:36Z</time>
      </trkpt>
      <trkpt lat="47.51795" lon="-2.58698">
        <ele>57</ele>
        <time>2025-05-13T08:15:37Z</time>
      </trkpt>
      <trkpt lat="47.51796" lon="-2.58705">
        <ele>56</ele>
        <time>2025-05-13T08:15:38Z</time>
      </trkpt>
      <trkpt lat="47.51796" lon="-2.58711">
        <ele>57</ele>
        <time>2025-05-13T08:15:39Z</time>
      </trkpt>
      <trkpt lat="47.51797" lon="-2.58718">
        <ele>57</ele>
        <time>2025-05-13T08:15:40Z</time>
      </trkpt>
      <trkpt lat="47.51797" lon="-2.58724">
        <ele>57</ele>
        <time>2025-05-13T08:15:41Z</time>
      </trkpt>
      <trkpt lat="47.51797" lon="-2.58731">
        <ele>57</ele>
        <time>2025-05-13T08:15:42Z</time>
      </trkpt>
      <trkpt lat="47.51797" lon="-2.58737">
        <ele>57</ele>
        <time>2025-05-13T08:15:43Z</time>
      </trkpt>
      <trkpt lat="47.51797" lon="-2.58743">
        <ele>56</ele>
        <time>2025-05-13T08:15:44Z</time>
      </trkpt>
      <trkpt lat="47.51798" lon="-2.5875">
        <ele>56</ele>
        <time>2025-05-13T08:15:45Z</time>
      </trkpt>
      <trkpt lat="47.51798" lon="-2.58756">
        <ele>56</ele>
        <time>2025-05-13T08:15:46Z</time>
      </trkpt>
      <trkpt lat="47.51798" lon="-2.58762">
        <ele>56</ele>
        <time>2025-05-13T08:15:47Z</time>
      </trkpt>
      <trkpt lat="47.51798" lon="-2.58767">
        <ele>56</ele>
        <time>2025-05-13T08:15:48Z</time>
      </trkpt>
      <trkpt lat="47.51798" lon="-2.58773">
        <ele>56</ele>
        <time>2025-05-13T08:15:49Z</time>
      </trkpt>
      <trkpt lat="47.51798" lon="-2.58778">
        <ele>56</ele>
        <time>2025-05-13T08:15:50Z</time>
      </trkpt>
      <trkpt lat="47.51798" lon="-2.58784">
        <ele>56</ele>
        <time>2025-05-13T08:15:51Z</time>
      </trkpt>
      <trkpt lat="47.51798" lon="-2.58789">
        <ele>56</ele>
        <time>2025-05-13T08:15:52Z</time>
      </trkpt>
      <trkpt lat="47.51798" lon="-2.58795">
        <ele>56</ele>
        <time>2025-05-13T08:15:53Z</time>
      </trkpt>
      <trkpt lat="47.51799" lon="-2.588">
        <ele>56</ele>
        <time>2025-05-13T08:15:54Z</time>
      </trkpt>
      <trkpt lat="47.51799" lon="-2.58805">
        <ele>56</ele>
        <time>2025-05-13T08:15:55Z</time>
      </trkpt>
      <trkpt lat="47.51799" lon="-2.58811">
        <ele>56</ele>
        <time>2025-05-13T08:15:56Z</time>
      </trkpt>
      <trkpt lat="47.51799" lon="-2.58816">
        <ele>57</ele>
        <time>2025-05-13T08:15:57Z</time>
      </trkpt>
      <trkpt lat="47.51799" lon="-2.58821">
        <ele>57</ele>
        <time>2025-05-13T08:15:58Z</time>
      </trkpt>
      <trkpt lat="47.51799" lon="-2.58826">
        <ele>57</ele>
        <time>2025-05-13T08:15:59Z</time>
      </trkpt>
      <trkpt lat="47.518" lon="-2.58831">
        <ele>57</ele>
        <time>2025-05-13T08:16:00Z</time>
      </trkpt>
      <trkpt lat="47.518" lon="-2.58835">
        <ele>57</ele>
        <time>2025-05-13T08:16:01Z</time>
      </trkpt>
      <trkpt lat="47.518" lon="-2.5884">
        <ele>57</ele>
        <time>2025-05-13T08:16:02Z</time>
      </trkpt>
      <trkpt lat="47.518" lon="-2.58844">
        <ele>56</ele>
        <time>2025-05-13T08:16:03Z</time>
      </trkpt>
      <trkpt lat="47.518" lon="-2.58847">
        <ele>56</ele>
        <time>2025-05-13T08:16:04Z</time>
      </trkpt>
      <trkpt lat="47.518" lon="-2.58851">
        <ele>56</ele>
        <time>2025-05-13T08:16:05Z</time>
      </trkpt>
      <trkpt lat="47.518" lon="-2.58855">
        <ele>55</ele>
        <time>2025-05-13T08:16:06Z</time>
      </trkpt>
      <trkpt lat="47.51801" lon="-2.58858">
        <ele>55</ele>
        <time>2025-05-13T08:16:07Z</time>
      </trkpt>
      <trkpt lat="47.51802" lon="-2.58861">
        <ele>55</ele>
        <time>2025-05-13T08:16:08Z</time>
      </trkpt>
      <trkpt lat="47.51803" lon="-2.58865">
        <ele>54</ele>
        <time>2025-05-13T08:16:09Z</time>
      </trkpt>
      <trkpt lat="47.51804" lon="-2.58869">
        <ele>54</ele>
        <time>2025-05-13T08:16:10Z</time>
      </trkpt>
      <trkpt lat="47.51806" lon="-2.58873">
        <ele>54</ele>
        <time>2025-05-13T08:16:11Z</time>
      </trkpt>
      <trkpt lat="47.51807" lon="-2.58878">
        <ele>54</ele>
        <time>2025-05-13T08:16:12Z</time>
      </trkpt>
      <trkpt lat="47.51809" lon="-2.58882">
        <ele>54</ele>
        <time>2025-05-13T08:16:13Z</time>
      </trkpt>
      <trkpt lat="47.5181" lon="-2.58886">
        <ele>54</ele>
        <time>2025-05-13T08:16:14Z</time>
      </trkpt>
      <trkpt lat="47.51811" lon="-2.58889">
        <ele>54</ele>
        <time>2025-05-13T08:16:15Z</time>
      </trkpt>
      <trkpt lat="47.51812" lon="-2.58892">
        <ele>54</ele>
        <time>2025-05-13T08:16:16Z</time>
      </trkpt>
      <trkpt lat="47.51815" lon="-2.58893">
        <ele>54</ele>
        <time>2025-05-13T08:16:17Z</time>
      </trkpt>
      <trkpt lat="47.51818" lon="-2.58895">
        <ele>54</ele>
        <time>2025-05-13T08:16:18Z</time>
      </trkpt>
      <trkpt lat="47.51821" lon="-2.58895">
        <ele>54</ele>
        <time>2025-05-13T08:16:19Z</time>
      </trkpt>
      <trkpt lat="47.51825" lon="-2.58897">
        <ele>54</ele>
        <time>2025-05-13T08:16:20Z</time>
      </trkpt>
      <trkpt lat="47.51829" lon="-2.58897">
        <ele>54</ele>
        <time>2025-05-13T08:16:21Z</time>
      </trkpt>
      <trkpt lat="47.51833" lon="-2.58896">
        <ele>54</ele>
        <time>2025-05-13T08:16:22Z</time>
      </trkpt>
      <trkpt lat="47.51837" lon="-2.58894">
        <ele>54</ele>
        <time>2025-05-13T08:16:23Z</time>
      </trkpt>
      <trkpt lat="47.5184" lon="-2.58891">
        <ele>54</ele>
        <time>2025-05-13T08:16:24Z</time>
      </trkpt>
      <trkpt lat="47.51844" lon="-2.58888">
        <ele>54</ele>
        <time>2025-05-13T08:16:25Z</time>
      </trkpt>
      <trkpt lat="47.51848" lon="-2.58885">
        <ele>55</ele>
        <time>2025-05-13T08:16:26Z</time>
      </trkpt>
      <trkpt lat="47.51851" lon="-2.58882">
        <ele>55</ele>
        <time>2025-05-13T08:16:27Z</time>
      </trkpt>
      <trkpt lat="47.51855" lon="-2.58879">
        <ele>55</ele>
        <time>2025-05-13T08:16:28Z</time>
      </trkpt>
      <trkpt lat="47.51858" lon="-2.58877">
        <ele>55</ele>
        <time>2025-05-13T08:16:29Z</time>
      </trkpt>
      <trkpt lat="47.51861" lon="-2.58874">
        <ele>56</ele>
        <time>2025-05-13T08:16:30Z</time>
      </trkpt>
      <trkpt lat="47.51864" lon="-2.58871">
        <ele>56</ele>
        <time>2025-05-13T08:16:31Z</time>
      </trkpt>
      <trkpt lat="47.51868" lon="-2.58868">
        <ele>56</ele>
        <time>2025-05-13T08:16:32Z</time>
      </trkpt>
      <trkpt lat="47.51871" lon="-2.58866">
        <ele>57</ele>
        <time>2025-05-13T08:16:33Z</time>
      </trkpt>
      <trkpt lat="47.51874" lon="-2.58863">
        <ele>57</ele>
        <time>2025-05-13T08:16:34Z</time>
      </trkpt>
      <trkpt lat="47.51876" lon="-2.58861">
        <ele>57</ele>
        <time>2025-05-13T08:16:35Z</time>
      </trkpt>
      <trkpt lat="47.51879" lon="-2.58858">
        <ele>57</ele>
        <time>2025-05-13T08:16:36Z</time>
      </trkpt>
      <trkpt lat="47.51882" lon="-2.58855">
        <ele>58</ele>
        <time>2025-05-13T08:16:37Z</time>
      </trkpt>
      <trkpt lat="47.51884" lon="-2.58853">
        <ele>58</ele>
        <time>2025-05-13T08:16:38Z</time>
      </trkpt>
      <trkpt lat="47.51887" lon="-2.58851">
        <ele>58</ele>
        <time>2025-05-13T08:16:39Z</time>
      </trkpt>
      <trkpt lat="47.5189" lon="-2.58849">
        <ele>58</ele>
        <time>2025-05-13T08:16:40Z</time>
      </trkpt>
      <trkpt lat="47.51894" lon="-2.58846">
        <ele>59</ele>
        <time>2025-05-13T08:16:41Z</time>
      </trkpt>
      <trkpt lat="47.51897" lon="-2.58844">
        <ele>59</ele>
        <time>2025-05-13T08:16:42Z</time>
      </trkpt>
      <trkpt lat="47.519" lon="-2.58842">
        <ele>59</ele>
        <time>2025-05-13T08:16:43Z</time>
      </trkpt>
      <trkpt lat="47.51903" lon="-2.58842">
        <ele>59</ele>
        <time>2025-05-13T08:16:44Z</time>
      </trkpt>
      <trkpt lat="47.51906" lon="-2.58843">
        <ele>59</ele>
        <time>2025-05-13T08:16:45Z</time>
      </trkpt>
      <trkpt lat="47.51909" lon="-2.58844">
        <ele>59</ele>
        <time>2025-05-13T08:16:46Z</time>
      </trkpt>
      <trkpt lat="47.51912" lon="-2.58847">
        <ele>59</ele>
        <time>2025-05-13T08:16:47Z</time>
      </trkpt>
      <trkpt lat="47.51914" lon="-2.5885">
        <ele>59</ele>
        <time>2025-05-13T08:16:48Z</time>
      </trkpt>
      <trkpt lat="47.51916" lon="-2.58854">
        <ele>59</ele>
        <time>2025-05-13T08:16:49Z</time>
      </trkpt>
      <trkpt lat="47.51919" lon="-2.58858">
        <ele>59</ele>
        <time>2025-05-13T08:16:50Z</time>
      </trkpt>
      <trkpt lat="47.51922" lon="-2.58861">
        <ele>59</ele>
        <time>2025-05-13T08:16:51Z</time>
      </trkpt>
      <trkpt lat="47.51925" lon="-2.58862">
        <ele>58</ele>
        <time>2025-05-13T08:16:52Z</time>
      </trkpt>
      <trkpt lat="47.51928" lon="-2.58864">
        <ele>58</ele>
        <time>2025-05-13T08:16:53Z</time>
      </trkpt>
      <trkpt lat="47.51931" lon="-2.58866">
        <ele>58</ele>
        <time>2025-05-13T08:16:54Z</time>
      </trkpt>
      <trkpt lat="47.51933" lon="-2.58869">
        <ele>59</ele>
        <time>2025-05-13T08:16:55Z</time>
      </trkpt>
      <trkpt lat="47.51935" lon="-2.58873">
        <ele>59</ele>
        <time>2025-05-13T08:16:56Z</time>
      </trkpt>
      <trkpt lat="47.51937" lon="-2.58878">
        <ele>59</ele>
        <time>2025-05-13T08:16:57Z</time>
      </trkpt>
      <trkpt lat="47.51937" lon="-2.58883">
        <ele>59</ele>
        <time>2025-05-13T08:16:58Z</time>
      </trkpt>
      <trkpt lat="47.51937" lon="-2.58889">
        <ele>58</ele>
        <time>2025-05-13T08:16:59Z</time>
      </trkpt>
      <trkpt lat="47.51936" lon="-2.58895">
        <ele>57</ele>
        <time>2025-05-13T08:17:00Z</time>
      </trkpt>
      <trkpt lat="47.51935" lon="-2.58901">
        <ele>57</ele>
        <time>2025-05-13T08:17:01Z</time>
      </trkpt>
      <trkpt lat="47.51934" lon="-2.58907">
        <ele>56</ele>
        <time>2025-05-13T08:17:02Z</time>
      </trkpt>
      <trkpt lat="47.51932" lon="-2.58913">
        <ele>56</ele>
        <time>2025-05-13T08:17:03Z</time>
      </trkpt>
      <trkpt lat="47.51931" lon="-2.58919">
        <ele>55</ele>
        <time>2025-05-13T08:17:04Z</time>
      </trkpt>
      <trkpt lat="47.51929" lon="-2.58925">
        <ele>55</ele>
        <time>2025-05-13T08:17:05Z</time>
      </trkpt>
      <trkpt lat="47.51928" lon="-2.58931">
        <ele>55</ele>
        <time>2025-05-13T08:17:06Z</time>
      </trkpt>
      <trkpt lat="47.51926" lon="-2.58938">
        <ele>54</ele>
        <time>2025-05-13T08:17:07Z</time>
      </trkpt>
      <trkpt lat="47.51925" lon="-2.58944">
        <ele>54</ele>
        <time>2025-05-13T08:17:08Z</time>
      </trkpt>
      <trkpt lat="47.51924" lon="-2.58951">
        <ele>55</ele>
        <time>2025-05-13T08:17:09Z</time>
      </trkpt>
      <trkpt lat="47.51922" lon="-2.58958">
        <ele>55</ele>
        <time>2025-05-13T08:17:10Z</time>
      </trkpt>
      <trkpt lat="47.51921" lon="-2.58965">
        <ele>55</ele>
        <time>2025-05-13T08:17:11Z</time>
      </trkpt>
      <trkpt lat="47.5192" lon="-2.58972">
        <ele>54</ele>
        <time>2025-05-13T08:17:12Z</time>
      </trkpt>
      <trkpt lat="47.51919" lon="-2.58979">
        <ele>54</ele>
        <time>2025-05-13T08:17:13Z</time>
      </trkpt>
      <trkpt lat="47.51918" lon="-2.58986">
        <ele>54</ele>
        <time>2025-05-13T08:17:14Z</time>
      </trkpt>
      <trkpt lat="47.51916" lon="-2.58993">
        <ele>54</ele>
        <time>2025-05-13T08:17:15Z</time>
      </trkpt>
      <trkpt lat="47.51915" lon="-2.59001">
        <ele>54</ele>
        <time>2025-05-13T08:17:16Z</time>
      </trkpt>
      <trkpt lat="47.51913" lon="-2.59008">
        <ele>54</ele>
        <time>2025-05-13T08:17:17Z</time>
      </trkpt>
      <trkpt lat="47.51912" lon="-2.59015">
        <ele>54</ele>
        <time>2025-05-13T08:17:18Z</time>
      </trkpt>
      <trkpt lat="47.51911" lon="-2.59023">
        <ele>54</ele>
        <time>2025-05-13T08:17:19Z</time>
      </trkpt>
      <trkpt lat="47.5191" lon="-2.59031">
        <ele>54</ele>
        <time>2025-05-13T08:17:20Z</time>
      </trkpt>
      <trkpt lat="47.51909" lon="-2.59038">
        <ele>54</ele>
        <time>2025-05-13T08:17:21Z</time>
      </trkpt>
      <trkpt lat="47.51907" lon="-2.59046">
        <ele>54</ele>
        <time>2025-05-13T08:17:22Z</time>
      </trkpt>
      <trkpt lat="47.51906" lon="-2.59053">
        <ele>55</ele>
        <time>2025-05-13T08:17:23Z</time>
      </trkpt>
      <trkpt lat="47.51905" lon="-2.59061">
        <ele>55</ele>
        <time>2025-05-13T08:17:24Z</time>
      </trkpt>
      <trkpt lat="47.51904" lon="-2.59069">
        <ele>54</ele>
        <time>2025-05-13T08:17:25Z</time>
      </trkpt>
      <trkpt lat="47.51903" lon="-2.59076">
        <ele>54</ele>
        <time>2025-05-13T08:17:26Z</time>
      </trkpt>
      <trkpt lat="47.51902" lon="-2.59084">
        <ele>54</ele>
        <time>2025-05-13T08:17:27Z</time>
      </trkpt>
      <trkpt lat="47.51901" lon="-2.59092">
        <ele>54</ele>
        <time>2025-05-13T08:17:28Z</time>
      </trkpt>
      <trkpt lat="47.519" lon="-2.591">
        <ele>54</ele>
        <time>2025-05-13T08:17:29Z</time>
      </trkpt>
      <trkpt lat="47.519" lon="-2.59108">
        <ele>54</ele>
        <time>2025-05-13T08:17:30Z</time>
      </trkpt>
      <trkpt lat="47.51899" lon="-2.59116">
        <ele>54</ele>
        <time>2025-05-13T08:17:31Z</time>
      </trkpt>
      <trkpt lat="47.51898" lon="-2.59124">
        <ele>54</ele>
        <time>2025-05-13T08:17:32Z</time>
      </trkpt>
      <trkpt lat="47.51897" lon="-2.59132">
        <ele>54</ele>
        <time>2025-05-13T08:17:33Z</time>
      </trkpt>
      <trkpt lat="47.51897" lon="-2.5914">
        <ele>54</ele>
        <time>2025-05-13T08:17:34Z</time>
      </trkpt>
      <trkpt lat="47.51896" lon="-2.59147">
        <ele>54</ele>
        <time>2025-05-13T08:17:35Z</time>
      </trkpt>
      <trkpt lat="47.51896" lon="-2.59155">
        <ele>54</ele>
        <time>2025-05-13T08:17:36Z</time>
      </trkpt>
      <trkpt lat="47.51895" lon="-2.59162">
        <ele>54</ele>
        <time>2025-05-13T08:17:37Z</time>
      </trkpt>
      <trkpt lat="47.51894" lon="-2.5917">
        <ele>54</ele>
        <time>2025-05-13T08:17:38Z</time>
      </trkpt>
      <trkpt lat="47.51893" lon="-2.59178">
        <ele>54</ele>
        <time>2025-05-13T08:17:39Z</time>
      </trkpt>
      <trkpt lat="47.51892" lon="-2.59186">
        <ele>54</ele>
        <time>2025-05-13T08:17:40Z</time>
      </trkpt>
      <trkpt lat="47.51892" lon="-2.59194">
        <ele>54</ele>
        <time>2025-05-13T08:17:41Z</time>
      </trkpt>
      <trkpt lat="47.51891" lon="-2.59202">
        <ele>54</ele>
        <time>2025-05-13T08:17:42Z</time>
      </trkpt>
      <trkpt lat="47.5189" lon="-2.5921">
        <ele>55</ele>
        <time>2025-05-13T08:17:43Z</time>
      </trkpt>
      <trkpt lat="47.5189" lon="-2.59218">
        <ele>54</ele>
        <time>2025-05-13T08:17:44Z</time>
      </trkpt>
      <trkpt lat="47.51889" lon="-2.59226">
        <ele>54</ele>
        <time>2025-05-13T08:17:45Z</time>
      </trkpt>
      <trkpt lat="47.51888" lon="-2.59234">
        <ele>54</ele>
        <time>2025-05-13T08:17:46Z</time>
      </trkpt>
      <trkpt lat="47.51887" lon="-2.59242">
        <ele>55</ele>
        <time>2025-05-13T08:17:47Z</time>
      </trkpt>
      <trkpt lat="47.51886" lon="-2.5925">
        <ele>55</ele>
        <time>2025-05-13T08:17:48Z</time>
      </trkpt>
      <trkpt lat="47.51886" lon="-2.59258">
        <ele>55</ele>
        <time>2025-05-13T08:17:49Z</time>
      </trkpt>
      <trkpt lat="47.51885" lon="-2.59266">
        <ele>55</ele>
        <time>2025-05-13T08:17:50Z</time>
      </trkpt>
      <trkpt lat="47.51884" lon="-2.59273">
        <ele>55</ele>
        <time>2025-05-13T08:17:51Z</time>
      </trkpt>
      <trkpt lat="47.51883" lon="-2.59281">
        <ele>55</ele>
        <time>2025-05-13T08:17:52Z</time>
      </trkpt>
      <trkpt lat="47.51883" lon="-2.59289">
        <ele>55</ele>
        <time>2025-05-13T08:17:53Z</time>
      </trkpt>
      <trkpt lat="47.51882" lon="-2.59297">
        <ele>54</ele>
        <time>2025-05-13T08:17:54Z</time>
      </trkpt>
      <trkpt lat="47.51881" lon="-2.59305">
        <ele>54</ele>
        <time>2025-05-13T08:17:55Z</time>
      </trkpt>
      <trkpt lat="47.5188" lon="-2.59313">
        <ele>54</ele>
        <time>2025-05-13T08:17:56Z</time>
      </trkpt>
      <trkpt lat="47.5188" lon="-2.59321">
        <ele>54</ele>
        <time>2025-05-13T08:17:57Z</time>
      </trkpt>
      <trkpt lat="47.51879" lon="-2.59329">
        <ele>54</ele>
        <time>2025-05-13T08:17:58Z</time>
      </trkpt>
      <trkpt lat="47.51878" lon="-2.59336">
        <ele>54</ele>
        <time>2025-05-13T08:17:59Z</time>
      </trkpt>
      <trkpt lat="47.51877" lon="-2.59344">
        <ele>54</ele>
        <time>2025-05-13T08:18:00Z</time>
      </trkpt>
      <trkpt lat="47.51877" lon="-2.59352">
        <ele>54</ele>
        <time>2025-05-13T08:18:01Z</time>
      </trkpt>
      <trkpt lat="47.51876" lon="-2.5936">
        <ele>54</ele>
        <time>2025-05-13T08:18:02Z</time>
      </trkpt>
      <trkpt lat="47.51875" lon="-2.59368">
        <ele>54</ele>
        <time>2025-05-13T08:18:03Z</time>
      </trkpt>
      <trkpt lat="47.51874" lon="-2.59376">
        <ele>54</ele>
        <time>2025-05-13T08:18:04Z</time>
      </trkpt>
      <trkpt lat="47.51874" lon="-2.59384">
        <ele>54</ele>
        <time>2025-05-13T08:18:05Z</time>
      </trkpt>
      <trkpt lat="47.51873" lon="-2.59392">
        <ele>54</ele>
        <time>2025-05-13T08:18:06Z</time>
      </trkpt>
      <trkpt lat="47.51872" lon="-2.594">
        <ele>54</ele>
        <time>2025-05-13T08:18:07Z</time>
      </trkpt>
      <trkpt lat="47.51872" lon="-2.59408">
        <ele>53</ele>
        <time>2025-05-13T08:18:08Z</time>
      </trkpt>
      <trkpt lat="47.51871" lon="-2.59416">
        <ele>53</ele>
        <time>2025-05-13T08:18:09Z</time>
      </trkpt>
      <trkpt lat="47.51871" lon="-2.59424">
        <ele>53</ele>
        <time>2025-05-13T08:18:10Z</time>
      </trkpt>
      <trkpt lat="47.5187" lon="-2.59432">
        <ele>53</ele>
        <time>2025-05-13T08:18:11Z</time>
      </trkpt>
      <trkpt lat="47.5187" lon="-2.5944">
        <ele>53</ele>
        <time>2025-05-13T08:18:12Z</time>
      </trkpt>
      <trkpt lat="47.5187" lon="-2.59448">
        <ele>53</ele>
        <time>2025-05-13T08:18:13Z</time>
      </trkpt>
      <trkpt lat="47.51869" lon="-2.59456">
        <ele>53</ele>
        <time>2025-05-13T08:18:14Z</time>
      </trkpt>
      <trkpt lat="47.51869" lon="-2.59464">
        <ele>53</ele>
        <time>2025-05-13T08:18:15Z</time>
      </trkpt>
      <trkpt lat="47.51868" lon="-2.59472">
        <ele>53</ele>
        <time>2025-05-13T08:18:16Z</time>
      </trkpt>
      <trkpt lat="47.51868" lon="-2.5948">
        <ele>54</ele>
        <time>2025-05-13T08:18:17Z</time>
      </trkpt>
      <trkpt lat="47.51867" lon="-2.59487">
        <ele>54</ele>
        <time>2025-05-13T08:18:18Z</time>
      </trkpt>
      <trkpt lat="47.51867" lon="-2.59495">
        <ele>54</ele>
        <time>2025-05-13T08:18:19Z</time>
      </trkpt>
      <trkpt lat="47.51867" lon="-2.59503">
        <ele>54</ele>
        <time>2025-05-13T08:18:20Z</time>
      </trkpt>
      <trkpt lat="47.51866" lon="-2.5951">
        <ele>54</ele>
        <time>2025-05-13T08:18:21Z</time>
      </trkpt>
      <trkpt lat="47.51866" lon="-2.59518">
        <ele>54</ele>
        <time>2025-05-13T08:18:22Z</time>
      </trkpt>
      <trkpt lat="47.51866" lon="-2.59526">
        <ele>54</ele>
        <time>2025-05-13T08:18:23Z</time>
      </trkpt>
      <trkpt lat="47.51866" lon="-2.59533">
        <ele>54</ele>
        <time>2025-05-13T08:18:24Z</time>
      </trkpt>
      <trkpt lat="47.51866" lon="-2.59541">
        <ele>54</ele>
        <time>2025-05-13T08:18:25Z</time>
      </trkpt>
      <trkpt lat="47.51865" lon="-2.59548">
        <ele>54</ele>
        <time>2025-05-13T08:18:26Z</time>
      </trkpt>
      <trkpt lat="47.51865" lon="-2.59555">
        <ele>54</ele>
        <time>2025-05-13T08:18:27Z</time>
      </trkpt>
      <trkpt lat="47.51865" lon="-2.59563">
        <ele>54</ele>
        <time>2025-05-13T08:18:28Z</time>
      </trkpt>
      <trkpt lat="47.51864" lon="-2.5957">
        <ele>54</ele>
        <time>2025-05-13T08:18:29Z</time>
      </trkpt>
      <trkpt lat="47.51864" lon="-2.59577">
        <ele>54</ele>
        <time>2025-05-13T08:18:30Z</time>
      </trkpt>
      <trkpt lat="47.51864" lon="-2.59585">
        <ele>54</ele>
        <time>2025-05-13T08:18:31Z</time>
      </trkpt>
      <trkpt lat="47.51864" lon="-2.59592">
        <ele>54</ele>
        <time>2025-05-13T08:18:32Z</time>
      </trkpt>
      <trkpt lat="47.51864" lon="-2.59599">
        <ele>54</ele>
        <time>2025-05-13T08:18:33Z</time>
      </trkpt>
      <trkpt lat="47.51864" lon="-2.59606">
        <ele>54</ele>
        <time>2025-05-13T08:18:34Z</time>
      </trkpt>
      <trkpt lat="47.51864" lon="-2.59613">
        <ele>54</ele>
        <time>2025-05-13T08:18:35Z</time>
      </trkpt>
      <trkpt lat="47.51864" lon="-2.59621">
        <ele>54</ele>
        <time>2025-05-13T08:18:36Z</time>
      </trkpt>
      <trkpt lat="47.51863" lon="-2.59628">
        <ele>54</ele>
        <time>2025-05-13T08:18:37Z</time>
      </trkpt>
      <trkpt lat="47.51863" lon="-2.59635">
        <ele>54</ele>
        <time>2025-05-13T08:18:38Z</time>
      </trkpt>
      <trkpt lat="47.51863" lon="-2.59642">
        <ele>54</ele>
        <time>2025-05-13T08:18:39Z</time>
      </trkpt>
      <trkpt lat="47.51863" lon="-2.59649">
        <ele>54</ele>
        <time>2025-05-13T08:18:40Z</time>
      </trkpt>
      <trkpt lat="47.51863" lon="-2.59656">
        <ele>54</ele>
        <time>2025-05-13T08:18:41Z</time>
      </trkpt>
      <trkpt lat="47.51862" lon="-2.59662">
        <ele>54</ele>
        <time>2025-05-13T08:18:42Z</time>
      </trkpt>
      <trkpt lat="47.51862" lon="-2.59669">
        <ele>54</ele>
        <time>2025-05-13T08:18:43Z</time>
      </trkpt>
      <trkpt lat="47.51861" lon="-2.59676">
        <ele>54</ele>
        <time>2025-05-13T08:18:44Z</time>
      </trkpt>
      <trkpt lat="47.51861" lon="-2.59682">
        <ele>54</ele>
        <time>2025-05-13T08:18:45Z</time>
      </trkpt>
      <trkpt lat="47.5186" lon="-2.59689">
        <ele>54</ele>
        <time>2025-05-13T08:18:46Z</time>
      </trkpt>
      <trkpt lat="47.5186" lon="-2.59695">
        <ele>54</ele>
        <time>2025-05-13T08:18:47Z</time>
      </trkpt>
      <trkpt lat="47.51859" lon="-2.59701">
        <ele>54</ele>
        <time>2025-05-13T08:18:48Z</time>
      </trkpt>
      <trkpt lat="47.51858" lon="-2.59708">
        <ele>54</ele>
        <time>2025-05-13T08:18:49Z</time>
      </trkpt>
      <trkpt lat="47.51857" lon="-2.59714">
        <ele>54</ele>
        <time>2025-05-13T08:18:50Z</time>
      </trkpt>
      <trkpt lat="47.51857" lon="-2.5972">
        <ele>54</ele>
        <time>2025-05-13T08:18:51Z</time>
      </trkpt>
      <trkpt lat="47.51855" lon="-2.59727">
        <ele>54</ele>
        <time>2025-05-13T08:18:52Z</time>
      </trkpt>
      <trkpt lat="47.51855" lon="-2.59732">
        <ele>53</ele>
        <time>2025-05-13T08:18:53Z</time>
      </trkpt>
      <trkpt lat="47.51854" lon="-2.59739">
        <ele>53</ele>
        <time>2025-05-13T08:18:54Z</time>
      </trkpt>
      <trkpt lat="47.51853" lon="-2.59745">
        <ele>53</ele>
        <time>2025-05-13T08:18:55Z</time>
      </trkpt>
      <trkpt lat="47.51852" lon="-2.59751">
        <ele>54</ele>
        <time>2025-05-13T08:18:56Z</time>
      </trkpt>
      <trkpt lat="47.51852" lon="-2.59757">
        <ele>53</ele>
        <time>2025-05-13T08:18:57Z</time>
      </trkpt>
      <trkpt lat="47.51851" lon="-2.59763">
        <ele>53</ele>
        <time>2025-05-13T08:18:58Z</time>
      </trkpt>
      <trkpt lat="47.51849" lon="-2.5977">
        <ele>53</ele>
        <time>2025-05-13T08:18:59Z</time>
      </trkpt>
      <trkpt lat="47.51848" lon="-2.59776">
        <ele>53</ele>
        <time>2025-05-13T08:19:00Z</time>
      </trkpt>
      <trkpt lat="47.51847" lon="-2.59783">
        <ele>53</ele>
        <time>2025-05-13T08:19:01Z</time>
      </trkpt>
      <trkpt lat="47.51846" lon="-2.59789">
        <ele>53</ele>
        <time>2025-05-13T08:19:02Z</time>
      </trkpt>
      <trkpt lat="47.51845" lon="-2.59796">
        <ele>53</ele>
        <time>2025-05-13T08:19:03Z</time>
      </trkpt>
      <trkpt lat="47.51843" lon="-2.59802">
        <ele>53</ele>
        <time>2025-05-13T08:19:04Z</time>
      </trkpt>
      <trkpt lat="47.51842" lon="-2.59808">
        <ele>53</ele>
        <time>2025-05-13T08:19:05Z</time>
      </trkpt>
      <trkpt lat="47.5184" lon="-2.59815">
        <ele>53</ele>
        <time>2025-05-13T08:19:06Z</time>
      </trkpt>
      <trkpt lat="47.51839" lon="-2.59821">
        <ele>53</ele>
        <time>2025-05-13T08:19:07Z</time>
      </trkpt>
      <trkpt lat="47.51838" lon="-2.59827">
        <ele>53</ele>
        <time>2025-05-13T08:19:08Z</time>
      </trkpt>
      <trkpt lat="47.51836" lon="-2.59834">
        <ele>53</ele>
        <time>2025-05-13T08:19:09Z</time>
      </trkpt>
      <trkpt lat="47.51835" lon="-2.5984">
        <ele>53</ele>
        <time>2025-05-13T08:19:10Z</time>
      </trkpt>
      <trkpt lat="47.51833" lon="-2.59847">
        <ele>53</ele>
        <time>2025-05-13T08:19:11Z</time>
      </trkpt>
      <trkpt lat="47.51832" lon="-2.59854">
        <ele>54</ele>
        <time>2025-05-13T08:19:12Z</time>
      </trkpt>
      <trkpt lat="47.5183" lon="-2.5986">
        <ele>54</ele>
        <time>2025-05-13T08:19:13Z</time>
      </trkpt>
      <trkpt lat="47.51828" lon="-2.59867">
        <ele>54</ele>
        <time>2025-05-13T08:19:14Z</time>
      </trkpt>
      <trkpt lat="47.51826" lon="-2.59874">
        <ele>55</ele>
        <time>2025-05-13T08:19:15Z</time>
      </trkpt>
      <trkpt lat="47.51824" lon="-2.5988">
        <ele>55</ele>
        <time>2025-05-13T08:19:16Z</time>
      </trkpt>
      <trkpt lat="47.51822" lon="-2.59887">
        <ele>55</ele>
        <time>2025-05-13T08:19:17Z</time>
      </trkpt>
      <trkpt lat="47.5182" lon="-2.59894">
        <ele>55</ele>
        <time>2025-05-13T08:19:18Z</time>
      </trkpt>
      <trkpt lat="47.51818" lon="-2.59901">
        <ele>56</ele>
        <time>2025-05-13T08:19:19Z</time>
      </trkpt>
      <trkpt lat="47.51817" lon="-2.59908">
        <ele>56</ele>
        <time>2025-05-13T08:19:20Z</time>
      </trkpt>
      <trkpt lat="47.51815" lon="-2.59915">
        <ele>56</ele>
        <time>2025-05-13T08:19:21Z</time>
      </trkpt>
      <trkpt lat="47.51813" lon="-2.59921">
        <ele>56</ele>
        <time>2025-05-13T08:19:22Z</time>
      </trkpt>
      <trkpt lat="47.51811" lon="-2.59928">
        <ele>56</ele>
        <time>2025-05-13T08:19:23Z</time>
      </trkpt>
      <trkpt lat="47.51809" lon="-2.59935">
        <ele>56</ele>
        <time>2025-05-13T08:19:24Z</time>
      </trkpt>
      <trkpt lat="47.51807" lon="-2.59941">
        <ele>55</ele>
        <time>2025-05-13T08:19:25Z</time>
      </trkpt>
      <trkpt lat="47.51805" lon="-2.59948">
        <ele>55</ele>
        <time>2025-05-13T08:19:26Z</time>
      </trkpt>
      <trkpt lat="47.51803" lon="-2.59954">
        <ele>55</ele>
        <time>2025-05-13T08:19:27Z</time>
      </trkpt>
      <trkpt lat="47.51801" lon="-2.59961">
        <ele>54</ele>
        <time>2025-05-13T08:19:28Z</time>
      </trkpt>
      <trkpt lat="47.51799" lon="-2.59968">
        <ele>54</ele>
        <time>2025-05-13T08:19:29Z</time>
      </trkpt>
      <trkpt lat="47.51796" lon="-2.59975">
        <ele>54</ele>
        <time>2025-05-13T08:19:30Z</time>
      </trkpt>
      <trkpt lat="47.51794" lon="-2.59982">
        <ele>54</ele>
        <time>2025-05-13T08:19:31Z</time>
      </trkpt>
      <trkpt lat="47.51792" lon="-2.59989">
        <ele>54</ele>
        <time>2025-05-13T08:19:32Z</time>
      </trkpt>
      <trkpt lat="47.51789" lon="-2.59996">
        <ele>54</ele>
        <time>2025-05-13T08:19:33Z</time>
      </trkpt>
      <trkpt lat="47.51787" lon="-2.60004">
        <ele>54</ele>
        <time>2025-05-13T08:19:34Z</time>
      </trkpt>
      <trkpt lat="47.51784" lon="-2.60011">
        <ele>53</ele>
        <time>2025-05-13T08:19:35Z</time>
      </trkpt>
      <trkpt lat="47.51781" lon="-2.60019">
        <ele>54</ele>
        <time>2025-05-13T08:19:36Z</time>
      </trkpt>
      <trkpt lat="47.51779" lon="-2.60026">
        <ele>53</ele>
        <time>2025-05-13T08:19:37Z</time>
      </trkpt>
      <trkpt lat="47.51776" lon="-2.60033">
        <ele>53</ele>
        <time>2025-05-13T08:19:38Z</time>
      </trkpt>
      <trkpt lat="47.51774" lon="-2.6004">
        <ele>53</ele>
        <time>2025-05-13T08:19:39Z</time>
      </trkpt>
      <trkpt lat="47.51772" lon="-2.60046">
        <ele>53</ele>
        <time>2025-05-13T08:19:40Z</time>
      </trkpt>
      <trkpt lat="47.51769" lon="-2.60053">
        <ele>52</ele>
        <time>2025-05-13T08:19:41Z</time>
      </trkpt>
      <trkpt lat="47.51768" lon="-2.60059">
        <ele>52</ele>
        <time>2025-05-13T08:19:42Z</time>
      </trkpt>
      <trkpt lat="47.51765" lon="-2.60067">
        <ele>53</ele>
        <time>2025-05-13T08:19:43Z</time>
      </trkpt>
      <trkpt lat="47.51763" lon="-2.60074">
        <ele>54</ele>
        <time>2025-05-13T08:19:44Z</time>
      </trkpt>
      <trkpt lat="47.51761" lon="-2.6008">
        <ele>54</ele>
        <time>2025-05-13T08:19:45Z</time>
      </trkpt>
      <trkpt lat="47.51758" lon="-2.60087">
        <ele>55</ele>
        <time>2025-05-13T08:19:46Z</time>
      </trkpt>
      <trkpt lat="47.51756" lon="-2.60093">
        <ele>55</ele>
        <time>2025-05-13T08:19:47Z</time>
      </trkpt>
      <trkpt lat="47.51753" lon="-2.601">
        <ele>54</ele>
        <time>2025-05-13T08:19:48Z</time>
      </trkpt>
      <trkpt lat="47.51751" lon="-2.60106">
        <ele>54</ele>
        <time>2025-05-13T08:19:49Z</time>
      </trkpt>
      <trkpt lat="47.51749" lon="-2.60113">
        <ele>54</ele>
        <time>2025-05-13T08:19:50Z</time>
      </trkpt>
      <trkpt lat="47.51747" lon="-2.60119">
        <ele>54</ele>
        <time>2025-05-13T08:19:51Z</time>
      </trkpt>
      <trkpt lat="47.51745" lon="-2.60125">
        <ele>54</ele>
        <time>2025-05-13T08:19:52Z</time>
      </trkpt>
      <trkpt lat="47.51743" lon="-2.60132">
        <ele>54</ele>
        <time>2025-05-13T08:19:53Z</time>
      </trkpt>
      <trkpt lat="47.51741" lon="-2.60138">
        <ele>54</ele>
        <time>2025-05-13T08:19:54Z</time>
      </trkpt>
      <trkpt lat="47.51738" lon="-2.60145">
        <ele>54</ele>
        <time>2025-05-13T08:19:55Z</time>
      </trkpt>
      <trkpt lat="47.51736" lon="-2.60152">
        <ele>54</ele>
        <time>2025-05-13T08:19:56Z</time>
      </trkpt>
      <trkpt lat="47.51733" lon="-2.60158">
        <ele>53</ele>
        <time>2025-05-13T08:19:57Z</time>
      </trkpt>
      <trkpt lat="47.51731" lon="-2.60165">
        <ele>54</ele>
        <time>2025-05-13T08:19:58Z</time>
      </trkpt>
      <trkpt lat="47.51729" lon="-2.60172">
        <ele>54</ele>
        <time>2025-05-13T08:19:59Z</time>
      </trkpt>
      <trkpt lat="47.51727" lon="-2.60179">
        <ele>54</ele>
        <time>2025-05-13T08:20:00Z</time>
      </trkpt>
      <trkpt lat="47.51724" lon="-2.60186">
        <ele>54</ele>
        <time>2025-05-13T08:20:01Z</time>
      </trkpt>
      <trkpt lat="47.51722" lon="-2.60193">
        <ele>54</ele>
        <time>2025-05-13T08:20:02Z</time>
      </trkpt>
      <trkpt lat="47.5172" lon="-2.602">
        <ele>54</ele>
        <time>2025-05-13T08:20:03Z</time>
      </trkpt>
      <trkpt lat="47.51717" lon="-2.60207">
        <ele>54</ele>
        <time>2025-05-13T08:20:04Z</time>
      </trkpt>
      <trkpt lat="47.51715" lon="-2.60214">
        <ele>55</ele>
        <time>2025-05-13T08:20:05Z</time>
      </trkpt>
      <trkpt lat="47.51712" lon="-2.60221">
        <ele>55</ele>
        <time>2025-05-13T08:20:06Z</time>
      </trkpt>
      <trkpt lat="47.5171" lon="-2.60227">
        <ele>55</ele>
        <time>2025-05-13T08:20:07Z</time>
      </trkpt>
      <trkpt lat="47.51707" lon="-2.60234">
        <ele>55</ele>
        <time>2025-05-13T08:20:08Z</time>
      </trkpt>
      <trkpt lat="47.51705" lon="-2.6024">
        <ele>55</ele>
        <time>2025-05-13T08:20:09Z</time>
      </trkpt>
      <trkpt lat="47.51702" lon="-2.60247">
        <ele>55</ele>
        <time>2025-05-13T08:20:10Z</time>
      </trkpt>
      <trkpt lat="47.517" lon="-2.60254">
        <ele>55</ele>
        <time>2025-05-13T08:20:11Z</time>
      </trkpt>
      <trkpt lat="47.51697" lon="-2.60261">
        <ele>56</ele>
        <time>2025-05-13T08:20:12Z</time>
      </trkpt>
      <trkpt lat="47.51695" lon="-2.60267">
        <ele>56</ele>
        <time>2025-05-13T08:20:13Z</time>
      </trkpt>
      <trkpt lat="47.51692" lon="-2.60273">
        <ele>55</ele>
        <time>2025-05-13T08:20:14Z</time>
      </trkpt>
      <trkpt lat="47.5169" lon="-2.60279">
        <ele>55</ele>
        <time>2025-05-13T08:20:15Z</time>
      </trkpt>
      <trkpt lat="47.51688" lon="-2.60286">
        <ele>54</ele>
        <time>2025-05-13T08:20:16Z</time>
      </trkpt>
      <trkpt lat="47.51685" lon="-2.60292">
        <ele>54</ele>
        <time>2025-05-13T08:20:17Z</time>
      </trkpt>
      <trkpt lat="47.51683" lon="-2.60298">
        <ele>54</ele>
        <time>2025-05-13T08:20:18Z</time>
      </trkpt>
      <trkpt lat="47.51681" lon="-2.60305">
        <ele>54</ele>
        <time>2025-05-13T08:20:19Z</time>
      </trkpt>
      <trkpt lat="47.51679" lon="-2.60311">
        <ele>54</ele>
        <time>2025-05-13T08:20:20Z</time>
      </trkpt>
      <trkpt lat="47.51676" lon="-2.60318">
        <ele>54</ele>
        <time>2025-05-13T08:20:21Z</time>
      </trkpt>
      <trkpt lat="47.51674" lon="-2.60324">
        <ele>54</ele>
        <time>2025-05-13T08:20:22Z</time>
      </trkpt>
      <trkpt lat="47.51671" lon="-2.60331">
        <ele>54</ele>
        <time>2025-05-13T08:20:23Z</time>
      </trkpt>
      <trkpt lat="47.51668" lon="-2.60337">
        <ele>54</ele>
        <time>2025-05-13T08:20:24Z</time>
      </trkpt>
      <trkpt lat="47.51666" lon="-2.60344">
        <ele>54</ele>
        <time>2025-05-13T08:20:25Z</time>
      </trkpt>
      <trkpt lat="47.51663" lon="-2.6035">
        <ele>54</ele>
        <time>2025-05-13T08:20:26Z</time>
      </trkpt>
      <trkpt lat="47.51661" lon="-2.60357">
        <ele>55</ele>
        <time>2025-05-13T08:20:27Z</time>
      </trkpt>
      <trkpt lat="47.51658" lon="-2.60363">
        <ele>55</ele>
        <time>2025-05-13T08:20:28Z</time>
      </trkpt>
      <trkpt lat="47.51656" lon="-2.6037">
        <ele>55</ele>
        <time>2025-05-13T08:20:29Z</time>
      </trkpt>
      <trkpt lat="47.51653" lon="-2.60376">
        <ele>55</ele>
        <time>2025-05-13T08:20:30Z</time>
      </trkpt>
      <trkpt lat="47.51651" lon="-2.60382">
        <ele>55</ele>
        <time>2025-05-13T08:20:31Z</time>
      </trkpt>
      <trkpt lat="47.51648" lon="-2.60387">
        <ele>55</ele>
        <time>2025-05-13T08:20:32Z</time>
      </trkpt>
      <trkpt lat="47.51646" lon="-2.60393">
        <ele>54</ele>
        <time>2025-05-13T08:20:33Z</time>
      </trkpt>
      <trkpt lat="47.51644" lon="-2.60398">
        <ele>54</ele>
        <time>2025-05-13T08:20:34Z</time>
      </trkpt>
      <trkpt lat="47.51641" lon="-2.60404">
        <ele>54</ele>
        <time>2025-05-13T08:20:35Z</time>
      </trkpt>
      <trkpt lat="47.51639" lon="-2.60409">
        <ele>54</ele>
        <time>2025-05-13T08:20:36Z</time>
      </trkpt>
      <trkpt lat="47.51636" lon="-2.60415">
        <ele>54</ele>
        <time>2025-05-13T08:20:37Z</time>
      </trkpt>
      <trkpt lat="47.51634" lon="-2.6042">
        <ele>55</ele>
        <time>2025-05-13T08:20:38Z</time>
      </trkpt>
      <trkpt lat="47.51631" lon="-2.60425">
        <ele>55</ele>
        <time>2025-05-13T08:20:39Z</time>
      </trkpt>
      <trkpt lat="47.51629" lon="-2.6043">
        <ele>55</ele>
        <time>2025-05-13T08:20:40Z</time>
      </trkpt>
      <trkpt lat="47.51626" lon="-2.60436">
        <ele>55</ele>
        <time>2025-05-13T08:20:41Z</time>
      </trkpt>
      <trkpt lat="47.51624" lon="-2.60441">
        <ele>55</ele>
        <time>2025-05-13T08:20:42Z</time>
      </trkpt>
      <trkpt lat="47.51621" lon="-2.60447">
        <ele>55</ele>
        <time>2025-05-13T08:20:43Z</time>
      </trkpt>
      <trkpt lat="47.51618" lon="-2.60452">
        <ele>55</ele>
        <time>2025-05-13T08:20:44Z</time>
      </trkpt>
      <trkpt lat="47.51616" lon="-2.60457">
        <ele>55</ele>
        <time>2025-05-13T08:20:45Z</time>
      </trkpt>
      <trkpt lat="47.51614" lon="-2.60463">
        <ele>55</ele>
        <time>2025-05-13T08:20:46Z</time>
      </trkpt>
      <trkpt lat="47.51611" lon="-2.60468">
        <ele>55</ele>
        <time>2025-05-13T08:20:47Z</time>
      </trkpt>
      <trkpt lat="47.51608" lon="-2.60474">
        <ele>55</ele>
        <time>2025-05-13T08:20:48Z</time>
      </trkpt>
      <trkpt lat="47.51606" lon="-2.60479">
        <ele>55</ele>
        <time>2025-05-13T08:20:49Z</time>
      </trkpt>
      <trkpt lat="47.51603" lon="-2.60485">
        <ele>55</ele>
        <time>2025-05-13T08:20:50Z</time>
      </trkpt>
      <trkpt lat="47.516" lon="-2.6049">
        <ele>55</ele>
        <time>2025-05-13T08:20:51Z</time>
      </trkpt>
      <trkpt lat="47.51597" lon="-2.60496">
        <ele>54</ele>
        <time>2025-05-13T08:20:52Z</time>
      </trkpt>
      <trkpt lat="47.51595" lon="-2.60502">
        <ele>54</ele>
        <time>2025-05-13T08:20:53Z</time>
      </trkpt>
      <trkpt lat="47.51592" lon="-2.60507">
        <ele>54</ele>
        <time>2025-05-13T08:20:54Z</time>
      </trkpt>
      <trkpt lat="47.51589" lon="-2.60513">
        <ele>54</ele>
        <time>2025-05-13T08:20:55Z</time>
      </trkpt>
      <trkpt lat="47.51587" lon="-2.60518">
        <ele>55</ele>
        <time>2025-05-13T08:20:56Z</time>
      </trkpt>
      <trkpt lat="47.51584" lon="-2.60523">
        <ele>55</ele>
        <time>2025-05-13T08:20:57Z</time>
      </trkpt>
      <trkpt lat="47.51582" lon="-2.60529">
        <ele>55</ele>
        <time>2025-05-13T08:20:58Z</time>
      </trkpt>
      <trkpt lat="47.51579" lon="-2.60535">
        <ele>55</ele>
        <time>2025-05-13T08:20:59Z</time>
      </trkpt>
      <trkpt lat="47.51576" lon="-2.6054">
        <ele>55</ele>
        <time>2025-05-13T08:21:00Z</time>
      </trkpt>
      <trkpt lat="47.51574" lon="-2.60546">
        <ele>55</ele>
        <time>2025-05-13T08:21:01Z</time>
      </trkpt>
      <trkpt lat="47.51571" lon="-2.60552">
        <ele>55</ele>
        <time>2025-05-13T08:21:02Z</time>
      </trkpt>
      <trkpt lat="47.51568" lon="-2.60557">
        <ele>55</ele>
        <time>2025-05-13T08:21:03Z</time>
      </trkpt>
      <trkpt lat="47.51566" lon="-2.60562">
        <ele>54</ele>
        <time>2025-05-13T08:21:04Z</time>
      </trkpt>
      <trkpt lat="47.51563" lon="-2.60568">
        <ele>54</ele>
        <time>2025-05-13T08:21:05Z</time>
      </trkpt>
      <trkpt lat="47.5156" lon="-2.60573">
        <ele>54</ele>
        <time>2025-05-13T08:21:06Z</time>
      </trkpt>
      <trkpt lat="47.51557" lon="-2.60578">
        <ele>54</ele>
        <time>2025-05-13T08:21:07Z</time>
      </trkpt>
      <trkpt lat="47.51554" lon="-2.60583">
        <ele>54</ele>
        <time>2025-05-13T08:21:08Z</time>
      </trkpt>
      <trkpt lat="47.51551" lon="-2.60589">
        <ele>54</ele>
        <time>2025-05-13T08:21:09Z</time>
      </trkpt>
      <trkpt lat="47.51548" lon="-2.60594">
        <ele>54</ele>
        <time>2025-05-13T08:21:10Z</time>
      </trkpt>
      <trkpt lat="47.51545" lon="-2.60598">
        <ele>54</ele>
        <time>2025-05-13T08:21:11Z</time>
      </trkpt>
      <trkpt lat="47.51542" lon="-2.60603">
        <ele>54</ele>
        <time>2025-05-13T08:21:12Z</time>
      </trkpt>
      <trkpt lat="47.51538" lon="-2.60607">
        <ele>54</ele>
        <time>2025-05-13T08:21:13Z</time>
      </trkpt>
      <trkpt lat="47.51535" lon="-2.60612">
        <ele>54</ele>
        <time>2025-05-13T08:21:14Z</time>
      </trkpt>
      <trkpt lat="47.51532" lon="-2.60616">
        <ele>54</ele>
        <time>2025-05-13T08:21:15Z</time>
      </trkpt>
      <trkpt lat="47.51528" lon="-2.6062">
        <ele>54</ele>
        <time>2025-05-13T08:21:16Z</time>
      </trkpt>
      <trkpt lat="47.51525" lon="-2.60624">
        <ele>54</ele>
        <time>2025-05-13T08:21:17Z</time>
      </trkpt>
      <trkpt lat="47.51521" lon="-2.60628">
        <ele>54</ele>
        <time>2025-05-13T08:21:18Z</time>
      </trkpt>
      <trkpt lat="47.51518" lon="-2.60632">
        <ele>54</ele>
        <time>2025-05-13T08:21:19Z</time>
      </trkpt>
      <trkpt lat="47.51514" lon="-2.60635">
        <ele>54</ele>
        <time>2025-05-13T08:21:20Z</time>
      </trkpt>
      <trkpt lat="47.51511" lon="-2.60639">
        <ele>54</ele>
        <time>2025-05-13T08:21:21Z</time>
      </trkpt>
      <trkpt lat="47.51507" lon="-2.60643">
        <ele>55</ele>
        <time>2025-05-13T08:21:22Z</time>
      </trkpt>
      <trkpt lat="47.51503" lon="-2.60646">
        <ele>55</ele>
        <time>2025-05-13T08:21:23Z</time>
      </trkpt>
      <trkpt lat="47.51499" lon="-2.60649">
        <ele>55</ele>
        <time>2025-05-13T08:21:24Z</time>
      </trkpt>
      <trkpt lat="47.51495" lon="-2.60652">
        <ele>55</ele>
        <time>2025-05-13T08:21:25Z</time>
      </trkpt>
      <trkpt lat="47.51491" lon="-2.60655">
        <ele>55</ele>
        <time>2025-05-13T08:21:26Z</time>
      </trkpt>
      <trkpt lat="47.51487" lon="-2.60657">
        <ele>54</ele>
        <time>2025-05-13T08:21:27Z</time>
      </trkpt>
      <trkpt lat="47.51483" lon="-2.6066">
        <ele>54</ele>
        <time>2025-05-13T08:21:28Z</time>
      </trkpt>
      <trkpt lat="47.51479" lon="-2.60663">
        <ele>55</ele>
        <time>2025-05-13T08:21:29Z</time>
      </trkpt>
      <trkpt lat="47.51474" lon="-2.60665">
        <ele>54</ele>
        <time>2025-05-13T08:21:30Z</time>
      </trkpt>
      <trkpt lat="47.5147" lon="-2.60668">
        <ele>54</ele>
        <time>2025-05-13T08:21:31Z</time>
      </trkpt>
      <trkpt lat="47.51466" lon="-2.6067">
        <ele>55</ele>
        <time>2025-05-13T08:21:32Z</time>
      </trkpt>
      <trkpt lat="47.51461" lon="-2.60673">
        <ele>54</ele>
        <time>2025-05-13T08:21:33Z</time>
      </trkpt>
      <trkpt lat="47.51457" lon="-2.60675">
        <ele>55</ele>
        <time>2025-05-13T08:21:34Z</time>
      </trkpt>
      <trkpt lat="47.51453" lon="-2.60678">
        <ele>55</ele>
        <time>2025-05-13T08:21:35Z</time>
      </trkpt>
      <trkpt lat="47.51448" lon="-2.6068">
        <ele>55</ele>
        <time>2025-05-13T08:21:36Z</time>
      </trkpt>
      <trkpt lat="47.51444" lon="-2.60682">
        <ele>55</ele>
        <time>2025-05-13T08:21:37Z</time>
      </trkpt>
      <trkpt lat="47.51439" lon="-2.60685">
        <ele>54</ele>
        <time>2025-05-13T08:21:38Z</time>
      </trkpt>
      <trkpt lat="47.51435" lon="-2.60687">
        <ele>54</ele>
        <time>2025-05-13T08:21:39Z</time>
      </trkpt>
      <trkpt lat="47.51431" lon="-2.6069">
        <ele>54</ele>
        <time>2025-05-13T08:21:40Z</time>
      </trkpt>
      <trkpt lat="47.51426" lon="-2.60692">
        <ele>54</ele>
        <time>2025-05-13T08:21:41Z</time>
      </trkpt>
      <trkpt lat="47.51422" lon="-2.60694">
        <ele>54</ele>
        <time>2025-05-13T08:21:42Z</time>
      </trkpt>
      <trkpt lat="47.51418" lon="-2.60697">
        <ele>54</ele>
        <time>2025-05-13T08:21:43Z</time>
      </trkpt>
      <trkpt lat="47.51414" lon="-2.60699">
        <ele>54</ele>
        <time>2025-05-13T08:21:44Z</time>
      </trkpt>
      <trkpt lat="47.51409" lon="-2.60702">
        <ele>54</ele>
        <time>2025-05-13T08:21:45Z</time>
      </trkpt>
      <trkpt lat="47.51405" lon="-2.60704">
        <ele>54</ele>
        <time>2025-05-13T08:21:46Z</time>
      </trkpt>
      <trkpt lat="47.51401" lon="-2.60707">
        <ele>54</ele>
        <time>2025-05-13T08:21:47Z</time>
      </trkpt>
      <trkpt lat="47.51397" lon="-2.60709">
        <ele>54</ele>
        <time>2025-05-13T08:21:48Z</time>
      </trkpt>
      <trkpt lat="47.51393" lon="-2.60712">
        <ele>54</ele>
        <time>2025-05-13T08:21:49Z</time>
      </trkpt>
      <trkpt lat="47.51389" lon="-2.60714">
        <ele>54</ele>
        <time>2025-05-13T08:21:50Z</time>
      </trkpt>
      <trkpt lat="47.51385" lon="-2.60717">
        <ele>54</ele>
        <time>2025-05-13T08:21:51Z</time>
      </trkpt>
      <trkpt lat="47.51381" lon="-2.60719">
        <ele>54</ele>
        <time>2025-05-13T08:21:52Z</time>
      </trkpt>
      <trkpt lat="47.51378" lon="-2.60722">
        <ele>54</ele>
        <time>2025-05-13T08:21:53Z</time>
      </trkpt>
      <trkpt lat="47.51374" lon="-2.60725">
        <ele>54</ele>
        <time>2025-05-13T08:21:54Z</time>
      </trkpt>
      <trkpt lat="47.51371" lon="-2.60727">
        <ele>55</ele>
        <time>2025-05-13T08:21:55Z</time>
      </trkpt>
      <trkpt lat="47.51367" lon="-2.6073">
        <ele>55</ele>
        <time>2025-05-13T08:21:56Z</time>
      </trkpt>
      <trkpt lat="47.51364" lon="-2.60733">
        <ele>55</ele>
        <time>2025-05-13T08:21:57Z</time>
      </trkpt>
      <trkpt lat="47.5136" lon="-2.60736">
        <ele>56</ele>
        <time>2025-05-13T08:21:58Z</time>
      </trkpt>
      <trkpt lat="47.51357" lon="-2.60739">
        <ele>56</ele>
        <time>2025-05-13T08:21:59Z</time>
      </trkpt>
      <trkpt lat="47.51354" lon="-2.60742">
        <ele>56</ele>
        <time>2025-05-13T08:22:00Z</time>
      </trkpt>
      <trkpt lat="47.51351" lon="-2.60745">
        <ele>57</ele>
        <time>2025-05-13T08:22:01Z</time>
      </trkpt>
      <trkpt lat="47.51348" lon="-2.60748">
        <ele>57</ele>
        <time>2025-05-13T08:22:02Z</time>
      </trkpt>
      <trkpt lat="47.51345" lon="-2.60752">
        <ele>57</ele>
        <time>2025-05-13T08:22:03Z</time>
      </trkpt>
      <trkpt lat="47.51342" lon="-2.60756">
        <ele>57</ele>
        <time>2025-05-13T08:22:04Z</time>
      </trkpt>
      <trkpt lat="47.51339" lon="-2.6076">
        <ele>57</ele>
        <time>2025-05-13T08:22:05Z</time>
      </trkpt>
      <trkpt lat="47.51337" lon="-2.60764">
        <ele>57</ele>
        <time>2025-05-13T08:22:06Z</time>
      </trkpt>
      <trkpt lat="47.51334" lon="-2.60768">
        <ele>57</ele>
        <time>2025-05-13T08:22:07Z</time>
      </trkpt>
      <trkpt lat="47.51331" lon="-2.60772">
        <ele>57</ele>
        <time>2025-05-13T08:22:08Z</time>
      </trkpt>
      <trkpt lat="47.51328" lon="-2.60775">
        <ele>57</ele>
        <time>2025-05-13T08:22:09Z</time>
      </trkpt>
      <trkpt lat="47.51325" lon="-2.60778">
        <ele>57</ele>
        <time>2025-05-13T08:22:10Z</time>
      </trkpt>
      <trkpt lat="47.51322" lon="-2.60782">
        <ele>57</ele>
        <time>2025-05-13T08:22:11Z</time>
      </trkpt>
      <trkpt lat="47.51319" lon="-2.60785">
        <ele>57</ele>
        <time>2025-05-13T08:22:12Z</time>
      </trkpt>
      <trkpt lat="47.51316" lon="-2.60788">
        <ele>58</ele>
        <time>2025-05-13T08:22:13Z</time>
      </trkpt>
      <trkpt lat="47.51313" lon="-2.60791">
        <ele>58</ele>
        <time>2025-05-13T08:22:14Z</time>
      </trkpt>
      <trkpt lat="47.5131" lon="-2.60795">
        <ele>57</ele>
        <time>2025-05-13T08:22:15Z</time>
      </trkpt>
      <trkpt lat="47.51307" lon="-2.60798">
        <ele>57</ele>
        <time>2025-05-13T08:22:16Z</time>
      </trkpt>
      <trkpt lat="47.51303" lon="-2.60802">
        <ele>57</ele>
        <time>2025-05-13T08:22:17Z</time>
      </trkpt>
      <trkpt lat="47.513" lon="-2.60805">
        <ele>57</ele>
        <time>2025-05-13T08:22:18Z</time>
      </trkpt>
      <trkpt lat="47.51297" lon="-2.60809">
        <ele>57</ele>
        <time>2025-05-13T08:22:19Z</time>
      </trkpt>
      <trkpt lat="47.51294" lon="-2.60813">
        <ele>57</ele>
        <time>2025-05-13T08:22:20Z</time>
      </trkpt>
      <trkpt lat="47.51291" lon="-2.60816">
        <ele>57</ele>
        <time>2025-05-13T08:22:21Z</time>
      </trkpt>
      <trkpt lat="47.51288" lon="-2.60819">
        <ele>57</ele>
        <time>2025-05-13T08:22:22Z</time>
      </trkpt>
      <trkpt lat="47.51285" lon="-2.60823">
        <ele>57</ele>
        <time>2025-05-13T08:22:23Z</time>
      </trkpt>
      <trkpt lat="47.51282" lon="-2.60827">
        <ele>56</ele>
        <time>2025-05-13T08:22:24Z</time>
      </trkpt>
      <trkpt lat="47.51279" lon="-2.60831">
        <ele>56</ele>
        <time>2025-05-13T08:22:25Z</time>
      </trkpt>
      <trkpt lat="47.51275" lon="-2.60834">
        <ele>56</ele>
        <time>2025-05-13T08:22:26Z</time>
      </trkpt>
      <trkpt lat="47.51272" lon="-2.60838">
        <ele>56</ele>
        <time>2025-05-13T08:22:27Z</time>
      </trkpt>
      <trkpt lat="47.51269" lon="-2.60841">
        <ele>55</ele>
        <time>2025-05-13T08:22:28Z</time>
      </trkpt>
      <trkpt lat="47.51266" lon="-2.60845">
        <ele>55</ele>
        <time>2025-05-13T08:22:29Z</time>
      </trkpt>
      <trkpt lat="47.51263" lon="-2.60849">
        <ele>55</ele>
        <time>2025-05-13T08:22:30Z</time>
      </trkpt>
      <trkpt lat="47.51259" lon="-2.60853">
        <ele>55</ele>
        <time>2025-05-13T08:22:31Z</time>
      </trkpt>
      <trkpt lat="47.51255" lon="-2.60856">
        <ele>55</ele>
        <time>2025-05-13T08:22:32Z</time>
      </trkpt>
      <trkpt lat="47.51252" lon="-2.6086">
        <ele>54</ele>
        <time>2025-05-13T08:22:33Z</time>
      </trkpt>
      <trkpt lat="47.51248" lon="-2.60864">
        <ele>54</ele>
        <time>2025-05-13T08:22:34Z</time>
      </trkpt>
      <trkpt lat="47.51245" lon="-2.60867">
        <ele>54</ele>
        <time>2025-05-13T08:22:35Z</time>
      </trkpt>
      <trkpt lat="47.51241" lon="-2.60871">
        <ele>54</ele>
        <time>2025-05-13T08:22:36Z</time>
      </trkpt>
      <trkpt lat="47.51238" lon="-2.60874">
        <ele>54</ele>
        <time>2025-05-13T08:22:37Z</time>
      </trkpt>
      <trkpt lat="47.51234" lon="-2.60878">
        <ele>54</ele>
        <time>2025-05-13T08:22:38Z</time>
      </trkpt>
      <trkpt lat="47.5123" lon="-2.60882">
        <ele>54</ele>
        <time>2025-05-13T08:22:39Z</time>
      </trkpt>
      <trkpt lat="47.51227" lon="-2.60884">
        <ele>54</ele>
        <time>2025-05-13T08:22:40Z</time>
      </trkpt>
      <trkpt lat="47.51223" lon="-2.60887">
        <ele>54</ele>
        <time>2025-05-13T08:22:41Z</time>
      </trkpt>
      <trkpt lat="47.5122" lon="-2.60889">
        <ele>54</ele>
        <time>2025-05-13T08:22:42Z</time>
      </trkpt>
      <trkpt lat="47.51217" lon="-2.60892">
        <ele>55</ele>
        <time>2025-05-13T08:22:43Z</time>
      </trkpt>
      <trkpt lat="47.51214" lon="-2.60895">
        <ele>55</ele>
        <time>2025-05-13T08:22:44Z</time>
      </trkpt>
      <trkpt lat="47.5121" lon="-2.60898">
        <ele>55</ele>
        <time>2025-05-13T08:22:45Z</time>
      </trkpt>
      <trkpt lat="47.51207" lon="-2.60901">
        <ele>55</ele>
        <time>2025-05-13T08:22:46Z</time>
      </trkpt>
      <trkpt lat="47.51203" lon="-2.60905">
        <ele>55</ele>
        <time>2025-05-13T08:22:47Z</time>
      </trkpt>
      <trkpt lat="47.512" lon="-2.60908">
        <ele>55</ele>
        <time>2025-05-13T08:22:48Z</time>
      </trkpt>
      <trkpt lat="47.51196" lon="-2.60911">
        <ele>55</ele>
        <time>2025-05-13T08:22:49Z</time>
      </trkpt>
      <trkpt lat="47.51192" lon="-2.60914">
        <ele>55</ele>
        <time>2025-05-13T08:22:50Z</time>
      </trkpt>
      <trkpt lat="47.51188" lon="-2.60918">
        <ele>55</ele>
        <time>2025-05-13T08:22:51Z</time>
      </trkpt>
      <trkpt lat="47.51184" lon="-2.60921">
        <ele>55</ele>
        <time>2025-05-13T08:22:52Z</time>
      </trkpt>
      <trkpt lat="47.5118" lon="-2.60924">
        <ele>54</ele>
        <time>2025-05-13T08:22:53Z</time>
      </trkpt>
      <trkpt lat="47.51175" lon="-2.60927">
        <ele>54</ele>
        <time>2025-05-13T08:22:54Z</time>
      </trkpt>
      <trkpt lat="47.51171" lon="-2.6093">
        <ele>54</ele>
        <time>2025-05-13T08:22:55Z</time>
      </trkpt>
      <trkpt lat="47.51167" lon="-2.60933">
        <ele>54</ele>
        <time>2025-05-13T08:22:56Z</time>
      </trkpt>
      <trkpt lat="47.51163" lon="-2.60936">
        <ele>54</ele>
        <time>2025-05-13T08:22:57Z</time>
      </trkpt>
      <trkpt lat="47.51158" lon="-2.6094">
        <ele>54</ele>
        <time>2025-05-13T08:22:58Z</time>
      </trkpt>
      <trkpt lat="47.51153" lon="-2.60944">
        <ele>54</ele>
        <time>2025-05-13T08:22:59Z</time>
      </trkpt>
      <trkpt lat="47.51149" lon="-2.60947">
        <ele>54</ele>
        <time>2025-05-13T08:23:00Z</time>
      </trkpt>
      <trkpt lat="47.51144" lon="-2.6095">
        <ele>54</ele>
        <time>2025-05-13T08:23:01Z</time>
      </trkpt>
      <trkpt lat="47.51139" lon="-2.60954">
        <ele>53</ele>
        <time>2025-05-13T08:23:02Z</time>
      </trkpt>
      <trkpt lat="47.51135" lon="-2.60957">
        <ele>53</ele>
        <time>2025-05-13T08:23:03Z</time>
      </trkpt>
      <trkpt lat="47.5113" lon="-2.60961">
        <ele>53</ele>
        <time>2025-05-13T08:23:04Z</time>
      </trkpt>
      <trkpt lat="47.51126" lon="-2.60964">
        <ele>53</ele>
        <time>2025-05-13T08:23:05Z</time>
      </trkpt>
      <trkpt lat="47.51121" lon="-2.60968">
        <ele>53</ele>
        <time>2025-05-13T08:23:06Z</time>
      </trkpt>
      <trkpt lat="47.51117" lon="-2.60972">
        <ele>53</ele>
        <time>2025-05-13T08:23:07Z</time>
      </trkpt>
      <trkpt lat="47.51112" lon="-2.60975">
        <ele>53</ele>
        <time>2025-05-13T08:23:08Z</time>
      </trkpt>
      <trkpt lat="47.51107" lon="-2.60979">
        <ele>54</ele>
        <time>2025-05-13T08:23:09Z</time>
      </trkpt>
      <trkpt lat="47.51102" lon="-2.60983">
        <ele>54</ele>
        <time>2025-05-13T08:23:10Z</time>
      </trkpt>
      <trkpt lat="47.51097" lon="-2.60986">
        <ele>54</ele>
        <time>2025-05-13T08:23:11Z</time>
      </trkpt>
      <trkpt lat="47.51092" lon="-2.60989">
        <ele>54</ele>
        <time>2025-05-13T08:23:12Z</time>
      </trkpt>
      <trkpt lat="47.51087" lon="-2.60993">
        <ele>54</ele>
        <time>2025-05-13T08:23:13Z</time>
      </trkpt>
      <trkpt lat="47.51082" lon="-2.60997">
        <ele>53</ele>
        <time>2025-05-13T08:23:14Z</time>
      </trkpt>
      <trkpt lat="47.51078" lon="-2.61001">
        <ele>54</ele>
        <time>2025-05-13T08:23:15Z</time>
      </trkpt>
      <trkpt lat="47.51073" lon="-2.61005">
        <ele>54</ele>
        <time>2025-05-13T08:23:16Z</time>
      </trkpt>
      <trkpt lat="47.51068" lon="-2.61008">
        <ele>54</ele>
        <time>2025-05-13T08:23:17Z</time>
      </trkpt>
      <trkpt lat="47.51063" lon="-2.61012">
        <ele>53</ele>
        <time>2025-05-13T08:23:18Z</time>
      </trkpt>
      <trkpt lat="47.51058" lon="-2.61015">
        <ele>53</ele>
        <time>2025-05-13T08:23:19Z</time>
      </trkpt>
      <trkpt lat="47.51054" lon="-2.61019">
        <ele>53</ele>
        <time>2025-05-13T08:23:20Z</time>
      </trkpt>
      <trkpt lat="47.51049" lon="-2.61022">
        <ele>53</ele>
        <time>2025-05-13T08:23:21Z</time>
      </trkpt>
      <trkpt lat="47.51045" lon="-2.61026">
        <ele>53</ele>
        <time>2025-05-13T08:23:22Z</time>
      </trkpt>
      <trkpt lat="47.51041" lon="-2.61029">
        <ele>53</ele>
        <time>2025-05-13T08:23:23Z</time>
      </trkpt>
      <trkpt lat="47.51036" lon="-2.61033">
        <ele>53</ele>
        <time>2025-05-13T08:23:24Z</time>
      </trkpt>
      <trkpt lat="47.51032" lon="-2.61036">
        <ele>53</ele>
        <time>2025-05-13T08:23:25Z</time>
      </trkpt>
      <trkpt lat="47.51027" lon="-2.61039">
        <ele>53</ele>
        <time>2025-05-13T08:23:26Z</time>
      </trkpt>
      <trkpt lat="47.51023" lon="-2.61042">
        <ele>53</ele>
        <time>2025-05-13T08:23:27Z</time>
      </trkpt>
      <trkpt lat="47.51019" lon="-2.61046">
        <ele>53</ele>
        <time>2025-05-13T08:23:28Z</time>
      </trkpt>
      <trkpt lat="47.51015" lon="-2.61049">
        <ele>53</ele>
        <time>2025-05-13T08:23:29Z</time>
      </trkpt>
      <trkpt lat="47.51011" lon="-2.61052">
        <ele>54</ele>
        <time>2025-05-13T08:23:30Z</time>
      </trkpt>
      <trkpt lat="47.51006" lon="-2.61055">
        <ele>54</ele>
        <time>2025-05-13T08:23:31Z</time>
      </trkpt>
      <trkpt lat="47.51002" lon="-2.61058">
        <ele>54</ele>
        <time>2025-05-13T08:23:32Z</time>
      </trkpt>
      <trkpt lat="47.50998" lon="-2.61061">
        <ele>54</ele>
        <time>2025-05-13T08:23:33Z</time>
      </trkpt>
      <trkpt lat="47.50994" lon="-2.61065">
        <ele>55</ele>
        <time>2025-05-13T08:23:34Z</time>
      </trkpt>
      <trkpt lat="47.5099" lon="-2.61068">
        <ele>54</ele>
        <time>2025-05-13T08:23:35Z</time>
      </trkpt>
      <trkpt lat="47.50986" lon="-2.61071">
        <ele>55</ele>
        <time>2025-05-13T08:23:36Z</time>
      </trkpt>
      <trkpt lat="47.50982" lon="-2.61075">
        <ele>54</ele>
        <time>2025-05-13T08:23:37Z</time>
      </trkpt>
      <trkpt lat="47.50978" lon="-2.61078">
        <ele>54</ele>
        <time>2025-05-13T08:23:38Z</time>
      </trkpt>
      <trkpt lat="47.50973" lon="-2.61081">
        <ele>54</ele>
        <time>2025-05-13T08:23:39Z</time>
      </trkpt>
      <trkpt lat="47.50969" lon="-2.61084">
        <ele>54</ele>
        <time>2025-05-13T08:23:40Z</time>
      </trkpt>
      <trkpt lat="47.50965" lon="-2.61087">
        <ele>54</ele>
        <time>2025-05-13T08:23:41Z</time>
      </trkpt>
      <trkpt lat="47.5096" lon="-2.6109">
        <ele>53</ele>
        <time>2025-05-13T08:23:42Z</time>
      </trkpt>
      <trkpt lat="47.50956" lon="-2.61093">
        <ele>53</ele>
        <time>2025-05-13T08:23:43Z</time>
      </trkpt>
      <trkpt lat="47.50952" lon="-2.61096">
        <ele>53</ele>
        <time>2025-05-13T08:23:44Z</time>
      </trkpt>
      <trkpt lat="47.50947" lon="-2.611">
        <ele>53</ele>
        <time>2025-05-13T08:23:45Z</time>
      </trkpt>
      <trkpt lat="47.50943" lon="-2.61103">
        <ele>53</ele>
        <time>2025-05-13T08:23:46Z</time>
      </trkpt>
      <trkpt lat="47.50939" lon="-2.61106">
        <ele>53</ele>
        <time>2025-05-13T08:23:47Z</time>
      </trkpt>
      <trkpt lat="47.50935" lon="-2.6111">
        <ele>53</ele>
        <time>2025-05-13T08:23:48Z</time>
      </trkpt>
      <trkpt lat="47.5093" lon="-2.61113">
        <ele>53</ele>
        <time>2025-05-13T08:23:49Z</time>
      </trkpt>
      <trkpt lat="47.50926" lon="-2.61117">
        <ele>53</ele>
        <time>2025-05-13T08:23:50Z</time>
      </trkpt>
      <trkpt lat="47.50922" lon="-2.61121">
        <ele>53</ele>
        <time>2025-05-13T08:23:51Z</time>
      </trkpt>
      <trkpt lat="47.50918" lon="-2.61125">
        <ele>53</ele>
        <time>2025-05-13T08:23:52Z</time>
      </trkpt>
      <trkpt lat="47.50914" lon="-2.6113">
        <ele>53</ele>
        <time>2025-05-13T08:23:53Z</time>
      </trkpt>
      <trkpt lat="47.50911" lon="-2.61134">
        <ele>53</ele>
        <time>2025-05-13T08:23:54Z</time>
      </trkpt>
      <trkpt lat="47.50907" lon="-2.61139">
        <ele>53</ele>
        <time>2025-05-13T08:23:55Z</time>
      </trkpt>
      <trkpt lat="47.50904" lon="-2.61145">
        <ele>53</ele>
        <time>2025-05-13T08:23:56Z</time>
      </trkpt>
      <trkpt lat="47.50901" lon="-2.6115">
        <ele>53</ele>
        <time>2025-05-13T08:23:57Z</time>
      </trkpt>
      <trkpt lat="47.50898" lon="-2.61156">
        <ele>53</ele>
        <time>2025-05-13T08:23:58Z</time>
      </trkpt>
      <trkpt lat="47.50895" lon="-2.61162">
        <ele>53</ele>
        <time>2025-05-13T08:23:59Z</time>
      </trkpt>
      <trkpt lat="47.50893" lon="-2.61167">
        <ele>53</ele>
        <time>2025-05-13T08:24:00Z</time>
      </trkpt>
      <trkpt lat="47.50889" lon="-2.61173">
        <ele>53</ele>
        <time>2025-05-13T08:24:01Z</time>
      </trkpt>
      <trkpt lat="47.50886" lon="-2.61178">
        <ele>53</ele>
        <time>2025-05-13T08:24:02Z</time>
      </trkpt>
      <trkpt lat="47.50883" lon="-2.61184">
        <ele>53</ele>
        <time>2025-05-13T08:24:03Z</time>
      </trkpt>
      <trkpt lat="47.50881" lon="-2.6119">
        <ele>53</ele>
        <time>2025-05-13T08:24:04Z</time>
      </trkpt>
      <trkpt lat="47.50878" lon="-2.61196">
        <ele>53</ele>
        <time>2025-05-13T08:24:05Z</time>
      </trkpt>
      <trkpt lat="47.50875" lon="-2.61202">
        <ele>53</ele>
        <time>2025-05-13T08:24:06Z</time>
      </trkpt>
      <trkpt lat="47.50873" lon="-2.61208">
        <ele>53</ele>
        <time>2025-05-13T08:24:07Z</time>
      </trkpt>
      <trkpt lat="47.5087" lon="-2.61214">
        <ele>53</ele>
        <time>2025-05-13T08:24:08Z</time>
      </trkpt>
      <trkpt lat="47.50867" lon="-2.6122">
        <ele>53</ele>
        <time>2025-05-13T08:24:09Z</time>
      </trkpt>
      <trkpt lat="47.50865" lon="-2.61227">
        <ele>53</ele>
        <time>2025-05-13T08:24:10Z</time>
      </trkpt>
      <trkpt lat="47.50863" lon="-2.61233">
        <ele>53</ele>
        <time>2025-05-13T08:24:11Z</time>
      </trkpt>
      <trkpt lat="47.50861" lon="-2.6124">
        <ele>53</ele>
        <time>2025-05-13T08:24:12Z</time>
      </trkpt>
      <trkpt lat="47.5086" lon="-2.61247">
        <ele>53</ele>
        <time>2025-05-13T08:24:13Z</time>
      </trkpt>
      <trkpt lat="47.50858" lon="-2.61254">
        <ele>53</ele>
        <time>2025-05-13T08:24:14Z</time>
      </trkpt>
      <trkpt lat="47.50857" lon="-2.61261">
        <ele>53</ele>
        <time>2025-05-13T08:24:15Z</time>
      </trkpt>
      <trkpt lat="47.50856" lon="-2.61268">
        <ele>54</ele>
        <time>2025-05-13T08:24:16Z</time>
      </trkpt>
      <trkpt lat="47.50855" lon="-2.61275">
        <ele>54</ele>
        <time>2025-05-13T08:24:17Z</time>
      </trkpt>
      <trkpt lat="47.50854" lon="-2.61283">
        <ele>54</ele>
        <time>2025-05-13T08:24:18Z</time>
      </trkpt>
      <trkpt lat="47.50854" lon="-2.6129">
        <ele>54</ele>
        <time>2025-05-13T08:24:19Z</time>
      </trkpt>
      <trkpt lat="47.50853" lon="-2.61297">
        <ele>54</ele>
        <time>2025-05-13T08:24:20Z</time>
      </trkpt>
      <trkpt lat="47.50853" lon="-2.61305">
        <ele>54</ele>
        <time>2025-05-13T08:24:21Z</time>
      </trkpt>
      <trkpt lat="47.50853" lon="-2.61313">
        <ele>54</ele>
        <time>2025-05-13T08:24:22Z</time>
      </trkpt>
      <trkpt lat="47.50854" lon="-2.6132">
        <ele>54</ele>
        <time>2025-05-13T08:24:23Z</time>
      </trkpt>
      <trkpt lat="47.50855" lon="-2.61327">
        <ele>54</ele>
        <time>2025-05-13T08:24:24Z</time>
      </trkpt>
      <trkpt lat="47.50856" lon="-2.61335">
        <ele>54</ele>
        <time>2025-05-13T08:24:25Z</time>
      </trkpt>
      <trkpt lat="47.50857" lon="-2.61342">
        <ele>54</ele>
        <time>2025-05-13T08:24:26Z</time>
      </trkpt>
      <trkpt lat="47.50859" lon="-2.61349">
        <ele>54</ele>
        <time>2025-05-13T08:24:27Z</time>
      </trkpt>
      <trkpt lat="47.50861" lon="-2.61356">
        <ele>54</ele>
        <time>2025-05-13T08:24:28Z</time>
      </trkpt>
      <trkpt lat="47.50862" lon="-2.61363">
        <ele>54</ele>
        <time>2025-05-13T08:24:29Z</time>
      </trkpt>
      <trkpt lat="47.50864" lon="-2.6137">
        <ele>54</ele>
        <time>2025-05-13T08:24:30Z</time>
      </trkpt>
      <trkpt lat="47.50866" lon="-2.61377">
        <ele>54</ele>
        <time>2025-05-13T08:24:31Z</time>
      </trkpt>
      <trkpt lat="47.50867" lon="-2.61384">
        <ele>54</ele>
        <time>2025-05-13T08:24:32Z</time>
      </trkpt>
      <trkpt lat="47.50869" lon="-2.61391">
        <ele>54</ele>
        <time>2025-05-13T08:24:33Z</time>
      </trkpt>
      <trkpt lat="47.5087" lon="-2.61397">
        <ele>54</ele>
        <time>2025-05-13T08:24:34Z</time>
      </trkpt>
      <trkpt lat="47.50871" lon="-2.61404">
        <ele>54</ele>
        <time>2025-05-13T08:24:35Z</time>
      </trkpt>
      <trkpt lat="47.50873" lon="-2.6141">
        <ele>54</ele>
        <time>2025-05-13T08:24:36Z</time>
      </trkpt>
      <trkpt lat="47.50874" lon="-2.61416">
        <ele>54</ele>
        <time>2025-05-13T08:24:37Z</time>
      </trkpt>
      <trkpt lat="47.50875" lon="-2.61422">
        <ele>54</ele>
        <time>2025-05-13T08:24:38Z</time>
      </trkpt>
      <trkpt lat="47.50877" lon="-2.61428">
        <ele>54</ele>
        <time>2025-05-13T08:24:39Z</time>
      </trkpt>
      <trkpt lat="47.50878" lon="-2.61434">
        <ele>54</ele>
        <time>2025-05-13T08:24:40Z</time>
      </trkpt>
      <trkpt lat="47.5088" lon="-2.6144">
        <ele>54</ele>
        <time>2025-05-13T08:24:41Z</time>
      </trkpt>
      <trkpt lat="47.50881" lon="-2.61446">
        <ele>54</ele>
        <time>2025-05-13T08:24:42Z</time>
      </trkpt>
      <trkpt lat="47.50882" lon="-2.61452">
        <ele>54</ele>
        <time>2025-05-13T08:24:43Z</time>
      </trkpt>
      <trkpt lat="47.50884" lon="-2.61458">
        <ele>54</ele>
        <time>2025-05-13T08:24:44Z</time>
      </trkpt>
      <trkpt lat="47.50885" lon="-2.61464">
        <ele>54</ele>
        <time>2025-05-13T08:24:45Z</time>
      </trkpt>
      <trkpt lat="47.50887" lon="-2.6147">
        <ele>54</ele>
        <time>2025-05-13T08:24:46Z</time>
      </trkpt>
      <trkpt lat="47.50888" lon="-2.61476">
        <ele>54</ele>
        <time>2025-05-13T08:24:47Z</time>
      </trkpt>
      <trkpt lat="47.5089" lon="-2.61482">
        <ele>54</ele>
        <time>2025-05-13T08:24:48Z</time>
      </trkpt>
      <trkpt lat="47.50891" lon="-2.61487">
        <ele>54</ele>
        <time>2025-05-13T08:24:49Z</time>
      </trkpt>
      <trkpt lat="47.50892" lon="-2.61493">
        <ele>54</ele>
        <time>2025-05-13T08:24:50Z</time>
      </trkpt>
      <trkpt lat="47.50894" lon="-2.61499">
        <ele>55</ele>
        <time>2025-05-13T08:24:51Z</time>
      </trkpt>
      <trkpt lat="47.50896" lon="-2.61505">
        <ele>55</ele>
        <time>2025-05-13T08:24:52Z</time>
      </trkpt>
      <trkpt lat="47.50898" lon="-2.61511">
        <ele>55</ele>
        <time>2025-05-13T08:24:53Z</time>
      </trkpt>
      <trkpt lat="47.509" lon="-2.61517">
        <ele>55</ele>
        <time>2025-05-13T08:24:54Z</time>
      </trkpt>
      <trkpt lat="47.50902" lon="-2.61523">
        <ele>55</ele>
        <time>2025-05-13T08:24:55Z</time>
      </trkpt>
      <trkpt lat="47.50904" lon="-2.61529">
        <ele>55</ele>
        <time>2025-05-13T08:24:56Z</time>
      </trkpt>
      <trkpt lat="47.50907" lon="-2.61535">
        <ele>55</ele>
        <time>2025-05-13T08:24:57Z</time>
      </trkpt>
      <trkpt lat="47.50909" lon="-2.6154">
        <ele>55</ele>
        <time>2025-05-13T08:24:58Z</time>
      </trkpt>
      <trkpt lat="47.50911" lon="-2.61546">
        <ele>55</ele>
        <time>2025-05-13T08:24:59Z</time>
      </trkpt>
      <trkpt lat="47.50913" lon="-2.61552">
        <ele>55</ele>
        <time>2025-05-13T08:25:00Z</time>
      </trkpt>
      <trkpt lat="47.50915" lon="-2.61557">
        <ele>55</ele>
        <time>2025-05-13T08:25:01Z</time>
      </trkpt>
      <trkpt lat="47.50918" lon="-2.61562">
        <ele>55</ele>
        <time>2025-05-13T08:25:02Z</time>
      </trkpt>
      <trkpt lat="47.50921" lon="-2.61568">
        <ele>55</ele>
        <time>2025-05-13T08:25:03Z</time>
      </trkpt>
      <trkpt lat="47.50923" lon="-2.61573">
        <ele>56</ele>
        <time>2025-05-13T08:25:04Z</time>
      </trkpt>
      <trkpt lat="47.50926" lon="-2.61577">
        <ele>56</ele>
        <time>2025-05-13T08:25:05Z</time>
      </trkpt>
      <trkpt lat="47.50929" lon="-2.61582">
        <ele>56</ele>
        <time>2025-05-13T08:25:06Z</time>
      </trkpt>
      <trkpt lat="47.50932" lon="-2.61587">
        <ele>56</ele>
        <time>2025-05-13T08:25:07Z</time>
      </trkpt>
      <trkpt lat="47.50935" lon="-2.61593">
        <ele>56</ele>
        <time>2025-05-13T08:25:08Z</time>
      </trkpt>
      <trkpt lat="47.50939" lon="-2.61598">
        <ele>55</ele>
        <time>2025-05-13T08:25:09Z</time>
      </trkpt>
      <trkpt lat="47.50942" lon="-2.61604">
        <ele>55</ele>
        <time>2025-05-13T08:25:10Z</time>
      </trkpt>
      <trkpt lat="47.50945" lon="-2.61609">
        <ele>55</ele>
        <time>2025-05-13T08:25:11Z</time>
      </trkpt>
      <trkpt lat="47.50948" lon="-2.61615">
        <ele>55</ele>
        <time>2025-05-13T08:25:12Z</time>
      </trkpt>
      <trkpt lat="47.50951" lon="-2.61621">
        <ele>55</ele>
        <time>2025-05-13T08:25:13Z</time>
      </trkpt>
      <trkpt lat="47.50953" lon="-2.61627">
        <ele>54</ele>
        <time>2025-05-13T08:25:14Z</time>
      </trkpt>
      <trkpt lat="47.50956" lon="-2.61633">
        <ele>54</ele>
        <time>2025-05-13T08:25:15Z</time>
      </trkpt>
      <trkpt lat="47.50959" lon="-2.6164">
        <ele>54</ele>
        <time>2025-05-13T08:25:16Z</time>
      </trkpt>
      <trkpt lat="47.50962" lon="-2.61647">
        <ele>54</ele>
        <time>2025-05-13T08:25:17Z</time>
      </trkpt>
      <trkpt lat="47.50964" lon="-2.61654">
        <ele>55</ele>
        <time>2025-05-13T08:25:18Z</time>
      </trkpt>
      <trkpt lat="47.50967" lon="-2.61661">
        <ele>55</ele>
        <time>2025-05-13T08:25:19Z</time>
      </trkpt>
      <trkpt lat="47.5097" lon="-2.61668">
        <ele>55</ele>
        <time>2025-05-13T08:25:20Z</time>
      </trkpt>
      <trkpt lat="47.50973" lon="-2.61676">
        <ele>55</ele>
        <time>2025-05-13T08:25:21Z</time>
      </trkpt>
      <trkpt lat="47.50975" lon="-2.61683">
        <ele>55</ele>
        <time>2025-05-13T08:25:22Z</time>
      </trkpt>
      <trkpt lat="47.50978" lon="-2.6169">
        <ele>55</ele>
        <time>2025-05-13T08:25:23Z</time>
      </trkpt>
      <trkpt lat="47.5098" lon="-2.61697">
        <ele>55</ele>
        <time>2025-05-13T08:25:24Z</time>
      </trkpt>
      <trkpt lat="47.50982" lon="-2.61705">
        <ele>55</ele>
        <time>2025-05-13T08:25:25Z</time>
      </trkpt>
      <trkpt lat="47.50984" lon="-2.61712">
        <ele>55</ele>
        <time>2025-05-13T08:25:26Z</time>
      </trkpt>
      <trkpt lat="47.50986" lon="-2.6172">
        <ele>55</ele>
        <time>2025-05-13T08:25:27Z</time>
      </trkpt>
      <trkpt lat="47.50987" lon="-2.61728">
        <ele>55</ele>
        <time>2025-05-13T08:25:28Z</time>
      </trkpt>
      <trkpt lat="47.50989" lon="-2.61736">
        <ele>55</ele>
        <time>2025-05-13T08:25:29Z</time>
      </trkpt>
      <trkpt lat="47.5099" lon="-2.61744">
        <ele>55</ele>
        <time>2025-05-13T08:25:30Z</time>
      </trkpt>
      <trkpt lat="47.50992" lon="-2.61751">
        <ele>55</ele>
        <time>2025-05-13T08:25:31Z</time>
      </trkpt>
      <trkpt lat="47.50995" lon="-2.61758">
        <ele>55</ele>
        <time>2025-05-13T08:25:32Z</time>
      </trkpt>
      <trkpt lat="47.50997" lon="-2.61766">
        <ele>54</ele>
        <time>2025-05-13T08:25:33Z</time>
      </trkpt>
      <trkpt lat="47.51" lon="-2.61773">
        <ele>54</ele>
        <time>2025-05-13T08:25:34Z</time>
      </trkpt>
      <trkpt lat="47.51002" lon="-2.6178">
        <ele>54</ele>
        <time>2025-05-13T08:25:35Z</time>
      </trkpt>
      <trkpt lat="47.51005" lon="-2.61787">
        <ele>54</ele>
        <time>2025-05-13T08:25:36Z</time>
      </trkpt>
      <trkpt lat="47.51008" lon="-2.61794">
        <ele>54</ele>
        <time>2025-05-13T08:25:37Z</time>
      </trkpt>
      <trkpt lat="47.51011" lon="-2.618">
        <ele>54</ele>
        <time>2025-05-13T08:25:38Z</time>
      </trkpt>
      <trkpt lat="47.51014" lon="-2.61807">
        <ele>54</ele>
        <time>2025-05-13T08:25:39Z</time>
      </trkpt>
      <trkpt lat="47.51017" lon="-2.61813">
        <ele>54</ele>
        <time>2025-05-13T08:25:40Z</time>
      </trkpt>
      <trkpt lat="47.5102" lon="-2.61819">
        <ele>54</ele>
        <time>2025-05-13T08:25:41Z</time>
      </trkpt>
      <trkpt lat="47.51023" lon="-2.61825">
        <ele>54</ele>
        <time>2025-05-13T08:25:42Z</time>
      </trkpt>
      <trkpt lat="47.51026" lon="-2.61832">
        <ele>54</ele>
        <time>2025-05-13T08:25:43Z</time>
      </trkpt>
      <trkpt lat="47.51029" lon="-2.61838">
        <ele>54</ele>
        <time>2025-05-13T08:25:44Z</time>
      </trkpt>
      <trkpt lat="47.51033" lon="-2.61844">
        <ele>54</ele>
        <time>2025-05-13T08:25:45Z</time>
      </trkpt>
      <trkpt lat="47.51036" lon="-2.6185">
        <ele>54</ele>
        <time>2025-05-13T08:25:46Z</time>
      </trkpt>
      <trkpt lat="47.51038" lon="-2.61856">
        <ele>54</ele>
        <time>2025-05-13T08:25:47Z</time>
      </trkpt>
      <trkpt lat="47.51041" lon="-2.61862">
        <ele>55</ele>
        <time>2025-05-13T08:25:48Z</time>
      </trkpt>
      <trkpt lat="47.51044" lon="-2.61869">
        <ele>56</ele>
        <time>2025-05-13T08:25:49Z</time>
      </trkpt>
      <trkpt lat="47.51047" lon="-2.61875">
        <ele>56</ele>
        <time>2025-05-13T08:25:50Z</time>
      </trkpt>
      <trkpt lat="47.5105" lon="-2.61882">
        <ele>56</ele>
        <time>2025-05-13T08:25:51Z</time>
      </trkpt>
      <trkpt lat="47.51053" lon="-2.61889">
        <ele>56</ele>
        <time>2025-05-13T08:25:52Z</time>
      </trkpt>
      <trkpt lat="47.51055" lon="-2.61895">
        <ele>55</ele>
        <time>2025-05-13T08:25:53Z</time>
      </trkpt>
      <trkpt lat="47.51058" lon="-2.61902">
        <ele>55</ele>
        <time>2025-05-13T08:25:54Z</time>
      </trkpt>
      <trkpt lat="47.51061" lon="-2.61909">
        <ele>54</ele>
        <time>2025-05-13T08:25:55Z</time>
      </trkpt>
      <trkpt lat="47.51064" lon="-2.61915">
        <ele>54</ele>
        <time>2025-05-13T08:25:56Z</time>
      </trkpt>
      <trkpt lat="47.51067" lon="-2.61921">
        <ele>54</ele>
        <time>2025-05-13T08:25:57Z</time>
      </trkpt>
      <trkpt lat="47.51069" lon="-2.61928">
        <ele>53</ele>
        <time>2025-05-13T08:25:58Z</time>
      </trkpt>
      <trkpt lat="47.51072" lon="-2.61934">
        <ele>53</ele>
        <time>2025-05-13T08:25:59Z</time>
      </trkpt>
      <trkpt lat="47.51075" lon="-2.6194">
        <ele>54</ele>
        <time>2025-05-13T08:26:00Z</time>
      </trkpt>
      <trkpt lat="47.51078" lon="-2.61946">
        <ele>54</ele>
        <time>2025-05-13T08:26:01Z</time>
      </trkpt>
      <trkpt lat="47.5108" lon="-2.61952">
        <ele>54</ele>
        <time>2025-05-13T08:26:02Z</time>
      </trkpt>
      <trkpt lat="47.51082" lon="-2.61958">
        <ele>54</ele>
        <time>2025-05-13T08:26:03Z</time>
      </trkpt>
      <trkpt lat="47.51083" lon="-2.61965">
        <ele>53</ele>
        <time>2025-05-13T08:26:04Z</time>
      </trkpt>
      <trkpt lat="47.51084" lon="-2.61971">
        <ele>53</ele>
        <time>2025-05-13T08:26:05Z</time>
      </trkpt>
      <trkpt lat="47.51086" lon="-2.61976">
        <ele>54</ele>
        <time>2025-05-13T08:26:06Z</time>
      </trkpt>
      <trkpt lat="47.51087" lon="-2.61982">
        <ele>54</ele>
        <time>2025-05-13T08:26:07Z</time>
      </trkpt>
      <trkpt lat="47.51088" lon="-2.61988">
        <ele>54</ele>
        <time>2025-05-13T08:26:08Z</time>
      </trkpt>
      <trkpt lat="47.51089" lon="-2.61994">
        <ele>54</ele>
        <time>2025-05-13T08:26:09Z</time>
      </trkpt>
      <trkpt lat="47.5109" lon="-2.62001">
        <ele>54</ele>
        <time>2025-05-13T08:26:10Z</time>
      </trkpt>
      <trkpt lat="47.51092" lon="-2.62007">
        <ele>54</ele>
        <time>2025-05-13T08:26:11Z</time>
      </trkpt>
      <trkpt lat="47.51093" lon="-2.62014">
        <ele>55</ele>
        <time>2025-05-13T08:26:12Z</time>
      </trkpt>
      <trkpt lat="47.51095" lon="-2.62021">
        <ele>55</ele>
        <time>2025-05-13T08:26:13Z</time>
      </trkpt>
      <trkpt lat="47.51096" lon="-2.62028">
        <ele>55</ele>
        <time>2025-05-13T08:26:14Z</time>
      </trkpt>
      <trkpt lat="47.51097" lon="-2.62034">
        <ele>56</ele>
        <time>2025-05-13T08:26:15Z</time>
      </trkpt>
      <trkpt lat="47.51098" lon="-2.62041">
        <ele>56</ele>
        <time>2025-05-13T08:26:16Z</time>
      </trkpt>
      <trkpt lat="47.51099" lon="-2.62048">
        <ele>56</ele>
        <time>2025-05-13T08:26:17Z</time>
      </trkpt>
      <trkpt lat="47.51101" lon="-2.62055">
        <ele>56</ele>
        <time>2025-05-13T08:26:18Z</time>
      </trkpt>
      <trkpt lat="47.51103" lon="-2.62062">
        <ele>56</ele>
        <time>2025-05-13T08:26:19Z</time>
      </trkpt>
      <trkpt lat="47.51104" lon="-2.62069">
        <ele>56</ele>
        <time>2025-05-13T08:26:20Z</time>
      </trkpt>
      <trkpt lat="47.51106" lon="-2.62076">
        <ele>56</ele>
        <time>2025-05-13T08:26:21Z</time>
      </trkpt>
      <trkpt lat="47.51107" lon="-2.62083">
        <ele>57</ele>
        <time>2025-05-13T08:26:22Z</time>
      </trkpt>
      <trkpt lat="47.51108" lon="-2.62089">
        <ele>57</ele>
        <time>2025-05-13T08:26:23Z</time>
      </trkpt>
      <trkpt lat="47.5111" lon="-2.62096">
        <ele>57</ele>
        <time>2025-05-13T08:26:24Z</time>
      </trkpt>
      <trkpt lat="47.51111" lon="-2.62103">
        <ele>57</ele>
        <time>2025-05-13T08:26:25Z</time>
      </trkpt>
      <trkpt lat="47.51112" lon="-2.6211">
        <ele>57</ele>
        <time>2025-05-13T08:26:26Z</time>
      </trkpt>
      <trkpt lat="47.51114" lon="-2.62116">
        <ele>57</ele>
        <time>2025-05-13T08:26:27Z</time>
      </trkpt>
      <trkpt lat="47.51115" lon="-2.62123">
        <ele>57</ele>
        <time>2025-05-13T08:26:28Z</time>
      </trkpt>
      <trkpt lat="47.51117" lon="-2.6213">
        <ele>57</ele>
        <time>2025-05-13T08:26:29Z</time>
      </trkpt>
      <trkpt lat="47.51119" lon="-2.62136">
        <ele>57</ele>
        <time>2025-05-13T08:26:30Z</time>
      </trkpt>
      <trkpt lat="47.51121" lon="-2.62143">
        <ele>57</ele>
        <time>2025-05-13T08:26:31Z</time>
      </trkpt>
      <trkpt lat="47.51123" lon="-2.6215">
        <ele>57</ele>
        <time>2025-05-13T08:26:32Z</time>
      </trkpt>
      <trkpt lat="47.51125" lon="-2.62156">
        <ele>57</ele>
        <time>2025-05-13T08:26:33Z</time>
      </trkpt>
      <trkpt lat="47.51127" lon="-2.62162">
        <ele>57</ele>
        <time>2025-05-13T08:26:34Z</time>
      </trkpt>
      <trkpt lat="47.5113" lon="-2.62169">
        <ele>57</ele>
        <time>2025-05-13T08:26:35Z</time>
      </trkpt>
      <trkpt lat="47.51132" lon="-2.62175">
        <ele>58</ele>
        <time>2025-05-13T08:26:36Z</time>
      </trkpt>
      <trkpt lat="47.51135" lon="-2.62181">
        <ele>58</ele>
        <time>2025-05-13T08:26:37Z</time>
      </trkpt>
      <trkpt lat="47.51137" lon="-2.62186">
        <ele>58</ele>
        <time>2025-05-13T08:26:38Z</time>
      </trkpt>
      <trkpt lat="47.51141" lon="-2.62192">
        <ele>58</ele>
        <time>2025-05-13T08:26:39Z</time>
      </trkpt>
      <trkpt lat="47.51143" lon="-2.62198">
        <ele>58</ele>
        <time>2025-05-13T08:26:40Z</time>
      </trkpt>
      <trkpt lat="47.51146" lon="-2.62203">
        <ele>59</ele>
        <time>2025-05-13T08:26:41Z</time>
      </trkpt>
      <trkpt lat="47.51149" lon="-2.62209">
        <ele>59</ele>
        <time>2025-05-13T08:26:42Z</time>
      </trkpt>
      <trkpt lat="47.51153" lon="-2.62214">
        <ele>59</ele>
        <time>2025-05-13T08:26:43Z</time>
      </trkpt>
      <trkpt lat="47.51156" lon="-2.62219">
        <ele>58</ele>
        <time>2025-05-13T08:26:44Z</time>
      </trkpt>
      <trkpt lat="47.51159" lon="-2.62224">
        <ele>58</ele>
        <time>2025-05-13T08:26:45Z</time>
      </trkpt>
      <trkpt lat="47.51163" lon="-2.62228">
        <ele>58</ele>
        <time>2025-05-13T08:26:46Z</time>
      </trkpt>
      <trkpt lat="47.51166" lon="-2.62233">
        <ele>58</ele>
        <time>2025-05-13T08:26:47Z</time>
      </trkpt>
      <trkpt lat="47.5117" lon="-2.62237">
        <ele>57</ele>
        <time>2025-05-13T08:26:48Z</time>
      </trkpt>
      <trkpt lat="47.51173" lon="-2.62242">
        <ele>57</ele>
        <time>2025-05-13T08:26:49Z</time>
      </trkpt>
      <trkpt lat="47.51177" lon="-2.62246">
        <ele>57</ele>
        <time>2025-05-13T08:26:50Z</time>
      </trkpt>
      <trkpt lat="47.51181" lon="-2.6225">
        <ele>57</ele>
        <time>2025-05-13T08:26:51Z</time>
      </trkpt>
      <trkpt lat="47.51185" lon="-2.62253">
        <ele>57</ele>
        <time>2025-05-13T08:26:52Z</time>
      </trkpt>
      <trkpt lat="47.51189" lon="-2.62257">
        <ele>58</ele>
        <time>2025-05-13T08:26:53Z</time>
      </trkpt>
      <trkpt lat="47.51193" lon="-2.62259">
        <ele>58</ele>
        <time>2025-05-13T08:26:54Z</time>
      </trkpt>
      <trkpt lat="47.51198" lon="-2.62261">
        <ele>58</ele>
        <time>2025-05-13T08:26:55Z</time>
      </trkpt>
      <trkpt lat="47.51202" lon="-2.62263">
        <ele>58</ele>
        <time>2025-05-13T08:26:56Z</time>
      </trkpt>
      <trkpt lat="47.51206" lon="-2.62264">
        <ele>58</ele>
        <time>2025-05-13T08:26:57Z</time>
      </trkpt>
      <trkpt lat="47.51211" lon="-2.62263">
        <ele>59</ele>
        <time>2025-05-13T08:26:58Z</time>
      </trkpt>
      <trkpt lat="47.51215" lon="-2.62262">
        <ele>59</ele>
        <time>2025-05-13T08:26:59Z</time>
      </trkpt>
      <trkpt lat="47.51219" lon="-2.62263">
        <ele>59</ele>
        <time>2025-05-13T08:27:00Z</time>
      </trkpt>
      <trkpt lat="47.51223" lon="-2.62264">
        <ele>59</ele>
        <time>2025-05-13T08:27:01Z</time>
      </trkpt>
      <trkpt lat="47.51226" lon="-2.62267">
        <ele>59</ele>
        <time>2025-05-13T08:27:02Z</time>
      </trkpt>
      <trkpt lat="47.51228" lon="-2.62272">
        <ele>58</ele>
        <time>2025-05-13T08:27:03Z</time>
      </trkpt>
      <trkpt lat="47.5123" lon="-2.62276">
        <ele>58</ele>
        <time>2025-05-13T08:27:04Z</time>
      </trkpt>
      <trkpt lat="47.51232" lon="-2.62279">
        <ele>58</ele>
        <time>2025-05-13T08:27:05Z</time>
      </trkpt>
      <trkpt lat="47.51234" lon="-2.62283">
        <ele>58</ele>
        <time>2025-05-13T08:27:06Z</time>
      </trkpt>
      <trkpt lat="47.51237" lon="-2.62285">
        <ele>58</ele>
        <time>2025-05-13T08:27:07Z</time>
      </trkpt>
      <trkpt lat="47.51239" lon="-2.62288">
        <ele>58</ele>
        <time>2025-05-13T08:27:08Z</time>
      </trkpt>
      <trkpt lat="47.51242" lon="-2.62289">
        <ele>58</ele>
        <time>2025-05-13T08:27:09Z</time>
      </trkpt>
      <trkpt lat="47.51246" lon="-2.62289">
        <ele>58</ele>
        <time>2025-05-13T08:27:10Z</time>
      </trkpt>
      <trkpt lat="47.51249" lon="-2.62291">
        <ele>58</ele>
        <time>2025-05-13T08:27:11Z</time>
      </trkpt>
      <trkpt lat="47.51252" lon="-2.62292">
        <ele>58</ele>
        <time>2025-05-13T08:27:12Z</time>
      </trkpt>
      <trkpt lat="47.51255" lon="-2.62292">
        <ele>57</ele>
        <time>2025-05-13T08:27:13Z</time>
      </trkpt>
      <trkpt lat="47.51259" lon="-2.62292">
        <ele>57</ele>
        <time>2025-05-13T08:27:14Z</time>
      </trkpt>
      <trkpt lat="47.51262" lon="-2.62292">
        <ele>57</ele>
        <time>2025-05-13T08:27:15Z</time>
      </trkpt>
      <trkpt lat="47.51266" lon="-2.62292">
        <ele>56</ele>
        <time>2025-05-13T08:27:16Z</time>
      </trkpt>
      <trkpt lat="47.5127" lon="-2.62292">
        <ele>55</ele>
        <time>2025-05-13T08:27:17Z</time>
      </trkpt>
      <trkpt lat="47.51274" lon="-2.62292">
        <ele>55</ele>
        <time>2025-05-13T08:27:18Z</time>
      </trkpt>
      <trkpt lat="47.51278" lon="-2.62291">
        <ele>56</ele>
        <time>2025-05-13T08:27:19Z</time>
      </trkpt>
      <trkpt lat="47.51283" lon="-2.6229">
        <ele>56</ele>
        <time>2025-05-13T08:27:20Z</time>
      </trkpt>
      <trkpt lat="47.51287" lon="-2.62288">
        <ele>57</ele>
        <time>2025-05-13T08:27:21Z</time>
      </trkpt>
      <trkpt lat="47.51291" lon="-2.62288">
        <ele>57</ele>
        <time>2025-05-13T08:27:22Z</time>
      </trkpt>
      <trkpt lat="47.51294" lon="-2.62288">
        <ele>57</ele>
        <time>2025-05-13T08:27:23Z</time>
      </trkpt>
      <trkpt lat="47.51298" lon="-2.62288">
        <ele>57</ele>
        <time>2025-05-13T08:27:24Z</time>
      </trkpt>
      <trkpt lat="47.51302" lon="-2.62289">
        <ele>58</ele>
        <time>2025-05-13T08:27:25Z</time>
      </trkpt>
      <trkpt lat="47.51306" lon="-2.6229">
        <ele>58</ele>
        <time>2025-05-13T08:27:26Z</time>
      </trkpt>
      <trkpt lat="47.5131" lon="-2.62291">
        <ele>57</ele>
        <time>2025-05-13T08:27:27Z</time>
      </trkpt>
      <trkpt lat="47.51313" lon="-2.62293">
        <ele>57</ele>
        <time>2025-05-13T08:27:28Z</time>
      </trkpt>
      <trkpt lat="47.51317" lon="-2.62295">
        <ele>57</ele>
        <time>2025-05-13T08:27:29Z</time>
      </trkpt>
      <trkpt lat="47.5132" lon="-2.62296">
        <ele>56</ele>
        <time>2025-05-13T08:27:30Z</time>
      </trkpt>
      <trkpt lat="47.51325" lon="-2.62299">
        <ele>57</ele>
        <time>2025-05-13T08:27:31Z</time>
      </trkpt>
      <trkpt lat="47.51328" lon="-2.623">
        <ele>57</ele>
        <time>2025-05-13T08:27:32Z</time>
      </trkpt>
      <trkpt lat="47.51332" lon="-2.623">
        <ele>57</ele>
        <time>2025-05-13T08:27:33Z</time>
      </trkpt>
      <trkpt lat="47.51335" lon="-2.62299">
        <ele>57</ele>
        <time>2025-05-13T08:27:34Z</time>
      </trkpt>
      <trkpt lat="47.51338" lon="-2.62299">
        <ele>57</ele>
        <time>2025-05-13T08:27:35Z</time>
      </trkpt>
      <trkpt lat="47.51342" lon="-2.62299">
        <ele>57</ele>
        <time>2025-05-13T08:27:36Z</time>
      </trkpt>
      <trkpt lat="47.51345" lon="-2.62298">
        <ele>57</ele>
        <time>2025-05-13T08:27:37Z</time>
      </trkpt>
      <trkpt lat="47.51349" lon="-2.62297">
        <ele>57</ele>
        <time>2025-05-13T08:27:38Z</time>
      </trkpt>
      <trkpt lat="47.51353" lon="-2.62296">
        <ele>57</ele>
        <time>2025-05-13T08:27:39Z</time>
      </trkpt>
      <trkpt lat="47.51357" lon="-2.62296">
        <ele>57</ele>
        <time>2025-05-13T08:27:40Z</time>
      </trkpt>
      <trkpt lat="47.51361" lon="-2.62296">
        <ele>57</ele>
        <time>2025-05-13T08:27:41Z</time>
      </trkpt>
      <trkpt lat="47.51364" lon="-2.62295">
        <ele>57</ele>
        <time>2025-05-13T08:27:42Z</time>
      </trkpt>
      <trkpt lat="47.51367" lon="-2.62295">
        <ele>58</ele>
        <time>2025-05-13T08:27:43Z</time>
      </trkpt>
      <trkpt lat="47.5137" lon="-2.62295">
        <ele>58</ele>
        <time>2025-05-13T08:27:44Z</time>
      </trkpt>
      <trkpt lat="47.51373" lon="-2.62295">
        <ele>59</ele>
        <time>2025-05-13T08:27:45Z</time>
      </trkpt>
      <trkpt lat="47.51376" lon="-2.62297">
        <ele>59</ele>
        <time>2025-05-13T08:27:46Z</time>
      </trkpt>
      <trkpt lat="47.51378" lon="-2.62299">
        <ele>59</ele>
        <time>2025-05-13T08:27:47Z</time>
      </trkpt>
      <trkpt lat="47.51379" lon="-2.62302">
        <ele>59</ele>
        <time>2025-05-13T08:27:48Z</time>
      </trkpt>
      <trkpt lat="47.5138" lon="-2.62305">
        <ele>59</ele>
        <time>2025-05-13T08:27:49Z</time>
      </trkpt>
      <trkpt lat="47.51381" lon="-2.62309">
        <ele>59</ele>
        <time>2025-05-13T08:27:50Z</time>
      </trkpt>
      <trkpt lat="47.51382" lon="-2.62312">
        <ele>58</ele>
        <time>2025-05-13T08:27:51Z</time>
      </trkpt>
      <trkpt lat="47.51382" lon="-2.62315">
        <ele>58</ele>
        <time>2025-05-13T08:27:52Z</time>
      </trkpt>
      <trkpt lat="47.51381" lon="-2.62317">
        <ele>58</ele>
        <time>2025-05-13T08:27:53Z</time>
      </trkpt>
      <trkpt lat="47.51381" lon="-2.6232">
        <ele>58</ele>
        <time>2025-05-13T08:27:54Z</time>
      </trkpt>
      <trkpt lat="47.51381" lon="-2.62322">
        <ele>58</ele>
        <time>2025-05-13T08:27:55Z</time>
      </trkpt>
      <trkpt lat="47.51381" lon="-2.62325">
        <ele>58</ele>
        <time>2025-05-13T08:27:56Z</time>
      </trkpt>
      <trkpt lat="47.5138" lon="-2.62327">
        <ele>58</ele>
        <time>2025-05-13T08:27:57Z</time>
      </trkpt>
      <trkpt lat="47.5138" lon="-2.62329">
        <ele>57</ele>
        <time>2025-05-13T08:27:58Z</time>
      </trkpt>
      <trkpt lat="47.5138" lon="-2.62332">
        <ele>57</ele>
        <time>2025-05-13T08:27:59Z</time>
      </trkpt>
      <trkpt lat="47.5138" lon="-2.62334">
        <ele>56</ele>
        <time>2025-05-13T08:28:00Z</time>
      </trkpt>
      <trkpt lat="47.5138" lon="-2.62335">
        <ele>56</ele>
        <time>2025-05-13T08:28:01Z</time>
      </trkpt>
      <trkpt lat="47.5138" lon="-2.62336">
        <ele>56</ele>
        <time>2025-05-13T08:28:02Z</time>
      </trkpt>
      <trkpt lat="47.51381" lon="-2.62337">
        <ele>56</ele>
        <time>2025-05-13T08:28:03Z</time>
      </trkpt>
      <trkpt lat="47.51381" lon="-2.62337">
        <ele>56</ele>
        <time>2025-05-13T08:28:04Z</time>
      </trkpt>
      <trkpt lat="47.51382" lon="-2.62337">
        <ele>56</ele>
        <time>2025-05-13T08:28:05Z</time>
      </trkpt>
      <trkpt lat="47.51382" lon="-2.62339">
        <ele>56</ele>
        <time>2025-05-13T08:28:06Z</time>
      </trkpt>
      <trkpt lat="47.51383" lon="-2.6234">
        <ele>56</ele>
        <time>2025-05-13T08:28:07Z</time>
      </trkpt>
      <trkpt lat="47.51384" lon="-2.62341">
        <ele>56</ele>
        <time>2025-05-13T08:28:08Z</time>
      </trkpt>
      <trkpt lat="47.51384" lon="-2.62343">
        <ele>56</ele>
        <time>2025-05-13T08:28:09Z</time>
      </trkpt>
      <trkpt lat="47.51383" lon="-2.62344">
        <ele>56</ele>
        <time>2025-05-13T08:28:10Z</time>
      </trkpt>
      <trkpt lat="47.51381" lon="-2.62343">
        <ele>56</ele>
        <time>2025-05-13T08:28:11Z</time>
      </trkpt>
      <trkpt lat="47.51381" lon="-2.62343">
        <ele>56</ele>
        <time>2025-05-13T08:28:12Z</time>
      </trkpt>
      <trkpt lat="47.5138" lon="-2.62342">
        <ele>56</ele>
        <time>2025-05-13T08:28:13Z</time>
      </trkpt>
      <trkpt lat="47.51379" lon="-2.62342">
        <ele>56</ele>
        <time>2025-05-13T08:28:14Z</time>
      </trkpt>
      <trkpt lat="47.51378" lon="-2.62342">
        <ele>56</ele>
        <time>2025-05-13T08:28:15Z</time>
      </trkpt>
      <trkpt lat="47.51377" lon="-2.62341">
        <ele>57</ele>
        <time>2025-05-13T08:28:16Z</time>
      </trkpt>
      <trkpt lat="47.51376" lon="-2.62341">
        <ele>57</ele>
        <time>2025-05-13T08:28:17Z</time>
      </trkpt>
      <trkpt lat="47.51376" lon="-2.62341">
        <ele>57</ele>
        <time>2025-05-13T08:28:18Z</time>
      </trkpt>
      <trkpt lat="47.51376" lon="-2.62341">
        <ele>58</ele>
        <time>2025-05-13T08:28:19Z</time>
      </trkpt>
      <trkpt lat="47.51376" lon="-2.62341">
        <ele>58</ele>
        <time>2025-05-13T08:28:20Z</time>
      </trkpt>
      <trkpt lat="47.51376" lon="-2.62341">
        <ele>58</ele>
        <time>2025-05-13T08:28:21Z</time>
      </trkpt>
      <trkpt lat="47.51376" lon="-2.62341">
        <ele>58</ele>
        <time>2025-05-13T08:28:22Z</time>
      </trkpt>
      <trkpt lat="47.51376" lon="-2.62341">
        <ele>58</ele>
        <time>2025-05-13T08:28:23Z</time>
      </trkpt>
      <trkpt lat="47.51376" lon="-2.62341">
        <ele>59</ele>
        <time>2025-05-13T08:28:24Z</time>
      </trkpt>
      <trkpt lat="47.51376" lon="-2.62341">
        <ele>59</ele>
        <time>2025-05-13T08:28:25Z</time>
      </trkpt>
      <trkpt lat="47.51376" lon="-2.62341">
        <ele>59</ele>
        <time>2025-05-13T08:28:26Z</time>
      </trkpt>
      <trkpt lat="47.51376" lon="-2.62341">
        <ele>59</ele>
        <time>2025-05-13T08:28:27Z</time>
      </trkpt>
      <trkpt lat="47.51376" lon="-2.62341">
        <ele>59</ele>
        <time>2025-05-13T08:28:28Z</time>
      </trkpt>
      <trkpt lat="47.51376" lon="-2.62341">
        <ele>59</ele>
        <time>2025-05-13T08:28:29Z</time>
      </trkpt>
      <trkpt lat="47.51376" lon="-2.62341">
        <ele>59</ele>
        <time>2025-05-13T08:28:30Z</time>
      </trkpt>
      <trkpt lat="47.51376" lon="-2.62341">
        <ele>59</ele>
        <time>2025-05-13T08:28:31Z</time>
      </trkpt>
      <trkpt lat="47.51376" lon="-2.62341">
        <ele>59</ele>
        <time>2025-05-13T08:28:32Z</time>
      </trkpt>
      <trkpt lat="47.51376" lon="-2.62341">
        <ele>59</ele>
        <time>2025-05-13T08:28:33Z</time>
      </trkpt>
      <trkpt lat="47.51376" lon="-2.62339">
        <ele>60</ele>
        <time>2025-05-13T08:28:34Z</time>
      </trkpt>
      <trkpt lat="47.51377" lon="-2.62339">
        <ele>60</ele>
        <time>2025-05-13T08:28:35Z</time>
      </trkpt>
      <trkpt lat="47.51377" lon="-2.62338">
        <ele>61</ele>
        <time>2025-05-13T08:28:36Z</time>
      </trkpt>
      <trkpt lat="47.51378" lon="-2.62339">
        <ele>61</ele>
        <time>2025-05-13T08:28:37Z</time>
      </trkpt>
      <trkpt lat="47.51379" lon="-2.62338">
        <ele>61</ele>
        <time>2025-05-13T08:28:38Z</time>
      </trkpt>
      <trkpt lat="47.51379" lon="-2.62339">
        <ele>61</ele>
        <time>2025-05-13T08:28:39Z</time>
      </trkpt>
      <trkpt lat="47.51379" lon="-2.62339">
        <ele>61</ele>
        <time>2025-05-13T08:28:40Z</time>
      </trkpt>
      <trkpt lat="47.51379" lon="-2.62339">
        <ele>61</ele>
        <time>2025-05-13T08:28:41Z</time>
      </trkpt>
      <trkpt lat="47.51379" lon="-2.62339">
        <ele>61</ele>
        <time>2025-05-13T08:28:42Z</time>
      </trkpt>
      <trkpt lat="47.51379" lon="-2.6234">
        <ele>60</ele>
        <time>2025-05-13T08:28:43Z</time>
      </trkpt>
      <trkpt lat="47.51379" lon="-2.6234">
        <ele>60</ele>
        <time>2025-05-13T08:28:44Z</time>
      </trkpt>
      <trkpt lat="47.51379" lon="-2.6234">
        <ele>60</ele>
        <time>2025-05-13T08:28:45Z</time>
      </trkpt>
      <trkpt lat="47.51379" lon="-2.6234">
        <ele>60</ele>
        <time>2025-05-13T08:28:46Z</time>
      </trkpt>
      <trkpt lat="47.51379" lon="-2.6234">
        <ele>60</ele>
        <time>2025-05-13T08:28:47Z</time>
      </trkpt>
      <trkpt lat="47.51379" lon="-2.6234">
        <ele>60</ele>
        <time>2025-05-13T08:28:48Z</time>
      </trkpt>
      <trkpt lat="47.51379" lon="-2.6234">
        <ele>60</ele>
        <time>2025-05-13T08:28:49Z</time>
      </trkpt>
      <trkpt lat="47.51379" lon="-2.6234">
        <ele>60</ele>
        <time>2025-05-13T08:28:50Z</time>
      </trkpt>
      <trkpt lat="47.51379" lon="-2.6234">
        <ele>60</ele>
        <time>2025-05-13T08:28:51Z</time>
      </trkpt>
      <trkpt lat="47.51379" lon="-2.6234">
        <ele>60</ele>
        <time>2025-05-13T08:28:52Z</time>
      </trkpt>
      <trkpt lat="47.51379" lon="-2.6234">
        <ele>60</ele>
        <time>2025-05-13T08:28:53Z</time>
      </trkpt>
      <trkpt lat="47.51379" lon="-2.6234">
        <ele>60</ele>
        <time>2025-05-13T08:28:54Z</time>
      </trkpt>
      <trkpt lat="47.51379" lon="-2.6234">
        <ele>60</ele>
        <time>2025-05-13T08:28:55Z</time>
      </trkpt>
      <trkpt lat="47.51379" lon="-2.6234">
        <ele>60</ele>
        <time>2025-05-13T08:28:56Z</time>
      </trkpt>
      <trkpt lat="47.51379" lon="-2.6234">
        <ele>60</ele>
        <time>2025-05-13T08:28:57Z</time>
      </trkpt>
      <trkpt lat="47.51379" lon="-2.6234">
        <ele>60</ele>
        <time>2025-05-13T08:28:58Z</time>
      </trkpt>
      <trkpt lat="47.51379" lon="-2.6234">
        <ele>60</ele>
        <time>2025-05-13T08:28:59Z</time>
      </trkpt>
      <trkpt lat="47.51379" lon="-2.6234">
        <ele>60</ele>
        <time>2025-05-13T08:29:00Z</time>
      </trkpt>
      <trkpt lat="47.51379" lon="-2.6234">
        <ele>60</ele>
        <time>2025-05-13T08:29:01Z</time>
      </trkpt>
      <trkpt lat="47.51379" lon="-2.6234">
        <ele>60</ele>
        <time>2025-05-13T08:29:02Z</time>
      </trkpt>
      <trkpt lat="47.51379" lon="-2.6234">
        <ele>60</ele>
        <time>2025-05-13T08:29:03Z</time>
      </trkpt>
      <trkpt lat="47.51379" lon="-2.6234">
        <ele>60</ele>
        <time>2025-05-13T08:29:04Z</time>
      </trkpt>
      <trkpt lat="47.51379" lon="-2.6234">
        <ele>60</ele>
        <time>2025-05-13T08:29:05Z</time>
      </trkpt>
      <trkpt lat="47.51379" lon="-2.6234">
        <ele>60</ele>
        <time>2025-05-13T08:29:06Z</time>
      </trkpt>
      <trkpt lat="47.51379" lon="-2.6234">
        <ele>60</ele>
        <time>2025-05-13T08:29:07Z</time>
      </trkpt>
      <trkpt lat="47.51425" lon="-2.6235">
        <ele>55</ele>
        <time>2025-05-13T08:35:20Z</time>
      </trkpt>
      <trkpt lat="47.51426" lon="-2.6235">
        <ele>55</ele>
        <time>2025-05-13T08:35:21Z</time>
      </trkpt>
      <trkpt lat="47.51426" lon="-2.62351">
        <ele>55</ele>
        <time>2025-05-13T08:35:22Z</time>
      </trkpt>
      <trkpt lat="47.51426" lon="-2.62351">
        <ele>55</ele>
        <time>2025-05-13T08:35:23Z</time>
      </trkpt>
      <trkpt lat="47.51426" lon="-2.62351">
        <ele>55</ele>
        <time>2025-05-13T08:35:24Z</time>
      </trkpt>
      <trkpt lat="47.51425" lon="-2.62351">
        <ele>55</ele>
        <time>2025-05-13T08:35:25Z</time>
      </trkpt>
      <trkpt lat="47.51425" lon="-2.62351">
        <ele>54</ele>
        <time>2025-05-13T08:35:26Z</time>
      </trkpt>
      <trkpt lat="47.51425" lon="-2.62351">
        <ele>54</ele>
        <time>2025-05-13T08:35:27Z</time>
      </trkpt>
      <trkpt lat="47.51425" lon="-2.62351">
        <ele>55</ele>
        <time>2025-05-13T08:35:28Z</time>
      </trkpt>
      <trkpt lat="47.51425" lon="-2.62351">
        <ele>55</ele>
        <time>2025-05-13T08:35:29Z</time>
      </trkpt>
      <trkpt lat="47.51425" lon="-2.62351">
        <ele>55</ele>
        <time>2025-05-13T08:35:30Z</time>
      </trkpt>
      <trkpt lat="47.51425" lon="-2.62351">
        <ele>55</ele>
        <time>2025-05-13T08:35:31Z</time>
      </trkpt>
      <trkpt lat="47.51425" lon="-2.62351">
        <ele>55</ele>
        <time>2025-05-13T08:35:32Z</time>
      </trkpt>
      <trkpt lat="47.51425" lon="-2.62351">
        <ele>55</ele>
        <time>2025-05-13T08:35:33Z</time>
      </trkpt>
      <trkpt lat="47.51425" lon="-2.62351">
        <ele>55</ele>
        <time>2025-05-13T08:35:34Z</time>
      </trkpt>
      <trkpt lat="47.51425" lon="-2.62351">
        <ele>55</ele>
        <time>2025-05-13T08:35:35Z</time>
      </trkpt>
      <trkpt lat="47.51425" lon="-2.62351">
        <ele>55</ele>
        <time>2025-05-13T08:35:36Z</time>
      </trkpt>
      <trkpt lat="47.51425" lon="-2.62351">
        <ele>55</ele>
        <time>2025-05-13T08:35:37Z</time>
      </trkpt>
      <trkpt lat="47.51425" lon="-2.62351">
        <ele>55</ele>
        <time>2025-05-13T08:35:38Z</time>
      </trkpt>
      <trkpt lat="47.51425" lon="-2.62351">
        <ele>55</ele>
        <time>2025-05-13T08:35:39Z</time>
      </trkpt>
      <trkpt lat="47.51425" lon="-2.62351">
        <ele>55</ele>
        <time>2025-05-13T08:35:40Z</time>
      </trkpt>
      <trkpt lat="47.51425" lon="-2.62351">
        <ele>55</ele>
        <time>2025-05-13T08:35:41Z</time>
      </trkpt>
      <trkpt lat="47.51425" lon="-2.62351">
        <ele>55</ele>
        <time>2025-05-13T08:35:42Z</time>
      </trkpt>
      <trkpt lat="47.51425" lon="-2.62351">
        <ele>55</ele>
        <time>2025-05-13T08:35:43Z</time>
      </trkpt>
      <trkpt lat="47.51426" lon="-2.62351">
        <ele>56</ele>
        <time>2025-05-13T08:35:44Z</time>
      </trkpt>
      <trkpt lat="47.51427" lon="-2.62351">
        <ele>56</ele>
        <time>2025-05-13T08:35:45Z</time>
      </trkpt>
      <trkpt lat="47.51429" lon="-2.62352">
        <ele>56</ele>
        <time>2025-05-13T08:35:46Z</time>
      </trkpt>
      <trkpt lat="47.51431" lon="-2.62354">
        <ele>56</ele>
        <time>2025-05-13T08:35:47Z</time>
      </trkpt>
      <trkpt lat="47.51432" lon="-2.62355">
        <ele>56</ele>
        <time>2025-05-13T08:35:48Z</time>
      </trkpt>
      <trkpt lat="47.51434" lon="-2.62356">
        <ele>55</ele>
        <time>2025-05-13T08:35:49Z</time>
      </trkpt>
      <trkpt lat="47.51436" lon="-2.62357">
        <ele>55</ele>
        <time>2025-05-13T08:35:50Z</time>
      </trkpt>
      <trkpt lat="47.51438" lon="-2.62357">
        <ele>54</ele>
        <time>2025-05-13T08:35:51Z</time>
      </trkpt>
      <trkpt lat="47.5144" lon="-2.62358">
        <ele>54</ele>
        <time>2025-05-13T08:35:52Z</time>
      </trkpt>
      <trkpt lat="47.5144" lon="-2.62359">
        <ele>54</ele>
        <time>2025-05-13T08:35:53Z</time>
      </trkpt>
      <trkpt lat="47.51441" lon="-2.62359">
        <ele>54</ele>
        <time>2025-05-13T08:35:54Z</time>
      </trkpt>
      <trkpt lat="47.51441" lon="-2.62359">
        <ele>54</ele>
        <time>2025-05-13T08:35:55Z</time>
      </trkpt>
      <trkpt lat="47.51441" lon="-2.62359">
        <ele>54</ele>
        <time>2025-05-13T08:35:56Z</time>
      </trkpt>
      <trkpt lat="47.51442" lon="-2.6236">
        <ele>54</ele>
        <time>2025-05-13T08:35:57Z</time>
      </trkpt>
      <trkpt lat="47.51442" lon="-2.6236">
        <ele>54</ele>
        <time>2025-05-13T08:35:58Z</time>
      </trkpt>
      <trkpt lat="47.51442" lon="-2.62361">
        <ele>54</ele>
        <time>2025-05-13T08:35:59Z</time>
      </trkpt>
      <trkpt lat="47.51442" lon="-2.62361">
        <ele>54</ele>
        <time>2025-05-13T08:36:00Z</time>
      </trkpt>
      <trkpt lat="47.51442" lon="-2.62361">
        <ele>54</ele>
        <time>2025-05-13T08:36:01Z</time>
      </trkpt>
      <trkpt lat="47.51442" lon="-2.6236">
        <ele>53</ele>
        <time>2025-05-13T08:36:02Z</time>
      </trkpt>
      <trkpt lat="47.51442" lon="-2.6236">
        <ele>53</ele>
        <time>2025-05-13T08:36:03Z</time>
      </trkpt>
      <trkpt lat="47.51442" lon="-2.6236">
        <ele>53</ele>
        <time>2025-05-13T08:36:04Z</time>
      </trkpt>
      <trkpt lat="47.51442" lon="-2.6236">
        <ele>53</ele>
        <time>2025-05-13T08:36:05Z</time>
      </trkpt>
      <trkpt lat="47.51442" lon="-2.6236">
        <ele>53</ele>
        <time>2025-05-13T08:36:06Z</time>
      </trkpt>
      <trkpt lat="47.51442" lon="-2.6236">
        <ele>53</ele>
        <time>2025-05-13T08:36:07Z</time>
      </trkpt>
      <trkpt lat="47.51442" lon="-2.6236">
        <ele>53</ele>
        <time>2025-05-13T08:36:08Z</time>
      </trkpt>
      <trkpt lat="47.51442" lon="-2.6236">
        <ele>53</ele>
        <time>2025-05-13T08:36:09Z</time>
      </trkpt>
      <trkpt lat="47.51442" lon="-2.6236">
        <ele>53</ele>
        <time>2025-05-13T08:36:10Z</time>
      </trkpt>
      <trkpt lat="47.51442" lon="-2.6236">
        <ele>53</ele>
        <time>2025-05-13T08:36:11Z</time>
      </trkpt>
      <trkpt lat="47.51442" lon="-2.6236">
        <ele>53</ele>
        <time>2025-05-13T08:36:12Z</time>
      </trkpt>
      <trkpt lat="47.51442" lon="-2.6236">
        <ele>53</ele>
        <time>2025-05-13T08:36:13Z</time>
      </trkpt>
      <trkpt lat="47.51442" lon="-2.6236">
        <ele>53</ele>
        <time>2025-05-13T08:36:14Z</time>
      </trkpt>
      <trkpt lat="47.51442" lon="-2.6236">
        <ele>53</ele>
        <time>2025-05-13T08:36:15Z</time>
      </trkpt>
      <trkpt lat="47.51442" lon="-2.6236">
        <ele>53</ele>
        <time>2025-05-13T08:36:16Z</time>
      </trkpt>
      <trkpt lat="47.51442" lon="-2.6236">
        <ele>53</ele>
        <time>2025-05-13T08:36:17Z</time>
      </trkpt>
      <trkpt lat="47.51442" lon="-2.6236">
        <ele>53</ele>
        <time>2025-05-13T08:36:18Z</time>
      </trkpt>
      <trkpt lat="47.51442" lon="-2.6236">
        <ele>53</ele>
        <time>2025-05-13T08:36:19Z</time>
      </trkpt>
      <trkpt lat="47.51442" lon="-2.6236">
        <ele>53</ele>
        <time>2025-05-13T08:36:20Z</time>
      </trkpt>
      <trkpt lat="47.51442" lon="-2.6236">
        <ele>53</ele>
        <time>2025-05-13T08:36:21Z</time>
      </trkpt>
      <trkpt lat="47.51442" lon="-2.6236">
        <ele>53</ele>
        <time>2025-05-13T08:36:22Z</time>
      </trkpt>
      <trkpt lat="47.51442" lon="-2.6236">
        <ele>53</ele>
        <time>2025-05-13T08:36:23Z</time>
      </trkpt>
      <trkpt lat="47.51442" lon="-2.6236">
        <ele>53</ele>
        <time>2025-05-13T08:36:24Z</time>
      </trkpt>
      <trkpt lat="47.51442" lon="-2.6236">
        <ele>53</ele>
        <time>2025-05-13T08:36:25Z</time>
      </trkpt>
      <trkpt lat="47.51442" lon="-2.6236">
        <ele>53</ele>
        <time>2025-05-13T08:36:26Z</time>
      </trkpt>
      <trkpt lat="47.51442" lon="-2.6236">
        <ele>53</ele>
        <time>2025-05-13T08:36:27Z</time>
      </trkpt>
      <trkpt lat="47.51442" lon="-2.6236">
        <ele>53</ele>
        <time>2025-05-13T08:36:28Z</time>
      </trkpt>
      <trkpt lat="47.51442" lon="-2.6236">
        <ele>53</ele>
        <time>2025-05-13T08:36:29Z</time>
      </trkpt>
      <trkpt lat="47.51442" lon="-2.6236">
        <ele>53</ele>
        <time>2025-05-13T08:36:30Z</time>
      </trkpt>
      <trkpt lat="47.51442" lon="-2.6236">
        <ele>53</ele>
        <time>2025-05-13T08:36:31Z</time>
      </trkpt>
      <trkpt lat="47.51442" lon="-2.6236">
        <ele>53</ele>
        <time>2025-05-13T08:36:32Z</time>
      </trkpt>
      <trkpt lat="47.51442" lon="-2.6236">
        <ele>53</ele>
        <time>2025-05-13T08:36:33Z</time>
      </trkpt>
      <trkpt lat="47.51442" lon="-2.6236">
        <ele>53</ele>
        <time>2025-05-13T08:36:34Z</time>
      </trkpt>
      <trkpt lat="47.51442" lon="-2.6236">
        <ele>53</ele>
        <time>2025-05-13T08:36:35Z</time>
      </trkpt>
      <trkpt lat="47.51442" lon="-2.6236">
        <ele>53</ele>
        <time>2025-05-13T08:36:36Z</time>
      </trkpt>
      <trkpt lat="47.51442" lon="-2.6236">
        <ele>53</ele>
        <time>2025-05-13T08:36:37Z</time>
      </trkpt>
      <trkpt lat="47.51485" lon="-2.62339">
        <ele>53</ele>
        <time>2025-05-13T08:37:43Z</time>
      </trkpt>
      <trkpt lat="47.51487" lon="-2.62339">
        <ele>53</ele>
        <time>2025-05-13T08:37:44Z</time>
      </trkpt>
      <trkpt lat="47.51489" lon="-2.62339">
        <ele>53</ele>
        <time>2025-05-13T08:37:45Z</time>
      </trkpt>
      <trkpt lat="47.51491" lon="-2.6234">
        <ele>52</ele>
        <time>2025-05-13T08:37:46Z</time>
      </trkpt>
      <trkpt lat="47.51493" lon="-2.6234">
        <ele>52</ele>
        <time>2025-05-13T08:37:47Z</time>
      </trkpt>
      <trkpt lat="47.51495" lon="-2.62339">
        <ele>52</ele>
        <time>2025-05-13T08:37:48Z</time>
      </trkpt>
      <trkpt lat="47.51497" lon="-2.62339">
        <ele>52</ele>
        <time>2025-05-13T08:37:49Z</time>
      </trkpt>
      <trkpt lat="47.51499" lon="-2.6234">
        <ele>52</ele>
        <time>2025-05-13T08:37:50Z</time>
      </trkpt>
      <trkpt lat="47.51501" lon="-2.6234">
        <ele>52</ele>
        <time>2025-05-13T08:37:51Z</time>
      </trkpt>
      <trkpt lat="47.51503" lon="-2.6234">
        <ele>52</ele>
        <time>2025-05-13T08:37:52Z</time>
      </trkpt>
      <trkpt lat="47.51505" lon="-2.6234">
        <ele>52</ele>
        <time>2025-05-13T08:37:53Z</time>
      </trkpt>
      <trkpt lat="47.51507" lon="-2.6234">
        <ele>52</ele>
        <time>2025-05-13T08:37:54Z</time>
      </trkpt>
      <trkpt lat="47.51509" lon="-2.62341">
        <ele>52</ele>
        <time>2025-05-13T08:37:55Z</time>
      </trkpt>
      <trkpt lat="47.51511" lon="-2.62341">
        <ele>52</ele>
        <time>2025-05-13T08:37:56Z</time>
      </trkpt>
      <trkpt lat="47.51513" lon="-2.62341">
        <ele>52</ele>
        <time>2025-05-13T08:37:57Z</time>
      </trkpt>
      <trkpt lat="47.51515" lon="-2.62341">
        <ele>52</ele>
        <time>2025-05-13T08:37:58Z</time>
      </trkpt>
      <trkpt lat="47.51517" lon="-2.62342">
        <ele>52</ele>
        <time>2025-05-13T08:37:59Z</time>
      </trkpt>
      <trkpt lat="47.51518" lon="-2.62342">
        <ele>53</ele>
        <time>2025-05-13T08:38:00Z</time>
      </trkpt>
      <trkpt lat="47.5152" lon="-2.62341">
        <ele>53</ele>
        <time>2025-05-13T08:38:01Z</time>
      </trkpt>
      <trkpt lat="47.51522" lon="-2.62341">
        <ele>53</ele>
        <time>2025-05-13T08:38:02Z</time>
      </trkpt>
      <trkpt lat="47.51524" lon="-2.6234">
        <ele>54</ele>
        <time>2025-05-13T08:38:03Z</time>
      </trkpt>
      <trkpt lat="47.51526" lon="-2.6234">
        <ele>54</ele>
        <time>2025-05-13T08:38:04Z</time>
      </trkpt>
      <trkpt lat="47.51528" lon="-2.6234">
        <ele>54</ele>
        <time>2025-05-13T08:38:05Z</time>
      </trkpt>
      <trkpt lat="47.5153" lon="-2.6234">
        <ele>54</ele>
        <time>2025-05-13T08:38:06Z</time>
      </trkpt>
      <trkpt lat="47.51531" lon="-2.6234">
        <ele>54</ele>
        <time>2025-05-13T08:38:07Z</time>
      </trkpt>
      <trkpt lat="47.51533" lon="-2.6234">
        <ele>54</ele>
        <time>2025-05-13T08:38:08Z</time>
      </trkpt>
      <trkpt lat="47.51535" lon="-2.6234">
        <ele>54</ele>
        <time>2025-05-13T08:38:09Z</time>
      </trkpt>
      <trkpt lat="47.51537" lon="-2.62339">
        <ele>55</ele>
        <time>2025-05-13T08:38:10Z</time>
      </trkpt>
      <trkpt lat="47.51538" lon="-2.62339">
        <ele>55</ele>
        <time>2025-05-13T08:38:11Z</time>
      </trkpt>
      <trkpt lat="47.5154" lon="-2.62339">
        <ele>55</ele>
        <time>2025-05-13T08:38:12Z</time>
      </trkpt>
      <trkpt lat="47.51542" lon="-2.62339">
        <ele>55</ele>
        <time>2025-05-13T08:38:13Z</time>
      </trkpt>
      <trkpt lat="47.51544" lon="-2.62338">
        <ele>55</ele>
        <time>2025-05-13T08:38:14Z</time>
      </trkpt>
      <trkpt lat="47.51546" lon="-2.62338">
        <ele>55</ele>
        <time>2025-05-13T08:38:15Z</time>
      </trkpt>
      <trkpt lat="47.51547" lon="-2.62338">
        <ele>55</ele>
        <time>2025-05-13T08:38:16Z</time>
      </trkpt>
      <trkpt lat="47.51549" lon="-2.62337">
        <ele>55</ele>
        <time>2025-05-13T08:38:17Z</time>
      </trkpt>
      <trkpt lat="47.51551" lon="-2.62337">
        <ele>55</ele>
        <time>2025-05-13T08:38:18Z</time>
      </trkpt>
      <trkpt lat="47.51553" lon="-2.62336">
        <ele>54</ele>
        <time>2025-05-13T08:38:19Z</time>
      </trkpt>
      <trkpt lat="47.51554" lon="-2.62336">
        <ele>54</ele>
        <time>2025-05-13T08:38:20Z</time>
      </trkpt>
      <trkpt lat="47.51556" lon="-2.62335">
        <ele>54</ele>
        <time>2025-05-13T08:38:21Z</time>
      </trkpt>
      <trkpt lat="47.51559" lon="-2.62334">
        <ele>54</ele>
        <time>2025-05-13T08:38:22Z</time>
      </trkpt>
      <trkpt lat="47.51561" lon="-2.62334">
        <ele>54</ele>
        <time>2025-05-13T08:38:23Z</time>
      </trkpt>
      <trkpt lat="47.51564" lon="-2.62333">
        <ele>53</ele>
        <time>2025-05-13T08:38:24Z</time>
      </trkpt>
      <trkpt lat="47.51566" lon="-2.62333">
        <ele>53</ele>
        <time>2025-05-13T08:38:25Z</time>
      </trkpt>
      <trkpt lat="47.51569" lon="-2.62332">
        <ele>53</ele>
        <time>2025-05-13T08:38:26Z</time>
      </trkpt>
      <trkpt lat="47.51571" lon="-2.62331">
        <ele>53</ele>
        <time>2025-05-13T08:38:27Z</time>
      </trkpt>
      <trkpt lat="47.51574" lon="-2.6233">
        <ele>53</ele>
        <time>2025-05-13T08:38:28Z</time>
      </trkpt>
      <trkpt lat="47.51577" lon="-2.62329">
        <ele>53</ele>
        <time>2025-05-13T08:38:29Z</time>
      </trkpt>
      <trkpt lat="47.51579" lon="-2.62328">
        <ele>53</ele>
        <time>2025-05-13T08:38:30Z</time>
      </trkpt>
      <trkpt lat="47.51582" lon="-2.62327">
        <ele>53</ele>
        <time>2025-05-13T08:38:31Z</time>
      </trkpt>
      <trkpt lat="47.51585" lon="-2.62325">
        <ele>53</ele>
        <time>2025-05-13T08:38:32Z</time>
      </trkpt>
      <trkpt lat="47.51587" lon="-2.62324">
        <ele>53</ele>
        <time>2025-05-13T08:38:33Z</time>
      </trkpt>
      <trkpt lat="47.5159" lon="-2.62322">
        <ele>53</ele>
        <time>2025-05-13T08:38:34Z</time>
      </trkpt>
      <trkpt lat="47.51593" lon="-2.62321">
        <ele>53</ele>
        <time>2025-05-13T08:38:35Z</time>
      </trkpt>
      <trkpt lat="47.51595" lon="-2.6232">
        <ele>53</ele>
        <time>2025-05-13T08:38:36Z</time>
      </trkpt>
      <trkpt lat="47.51598" lon="-2.62318">
        <ele>53</ele>
        <time>2025-05-13T08:38:37Z</time>
      </trkpt>
      <trkpt lat="47.516" lon="-2.62317">
        <ele>54</ele>
        <time>2025-05-13T08:38:38Z</time>
      </trkpt>
      <trkpt lat="47.51603" lon="-2.62316">
        <ele>54</ele>
        <time>2025-05-13T08:38:39Z</time>
      </trkpt>
      <trkpt lat="47.51605" lon="-2.62315">
        <ele>54</ele>
        <time>2025-05-13T08:38:40Z</time>
      </trkpt>
      <trkpt lat="47.51608" lon="-2.62314">
        <ele>54</ele>
        <time>2025-05-13T08:38:41Z</time>
      </trkpt>
      <trkpt lat="47.51611" lon="-2.62313">
        <ele>54</ele>
        <time>2025-05-13T08:38:42Z</time>
      </trkpt>
      <trkpt lat="47.51613" lon="-2.62312">
        <ele>54</ele>
        <time>2025-05-13T08:38:43Z</time>
      </trkpt>
      <trkpt lat="47.51616" lon="-2.6231">
        <ele>54</ele>
        <time>2025-05-13T08:38:44Z</time>
      </trkpt>
      <trkpt lat="47.51618" lon="-2.62309">
        <ele>54</ele>
        <time>2025-05-13T08:38:45Z</time>
      </trkpt>
      <trkpt lat="47.51621" lon="-2.62308">
        <ele>54</ele>
        <time>2025-05-13T08:38:46Z</time>
      </trkpt>
      <trkpt lat="47.51624" lon="-2.62306">
        <ele>54</ele>
        <time>2025-05-13T08:38:47Z</time>
      </trkpt>
      <trkpt lat="47.51626" lon="-2.62305">
        <ele>54</ele>
        <time>2025-05-13T08:38:48Z</time>
      </trkpt>
      <trkpt lat="47.51629" lon="-2.62304">
        <ele>54</ele>
        <time>2025-05-13T08:38:49Z</time>
      </trkpt>
      <trkpt lat="47.51631" lon="-2.62303">
        <ele>54</ele>
        <time>2025-05-13T08:38:50Z</time>
      </trkpt>
      <trkpt lat="47.51634" lon="-2.62301">
        <ele>54</ele>
        <time>2025-05-13T08:38:51Z</time>
      </trkpt>
      <trkpt lat="47.51637" lon="-2.623">
        <ele>53</ele>
        <time>2025-05-13T08:38:52Z</time>
      </trkpt>
      <trkpt lat="47.51639" lon="-2.62299">
        <ele>53</ele>
        <time>2025-05-13T08:38:53Z</time>
      </trkpt>
      <trkpt lat="47.51642" lon="-2.62298">
        <ele>53</ele>
        <time>2025-05-13T08:38:54Z</time>
      </trkpt>
      <trkpt lat="47.51645" lon="-2.62297">
        <ele>53</ele>
        <time>2025-05-13T08:38:55Z</time>
      </trkpt>
      <trkpt lat="47.51647" lon="-2.62296">
        <ele>53</ele>
        <time>2025-05-13T08:38:56Z</time>
      </trkpt>
      <trkpt lat="47.5165" lon="-2.62295">
        <ele>54</ele>
        <time>2025-05-13T08:38:57Z</time>
      </trkpt>
      <trkpt lat="47.51653" lon="-2.62294">
        <ele>54</ele>
        <time>2025-05-13T08:38:58Z</time>
      </trkpt>
      <trkpt lat="47.51655" lon="-2.62293">
        <ele>53</ele>
        <time>2025-05-13T08:38:59Z</time>
      </trkpt>
      <trkpt lat="47.51658" lon="-2.62292">
        <ele>53</ele>
        <time>2025-05-13T08:39:00Z</time>
      </trkpt>
      <trkpt lat="47.5166" lon="-2.62291">
        <ele>53</ele>
        <time>2025-05-13T08:39:01Z</time>
      </trkpt>
      <trkpt lat="47.51663" lon="-2.62291">
        <ele>53</ele>
        <time>2025-05-13T08:39:02Z</time>
      </trkpt>
      <trkpt lat="47.51666" lon="-2.6229">
        <ele>53</ele>
        <time>2025-05-13T08:39:03Z</time>
      </trkpt>
      <trkpt lat="47.51668" lon="-2.62289">
        <ele>53</ele>
        <time>2025-05-13T08:39:04Z</time>
      </trkpt>
      <trkpt lat="47.51671" lon="-2.62289">
        <ele>53</ele>
        <time>2025-05-13T08:39:05Z</time>
      </trkpt>
      <trkpt lat="47.51674" lon="-2.62288">
        <ele>53</ele>
        <time>2025-05-13T08:39:06Z</time>
      </trkpt>
      <trkpt lat="47.51676" lon="-2.62287">
        <ele>53</ele>
        <time>2025-05-13T08:39:07Z</time>
      </trkpt>
      <trkpt lat="47.51679" lon="-2.62286">
        <ele>53</ele>
        <time>2025-05-13T08:39:08Z</time>
      </trkpt>
      <trkpt lat="47.51682" lon="-2.62285">
        <ele>53</ele>
        <time>2025-05-13T08:39:09Z</time>
      </trkpt>
      <trkpt lat="47.51684" lon="-2.62284">
        <ele>53</ele>
        <time>2025-05-13T08:39:10Z</time>
      </trkpt>
      <trkpt lat="47.51687" lon="-2.62283">
        <ele>53</ele>
        <time>2025-05-13T08:39:11Z</time>
      </trkpt>
      <trkpt lat="47.5169" lon="-2.62282">
        <ele>53</ele>
        <time>2025-05-13T08:39:12Z</time>
      </trkpt>
      <trkpt lat="47.51692" lon="-2.62281">
        <ele>53</ele>
        <time>2025-05-13T08:39:13Z</time>
      </trkpt>
      <trkpt lat="47.51695" lon="-2.6228">
        <ele>53</ele>
        <time>2025-05-13T08:39:14Z</time>
      </trkpt>
      <trkpt lat="47.51698" lon="-2.6228">
        <ele>53</ele>
        <time>2025-05-13T08:39:15Z</time>
      </trkpt>
      <trkpt lat="47.517" lon="-2.62279">
        <ele>53</ele>
        <time>2025-05-13T08:39:16Z</time>
      </trkpt>
      <trkpt lat="47.51703" lon="-2.62278">
        <ele>53</ele>
        <time>2025-05-13T08:39:17Z</time>
      </trkpt>
      <trkpt lat="47.51705" lon="-2.62277">
        <ele>53</ele>
        <time>2025-05-13T08:39:18Z</time>
      </trkpt>
      <trkpt lat="47.51708" lon="-2.62276">
        <ele>53</ele>
        <time>2025-05-13T08:39:19Z</time>
      </trkpt>
      <trkpt lat="47.51711" lon="-2.62275">
        <ele>53</ele>
        <time>2025-05-13T08:39:20Z</time>
      </trkpt>
      <trkpt lat="47.51713" lon="-2.62274">
        <ele>53</ele>
        <time>2025-05-13T08:39:21Z</time>
      </trkpt>
      <trkpt lat="47.51716" lon="-2.62273">
        <ele>53</ele>
        <time>2025-05-13T08:39:22Z</time>
      </trkpt>
      <trkpt lat="47.51719" lon="-2.62272">
        <ele>53</ele>
        <time>2025-05-13T08:39:23Z</time>
      </trkpt>
      <trkpt lat="47.51721" lon="-2.62271">
        <ele>53</ele>
        <time>2025-05-13T08:39:24Z</time>
      </trkpt>
      <trkpt lat="47.51724" lon="-2.6227">
        <ele>53</ele>
        <time>2025-05-13T08:39:25Z</time>
      </trkpt>
      <trkpt lat="47.51727" lon="-2.62269">
        <ele>53</ele>
        <time>2025-05-13T08:39:26Z</time>
      </trkpt>
      <trkpt lat="47.51729" lon="-2.62268">
        <ele>53</ele>
        <time>2025-05-13T08:39:27Z</time>
      </trkpt>
      <trkpt lat="47.51732" lon="-2.62267">
        <ele>53</ele>
        <time>2025-05-13T08:39:28Z</time>
      </trkpt>
      <trkpt lat="47.51734" lon="-2.62266">
        <ele>53</ele>
        <time>2025-05-13T08:39:29Z</time>
      </trkpt>
      <trkpt lat="47.51737" lon="-2.62265">
        <ele>53</ele>
        <time>2025-05-13T08:39:30Z</time>
      </trkpt>
      <trkpt lat="47.5174" lon="-2.62264">
        <ele>53</ele>
        <time>2025-05-13T08:39:31Z</time>
      </trkpt>
      <trkpt lat="47.51742" lon="-2.62263">
        <ele>53</ele>
        <time>2025-05-13T08:39:32Z</time>
      </trkpt>
      <trkpt lat="47.51745" lon="-2.62262">
        <ele>53</ele>
        <time>2025-05-13T08:39:33Z</time>
      </trkpt>
      <trkpt lat="47.51747" lon="-2.62261">
        <ele>53</ele>
        <time>2025-05-13T08:39:34Z</time>
      </trkpt>
      <trkpt lat="47.5175" lon="-2.6226">
        <ele>53</ele>
        <time>2025-05-13T08:39:35Z</time>
      </trkpt>
      <trkpt lat="47.51753" lon="-2.62259">
        <ele>53</ele>
        <time>2025-05-13T08:39:36Z</time>
      </trkpt>
      <trkpt lat="47.51756" lon="-2.62258">
        <ele>53</ele>
        <time>2025-05-13T08:39:37Z</time>
      </trkpt>
      <trkpt lat="47.51758" lon="-2.62257">
        <ele>53</ele>
        <time>2025-05-13T08:39:38Z</time>
      </trkpt>
      <trkpt lat="47.51761" lon="-2.62256">
        <ele>53</ele>
        <time>2025-05-13T08:39:39Z</time>
      </trkpt>
      <trkpt lat="47.51764" lon="-2.62255">
        <ele>53</ele>
        <time>2025-05-13T08:39:40Z</time>
      </trkpt>
      <trkpt lat="47.51766" lon="-2.62254">
        <ele>53</ele>
        <time>2025-05-13T08:39:41Z</time>
      </trkpt>
      <trkpt lat="47.51769" lon="-2.62253">
        <ele>53</ele>
        <time>2025-05-13T08:39:42Z</time>
      </trkpt>
      <trkpt lat="47.51771" lon="-2.62252">
        <ele>53</ele>
        <time>2025-05-13T08:39:43Z</time>
      </trkpt>
      <trkpt lat="47.51774" lon="-2.62251">
        <ele>53</ele>
        <time>2025-05-13T08:39:44Z</time>
      </trkpt>
      <trkpt lat="47.51776" lon="-2.6225">
        <ele>53</ele>
        <time>2025-05-13T08:39:45Z</time>
      </trkpt>
      <trkpt lat="47.51779" lon="-2.6225">
        <ele>53</ele>
        <time>2025-05-13T08:39:46Z</time>
      </trkpt>
      <trkpt lat="47.51782" lon="-2.62249">
        <ele>53</ele>
        <time>2025-05-13T08:39:47Z</time>
      </trkpt>
      <trkpt lat="47.51784" lon="-2.62247">
        <ele>53</ele>
        <time>2025-05-13T08:39:48Z</time>
      </trkpt>
      <trkpt lat="47.51787" lon="-2.62246">
        <ele>53</ele>
        <time>2025-05-13T08:39:49Z</time>
      </trkpt>
      <trkpt lat="47.51789" lon="-2.62245">
        <ele>53</ele>
        <time>2025-05-13T08:39:50Z</time>
      </trkpt>
      <trkpt lat="47.51792" lon="-2.62243">
        <ele>53</ele>
        <time>2025-05-13T08:39:51Z</time>
      </trkpt>
      <trkpt lat="47.51795" lon="-2.62242">
        <ele>53</ele>
        <time>2025-05-13T08:39:52Z</time>
      </trkpt>
      <trkpt lat="47.51797" lon="-2.6224">
        <ele>53</ele>
        <time>2025-05-13T08:39:53Z</time>
      </trkpt>
      <trkpt lat="47.518" lon="-2.62239">
        <ele>52</ele>
        <time>2025-05-13T08:39:54Z</time>
      </trkpt>
      <trkpt lat="47.51802" lon="-2.62237">
        <ele>53</ele>
        <time>2025-05-13T08:39:55Z</time>
      </trkpt>
      <trkpt lat="47.51805" lon="-2.62236">
        <ele>53</ele>
        <time>2025-05-13T08:39:56Z</time>
      </trkpt>
      <trkpt lat="47.51807" lon="-2.62235">
        <ele>52</ele>
        <time>2025-05-13T08:39:57Z</time>
      </trkpt>
      <trkpt lat="47.5181" lon="-2.62233">
        <ele>52</ele>
        <time>2025-05-13T08:39:58Z</time>
      </trkpt>
      <trkpt lat="47.51812" lon="-2.62232">
        <ele>52</ele>
        <time>2025-05-13T08:39:59Z</time>
      </trkpt>
      <trkpt lat="47.51815" lon="-2.6223">
        <ele>52</ele>
        <time>2025-05-13T08:40:00Z</time>
      </trkpt>
      <trkpt lat="47.51817" lon="-2.62229">
        <ele>52</ele>
        <time>2025-05-13T08:40:01Z</time>
      </trkpt>
      <trkpt lat="47.5182" lon="-2.62227">
        <ele>52</ele>
        <time>2025-05-13T08:40:02Z</time>
      </trkpt>
      <trkpt lat="47.51822" lon="-2.62225">
        <ele>52</ele>
        <time>2025-05-13T08:40:03Z</time>
      </trkpt>
      <trkpt lat="47.51825" lon="-2.62224">
        <ele>52</ele>
        <time>2025-05-13T08:40:04Z</time>
      </trkpt>
      <trkpt lat="47.51828" lon="-2.62222">
        <ele>52</ele>
        <time>2025-05-13T08:40:05Z</time>
      </trkpt>
      <trkpt lat="47.5183" lon="-2.62221">
        <ele>52</ele>
        <time>2025-05-13T08:40:06Z</time>
      </trkpt>
      <trkpt lat="47.51833" lon="-2.6222">
        <ele>52</ele>
        <time>2025-05-13T08:40:07Z</time>
      </trkpt>
      <trkpt lat="47.51835" lon="-2.62218">
        <ele>52</ele>
        <time>2025-05-13T08:40:08Z</time>
      </trkpt>
      <trkpt lat="47.51838" lon="-2.62217">
        <ele>52</ele>
        <time>2025-05-13T08:40:09Z</time>
      </trkpt>
      <trkpt lat="47.5184" lon="-2.62216">
        <ele>52</ele>
        <time>2025-05-13T08:40:10Z</time>
      </trkpt>
      <trkpt lat="47.51843" lon="-2.62215">
        <ele>53</ele>
        <time>2025-05-13T08:40:11Z</time>
      </trkpt>
      <trkpt lat="47.51845" lon="-2.62214">
        <ele>53</ele>
        <time>2025-05-13T08:40:12Z</time>
      </trkpt>
      <trkpt lat="47.51848" lon="-2.62212">
        <ele>53</ele>
        <time>2025-05-13T08:40:13Z</time>
      </trkpt>
      <trkpt lat="47.5185" lon="-2.62211">
        <ele>53</ele>
        <time>2025-05-13T08:40:14Z</time>
      </trkpt>
      <trkpt lat="47.51853" lon="-2.6221">
        <ele>53</ele>
        <time>2025-05-13T08:40:15Z</time>
      </trkpt>
      <trkpt lat="47.51855" lon="-2.62209">
        <ele>54</ele>
        <time>2025-05-13T08:40:16Z</time>
      </trkpt>
      <trkpt lat="47.51858" lon="-2.62208">
        <ele>54</ele>
        <time>2025-05-13T08:40:17Z</time>
      </trkpt>
      <trkpt lat="47.51861" lon="-2.62206">
        <ele>54</ele>
        <time>2025-05-13T08:40:18Z</time>
      </trkpt>
      <trkpt lat="47.51863" lon="-2.62206">
        <ele>54</ele>
        <time>2025-05-13T08:40:19Z</time>
      </trkpt>
      <trkpt lat="47.51866" lon="-2.62205">
        <ele>54</ele>
        <time>2025-05-13T08:40:20Z</time>
      </trkpt>
      <trkpt lat="47.51868" lon="-2.62203">
        <ele>54</ele>
        <time>2025-05-13T08:40:21Z</time>
      </trkpt>
      <trkpt lat="47.51871" lon="-2.62202">
        <ele>55</ele>
        <time>2025-05-13T08:40:22Z</time>
      </trkpt>
      <trkpt lat="47.51874" lon="-2.62201">
        <ele>55</ele>
        <time>2025-05-13T08:40:23Z</time>
      </trkpt>
      <trkpt lat="47.51876" lon="-2.622">
        <ele>55</ele>
        <time>2025-05-13T08:40:24Z</time>
      </trkpt>
      <trkpt lat="47.51879" lon="-2.62198">
        <ele>55</ele>
        <time>2025-05-13T08:40:25Z</time>
      </trkpt>
      <trkpt lat="47.51881" lon="-2.62197">
        <ele>55</ele>
        <time>2025-05-13T08:40:26Z</time>
      </trkpt>
      <trkpt lat="47.51884" lon="-2.62196">
        <ele>55</ele>
        <time>2025-05-13T08:40:27Z</time>
      </trkpt>
      <trkpt lat="47.51886" lon="-2.62194">
        <ele>54</ele>
        <time>2025-05-13T08:40:28Z</time>
      </trkpt>
      <trkpt lat="47.51889" lon="-2.62193">
        <ele>54</ele>
        <time>2025-05-13T08:40:29Z</time>
      </trkpt>
      <trkpt lat="47.51891" lon="-2.62192">
        <ele>54</ele>
        <time>2025-05-13T08:40:30Z</time>
      </trkpt>
      <trkpt lat="47.51894" lon="-2.62191">
        <ele>54</ele>
        <time>2025-05-13T08:40:31Z</time>
      </trkpt>
      <trkpt lat="47.51896" lon="-2.6219">
        <ele>54</ele>
        <time>2025-05-13T08:40:32Z</time>
      </trkpt>
      <trkpt lat="47.51899" lon="-2.62188">
        <ele>54</ele>
        <time>2025-05-13T08:40:33Z</time>
      </trkpt>
      <trkpt lat="47.51901" lon="-2.62187">
        <ele>54</ele>
        <time>2025-05-13T08:40:34Z</time>
      </trkpt>
      <trkpt lat="47.51903" lon="-2.62186">
        <ele>53</ele>
        <time>2025-05-13T08:40:35Z</time>
      </trkpt>
      <trkpt lat="47.51906" lon="-2.62185">
        <ele>53</ele>
        <time>2025-05-13T08:40:36Z</time>
      </trkpt>
      <trkpt lat="47.51909" lon="-2.62184">
        <ele>54</ele>
        <time>2025-05-13T08:40:37Z</time>
      </trkpt>
      <trkpt lat="47.51911" lon="-2.62183">
        <ele>54</ele>
        <time>2025-05-13T08:40:38Z</time>
      </trkpt>
      <trkpt lat="47.51914" lon="-2.62182">
        <ele>54</ele>
        <time>2025-05-13T08:40:39Z</time>
      </trkpt>
      <trkpt lat="47.51916" lon="-2.6218">
        <ele>54</ele>
        <time>2025-05-13T08:40:40Z</time>
      </trkpt>
      <trkpt lat="47.51919" lon="-2.62179">
        <ele>54</ele>
        <time>2025-05-13T08:40:41Z</time>
      </trkpt>
      <trkpt lat="47.51922" lon="-2.62178">
        <ele>54</ele>
        <time>2025-05-13T08:40:42Z</time>
      </trkpt>
      <trkpt lat="47.51924" lon="-2.62177">
        <ele>54</ele>
        <time>2025-05-13T08:40:43Z</time>
      </trkpt>
      <trkpt lat="47.51927" lon="-2.62176">
        <ele>54</ele>
        <time>2025-05-13T08:40:44Z</time>
      </trkpt>
      <trkpt lat="47.5193" lon="-2.62175">
        <ele>54</ele>
        <time>2025-05-13T08:40:45Z</time>
      </trkpt>
      <trkpt lat="47.51932" lon="-2.62174">
        <ele>54</ele>
        <time>2025-05-13T08:40:46Z</time>
      </trkpt>
      <trkpt lat="47.51935" lon="-2.62174">
        <ele>54</ele>
        <time>2025-05-13T08:40:47Z</time>
      </trkpt>
      <trkpt lat="47.51938" lon="-2.62173">
        <ele>54</ele>
        <time>2025-05-13T08:40:48Z</time>
      </trkpt>
      <trkpt lat="47.5194" lon="-2.62173">
        <ele>54</ele>
        <time>2025-05-13T08:40:49Z</time>
      </trkpt>
      <trkpt lat="47.51943" lon="-2.62172">
        <ele>54</ele>
        <time>2025-05-13T08:40:50Z</time>
      </trkpt>
      <trkpt lat="47.51946" lon="-2.62172">
        <ele>54</ele>
        <time>2025-05-13T08:40:51Z</time>
      </trkpt>
      <trkpt lat="47.51948" lon="-2.62171">
        <ele>54</ele>
        <time>2025-05-13T08:40:52Z</time>
      </trkpt>
      <trkpt lat="47.51951" lon="-2.62171">
        <ele>54</ele>
        <time>2025-05-13T08:40:53Z</time>
      </trkpt>
      <trkpt lat="47.51954" lon="-2.6217">
        <ele>55</ele>
        <time>2025-05-13T08:40:54Z</time>
      </trkpt>
      <trkpt lat="47.51957" lon="-2.62169">
        <ele>55</ele>
        <time>2025-05-13T08:40:55Z</time>
      </trkpt>
      <trkpt lat="47.51959" lon="-2.62169">
        <ele>55</ele>
        <time>2025-05-13T08:40:56Z</time>
      </trkpt>
      <trkpt lat="47.51962" lon="-2.62169">
        <ele>55</ele>
        <time>2025-05-13T08:40:57Z</time>
      </trkpt>
      <trkpt lat="47.51965" lon="-2.62168">
        <ele>55</ele>
        <time>2025-05-13T08:40:58Z</time>
      </trkpt>
      <trkpt lat="47.51967" lon="-2.62168">
        <ele>55</ele>
        <time>2025-05-13T08:40:59Z</time>
      </trkpt>
      <trkpt lat="47.5197" lon="-2.62168">
        <ele>55</ele>
        <time>2025-05-13T08:41:00Z</time>
      </trkpt>
      <trkpt lat="47.51973" lon="-2.62167">
        <ele>55</ele>
        <time>2025-05-13T08:41:01Z</time>
      </trkpt>
      <trkpt lat="47.51975" lon="-2.62167">
        <ele>55</ele>
        <time>2025-05-13T08:41:02Z</time>
      </trkpt>
      <trkpt lat="47.51978" lon="-2.62166">
        <ele>55</ele>
        <time>2025-05-13T08:41:03Z</time>
      </trkpt>
      <trkpt lat="47.51981" lon="-2.62166">
        <ele>55</ele>
        <time>2025-05-13T08:41:04Z</time>
      </trkpt>
      <trkpt lat="47.51983" lon="-2.62166">
        <ele>55</ele>
        <time>2025-05-13T08:41:05Z</time>
      </trkpt>
      <trkpt lat="47.51986" lon="-2.62165">
        <ele>55</ele>
        <time>2025-05-13T08:41:06Z</time>
      </trkpt>
      <trkpt lat="47.51988" lon="-2.62165">
        <ele>55</ele>
        <time>2025-05-13T08:41:07Z</time>
      </trkpt>
      <trkpt lat="47.5199" lon="-2.62165">
        <ele>54</ele>
        <time>2025-05-13T08:41:08Z</time>
      </trkpt>
      <trkpt lat="47.51992" lon="-2.62166">
        <ele>54</ele>
        <time>2025-05-13T08:41:09Z</time>
      </trkpt>
      <trkpt lat="47.51994" lon="-2.62167">
        <ele>54</ele>
        <time>2025-05-13T08:41:10Z</time>
      </trkpt>
      <trkpt lat="47.51996" lon="-2.62169">
        <ele>54</ele>
        <time>2025-05-13T08:41:11Z</time>
      </trkpt>
      <trkpt lat="47.51997" lon="-2.6217">
        <ele>54</ele>
        <time>2025-05-13T08:41:12Z</time>
      </trkpt>
      <trkpt lat="47.51998" lon="-2.62172">
        <ele>54</ele>
        <time>2025-05-13T08:41:13Z</time>
      </trkpt>
      <trkpt lat="47.51999" lon="-2.62173">
        <ele>54</ele>
        <time>2025-05-13T08:41:14Z</time>
      </trkpt>
      <trkpt lat="47.52" lon="-2.62175">
        <ele>54</ele>
        <time>2025-05-13T08:41:15Z</time>
      </trkpt>
      <trkpt lat="47.52" lon="-2.62177">
        <ele>55</ele>
        <time>2025-05-13T08:41:16Z</time>
      </trkpt>
      <trkpt lat="47.52001" lon="-2.62179">
        <ele>55</ele>
        <time>2025-05-13T08:41:17Z</time>
      </trkpt>
      <trkpt lat="47.52001" lon="-2.62181">
        <ele>54</ele>
        <time>2025-05-13T08:41:18Z</time>
      </trkpt>
      <trkpt lat="47.52001" lon="-2.62183">
        <ele>55</ele>
        <time>2025-05-13T08:41:19Z</time>
      </trkpt>
      <trkpt lat="47.52001" lon="-2.62185">
        <ele>55</ele>
        <time>2025-05-13T08:41:20Z</time>
      </trkpt>
      <trkpt lat="47.52" lon="-2.62187">
        <ele>55</ele>
        <time>2025-05-13T08:41:21Z</time>
      </trkpt>
      <trkpt lat="47.52" lon="-2.62189">
        <ele>55</ele>
        <time>2025-05-13T08:41:22Z</time>
      </trkpt>
      <trkpt lat="47.51999" lon="-2.62191">
        <ele>55</ele>
        <time>2025-05-13T08:41:23Z</time>
      </trkpt>
      <trkpt lat="47.51999" lon="-2.62193">
        <ele>55</ele>
        <time>2025-05-13T08:41:24Z</time>
      </trkpt>
      <trkpt lat="47.51998" lon="-2.62194">
        <ele>55</ele>
        <time>2025-05-13T08:41:25Z</time>
      </trkpt>
      <trkpt lat="47.51998" lon="-2.62196">
        <ele>55</ele>
        <time>2025-05-13T08:41:26Z</time>
      </trkpt>
      <trkpt lat="47.51997" lon="-2.62197">
        <ele>55</ele>
        <time>2025-05-13T08:41:27Z</time>
      </trkpt>
      <trkpt lat="47.51997" lon="-2.62199">
        <ele>55</ele>
        <time>2025-05-13T08:41:28Z</time>
      </trkpt>
      <trkpt lat="47.51996" lon="-2.622">
        <ele>55</ele>
        <time>2025-05-13T08:41:29Z</time>
      </trkpt>
      <trkpt lat="47.51996" lon="-2.62201">
        <ele>55</ele>
        <time>2025-05-13T08:41:30Z</time>
      </trkpt>
      <trkpt lat="47.51995" lon="-2.62202">
        <ele>55</ele>
        <time>2025-05-13T08:41:31Z</time>
      </trkpt>
      <trkpt lat="47.51995" lon="-2.62203">
        <ele>55</ele>
        <time>2025-05-13T08:41:32Z</time>
      </trkpt>
      <trkpt lat="47.51994" lon="-2.62204">
        <ele>54</ele>
        <time>2025-05-13T08:41:33Z</time>
      </trkpt>
      <trkpt lat="47.51994" lon="-2.62204">
        <ele>54</ele>
        <time>2025-05-13T08:41:34Z</time>
      </trkpt>
      <trkpt lat="47.51994" lon="-2.62205">
        <ele>54</ele>
        <time>2025-05-13T08:41:35Z</time>
      </trkpt>
      <trkpt lat="47.51994" lon="-2.62205">
        <ele>54</ele>
        <time>2025-05-13T08:41:36Z</time>
      </trkpt>
      <trkpt lat="47.51994" lon="-2.62205">
        <ele>54</ele>
        <time>2025-05-13T08:41:37Z</time>
      </trkpt>
      <trkpt lat="47.51994" lon="-2.62205">
        <ele>55</ele>
        <time>2025-05-13T08:41:38Z</time>
      </trkpt>
      <trkpt lat="47.51994" lon="-2.62205">
        <ele>55</ele>
        <time>2025-05-13T08:41:39Z</time>
      </trkpt>
      <trkpt lat="47.51994" lon="-2.62205">
        <ele>55</ele>
        <time>2025-05-13T08:41:40Z</time>
      </trkpt>
      <trkpt lat="47.51994" lon="-2.62205">
        <ele>54</ele>
        <time>2025-05-13T08:41:41Z</time>
      </trkpt>
      <trkpt lat="47.51994" lon="-2.62205">
        <ele>54</ele>
        <time>2025-05-13T08:41:42Z</time>
      </trkpt>
      <trkpt lat="47.51994" lon="-2.62205">
        <ele>54</ele>
        <time>2025-05-13T08:41:43Z</time>
      </trkpt>
      <trkpt lat="47.51994" lon="-2.62205">
        <ele>54</ele>
        <time>2025-05-13T08:41:44Z</time>
      </trkpt>
      <trkpt lat="47.51994" lon="-2.62205">
        <ele>54</ele>
        <time>2025-05-13T08:41:45Z</time>
      </trkpt>
      <trkpt lat="47.51994" lon="-2.62205">
        <ele>54</ele>
        <time>2025-05-13T08:41:46Z</time>
      </trkpt>
      <trkpt lat="47.51994" lon="-2.62205">
        <ele>54</ele>
        <time>2025-05-13T08:41:47Z</time>
      </trkpt>
      <trkpt lat="47.51994" lon="-2.62205">
        <ele>54</ele>
        <time>2025-05-13T08:41:48Z</time>
      </trkpt>
      <trkpt lat="47.51993" lon="-2.62205">
        <ele>54</ele>
        <time>2025-05-13T08:41:49Z</time>
      </trkpt>
      <trkpt lat="47.51993" lon="-2.62205">
        <ele>55</ele>
        <time>2025-05-13T08:41:50Z</time>
      </trkpt>
      <trkpt lat="47.51993" lon="-2.62205">
        <ele>55</ele>
        <time>2025-05-13T08:41:51Z</time>
      </trkpt>
      <trkpt lat="47.51993" lon="-2.62206">
        <ele>55</ele>
        <time>2025-05-13T08:41:52Z</time>
      </trkpt>
      <trkpt lat="47.51992" lon="-2.62207">
        <ele>55</ele>
        <time>2025-05-13T08:41:53Z</time>
      </trkpt>
      <trkpt lat="47.51992" lon="-2.62208">
        <ele>55</ele>
        <time>2025-05-13T08:41:54Z</time>
      </trkpt>
      <trkpt lat="47.51993" lon="-2.62208">
        <ele>55</ele>
        <time>2025-05-13T08:41:55Z</time>
      </trkpt>
      <trkpt lat="47.51993" lon="-2.62208">
        <ele>55</ele>
        <time>2025-05-13T08:41:56Z</time>
      </trkpt>
      <trkpt lat="47.51993" lon="-2.62209">
        <ele>55</ele>
        <time>2025-05-13T08:41:57Z</time>
      </trkpt>
      <trkpt lat="47.51993" lon="-2.62209">
        <ele>55</ele>
        <time>2025-05-13T08:41:58Z</time>
      </trkpt>
      <trkpt lat="47.51993" lon="-2.62209">
        <ele>55</ele>
        <time>2025-05-13T08:41:59Z</time>
      </trkpt>
      <trkpt lat="47.51993" lon="-2.62209">
        <ele>55</ele>
        <time>2025-05-13T08:42:00Z</time>
      </trkpt>
      <trkpt lat="47.51993" lon="-2.62209">
        <ele>55</ele>
        <time>2025-05-13T08:42:01Z</time>
      </trkpt>
      <trkpt lat="47.51993" lon="-2.62208">
        <ele>55</ele>
        <time>2025-05-13T08:42:02Z</time>
      </trkpt>
      <trkpt lat="47.51993" lon="-2.62208">
        <ele>55</ele>
        <time>2025-05-13T08:42:03Z</time>
      </trkpt>
      <trkpt lat="47.51993" lon="-2.62209">
        <ele>55</ele>
        <time>2025-05-13T08:42:04Z</time>
      </trkpt>
      <trkpt lat="47.51993" lon="-2.62209">
        <ele>55</ele>
        <time>2025-05-13T08:42:05Z</time>
      </trkpt>
      <trkpt lat="47.51993" lon="-2.62209">
        <ele>55</ele>
        <time>2025-05-13T08:42:06Z</time>
      </trkpt>
      <trkpt lat="47.51993" lon="-2.62209">
        <ele>55</ele>
        <time>2025-05-13T08:42:07Z</time>
      </trkpt>
      <trkpt lat="47.51993" lon="-2.62209">
        <ele>55</ele>
        <time>2025-05-13T08:42:08Z</time>
      </trkpt>
      <trkpt lat="47.51993" lon="-2.62209">
        <ele>55</ele>
        <time>2025-05-13T08:42:09Z</time>
      </trkpt>
      <trkpt lat="47.51993" lon="-2.62209">
        <ele>55</ele>
        <time>2025-05-13T08:42:10Z</time>
      </trkpt>
      <trkpt lat="47.51993" lon="-2.62209">
        <ele>55</ele>
        <time>2025-05-13T08:42:11Z</time>
      </trkpt>
      <trkpt lat="47.51993" lon="-2.62209">
        <ele>55</ele>
        <time>2025-05-13T08:42:12Z</time>
      </trkpt>
      <trkpt lat="47.51993" lon="-2.62209">
        <ele>55</ele>
        <time>2025-05-13T08:42:13Z</time>
      </trkpt>
      <trkpt lat="47.51993" lon="-2.62209">
        <ele>55</ele>
        <time>2025-05-13T08:42:14Z</time>
      </trkpt>
      <trkpt lat="47.51993" lon="-2.62209">
        <ele>55</ele>
        <time>2025-05-13T08:42:15Z</time>
      </trkpt>
      <trkpt lat="47.51993" lon="-2.62209">
        <ele>55</ele>
        <time>2025-05-13T08:42:16Z</time>
      </trkpt>
      <trkpt lat="47.51993" lon="-2.62209">
        <ele>55</ele>
        <time>2025-05-13T08:42:17Z</time>
      </trkpt>
      <trkpt lat="47.51993" lon="-2.62209">
        <ele>55</ele>
        <time>2025-05-13T08:42:18Z</time>
      </trkpt>
      <trkpt lat="47.51993" lon="-2.62209">
        <ele>55</ele>
        <time>2025-05-13T08:42:19Z</time>
      </trkpt>
      <trkpt lat="47.51993" lon="-2.62209">
        <ele>55</ele>
        <time>2025-05-13T08:42:20Z</time>
      </trkpt>
      <trkpt lat="47.51993" lon="-2.62209">
        <ele>55</ele>
        <time>2025-05-13T08:42:21Z</time>
      </trkpt>
      <trkpt lat="47.51993" lon="-2.62209">
        <ele>55</ele>
        <time>2025-05-13T08:42:22Z</time>
      </trkpt>
      <trkpt lat="47.51993" lon="-2.62209">
        <ele>55</ele>
        <time>2025-05-13T08:42:23Z</time>
      </trkpt>
      <trkpt lat="47.51993" lon="-2.62209">
        <ele>55</ele>
        <time>2025-05-13T08:42:24Z</time>
      </trkpt>
      <trkpt lat="47.51993" lon="-2.62209">
        <ele>55</ele>
        <time>2025-05-13T08:42:25Z</time>
      </trkpt>
      <trkpt lat="47.51994" lon="-2.62209">
        <ele>56</ele>
        <time>2025-05-13T08:42:26Z</time>
      </trkpt>
      <trkpt lat="47.52015" lon="-2.62265">
        <ele>60</ele>
        <time>2025-05-13T08:43:42Z</time>
      </trkpt>
      <trkpt lat="47.52015" lon="-2.62265">
        <ele>60</ele>
        <time>2025-05-13T08:43:43Z</time>
      </trkpt>
      <trkpt lat="47.52015" lon="-2.62265">
        <ele>60</ele>
        <time>2025-05-13T08:43:44Z</time>
      </trkpt>
      <trkpt lat="47.52015" lon="-2.62265">
        <ele>60</ele>
        <time>2025-05-13T08:43:45Z</time>
      </trkpt>
      <trkpt lat="47.52015" lon="-2.62265">
        <ele>60</ele>
        <time>2025-05-13T08:43:46Z</time>
      </trkpt>
      <trkpt lat="47.52018" lon="-2.62267">
        <ele>62</ele>
        <time>2025-05-13T08:43:47Z</time>
      </trkpt>
      <trkpt lat="47.5202" lon="-2.62268">
        <ele>62</ele>
        <time>2025-05-13T08:43:48Z</time>
      </trkpt>
      <trkpt lat="47.52021" lon="-2.6227">
        <ele>62</ele>
        <time>2025-05-13T08:43:49Z</time>
      </trkpt>
      <trkpt lat="47.52023" lon="-2.62271">
        <ele>61</ele>
        <time>2025-05-13T08:43:50Z</time>
      </trkpt>
      <trkpt lat="47.52025" lon="-2.62273">
        <ele>61</ele>
        <time>2025-05-13T08:43:51Z</time>
      </trkpt>
      <trkpt lat="47.52027" lon="-2.62275">
        <ele>60</ele>
        <time>2025-05-13T08:43:52Z</time>
      </trkpt>
      <trkpt lat="47.52029" lon="-2.62277">
        <ele>60</ele>
        <time>2025-05-13T08:43:53Z</time>
      </trkpt>
      <trkpt lat="47.52031" lon="-2.62279">
        <ele>59</ele>
        <time>2025-05-13T08:43:54Z</time>
      </trkpt>
      <trkpt lat="47.52033" lon="-2.6228">
        <ele>59</ele>
        <time>2025-05-13T08:43:55Z</time>
      </trkpt>
      <trkpt lat="47.52035" lon="-2.62282">
        <ele>59</ele>
        <time>2025-05-13T08:43:56Z</time>
      </trkpt>
      <trkpt lat="47.52037" lon="-2.62284">
        <ele>59</ele>
        <time>2025-05-13T08:43:57Z</time>
      </trkpt>
      <trkpt lat="47.5204" lon="-2.62286">
        <ele>59</ele>
        <time>2025-05-13T08:43:58Z</time>
      </trkpt>
      <trkpt lat="47.52042" lon="-2.62288">
        <ele>59</ele>
        <time>2025-05-13T08:43:59Z</time>
      </trkpt>
      <trkpt lat="47.52044" lon="-2.62289">
        <ele>59</ele>
        <time>2025-05-13T08:44:00Z</time>
      </trkpt>
      <trkpt lat="47.52046" lon="-2.62291">
        <ele>59</ele>
        <time>2025-05-13T08:44:01Z</time>
      </trkpt>
      <trkpt lat="47.52049" lon="-2.62294">
        <ele>59</ele>
        <time>2025-05-13T08:44:02Z</time>
      </trkpt>
      <trkpt lat="47.52052" lon="-2.62296">
        <ele>59</ele>
        <time>2025-05-13T08:44:03Z</time>
      </trkpt>
      <trkpt lat="47.52054" lon="-2.62299">
        <ele>60</ele>
        <time>2025-05-13T08:44:04Z</time>
      </trkpt>
      <trkpt lat="47.52056" lon="-2.62301">
        <ele>60</ele>
        <time>2025-05-13T08:44:05Z</time>
      </trkpt>
      <trkpt lat="47.52059" lon="-2.62304">
        <ele>60</ele>
        <time>2025-05-13T08:44:06Z</time>
      </trkpt>
      <trkpt lat="47.52061" lon="-2.62306">
        <ele>60</ele>
        <time>2025-05-13T08:44:07Z</time>
      </trkpt>
      <trkpt lat="47.52064" lon="-2.62309">
        <ele>60</ele>
        <time>2025-05-13T08:44:08Z</time>
      </trkpt>
      <trkpt lat="47.52067" lon="-2.62312">
        <ele>61</ele>
        <time>2025-05-13T08:44:09Z</time>
      </trkpt>
      <trkpt lat="47.5207" lon="-2.62315">
        <ele>61</ele>
        <time>2025-05-13T08:44:10Z</time>
      </trkpt>
      <trkpt lat="47.52073" lon="-2.62318">
        <ele>62</ele>
        <time>2025-05-13T08:44:11Z</time>
      </trkpt>
      <trkpt lat="47.52075" lon="-2.62321">
        <ele>63</ele>
        <time>2025-05-13T08:44:12Z</time>
      </trkpt>
      <trkpt lat="47.52079" lon="-2.62324">
        <ele>63</ele>
        <time>2025-05-13T08:44:13Z</time>
      </trkpt>
      <trkpt lat="47.52082" lon="-2.62327">
        <ele>63</ele>
        <time>2025-05-13T08:44:14Z</time>
      </trkpt>
      <trkpt lat="47.52086" lon="-2.6233">
        <ele>63</ele>
        <time>2025-05-13T08:44:15Z</time>
      </trkpt>
      <trkpt lat="47.5209" lon="-2.62333">
        <ele>63</ele>
        <time>2025-05-13T08:44:16Z</time>
      </trkpt>
      <trkpt lat="47.52093" lon="-2.62335">
        <ele>62</ele>
        <time>2025-05-13T08:44:17Z</time>
      </trkpt>
      <trkpt lat="47.52097" lon="-2.62338">
        <ele>62</ele>
        <time>2025-05-13T08:44:18Z</time>
      </trkpt>
      <trkpt lat="47.52101" lon="-2.62341">
        <ele>62</ele>
        <time>2025-05-13T08:44:19Z</time>
      </trkpt>
      <trkpt lat="47.52104" lon="-2.62344">
        <ele>62</ele>
        <time>2025-05-13T08:44:20Z</time>
      </trkpt>
      <trkpt lat="47.52108" lon="-2.62347">
        <ele>62</ele>
        <time>2025-05-13T08:44:21Z</time>
      </trkpt>
      <trkpt lat="47.52112" lon="-2.6235">
        <ele>62</ele>
        <time>2025-05-13T08:44:22Z</time>
      </trkpt>
      <trkpt lat="47.52115" lon="-2.62353">
        <ele>62</ele>
        <time>2025-05-13T08:44:23Z</time>
      </trkpt>
      <trkpt lat="47.52119" lon="-2.62357">
        <ele>62</ele>
        <time>2025-05-13T08:44:24Z</time>
      </trkpt>
      <trkpt lat="47.52122" lon="-2.6236">
        <ele>61</ele>
        <time>2025-05-13T08:44:25Z</time>
      </trkpt>
      <trkpt lat="47.52126" lon="-2.62364">
        <ele>61</ele>
        <time>2025-05-13T08:44:26Z</time>
      </trkpt>
      <trkpt lat="47.52129" lon="-2.62367">
        <ele>61</ele>
        <time>2025-05-13T08:44:27Z</time>
      </trkpt>
      <trkpt lat="47.52133" lon="-2.62371">
        <ele>61</ele>
        <time>2025-05-13T08:44:28Z</time>
      </trkpt>
      <trkpt lat="47.52136" lon="-2.62374">
        <ele>61</ele>
        <time>2025-05-13T08:44:29Z</time>
      </trkpt>
      <trkpt lat="47.5214" lon="-2.62377">
        <ele>61</ele>
        <time>2025-05-13T08:44:30Z</time>
      </trkpt>
      <trkpt lat="47.52144" lon="-2.6238">
        <ele>61</ele>
        <time>2025-05-13T08:44:31Z</time>
      </trkpt>
      <trkpt lat="47.52147" lon="-2.62383">
        <ele>61</ele>
        <time>2025-05-13T08:44:32Z</time>
      </trkpt>
      <trkpt lat="47.52151" lon="-2.62387">
        <ele>61</ele>
        <time>2025-05-13T08:44:33Z</time>
      </trkpt>
      <trkpt lat="47.52154" lon="-2.6239">
        <ele>60</ele>
        <time>2025-05-13T08:44:34Z</time>
      </trkpt>
      <trkpt lat="47.52158" lon="-2.62393">
        <ele>60</ele>
        <time>2025-05-13T08:44:35Z</time>
      </trkpt>
      <trkpt lat="47.52162" lon="-2.62396">
        <ele>60</ele>
        <time>2025-05-13T08:44:36Z</time>
      </trkpt>
      <trkpt lat="47.52166" lon="-2.62399">
        <ele>60</ele>
        <time>2025-05-13T08:44:37Z</time>
      </trkpt>
      <trkpt lat="47.5217" lon="-2.62401">
        <ele>60</ele>
        <time>2025-05-13T08:44:38Z</time>
      </trkpt>
      <trkpt lat="47.52174" lon="-2.62403">
        <ele>60</ele>
        <time>2025-05-13T08:44:39Z</time>
      </trkpt>
      <trkpt lat="47.52178" lon="-2.62405">
        <ele>60</ele>
        <time>2025-05-13T08:44:40Z</time>
      </trkpt>
      <trkpt lat="47.52182" lon="-2.62406">
        <ele>60</ele>
        <time>2025-05-13T08:44:41Z</time>
      </trkpt>
      <trkpt lat="47.52187" lon="-2.62408">
        <ele>60</ele>
        <time>2025-05-13T08:44:42Z</time>
      </trkpt>
      <trkpt lat="47.52191" lon="-2.62409">
        <ele>60</ele>
        <time>2025-05-13T08:44:43Z</time>
      </trkpt>
      <trkpt lat="47.52195" lon="-2.6241">
        <ele>60</ele>
        <time>2025-05-13T08:44:44Z</time>
      </trkpt>
      <trkpt lat="47.52199" lon="-2.62411">
        <ele>60</ele>
        <time>2025-05-13T08:44:45Z</time>
      </trkpt>
      <trkpt lat="47.52203" lon="-2.62412">
        <ele>59</ele>
        <time>2025-05-13T08:44:46Z</time>
      </trkpt>
      <trkpt lat="47.52207" lon="-2.62413">
        <ele>59</ele>
        <time>2025-05-13T08:44:47Z</time>
      </trkpt>
      <trkpt lat="47.52211" lon="-2.62414">
        <ele>60</ele>
        <time>2025-05-13T08:44:48Z</time>
      </trkpt>
      <trkpt lat="47.52215" lon="-2.62415">
        <ele>60</ele>
        <time>2025-05-13T08:44:49Z</time>
      </trkpt>
      <trkpt lat="47.52219" lon="-2.62416">
        <ele>59</ele>
        <time>2025-05-13T08:44:50Z</time>
      </trkpt>
      <trkpt lat="47.52223" lon="-2.62417">
        <ele>59</ele>
        <time>2025-05-13T08:44:51Z</time>
      </trkpt>
      <trkpt lat="47.52227" lon="-2.62418">
        <ele>59</ele>
        <time>2025-05-13T08:44:52Z</time>
      </trkpt>
      <trkpt lat="47.52231" lon="-2.62419">
        <ele>59</ele>
        <time>2025-05-13T08:44:53Z</time>
      </trkpt>
      <trkpt lat="47.52235" lon="-2.62419">
        <ele>59</ele>
        <time>2025-05-13T08:44:54Z</time>
      </trkpt>
      <trkpt lat="47.52239" lon="-2.6242">
        <ele>59</ele>
        <time>2025-05-13T08:44:55Z</time>
      </trkpt>
      <trkpt lat="47.52243" lon="-2.6242">
        <ele>58</ele>
        <time>2025-05-13T08:44:56Z</time>
      </trkpt>
      <trkpt lat="47.52246" lon="-2.6242">
        <ele>59</ele>
        <time>2025-05-13T08:44:57Z</time>
      </trkpt>
      <trkpt lat="47.5225" lon="-2.6242">
        <ele>58</ele>
        <time>2025-05-13T08:44:58Z</time>
      </trkpt>
      <trkpt lat="47.52254" lon="-2.6242">
        <ele>59</ele>
        <time>2025-05-13T08:44:59Z</time>
      </trkpt>
      <trkpt lat="47.52258" lon="-2.6242">
        <ele>59</ele>
        <time>2025-05-13T08:45:00Z</time>
      </trkpt>
      <trkpt lat="47.52261" lon="-2.62421">
        <ele>59</ele>
        <time>2025-05-13T08:45:01Z</time>
      </trkpt>
      <trkpt lat="47.52265" lon="-2.62422">
        <ele>59</ele>
        <time>2025-05-13T08:45:02Z</time>
      </trkpt>
      <trkpt lat="47.52268" lon="-2.62425">
        <ele>59</ele>
        <time>2025-05-13T08:45:03Z</time>
      </trkpt>
      <trkpt lat="47.52271" lon="-2.62428">
        <ele>59</ele>
        <time>2025-05-13T08:45:04Z</time>
      </trkpt>
      <trkpt lat="47.52273" lon="-2.62434">
        <ele>59</ele>
        <time>2025-05-13T08:45:05Z</time>
      </trkpt>
      <trkpt lat="47.52274" lon="-2.62439">
        <ele>58</ele>
        <time>2025-05-13T08:45:06Z</time>
      </trkpt>
      <trkpt lat="47.52276" lon="-2.62446">
        <ele>58</ele>
        <time>2025-05-13T08:45:07Z</time>
      </trkpt>
      <trkpt lat="47.52276" lon="-2.62452">
        <ele>58</ele>
        <time>2025-05-13T08:45:08Z</time>
      </trkpt>
      <trkpt lat="47.52277" lon="-2.62459">
        <ele>59</ele>
        <time>2025-05-13T08:45:09Z</time>
      </trkpt>
      <trkpt lat="47.52277" lon="-2.62465">
        <ele>59</ele>
        <time>2025-05-13T08:45:10Z</time>
      </trkpt>
      <trkpt lat="47.52277" lon="-2.62471">
        <ele>59</ele>
        <time>2025-05-13T08:45:11Z</time>
      </trkpt>
      <trkpt lat="47.52277" lon="-2.62478">
        <ele>59</ele>
        <time>2025-05-13T08:45:12Z</time>
      </trkpt>
      <trkpt lat="47.52278" lon="-2.62484">
        <ele>59</ele>
        <time>2025-05-13T08:45:13Z</time>
      </trkpt>
      <trkpt lat="47.52278" lon="-2.6249">
        <ele>59</ele>
        <time>2025-05-13T08:45:14Z</time>
      </trkpt>
      <trkpt lat="47.52278" lon="-2.62496">
        <ele>59</ele>
        <time>2025-05-13T08:45:15Z</time>
      </trkpt>
      <trkpt lat="47.52278" lon="-2.62503">
        <ele>59</ele>
        <time>2025-05-13T08:45:16Z</time>
      </trkpt>
      <trkpt lat="47.52279" lon="-2.62509">
        <ele>59</ele>
        <time>2025-05-13T08:45:17Z</time>
      </trkpt>
      <trkpt lat="47.52279" lon="-2.62514">
        <ele>59</ele>
        <time>2025-05-13T08:45:18Z</time>
      </trkpt>
      <trkpt lat="47.5228" lon="-2.6252">
        <ele>59</ele>
        <time>2025-05-13T08:45:19Z</time>
      </trkpt>
      <trkpt lat="47.52281" lon="-2.62526">
        <ele>59</ele>
        <time>2025-05-13T08:45:20Z</time>
      </trkpt>
      <trkpt lat="47.52282" lon="-2.62532">
        <ele>58</ele>
        <time>2025-05-13T08:45:21Z</time>
      </trkpt>
      <trkpt lat="47.52284" lon="-2.62537">
        <ele>58</ele>
        <time>2025-05-13T08:45:22Z</time>
      </trkpt>
      <trkpt lat="47.52286" lon="-2.62542">
        <ele>58</ele>
        <time>2025-05-13T08:45:23Z</time>
      </trkpt>
      <trkpt lat="47.52288" lon="-2.62548">
        <ele>58</ele>
        <time>2025-05-13T08:45:24Z</time>
      </trkpt>
      <trkpt lat="47.52291" lon="-2.62554">
        <ele>58</ele>
        <time>2025-05-13T08:45:25Z</time>
      </trkpt>
      <trkpt lat="47.52293" lon="-2.62559">
        <ele>59</ele>
        <time>2025-05-13T08:45:26Z</time>
      </trkpt>
      <trkpt lat="47.52296" lon="-2.62564">
        <ele>59</ele>
        <time>2025-05-13T08:45:27Z</time>
      </trkpt>
      <trkpt lat="47.523" lon="-2.6257">
        <ele>60</ele>
        <time>2025-05-13T08:45:28Z</time>
      </trkpt>
      <trkpt lat="47.52303" lon="-2.62575">
        <ele>60</ele>
        <time>2025-05-13T08:45:29Z</time>
      </trkpt>
      <trkpt lat="47.52306" lon="-2.6258">
        <ele>60</ele>
        <time>2025-05-13T08:45:30Z</time>
      </trkpt>
      <trkpt lat="47.5231" lon="-2.62585">
        <ele>60</ele>
        <time>2025-05-13T08:45:31Z</time>
      </trkpt>
      <trkpt lat="47.52314" lon="-2.62589">
        <ele>60</ele>
        <time>2025-05-13T08:45:32Z</time>
      </trkpt>
      <trkpt lat="47.52319" lon="-2.62593">
        <ele>60</ele>
        <time>2025-05-13T08:45:33Z</time>
      </trkpt>
      <trkpt lat="47.52322" lon="-2.62596">
        <ele>60</ele>
        <time>2025-05-13T08:45:34Z</time>
      </trkpt>
      <trkpt lat="47.52326" lon="-2.626">
        <ele>59</ele>
        <time>2025-05-13T08:45:35Z</time>
      </trkpt>
      <trkpt lat="47.52331" lon="-2.62604">
        <ele>60</ele>
        <time>2025-05-13T08:45:36Z</time>
      </trkpt>
      <trkpt lat="47.52336" lon="-2.62608">
        <ele>59</ele>
        <time>2025-05-13T08:45:37Z</time>
      </trkpt>
      <trkpt lat="47.5234" lon="-2.62612">
        <ele>59</ele>
        <time>2025-05-13T08:45:38Z</time>
      </trkpt>
      <trkpt lat="47.52345" lon="-2.62615">
        <ele>59</ele>
        <time>2025-05-13T08:45:39Z</time>
      </trkpt>
      <trkpt lat="47.5235" lon="-2.62619">
        <ele>59</ele>
        <time>2025-05-13T08:45:40Z</time>
      </trkpt>
      <trkpt lat="47.52354" lon="-2.62622">
        <ele>57</ele>
        <time>2025-05-13T08:45:41Z</time>
      </trkpt>
      <trkpt lat="47.52359" lon="-2.62626">
        <ele>57</ele>
        <time>2025-05-13T08:45:42Z</time>
      </trkpt>
      <trkpt lat="47.52364" lon="-2.6263">
        <ele>57</ele>
        <time>2025-05-13T08:45:43Z</time>
      </trkpt>
      <trkpt lat="47.52368" lon="-2.62634">
        <ele>57</ele>
        <time>2025-05-13T08:45:44Z</time>
      </trkpt>
      <trkpt lat="47.52373" lon="-2.62639">
        <ele>57</ele>
        <time>2025-05-13T08:45:45Z</time>
      </trkpt>
      <trkpt lat="47.52377" lon="-2.62645">
        <ele>57</ele>
        <time>2025-05-13T08:45:46Z</time>
      </trkpt>
      <trkpt lat="47.52381" lon="-2.6265">
        <ele>57</ele>
        <time>2025-05-13T08:45:47Z</time>
      </trkpt>
      <trkpt lat="47.52384" lon="-2.62656">
        <ele>56</ele>
        <time>2025-05-13T08:45:48Z</time>
      </trkpt>
      <trkpt lat="47.52388" lon="-2.62662">
        <ele>56</ele>
        <time>2025-05-13T08:45:49Z</time>
      </trkpt>
      <trkpt lat="47.52391" lon="-2.62668">
        <ele>56</ele>
        <time>2025-05-13T08:45:50Z</time>
      </trkpt>
      <trkpt lat="47.52394" lon="-2.62674">
        <ele>56</ele>
        <time>2025-05-13T08:45:51Z</time>
      </trkpt>
      <trkpt lat="47.52397" lon="-2.6268">
        <ele>56</ele>
        <time>2025-05-13T08:45:52Z</time>
      </trkpt>
      <trkpt lat="47.524" lon="-2.62687">
        <ele>57</ele>
        <time>2025-05-13T08:45:53Z</time>
      </trkpt>
      <trkpt lat="47.52403" lon="-2.62693">
        <ele>56</ele>
        <time>2025-05-13T08:45:54Z</time>
      </trkpt>
      <trkpt lat="47.52406" lon="-2.627">
        <ele>56</ele>
        <time>2025-05-13T08:45:55Z</time>
      </trkpt>
      <trkpt lat="47.52409" lon="-2.62706">
        <ele>56</ele>
        <time>2025-05-13T08:45:56Z</time>
      </trkpt>
      <trkpt lat="47.52412" lon="-2.62712">
        <ele>56</ele>
        <time>2025-05-13T08:45:57Z</time>
      </trkpt>
      <trkpt lat="47.52414" lon="-2.62718">
        <ele>55</ele>
        <time>2025-05-13T08:45:58Z</time>
      </trkpt>
      <trkpt lat="47.52417" lon="-2.62725">
        <ele>55</ele>
        <time>2025-05-13T08:45:59Z</time>
      </trkpt>
      <trkpt lat="47.5242" lon="-2.62732">
        <ele>55</ele>
        <time>2025-05-13T08:46:00Z</time>
      </trkpt>
      <trkpt lat="47.52422" lon="-2.62739">
        <ele>56</ele>
        <time>2025-05-13T08:46:01Z</time>
      </trkpt>
      <trkpt lat="47.52425" lon="-2.62746">
        <ele>56</ele>
        <time>2025-05-13T08:46:02Z</time>
      </trkpt>
      <trkpt lat="47.52427" lon="-2.62753">
        <ele>56</ele>
        <time>2025-05-13T08:46:03Z</time>
      </trkpt>
      <trkpt lat="47.5243" lon="-2.6276">
        <ele>56</ele>
        <time>2025-05-13T08:46:04Z</time>
      </trkpt>
      <trkpt lat="47.52432" lon="-2.62766">
        <ele>56</ele>
        <time>2025-05-13T08:46:05Z</time>
      </trkpt>
      <trkpt lat="47.52435" lon="-2.62773">
        <ele>56</ele>
        <time>2025-05-13T08:46:06Z</time>
      </trkpt>
      <trkpt lat="47.52438" lon="-2.6278">
        <ele>56</ele>
        <time>2025-05-13T08:46:07Z</time>
      </trkpt>
      <trkpt lat="47.5244" lon="-2.62788">
        <ele>56</ele>
        <time>2025-05-13T08:46:08Z</time>
      </trkpt>
      <trkpt lat="47.52442" lon="-2.62795">
        <ele>56</ele>
        <time>2025-05-13T08:46:09Z</time>
      </trkpt>
      <trkpt lat="47.52444" lon="-2.62802">
        <ele>56</ele>
        <time>2025-05-13T08:46:10Z</time>
      </trkpt>
      <trkpt lat="47.52446" lon="-2.62809">
        <ele>56</ele>
        <time>2025-05-13T08:46:11Z</time>
      </trkpt>
      <trkpt lat="47.52448" lon="-2.62816">
        <ele>56</ele>
        <time>2025-05-13T08:46:12Z</time>
      </trkpt>
      <trkpt lat="47.5245" lon="-2.62822">
        <ele>56</ele>
        <time>2025-05-13T08:46:13Z</time>
      </trkpt>
      <trkpt lat="47.52452" lon="-2.62829">
        <ele>57</ele>
        <time>2025-05-13T08:46:14Z</time>
      </trkpt>
      <trkpt lat="47.52455" lon="-2.62834">
        <ele>57</ele>
        <time>2025-05-13T08:46:15Z</time>
      </trkpt>
      <trkpt lat="47.52457" lon="-2.6284">
        <ele>57</ele>
        <time>2025-05-13T08:46:16Z</time>
      </trkpt>
      <trkpt lat="47.52459" lon="-2.62846">
        <ele>57</ele>
        <time>2025-05-13T08:46:17Z</time>
      </trkpt>
      <trkpt lat="47.52461" lon="-2.62852">
        <ele>57</ele>
        <time>2025-05-13T08:46:18Z</time>
      </trkpt>
      <trkpt lat="47.52463" lon="-2.62858">
        <ele>57</ele>
        <time>2025-05-13T08:46:19Z</time>
      </trkpt>
      <trkpt lat="47.52464" lon="-2.62865">
        <ele>57</ele>
        <time>2025-05-13T08:46:20Z</time>
      </trkpt>
      <trkpt lat="47.52466" lon="-2.62871">
        <ele>57</ele>
        <time>2025-05-13T08:46:21Z</time>
      </trkpt>
      <trkpt lat="47.52467" lon="-2.62878">
        <ele>57</ele>
        <time>2025-05-13T08:46:22Z</time>
      </trkpt>
      <trkpt lat="47.52467" lon="-2.62885">
        <ele>57</ele>
        <time>2025-05-13T08:46:23Z</time>
      </trkpt>
      <trkpt lat="47.52468" lon="-2.62892">
        <ele>57</ele>
        <time>2025-05-13T08:46:24Z</time>
      </trkpt>
      <trkpt lat="47.52469" lon="-2.62898">
        <ele>58</ele>
        <time>2025-05-13T08:46:25Z</time>
      </trkpt>
      <trkpt lat="47.5247" lon="-2.62905">
        <ele>58</ele>
        <time>2025-05-13T08:46:26Z</time>
      </trkpt>
      <trkpt lat="47.52471" lon="-2.62912">
        <ele>58</ele>
        <time>2025-05-13T08:46:27Z</time>
      </trkpt>
      <trkpt lat="47.52471" lon="-2.62918">
        <ele>58</ele>
        <time>2025-05-13T08:46:28Z</time>
      </trkpt>
      <trkpt lat="47.52472" lon="-2.62925">
        <ele>58</ele>
        <time>2025-05-13T08:46:29Z</time>
      </trkpt>
      <trkpt lat="47.52473" lon="-2.62932">
        <ele>58</ele>
        <time>2025-05-13T08:46:30Z</time>
      </trkpt>
      <trkpt lat="47.52474" lon="-2.62939">
        <ele>58</ele>
        <time>2025-05-13T08:46:31Z</time>
      </trkpt>
      <trkpt lat="47.52475" lon="-2.62945">
        <ele>59</ele>
        <time>2025-05-13T08:46:32Z</time>
      </trkpt>
      <trkpt lat="47.52475" lon="-2.62951">
        <ele>58</ele>
        <time>2025-05-13T08:46:33Z</time>
      </trkpt>
      <trkpt lat="47.52476" lon="-2.62958">
        <ele>58</ele>
        <time>2025-05-13T08:46:34Z</time>
      </trkpt>
      <trkpt lat="47.52476" lon="-2.62964">
        <ele>58</ele>
        <time>2025-05-13T08:46:35Z</time>
      </trkpt>
      <trkpt lat="47.52477" lon="-2.6297">
        <ele>58</ele>
        <time>2025-05-13T08:46:36Z</time>
      </trkpt>
      <trkpt lat="47.52477" lon="-2.62977">
        <ele>58</ele>
        <time>2025-05-13T08:46:37Z</time>
      </trkpt>
      <trkpt lat="47.52478" lon="-2.62984">
        <ele>58</ele>
        <time>2025-05-13T08:46:38Z</time>
      </trkpt>
      <trkpt lat="47.52479" lon="-2.6299">
        <ele>59</ele>
        <time>2025-05-13T08:46:39Z</time>
      </trkpt>
      <trkpt lat="47.52479" lon="-2.62997">
        <ele>59</ele>
        <time>2025-05-13T08:46:40Z</time>
      </trkpt>
      <trkpt lat="47.5248" lon="-2.63003">
        <ele>59</ele>
        <time>2025-05-13T08:46:41Z</time>
      </trkpt>
      <trkpt lat="47.5248" lon="-2.63009">
        <ele>59</ele>
        <time>2025-05-13T08:46:42Z</time>
      </trkpt>
      <trkpt lat="47.52481" lon="-2.63016">
        <ele>59</ele>
        <time>2025-05-13T08:46:43Z</time>
      </trkpt>
      <trkpt lat="47.52481" lon="-2.63023">
        <ele>59</ele>
        <time>2025-05-13T08:46:44Z</time>
      </trkpt>
      <trkpt lat="47.52481" lon="-2.63029">
        <ele>59</ele>
        <time>2025-05-13T08:46:45Z</time>
      </trkpt>
      <trkpt lat="47.52482" lon="-2.63035">
        <ele>59</ele>
        <time>2025-05-13T08:46:46Z</time>
      </trkpt>
      <trkpt lat="47.52482" lon="-2.63042">
        <ele>59</ele>
        <time>2025-05-13T08:46:47Z</time>
      </trkpt>
      <trkpt lat="47.52483" lon="-2.63049">
        <ele>59</ele>
        <time>2025-05-13T08:46:48Z</time>
      </trkpt>
      <trkpt lat="47.52484" lon="-2.63055">
        <ele>59</ele>
        <time>2025-05-13T08:46:49Z</time>
      </trkpt>
      <trkpt lat="47.52484" lon="-2.63062">
        <ele>59</ele>
        <time>2025-05-13T08:46:50Z</time>
      </trkpt>
      <trkpt lat="47.52485" lon="-2.63069">
        <ele>59</ele>
        <time>2025-05-13T08:46:51Z</time>
      </trkpt>
      <trkpt lat="47.52485" lon="-2.63076">
        <ele>59</ele>
        <time>2025-05-13T08:46:52Z</time>
      </trkpt>
      <trkpt lat="47.52486" lon="-2.63082">
        <ele>59</ele>
        <time>2025-05-13T08:46:53Z</time>
      </trkpt>
      <trkpt lat="47.52486" lon="-2.63089">
        <ele>59</ele>
        <time>2025-05-13T08:46:54Z</time>
      </trkpt>
      <trkpt lat="47.52487" lon="-2.63095">
        <ele>59</ele>
        <time>2025-05-13T08:46:55Z</time>
      </trkpt>
      <trkpt lat="47.52488" lon="-2.63102">
        <ele>59</ele>
        <time>2025-05-13T08:46:56Z</time>
      </trkpt>
      <trkpt lat="47.52489" lon="-2.63108">
        <ele>59</ele>
        <time>2025-05-13T08:46:57Z</time>
      </trkpt>
      <trkpt lat="47.5249" lon="-2.63115">
        <ele>59</ele>
        <time>2025-05-13T08:46:58Z</time>
      </trkpt>
      <trkpt lat="47.52491" lon="-2.63122">
        <ele>59</ele>
        <time>2025-05-13T08:46:59Z</time>
      </trkpt>
      <trkpt lat="47.52492" lon="-2.63128">
        <ele>58</ele>
        <time>2025-05-13T08:47:00Z</time>
      </trkpt>
      <trkpt lat="47.52493" lon="-2.63135">
        <ele>59</ele>
        <time>2025-05-13T08:47:01Z</time>
      </trkpt>
      <trkpt lat="47.52494" lon="-2.63142">
        <ele>58</ele>
        <time>2025-05-13T08:47:02Z</time>
      </trkpt>
      <trkpt lat="47.52495" lon="-2.63148">
        <ele>58</ele>
        <time>2025-05-13T08:47:03Z</time>
      </trkpt>
      <trkpt lat="47.52496" lon="-2.63155">
        <ele>58</ele>
        <time>2025-05-13T08:47:04Z</time>
      </trkpt>
      <trkpt lat="47.52497" lon="-2.63162">
        <ele>58</ele>
        <time>2025-05-13T08:47:05Z</time>
      </trkpt>
      <trkpt lat="47.52499" lon="-2.63169">
        <ele>58</ele>
        <time>2025-05-13T08:47:06Z</time>
      </trkpt>
      <trkpt lat="47.525" lon="-2.63176">
        <ele>57</ele>
        <time>2025-05-13T08:47:07Z</time>
      </trkpt>
      <trkpt lat="47.52501" lon="-2.63183">
        <ele>58</ele>
        <time>2025-05-13T08:47:08Z</time>
      </trkpt>
      <trkpt lat="47.52502" lon="-2.6319">
        <ele>58</ele>
        <time>2025-05-13T08:47:09Z</time>
      </trkpt>
      <trkpt lat="47.52503" lon="-2.63196">
        <ele>58</ele>
        <time>2025-05-13T08:47:10Z</time>
      </trkpt>
      <trkpt lat="47.52504" lon="-2.63203">
        <ele>58</ele>
        <time>2025-05-13T08:47:11Z</time>
      </trkpt>
      <trkpt lat="47.52505" lon="-2.6321">
        <ele>58</ele>
        <time>2025-05-13T08:47:12Z</time>
      </trkpt>
      <trkpt lat="47.52506" lon="-2.63217">
        <ele>58</ele>
        <time>2025-05-13T08:47:13Z</time>
      </trkpt>
      <trkpt lat="47.52507" lon="-2.63223">
        <ele>58</ele>
        <time>2025-05-13T08:47:14Z</time>
      </trkpt>
      <trkpt lat="47.52508" lon="-2.6323">
        <ele>58</ele>
        <time>2025-05-13T08:47:15Z</time>
      </trkpt>
      <trkpt lat="47.52509" lon="-2.63236">
        <ele>58</ele>
        <time>2025-05-13T08:47:16Z</time>
      </trkpt>
      <trkpt lat="47.5251" lon="-2.63243">
        <ele>58</ele>
        <time>2025-05-13T08:47:17Z</time>
      </trkpt>
      <trkpt lat="47.52512" lon="-2.63249">
        <ele>59</ele>
        <time>2025-05-13T08:47:18Z</time>
      </trkpt>
      <trkpt lat="47.52513" lon="-2.63255">
        <ele>59</ele>
        <time>2025-05-13T08:47:19Z</time>
      </trkpt>
      <trkpt lat="47.52514" lon="-2.63261">
        <ele>59</ele>
        <time>2025-05-13T08:47:20Z</time>
      </trkpt>
      <trkpt lat="47.52515" lon="-2.63268">
        <ele>59</ele>
        <time>2025-05-13T08:47:21Z</time>
      </trkpt>
      <trkpt lat="47.52516" lon="-2.63274">
        <ele>59</ele>
        <time>2025-05-13T08:47:22Z</time>
      </trkpt>
      <trkpt lat="47.52517" lon="-2.63281">
        <ele>59</ele>
        <time>2025-05-13T08:47:23Z</time>
      </trkpt>
      <trkpt lat="47.52518" lon="-2.63287">
        <ele>59</ele>
        <time>2025-05-13T08:47:24Z</time>
      </trkpt>
      <trkpt lat="47.52519" lon="-2.63293">
        <ele>59</ele>
        <time>2025-05-13T08:47:25Z</time>
      </trkpt>
      <trkpt lat="47.5252" lon="-2.633">
        <ele>59</ele>
        <time>2025-05-13T08:47:26Z</time>
      </trkpt>
      <trkpt lat="47.52521" lon="-2.63306">
        <ele>59</ele>
        <time>2025-05-13T08:47:27Z</time>
      </trkpt>
      <trkpt lat="47.52521" lon="-2.63311">
        <ele>59</ele>
        <time>2025-05-13T08:47:28Z</time>
      </trkpt>
      <trkpt lat="47.52522" lon="-2.63317">
        <ele>59</ele>
        <time>2025-05-13T08:47:29Z</time>
      </trkpt>
      <trkpt lat="47.52523" lon="-2.63323">
        <ele>59</ele>
        <time>2025-05-13T08:47:30Z</time>
      </trkpt>
      <trkpt lat="47.52523" lon="-2.63329">
        <ele>60</ele>
        <time>2025-05-13T08:47:31Z</time>
      </trkpt>
      <trkpt lat="47.52524" lon="-2.63334">
        <ele>60</ele>
        <time>2025-05-13T08:47:32Z</time>
      </trkpt>
      <trkpt lat="47.52525" lon="-2.63339">
        <ele>60</ele>
        <time>2025-05-13T08:47:33Z</time>
      </trkpt>
      <trkpt lat="47.52525" lon="-2.63344">
        <ele>60</ele>
        <time>2025-05-13T08:47:34Z</time>
      </trkpt>
      <trkpt lat="47.52527" lon="-2.63349">
        <ele>60</ele>
        <time>2025-05-13T08:47:35Z</time>
      </trkpt>
      <trkpt lat="47.52528" lon="-2.63353">
        <ele>60</ele>
        <time>2025-05-13T08:47:36Z</time>
      </trkpt>
      <trkpt lat="47.52529" lon="-2.63358">
        <ele>59</ele>
        <time>2025-05-13T08:47:37Z</time>
      </trkpt>
      <trkpt lat="47.5253" lon="-2.63363">
        <ele>60</ele>
        <time>2025-05-13T08:47:38Z</time>
      </trkpt>
      <trkpt lat="47.52531" lon="-2.63368">
        <ele>60</ele>
        <time>2025-05-13T08:47:39Z</time>
      </trkpt>
      <trkpt lat="47.52531" lon="-2.63372">
        <ele>60</ele>
        <time>2025-05-13T08:47:40Z</time>
      </trkpt>
      <trkpt lat="47.52532" lon="-2.63376">
        <ele>60</ele>
        <time>2025-05-13T08:47:41Z</time>
      </trkpt>
      <trkpt lat="47.52532" lon="-2.6338">
        <ele>60</ele>
        <time>2025-05-13T08:47:42Z</time>
      </trkpt>
      <trkpt lat="47.52533" lon="-2.63383">
        <ele>60</ele>
        <time>2025-05-13T08:47:43Z</time>
      </trkpt>
      <trkpt lat="47.52534" lon="-2.63386">
        <ele>61</ele>
        <time>2025-05-13T08:47:44Z</time>
      </trkpt>
      <trkpt lat="47.52534" lon="-2.6339">
        <ele>61</ele>
        <time>2025-05-13T08:47:45Z</time>
      </trkpt>
      <trkpt lat="47.52535" lon="-2.63392">
        <ele>61</ele>
        <time>2025-05-13T08:47:46Z</time>
      </trkpt>
      <trkpt lat="47.52536" lon="-2.63395">
        <ele>61</ele>
        <time>2025-05-13T08:47:47Z</time>
      </trkpt>
      <trkpt lat="47.52537" lon="-2.63398">
        <ele>61</ele>
        <time>2025-05-13T08:47:48Z</time>
      </trkpt>
      <trkpt lat="47.52538" lon="-2.63401">
        <ele>61</ele>
        <time>2025-05-13T08:47:49Z</time>
      </trkpt>
      <trkpt lat="47.52539" lon="-2.63404">
        <ele>61</ele>
        <time>2025-05-13T08:47:50Z</time>
      </trkpt>
      <trkpt lat="47.52539" lon="-2.63407">
        <ele>61</ele>
        <time>2025-05-13T08:47:51Z</time>
      </trkpt>
      <trkpt lat="47.52539" lon="-2.63409">
        <ele>62</ele>
        <time>2025-05-13T08:47:52Z</time>
      </trkpt>
      <trkpt lat="47.52539" lon="-2.63412">
        <ele>61</ele>
        <time>2025-05-13T08:47:53Z</time>
      </trkpt>
      <trkpt lat="47.5254" lon="-2.63414">
        <ele>62</ele>
        <time>2025-05-13T08:47:54Z</time>
      </trkpt>
      <trkpt lat="47.5254" lon="-2.63416">
        <ele>62</ele>
        <time>2025-05-13T08:47:55Z</time>
      </trkpt>
      <trkpt lat="47.52541" lon="-2.63419">
        <ele>62</ele>
        <time>2025-05-13T08:47:56Z</time>
      </trkpt>
      <trkpt lat="47.52541" lon="-2.63421">
        <ele>62</ele>
        <time>2025-05-13T08:47:57Z</time>
      </trkpt>
      <trkpt lat="47.52541" lon="-2.63423">
        <ele>62</ele>
        <time>2025-05-13T08:47:58Z</time>
      </trkpt>
      <trkpt lat="47.52542" lon="-2.63426">
        <ele>63</ele>
        <time>2025-05-13T08:47:59Z</time>
      </trkpt>
      <trkpt lat="47.52542" lon="-2.63428">
        <ele>63</ele>
        <time>2025-05-13T08:48:00Z</time>
      </trkpt>
      <trkpt lat="47.52542" lon="-2.63431">
        <ele>63</ele>
        <time>2025-05-13T08:48:01Z</time>
      </trkpt>
      <trkpt lat="47.52543" lon="-2.63435">
        <ele>63</ele>
        <time>2025-05-13T08:48:02Z</time>
      </trkpt>
      <trkpt lat="47.52544" lon="-2.63438">
        <ele>62</ele>
        <time>2025-05-13T08:48:03Z</time>
      </trkpt>
      <trkpt lat="47.52545" lon="-2.63442">
        <ele>62</ele>
        <time>2025-05-13T08:48:04Z</time>
      </trkpt>
      <trkpt lat="47.52545" lon="-2.63447">
        <ele>61</ele>
        <time>2025-05-13T08:48:05Z</time>
      </trkpt>
      <trkpt lat="47.52546" lon="-2.63451">
        <ele>62</ele>
        <time>2025-05-13T08:48:06Z</time>
      </trkpt>
      <trkpt lat="47.52547" lon="-2.63455">
        <ele>62</ele>
        <time>2025-05-13T08:48:07Z</time>
      </trkpt>
      <trkpt lat="47.52548" lon="-2.6346">
        <ele>62</ele>
        <time>2025-05-13T08:48:08Z</time>
      </trkpt>
      <trkpt lat="47.52549" lon="-2.63464">
        <ele>62</ele>
        <time>2025-05-13T08:48:09Z</time>
      </trkpt>
      <trkpt lat="47.5255" lon="-2.63468">
        <ele>62</ele>
        <time>2025-05-13T08:48:10Z</time>
      </trkpt>
      <trkpt lat="47.5255" lon="-2.63473">
        <ele>62</ele>
        <time>2025-05-13T08:48:11Z</time>
      </trkpt>
      <trkpt lat="47.52551" lon="-2.63477">
        <ele>63</ele>
        <time>2025-05-13T08:48:12Z</time>
      </trkpt>
      <trkpt lat="47.52551" lon="-2.63482">
        <ele>63</ele>
        <time>2025-05-13T08:48:13Z</time>
      </trkpt>
      <trkpt lat="47.52552" lon="-2.63487">
        <ele>63</ele>
        <time>2025-05-13T08:48:14Z</time>
      </trkpt>
      <trkpt lat="47.52553" lon="-2.63493">
        <ele>63</ele>
        <time>2025-05-13T08:48:15Z</time>
      </trkpt>
      <trkpt lat="47.52554" lon="-2.63498">
        <ele>63</ele>
        <time>2025-05-13T08:48:16Z</time>
      </trkpt>
      <trkpt lat="47.52554" lon="-2.63503">
        <ele>63</ele>
        <time>2025-05-13T08:48:17Z</time>
      </trkpt>
      <trkpt lat="47.52555" lon="-2.63508">
        <ele>63</ele>
        <time>2025-05-13T08:48:18Z</time>
      </trkpt>
      <trkpt lat="47.52556" lon="-2.63514">
        <ele>63</ele>
        <time>2025-05-13T08:48:19Z</time>
      </trkpt>
      <trkpt lat="47.52556" lon="-2.6352">
        <ele>62</ele>
        <time>2025-05-13T08:48:20Z</time>
      </trkpt>
      <trkpt lat="47.52557" lon="-2.63526">
        <ele>62</ele>
        <time>2025-05-13T08:48:21Z</time>
      </trkpt>
      <trkpt lat="47.52558" lon="-2.63532">
        <ele>62</ele>
        <time>2025-05-13T08:48:22Z</time>
      </trkpt>
      <trkpt lat="47.52558" lon="-2.63538">
        <ele>62</ele>
        <time>2025-05-13T08:48:23Z</time>
      </trkpt>
      <trkpt lat="47.52559" lon="-2.63544">
        <ele>62</ele>
        <time>2025-05-13T08:48:24Z</time>
      </trkpt>
      <trkpt lat="47.5256" lon="-2.63551">
        <ele>62</ele>
        <time>2025-05-13T08:48:25Z</time>
      </trkpt>
      <trkpt lat="47.5256" lon="-2.63557">
        <ele>62</ele>
        <time>2025-05-13T08:48:26Z</time>
      </trkpt>
      <trkpt lat="47.5256" lon="-2.63563">
        <ele>62</ele>
        <time>2025-05-13T08:48:27Z</time>
      </trkpt>
      <trkpt lat="47.5256" lon="-2.6357">
        <ele>61</ele>
        <time>2025-05-13T08:48:28Z</time>
      </trkpt>
      <trkpt lat="47.5256" lon="-2.63577">
        <ele>61</ele>
        <time>2025-05-13T08:48:29Z</time>
      </trkpt>
      <trkpt lat="47.52561" lon="-2.63584">
        <ele>61</ele>
        <time>2025-05-13T08:48:30Z</time>
      </trkpt>
      <trkpt lat="47.52561" lon="-2.63591">
        <ele>61</ele>
        <time>2025-05-13T08:48:31Z</time>
      </trkpt>
      <trkpt lat="47.52561" lon="-2.63598">
        <ele>62</ele>
        <time>2025-05-13T08:48:32Z</time>
      </trkpt>
      <trkpt lat="47.52561" lon="-2.63605">
        <ele>62</ele>
        <time>2025-05-13T08:48:33Z</time>
      </trkpt>
      <trkpt lat="47.52561" lon="-2.63612">
        <ele>62</ele>
        <time>2025-05-13T08:48:34Z</time>
      </trkpt>
      <trkpt lat="47.52561" lon="-2.63619">
        <ele>62</ele>
        <time>2025-05-13T08:48:35Z</time>
      </trkpt>
      <trkpt lat="47.52561" lon="-2.63626">
        <ele>62</ele>
        <time>2025-05-13T08:48:36Z</time>
      </trkpt>
      <trkpt lat="47.52561" lon="-2.63632">
        <ele>62</ele>
        <time>2025-05-13T08:48:37Z</time>
      </trkpt>
      <trkpt lat="47.52561" lon="-2.63639">
        <ele>61</ele>
        <time>2025-05-13T08:48:38Z</time>
      </trkpt>
      <trkpt lat="47.52561" lon="-2.63646">
        <ele>61</ele>
        <time>2025-05-13T08:48:39Z</time>
      </trkpt>
      <trkpt lat="47.52561" lon="-2.63653">
        <ele>61</ele>
        <time>2025-05-13T08:48:40Z</time>
      </trkpt>
      <trkpt lat="47.52561" lon="-2.63661">
        <ele>61</ele>
        <time>2025-05-13T08:48:41Z</time>
      </trkpt>
      <trkpt lat="47.52561" lon="-2.63668">
        <ele>62</ele>
        <time>2025-05-13T08:48:42Z</time>
      </trkpt>
      <trkpt lat="47.52561" lon="-2.63675">
        <ele>62</ele>
        <time>2025-05-13T08:48:43Z</time>
      </trkpt>
      <trkpt lat="47.52561" lon="-2.63682">
        <ele>62</ele>
        <time>2025-05-13T08:48:44Z</time>
      </trkpt>
      <trkpt lat="47.52561" lon="-2.6369">
        <ele>62</ele>
        <time>2025-05-13T08:48:45Z</time>
      </trkpt>
      <trkpt lat="47.52561" lon="-2.63697">
        <ele>62</ele>
        <time>2025-05-13T08:48:46Z</time>
      </trkpt>
      <trkpt lat="47.52561" lon="-2.63705">
        <ele>62</ele>
        <time>2025-05-13T08:48:47Z</time>
      </trkpt>
      <trkpt lat="47.52561" lon="-2.63712">
        <ele>62</ele>
        <time>2025-05-13T08:48:48Z</time>
      </trkpt>
      <trkpt lat="47.52561" lon="-2.6372">
        <ele>62</ele>
        <time>2025-05-13T08:48:49Z</time>
      </trkpt>
      <trkpt lat="47.52561" lon="-2.63729">
        <ele>62</ele>
        <time>2025-05-13T08:48:50Z</time>
      </trkpt>
      <trkpt lat="47.52561" lon="-2.63737">
        <ele>61</ele>
        <time>2025-05-13T08:48:51Z</time>
      </trkpt>
      <trkpt lat="47.52561" lon="-2.63745">
        <ele>61</ele>
        <time>2025-05-13T08:48:52Z</time>
      </trkpt>
      <trkpt lat="47.52561" lon="-2.63754">
        <ele>61</ele>
        <time>2025-05-13T08:48:53Z</time>
      </trkpt>
      <trkpt lat="47.52562" lon="-2.63763">
        <ele>61</ele>
        <time>2025-05-13T08:48:54Z</time>
      </trkpt>
      <trkpt lat="47.52562" lon="-2.63772">
        <ele>61</ele>
        <time>2025-05-13T08:48:55Z</time>
      </trkpt>
      <trkpt lat="47.52562" lon="-2.63781">
        <ele>61</ele>
        <time>2025-05-13T08:48:56Z</time>
      </trkpt>
      <trkpt lat="47.52563" lon="-2.63791">
        <ele>60</ele>
        <time>2025-05-13T08:48:57Z</time>
      </trkpt>
      <trkpt lat="47.52564" lon="-2.638">
        <ele>60</ele>
        <time>2025-05-13T08:48:58Z</time>
      </trkpt>
      <trkpt lat="47.52564" lon="-2.63809">
        <ele>59</ele>
        <time>2025-05-13T08:48:59Z</time>
      </trkpt>
      <trkpt lat="47.52565" lon="-2.63818">
        <ele>59</ele>
        <time>2025-05-13T08:49:00Z</time>
      </trkpt>
      <trkpt lat="47.52565" lon="-2.63827">
        <ele>59</ele>
        <time>2025-05-13T08:49:01Z</time>
      </trkpt>
      <trkpt lat="47.52566" lon="-2.63836">
        <ele>59</ele>
        <time>2025-05-13T08:49:02Z</time>
      </trkpt>
      <trkpt lat="47.52567" lon="-2.63845">
        <ele>59</ele>
        <time>2025-05-13T08:49:03Z</time>
      </trkpt>
      <trkpt lat="47.52568" lon="-2.63852">
        <ele>58</ele>
        <time>2025-05-13T08:49:04Z</time>
      </trkpt>
      <trkpt lat="47.52568" lon="-2.6386">
        <ele>59</ele>
        <time>2025-05-13T08:49:05Z</time>
      </trkpt>
      <trkpt lat="47.52569" lon="-2.63869">
        <ele>59</ele>
        <time>2025-05-13T08:49:06Z</time>
      </trkpt>
      <trkpt lat="47.52569" lon="-2.63876">
        <ele>58</ele>
        <time>2025-05-13T08:49:07Z</time>
      </trkpt>
      <trkpt lat="47.52569" lon="-2.63884">
        <ele>58</ele>
        <time>2025-05-13T08:49:08Z</time>
      </trkpt>
      <trkpt lat="47.5257" lon="-2.63892">
        <ele>57</ele>
        <time>2025-05-13T08:49:09Z</time>
      </trkpt>
      <trkpt lat="47.52571" lon="-2.63899">
        <ele>57</ele>
        <time>2025-05-13T08:49:10Z</time>
      </trkpt>
      <trkpt lat="47.52572" lon="-2.63907">
        <ele>58</ele>
        <time>2025-05-13T08:49:11Z</time>
      </trkpt>
      <trkpt lat="47.52573" lon="-2.63915">
        <ele>58</ele>
        <time>2025-05-13T08:49:12Z</time>
      </trkpt>
      <trkpt lat="47.52573" lon="-2.63922">
        <ele>59</ele>
        <time>2025-05-13T08:49:13Z</time>
      </trkpt>
      <trkpt lat="47.52573" lon="-2.63929">
        <ele>58</ele>
        <time>2025-05-13T08:49:14Z</time>
      </trkpt>
      <trkpt lat="47.52573" lon="-2.63937">
        <ele>59</ele>
        <time>2025-05-13T08:49:15Z</time>
      </trkpt>
      <trkpt lat="47.52574" lon="-2.63945">
        <ele>59</ele>
        <time>2025-05-13T08:49:16Z</time>
      </trkpt>
      <trkpt lat="47.52575" lon="-2.63951">
        <ele>60</ele>
        <time>2025-05-13T08:49:17Z</time>
      </trkpt>
      <trkpt lat="47.52575" lon="-2.63958">
        <ele>60</ele>
        <time>2025-05-13T08:49:18Z</time>
      </trkpt>
      <trkpt lat="47.52575" lon="-2.63965">
        <ele>60</ele>
        <time>2025-05-13T08:49:19Z</time>
      </trkpt>
      <trkpt lat="47.52574" lon="-2.63973">
        <ele>60</ele>
        <time>2025-05-13T08:49:20Z</time>
      </trkpt>
      <trkpt lat="47.52574" lon="-2.6398">
        <ele>60</ele>
        <time>2025-05-13T08:49:21Z</time>
      </trkpt>
      <trkpt lat="47.52575" lon="-2.63987">
        <ele>60</ele>
        <time>2025-05-13T08:49:22Z</time>
      </trkpt>
      <trkpt lat="47.52575" lon="-2.63994">
        <ele>60</ele>
        <time>2025-05-13T08:49:23Z</time>
      </trkpt>
      <trkpt lat="47.52575" lon="-2.64001">
        <ele>60</ele>
        <time>2025-05-13T08:49:24Z</time>
      </trkpt>
      <trkpt lat="47.52575" lon="-2.64007">
        <ele>59</ele>
        <time>2025-05-13T08:49:25Z</time>
      </trkpt>
      <trkpt lat="47.52575" lon="-2.64014">
        <ele>59</ele>
        <time>2025-05-13T08:49:26Z</time>
      </trkpt>
      <trkpt lat="47.52575" lon="-2.64021">
        <ele>59</ele>
        <time>2025-05-13T08:49:27Z</time>
      </trkpt>
      <trkpt lat="47.52575" lon="-2.64028">
        <ele>59</ele>
        <time>2025-05-13T08:49:28Z</time>
      </trkpt>
      <trkpt lat="47.52574" lon="-2.64035">
        <ele>59</ele>
        <time>2025-05-13T08:49:29Z</time>
      </trkpt>
      <trkpt lat="47.52574" lon="-2.64041">
        <ele>59</ele>
        <time>2025-05-13T08:49:30Z</time>
      </trkpt>
      <trkpt lat="47.52574" lon="-2.64047">
        <ele>59</ele>
        <time>2025-05-13T08:49:31Z</time>
      </trkpt>
      <trkpt lat="47.52574" lon="-2.64054">
        <ele>59</ele>
        <time>2025-05-13T08:49:32Z</time>
      </trkpt>
      <trkpt lat="47.52574" lon="-2.6406">
        <ele>59</ele>
        <time>2025-05-13T08:49:33Z</time>
      </trkpt>
      <trkpt lat="47.52573" lon="-2.64066">
        <ele>59</ele>
        <time>2025-05-13T08:49:34Z</time>
      </trkpt>
      <trkpt lat="47.52573" lon="-2.64073">
        <ele>59</ele>
        <time>2025-05-13T08:49:35Z</time>
      </trkpt>
      <trkpt lat="47.52573" lon="-2.64079">
        <ele>59</ele>
        <time>2025-05-13T08:49:36Z</time>
      </trkpt>
      <trkpt lat="47.52573" lon="-2.64086">
        <ele>60</ele>
        <time>2025-05-13T08:49:37Z</time>
      </trkpt>
      <trkpt lat="47.52572" lon="-2.64092">
        <ele>61</ele>
        <time>2025-05-13T08:49:38Z</time>
      </trkpt>
      <trkpt lat="47.52571" lon="-2.64099">
        <ele>61</ele>
        <time>2025-05-13T08:49:39Z</time>
      </trkpt>
      <trkpt lat="47.52572" lon="-2.64106">
        <ele>61</ele>
        <time>2025-05-13T08:49:40Z</time>
      </trkpt>
      <trkpt lat="47.52571" lon="-2.64114">
        <ele>61</ele>
        <time>2025-05-13T08:49:41Z</time>
      </trkpt>
      <trkpt lat="47.52571" lon="-2.64122">
        <ele>61</ele>
        <time>2025-05-13T08:49:42Z</time>
      </trkpt>
      <trkpt lat="47.52571" lon="-2.6413">
        <ele>60</ele>
        <time>2025-05-13T08:49:43Z</time>
      </trkpt>
      <trkpt lat="47.52571" lon="-2.64137">
        <ele>59</ele>
        <time>2025-05-13T08:49:44Z</time>
      </trkpt>
      <trkpt lat="47.52571" lon="-2.64144">
        <ele>59</ele>
        <time>2025-05-13T08:49:45Z</time>
      </trkpt>
      <trkpt lat="47.52571" lon="-2.64151">
        <ele>59</ele>
        <time>2025-05-13T08:49:46Z</time>
      </trkpt>
      <trkpt lat="47.52572" lon="-2.64158">
        <ele>59</ele>
        <time>2025-05-13T08:49:47Z</time>
      </trkpt>
      <trkpt lat="47.52572" lon="-2.64165">
        <ele>59</ele>
        <time>2025-05-13T08:49:48Z</time>
      </trkpt>
      <trkpt lat="47.52572" lon="-2.64173">
        <ele>59</ele>
        <time>2025-05-13T08:49:49Z</time>
      </trkpt>
      <trkpt lat="47.52572" lon="-2.6418">
        <ele>59</ele>
        <time>2025-05-13T08:49:50Z</time>
      </trkpt>
      <trkpt lat="47.52572" lon="-2.64186">
        <ele>60</ele>
        <time>2025-05-13T08:49:51Z</time>
      </trkpt>
      <trkpt lat="47.52572" lon="-2.64193">
        <ele>60</ele>
        <time>2025-05-13T08:49:52Z</time>
      </trkpt>
      <trkpt lat="47.52572" lon="-2.642">
        <ele>60</ele>
        <time>2025-05-13T08:49:53Z</time>
      </trkpt>
      <trkpt lat="47.52572" lon="-2.64207">
        <ele>60</ele>
        <time>2025-05-13T08:49:54Z</time>
      </trkpt>
      <trkpt lat="47.52573" lon="-2.64214">
        <ele>61</ele>
        <time>2025-05-13T08:49:55Z</time>
      </trkpt>
      <trkpt lat="47.52573" lon="-2.64221">
        <ele>61</ele>
        <time>2025-05-13T08:49:56Z</time>
      </trkpt>
      <trkpt lat="47.52573" lon="-2.64228">
        <ele>61</ele>
        <time>2025-05-13T08:49:57Z</time>
      </trkpt>
      <trkpt lat="47.52574" lon="-2.64235">
        <ele>61</ele>
        <time>2025-05-13T08:49:58Z</time>
      </trkpt>
      <trkpt lat="47.52574" lon="-2.64242">
        <ele>61</ele>
        <time>2025-05-13T08:49:59Z</time>
      </trkpt>
      <trkpt lat="47.52575" lon="-2.64247">
        <ele>61</ele>
        <time>2025-05-13T08:50:00Z</time>
      </trkpt>
      <trkpt lat="47.52576" lon="-2.64254">
        <ele>61</ele>
        <time>2025-05-13T08:50:01Z</time>
      </trkpt>
      <trkpt lat="47.52577" lon="-2.6426">
        <ele>61</ele>
        <time>2025-05-13T08:50:02Z</time>
      </trkpt>
      <trkpt lat="47.52579" lon="-2.64267">
        <ele>61</ele>
        <time>2025-05-13T08:50:03Z</time>
      </trkpt>
      <trkpt lat="47.5258" lon="-2.64273">
        <ele>61</ele>
        <time>2025-05-13T08:50:04Z</time>
      </trkpt>
      <trkpt lat="47.52581" lon="-2.64279">
        <ele>61</ele>
        <time>2025-05-13T08:50:05Z</time>
      </trkpt>
      <trkpt lat="47.52582" lon="-2.64285">
        <ele>61</ele>
        <time>2025-05-13T08:50:06Z</time>
      </trkpt>
      <trkpt lat="47.52583" lon="-2.64291">
        <ele>61</ele>
        <time>2025-05-13T08:50:07Z</time>
      </trkpt>
      <trkpt lat="47.52584" lon="-2.64296">
        <ele>61</ele>
        <time>2025-05-13T08:50:08Z</time>
      </trkpt>
      <trkpt lat="47.52585" lon="-2.64302">
        <ele>61</ele>
        <time>2025-05-13T08:50:09Z</time>
      </trkpt>
      <trkpt lat="47.52586" lon="-2.64307">
        <ele>61</ele>
        <time>2025-05-13T08:50:10Z</time>
      </trkpt>
      <trkpt lat="47.52587" lon="-2.64313">
        <ele>62</ele>
        <time>2025-05-13T08:50:11Z</time>
      </trkpt>
      <trkpt lat="47.52588" lon="-2.64318">
        <ele>63</ele>
        <time>2025-05-13T08:50:12Z</time>
      </trkpt>
      <trkpt lat="47.5259" lon="-2.64323">
        <ele>63</ele>
        <time>2025-05-13T08:50:13Z</time>
      </trkpt>
      <trkpt lat="47.52591" lon="-2.64329">
        <ele>63</ele>
        <time>2025-05-13T08:50:14Z</time>
      </trkpt>
      <trkpt lat="47.52591" lon="-2.64335">
        <ele>63</ele>
        <time>2025-05-13T08:50:15Z</time>
      </trkpt>
      <trkpt lat="47.52592" lon="-2.6434">
        <ele>64</ele>
        <time>2025-05-13T08:50:16Z</time>
      </trkpt>
      <trkpt lat="47.52592" lon="-2.64346">
        <ele>64</ele>
        <time>2025-05-13T08:50:17Z</time>
      </trkpt>
      <trkpt lat="47.52593" lon="-2.64351">
        <ele>63</ele>
        <time>2025-05-13T08:50:18Z</time>
      </trkpt>
      <trkpt lat="47.52594" lon="-2.64356">
        <ele>63</ele>
        <time>2025-05-13T08:50:19Z</time>
      </trkpt>
      <trkpt lat="47.52595" lon="-2.64361">
        <ele>63</ele>
        <time>2025-05-13T08:50:20Z</time>
      </trkpt>
      <trkpt lat="47.52596" lon="-2.64367">
        <ele>63</ele>
        <time>2025-05-13T08:50:21Z</time>
      </trkpt>
      <trkpt lat="47.52597" lon="-2.64372">
        <ele>63</ele>
        <time>2025-05-13T08:50:22Z</time>
      </trkpt>
      <trkpt lat="47.52598" lon="-2.64378">
        <ele>62</ele>
        <time>2025-05-13T08:50:23Z</time>
      </trkpt>
      <trkpt lat="47.52599" lon="-2.64383">
        <ele>62</ele>
        <time>2025-05-13T08:50:24Z</time>
      </trkpt>
      <trkpt lat="47.526" lon="-2.64388">
        <ele>62</ele>
        <time>2025-05-13T08:50:25Z</time>
      </trkpt>
      <trkpt lat="47.52601" lon="-2.64394">
        <ele>62</ele>
        <time>2025-05-13T08:50:26Z</time>
      </trkpt>
      <trkpt lat="47.52602" lon="-2.64399">
        <ele>62</ele>
        <time>2025-05-13T08:50:27Z</time>
      </trkpt>
      <trkpt lat="47.52603" lon="-2.64404">
        <ele>63</ele>
        <time>2025-05-13T08:50:28Z</time>
      </trkpt>
      <trkpt lat="47.52604" lon="-2.64409">
        <ele>62</ele>
        <time>2025-05-13T08:50:29Z</time>
      </trkpt>
      <trkpt lat="47.52605" lon="-2.64414">
        <ele>62</ele>
        <time>2025-05-13T08:50:30Z</time>
      </trkpt>
      <trkpt lat="47.52606" lon="-2.6442">
        <ele>62</ele>
        <time>2025-05-13T08:50:31Z</time>
      </trkpt>
      <trkpt lat="47.52607" lon="-2.64425">
        <ele>62</ele>
        <time>2025-05-13T08:50:32Z</time>
      </trkpt>
      <trkpt lat="47.52607" lon="-2.64431">
        <ele>63</ele>
        <time>2025-05-13T08:50:33Z</time>
      </trkpt>
      <trkpt lat="47.52607" lon="-2.64436">
        <ele>63</ele>
        <time>2025-05-13T08:50:34Z</time>
      </trkpt>
      <trkpt lat="47.52607" lon="-2.64442">
        <ele>63</ele>
        <time>2025-05-13T08:50:35Z</time>
      </trkpt>
      <trkpt lat="47.52608" lon="-2.64447">
        <ele>63</ele>
        <time>2025-05-13T08:50:36Z</time>
      </trkpt>
      <trkpt lat="47.52608" lon="-2.64453">
        <ele>63</ele>
        <time>2025-05-13T08:50:37Z</time>
      </trkpt>
      <trkpt lat="47.52609" lon="-2.64458">
        <ele>63</ele>
        <time>2025-05-13T08:50:38Z</time>
      </trkpt>
      <trkpt lat="47.5261" lon="-2.64463">
        <ele>63</ele>
        <time>2025-05-13T08:50:39Z</time>
      </trkpt>
      <trkpt lat="47.5261" lon="-2.64469">
        <ele>63</ele>
        <time>2025-05-13T08:50:40Z</time>
      </trkpt>
      <trkpt lat="47.52611" lon="-2.64474">
        <ele>64</ele>
        <time>2025-05-13T08:50:41Z</time>
      </trkpt>
      <trkpt lat="47.52611" lon="-2.64479">
        <ele>64</ele>
        <time>2025-05-13T08:50:42Z</time>
      </trkpt>
      <trkpt lat="47.52611" lon="-2.64484">
        <ele>64</ele>
        <time>2025-05-13T08:50:43Z</time>
      </trkpt>
      <trkpt lat="47.52611" lon="-2.64489">
        <ele>65</ele>
        <time>2025-05-13T08:50:44Z</time>
      </trkpt>
      <trkpt lat="47.52611" lon="-2.64493">
        <ele>65</ele>
        <time>2025-05-13T08:50:45Z</time>
      </trkpt>
      <trkpt lat="47.52611" lon="-2.64498">
        <ele>65</ele>
        <time>2025-05-13T08:50:46Z</time>
      </trkpt>
      <trkpt lat="47.5261" lon="-2.64503">
        <ele>65</ele>
        <time>2025-05-13T08:50:47Z</time>
      </trkpt>
      <trkpt lat="47.5261" lon="-2.64508">
        <ele>65</ele>
        <time>2025-05-13T08:50:48Z</time>
      </trkpt>
      <trkpt lat="47.52609" lon="-2.64513">
        <ele>65</ele>
        <time>2025-05-13T08:50:49Z</time>
      </trkpt>
      <trkpt lat="47.52609" lon="-2.64518">
        <ele>64</ele>
        <time>2025-05-13T08:50:50Z</time>
      </trkpt>
      <trkpt lat="47.52608" lon="-2.64523">
        <ele>65</ele>
        <time>2025-05-13T08:50:51Z</time>
      </trkpt>
      <trkpt lat="47.52608" lon="-2.64527">
        <ele>65</ele>
        <time>2025-05-13T08:50:52Z</time>
      </trkpt>
      <trkpt lat="47.52608" lon="-2.64531">
        <ele>65</ele>
        <time>2025-05-13T08:50:53Z</time>
      </trkpt>
      <trkpt lat="47.52607" lon="-2.64536">
        <ele>66</ele>
        <time>2025-05-13T08:50:54Z</time>
      </trkpt>
      <trkpt lat="47.52606" lon="-2.64541">
        <ele>66</ele>
        <time>2025-05-13T08:50:55Z</time>
      </trkpt>
      <trkpt lat="47.52606" lon="-2.64545">
        <ele>67</ele>
        <time>2025-05-13T08:50:56Z</time>
      </trkpt>
      <trkpt lat="47.52605" lon="-2.6455">
        <ele>67</ele>
        <time>2025-05-13T08:50:57Z</time>
      </trkpt>
      <trkpt lat="47.52604" lon="-2.64555">
        <ele>68</ele>
        <time>2025-05-13T08:50:58Z</time>
      </trkpt>
      <trkpt lat="47.52604" lon="-2.6456">
        <ele>68</ele>
        <time>2025-05-13T08:50:59Z</time>
      </trkpt>
      <trkpt lat="47.52604" lon="-2.64566">
        <ele>68</ele>
        <time>2025-05-13T08:51:00Z</time>
      </trkpt>
      <trkpt lat="47.52604" lon="-2.64571">
        <ele>67</ele>
        <time>2025-05-13T08:51:01Z</time>
      </trkpt>
      <trkpt lat="47.52604" lon="-2.64576">
        <ele>67</ele>
        <time>2025-05-13T08:51:02Z</time>
      </trkpt>
      <trkpt lat="47.52603" lon="-2.6458">
        <ele>67</ele>
        <time>2025-05-13T08:51:03Z</time>
      </trkpt>
      <trkpt lat="47.52603" lon="-2.64585">
        <ele>66</ele>
        <time>2025-05-13T08:51:04Z</time>
      </trkpt>
      <trkpt lat="47.52603" lon="-2.6459">
        <ele>66</ele>
        <time>2025-05-13T08:51:05Z</time>
      </trkpt>
      <trkpt lat="47.52602" lon="-2.64595">
        <ele>66</ele>
        <time>2025-05-13T08:51:06Z</time>
      </trkpt>
      <trkpt lat="47.52602" lon="-2.646">
        <ele>67</ele>
        <time>2025-05-13T08:51:07Z</time>
      </trkpt>
      <trkpt lat="47.52601" lon="-2.64605">
        <ele>67</ele>
        <time>2025-05-13T08:51:08Z</time>
      </trkpt>
      <trkpt lat="47.52601" lon="-2.6461">
        <ele>67</ele>
        <time>2025-05-13T08:51:09Z</time>
      </trkpt>
      <trkpt lat="47.52601" lon="-2.64616">
        <ele>67</ele>
        <time>2025-05-13T08:51:10Z</time>
      </trkpt>
      <trkpt lat="47.52602" lon="-2.64621">
        <ele>67</ele>
        <time>2025-05-13T08:51:11Z</time>
      </trkpt>
      <trkpt lat="47.52602" lon="-2.64627">
        <ele>67</ele>
        <time>2025-05-13T08:51:12Z</time>
      </trkpt>
      <trkpt lat="47.52602" lon="-2.64632">
        <ele>66</ele>
        <time>2025-05-13T08:51:13Z</time>
      </trkpt>
      <trkpt lat="47.52603" lon="-2.64638">
        <ele>66</ele>
        <time>2025-05-13T08:51:14Z</time>
      </trkpt>
      <trkpt lat="47.52603" lon="-2.64643">
        <ele>66</ele>
        <time>2025-05-13T08:51:15Z</time>
      </trkpt>
      <trkpt lat="47.52603" lon="-2.64648">
        <ele>66</ele>
        <time>2025-05-13T08:51:16Z</time>
      </trkpt>
      <trkpt lat="47.52603" lon="-2.64654">
        <ele>66</ele>
        <time>2025-05-13T08:51:17Z</time>
      </trkpt>
      <trkpt lat="47.52603" lon="-2.64659">
        <ele>67</ele>
        <time>2025-05-13T08:51:18Z</time>
      </trkpt>
      <trkpt lat="47.52603" lon="-2.64665">
        <ele>68</ele>
        <time>2025-05-13T08:51:19Z</time>
      </trkpt>
      <trkpt lat="47.52604" lon="-2.6467">
        <ele>68</ele>
        <time>2025-05-13T08:51:20Z</time>
      </trkpt>
      <trkpt lat="47.52604" lon="-2.64675">
        <ele>69</ele>
        <time>2025-05-13T08:51:21Z</time>
      </trkpt>
      <trkpt lat="47.52604" lon="-2.6468">
        <ele>69</ele>
        <time>2025-05-13T08:51:22Z</time>
      </trkpt>
      <trkpt lat="47.52605" lon="-2.64686">
        <ele>68</ele>
        <time>2025-05-13T08:51:23Z</time>
      </trkpt>
      <trkpt lat="47.52605" lon="-2.64692">
        <ele>68</ele>
        <time>2025-05-13T08:51:24Z</time>
      </trkpt>
      <trkpt lat="47.52606" lon="-2.64697">
        <ele>68</ele>
        <time>2025-05-13T08:51:25Z</time>
      </trkpt>
      <trkpt lat="47.52606" lon="-2.64703">
        <ele>68</ele>
        <time>2025-05-13T08:51:26Z</time>
      </trkpt>
      <trkpt lat="47.52607" lon="-2.64709">
        <ele>68</ele>
        <time>2025-05-13T08:51:27Z</time>
      </trkpt>
      <trkpt lat="47.52607" lon="-2.64714">
        <ele>68</ele>
        <time>2025-05-13T08:51:28Z</time>
      </trkpt>
      <trkpt lat="47.52608" lon="-2.6472">
        <ele>69</ele>
        <time>2025-05-13T08:51:29Z</time>
      </trkpt>
      <trkpt lat="47.52608" lon="-2.64725">
        <ele>69</ele>
        <time>2025-05-13T08:51:30Z</time>
      </trkpt>
      <trkpt lat="47.52607" lon="-2.64731">
        <ele>69</ele>
        <time>2025-05-13T08:51:31Z</time>
      </trkpt>
      <trkpt lat="47.52607" lon="-2.64736">
        <ele>70</ele>
        <time>2025-05-13T08:51:32Z</time>
      </trkpt>
      <trkpt lat="47.52607" lon="-2.64741">
        <ele>69</ele>
        <time>2025-05-13T08:51:33Z</time>
      </trkpt>
      <trkpt lat="47.52606" lon="-2.64746">
        <ele>69</ele>
        <time>2025-05-13T08:51:34Z</time>
      </trkpt>
      <trkpt lat="47.52606" lon="-2.64751">
        <ele>68</ele>
        <time>2025-05-13T08:51:35Z</time>
      </trkpt>
      <trkpt lat="47.52606" lon="-2.64756">
        <ele>68</ele>
        <time>2025-05-13T08:51:36Z</time>
      </trkpt>
      <trkpt lat="47.52605" lon="-2.64761">
        <ele>68</ele>
        <time>2025-05-13T08:51:37Z</time>
      </trkpt>
      <trkpt lat="47.52605" lon="-2.64766">
        <ele>67</ele>
        <time>2025-05-13T08:51:38Z</time>
      </trkpt>
      <trkpt lat="47.52604" lon="-2.64771">
        <ele>67</ele>
        <time>2025-05-13T08:51:39Z</time>
      </trkpt>
      <trkpt lat="47.52603" lon="-2.64776">
        <ele>67</ele>
        <time>2025-05-13T08:51:40Z</time>
      </trkpt>
      <trkpt lat="47.52601" lon="-2.6478">
        <ele>67</ele>
        <time>2025-05-13T08:51:41Z</time>
      </trkpt>
      <trkpt lat="47.52599" lon="-2.64784">
        <ele>67</ele>
        <time>2025-05-13T08:51:42Z</time>
      </trkpt>
      <trkpt lat="47.52597" lon="-2.64787">
        <ele>67</ele>
        <time>2025-05-13T08:51:43Z</time>
      </trkpt>
      <trkpt lat="47.52595" lon="-2.64791">
        <ele>66</ele>
        <time>2025-05-13T08:51:44Z</time>
      </trkpt>
      <trkpt lat="47.52593" lon="-2.64795">
        <ele>66</ele>
        <time>2025-05-13T08:51:45Z</time>
      </trkpt>
      <trkpt lat="47.52593" lon="-2.648">
        <ele>66</ele>
        <time>2025-05-13T08:51:46Z</time>
      </trkpt>
      <trkpt lat="47.52593" lon="-2.64805">
        <ele>66</ele>
        <time>2025-05-13T08:51:47Z</time>
      </trkpt>
      <trkpt lat="47.52592" lon="-2.6481">
        <ele>66</ele>
        <time>2025-05-13T08:51:48Z</time>
      </trkpt>
      <trkpt lat="47.52592" lon="-2.64814">
        <ele>66</ele>
        <time>2025-05-13T08:51:49Z</time>
      </trkpt>
      <trkpt lat="47.52593" lon="-2.64819">
        <ele>66</ele>
        <time>2025-05-13T08:51:50Z</time>
      </trkpt>
      <trkpt lat="47.52593" lon="-2.64824">
        <ele>66</ele>
        <time>2025-05-13T08:51:51Z</time>
      </trkpt>
      <trkpt lat="47.52592" lon="-2.6483">
        <ele>66</ele>
        <time>2025-05-13T08:51:52Z</time>
      </trkpt>
      <trkpt lat="47.52591" lon="-2.64835">
        <ele>66</ele>
        <time>2025-05-13T08:51:53Z</time>
      </trkpt>
      <trkpt lat="47.52591" lon="-2.64839">
        <ele>67</ele>
        <time>2025-05-13T08:51:54Z</time>
      </trkpt>
      <trkpt lat="47.52591" lon="-2.64844">
        <ele>67</ele>
        <time>2025-05-13T08:51:55Z</time>
      </trkpt>
      <trkpt lat="47.52592" lon="-2.64849">
        <ele>67</ele>
        <time>2025-05-13T08:51:56Z</time>
      </trkpt>
      <trkpt lat="47.52591" lon="-2.64854">
        <ele>67</ele>
        <time>2025-05-13T08:51:57Z</time>
      </trkpt>
      <trkpt lat="47.52591" lon="-2.64859">
        <ele>67</ele>
        <time>2025-05-13T08:51:58Z</time>
      </trkpt>
      <trkpt lat="47.5259" lon="-2.64863">
        <ele>67</ele>
        <time>2025-05-13T08:51:59Z</time>
      </trkpt>
      <trkpt lat="47.52589" lon="-2.64868">
        <ele>67</ele>
        <time>2025-05-13T08:52:00Z</time>
      </trkpt>
      <trkpt lat="47.52589" lon="-2.64874">
        <ele>67</ele>
        <time>2025-05-13T08:52:01Z</time>
      </trkpt>
      <trkpt lat="47.52588" lon="-2.6488">
        <ele>67</ele>
        <time>2025-05-13T08:52:02Z</time>
      </trkpt>
      <trkpt lat="47.52588" lon="-2.64885">
        <ele>67</ele>
        <time>2025-05-13T08:52:03Z</time>
      </trkpt>
      <trkpt lat="47.52588" lon="-2.6489">
        <ele>67</ele>
        <time>2025-05-13T08:52:04Z</time>
      </trkpt>
      <trkpt lat="47.52589" lon="-2.64895">
        <ele>66</ele>
        <time>2025-05-13T08:52:05Z</time>
      </trkpt>
      <trkpt lat="47.52589" lon="-2.64901">
        <ele>66</ele>
        <time>2025-05-13T08:52:06Z</time>
      </trkpt>
      <trkpt lat="47.5259" lon="-2.64907">
        <ele>66</ele>
        <time>2025-05-13T08:52:07Z</time>
      </trkpt>
      <trkpt lat="47.52591" lon="-2.64912">
        <ele>65</ele>
        <time>2025-05-13T08:52:08Z</time>
      </trkpt>
      <trkpt lat="47.52591" lon="-2.64918">
        <ele>65</ele>
        <time>2025-05-13T08:52:09Z</time>
      </trkpt>
      <trkpt lat="47.52592" lon="-2.64924">
        <ele>66</ele>
        <time>2025-05-13T08:52:10Z</time>
      </trkpt>
      <trkpt lat="47.52592" lon="-2.64929">
        <ele>66</ele>
        <time>2025-05-13T08:52:11Z</time>
      </trkpt>
      <trkpt lat="47.52593" lon="-2.64934">
        <ele>66</ele>
        <time>2025-05-13T08:52:12Z</time>
      </trkpt>
      <trkpt lat="47.52593" lon="-2.64939">
        <ele>66</ele>
        <time>2025-05-13T08:52:13Z</time>
      </trkpt>
      <trkpt lat="47.52594" lon="-2.64945">
        <ele>66</ele>
        <time>2025-05-13T08:52:14Z</time>
      </trkpt>
      <trkpt lat="47.52594" lon="-2.6495">
        <ele>66</ele>
        <time>2025-05-13T08:52:15Z</time>
      </trkpt>
      <trkpt lat="47.52595" lon="-2.64956">
        <ele>66</ele>
        <time>2025-05-13T08:52:16Z</time>
      </trkpt>
      <trkpt lat="47.52595" lon="-2.64962">
        <ele>67</ele>
        <time>2025-05-13T08:52:17Z</time>
      </trkpt>
      <trkpt lat="47.52595" lon="-2.64968">
        <ele>67</ele>
        <time>2025-05-13T08:52:18Z</time>
      </trkpt>
      <trkpt lat="47.52595" lon="-2.64973">
        <ele>67</ele>
        <time>2025-05-13T08:52:19Z</time>
      </trkpt>
      <trkpt lat="47.52595" lon="-2.64978">
        <ele>67</ele>
        <time>2025-05-13T08:52:20Z</time>
      </trkpt>
      <trkpt lat="47.52595" lon="-2.64983">
        <ele>66</ele>
        <time>2025-05-13T08:52:21Z</time>
      </trkpt>
      <trkpt lat="47.52594" lon="-2.64989">
        <ele>67</ele>
        <time>2025-05-13T08:52:22Z</time>
      </trkpt>
      <trkpt lat="47.52594" lon="-2.64994">
        <ele>67</ele>
        <time>2025-05-13T08:52:23Z</time>
      </trkpt>
      <trkpt lat="47.52595" lon="-2.65">
        <ele>67</ele>
        <time>2025-05-13T08:52:24Z</time>
      </trkpt>
      <trkpt lat="47.52595" lon="-2.65006">
        <ele>67</ele>
        <time>2025-05-13T08:52:25Z</time>
      </trkpt>
      <trkpt lat="47.52595" lon="-2.65012">
        <ele>67</ele>
        <time>2025-05-13T08:52:26Z</time>
      </trkpt>
      <trkpt lat="47.52596" lon="-2.65018">
        <ele>68</ele>
        <time>2025-05-13T08:52:27Z</time>
      </trkpt>
      <trkpt lat="47.52596" lon="-2.65024">
        <ele>68</ele>
        <time>2025-05-13T08:52:28Z</time>
      </trkpt>
      <trkpt lat="47.52596" lon="-2.65029">
        <ele>68</ele>
        <time>2025-05-13T08:52:29Z</time>
      </trkpt>
      <trkpt lat="47.52595" lon="-2.65032">
        <ele>68</ele>
        <time>2025-05-13T08:52:30Z</time>
      </trkpt>
      <trkpt lat="47.52595" lon="-2.65032">
        <ele>68</ele>
        <time>2025-05-13T08:52:31Z</time>
      </trkpt>
      <trkpt lat="47.52595" lon="-2.65032">
        <ele>68</ele>
        <time>2025-05-13T08:52:32Z</time>
      </trkpt>
      <trkpt lat="47.52595" lon="-2.65031">
        <ele>68</ele>
        <time>2025-05-13T08:52:33Z</time>
      </trkpt>
      <trkpt lat="47.52595" lon="-2.65031">
        <ele>68</ele>
        <time>2025-05-13T08:52:34Z</time>
      </trkpt>
      <trkpt lat="47.52595" lon="-2.65036">
        <ele>68</ele>
        <time>2025-05-13T08:52:35Z</time>
      </trkpt>
      <trkpt lat="47.52595" lon="-2.65039">
        <ele>67</ele>
        <time>2025-05-13T08:52:36Z</time>
      </trkpt>
      <trkpt lat="47.52595" lon="-2.65043">
        <ele>67</ele>
        <time>2025-05-13T08:52:37Z</time>
      </trkpt>
      <trkpt lat="47.52596" lon="-2.65047">
        <ele>67</ele>
        <time>2025-05-13T08:52:38Z</time>
      </trkpt>
      <trkpt lat="47.52596" lon="-2.65051">
        <ele>67</ele>
        <time>2025-05-13T08:52:39Z</time>
      </trkpt>
      <trkpt lat="47.52596" lon="-2.65056">
        <ele>67</ele>
        <time>2025-05-13T08:52:40Z</time>
      </trkpt>
      <trkpt lat="47.52597" lon="-2.65061">
        <ele>67</ele>
        <time>2025-05-13T08:52:41Z</time>
      </trkpt>
      <trkpt lat="47.52598" lon="-2.65065">
        <ele>67</ele>
        <time>2025-05-13T08:52:42Z</time>
      </trkpt>
      <trkpt lat="47.52598" lon="-2.6507">
        <ele>67</ele>
        <time>2025-05-13T08:52:43Z</time>
      </trkpt>
      <trkpt lat="47.52598" lon="-2.65075">
        <ele>67</ele>
        <time>2025-05-13T08:52:44Z</time>
      </trkpt>
      <trkpt lat="47.52598" lon="-2.6508">
        <ele>67</ele>
        <time>2025-05-13T08:52:45Z</time>
      </trkpt>
      <trkpt lat="47.52599" lon="-2.65085">
        <ele>67</ele>
        <time>2025-05-13T08:52:46Z</time>
      </trkpt>
      <trkpt lat="47.526" lon="-2.6509">
        <ele>67</ele>
        <time>2025-05-13T08:52:47Z</time>
      </trkpt>
      <trkpt lat="47.52601" lon="-2.65096">
        <ele>67</ele>
        <time>2025-05-13T08:52:48Z</time>
      </trkpt>
      <trkpt lat="47.52602" lon="-2.65101">
        <ele>67</ele>
        <time>2025-05-13T08:52:49Z</time>
      </trkpt>
      <trkpt lat="47.52603" lon="-2.65107">
        <ele>67</ele>
        <time>2025-05-13T08:52:50Z</time>
      </trkpt>
      <trkpt lat="47.52603" lon="-2.65113">
        <ele>67</ele>
        <time>2025-05-13T08:52:51Z</time>
      </trkpt>
      <trkpt lat="47.52604" lon="-2.65118">
        <ele>66</ele>
        <time>2025-05-13T08:52:52Z</time>
      </trkpt>
      <trkpt lat="47.52605" lon="-2.65123">
        <ele>66</ele>
        <time>2025-05-13T08:52:53Z</time>
      </trkpt>
      <trkpt lat="47.52606" lon="-2.65128">
        <ele>65</ele>
        <time>2025-05-13T08:52:54Z</time>
      </trkpt>
      <trkpt lat="47.52606" lon="-2.65133">
        <ele>65</ele>
        <time>2025-05-13T08:52:55Z</time>
      </trkpt>
      <trkpt lat="47.52607" lon="-2.65139">
        <ele>65</ele>
        <time>2025-05-13T08:52:56Z</time>
      </trkpt>
      <trkpt lat="47.52608" lon="-2.65146">
        <ele>66</ele>
        <time>2025-05-13T08:52:57Z</time>
      </trkpt>
      <trkpt lat="47.52608" lon="-2.65152">
        <ele>66</ele>
        <time>2025-05-13T08:52:58Z</time>
      </trkpt>
      <trkpt lat="47.52609" lon="-2.65159">
        <ele>66</ele>
        <time>2025-05-13T08:52:59Z</time>
      </trkpt>
      <trkpt lat="47.5261" lon="-2.65165">
        <ele>66</ele>
        <time>2025-05-13T08:53:00Z</time>
      </trkpt>
      <trkpt lat="47.5261" lon="-2.65172">
        <ele>66</ele>
        <time>2025-05-13T08:53:01Z</time>
      </trkpt>
      <trkpt lat="47.52611" lon="-2.65179">
        <ele>66</ele>
        <time>2025-05-13T08:53:02Z</time>
      </trkpt>
      <trkpt lat="47.52611" lon="-2.65186">
        <ele>66</ele>
        <time>2025-05-13T08:53:03Z</time>
      </trkpt>
      <trkpt lat="47.52612" lon="-2.65193">
        <ele>66</ele>
        <time>2025-05-13T08:53:04Z</time>
      </trkpt>
      <trkpt lat="47.52613" lon="-2.65201">
        <ele>66</ele>
        <time>2025-05-13T08:53:05Z</time>
      </trkpt>
      <trkpt lat="47.52614" lon="-2.65207">
        <ele>67</ele>
        <time>2025-05-13T08:53:06Z</time>
      </trkpt>
      <trkpt lat="47.52616" lon="-2.65213">
        <ele>67</ele>
        <time>2025-05-13T08:53:07Z</time>
      </trkpt>
      <trkpt lat="47.52619" lon="-2.65218">
        <ele>67</ele>
        <time>2025-05-13T08:53:08Z</time>
      </trkpt>
      <trkpt lat="47.52622" lon="-2.65223">
        <ele>68</ele>
        <time>2025-05-13T08:53:09Z</time>
      </trkpt>
      <trkpt lat="47.52624" lon="-2.65229">
        <ele>68</ele>
        <time>2025-05-13T08:53:10Z</time>
      </trkpt>
      <trkpt lat="47.52626" lon="-2.65235">
        <ele>68</ele>
        <time>2025-05-13T08:53:11Z</time>
      </trkpt>
      <trkpt lat="47.52626" lon="-2.65241">
        <ele>68</ele>
        <time>2025-05-13T08:53:12Z</time>
      </trkpt>
      <trkpt lat="47.52626" lon="-2.65248">
        <ele>68</ele>
        <time>2025-05-13T08:53:13Z</time>
      </trkpt>
      <trkpt lat="47.52624" lon="-2.65254">
        <ele>67</ele>
        <time>2025-05-13T08:53:14Z</time>
      </trkpt>
      <trkpt lat="47.52622" lon="-2.6526">
        <ele>67</ele>
        <time>2025-05-13T08:53:15Z</time>
      </trkpt>
      <trkpt lat="47.52619" lon="-2.65265">
        <ele>67</ele>
        <time>2025-05-13T08:53:16Z</time>
      </trkpt>
      <trkpt lat="47.52615" lon="-2.65269">
        <ele>67</ele>
        <time>2025-05-13T08:53:17Z</time>
      </trkpt>
      <trkpt lat="47.5261" lon="-2.65271">
        <ele>67</ele>
        <time>2025-05-13T08:53:18Z</time>
      </trkpt>
      <trkpt lat="47.52605" lon="-2.65272">
        <ele>66</ele>
        <time>2025-05-13T08:53:19Z</time>
      </trkpt>
      <trkpt lat="47.526" lon="-2.65271">
        <ele>66</ele>
        <time>2025-05-13T08:53:20Z</time>
      </trkpt>
      <trkpt lat="47.52595" lon="-2.65269">
        <ele>66</ele>
        <time>2025-05-13T08:53:21Z</time>
      </trkpt>
      <trkpt lat="47.5259" lon="-2.65266">
        <ele>65</ele>
        <time>2025-05-13T08:53:22Z</time>
      </trkpt>
      <trkpt lat="47.52586" lon="-2.65265">
        <ele>66</ele>
        <time>2025-05-13T08:53:23Z</time>
      </trkpt>
      <trkpt lat="47.5258" lon="-2.65266">
        <ele>66</ele>
        <time>2025-05-13T08:53:24Z</time>
      </trkpt>
      <trkpt lat="47.52575" lon="-2.65268">
        <ele>66</ele>
        <time>2025-05-13T08:53:25Z</time>
      </trkpt>
      <trkpt lat="47.5257" lon="-2.65271">
        <ele>66</ele>
        <time>2025-05-13T08:53:26Z</time>
      </trkpt>
      <trkpt lat="47.52566" lon="-2.65274">
        <ele>66</ele>
        <time>2025-05-13T08:53:27Z</time>
      </trkpt>
      <trkpt lat="47.52561" lon="-2.65277">
        <ele>66</ele>
        <time>2025-05-13T08:53:28Z</time>
      </trkpt>
      <trkpt lat="47.52556" lon="-2.65279">
        <ele>66</ele>
        <time>2025-05-13T08:53:29Z</time>
      </trkpt>
      <trkpt lat="47.52551" lon="-2.65281">
        <ele>67</ele>
        <time>2025-05-13T08:53:30Z</time>
      </trkpt>
      <trkpt lat="47.52547" lon="-2.65283">
        <ele>67</ele>
        <time>2025-05-13T08:53:31Z</time>
      </trkpt>
      <trkpt lat="47.52542" lon="-2.65285">
        <ele>67</ele>
        <time>2025-05-13T08:53:32Z</time>
      </trkpt>
      <trkpt lat="47.52537" lon="-2.65287">
        <ele>67</ele>
        <time>2025-05-13T08:53:33Z</time>
      </trkpt>
      <trkpt lat="47.52532" lon="-2.65289">
        <ele>67</ele>
        <time>2025-05-13T08:53:34Z</time>
      </trkpt>
      <trkpt lat="47.52527" lon="-2.65291">
        <ele>67</ele>
        <time>2025-05-13T08:53:35Z</time>
      </trkpt>
      <trkpt lat="47.52523" lon="-2.65293">
        <ele>68</ele>
        <time>2025-05-13T08:53:36Z</time>
      </trkpt>
      <trkpt lat="47.52518" lon="-2.65295">
        <ele>67</ele>
        <time>2025-05-13T08:53:37Z</time>
      </trkpt>
      <trkpt lat="47.52513" lon="-2.65297">
        <ele>68</ele>
        <time>2025-05-13T08:53:38Z</time>
      </trkpt>
      <trkpt lat="47.52508" lon="-2.65299">
        <ele>67</ele>
        <time>2025-05-13T08:53:39Z</time>
      </trkpt>
      <trkpt lat="47.52503" lon="-2.65302">
        <ele>67</ele>
        <time>2025-05-13T08:53:40Z</time>
      </trkpt>
      <trkpt lat="47.52498" lon="-2.65304">
        <ele>67</ele>
        <time>2025-05-13T08:53:41Z</time>
      </trkpt>
      <trkpt lat="47.52493" lon="-2.65305">
        <ele>67</ele>
        <time>2025-05-13T08:53:42Z</time>
      </trkpt>
      <trkpt lat="47.52487" lon="-2.65307">
        <ele>66</ele>
        <time>2025-05-13T08:53:43Z</time>
      </trkpt>
      <trkpt lat="47.52482" lon="-2.65309">
        <ele>66</ele>
        <time>2025-05-13T08:53:44Z</time>
      </trkpt>
      <trkpt lat="47.52477" lon="-2.6531">
        <ele>66</ele>
        <time>2025-05-13T08:53:45Z</time>
      </trkpt>
      <trkpt lat="47.52472" lon="-2.65312">
        <ele>66</ele>
        <time>2025-05-13T08:53:46Z</time>
      </trkpt>
      <trkpt lat="47.52466" lon="-2.65314">
        <ele>66</ele>
        <time>2025-05-13T08:53:47Z</time>
      </trkpt>
      <trkpt lat="47.52462" lon="-2.65317">
        <ele>66</ele>
        <time>2025-05-13T08:53:48Z</time>
      </trkpt>
      <trkpt lat="47.52456" lon="-2.65319">
        <ele>66</ele>
        <time>2025-05-13T08:53:49Z</time>
      </trkpt>
      <trkpt lat="47.52451" lon="-2.65321">
        <ele>66</ele>
        <time>2025-05-13T08:53:50Z</time>
      </trkpt>
      <trkpt lat="47.52446" lon="-2.65324">
        <ele>66</ele>
        <time>2025-05-13T08:53:51Z</time>
      </trkpt>
      <trkpt lat="47.52441" lon="-2.65326">
        <ele>66</ele>
        <time>2025-05-13T08:53:52Z</time>
      </trkpt>
      <trkpt lat="47.52435" lon="-2.65328">
        <ele>66</ele>
        <time>2025-05-13T08:53:53Z</time>
      </trkpt>
      <trkpt lat="47.5243" lon="-2.6533">
        <ele>65</ele>
        <time>2025-05-13T08:53:54Z</time>
      </trkpt>
      <trkpt lat="47.52425" lon="-2.65332">
        <ele>65</ele>
        <time>2025-05-13T08:53:55Z</time>
      </trkpt>
      <trkpt lat="47.5242" lon="-2.65334">
        <ele>65</ele>
        <time>2025-05-13T08:53:56Z</time>
      </trkpt>
      <trkpt lat="47.52415" lon="-2.65336">
        <ele>65</ele>
        <time>2025-05-13T08:53:57Z</time>
      </trkpt>
      <trkpt lat="47.5241" lon="-2.65338">
        <ele>65</ele>
        <time>2025-05-13T08:53:58Z</time>
      </trkpt>
      <trkpt lat="47.52405" lon="-2.65341">
        <ele>65</ele>
        <time>2025-05-13T08:53:59Z</time>
      </trkpt>
      <trkpt lat="47.52399" lon="-2.65343">
        <ele>64</ele>
        <time>2025-05-13T08:54:00Z</time>
      </trkpt>
      <trkpt lat="47.52394" lon="-2.65346">
        <ele>64</ele>
        <time>2025-05-13T08:54:01Z</time>
      </trkpt>
      <trkpt lat="47.52389" lon="-2.65348">
        <ele>64</ele>
        <time>2025-05-13T08:54:02Z</time>
      </trkpt>
      <trkpt lat="47.52384" lon="-2.6535">
        <ele>64</ele>
        <time>2025-05-13T08:54:03Z</time>
      </trkpt>
      <trkpt lat="47.52378" lon="-2.65353">
        <ele>63</ele>
        <time>2025-05-13T08:54:04Z</time>
      </trkpt>
      <trkpt lat="47.52372" lon="-2.65355">
        <ele>64</ele>
        <time>2025-05-13T08:54:05Z</time>
      </trkpt>
      <trkpt lat="47.52367" lon="-2.65357">
        <ele>63</ele>
        <time>2025-05-13T08:54:06Z</time>
      </trkpt>
      <trkpt lat="47.52361" lon="-2.65359">
        <ele>63</ele>
        <time>2025-05-13T08:54:07Z</time>
      </trkpt>
      <trkpt lat="47.52355" lon="-2.6536">
        <ele>63</ele>
        <time>2025-05-13T08:54:08Z</time>
      </trkpt>
      <trkpt lat="47.52349" lon="-2.65362">
        <ele>63</ele>
        <time>2025-05-13T08:54:09Z</time>
      </trkpt>
      <trkpt lat="47.52343" lon="-2.65364">
        <ele>63</ele>
        <time>2025-05-13T08:54:10Z</time>
      </trkpt>
      <trkpt lat="47.52337" lon="-2.65367">
        <ele>63</ele>
        <time>2025-05-13T08:54:11Z</time>
      </trkpt>
      <trkpt lat="47.52332" lon="-2.6537">
        <ele>63</ele>
        <time>2025-05-13T08:54:12Z</time>
      </trkpt>
      <trkpt lat="47.52326" lon="-2.65372">
        <ele>63</ele>
        <time>2025-05-13T08:54:13Z</time>
      </trkpt>
      <trkpt lat="47.52321" lon="-2.65375">
        <ele>63</ele>
        <time>2025-05-13T08:54:14Z</time>
      </trkpt>
      <trkpt lat="47.52316" lon="-2.65377">
        <ele>63</ele>
        <time>2025-05-13T08:54:15Z</time>
      </trkpt>
      <trkpt lat="47.52311" lon="-2.65379">
        <ele>62</ele>
        <time>2025-05-13T08:54:16Z</time>
      </trkpt>
      <trkpt lat="47.52306" lon="-2.65381">
        <ele>62</ele>
        <time>2025-05-13T08:54:17Z</time>
      </trkpt>
      <trkpt lat="47.523" lon="-2.65383">
        <ele>62</ele>
        <time>2025-05-13T08:54:18Z</time>
      </trkpt>
      <trkpt lat="47.52294" lon="-2.65385">
        <ele>62</ele>
        <time>2025-05-13T08:54:19Z</time>
      </trkpt>
      <trkpt lat="47.52289" lon="-2.65387">
        <ele>62</ele>
        <time>2025-05-13T08:54:20Z</time>
      </trkpt>
      <trkpt lat="47.52283" lon="-2.65389">
        <ele>62</ele>
        <time>2025-05-13T08:54:21Z</time>
      </trkpt>
      <trkpt lat="47.52278" lon="-2.65392">
        <ele>62</ele>
        <time>2025-05-13T08:54:22Z</time>
      </trkpt>
      <trkpt lat="47.52273" lon="-2.65394">
        <ele>62</ele>
        <time>2025-05-13T08:54:23Z</time>
      </trkpt>
      <trkpt lat="47.52268" lon="-2.65397">
        <ele>62</ele>
        <time>2025-05-13T08:54:24Z</time>
      </trkpt>
      <trkpt lat="47.52262" lon="-2.65398">
        <ele>62</ele>
        <time>2025-05-13T08:54:25Z</time>
      </trkpt>
      <trkpt lat="47.52257" lon="-2.654">
        <ele>62</ele>
        <time>2025-05-13T08:54:26Z</time>
      </trkpt>
      <trkpt lat="47.52253" lon="-2.65401">
        <ele>62</ele>
        <time>2025-05-13T08:54:27Z</time>
      </trkpt>
      <trkpt lat="47.52248" lon="-2.65403">
        <ele>62</ele>
        <time>2025-05-13T08:54:28Z</time>
      </trkpt>
      <trkpt lat="47.52244" lon="-2.65405">
        <ele>62</ele>
        <time>2025-05-13T08:54:29Z</time>
      </trkpt>
      <trkpt lat="47.5224" lon="-2.65407">
        <ele>62</ele>
        <time>2025-05-13T08:54:30Z</time>
      </trkpt>
      <trkpt lat="47.52236" lon="-2.65409">
        <ele>62</ele>
        <time>2025-05-13T08:54:31Z</time>
      </trkpt>
      <trkpt lat="47.52232" lon="-2.6541">
        <ele>62</ele>
        <time>2025-05-13T08:54:32Z</time>
      </trkpt>
      <trkpt lat="47.52227" lon="-2.65413">
        <ele>62</ele>
        <time>2025-05-13T08:54:33Z</time>
      </trkpt>
      <trkpt lat="47.52223" lon="-2.65415">
        <ele>61</ele>
        <time>2025-05-13T08:54:34Z</time>
      </trkpt>
      <trkpt lat="47.52219" lon="-2.65418">
        <ele>61</ele>
        <time>2025-05-13T08:54:35Z</time>
      </trkpt>
      <trkpt lat="47.52215" lon="-2.6542">
        <ele>61</ele>
        <time>2025-05-13T08:54:36Z</time>
      </trkpt>
      <trkpt lat="47.52211" lon="-2.65422">
        <ele>61</ele>
        <time>2025-05-13T08:54:37Z</time>
      </trkpt>
      <trkpt lat="47.52207" lon="-2.65424">
        <ele>61</ele>
        <time>2025-05-13T08:54:38Z</time>
      </trkpt>
      <trkpt lat="47.52203" lon="-2.65427">
        <ele>61</ele>
        <time>2025-05-13T08:54:39Z</time>
      </trkpt>
      <trkpt lat="47.52199" lon="-2.6543">
        <ele>61</ele>
        <time>2025-05-13T08:54:40Z</time>
      </trkpt>
      <trkpt lat="47.52195" lon="-2.65432">
        <ele>61</ele>
        <time>2025-05-13T08:54:41Z</time>
      </trkpt>
      <trkpt lat="47.52191" lon="-2.65435">
        <ele>61</ele>
        <time>2025-05-13T08:54:42Z</time>
      </trkpt>
      <trkpt lat="47.52187" lon="-2.65437">
        <ele>61</ele>
        <time>2025-05-13T08:54:43Z</time>
      </trkpt>
      <trkpt lat="47.52183" lon="-2.6544">
        <ele>61</ele>
        <time>2025-05-13T08:54:44Z</time>
      </trkpt>
      <trkpt lat="47.5218" lon="-2.65443">
        <ele>61</ele>
        <time>2025-05-13T08:54:45Z</time>
      </trkpt>
      <trkpt lat="47.52176" lon="-2.65446">
        <ele>61</ele>
        <time>2025-05-13T08:54:46Z</time>
      </trkpt>
      <trkpt lat="47.52172" lon="-2.65449">
        <ele>62</ele>
        <time>2025-05-13T08:54:47Z</time>
      </trkpt>
      <trkpt lat="47.52169" lon="-2.65452">
        <ele>62</ele>
        <time>2025-05-13T08:54:48Z</time>
      </trkpt>
      <trkpt lat="47.52165" lon="-2.65455">
        <ele>62</ele>
        <time>2025-05-13T08:54:49Z</time>
      </trkpt>
      <trkpt lat="47.52161" lon="-2.65458">
        <ele>62</ele>
        <time>2025-05-13T08:54:50Z</time>
      </trkpt>
      <trkpt lat="47.52157" lon="-2.65461">
        <ele>62</ele>
        <time>2025-05-13T08:54:51Z</time>
      </trkpt>
      <trkpt lat="47.52153" lon="-2.65463">
        <ele>62</ele>
        <time>2025-05-13T08:54:52Z</time>
      </trkpt>
      <trkpt lat="47.52149" lon="-2.65466">
        <ele>62</ele>
        <time>2025-05-13T08:54:53Z</time>
      </trkpt>
      <trkpt lat="47.52146" lon="-2.6547">
        <ele>62</ele>
        <time>2025-05-13T08:54:54Z</time>
      </trkpt>
      <trkpt lat="47.52143" lon="-2.65473">
        <ele>62</ele>
        <time>2025-05-13T08:54:55Z</time>
      </trkpt>
      <trkpt lat="47.52139" lon="-2.65476">
        <ele>62</ele>
        <time>2025-05-13T08:54:56Z</time>
      </trkpt>
      <trkpt lat="47.52136" lon="-2.6548">
        <ele>62</ele>
        <time>2025-05-13T08:54:57Z</time>
      </trkpt>
      <trkpt lat="47.52133" lon="-2.65484">
        <ele>63</ele>
        <time>2025-05-13T08:54:58Z</time>
      </trkpt>
      <trkpt lat="47.52129" lon="-2.65487">
        <ele>62</ele>
        <time>2025-05-13T08:54:59Z</time>
      </trkpt>
      <trkpt lat="47.52126" lon="-2.65491">
        <ele>62</ele>
        <time>2025-05-13T08:55:00Z</time>
      </trkpt>
      <trkpt lat="47.52122" lon="-2.65494">
        <ele>63</ele>
        <time>2025-05-13T08:55:01Z</time>
      </trkpt>
      <trkpt lat="47.52118" lon="-2.65499">
        <ele>63</ele>
        <time>2025-05-13T08:55:02Z</time>
      </trkpt>
      <trkpt lat="47.52114" lon="-2.65502">
        <ele>63</ele>
        <time>2025-05-13T08:55:03Z</time>
      </trkpt>
      <trkpt lat="47.5211" lon="-2.65506">
        <ele>63</ele>
        <time>2025-05-13T08:55:04Z</time>
      </trkpt>
      <trkpt lat="47.52106" lon="-2.6551">
        <ele>63</ele>
        <time>2025-05-13T08:55:05Z</time>
      </trkpt>
      <trkpt lat="47.52103" lon="-2.65515">
        <ele>63</ele>
        <time>2025-05-13T08:55:06Z</time>
      </trkpt>
      <trkpt lat="47.52099" lon="-2.65519">
        <ele>63</ele>
        <time>2025-05-13T08:55:07Z</time>
      </trkpt>
      <trkpt lat="47.52095" lon="-2.65524">
        <ele>63</ele>
        <time>2025-05-13T08:55:08Z</time>
      </trkpt>
      <trkpt lat="47.52092" lon="-2.65528">
        <ele>63</ele>
        <time>2025-05-13T08:55:09Z</time>
      </trkpt>
      <trkpt lat="47.52088" lon="-2.65533">
        <ele>63</ele>
        <time>2025-05-13T08:55:10Z</time>
      </trkpt>
      <trkpt lat="47.52085" lon="-2.65537">
        <ele>63</ele>
        <time>2025-05-13T08:55:11Z</time>
      </trkpt>
      <trkpt lat="47.52081" lon="-2.65542">
        <ele>63</ele>
        <time>2025-05-13T08:55:12Z</time>
      </trkpt>
      <trkpt lat="47.52077" lon="-2.65547">
        <ele>63</ele>
        <time>2025-05-13T08:55:13Z</time>
      </trkpt>
      <trkpt lat="47.52074" lon="-2.65551">
        <ele>62</ele>
        <time>2025-05-13T08:55:14Z</time>
      </trkpt>
      <trkpt lat="47.5207" lon="-2.65556">
        <ele>62</ele>
        <time>2025-05-13T08:55:15Z</time>
      </trkpt>
      <trkpt lat="47.52066" lon="-2.65561">
        <ele>62</ele>
        <time>2025-05-13T08:55:16Z</time>
      </trkpt>
      <trkpt lat="47.52063" lon="-2.65566">
        <ele>61</ele>
        <time>2025-05-13T08:55:17Z</time>
      </trkpt>
      <trkpt lat="47.52059" lon="-2.65571">
        <ele>62</ele>
        <time>2025-05-13T08:55:18Z</time>
      </trkpt>
      <trkpt lat="47.52056" lon="-2.65576">
        <ele>61</ele>
        <time>2025-05-13T08:55:19Z</time>
      </trkpt>
      <trkpt lat="47.52053" lon="-2.65581">
        <ele>62</ele>
        <time>2025-05-13T08:55:20Z</time>
      </trkpt>
      <trkpt lat="47.52049" lon="-2.65587">
        <ele>62</ele>
        <time>2025-05-13T08:55:21Z</time>
      </trkpt>
      <trkpt lat="47.52045" lon="-2.65593">
        <ele>61</ele>
        <time>2025-05-13T08:55:22Z</time>
      </trkpt>
      <trkpt lat="47.52042" lon="-2.65598">
        <ele>61</ele>
        <time>2025-05-13T08:55:23Z</time>
      </trkpt>
      <trkpt lat="47.52039" lon="-2.65603">
        <ele>61</ele>
        <time>2025-05-13T08:55:24Z</time>
      </trkpt>
      <trkpt lat="47.52036" lon="-2.65609">
        <ele>61</ele>
        <time>2025-05-13T08:55:25Z</time>
      </trkpt>
      <trkpt lat="47.52033" lon="-2.65616">
        <ele>61</ele>
        <time>2025-05-13T08:55:26Z</time>
      </trkpt>
      <trkpt lat="47.52029" lon="-2.65622">
        <ele>61</ele>
        <time>2025-05-13T08:55:27Z</time>
      </trkpt>
      <trkpt lat="47.52026" lon="-2.65627">
        <ele>61</ele>
        <time>2025-05-13T08:55:28Z</time>
      </trkpt>
      <trkpt lat="47.52023" lon="-2.65633">
        <ele>61</ele>
        <time>2025-05-13T08:55:29Z</time>
      </trkpt>
      <trkpt lat="47.5202" lon="-2.65638">
        <ele>61</ele>
        <time>2025-05-13T08:55:30Z</time>
      </trkpt>
      <trkpt lat="47.52017" lon="-2.65644">
        <ele>61</ele>
        <time>2025-05-13T08:55:31Z</time>
      </trkpt>
      <trkpt lat="47.52014" lon="-2.6565">
        <ele>61</ele>
        <time>2025-05-13T08:55:32Z</time>
      </trkpt>
      <trkpt lat="47.52011" lon="-2.65656">
        <ele>61</ele>
        <time>2025-05-13T08:55:33Z</time>
      </trkpt>
      <trkpt lat="47.52008" lon="-2.65663">
        <ele>61</ele>
        <time>2025-05-13T08:55:34Z</time>
      </trkpt>
      <trkpt lat="47.52006" lon="-2.6567">
        <ele>60</ele>
        <time>2025-05-13T08:55:35Z</time>
      </trkpt>
      <trkpt lat="47.52003" lon="-2.65677">
        <ele>60</ele>
        <time>2025-05-13T08:55:36Z</time>
      </trkpt>
      <trkpt lat="47.52001" lon="-2.65684">
        <ele>60</ele>
        <time>2025-05-13T08:55:37Z</time>
      </trkpt>
      <trkpt lat="47.51998" lon="-2.65691">
        <ele>60</ele>
        <time>2025-05-13T08:55:38Z</time>
      </trkpt>
      <trkpt lat="47.51996" lon="-2.65697">
        <ele>60</ele>
        <time>2025-05-13T08:55:39Z</time>
      </trkpt>
      <trkpt lat="47.51992" lon="-2.65705">
        <ele>59</ele>
        <time>2025-05-13T08:55:40Z</time>
      </trkpt>
      <trkpt lat="47.5199" lon="-2.65712">
        <ele>59</ele>
        <time>2025-05-13T08:55:41Z</time>
      </trkpt>
      <trkpt lat="47.51988" lon="-2.6572">
        <ele>59</ele>
        <time>2025-05-13T08:55:42Z</time>
      </trkpt>
      <trkpt lat="47.51985" lon="-2.65728">
        <ele>58</ele>
        <time>2025-05-13T08:55:43Z</time>
      </trkpt>
      <trkpt lat="47.51982" lon="-2.65735">
        <ele>58</ele>
        <time>2025-05-13T08:55:44Z</time>
      </trkpt>
      <trkpt lat="47.5198" lon="-2.65743">
        <ele>59</ele>
        <time>2025-05-13T08:55:45Z</time>
      </trkpt>
      <trkpt lat="47.51977" lon="-2.65751">
        <ele>58</ele>
        <time>2025-05-13T08:55:46Z</time>
      </trkpt>
      <trkpt lat="47.51975" lon="-2.65758">
        <ele>58</ele>
        <time>2025-05-13T08:55:47Z</time>
      </trkpt>
      <trkpt lat="47.51972" lon="-2.65766">
        <ele>58</ele>
        <time>2025-05-13T08:55:48Z</time>
      </trkpt>
      <trkpt lat="47.5197" lon="-2.65773">
        <ele>58</ele>
        <time>2025-05-13T08:55:49Z</time>
      </trkpt>
      <trkpt lat="47.51967" lon="-2.65781">
        <ele>58</ele>
        <time>2025-05-13T08:55:50Z</time>
      </trkpt>
      <trkpt lat="47.51965" lon="-2.65788">
        <ele>57</ele>
        <time>2025-05-13T08:55:51Z</time>
      </trkpt>
      <trkpt lat="47.51963" lon="-2.65796">
        <ele>57</ele>
        <time>2025-05-13T08:55:52Z</time>
      </trkpt>
      <trkpt lat="47.51961" lon="-2.65804">
        <ele>57</ele>
        <time>2025-05-13T08:55:53Z</time>
      </trkpt>
      <trkpt lat="47.51958" lon="-2.65812">
        <ele>58</ele>
        <time>2025-05-13T08:55:54Z</time>
      </trkpt>
      <trkpt lat="47.51956" lon="-2.6582">
        <ele>58</ele>
        <time>2025-05-13T08:55:55Z</time>
      </trkpt>
      <trkpt lat="47.51955" lon="-2.65828">
        <ele>58</ele>
        <time>2025-05-13T08:55:56Z</time>
      </trkpt>
      <trkpt lat="47.51953" lon="-2.65837">
        <ele>58</ele>
        <time>2025-05-13T08:55:57Z</time>
      </trkpt>
      <trkpt lat="47.51952" lon="-2.65846">
        <ele>58</ele>
        <time>2025-05-13T08:55:58Z</time>
      </trkpt>
      <trkpt lat="47.5195" lon="-2.65855">
        <ele>58</ele>
        <time>2025-05-13T08:55:59Z</time>
      </trkpt>
      <trkpt lat="47.51948" lon="-2.65863">
        <ele>58</ele>
        <time>2025-05-13T08:56:00Z</time>
      </trkpt>
      <trkpt lat="47.51947" lon="-2.65871">
        <ele>58</ele>
        <time>2025-05-13T08:56:01Z</time>
      </trkpt>
      <trkpt lat="47.51945" lon="-2.6588">
        <ele>59</ele>
        <time>2025-05-13T08:56:02Z</time>
      </trkpt>
      <trkpt lat="47.51944" lon="-2.65888">
        <ele>59</ele>
        <time>2025-05-13T08:56:03Z</time>
      </trkpt>
      <trkpt lat="47.51942" lon="-2.65897">
        <ele>58</ele>
        <time>2025-05-13T08:56:04Z</time>
      </trkpt>
      <trkpt lat="47.51941" lon="-2.65905">
        <ele>58</ele>
        <time>2025-05-13T08:56:05Z</time>
      </trkpt>
      <trkpt lat="47.5194" lon="-2.65915">
        <ele>59</ele>
        <time>2025-05-13T08:56:06Z</time>
      </trkpt>
      <trkpt lat="47.51939" lon="-2.65923">
        <ele>59</ele>
        <time>2025-05-13T08:56:07Z</time>
      </trkpt>
      <trkpt lat="47.51938" lon="-2.65931">
        <ele>59</ele>
        <time>2025-05-13T08:56:08Z</time>
      </trkpt>
      <trkpt lat="47.51937" lon="-2.6594">
        <ele>59</ele>
        <time>2025-05-13T08:56:09Z</time>
      </trkpt>
      <trkpt lat="47.51936" lon="-2.65948">
        <ele>59</ele>
        <time>2025-05-13T08:56:10Z</time>
      </trkpt>
      <trkpt lat="47.51935" lon="-2.65956">
        <ele>59</ele>
        <time>2025-05-13T08:56:11Z</time>
      </trkpt>
      <trkpt lat="47.51934" lon="-2.65965">
        <ele>59</ele>
        <time>2025-05-13T08:56:12Z</time>
      </trkpt>
      <trkpt lat="47.51933" lon="-2.65973">
        <ele>59</ele>
        <time>2025-05-13T08:56:13Z</time>
      </trkpt>
      <trkpt lat="47.51933" lon="-2.65982">
        <ele>59</ele>
        <time>2025-05-13T08:56:14Z</time>
      </trkpt>
      <trkpt lat="47.51933" lon="-2.6599">
        <ele>58</ele>
        <time>2025-05-13T08:56:15Z</time>
      </trkpt>
      <trkpt lat="47.51933" lon="-2.65998">
        <ele>58</ele>
        <time>2025-05-13T08:56:16Z</time>
      </trkpt>
      <trkpt lat="47.51933" lon="-2.66007">
        <ele>59</ele>
        <time>2025-05-13T08:56:17Z</time>
      </trkpt>
      <trkpt lat="47.51933" lon="-2.66014">
        <ele>59</ele>
        <time>2025-05-13T08:56:18Z</time>
      </trkpt>
      <trkpt lat="47.51933" lon="-2.66023">
        <ele>59</ele>
        <time>2025-05-13T08:56:19Z</time>
      </trkpt>
      <trkpt lat="47.51933" lon="-2.66031">
        <ele>59</ele>
        <time>2025-05-13T08:56:20Z</time>
      </trkpt>
      <trkpt lat="47.51933" lon="-2.66038">
        <ele>59</ele>
        <time>2025-05-13T08:56:21Z</time>
      </trkpt>
      <trkpt lat="47.51933" lon="-2.66046">
        <ele>59</ele>
        <time>2025-05-13T08:56:22Z</time>
      </trkpt>
      <trkpt lat="47.51933" lon="-2.66053">
        <ele>59</ele>
        <time>2025-05-13T08:56:23Z</time>
      </trkpt>
      <trkpt lat="47.51934" lon="-2.6606">
        <ele>59</ele>
        <time>2025-05-13T08:56:24Z</time>
      </trkpt>
      <trkpt lat="47.51934" lon="-2.66067">
        <ele>59</ele>
        <time>2025-05-13T08:56:25Z</time>
      </trkpt>
      <trkpt lat="47.51933" lon="-2.66074">
        <ele>58</ele>
        <time>2025-05-13T08:56:26Z</time>
      </trkpt>
      <trkpt lat="47.51933" lon="-2.66081">
        <ele>58</ele>
        <time>2025-05-13T08:56:27Z</time>
      </trkpt>
      <trkpt lat="47.51933" lon="-2.66088">
        <ele>59</ele>
        <time>2025-05-13T08:56:28Z</time>
      </trkpt>
      <trkpt lat="47.51933" lon="-2.66095">
        <ele>58</ele>
        <time>2025-05-13T08:56:29Z</time>
      </trkpt>
      <trkpt lat="47.51933" lon="-2.66101">
        <ele>59</ele>
        <time>2025-05-13T08:56:30Z</time>
      </trkpt>
      <trkpt lat="47.51934" lon="-2.66108">
        <ele>59</ele>
        <time>2025-05-13T08:56:31Z</time>
      </trkpt>
      <trkpt lat="47.51934" lon="-2.66115">
        <ele>60</ele>
        <time>2025-05-13T08:56:32Z</time>
      </trkpt>
      <trkpt lat="47.51934" lon="-2.66122">
        <ele>60</ele>
        <time>2025-05-13T08:56:33Z</time>
      </trkpt>
      <trkpt lat="47.51935" lon="-2.66129">
        <ele>59</ele>
        <time>2025-05-13T08:56:34Z</time>
      </trkpt>
      <trkpt lat="47.51936" lon="-2.66135">
        <ele>59</ele>
        <time>2025-05-13T08:56:35Z</time>
      </trkpt>
      <trkpt lat="47.51937" lon="-2.66141">
        <ele>59</ele>
        <time>2025-05-13T08:56:36Z</time>
      </trkpt>
      <trkpt lat="47.51937" lon="-2.66148">
        <ele>59</ele>
        <time>2025-05-13T08:56:37Z</time>
      </trkpt>
      <trkpt lat="47.51938" lon="-2.66154">
        <ele>59</ele>
        <time>2025-05-13T08:56:38Z</time>
      </trkpt>
      <trkpt lat="47.51939" lon="-2.66161">
        <ele>59</ele>
        <time>2025-05-13T08:56:39Z</time>
      </trkpt>
      <trkpt lat="47.5194" lon="-2.66168">
        <ele>59</ele>
        <time>2025-05-13T08:56:40Z</time>
      </trkpt>
      <trkpt lat="47.5194" lon="-2.66174">
        <ele>59</ele>
        <time>2025-05-13T08:56:41Z</time>
      </trkpt>
      <trkpt lat="47.51941" lon="-2.66181">
        <ele>59</ele>
        <time>2025-05-13T08:56:42Z</time>
      </trkpt>
      <trkpt lat="47.51942" lon="-2.66187">
        <ele>60</ele>
        <time>2025-05-13T08:56:43Z</time>
      </trkpt>
      <trkpt lat="47.51943" lon="-2.66195">
        <ele>59</ele>
        <time>2025-05-13T08:56:44Z</time>
      </trkpt>
      <trkpt lat="47.51943" lon="-2.66201">
        <ele>59</ele>
        <time>2025-05-13T08:56:45Z</time>
      </trkpt>
      <trkpt lat="47.51943" lon="-2.66208">
        <ele>59</ele>
        <time>2025-05-13T08:56:46Z</time>
      </trkpt>
      <trkpt lat="47.51943" lon="-2.66215">
        <ele>59</ele>
        <time>2025-05-13T08:56:47Z</time>
      </trkpt>
      <trkpt lat="47.51944" lon="-2.66221">
        <ele>59</ele>
        <time>2025-05-13T08:56:48Z</time>
      </trkpt>
      <trkpt lat="47.51945" lon="-2.66228">
        <ele>59</ele>
        <time>2025-05-13T08:56:49Z</time>
      </trkpt>
      <trkpt lat="47.51945" lon="-2.66234">
        <ele>59</ele>
        <time>2025-05-13T08:56:50Z</time>
      </trkpt>
      <trkpt lat="47.51946" lon="-2.66241">
        <ele>58</ele>
        <time>2025-05-13T08:56:51Z</time>
      </trkpt>
      <trkpt lat="47.51946" lon="-2.66247">
        <ele>58</ele>
        <time>2025-05-13T08:56:52Z</time>
      </trkpt>
      <trkpt lat="47.51947" lon="-2.66253">
        <ele>58</ele>
        <time>2025-05-13T08:56:53Z</time>
      </trkpt>
      <trkpt lat="47.51947" lon="-2.6626">
        <ele>58</ele>
        <time>2025-05-13T08:56:54Z</time>
      </trkpt>
      <trkpt lat="47.51948" lon="-2.66266">
        <ele>59</ele>
        <time>2025-05-13T08:56:55Z</time>
      </trkpt>
      <trkpt lat="47.51948" lon="-2.66273">
        <ele>59</ele>
        <time>2025-05-13T08:56:56Z</time>
      </trkpt>
      <trkpt lat="47.51949" lon="-2.66279">
        <ele>59</ele>
        <time>2025-05-13T08:56:57Z</time>
      </trkpt>
      <trkpt lat="47.5195" lon="-2.66285">
        <ele>59</ele>
        <time>2025-05-13T08:56:58Z</time>
      </trkpt>
      <trkpt lat="47.5195" lon="-2.66292">
        <ele>59</ele>
        <time>2025-05-13T08:56:59Z</time>
      </trkpt>
      <trkpt lat="47.51951" lon="-2.66299">
        <ele>59</ele>
        <time>2025-05-13T08:57:00Z</time>
      </trkpt>
      <trkpt lat="47.51951" lon="-2.66305">
        <ele>59</ele>
        <time>2025-05-13T08:57:01Z</time>
      </trkpt>
      <trkpt lat="47.51952" lon="-2.66312">
        <ele>59</ele>
        <time>2025-05-13T08:57:02Z</time>
      </trkpt>
      <trkpt lat="47.51952" lon="-2.66319">
        <ele>59</ele>
        <time>2025-05-13T08:57:03Z</time>
      </trkpt>
      <trkpt lat="47.51953" lon="-2.66325">
        <ele>59</ele>
        <time>2025-05-13T08:57:04Z</time>
      </trkpt>
      <trkpt lat="47.51954" lon="-2.66332">
        <ele>58</ele>
        <time>2025-05-13T08:57:05Z</time>
      </trkpt>
      <trkpt lat="47.51954" lon="-2.66339">
        <ele>58</ele>
        <time>2025-05-13T08:57:06Z</time>
      </trkpt>
      <trkpt lat="47.51955" lon="-2.66346">
        <ele>58</ele>
        <time>2025-05-13T08:57:07Z</time>
      </trkpt>
      <trkpt lat="47.51956" lon="-2.66353">
        <ele>58</ele>
        <time>2025-05-13T08:57:08Z</time>
      </trkpt>
      <trkpt lat="47.51957" lon="-2.6636">
        <ele>58</ele>
        <time>2025-05-13T08:57:09Z</time>
      </trkpt>
      <trkpt lat="47.51958" lon="-2.66367">
        <ele>58</ele>
        <time>2025-05-13T08:57:10Z</time>
      </trkpt>
      <trkpt lat="47.51958" lon="-2.66375">
        <ele>58</ele>
        <time>2025-05-13T08:57:11Z</time>
      </trkpt>
      <trkpt lat="47.51959" lon="-2.66382">
        <ele>58</ele>
        <time>2025-05-13T08:57:12Z</time>
      </trkpt>
      <trkpt lat="47.51959" lon="-2.66389">
        <ele>58</ele>
        <time>2025-05-13T08:57:13Z</time>
      </trkpt>
      <trkpt lat="47.5196" lon="-2.66395">
        <ele>58</ele>
        <time>2025-05-13T08:57:14Z</time>
      </trkpt>
      <trkpt lat="47.51959" lon="-2.66402">
        <ele>59</ele>
        <time>2025-05-13T08:57:15Z</time>
      </trkpt>
      <trkpt lat="47.51957" lon="-2.66407">
        <ele>59</ele>
        <time>2025-05-13T08:57:16Z</time>
      </trkpt>
      <trkpt lat="47.51954" lon="-2.66411">
        <ele>59</ele>
        <time>2025-05-13T08:57:17Z</time>
      </trkpt>
      <trkpt lat="47.5195" lon="-2.66413">
        <ele>59</ele>
        <time>2025-05-13T08:57:18Z</time>
      </trkpt>
      <trkpt lat="47.51944" lon="-2.66415">
        <ele>59</ele>
        <time>2025-05-13T08:57:19Z</time>
      </trkpt>
      <trkpt lat="47.51938" lon="-2.66416">
        <ele>59</ele>
        <time>2025-05-13T08:57:20Z</time>
      </trkpt>
      <trkpt lat="47.51933" lon="-2.66417">
        <ele>59</ele>
        <time>2025-05-13T08:57:21Z</time>
      </trkpt>
      <trkpt lat="47.51928" lon="-2.66417">
        <ele>59</ele>
        <time>2025-05-13T08:57:22Z</time>
      </trkpt>
      <trkpt lat="47.51924" lon="-2.66418">
        <ele>59</ele>
        <time>2025-05-13T08:57:23Z</time>
      </trkpt>
      <trkpt lat="47.51919" lon="-2.66419">
        <ele>58</ele>
        <time>2025-05-13T08:57:24Z</time>
      </trkpt>
      <trkpt lat="47.51915" lon="-2.6642">
        <ele>59</ele>
        <time>2025-05-13T08:57:25Z</time>
      </trkpt>
      <trkpt lat="47.51911" lon="-2.66422">
        <ele>59</ele>
        <time>2025-05-13T08:57:26Z</time>
      </trkpt>
      <trkpt lat="47.51907" lon="-2.66424">
        <ele>59</ele>
        <time>2025-05-13T08:57:27Z</time>
      </trkpt>
      <trkpt lat="47.51902" lon="-2.66427">
        <ele>59</ele>
        <time>2025-05-13T08:57:28Z</time>
      </trkpt>
      <trkpt lat="47.51898" lon="-2.66431">
        <ele>59</ele>
        <time>2025-05-13T08:57:29Z</time>
      </trkpt>
      <trkpt lat="47.51894" lon="-2.66435">
        <ele>59</ele>
        <time>2025-05-13T08:57:30Z</time>
      </trkpt>
      <trkpt lat="47.51891" lon="-2.66439">
        <ele>59</ele>
        <time>2025-05-13T08:57:31Z</time>
      </trkpt>
      <trkpt lat="47.51887" lon="-2.66443">
        <ele>58</ele>
        <time>2025-05-13T08:57:32Z</time>
      </trkpt>
      <trkpt lat="47.51884" lon="-2.66447">
        <ele>58</ele>
        <time>2025-05-13T08:57:33Z</time>
      </trkpt>
      <trkpt lat="47.51881" lon="-2.66452">
        <ele>58</ele>
        <time>2025-05-13T08:57:34Z</time>
      </trkpt>
      <trkpt lat="47.51878" lon="-2.66457">
        <ele>58</ele>
        <time>2025-05-13T08:57:35Z</time>
      </trkpt>
      <trkpt lat="47.51875" lon="-2.66462">
        <ele>58</ele>
        <time>2025-05-13T08:57:36Z</time>
      </trkpt>
      <trkpt lat="47.51873" lon="-2.66466">
        <ele>58</ele>
        <time>2025-05-13T08:57:37Z</time>
      </trkpt>
      <trkpt lat="47.5187" lon="-2.66471">
        <ele>59</ele>
        <time>2025-05-13T08:57:38Z</time>
      </trkpt>
      <trkpt lat="47.51867" lon="-2.66475">
        <ele>59</ele>
        <time>2025-05-13T08:57:39Z</time>
      </trkpt>
      <trkpt lat="47.51863" lon="-2.66479">
        <ele>59</ele>
        <time>2025-05-13T08:57:40Z</time>
      </trkpt>
      <trkpt lat="47.51859" lon="-2.66483">
        <ele>59</ele>
        <time>2025-05-13T08:57:41Z</time>
      </trkpt>
      <trkpt lat="47.51855" lon="-2.66486">
        <ele>58</ele>
        <time>2025-05-13T08:57:42Z</time>
      </trkpt>
      <trkpt lat="47.51851" lon="-2.66489">
        <ele>58</ele>
        <time>2025-05-13T08:57:43Z</time>
      </trkpt>
      <trkpt lat="47.51847" lon="-2.66491">
        <ele>58</ele>
        <time>2025-05-13T08:57:44Z</time>
      </trkpt>
      <trkpt lat="47.51843" lon="-2.66494">
        <ele>58</ele>
        <time>2025-05-13T08:57:45Z</time>
      </trkpt>
      <trkpt lat="47.5184" lon="-2.66498">
        <ele>58</ele>
        <time>2025-05-13T08:57:46Z</time>
      </trkpt>
      <trkpt lat="47.51836" lon="-2.66502">
        <ele>57</ele>
        <time>2025-05-13T08:57:47Z</time>
      </trkpt>
      <trkpt lat="47.51833" lon="-2.66505">
        <ele>58</ele>
        <time>2025-05-13T08:57:48Z</time>
      </trkpt>
      <trkpt lat="47.51829" lon="-2.66508">
        <ele>58</ele>
        <time>2025-05-13T08:57:49Z</time>
      </trkpt>
      <trkpt lat="47.51825" lon="-2.66511">
        <ele>59</ele>
        <time>2025-05-13T08:57:50Z</time>
      </trkpt>
      <trkpt lat="47.51821" lon="-2.66514">
        <ele>59</ele>
        <time>2025-05-13T08:57:51Z</time>
      </trkpt>
      <trkpt lat="47.51817" lon="-2.66516">
        <ele>59</ele>
        <time>2025-05-13T08:57:52Z</time>
      </trkpt>
      <trkpt lat="47.51813" lon="-2.66519">
        <ele>59</ele>
        <time>2025-05-13T08:57:53Z</time>
      </trkpt>
      <trkpt lat="47.5181" lon="-2.66522">
        <ele>59</ele>
        <time>2025-05-13T08:57:54Z</time>
      </trkpt>
      <trkpt lat="47.51806" lon="-2.66525">
        <ele>59</ele>
        <time>2025-05-13T08:57:55Z</time>
      </trkpt>
      <trkpt lat="47.51803" lon="-2.66527">
        <ele>59</ele>
        <time>2025-05-13T08:57:56Z</time>
      </trkpt>
      <trkpt lat="47.51799" lon="-2.6653">
        <ele>59</ele>
        <time>2025-05-13T08:57:57Z</time>
      </trkpt>
      <trkpt lat="47.51795" lon="-2.66532">
        <ele>59</ele>
        <time>2025-05-13T08:57:58Z</time>
      </trkpt>
      <trkpt lat="47.51791" lon="-2.66535">
        <ele>58</ele>
        <time>2025-05-13T08:57:59Z</time>
      </trkpt>
      <trkpt lat="47.51787" lon="-2.66538">
        <ele>58</ele>
        <time>2025-05-13T08:58:00Z</time>
      </trkpt>
      <trkpt lat="47.51783" lon="-2.66542">
        <ele>58</ele>
        <time>2025-05-13T08:58:01Z</time>
      </trkpt>
      <trkpt lat="47.5178" lon="-2.66546">
        <ele>59</ele>
        <time>2025-05-13T08:58:02Z</time>
      </trkpt>
      <trkpt lat="47.51776" lon="-2.66549">
        <ele>59</ele>
        <time>2025-05-13T08:58:03Z</time>
      </trkpt>
      <trkpt lat="47.51773" lon="-2.66552">
        <ele>58</ele>
        <time>2025-05-13T08:58:04Z</time>
      </trkpt>
      <trkpt lat="47.51769" lon="-2.66556">
        <ele>59</ele>
        <time>2025-05-13T08:58:05Z</time>
      </trkpt>
      <trkpt lat="47.51766" lon="-2.66559">
        <ele>59</ele>
        <time>2025-05-13T08:58:06Z</time>
      </trkpt>
      <trkpt lat="47.51763" lon="-2.66563">
        <ele>59</ele>
        <time>2025-05-13T08:58:07Z</time>
      </trkpt>
      <trkpt lat="47.5176" lon="-2.66566">
        <ele>59</ele>
        <time>2025-05-13T08:58:08Z</time>
      </trkpt>
      <trkpt lat="47.51758" lon="-2.6657">
        <ele>59</ele>
        <time>2025-05-13T08:58:09Z</time>
      </trkpt>
      <trkpt lat="47.51754" lon="-2.66573">
        <ele>59</ele>
        <time>2025-05-13T08:58:10Z</time>
      </trkpt>
      <trkpt lat="47.51751" lon="-2.66577">
        <ele>59</ele>
        <time>2025-05-13T08:58:11Z</time>
      </trkpt>
      <trkpt lat="47.51748" lon="-2.66581">
        <ele>58</ele>
        <time>2025-05-13T08:58:12Z</time>
      </trkpt>
      <trkpt lat="47.51745" lon="-2.66585">
        <ele>58</ele>
        <time>2025-05-13T08:58:13Z</time>
      </trkpt>
      <trkpt lat="47.51742" lon="-2.66588">
        <ele>59</ele>
        <time>2025-05-13T08:58:14Z</time>
      </trkpt>
      <trkpt lat="47.51739" lon="-2.66591">
        <ele>58</ele>
        <time>2025-05-13T08:58:15Z</time>
      </trkpt>
      <trkpt lat="47.51736" lon="-2.66595">
        <ele>58</ele>
        <time>2025-05-13T08:58:16Z</time>
      </trkpt>
      <trkpt lat="47.51734" lon="-2.666">
        <ele>58</ele>
        <time>2025-05-13T08:58:17Z</time>
      </trkpt>
      <trkpt lat="47.51734" lon="-2.66605">
        <ele>57</ele>
        <time>2025-05-13T08:58:18Z</time>
      </trkpt>
      <trkpt lat="47.51735" lon="-2.6661">
        <ele>58</ele>
        <time>2025-05-13T08:58:19Z</time>
      </trkpt>
      <trkpt lat="47.51737" lon="-2.66615">
        <ele>58</ele>
        <time>2025-05-13T08:58:20Z</time>
      </trkpt>
      <trkpt lat="47.51739" lon="-2.6662">
        <ele>59</ele>
        <time>2025-05-13T08:58:21Z</time>
      </trkpt>
      <trkpt lat="47.5174" lon="-2.66626">
        <ele>59</ele>
        <time>2025-05-13T08:58:22Z</time>
      </trkpt>
      <trkpt lat="47.51741" lon="-2.66632">
        <ele>59</ele>
        <time>2025-05-13T08:58:23Z</time>
      </trkpt>
      <trkpt lat="47.51742" lon="-2.66639">
        <ele>58</ele>
        <time>2025-05-13T08:58:24Z</time>
      </trkpt>
      <trkpt lat="47.51745" lon="-2.66645">
        <ele>57</ele>
        <time>2025-05-13T08:58:25Z</time>
      </trkpt>
      <trkpt lat="47.51747" lon="-2.66652">
        <ele>57</ele>
        <time>2025-05-13T08:58:26Z</time>
      </trkpt>
      <trkpt lat="47.5175" lon="-2.66658">
        <ele>57</ele>
        <time>2025-05-13T08:58:27Z</time>
      </trkpt>
      <trkpt lat="47.51753" lon="-2.66664">
        <ele>57</ele>
        <time>2025-05-13T08:58:28Z</time>
      </trkpt>
      <trkpt lat="47.51756" lon="-2.66671">
        <ele>58</ele>
        <time>2025-05-13T08:58:29Z</time>
      </trkpt>
      <trkpt lat="47.51759" lon="-2.66677">
        <ele>58</ele>
        <time>2025-05-13T08:58:30Z</time>
      </trkpt>
      <trkpt lat="47.51763" lon="-2.66683">
        <ele>58</ele>
        <time>2025-05-13T08:58:31Z</time>
      </trkpt>
      <trkpt lat="47.51766" lon="-2.6669">
        <ele>58</ele>
        <time>2025-05-13T08:58:32Z</time>
      </trkpt>
      <trkpt lat="47.51769" lon="-2.66696">
        <ele>58</ele>
        <time>2025-05-13T08:58:33Z</time>
      </trkpt>
      <trkpt lat="47.51772" lon="-2.66703">
        <ele>57</ele>
        <time>2025-05-13T08:58:34Z</time>
      </trkpt>
      <trkpt lat="47.51775" lon="-2.66711">
        <ele>57</ele>
        <time>2025-05-13T08:58:35Z</time>
      </trkpt>
      <trkpt lat="47.51778" lon="-2.66718">
        <ele>56</ele>
        <time>2025-05-13T08:58:36Z</time>
      </trkpt>
      <trkpt lat="47.51781" lon="-2.66726">
        <ele>57</ele>
        <time>2025-05-13T08:58:37Z</time>
      </trkpt>
      <trkpt lat="47.51783" lon="-2.66733">
        <ele>57</ele>
        <time>2025-05-13T08:58:38Z</time>
      </trkpt>
      <trkpt lat="47.51787" lon="-2.6674">
        <ele>57</ele>
        <time>2025-05-13T08:58:39Z</time>
      </trkpt>
      <trkpt lat="47.5179" lon="-2.66747">
        <ele>57</ele>
        <time>2025-05-13T08:58:40Z</time>
      </trkpt>
      <trkpt lat="47.51793" lon="-2.66754">
        <ele>58</ele>
        <time>2025-05-13T08:58:41Z</time>
      </trkpt>
      <trkpt lat="47.51796" lon="-2.66762">
        <ele>58</ele>
        <time>2025-05-13T08:58:42Z</time>
      </trkpt>
      <trkpt lat="47.51799" lon="-2.6677">
        <ele>58</ele>
        <time>2025-05-13T08:58:43Z</time>
      </trkpt>
      <trkpt lat="47.51802" lon="-2.66777">
        <ele>59</ele>
        <time>2025-05-13T08:58:44Z</time>
      </trkpt>
      <trkpt lat="47.51805" lon="-2.66784">
        <ele>59</ele>
        <time>2025-05-13T08:58:45Z</time>
      </trkpt>
      <trkpt lat="47.51808" lon="-2.66791">
        <ele>59</ele>
        <time>2025-05-13T08:58:46Z</time>
      </trkpt>
      <trkpt lat="47.51811" lon="-2.66798">
        <ele>59</ele>
        <time>2025-05-13T08:58:47Z</time>
      </trkpt>
      <trkpt lat="47.51814" lon="-2.66805">
        <ele>59</ele>
        <time>2025-05-13T08:58:48Z</time>
      </trkpt>
      <trkpt lat="47.51817" lon="-2.66812">
        <ele>58</ele>
        <time>2025-05-13T08:58:49Z</time>
      </trkpt>
      <trkpt lat="47.5182" lon="-2.6682">
        <ele>58</ele>
        <time>2025-05-13T08:58:50Z</time>
      </trkpt>
      <trkpt lat="47.51823" lon="-2.66827">
        <ele>58</ele>
        <time>2025-05-13T08:58:51Z</time>
      </trkpt>
      <trkpt lat="47.51826" lon="-2.66834">
        <ele>59</ele>
        <time>2025-05-13T08:58:52Z</time>
      </trkpt>
      <trkpt lat="47.51829" lon="-2.66841">
        <ele>58</ele>
        <time>2025-05-13T08:58:53Z</time>
      </trkpt>
      <trkpt lat="47.51832" lon="-2.66848">
        <ele>58</ele>
        <time>2025-05-13T08:58:54Z</time>
      </trkpt>
      <trkpt lat="47.51834" lon="-2.66855">
        <ele>58</ele>
        <time>2025-05-13T08:58:55Z</time>
      </trkpt>
      <trkpt lat="47.51836" lon="-2.66863">
        <ele>58</ele>
        <time>2025-05-13T08:58:56Z</time>
      </trkpt>
      <trkpt lat="47.51838" lon="-2.6687">
        <ele>57</ele>
        <time>2025-05-13T08:58:57Z</time>
      </trkpt>
      <trkpt lat="47.51841" lon="-2.66878">
        <ele>57</ele>
        <time>2025-05-13T08:58:58Z</time>
      </trkpt>
      <trkpt lat="47.51843" lon="-2.66885">
        <ele>57</ele>
        <time>2025-05-13T08:58:59Z</time>
      </trkpt>
      <trkpt lat="47.51844" lon="-2.66893">
        <ele>57</ele>
        <time>2025-05-13T08:59:00Z</time>
      </trkpt>
      <trkpt lat="47.51844" lon="-2.66901">
        <ele>56</ele>
        <time>2025-05-13T08:59:01Z</time>
      </trkpt>
      <trkpt lat="47.51843" lon="-2.66909">
        <ele>56</ele>
        <time>2025-05-13T08:59:02Z</time>
      </trkpt>
      <trkpt lat="47.51841" lon="-2.66916">
        <ele>56</ele>
        <time>2025-05-13T08:59:03Z</time>
      </trkpt>
      <trkpt lat="47.51838" lon="-2.66923">
        <ele>57</ele>
        <time>2025-05-13T08:59:04Z</time>
      </trkpt>
      <trkpt lat="47.51835" lon="-2.66929">
        <ele>57</ele>
        <time>2025-05-13T08:59:05Z</time>
      </trkpt>
      <trkpt lat="47.51831" lon="-2.66934">
        <ele>57</ele>
        <time>2025-05-13T08:59:06Z</time>
      </trkpt>
      <trkpt lat="47.51828" lon="-2.6694">
        <ele>57</ele>
        <time>2025-05-13T08:59:07Z</time>
      </trkpt>
      <trkpt lat="47.51824" lon="-2.66947">
        <ele>57</ele>
        <time>2025-05-13T08:59:08Z</time>
      </trkpt>
      <trkpt lat="47.51821" lon="-2.66954">
        <ele>57</ele>
        <time>2025-05-13T08:59:09Z</time>
      </trkpt>
      <trkpt lat="47.51819" lon="-2.66961">
        <ele>57</ele>
        <time>2025-05-13T08:59:10Z</time>
      </trkpt>
      <trkpt lat="47.51817" lon="-2.66968">
        <ele>57</ele>
        <time>2025-05-13T08:59:11Z</time>
      </trkpt>
      <trkpt lat="47.51816" lon="-2.66976">
        <ele>57</ele>
        <time>2025-05-13T08:59:12Z</time>
      </trkpt>
      <trkpt lat="47.51815" lon="-2.66983">
        <ele>57</ele>
        <time>2025-05-13T08:59:13Z</time>
      </trkpt>
      <trkpt lat="47.51814" lon="-2.6699">
        <ele>57</ele>
        <time>2025-05-13T08:59:14Z</time>
      </trkpt>
      <trkpt lat="47.51814" lon="-2.66997">
        <ele>56</ele>
        <time>2025-05-13T08:59:15Z</time>
      </trkpt>
      <trkpt lat="47.51814" lon="-2.67005">
        <ele>57</ele>
        <time>2025-05-13T08:59:16Z</time>
      </trkpt>
      <trkpt lat="47.51813" lon="-2.67012">
        <ele>57</ele>
        <time>2025-05-13T08:59:17Z</time>
      </trkpt>
      <trkpt lat="47.51813" lon="-2.67019">
        <ele>57</ele>
        <time>2025-05-13T08:59:18Z</time>
      </trkpt>
      <trkpt lat="47.51813" lon="-2.67027">
        <ele>57</ele>
        <time>2025-05-13T08:59:19Z</time>
      </trkpt>
      <trkpt lat="47.51812" lon="-2.67034">
        <ele>57</ele>
        <time>2025-05-13T08:59:20Z</time>
      </trkpt>
      <trkpt lat="47.51812" lon="-2.67041">
        <ele>57</ele>
        <time>2025-05-13T08:59:21Z</time>
      </trkpt>
      <trkpt lat="47.51812" lon="-2.67048">
        <ele>57</ele>
        <time>2025-05-13T08:59:22Z</time>
      </trkpt>
      <trkpt lat="47.51812" lon="-2.67054">
        <ele>58</ele>
        <time>2025-05-13T08:59:23Z</time>
      </trkpt>
      <trkpt lat="47.51811" lon="-2.67061">
        <ele>58</ele>
        <time>2025-05-13T08:59:24Z</time>
      </trkpt>
      <trkpt lat="47.5181" lon="-2.67067">
        <ele>58</ele>
        <time>2025-05-13T08:59:25Z</time>
      </trkpt>
      <trkpt lat="47.5181" lon="-2.67073">
        <ele>59</ele>
        <time>2025-05-13T08:59:26Z</time>
      </trkpt>
      <trkpt lat="47.51809" lon="-2.67079">
        <ele>58</ele>
        <time>2025-05-13T08:59:27Z</time>
      </trkpt>
      <trkpt lat="47.51808" lon="-2.67086">
        <ele>59</ele>
        <time>2025-05-13T08:59:28Z</time>
      </trkpt>
      <trkpt lat="47.51806" lon="-2.67091">
        <ele>58</ele>
        <time>2025-05-13T08:59:29Z</time>
      </trkpt>
      <trkpt lat="47.51804" lon="-2.67097">
        <ele>58</ele>
        <time>2025-05-13T08:59:30Z</time>
      </trkpt>
      <trkpt lat="47.51803" lon="-2.67104">
        <ele>58</ele>
        <time>2025-05-13T08:59:31Z</time>
      </trkpt>
      <trkpt lat="47.51802" lon="-2.6711">
        <ele>58</ele>
        <time>2025-05-13T08:59:32Z</time>
      </trkpt>
      <trkpt lat="47.518" lon="-2.67115">
        <ele>58</ele>
        <time>2025-05-13T08:59:33Z</time>
      </trkpt>
      <trkpt lat="47.51799" lon="-2.6712">
        <ele>58</ele>
        <time>2025-05-13T08:59:34Z</time>
      </trkpt>
      <trkpt lat="47.51797" lon="-2.67124">
        <ele>58</ele>
        <time>2025-05-13T08:59:35Z</time>
      </trkpt>
      <trkpt lat="47.51796" lon="-2.67129">
        <ele>58</ele>
        <time>2025-05-13T08:59:36Z</time>
      </trkpt>
      <trkpt lat="47.51795" lon="-2.67134">
        <ele>58</ele>
        <time>2025-05-13T08:59:37Z</time>
      </trkpt>
      <trkpt lat="47.51794" lon="-2.67139">
        <ele>58</ele>
        <time>2025-05-13T08:59:38Z</time>
      </trkpt>
      <trkpt lat="47.51795" lon="-2.67144">
        <ele>58</ele>
        <time>2025-05-13T08:59:39Z</time>
      </trkpt>
      <trkpt lat="47.51795" lon="-2.67148">
        <ele>58</ele>
        <time>2025-05-13T08:59:40Z</time>
      </trkpt>
      <trkpt lat="47.51795" lon="-2.67151">
        <ele>57</ele>
        <time>2025-05-13T08:59:41Z</time>
      </trkpt>
      <trkpt lat="47.51795" lon="-2.67155">
        <ele>58</ele>
        <time>2025-05-13T08:59:42Z</time>
      </trkpt>
      <trkpt lat="47.51795" lon="-2.67159">
        <ele>58</ele>
        <time>2025-05-13T08:59:43Z</time>
      </trkpt>
      <trkpt lat="47.51794" lon="-2.67162">
        <ele>58</ele>
        <time>2025-05-13T08:59:44Z</time>
      </trkpt>
      <trkpt lat="47.51793" lon="-2.67165">
        <ele>58</ele>
        <time>2025-05-13T08:59:45Z</time>
      </trkpt>
      <trkpt lat="47.51791" lon="-2.67168">
        <ele>59</ele>
        <time>2025-05-13T08:59:46Z</time>
      </trkpt>
      <trkpt lat="47.51789" lon="-2.67171">
        <ele>59</ele>
        <time>2025-05-13T08:59:47Z</time>
      </trkpt>
      <trkpt lat="47.51786" lon="-2.67174">
        <ele>59</ele>
        <time>2025-05-13T08:59:48Z</time>
      </trkpt>
      <trkpt lat="47.51783" lon="-2.67176">
        <ele>60</ele>
        <time>2025-05-13T08:59:49Z</time>
      </trkpt>
      <trkpt lat="47.51781" lon="-2.67179">
        <ele>60</ele>
        <time>2025-05-13T08:59:50Z</time>
      </trkpt>
      <trkpt lat="47.51778" lon="-2.67181">
        <ele>61</ele>
        <time>2025-05-13T08:59:51Z</time>
      </trkpt>
      <trkpt lat="47.51775" lon="-2.67184">
        <ele>61</ele>
        <time>2025-05-13T08:59:52Z</time>
      </trkpt>
      <trkpt lat="47.51773" lon="-2.67186">
        <ele>61</ele>
        <time>2025-05-13T08:59:53Z</time>
      </trkpt>
      <trkpt lat="47.5177" lon="-2.67188">
        <ele>61</ele>
        <time>2025-05-13T08:59:54Z</time>
      </trkpt>
      <trkpt lat="47.51767" lon="-2.6719">
        <ele>61</ele>
        <time>2025-05-13T08:59:55Z</time>
      </trkpt>
      <trkpt lat="47.51764" lon="-2.67192">
        <ele>61</ele>
        <time>2025-05-13T08:59:56Z</time>
      </trkpt>
      <trkpt lat="47.51761" lon="-2.67194">
        <ele>61</ele>
        <time>2025-05-13T08:59:57Z</time>
      </trkpt>
      <trkpt lat="47.51758" lon="-2.67197">
        <ele>61</ele>
        <time>2025-05-13T08:59:58Z</time>
      </trkpt>
      <trkpt lat="47.51754" lon="-2.672">
        <ele>61</ele>
        <time>2025-05-13T08:59:59Z</time>
      </trkpt>
      <trkpt lat="47.51751" lon="-2.67202">
        <ele>62</ele>
        <time>2025-05-13T09:00:00Z</time>
      </trkpt>
      <trkpt lat="47.51748" lon="-2.67205">
        <ele>62</ele>
        <time>2025-05-13T09:00:01Z</time>
      </trkpt>
      <trkpt lat="47.51745" lon="-2.67207">
        <ele>62</ele>
        <time>2025-05-13T09:00:02Z</time>
      </trkpt>
      <trkpt lat="47.51741" lon="-2.6721">
        <ele>62</ele>
        <time>2025-05-13T09:00:03Z</time>
      </trkpt>
      <trkpt lat="47.51738" lon="-2.67212">
        <ele>62</ele>
        <time>2025-05-13T09:00:04Z</time>
      </trkpt>
      <trkpt lat="47.51735" lon="-2.67214">
        <ele>62</ele>
        <time>2025-05-13T09:00:05Z</time>
      </trkpt>
      <trkpt lat="47.51732" lon="-2.67217">
        <ele>62</ele>
        <time>2025-05-13T09:00:06Z</time>
      </trkpt>
      <trkpt lat="47.51729" lon="-2.67219">
        <ele>62</ele>
        <time>2025-05-13T09:00:07Z</time>
      </trkpt>
      <trkpt lat="47.51726" lon="-2.67221">
        <ele>62</ele>
        <time>2025-05-13T09:00:08Z</time>
      </trkpt>
      <trkpt lat="47.51723" lon="-2.67224">
        <ele>62</ele>
        <time>2025-05-13T09:00:09Z</time>
      </trkpt>
      <trkpt lat="47.5172" lon="-2.67227">
        <ele>62</ele>
        <time>2025-05-13T09:00:10Z</time>
      </trkpt>
      <trkpt lat="47.51717" lon="-2.67229">
        <ele>62</ele>
        <time>2025-05-13T09:00:11Z</time>
      </trkpt>
      <trkpt lat="47.51714" lon="-2.67232">
        <ele>62</ele>
        <time>2025-05-13T09:00:12Z</time>
      </trkpt>
      <trkpt lat="47.5171" lon="-2.67234">
        <ele>62</ele>
        <time>2025-05-13T09:00:13Z</time>
      </trkpt>
      <trkpt lat="47.51707" lon="-2.67237">
        <ele>62</ele>
        <time>2025-05-13T09:00:14Z</time>
      </trkpt>
      <trkpt lat="47.51704" lon="-2.67239">
        <ele>62</ele>
        <time>2025-05-13T09:00:15Z</time>
      </trkpt>
      <trkpt lat="47.517" lon="-2.67242">
        <ele>62</ele>
        <time>2025-05-13T09:00:16Z</time>
      </trkpt>
      <trkpt lat="47.51697" lon="-2.67245">
        <ele>62</ele>
        <time>2025-05-13T09:00:17Z</time>
      </trkpt>
      <trkpt lat="47.51694" lon="-2.67248">
        <ele>61</ele>
        <time>2025-05-13T09:00:18Z</time>
      </trkpt>
      <trkpt lat="47.51691" lon="-2.67251">
        <ele>62</ele>
        <time>2025-05-13T09:00:19Z</time>
      </trkpt>
      <trkpt lat="47.51688" lon="-2.67253">
        <ele>62</ele>
        <time>2025-05-13T09:00:20Z</time>
      </trkpt>
      <trkpt lat="47.51684" lon="-2.67256">
        <ele>62</ele>
        <time>2025-05-13T09:00:21Z</time>
      </trkpt>
      <trkpt lat="47.51681" lon="-2.67259">
        <ele>62</ele>
        <time>2025-05-13T09:00:22Z</time>
      </trkpt>
      <trkpt lat="47.51677" lon="-2.67262">
        <ele>62</ele>
        <time>2025-05-13T09:00:23Z</time>
      </trkpt>
      <trkpt lat="47.51675" lon="-2.67264">
        <ele>62</ele>
        <time>2025-05-13T09:00:24Z</time>
      </trkpt>
      <trkpt lat="47.51671" lon="-2.67267">
        <ele>63</ele>
        <time>2025-05-13T09:00:25Z</time>
      </trkpt>
      <trkpt lat="47.51668" lon="-2.6727">
        <ele>63</ele>
        <time>2025-05-13T09:00:26Z</time>
      </trkpt>
      <trkpt lat="47.51665" lon="-2.67273">
        <ele>63</ele>
        <time>2025-05-13T09:00:27Z</time>
      </trkpt>
      <trkpt lat="47.51662" lon="-2.67276">
        <ele>62</ele>
        <time>2025-05-13T09:00:28Z</time>
      </trkpt>
      <trkpt lat="47.51658" lon="-2.67278">
        <ele>62</ele>
        <time>2025-05-13T09:00:29Z</time>
      </trkpt>
      <trkpt lat="47.51655" lon="-2.67281">
        <ele>62</ele>
        <time>2025-05-13T09:00:30Z</time>
      </trkpt>
      <trkpt lat="47.51652" lon="-2.67284">
        <ele>63</ele>
        <time>2025-05-13T09:00:31Z</time>
      </trkpt>
      <trkpt lat="47.51648" lon="-2.67287">
        <ele>63</ele>
        <time>2025-05-13T09:00:32Z</time>
      </trkpt>
      <trkpt lat="47.51645" lon="-2.67289">
        <ele>63</ele>
        <time>2025-05-13T09:00:33Z</time>
      </trkpt>
      <trkpt lat="47.51641" lon="-2.67291">
        <ele>63</ele>
        <time>2025-05-13T09:00:34Z</time>
      </trkpt>
      <trkpt lat="47.51638" lon="-2.67294">
        <ele>63</ele>
        <time>2025-05-13T09:00:35Z</time>
      </trkpt>
      <trkpt lat="47.51635" lon="-2.67296">
        <ele>63</ele>
        <time>2025-05-13T09:00:36Z</time>
      </trkpt>
      <trkpt lat="47.51631" lon="-2.67298">
        <ele>63</ele>
        <time>2025-05-13T09:00:37Z</time>
      </trkpt>
      <trkpt lat="47.51627" lon="-2.673">
        <ele>63</ele>
        <time>2025-05-13T09:00:38Z</time>
      </trkpt>
      <trkpt lat="47.51624" lon="-2.67302">
        <ele>63</ele>
        <time>2025-05-13T09:00:39Z</time>
      </trkpt>
      <trkpt lat="47.5162" lon="-2.67303">
        <ele>62</ele>
        <time>2025-05-13T09:00:40Z</time>
      </trkpt>
      <trkpt lat="47.51616" lon="-2.67305">
        <ele>62</ele>
        <time>2025-05-13T09:00:41Z</time>
      </trkpt>
      <trkpt lat="47.51611" lon="-2.67306">
        <ele>63</ele>
        <time>2025-05-13T09:00:42Z</time>
      </trkpt>
      <trkpt lat="47.51607" lon="-2.67308">
        <ele>62</ele>
        <time>2025-05-13T09:00:43Z</time>
      </trkpt>
      <trkpt lat="47.51603" lon="-2.6731">
        <ele>62</ele>
        <time>2025-05-13T09:00:44Z</time>
      </trkpt>
      <trkpt lat="47.51598" lon="-2.67312">
        <ele>62</ele>
        <time>2025-05-13T09:00:45Z</time>
      </trkpt>
      <trkpt lat="47.51594" lon="-2.67313">
        <ele>62</ele>
        <time>2025-05-13T09:00:46Z</time>
      </trkpt>
      <trkpt lat="47.5159" lon="-2.67315">
        <ele>62</ele>
        <time>2025-05-13T09:00:47Z</time>
      </trkpt>
      <trkpt lat="47.51585" lon="-2.67317">
        <ele>62</ele>
        <time>2025-05-13T09:00:48Z</time>
      </trkpt>
      <trkpt lat="47.51581" lon="-2.67319">
        <ele>62</ele>
        <time>2025-05-13T09:00:49Z</time>
      </trkpt>
      <trkpt lat="47.51576" lon="-2.67321">
        <ele>62</ele>
        <time>2025-05-13T09:00:50Z</time>
      </trkpt>
      <trkpt lat="47.51571" lon="-2.67322">
        <ele>61</ele>
        <time>2025-05-13T09:00:51Z</time>
      </trkpt>
      <trkpt lat="47.51566" lon="-2.67324">
        <ele>62</ele>
        <time>2025-05-13T09:00:52Z</time>
      </trkpt>
      <trkpt lat="47.51561" lon="-2.67326">
        <ele>62</ele>
        <time>2025-05-13T09:00:53Z</time>
      </trkpt>
      <trkpt lat="47.51557" lon="-2.67327">
        <ele>62</ele>
        <time>2025-05-13T09:00:54Z</time>
      </trkpt>
      <trkpt lat="47.51552" lon="-2.6733">
        <ele>62</ele>
        <time>2025-05-13T09:00:55Z</time>
      </trkpt>
      <trkpt lat="47.51547" lon="-2.67331">
        <ele>62</ele>
        <time>2025-05-13T09:00:56Z</time>
      </trkpt>
      <trkpt lat="47.51542" lon="-2.67333">
        <ele>62</ele>
        <time>2025-05-13T09:00:57Z</time>
      </trkpt>
      <trkpt lat="47.51537" lon="-2.67335">
        <ele>61</ele>
        <time>2025-05-13T09:00:58Z</time>
      </trkpt>
      <trkpt lat="47.51532" lon="-2.67337">
        <ele>61</ele>
        <time>2025-05-13T09:00:59Z</time>
      </trkpt>
      <trkpt lat="47.51527" lon="-2.67338">
        <ele>61</ele>
        <time>2025-05-13T09:01:00Z</time>
      </trkpt>
      <trkpt lat="47.51522" lon="-2.67339">
        <ele>61</ele>
        <time>2025-05-13T09:01:01Z</time>
      </trkpt>
      <trkpt lat="47.51517" lon="-2.67341">
        <ele>61</ele>
        <time>2025-05-13T09:01:02Z</time>
      </trkpt>
      <trkpt lat="47.51513" lon="-2.67343">
        <ele>60</ele>
        <time>2025-05-13T09:01:03Z</time>
      </trkpt>
      <trkpt lat="47.51508" lon="-2.67345">
        <ele>59</ele>
        <time>2025-05-13T09:01:04Z</time>
      </trkpt>
      <trkpt lat="47.51503" lon="-2.67348">
        <ele>58</ele>
        <time>2025-05-13T09:01:05Z</time>
      </trkpt>
      <trkpt lat="47.51498" lon="-2.67349">
        <ele>58</ele>
        <time>2025-05-13T09:01:06Z</time>
      </trkpt>
      <trkpt lat="47.51493" lon="-2.67352">
        <ele>58</ele>
        <time>2025-05-13T09:01:07Z</time>
      </trkpt>
      <trkpt lat="47.51488" lon="-2.67354">
        <ele>58</ele>
        <time>2025-05-13T09:01:08Z</time>
      </trkpt>
      <trkpt lat="47.51483" lon="-2.67357">
        <ele>59</ele>
        <time>2025-05-13T09:01:09Z</time>
      </trkpt>
      <trkpt lat="47.51479" lon="-2.67359">
        <ele>59</ele>
        <time>2025-05-13T09:01:10Z</time>
      </trkpt>
      <trkpt lat="47.51474" lon="-2.67362">
        <ele>59</ele>
        <time>2025-05-13T09:01:11Z</time>
      </trkpt>
      <trkpt lat="47.51469" lon="-2.67364">
        <ele>59</ele>
        <time>2025-05-13T09:01:12Z</time>
      </trkpt>
      <trkpt lat="47.51465" lon="-2.67366">
        <ele>59</ele>
        <time>2025-05-13T09:01:13Z</time>
      </trkpt>
      <trkpt lat="47.51461" lon="-2.67368">
        <ele>59</ele>
        <time>2025-05-13T09:01:14Z</time>
      </trkpt>
      <trkpt lat="47.51457" lon="-2.6737">
        <ele>59</ele>
        <time>2025-05-13T09:01:15Z</time>
      </trkpt>
      <trkpt lat="47.51453" lon="-2.67373">
        <ele>59</ele>
        <time>2025-05-13T09:01:16Z</time>
      </trkpt>
      <trkpt lat="47.51449" lon="-2.67377">
        <ele>59</ele>
        <time>2025-05-13T09:01:17Z</time>
      </trkpt>
      <trkpt lat="47.51445" lon="-2.6738">
        <ele>59</ele>
        <time>2025-05-13T09:01:18Z</time>
      </trkpt>
      <trkpt lat="47.51441" lon="-2.67383">
        <ele>60</ele>
        <time>2025-05-13T09:01:19Z</time>
      </trkpt>
      <trkpt lat="47.51438" lon="-2.67387">
        <ele>60</ele>
        <time>2025-05-13T09:01:20Z</time>
      </trkpt>
      <trkpt lat="47.51435" lon="-2.6739">
        <ele>60</ele>
        <time>2025-05-13T09:01:21Z</time>
      </trkpt>
      <trkpt lat="47.51432" lon="-2.67394">
        <ele>60</ele>
        <time>2025-05-13T09:01:22Z</time>
      </trkpt>
      <trkpt lat="47.51429" lon="-2.67397">
        <ele>60</ele>
        <time>2025-05-13T09:01:23Z</time>
      </trkpt>
      <trkpt lat="47.51427" lon="-2.67401">
        <ele>60</ele>
        <time>2025-05-13T09:01:24Z</time>
      </trkpt>
      <trkpt lat="47.51424" lon="-2.67405">
        <ele>60</ele>
        <time>2025-05-13T09:01:25Z</time>
      </trkpt>
      <trkpt lat="47.51421" lon="-2.67409">
        <ele>59</ele>
        <time>2025-05-13T09:01:26Z</time>
      </trkpt>
      <trkpt lat="47.51418" lon="-2.67413">
        <ele>59</ele>
        <time>2025-05-13T09:01:27Z</time>
      </trkpt>
      <trkpt lat="47.51415" lon="-2.67417">
        <ele>59</ele>
        <time>2025-05-13T09:01:28Z</time>
      </trkpt>
      <trkpt lat="47.51413" lon="-2.6742">
        <ele>59</ele>
        <time>2025-05-13T09:01:29Z</time>
      </trkpt>
      <trkpt lat="47.5141" lon="-2.67424">
        <ele>59</ele>
        <time>2025-05-13T09:01:30Z</time>
      </trkpt>
      <trkpt lat="47.51407" lon="-2.67428">
        <ele>59</ele>
        <time>2025-05-13T09:01:31Z</time>
      </trkpt>
      <trkpt lat="47.51404" lon="-2.67431">
        <ele>59</ele>
        <time>2025-05-13T09:01:32Z</time>
      </trkpt>
      <trkpt lat="47.51402" lon="-2.67435">
        <ele>59</ele>
        <time>2025-05-13T09:01:33Z</time>
      </trkpt>
      <trkpt lat="47.51399" lon="-2.67439">
        <ele>59</ele>
        <time>2025-05-13T09:01:34Z</time>
      </trkpt>
      <trkpt lat="47.51397" lon="-2.67443">
        <ele>58</ele>
        <time>2025-05-13T09:01:35Z</time>
      </trkpt>
      <trkpt lat="47.51394" lon="-2.67447">
        <ele>59</ele>
        <time>2025-05-13T09:01:36Z</time>
      </trkpt>
      <trkpt lat="47.51392" lon="-2.67451">
        <ele>59</ele>
        <time>2025-05-13T09:01:37Z</time>
      </trkpt>
      <trkpt lat="47.51389" lon="-2.67454">
        <ele>59</ele>
        <time>2025-05-13T09:01:38Z</time>
      </trkpt>
      <trkpt lat="47.51386" lon="-2.67457">
        <ele>59</ele>
        <time>2025-05-13T09:01:39Z</time>
      </trkpt>
      <trkpt lat="47.51384" lon="-2.6746">
        <ele>59</ele>
        <time>2025-05-13T09:01:40Z</time>
      </trkpt>
      <trkpt lat="47.51382" lon="-2.67464">
        <ele>59</ele>
        <time>2025-05-13T09:01:41Z</time>
      </trkpt>
      <trkpt lat="47.5138" lon="-2.67467">
        <ele>59</ele>
        <time>2025-05-13T09:01:42Z</time>
      </trkpt>
      <trkpt lat="47.51378" lon="-2.67469">
        <ele>59</ele>
        <time>2025-05-13T09:01:43Z</time>
      </trkpt>
      <trkpt lat="47.51375" lon="-2.67471">
        <ele>59</ele>
        <time>2025-05-13T09:01:44Z</time>
      </trkpt>
      <trkpt lat="47.51373" lon="-2.67474">
        <ele>59</ele>
        <time>2025-05-13T09:01:45Z</time>
      </trkpt>
      <trkpt lat="47.51371" lon="-2.67477">
        <ele>59</ele>
        <time>2025-05-13T09:01:46Z</time>
      </trkpt>
      <trkpt lat="47.51369" lon="-2.6748">
        <ele>58</ele>
        <time>2025-05-13T09:01:47Z</time>
      </trkpt>
      <trkpt lat="47.51366" lon="-2.67483">
        <ele>58</ele>
        <time>2025-05-13T09:01:48Z</time>
      </trkpt>
      <trkpt lat="47.51364" lon="-2.67486">
        <ele>58</ele>
        <time>2025-05-13T09:01:49Z</time>
      </trkpt>
      <trkpt lat="47.51361" lon="-2.67489">
        <ele>58</ele>
        <time>2025-05-13T09:01:50Z</time>
      </trkpt>
      <trkpt lat="47.51359" lon="-2.67492">
        <ele>59</ele>
        <time>2025-05-13T09:01:51Z</time>
      </trkpt>
      <trkpt lat="47.51356" lon="-2.67495">
        <ele>59</ele>
        <time>2025-05-13T09:01:52Z</time>
      </trkpt>
      <trkpt lat="47.51353" lon="-2.67498">
        <ele>60</ele>
        <time>2025-05-13T09:01:53Z</time>
      </trkpt>
      <trkpt lat="47.51351" lon="-2.67501">
        <ele>60</ele>
        <time>2025-05-13T09:01:54Z</time>
      </trkpt>
      <trkpt lat="47.51348" lon="-2.67504">
        <ele>60</ele>
        <time>2025-05-13T09:01:55Z</time>
      </trkpt>
      <trkpt lat="47.51346" lon="-2.67508">
        <ele>60</ele>
        <time>2025-05-13T09:01:56Z</time>
      </trkpt>
      <trkpt lat="47.51344" lon="-2.67511">
        <ele>60</ele>
        <time>2025-05-13T09:01:57Z</time>
      </trkpt>
      <trkpt lat="47.51342" lon="-2.67515">
        <ele>60</ele>
        <time>2025-05-13T09:01:58Z</time>
      </trkpt>
      <trkpt lat="47.51339" lon="-2.67518">
        <ele>59</ele>
        <time>2025-05-13T09:01:59Z</time>
      </trkpt>
      <trkpt lat="47.51336" lon="-2.67521">
        <ele>60</ele>
        <time>2025-05-13T09:02:00Z</time>
      </trkpt>
      <trkpt lat="47.51333" lon="-2.67524">
        <ele>60</ele>
        <time>2025-05-13T09:02:01Z</time>
      </trkpt>
      <trkpt lat="47.5133" lon="-2.67525">
        <ele>60</ele>
        <time>2025-05-13T09:02:02Z</time>
      </trkpt>
      <trkpt lat="47.51328" lon="-2.67528">
        <ele>60</ele>
        <time>2025-05-13T09:02:03Z</time>
      </trkpt>
      <trkpt lat="47.51324" lon="-2.6753">
        <ele>60</ele>
        <time>2025-05-13T09:02:04Z</time>
      </trkpt>
      <trkpt lat="47.51321" lon="-2.67532">
        <ele>61</ele>
        <time>2025-05-13T09:02:05Z</time>
      </trkpt>
      <trkpt lat="47.51317" lon="-2.67535">
        <ele>61</ele>
        <time>2025-05-13T09:02:06Z</time>
      </trkpt>
      <trkpt lat="47.51314" lon="-2.67538">
        <ele>61</ele>
        <time>2025-05-13T09:02:07Z</time>
      </trkpt>
      <trkpt lat="47.51311" lon="-2.67541">
        <ele>61</ele>
        <time>2025-05-13T09:02:08Z</time>
      </trkpt>
      <trkpt lat="47.51308" lon="-2.67544">
        <ele>62</ele>
        <time>2025-05-13T09:02:09Z</time>
      </trkpt>
      <trkpt lat="47.51305" lon="-2.67547">
        <ele>62</ele>
        <time>2025-05-13T09:02:10Z</time>
      </trkpt>
      <trkpt lat="47.51302" lon="-2.6755">
        <ele>62</ele>
        <time>2025-05-13T09:02:11Z</time>
      </trkpt>
      <trkpt lat="47.51299" lon="-2.67552">
        <ele>62</ele>
        <time>2025-05-13T09:02:12Z</time>
      </trkpt>
      <trkpt lat="47.51296" lon="-2.67555">
        <ele>61</ele>
        <time>2025-05-13T09:02:13Z</time>
      </trkpt>
      <trkpt lat="47.51293" lon="-2.67558">
        <ele>61</ele>
        <time>2025-05-13T09:02:14Z</time>
      </trkpt>
      <trkpt lat="47.5129" lon="-2.6756">
        <ele>62</ele>
        <time>2025-05-13T09:02:15Z</time>
      </trkpt>
      <trkpt lat="47.51288" lon="-2.67564">
        <ele>63</ele>
        <time>2025-05-13T09:02:16Z</time>
      </trkpt>
      <trkpt lat="47.51285" lon="-2.67566">
        <ele>63</ele>
        <time>2025-05-13T09:02:17Z</time>
      </trkpt>
      <trkpt lat="47.51282" lon="-2.67569">
        <ele>63</ele>
        <time>2025-05-13T09:02:18Z</time>
      </trkpt>
      <trkpt lat="47.51279" lon="-2.67572">
        <ele>63</ele>
        <time>2025-05-13T09:02:19Z</time>
      </trkpt>
      <trkpt lat="47.51276" lon="-2.67574">
        <ele>63</ele>
        <time>2025-05-13T09:02:20Z</time>
      </trkpt>
      <trkpt lat="47.51273" lon="-2.67577">
        <ele>63</ele>
        <time>2025-05-13T09:02:21Z</time>
      </trkpt>
      <trkpt lat="47.5127" lon="-2.6758">
        <ele>64</ele>
        <time>2025-05-13T09:02:22Z</time>
      </trkpt>
      <trkpt lat="47.51267" lon="-2.67583">
        <ele>63</ele>
        <time>2025-05-13T09:02:23Z</time>
      </trkpt>
      <trkpt lat="47.51264" lon="-2.67585">
        <ele>62</ele>
        <time>2025-05-13T09:02:24Z</time>
      </trkpt>
      <trkpt lat="47.51262" lon="-2.67587">
        <ele>62</ele>
        <time>2025-05-13T09:02:25Z</time>
      </trkpt>
      <trkpt lat="47.51259" lon="-2.67589">
        <ele>61</ele>
        <time>2025-05-13T09:02:26Z</time>
      </trkpt>
      <trkpt lat="47.51257" lon="-2.67592">
        <ele>61</ele>
        <time>2025-05-13T09:02:27Z</time>
      </trkpt>
      <trkpt lat="47.51255" lon="-2.67594">
        <ele>62</ele>
        <time>2025-05-13T09:02:28Z</time>
      </trkpt>
      <trkpt lat="47.51253" lon="-2.67597">
        <ele>62</ele>
        <time>2025-05-13T09:02:29Z</time>
      </trkpt>
      <trkpt lat="47.51251" lon="-2.67599">
        <ele>63</ele>
        <time>2025-05-13T09:02:30Z</time>
      </trkpt>
      <trkpt lat="47.51249" lon="-2.67602">
        <ele>63</ele>
        <time>2025-05-13T09:02:31Z</time>
      </trkpt>
      <trkpt lat="47.51246" lon="-2.67603">
        <ele>63</ele>
        <time>2025-05-13T09:02:32Z</time>
      </trkpt>
      <trkpt lat="47.51244" lon="-2.67605">
        <ele>63</ele>
        <time>2025-05-13T09:02:33Z</time>
      </trkpt>
      <trkpt lat="47.51241" lon="-2.67607">
        <ele>64</ele>
        <time>2025-05-13T09:02:34Z</time>
      </trkpt>
      <trkpt lat="47.51239" lon="-2.6761">
        <ele>64</ele>
        <time>2025-05-13T09:02:35Z</time>
      </trkpt>
      <trkpt lat="47.51236" lon="-2.67612">
        <ele>64</ele>
        <time>2025-05-13T09:02:36Z</time>
      </trkpt>
      <trkpt lat="47.51234" lon="-2.67615">
        <ele>64</ele>
        <time>2025-05-13T09:02:37Z</time>
      </trkpt>
      <trkpt lat="47.51232" lon="-2.67617">
        <ele>64</ele>
        <time>2025-05-13T09:02:38Z</time>
      </trkpt>
      <trkpt lat="47.5123" lon="-2.6762">
        <ele>64</ele>
        <time>2025-05-13T09:02:39Z</time>
      </trkpt>
      <trkpt lat="47.51227" lon="-2.67622">
        <ele>64</ele>
        <time>2025-05-13T09:02:40Z</time>
      </trkpt>
      <trkpt lat="47.51225" lon="-2.67624">
        <ele>64</ele>
        <time>2025-05-13T09:02:41Z</time>
      </trkpt>
      <trkpt lat="47.51222" lon="-2.67627">
        <ele>64</ele>
        <time>2025-05-13T09:02:42Z</time>
      </trkpt>
      <trkpt lat="47.5122" lon="-2.67629">
        <ele>64</ele>
        <time>2025-05-13T09:02:43Z</time>
      </trkpt>
      <trkpt lat="47.51218" lon="-2.67631">
        <ele>64</ele>
        <time>2025-05-13T09:02:44Z</time>
      </trkpt>
      <trkpt lat="47.51215" lon="-2.67633">
        <ele>64</ele>
        <time>2025-05-13T09:02:45Z</time>
      </trkpt>
      <trkpt lat="47.51213" lon="-2.67636">
        <ele>64</ele>
        <time>2025-05-13T09:02:46Z</time>
      </trkpt>
      <trkpt lat="47.51211" lon="-2.67638">
        <ele>64</ele>
        <time>2025-05-13T09:02:47Z</time>
      </trkpt>
      <trkpt lat="47.51208" lon="-2.67641">
        <ele>65</ele>
        <time>2025-05-13T09:02:48Z</time>
      </trkpt>
      <trkpt lat="47.51205" lon="-2.67642">
        <ele>64</ele>
        <time>2025-05-13T09:02:49Z</time>
      </trkpt>
      <trkpt lat="47.51203" lon="-2.67644">
        <ele>64</ele>
        <time>2025-05-13T09:02:50Z</time>
      </trkpt>
      <trkpt lat="47.512" lon="-2.67646">
        <ele>64</ele>
        <time>2025-05-13T09:02:51Z</time>
      </trkpt>
      <trkpt lat="47.51198" lon="-2.67648">
        <ele>64</ele>
        <time>2025-05-13T09:02:52Z</time>
      </trkpt>
      <trkpt lat="47.51195" lon="-2.6765">
        <ele>64</ele>
        <time>2025-05-13T09:02:53Z</time>
      </trkpt>
      <trkpt lat="47.51192" lon="-2.67652">
        <ele>63</ele>
        <time>2025-05-13T09:02:54Z</time>
      </trkpt>
      <trkpt lat="47.5119" lon="-2.67654">
        <ele>63</ele>
        <time>2025-05-13T09:02:55Z</time>
      </trkpt>
      <trkpt lat="47.51187" lon="-2.67656">
        <ele>63</ele>
        <time>2025-05-13T09:02:56Z</time>
      </trkpt>
      <trkpt lat="47.51185" lon="-2.67657">
        <ele>62</ele>
        <time>2025-05-13T09:02:57Z</time>
      </trkpt>
      <trkpt lat="47.51182" lon="-2.67659">
        <ele>62</ele>
        <time>2025-05-13T09:02:58Z</time>
      </trkpt>
      <trkpt lat="47.5118" lon="-2.67661">
        <ele>63</ele>
        <time>2025-05-13T09:02:59Z</time>
      </trkpt>
      <trkpt lat="47.51177" lon="-2.67663">
        <ele>63</ele>
        <time>2025-05-13T09:03:00Z</time>
      </trkpt>
      <trkpt lat="47.51174" lon="-2.67664">
        <ele>63</ele>
        <time>2025-05-13T09:03:01Z</time>
      </trkpt>
      <trkpt lat="47.51172" lon="-2.67666">
        <ele>63</ele>
        <time>2025-05-13T09:03:02Z</time>
      </trkpt>
      <trkpt lat="47.51169" lon="-2.67668">
        <ele>63</ele>
        <time>2025-05-13T09:03:03Z</time>
      </trkpt>
      <trkpt lat="47.51167" lon="-2.67669">
        <ele>63</ele>
        <time>2025-05-13T09:03:04Z</time>
      </trkpt>
      <trkpt lat="47.51164" lon="-2.67671">
        <ele>63</ele>
        <time>2025-05-13T09:03:05Z</time>
      </trkpt>
      <trkpt lat="47.51161" lon="-2.67673">
        <ele>63</ele>
        <time>2025-05-13T09:03:06Z</time>
      </trkpt>
      <trkpt lat="47.51158" lon="-2.67675">
        <ele>63</ele>
        <time>2025-05-13T09:03:07Z</time>
      </trkpt>
      <trkpt lat="47.51156" lon="-2.67677">
        <ele>64</ele>
        <time>2025-05-13T09:03:08Z</time>
      </trkpt>
      <trkpt lat="47.51153" lon="-2.6768">
        <ele>64</ele>
        <time>2025-05-13T09:03:09Z</time>
      </trkpt>
      <trkpt lat="47.5115" lon="-2.67683">
        <ele>63</ele>
        <time>2025-05-13T09:03:10Z</time>
      </trkpt>
      <trkpt lat="47.51148" lon="-2.67686">
        <ele>63</ele>
        <time>2025-05-13T09:03:11Z</time>
      </trkpt>
      <trkpt lat="47.51145" lon="-2.67688">
        <ele>64</ele>
        <time>2025-05-13T09:03:12Z</time>
      </trkpt>
      <trkpt lat="47.51142" lon="-2.67691">
        <ele>64</ele>
        <time>2025-05-13T09:03:13Z</time>
      </trkpt>
      <trkpt lat="47.5114" lon="-2.67694">
        <ele>63</ele>
        <time>2025-05-13T09:03:14Z</time>
      </trkpt>
      <trkpt lat="47.51137" lon="-2.67697">
        <ele>64</ele>
        <time>2025-05-13T09:03:15Z</time>
      </trkpt>
      <trkpt lat="47.51135" lon="-2.67699">
        <ele>64</ele>
        <time>2025-05-13T09:03:16Z</time>
      </trkpt>
      <trkpt lat="47.51132" lon="-2.67701">
        <ele>64</ele>
        <time>2025-05-13T09:03:17Z</time>
      </trkpt>
      <trkpt lat="47.5113" lon="-2.67704">
        <ele>64</ele>
        <time>2025-05-13T09:03:18Z</time>
      </trkpt>
      <trkpt lat="47.51127" lon="-2.67708">
        <ele>64</ele>
        <time>2025-05-13T09:03:19Z</time>
      </trkpt>
      <trkpt lat="47.51125" lon="-2.6771">
        <ele>64</ele>
        <time>2025-05-13T09:03:20Z</time>
      </trkpt>
      <trkpt lat="47.51123" lon="-2.67713">
        <ele>64</ele>
        <time>2025-05-13T09:03:21Z</time>
      </trkpt>
      <trkpt lat="47.5112" lon="-2.67716">
        <ele>64</ele>
        <time>2025-05-13T09:03:22Z</time>
      </trkpt>
      <trkpt lat="47.51118" lon="-2.67719">
        <ele>64</ele>
        <time>2025-05-13T09:03:23Z</time>
      </trkpt>
      <trkpt lat="47.51115" lon="-2.67721">
        <ele>64</ele>
        <time>2025-05-13T09:03:24Z</time>
      </trkpt>
      <trkpt lat="47.51113" lon="-2.67724">
        <ele>64</ele>
        <time>2025-05-13T09:03:25Z</time>
      </trkpt>
      <trkpt lat="47.5111" lon="-2.67727">
        <ele>64</ele>
        <time>2025-05-13T09:03:26Z</time>
      </trkpt>
      <trkpt lat="47.51108" lon="-2.67731">
        <ele>65</ele>
        <time>2025-05-13T09:03:27Z</time>
      </trkpt>
      <trkpt lat="47.51106" lon="-2.67734">
        <ele>65</ele>
        <time>2025-05-13T09:03:28Z</time>
      </trkpt>
      <trkpt lat="47.51104" lon="-2.67736">
        <ele>65</ele>
        <time>2025-05-13T09:03:29Z</time>
      </trkpt>
      <trkpt lat="47.51101" lon="-2.67739">
        <ele>66</ele>
        <time>2025-05-13T09:03:30Z</time>
      </trkpt>
      <trkpt lat="47.51098" lon="-2.67741">
        <ele>66</ele>
        <time>2025-05-13T09:03:31Z</time>
      </trkpt>
      <trkpt lat="47.51095" lon="-2.67743">
        <ele>65</ele>
        <time>2025-05-13T09:03:32Z</time>
      </trkpt>
      <trkpt lat="47.51092" lon="-2.67746">
        <ele>65</ele>
        <time>2025-05-13T09:03:33Z</time>
      </trkpt>
      <trkpt lat="47.5109" lon="-2.67748">
        <ele>66</ele>
        <time>2025-05-13T09:03:34Z</time>
      </trkpt>
      <trkpt lat="47.51087" lon="-2.67751">
        <ele>66</ele>
        <time>2025-05-13T09:03:35Z</time>
      </trkpt>
      <trkpt lat="47.51085" lon="-2.67755">
        <ele>66</ele>
        <time>2025-05-13T09:03:36Z</time>
      </trkpt>
      <trkpt lat="47.51082" lon="-2.67758">
        <ele>67</ele>
        <time>2025-05-13T09:03:37Z</time>
      </trkpt>
      <trkpt lat="47.5108" lon="-2.67761">
        <ele>67</ele>
        <time>2025-05-13T09:03:38Z</time>
      </trkpt>
      <trkpt lat="47.51077" lon="-2.67764">
        <ele>67</ele>
        <time>2025-05-13T09:03:39Z</time>
      </trkpt>
      <trkpt lat="47.51075" lon="-2.67768">
        <ele>67</ele>
        <time>2025-05-13T09:03:40Z</time>
      </trkpt>
      <trkpt lat="47.51074" lon="-2.67771">
        <ele>67</ele>
        <time>2025-05-13T09:03:41Z</time>
      </trkpt>
      <trkpt lat="47.51072" lon="-2.67775">
        <ele>67</ele>
        <time>2025-05-13T09:03:42Z</time>
      </trkpt>
      <trkpt lat="47.5107" lon="-2.67779">
        <ele>67</ele>
        <time>2025-05-13T09:03:43Z</time>
      </trkpt>
      <trkpt lat="47.51068" lon="-2.67783">
        <ele>66</ele>
        <time>2025-05-13T09:03:44Z</time>
      </trkpt>
      <trkpt lat="47.51066" lon="-2.67786">
        <ele>66</ele>
        <time>2025-05-13T09:03:45Z</time>
      </trkpt>
      <trkpt lat="47.51064" lon="-2.6779">
        <ele>66</ele>
        <time>2025-05-13T09:03:46Z</time>
      </trkpt>
      <trkpt lat="47.51061" lon="-2.67793">
        <ele>66</ele>
        <time>2025-05-13T09:03:47Z</time>
      </trkpt>
      <trkpt lat="47.51059" lon="-2.67796">
        <ele>66</ele>
        <time>2025-05-13T09:03:48Z</time>
      </trkpt>
      <trkpt lat="47.51056" lon="-2.67799">
        <ele>66</ele>
        <time>2025-05-13T09:03:49Z</time>
      </trkpt>
      <trkpt lat="47.51053" lon="-2.67802">
        <ele>66</ele>
        <time>2025-05-13T09:03:50Z</time>
      </trkpt>
      <trkpt lat="47.51051" lon="-2.67806">
        <ele>66</ele>
        <time>2025-05-13T09:03:51Z</time>
      </trkpt>
      <trkpt lat="47.51048" lon="-2.67809">
        <ele>66</ele>
        <time>2025-05-13T09:03:52Z</time>
      </trkpt>
      <trkpt lat="47.51046" lon="-2.67812">
        <ele>66</ele>
        <time>2025-05-13T09:03:53Z</time>
      </trkpt>
      <trkpt lat="47.51043" lon="-2.67816">
        <ele>66</ele>
        <time>2025-05-13T09:03:54Z</time>
      </trkpt>
      <trkpt lat="47.51041" lon="-2.67819">
        <ele>66</ele>
        <time>2025-05-13T09:03:55Z</time>
      </trkpt>
      <trkpt lat="47.51038" lon="-2.67822">
        <ele>66</ele>
        <time>2025-05-13T09:03:56Z</time>
      </trkpt>
      <trkpt lat="47.51036" lon="-2.67825">
        <ele>66</ele>
        <time>2025-05-13T09:03:57Z</time>
      </trkpt>
      <trkpt lat="47.51033" lon="-2.67828">
        <ele>66</ele>
        <time>2025-05-13T09:03:58Z</time>
      </trkpt>
      <trkpt lat="47.5103" lon="-2.67831">
        <ele>66</ele>
        <time>2025-05-13T09:03:59Z</time>
      </trkpt>
      <trkpt lat="47.51028" lon="-2.67835">
        <ele>67</ele>
        <time>2025-05-13T09:04:00Z</time>
      </trkpt>
      <trkpt lat="47.51026" lon="-2.67838">
        <ele>67</ele>
        <time>2025-05-13T09:04:01Z</time>
      </trkpt>
      <trkpt lat="47.51023" lon="-2.67842">
        <ele>66</ele>
        <time>2025-05-13T09:04:02Z</time>
      </trkpt>
      <trkpt lat="47.5102" lon="-2.67846">
        <ele>66</ele>
        <time>2025-05-13T09:04:03Z</time>
      </trkpt>
      <trkpt lat="47.51018" lon="-2.67849">
        <ele>66</ele>
        <time>2025-05-13T09:04:04Z</time>
      </trkpt>
      <trkpt lat="47.51015" lon="-2.67853">
        <ele>66</ele>
        <time>2025-05-13T09:04:05Z</time>
      </trkpt>
      <trkpt lat="47.51012" lon="-2.67856">
        <ele>66</ele>
        <time>2025-05-13T09:04:06Z</time>
      </trkpt>
      <trkpt lat="47.51009" lon="-2.67859">
        <ele>66</ele>
        <time>2025-05-13T09:04:07Z</time>
      </trkpt>
      <trkpt lat="47.51007" lon="-2.67863">
        <ele>66</ele>
        <time>2025-05-13T09:04:08Z</time>
      </trkpt>
      <trkpt lat="47.51004" lon="-2.67867">
        <ele>66</ele>
        <time>2025-05-13T09:04:09Z</time>
      </trkpt>
      <trkpt lat="47.51002" lon="-2.67871">
        <ele>66</ele>
        <time>2025-05-13T09:04:10Z</time>
      </trkpt>
      <trkpt lat="47.50999" lon="-2.67874">
        <ele>66</ele>
        <time>2025-05-13T09:04:11Z</time>
      </trkpt>
      <trkpt lat="47.50996" lon="-2.67878">
        <ele>67</ele>
        <time>2025-05-13T09:04:12Z</time>
      </trkpt>
      <trkpt lat="47.50994" lon="-2.67881">
        <ele>67</ele>
        <time>2025-05-13T09:04:13Z</time>
      </trkpt>
      <trkpt lat="47.50991" lon="-2.67885">
        <ele>67</ele>
        <time>2025-05-13T09:04:14Z</time>
      </trkpt>
      <trkpt lat="47.50988" lon="-2.67888">
        <ele>67</ele>
        <time>2025-05-13T09:04:15Z</time>
      </trkpt>
      <trkpt lat="47.50985" lon="-2.67892">
        <ele>67</ele>
        <time>2025-05-13T09:04:16Z</time>
      </trkpt>
      <trkpt lat="47.50983" lon="-2.67896">
        <ele>67</ele>
        <time>2025-05-13T09:04:17Z</time>
      </trkpt>
      <trkpt lat="47.5098" lon="-2.67899">
        <ele>66</ele>
        <time>2025-05-13T09:04:18Z</time>
      </trkpt>
      <trkpt lat="47.50977" lon="-2.67903">
        <ele>66</ele>
        <time>2025-05-13T09:04:19Z</time>
      </trkpt>
      <trkpt lat="47.50974" lon="-2.67907">
        <ele>66</ele>
        <time>2025-05-13T09:04:20Z</time>
      </trkpt>
      <trkpt lat="47.50971" lon="-2.6791">
        <ele>66</ele>
        <time>2025-05-13T09:04:21Z</time>
      </trkpt>
      <trkpt lat="47.50968" lon="-2.67914">
        <ele>66</ele>
        <time>2025-05-13T09:04:22Z</time>
      </trkpt>
      <trkpt lat="47.50965" lon="-2.67917">
        <ele>66</ele>
        <time>2025-05-13T09:04:23Z</time>
      </trkpt>
      <trkpt lat="47.50962" lon="-2.67921">
        <ele>66</ele>
        <time>2025-05-13T09:04:24Z</time>
      </trkpt>
      <trkpt lat="47.5096" lon="-2.67925">
        <ele>66</ele>
        <time>2025-05-13T09:04:25Z</time>
      </trkpt>
      <trkpt lat="47.50957" lon="-2.67929">
        <ele>65</ele>
        <time>2025-05-13T09:04:26Z</time>
      </trkpt>
      <trkpt lat="47.50954" lon="-2.67933">
        <ele>65</ele>
        <time>2025-05-13T09:04:27Z</time>
      </trkpt>
      <trkpt lat="47.50951" lon="-2.67936">
        <ele>65</ele>
        <time>2025-05-13T09:04:28Z</time>
      </trkpt>
      <trkpt lat="47.50949" lon="-2.6794">
        <ele>65</ele>
        <time>2025-05-13T09:04:29Z</time>
      </trkpt>
      <trkpt lat="47.50946" lon="-2.67944">
        <ele>65</ele>
        <time>2025-05-13T09:04:30Z</time>
      </trkpt>
      <trkpt lat="47.50943" lon="-2.67947">
        <ele>66</ele>
        <time>2025-05-13T09:04:31Z</time>
      </trkpt>
      <trkpt lat="47.5094" lon="-2.67951">
        <ele>66</ele>
        <time>2025-05-13T09:04:32Z</time>
      </trkpt>
      <trkpt lat="47.50938" lon="-2.67954">
        <ele>66</ele>
        <time>2025-05-13T09:04:33Z</time>
      </trkpt>
      <trkpt lat="47.50935" lon="-2.67957">
        <ele>66</ele>
        <time>2025-05-13T09:04:34Z</time>
      </trkpt>
      <trkpt lat="47.50931" lon="-2.6796">
        <ele>66</ele>
        <time>2025-05-13T09:04:35Z</time>
      </trkpt>
      <trkpt lat="47.50928" lon="-2.67963">
        <ele>66</ele>
        <time>2025-05-13T09:04:36Z</time>
      </trkpt>
      <trkpt lat="47.50925" lon="-2.67966">
        <ele>66</ele>
        <time>2025-05-13T09:04:37Z</time>
      </trkpt>
      <trkpt lat="47.50921" lon="-2.67969">
        <ele>66</ele>
        <time>2025-05-13T09:04:38Z</time>
      </trkpt>
      <trkpt lat="47.50918" lon="-2.67972">
        <ele>66</ele>
        <time>2025-05-13T09:04:39Z</time>
      </trkpt>
      <trkpt lat="47.50915" lon="-2.67974">
        <ele>66</ele>
        <time>2025-05-13T09:04:40Z</time>
      </trkpt>
      <trkpt lat="47.50912" lon="-2.67977">
        <ele>67</ele>
        <time>2025-05-13T09:04:41Z</time>
      </trkpt>
      <trkpt lat="47.50909" lon="-2.6798">
        <ele>67</ele>
        <time>2025-05-13T09:04:42Z</time>
      </trkpt>
      <trkpt lat="47.50906" lon="-2.67983">
        <ele>67</ele>
        <time>2025-05-13T09:04:43Z</time>
      </trkpt>
      <trkpt lat="47.50903" lon="-2.67986">
        <ele>67</ele>
        <time>2025-05-13T09:04:44Z</time>
      </trkpt>
      <trkpt lat="47.50899" lon="-2.67988">
        <ele>67</ele>
        <time>2025-05-13T09:04:45Z</time>
      </trkpt>
      <trkpt lat="47.50896" lon="-2.67991">
        <ele>67</ele>
        <time>2025-05-13T09:04:46Z</time>
      </trkpt>
      <trkpt lat="47.50893" lon="-2.67994">
        <ele>68</ele>
        <time>2025-05-13T09:04:47Z</time>
      </trkpt>
      <trkpt lat="47.50889" lon="-2.67997">
        <ele>68</ele>
        <time>2025-05-13T09:04:48Z</time>
      </trkpt>
      <trkpt lat="47.50886" lon="-2.68">
        <ele>68</ele>
        <time>2025-05-13T09:04:49Z</time>
      </trkpt>
      <trkpt lat="47.50883" lon="-2.68003">
        <ele>68</ele>
        <time>2025-05-13T09:04:50Z</time>
      </trkpt>
      <trkpt lat="47.5088" lon="-2.68007">
        <ele>68</ele>
        <time>2025-05-13T09:04:51Z</time>
      </trkpt>
      <trkpt lat="47.50877" lon="-2.68011">
        <ele>68</ele>
        <time>2025-05-13T09:04:52Z</time>
      </trkpt>
      <trkpt lat="47.50874" lon="-2.68014">
        <ele>68</ele>
        <time>2025-05-13T09:04:53Z</time>
      </trkpt>
      <trkpt lat="47.50871" lon="-2.68016">
        <ele>68</ele>
        <time>2025-05-13T09:04:54Z</time>
      </trkpt>
      <trkpt lat="47.50867" lon="-2.68019">
        <ele>68</ele>
        <time>2025-05-13T09:04:55Z</time>
      </trkpt>
      <trkpt lat="47.50864" lon="-2.68022">
        <ele>68</ele>
        <time>2025-05-13T09:04:56Z</time>
      </trkpt>
      <trkpt lat="47.5086" lon="-2.68025">
        <ele>68</ele>
        <time>2025-05-13T09:04:57Z</time>
      </trkpt>
      <trkpt lat="47.50857" lon="-2.68028">
        <ele>68</ele>
        <time>2025-05-13T09:04:58Z</time>
      </trkpt>
      <trkpt lat="47.50853" lon="-2.68031">
        <ele>68</ele>
        <time>2025-05-13T09:04:59Z</time>
      </trkpt>
      <trkpt lat="47.5085" lon="-2.68034">
        <ele>68</ele>
        <time>2025-05-13T09:05:00Z</time>
      </trkpt>
      <trkpt lat="47.50847" lon="-2.68037">
        <ele>68</ele>
        <time>2025-05-13T09:05:01Z</time>
      </trkpt>
      <trkpt lat="47.50843" lon="-2.6804">
        <ele>68</ele>
        <time>2025-05-13T09:05:02Z</time>
      </trkpt>
      <trkpt lat="47.5084" lon="-2.68044">
        <ele>68</ele>
        <time>2025-05-13T09:05:03Z</time>
      </trkpt>
      <trkpt lat="47.50837" lon="-2.68047">
        <ele>68</ele>
        <time>2025-05-13T09:05:04Z</time>
      </trkpt>
      <trkpt lat="47.50834" lon="-2.68051">
        <ele>68</ele>
        <time>2025-05-13T09:05:05Z</time>
      </trkpt>
      <trkpt lat="47.50831" lon="-2.68054">
        <ele>67</ele>
        <time>2025-05-13T09:05:06Z</time>
      </trkpt>
      <trkpt lat="47.50828" lon="-2.68058">
        <ele>67</ele>
        <time>2025-05-13T09:05:07Z</time>
      </trkpt>
      <trkpt lat="47.50825" lon="-2.68061">
        <ele>68</ele>
        <time>2025-05-13T09:05:08Z</time>
      </trkpt>
      <trkpt lat="47.50822" lon="-2.68065">
        <ele>68</ele>
        <time>2025-05-13T09:05:09Z</time>
      </trkpt>
      <trkpt lat="47.50819" lon="-2.68069">
        <ele>68</ele>
        <time>2025-05-13T09:05:10Z</time>
      </trkpt>
      <trkpt lat="47.50816" lon="-2.68072">
        <ele>68</ele>
        <time>2025-05-13T09:05:11Z</time>
      </trkpt>
      <trkpt lat="47.50814" lon="-2.68076">
        <ele>69</ele>
        <time>2025-05-13T09:05:12Z</time>
      </trkpt>
      <trkpt lat="47.50811" lon="-2.6808">
        <ele>69</ele>
        <time>2025-05-13T09:05:13Z</time>
      </trkpt>
      <trkpt lat="47.50809" lon="-2.68084">
        <ele>69</ele>
        <time>2025-05-13T09:05:14Z</time>
      </trkpt>
      <trkpt lat="47.50806" lon="-2.68089">
        <ele>69</ele>
        <time>2025-05-13T09:05:15Z</time>
      </trkpt>
      <trkpt lat="47.50804" lon="-2.68093">
        <ele>69</ele>
        <time>2025-05-13T09:05:16Z</time>
      </trkpt>
      <trkpt lat="47.50802" lon="-2.68097">
        <ele>69</ele>
        <time>2025-05-13T09:05:17Z</time>
      </trkpt>
      <trkpt lat="47.50801" lon="-2.68101">
        <ele>69</ele>
        <time>2025-05-13T09:05:18Z</time>
      </trkpt>
      <trkpt lat="47.50799" lon="-2.68105">
        <ele>69</ele>
        <time>2025-05-13T09:05:19Z</time>
      </trkpt>
      <trkpt lat="47.50797" lon="-2.68109">
        <ele>70</ele>
        <time>2025-05-13T09:05:20Z</time>
      </trkpt>
      <trkpt lat="47.50795" lon="-2.68114">
        <ele>70</ele>
        <time>2025-05-13T09:05:21Z</time>
      </trkpt>
      <trkpt lat="47.50794" lon="-2.68118">
        <ele>70</ele>
        <time>2025-05-13T09:05:22Z</time>
      </trkpt>
      <trkpt lat="47.50792" lon="-2.68123">
        <ele>70</ele>
        <time>2025-05-13T09:05:23Z</time>
      </trkpt>
      <trkpt lat="47.5079" lon="-2.68127">
        <ele>71</ele>
        <time>2025-05-13T09:05:24Z</time>
      </trkpt>
      <trkpt lat="47.50788" lon="-2.68131">
        <ele>71</ele>
        <time>2025-05-13T09:05:25Z</time>
      </trkpt>
      <trkpt lat="47.50787" lon="-2.68135">
        <ele>71</ele>
        <time>2025-05-13T09:05:26Z</time>
      </trkpt>
      <trkpt lat="47.50785" lon="-2.68139">
        <ele>72</ele>
        <time>2025-05-13T09:05:27Z</time>
      </trkpt>
      <trkpt lat="47.50784" lon="-2.68143">
        <ele>72</ele>
        <time>2025-05-13T09:05:28Z</time>
      </trkpt>
      <trkpt lat="47.50782" lon="-2.68147">
        <ele>72</ele>
        <time>2025-05-13T09:05:29Z</time>
      </trkpt>
      <trkpt lat="47.5078" lon="-2.6815">
        <ele>72</ele>
        <time>2025-05-13T09:05:30Z</time>
      </trkpt>
      <trkpt lat="47.50779" lon="-2.68154">
        <ele>71</ele>
        <time>2025-05-13T09:05:31Z</time>
      </trkpt>
      <trkpt lat="47.50777" lon="-2.68158">
        <ele>70</ele>
        <time>2025-05-13T09:05:32Z</time>
      </trkpt>
      <trkpt lat="47.50776" lon="-2.68162">
        <ele>70</ele>
        <time>2025-05-13T09:05:33Z</time>
      </trkpt>
      <trkpt lat="47.50774" lon="-2.68166">
        <ele>70</ele>
        <time>2025-05-13T09:05:34Z</time>
      </trkpt>
      <trkpt lat="47.50773" lon="-2.68171">
        <ele>70</ele>
        <time>2025-05-13T09:05:35Z</time>
      </trkpt>
      <trkpt lat="47.50772" lon="-2.68176">
        <ele>70</ele>
        <time>2025-05-13T09:05:36Z</time>
      </trkpt>
      <trkpt lat="47.5077" lon="-2.68181">
        <ele>70</ele>
        <time>2025-05-13T09:05:37Z</time>
      </trkpt>
      <trkpt lat="47.50769" lon="-2.68185">
        <ele>70</ele>
        <time>2025-05-13T09:05:38Z</time>
      </trkpt>
      <trkpt lat="47.50767" lon="-2.68189">
        <ele>70</ele>
        <time>2025-05-13T09:05:39Z</time>
      </trkpt>
      <trkpt lat="47.50766" lon="-2.68193">
        <ele>70</ele>
        <time>2025-05-13T09:05:40Z</time>
      </trkpt>
      <trkpt lat="47.50765" lon="-2.68197">
        <ele>70</ele>
        <time>2025-05-13T09:05:41Z</time>
      </trkpt>
      <trkpt lat="47.50763" lon="-2.682">
        <ele>70</ele>
        <time>2025-05-13T09:05:42Z</time>
      </trkpt>
      <trkpt lat="47.50761" lon="-2.68204">
        <ele>70</ele>
        <time>2025-05-13T09:05:43Z</time>
      </trkpt>
      <trkpt lat="47.5076" lon="-2.68208">
        <ele>70</ele>
        <time>2025-05-13T09:05:44Z</time>
      </trkpt>
      <trkpt lat="47.50759" lon="-2.68213">
        <ele>69</ele>
        <time>2025-05-13T09:05:45Z</time>
      </trkpt>
      <trkpt lat="47.50757" lon="-2.68217">
        <ele>69</ele>
        <time>2025-05-13T09:05:46Z</time>
      </trkpt>
      <trkpt lat="47.50756" lon="-2.68221">
        <ele>69</ele>
        <time>2025-05-13T09:05:47Z</time>
      </trkpt>
      <trkpt lat="47.50755" lon="-2.68226">
        <ele>70</ele>
        <time>2025-05-13T09:05:48Z</time>
      </trkpt>
      <trkpt lat="47.50754" lon="-2.6823">
        <ele>71</ele>
        <time>2025-05-13T09:05:49Z</time>
      </trkpt>
      <trkpt lat="47.50753" lon="-2.68235">
        <ele>71</ele>
        <time>2025-05-13T09:05:50Z</time>
      </trkpt>
      <trkpt lat="47.50752" lon="-2.68239">
        <ele>71</ele>
        <time>2025-05-13T09:05:51Z</time>
      </trkpt>
      <trkpt lat="47.50751" lon="-2.68244">
        <ele>70</ele>
        <time>2025-05-13T09:05:52Z</time>
      </trkpt>
      <trkpt lat="47.50751" lon="-2.68249">
        <ele>70</ele>
        <time>2025-05-13T09:05:53Z</time>
      </trkpt>
      <trkpt lat="47.50751" lon="-2.68254">
        <ele>70</ele>
        <time>2025-05-13T09:05:54Z</time>
      </trkpt>
      <trkpt lat="47.5075" lon="-2.68259">
        <ele>70</ele>
        <time>2025-05-13T09:05:55Z</time>
      </trkpt>
      <trkpt lat="47.5075" lon="-2.68264">
        <ele>71</ele>
        <time>2025-05-13T09:05:56Z</time>
      </trkpt>
      <trkpt lat="47.50749" lon="-2.68269">
        <ele>71</ele>
        <time>2025-05-13T09:05:57Z</time>
      </trkpt>
      <trkpt lat="47.50749" lon="-2.68274">
        <ele>71</ele>
        <time>2025-05-13T09:05:58Z</time>
      </trkpt>
      <trkpt lat="47.50749" lon="-2.68278">
        <ele>71</ele>
        <time>2025-05-13T09:05:59Z</time>
      </trkpt>
      <trkpt lat="47.50749" lon="-2.68283">
        <ele>72</ele>
        <time>2025-05-13T09:06:00Z</time>
      </trkpt>
      <trkpt lat="47.50748" lon="-2.68288">
        <ele>72</ele>
        <time>2025-05-13T09:06:01Z</time>
      </trkpt>
      <trkpt lat="47.50748" lon="-2.68292">
        <ele>72</ele>
        <time>2025-05-13T09:06:02Z</time>
      </trkpt>
      <trkpt lat="47.50748" lon="-2.68297">
        <ele>72</ele>
        <time>2025-05-13T09:06:03Z</time>
      </trkpt>
      <trkpt lat="47.50747" lon="-2.68302">
        <ele>72</ele>
        <time>2025-05-13T09:06:04Z</time>
      </trkpt>
      <trkpt lat="47.50747" lon="-2.68307">
        <ele>72</ele>
        <time>2025-05-13T09:06:05Z</time>
      </trkpt>
      <trkpt lat="47.50747" lon="-2.68311">
        <ele>73</ele>
        <time>2025-05-13T09:06:06Z</time>
      </trkpt>
      <trkpt lat="47.50747" lon="-2.68316">
        <ele>73</ele>
        <time>2025-05-13T09:06:07Z</time>
      </trkpt>
      <trkpt lat="47.50747" lon="-2.6832">
        <ele>73</ele>
        <time>2025-05-13T09:06:08Z</time>
      </trkpt>
      <trkpt lat="47.50746" lon="-2.68325">
        <ele>73</ele>
        <time>2025-05-13T09:06:09Z</time>
      </trkpt>
      <trkpt lat="47.50746" lon="-2.6833">
        <ele>73</ele>
        <time>2025-05-13T09:06:10Z</time>
      </trkpt>
      <trkpt lat="47.50746" lon="-2.68335">
        <ele>73</ele>
        <time>2025-05-13T09:06:11Z</time>
      </trkpt>
      <trkpt lat="47.50746" lon="-2.6834">
        <ele>72</ele>
        <time>2025-05-13T09:06:12Z</time>
      </trkpt>
      <trkpt lat="47.50746" lon="-2.68345">
        <ele>71</ele>
        <time>2025-05-13T09:06:13Z</time>
      </trkpt>
      <trkpt lat="47.50746" lon="-2.68349">
        <ele>71</ele>
        <time>2025-05-13T09:06:14Z</time>
      </trkpt>
      <trkpt lat="47.50746" lon="-2.68354">
        <ele>71</ele>
        <time>2025-05-13T09:06:15Z</time>
      </trkpt>
      <trkpt lat="47.50746" lon="-2.68358">
        <ele>72</ele>
        <time>2025-05-13T09:06:16Z</time>
      </trkpt>
      <trkpt lat="47.50746" lon="-2.68363">
        <ele>72</ele>
        <time>2025-05-13T09:06:17Z</time>
      </trkpt>
      <trkpt lat="47.50745" lon="-2.68367">
        <ele>72</ele>
        <time>2025-05-13T09:06:18Z</time>
      </trkpt>
      <trkpt lat="47.50745" lon="-2.68371">
        <ele>73</ele>
        <time>2025-05-13T09:06:19Z</time>
      </trkpt>
      <trkpt lat="47.50745" lon="-2.68376">
        <ele>73</ele>
        <time>2025-05-13T09:06:20Z</time>
      </trkpt>
      <trkpt lat="47.50745" lon="-2.6838">
        <ele>74</ele>
        <time>2025-05-13T09:06:21Z</time>
      </trkpt>
      <trkpt lat="47.50744" lon="-2.68385">
        <ele>74</ele>
        <time>2025-05-13T09:06:22Z</time>
      </trkpt>
      <trkpt lat="47.50744" lon="-2.68389">
        <ele>75</ele>
        <time>2025-05-13T09:06:23Z</time>
      </trkpt>
      <trkpt lat="47.50744" lon="-2.68393">
        <ele>74</ele>
        <time>2025-05-13T09:06:24Z</time>
      </trkpt>
      <trkpt lat="47.50743" lon="-2.68398">
        <ele>74</ele>
        <time>2025-05-13T09:06:25Z</time>
      </trkpt>
      <trkpt lat="47.50742" lon="-2.68403">
        <ele>74</ele>
        <time>2025-05-13T09:06:26Z</time>
      </trkpt>
      <trkpt lat="47.50741" lon="-2.68407">
        <ele>74</ele>
        <time>2025-05-13T09:06:27Z</time>
      </trkpt>
      <trkpt lat="47.50739" lon="-2.68411">
        <ele>74</ele>
        <time>2025-05-13T09:06:28Z</time>
      </trkpt>
      <trkpt lat="47.50737" lon="-2.68414">
        <ele>74</ele>
        <time>2025-05-13T09:06:29Z</time>
      </trkpt>
      <trkpt lat="47.50736" lon="-2.68418">
        <ele>74</ele>
        <time>2025-05-13T09:06:30Z</time>
      </trkpt>
      <trkpt lat="47.50734" lon="-2.68422">
        <ele>74</ele>
        <time>2025-05-13T09:06:31Z</time>
      </trkpt>
      <trkpt lat="47.50733" lon="-2.68426">
        <ele>74</ele>
        <time>2025-05-13T09:06:32Z</time>
      </trkpt>
      <trkpt lat="47.50731" lon="-2.6843">
        <ele>74</ele>
        <time>2025-05-13T09:06:33Z</time>
      </trkpt>
      <trkpt lat="47.5073" lon="-2.68433">
        <ele>74</ele>
        <time>2025-05-13T09:06:34Z</time>
      </trkpt>
      <trkpt lat="47.50728" lon="-2.68437">
        <ele>74</ele>
        <time>2025-05-13T09:06:35Z</time>
      </trkpt>
      <trkpt lat="47.50726" lon="-2.68441">
        <ele>74</ele>
        <time>2025-05-13T09:06:36Z</time>
      </trkpt>
      <trkpt lat="47.50724" lon="-2.68445">
        <ele>74</ele>
        <time>2025-05-13T09:06:37Z</time>
      </trkpt>
      <trkpt lat="47.50723" lon="-2.68449">
        <ele>73</ele>
        <time>2025-05-13T09:06:38Z</time>
      </trkpt>
      <trkpt lat="47.50721" lon="-2.68454">
        <ele>73</ele>
        <time>2025-05-13T09:06:39Z</time>
      </trkpt>
      <trkpt lat="47.50718" lon="-2.68457">
        <ele>73</ele>
        <time>2025-05-13T09:06:40Z</time>
      </trkpt>
      <trkpt lat="47.50715" lon="-2.6846">
        <ele>73</ele>
        <time>2025-05-13T09:06:41Z</time>
      </trkpt>
      <trkpt lat="47.50712" lon="-2.68463">
        <ele>73</ele>
        <time>2025-05-13T09:06:42Z</time>
      </trkpt>
      <trkpt lat="47.50708" lon="-2.68466">
        <ele>73</ele>
        <time>2025-05-13T09:06:43Z</time>
      </trkpt>
      <trkpt lat="47.50704" lon="-2.68469">
        <ele>72</ele>
        <time>2025-05-13T09:06:44Z</time>
      </trkpt>
      <trkpt lat="47.50701" lon="-2.68472">
        <ele>72</ele>
        <time>2025-05-13T09:06:45Z</time>
      </trkpt>
      <trkpt lat="47.50697" lon="-2.68475">
        <ele>71</ele>
        <time>2025-05-13T09:06:46Z</time>
      </trkpt>
      <trkpt lat="47.50694" lon="-2.68479">
        <ele>71</ele>
        <time>2025-05-13T09:06:47Z</time>
      </trkpt>
      <trkpt lat="47.50691" lon="-2.68483">
        <ele>71</ele>
        <time>2025-05-13T09:06:48Z</time>
      </trkpt>
      <trkpt lat="47.50689" lon="-2.68487">
        <ele>70</ele>
        <time>2025-05-13T09:06:49Z</time>
      </trkpt>
      <trkpt lat="47.50688" lon="-2.68492">
        <ele>70</ele>
        <time>2025-05-13T09:06:50Z</time>
      </trkpt>
      <trkpt lat="47.50686" lon="-2.68495">
        <ele>70</ele>
        <time>2025-05-13T09:06:51Z</time>
      </trkpt>
      <trkpt lat="47.50683" lon="-2.68498">
        <ele>70</ele>
        <time>2025-05-13T09:06:52Z</time>
      </trkpt>
      <trkpt lat="47.5068" lon="-2.685">
        <ele>71</ele>
        <time>2025-05-13T09:06:53Z</time>
      </trkpt>
      <trkpt lat="47.50676" lon="-2.68501">
        <ele>71</ele>
        <time>2025-05-13T09:06:54Z</time>
      </trkpt>
      <trkpt lat="47.50672" lon="-2.685">
        <ele>71</ele>
        <time>2025-05-13T09:06:55Z</time>
      </trkpt>
      <trkpt lat="47.50668" lon="-2.68501">
        <ele>71</ele>
        <time>2025-05-13T09:06:56Z</time>
      </trkpt>
      <trkpt lat="47.50664" lon="-2.68503">
        <ele>71</ele>
        <time>2025-05-13T09:06:57Z</time>
      </trkpt>
      <trkpt lat="47.50659" lon="-2.68507">
        <ele>70</ele>
        <time>2025-05-13T09:06:58Z</time>
      </trkpt>
      <trkpt lat="47.50656" lon="-2.68512">
        <ele>69</ele>
        <time>2025-05-13T09:06:59Z</time>
      </trkpt>
      <trkpt lat="47.50654" lon="-2.68518">
        <ele>69</ele>
        <time>2025-05-13T09:07:00Z</time>
      </trkpt>
      <trkpt lat="47.50652" lon="-2.68524">
        <ele>68</ele>
        <time>2025-05-13T09:07:01Z</time>
      </trkpt>
      <trkpt lat="47.50652" lon="-2.6853">
        <ele>68</ele>
        <time>2025-05-13T09:07:02Z</time>
      </trkpt>
      <trkpt lat="47.50652" lon="-2.68537">
        <ele>67</ele>
        <time>2025-05-13T09:07:03Z</time>
      </trkpt>
      <trkpt lat="47.50653" lon="-2.68543">
        <ele>67</ele>
        <time>2025-05-13T09:07:04Z</time>
      </trkpt>
      <trkpt lat="47.50654" lon="-2.68548">
        <ele>67</ele>
        <time>2025-05-13T09:07:05Z</time>
      </trkpt>
      <trkpt lat="47.50655" lon="-2.68554">
        <ele>67</ele>
        <time>2025-05-13T09:07:06Z</time>
      </trkpt>
      <trkpt lat="47.50656" lon="-2.68559">
        <ele>67</ele>
        <time>2025-05-13T09:07:07Z</time>
      </trkpt>
      <trkpt lat="47.50657" lon="-2.68564">
        <ele>68</ele>
        <time>2025-05-13T09:07:08Z</time>
      </trkpt>
      <trkpt lat="47.50658" lon="-2.68569">
        <ele>68</ele>
        <time>2025-05-13T09:07:09Z</time>
      </trkpt>
      <trkpt lat="47.50659" lon="-2.68575">
        <ele>68</ele>
        <time>2025-05-13T09:07:10Z</time>
      </trkpt>
      <trkpt lat="47.50661" lon="-2.6858">
        <ele>68</ele>
        <time>2025-05-13T09:07:11Z</time>
      </trkpt>
      <trkpt lat="47.50663" lon="-2.68585">
        <ele>68</ele>
        <time>2025-05-13T09:07:12Z</time>
      </trkpt>
      <trkpt lat="47.50665" lon="-2.68591">
        <ele>67</ele>
        <time>2025-05-13T09:07:13Z</time>
      </trkpt>
      <trkpt lat="47.50667" lon="-2.68596">
        <ele>67</ele>
        <time>2025-05-13T09:07:14Z</time>
      </trkpt>
      <trkpt lat="47.50668" lon="-2.68602">
        <ele>67</ele>
        <time>2025-05-13T09:07:15Z</time>
      </trkpt>
      <trkpt lat="47.5067" lon="-2.68608">
        <ele>66</ele>
        <time>2025-05-13T09:07:16Z</time>
      </trkpt>
      <trkpt lat="47.50672" lon="-2.68615">
        <ele>66</ele>
        <time>2025-05-13T09:07:17Z</time>
      </trkpt>
      <trkpt lat="47.50674" lon="-2.68621">
        <ele>67</ele>
        <time>2025-05-13T09:07:18Z</time>
      </trkpt>
      <trkpt lat="47.50677" lon="-2.68628">
        <ele>67</ele>
        <time>2025-05-13T09:07:19Z</time>
      </trkpt>
      <trkpt lat="47.50679" lon="-2.68634">
        <ele>68</ele>
        <time>2025-05-13T09:07:20Z</time>
      </trkpt>
      <trkpt lat="47.50681" lon="-2.6864">
        <ele>69</ele>
        <time>2025-05-13T09:07:21Z</time>
      </trkpt>
      <trkpt lat="47.50683" lon="-2.68646">
        <ele>69</ele>
        <time>2025-05-13T09:07:22Z</time>
      </trkpt>
      <trkpt lat="47.50686" lon="-2.68652">
        <ele>70</ele>
        <time>2025-05-13T09:07:23Z</time>
      </trkpt>
      <trkpt lat="47.50688" lon="-2.68658">
        <ele>70</ele>
        <time>2025-05-13T09:07:24Z</time>
      </trkpt>
      <trkpt lat="47.5069" lon="-2.68665">
        <ele>70</ele>
        <time>2025-05-13T09:07:25Z</time>
      </trkpt>
      <trkpt lat="47.50692" lon="-2.68671">
        <ele>69</ele>
        <time>2025-05-13T09:07:26Z</time>
      </trkpt>
      <trkpt lat="47.50695" lon="-2.68678">
        <ele>69</ele>
        <time>2025-05-13T09:07:27Z</time>
      </trkpt>
      <trkpt lat="47.50697" lon="-2.68684">
        <ele>69</ele>
        <time>2025-05-13T09:07:28Z</time>
      </trkpt>
      <trkpt lat="47.50699" lon="-2.6869">
        <ele>68</ele>
        <time>2025-05-13T09:07:29Z</time>
      </trkpt>
      <trkpt lat="47.50702" lon="-2.68697">
        <ele>68</ele>
        <time>2025-05-13T09:07:30Z</time>
      </trkpt>
      <trkpt lat="47.50704" lon="-2.68704">
        <ele>67</ele>
        <time>2025-05-13T09:07:31Z</time>
      </trkpt>
      <trkpt lat="47.50707" lon="-2.6871">
        <ele>67</ele>
        <time>2025-05-13T09:07:32Z</time>
      </trkpt>
      <trkpt lat="47.50709" lon="-2.68717">
        <ele>67</ele>
        <time>2025-05-13T09:07:33Z</time>
      </trkpt>
      <trkpt lat="47.50711" lon="-2.68724">
        <ele>67</ele>
        <time>2025-05-13T09:07:34Z</time>
      </trkpt>
      <trkpt lat="47.50714" lon="-2.6873">
        <ele>67</ele>
        <time>2025-05-13T09:07:35Z</time>
      </trkpt>
      <trkpt lat="47.50716" lon="-2.68737">
        <ele>68</ele>
        <time>2025-05-13T09:07:36Z</time>
      </trkpt>
      <trkpt lat="47.50719" lon="-2.68743">
        <ele>67</ele>
        <time>2025-05-13T09:07:37Z</time>
      </trkpt>
      <trkpt lat="47.50722" lon="-2.68749">
        <ele>67</ele>
        <time>2025-05-13T09:07:38Z</time>
      </trkpt>
      <trkpt lat="47.50725" lon="-2.68756">
        <ele>66</ele>
        <time>2025-05-13T09:07:39Z</time>
      </trkpt>
      <trkpt lat="47.50727" lon="-2.68763">
        <ele>66</ele>
        <time>2025-05-13T09:07:40Z</time>
      </trkpt>
      <trkpt lat="47.5073" lon="-2.68771">
        <ele>66</ele>
        <time>2025-05-13T09:07:41Z</time>
      </trkpt>
      <trkpt lat="47.50732" lon="-2.68779">
        <ele>66</ele>
        <time>2025-05-13T09:07:42Z</time>
      </trkpt>
      <trkpt lat="47.50735" lon="-2.68787">
        <ele>66</ele>
        <time>2025-05-13T09:07:43Z</time>
      </trkpt>
      <trkpt lat="47.50738" lon="-2.68795">
        <ele>66</ele>
        <time>2025-05-13T09:07:44Z</time>
      </trkpt>
      <trkpt lat="47.5074" lon="-2.68802">
        <ele>65</ele>
        <time>2025-05-13T09:07:45Z</time>
      </trkpt>
      <trkpt lat="47.50742" lon="-2.6881">
        <ele>65</ele>
        <time>2025-05-13T09:07:46Z</time>
      </trkpt>
      <trkpt lat="47.50745" lon="-2.68817">
        <ele>65</ele>
        <time>2025-05-13T09:07:47Z</time>
      </trkpt>
      <trkpt lat="47.50747" lon="-2.68825">
        <ele>65</ele>
        <time>2025-05-13T09:07:48Z</time>
      </trkpt>
      <trkpt lat="47.50749" lon="-2.68833">
        <ele>65</ele>
        <time>2025-05-13T09:07:49Z</time>
      </trkpt>
      <trkpt lat="47.50752" lon="-2.68841">
        <ele>65</ele>
        <time>2025-05-13T09:07:50Z</time>
      </trkpt>
      <trkpt lat="47.50755" lon="-2.68849">
        <ele>66</ele>
        <time>2025-05-13T09:07:51Z</time>
      </trkpt>
      <trkpt lat="47.50758" lon="-2.68856">
        <ele>66</ele>
        <time>2025-05-13T09:07:52Z</time>
      </trkpt>
      <trkpt lat="47.50761" lon="-2.68864">
        <ele>65</ele>
        <time>2025-05-13T09:07:53Z</time>
      </trkpt>
      <trkpt lat="47.50763" lon="-2.68872">
        <ele>65</ele>
        <time>2025-05-13T09:07:54Z</time>
      </trkpt>
      <trkpt lat="47.50766" lon="-2.6888">
        <ele>64</ele>
        <time>2025-05-13T09:07:55Z</time>
      </trkpt>
      <trkpt lat="47.5077" lon="-2.68889">
        <ele>64</ele>
        <time>2025-05-13T09:07:56Z</time>
      </trkpt>
      <trkpt lat="47.50773" lon="-2.68897">
        <ele>64</ele>
        <time>2025-05-13T09:07:57Z</time>
      </trkpt>
      <trkpt lat="47.50776" lon="-2.68904">
        <ele>64</ele>
        <time>2025-05-13T09:07:58Z</time>
      </trkpt>
      <trkpt lat="47.50778" lon="-2.68912">
        <ele>63</ele>
        <time>2025-05-13T09:07:59Z</time>
      </trkpt>
      <trkpt lat="47.5078" lon="-2.6892">
        <ele>63</ele>
        <time>2025-05-13T09:08:00Z</time>
      </trkpt>
      <trkpt lat="47.50783" lon="-2.68928">
        <ele>63</ele>
        <time>2025-05-13T09:08:01Z</time>
      </trkpt>
      <trkpt lat="47.50785" lon="-2.68937">
        <ele>62</ele>
        <time>2025-05-13T09:08:02Z</time>
      </trkpt>
      <trkpt lat="47.50787" lon="-2.68946">
        <ele>62</ele>
        <time>2025-05-13T09:08:03Z</time>
      </trkpt>
      <trkpt lat="47.50789" lon="-2.68954">
        <ele>62</ele>
        <time>2025-05-13T09:08:04Z</time>
      </trkpt>
      <trkpt lat="47.5079" lon="-2.68963">
        <ele>62</ele>
        <time>2025-05-13T09:08:05Z</time>
      </trkpt>
      <trkpt lat="47.50791" lon="-2.68973">
        <ele>62</ele>
        <time>2025-05-13T09:08:06Z</time>
      </trkpt>
      <trkpt lat="47.50792" lon="-2.68982">
        <ele>62</ele>
        <time>2025-05-13T09:08:07Z</time>
      </trkpt>
      <trkpt lat="47.50792" lon="-2.68991">
        <ele>62</ele>
        <time>2025-05-13T09:08:08Z</time>
      </trkpt>
      <trkpt lat="47.50793" lon="-2.69">
        <ele>61</ele>
        <time>2025-05-13T09:08:09Z</time>
      </trkpt>
      <trkpt lat="47.50794" lon="-2.69009">
        <ele>60</ele>
        <time>2025-05-13T09:08:10Z</time>
      </trkpt>
      <trkpt lat="47.50793" lon="-2.69018">
        <ele>60</ele>
        <time>2025-05-13T09:08:11Z</time>
      </trkpt>
      <trkpt lat="47.50793" lon="-2.69027">
        <ele>61</ele>
        <time>2025-05-13T09:08:12Z</time>
      </trkpt>
      <trkpt lat="47.50793" lon="-2.69036">
        <ele>61</ele>
        <time>2025-05-13T09:08:13Z</time>
      </trkpt>
      <trkpt lat="47.50793" lon="-2.69045">
        <ele>61</ele>
        <time>2025-05-13T09:08:14Z</time>
      </trkpt>
      <trkpt lat="47.50793" lon="-2.69055">
        <ele>61</ele>
        <time>2025-05-13T09:08:15Z</time>
      </trkpt>
      <trkpt lat="47.50793" lon="-2.69064">
        <ele>61</ele>
        <time>2025-05-13T09:08:16Z</time>
      </trkpt>
      <trkpt lat="47.50793" lon="-2.69074">
        <ele>61</ele>
        <time>2025-05-13T09:08:17Z</time>
      </trkpt>
      <trkpt lat="47.50792" lon="-2.69083">
        <ele>61</ele>
        <time>2025-05-13T09:08:18Z</time>
      </trkpt>
      <trkpt lat="47.50791" lon="-2.69092">
        <ele>61</ele>
        <time>2025-05-13T09:08:19Z</time>
      </trkpt>
      <trkpt lat="47.50791" lon="-2.69101">
        <ele>61</ele>
        <time>2025-05-13T09:08:20Z</time>
      </trkpt>
      <trkpt lat="47.5079" lon="-2.6911">
        <ele>61</ele>
        <time>2025-05-13T09:08:21Z</time>
      </trkpt>
      <trkpt lat="47.50789" lon="-2.6912">
        <ele>61</ele>
        <time>2025-05-13T09:08:22Z</time>
      </trkpt>
      <trkpt lat="47.50789" lon="-2.69128">
        <ele>60</ele>
        <time>2025-05-13T09:08:23Z</time>
      </trkpt>
      <trkpt lat="47.50789" lon="-2.69138">
        <ele>60</ele>
        <time>2025-05-13T09:08:24Z</time>
      </trkpt>
      <trkpt lat="47.50788" lon="-2.69147">
        <ele>59</ele>
        <time>2025-05-13T09:08:25Z</time>
      </trkpt>
      <trkpt lat="47.50788" lon="-2.69156">
        <ele>60</ele>
        <time>2025-05-13T09:08:26Z</time>
      </trkpt>
      <trkpt lat="47.50788" lon="-2.69166">
        <ele>59</ele>
        <time>2025-05-13T09:08:27Z</time>
      </trkpt>
      <trkpt lat="47.50788" lon="-2.69175">
        <ele>59</ele>
        <time>2025-05-13T09:08:28Z</time>
      </trkpt>
      <trkpt lat="47.50789" lon="-2.69186">
        <ele>59</ele>
        <time>2025-05-13T09:08:29Z</time>
      </trkpt>
      <trkpt lat="47.50791" lon="-2.69192">
        <ele>57</ele>
        <time>2025-05-13T09:08:30Z</time>
      </trkpt>
      <trkpt lat="47.50792" lon="-2.69201">
        <ele>56</ele>
        <time>2025-05-13T09:08:31Z</time>
      </trkpt>
      <trkpt lat="47.50793" lon="-2.69212">
        <ele>56</ele>
        <time>2025-05-13T09:08:32Z</time>
      </trkpt>
      <trkpt lat="47.50794" lon="-2.69223">
        <ele>55</ele>
        <time>2025-05-13T09:08:33Z</time>
      </trkpt>
      <trkpt lat="47.50796" lon="-2.69232">
        <ele>56</ele>
        <time>2025-05-13T09:08:34Z</time>
      </trkpt>
      <trkpt lat="47.50798" lon="-2.69242">
        <ele>56</ele>
        <time>2025-05-13T09:08:35Z</time>
      </trkpt>
      <trkpt lat="47.50801" lon="-2.6925">
        <ele>57</ele>
        <time>2025-05-13T09:08:36Z</time>
      </trkpt>
      <trkpt lat="47.50803" lon="-2.69259">
        <ele>57</ele>
        <time>2025-05-13T09:08:37Z</time>
      </trkpt>
      <trkpt lat="47.50805" lon="-2.69268">
        <ele>57</ele>
        <time>2025-05-13T09:08:38Z</time>
      </trkpt>
      <trkpt lat="47.50808" lon="-2.69277">
        <ele>57</ele>
        <time>2025-05-13T09:08:39Z</time>
      </trkpt>
      <trkpt lat="47.5081" lon="-2.69285">
        <ele>57</ele>
        <time>2025-05-13T09:08:40Z</time>
      </trkpt>
      <trkpt lat="47.50812" lon="-2.69293">
        <ele>57</ele>
        <time>2025-05-13T09:08:41Z</time>
      </trkpt>
      <trkpt lat="47.50813" lon="-2.69299">
        <ele>57</ele>
        <time>2025-05-13T09:08:42Z</time>
      </trkpt>
      <trkpt lat="47.50813" lon="-2.69305">
        <ele>58</ele>
        <time>2025-05-13T09:08:43Z</time>
      </trkpt>
      <trkpt lat="47.50813" lon="-2.6931">
        <ele>58</ele>
        <time>2025-05-13T09:08:44Z</time>
      </trkpt>
      <trkpt lat="47.50812" lon="-2.69315">
        <ele>58</ele>
        <time>2025-05-13T09:08:45Z</time>
      </trkpt>
      <trkpt lat="47.50812" lon="-2.69317">
        <ele>58</ele>
        <time>2025-05-13T09:08:46Z</time>
      </trkpt>
      <trkpt lat="47.50812" lon="-2.69318">
        <ele>58</ele>
        <time>2025-05-13T09:08:47Z</time>
      </trkpt>
      <trkpt lat="47.50812" lon="-2.6932">
        <ele>58</ele>
        <time>2025-05-13T09:08:48Z</time>
      </trkpt>
      <trkpt lat="47.50813" lon="-2.69321">
        <ele>58</ele>
        <time>2025-05-13T09:08:49Z</time>
      </trkpt>
      <trkpt lat="47.50813" lon="-2.69321">
        <ele>58</ele>
        <time>2025-05-13T09:08:50Z</time>
      </trkpt>
      <trkpt lat="47.50813" lon="-2.69321">
        <ele>59</ele>
        <time>2025-05-13T09:08:51Z</time>
      </trkpt>
      <trkpt lat="47.50813" lon="-2.69321">
        <ele>59</ele>
        <time>2025-05-13T09:08:52Z</time>
      </trkpt>
      <trkpt lat="47.50813" lon="-2.69321">
        <ele>59</ele>
        <time>2025-05-13T09:08:53Z</time>
      </trkpt>
      <trkpt lat="47.50813" lon="-2.69321">
        <ele>59</ele>
        <time>2025-05-13T09:08:54Z</time>
      </trkpt>
      <trkpt lat="47.50813" lon="-2.69321">
        <ele>59</ele>
        <time>2025-05-13T09:08:55Z</time>
      </trkpt>
      <trkpt lat="47.50813" lon="-2.69321">
        <ele>59</ele>
        <time>2025-05-13T09:08:56Z</time>
      </trkpt>
      <trkpt lat="47.50813" lon="-2.69321">
        <ele>59</ele>
        <time>2025-05-13T09:08:57Z</time>
      </trkpt>
      <trkpt lat="47.50813" lon="-2.69321">
        <ele>59</ele>
        <time>2025-05-13T09:08:58Z</time>
      </trkpt>
      <trkpt lat="47.50813" lon="-2.69321">
        <ele>59</ele>
        <time>2025-05-13T09:08:59Z</time>
      </trkpt>
      <trkpt lat="47.50813" lon="-2.69321">
        <ele>59</ele>
        <time>2025-05-13T09:09:00Z</time>
      </trkpt>
      <trkpt lat="47.50813" lon="-2.69321">
        <ele>59</ele>
        <time>2025-05-13T09:09:01Z</time>
      </trkpt>
      <trkpt lat="47.50813" lon="-2.69321">
        <ele>59</ele>
        <time>2025-05-13T09:09:02Z</time>
      </trkpt>
      <trkpt lat="47.50813" lon="-2.69321">
        <ele>59</ele>
        <time>2025-05-13T09:09:03Z</time>
      </trkpt>
      <trkpt lat="47.50813" lon="-2.69321">
        <ele>59</ele>
        <time>2025-05-13T09:09:04Z</time>
      </trkpt>
      <trkpt lat="47.50813" lon="-2.69321">
        <ele>59</ele>
        <time>2025-05-13T09:09:05Z</time>
      </trkpt>
      <trkpt lat="47.50813" lon="-2.69321">
        <ele>59</ele>
        <time>2025-05-13T09:09:06Z</time>
      </trkpt>
      <trkpt lat="47.50813" lon="-2.69321">
        <ele>59</ele>
        <time>2025-05-13T09:09:07Z</time>
      </trkpt>
      <trkpt lat="47.50813" lon="-2.69321">
        <ele>59</ele>
        <time>2025-05-13T09:09:08Z</time>
      </trkpt>
      <trkpt lat="47.50813" lon="-2.69321">
        <ele>59</ele>
        <time>2025-05-13T09:09:09Z</time>
      </trkpt>
      <trkpt lat="47.50813" lon="-2.69321">
        <ele>59</ele>
        <time>2025-05-13T09:09:10Z</time>
      </trkpt>
      <trkpt lat="47.50813" lon="-2.69321">
        <ele>59</ele>
        <time>2025-05-13T09:09:11Z</time>
      </trkpt>
      <trkpt lat="47.50813" lon="-2.69321">
        <ele>59</ele>
        <time>2025-05-13T09:09:12Z</time>
      </trkpt>
      <trkpt lat="47.50813" lon="-2.69321">
        <ele>59</ele>
        <time>2025-05-13T09:09:13Z</time>
      </trkpt>
      <trkpt lat="47.50813" lon="-2.69321">
        <ele>59</ele>
        <time>2025-05-13T09:09:14Z</time>
      </trkpt>
      <trkpt lat="47.50813" lon="-2.69321">
        <ele>59</ele>
        <time>2025-05-13T09:09:15Z</time>
      </trkpt>
      <trkpt lat="47.50813" lon="-2.69321">
        <ele>59</ele>
        <time>2025-05-13T09:09:16Z</time>
      </trkpt>
      <trkpt lat="47.50813" lon="-2.69321">
        <ele>59</ele>
        <time>2025-05-13T09:09:17Z</time>
      </trkpt>
      <trkpt lat="47.50813" lon="-2.69321">
        <ele>59</ele>
        <time>2025-05-13T09:09:18Z</time>
      </trkpt>
      <trkpt lat="47.50813" lon="-2.69321">
        <ele>59</ele>
        <time>2025-05-13T09:09:19Z</time>
      </trkpt>
      <trkpt lat="47.50813" lon="-2.69321">
        <ele>59</ele>
        <time>2025-05-13T09:09:20Z</time>
      </trkpt>
      <trkpt lat="47.50813" lon="-2.69321">
        <ele>59</ele>
        <time>2025-05-13T09:09:21Z</time>
      </trkpt>
      <trkpt lat="47.50813" lon="-2.69321">
        <ele>59</ele>
        <time>2025-05-13T09:09:22Z</time>
      </trkpt>
      <trkpt lat="47.50813" lon="-2.69321">
        <ele>59</ele>
        <time>2025-05-13T09:09:23Z</time>
      </trkpt>
      <trkpt lat="47.50813" lon="-2.69321">
        <ele>59</ele>
        <time>2025-05-13T09:09:24Z</time>
      </trkpt>
      <trkpt lat="47.50813" lon="-2.69321">
        <ele>59</ele>
        <time>2025-05-13T09:09:25Z</time>
      </trkpt>
      <trkpt lat="47.50813" lon="-2.69321">
        <ele>59</ele>
        <time>2025-05-13T09:09:26Z</time>
      </trkpt>
      <trkpt lat="47.50813" lon="-2.69321">
        <ele>59</ele>
        <time>2025-05-13T09:09:27Z</time>
      </trkpt>
      <trkpt lat="47.50813" lon="-2.69321">
        <ele>59</ele>
        <time>2025-05-13T09:09:28Z</time>
      </trkpt>
      <trkpt lat="47.50813" lon="-2.69321">
        <ele>59</ele>
        <time>2025-05-13T09:09:29Z</time>
      </trkpt>
      <trkpt lat="47.50813" lon="-2.69321">
        <ele>59</ele>
        <time>2025-05-13T09:09:30Z</time>
      </trkpt>
      <trkpt lat="47.50813" lon="-2.69321">
        <ele>59</ele>
        <time>2025-05-13T09:09:31Z</time>
      </trkpt>
      <trkpt lat="47.50813" lon="-2.69321">
        <ele>59</ele>
        <time>2025-05-13T09:09:32Z</time>
      </trkpt>
      <trkpt lat="47.50813" lon="-2.69321">
        <ele>59</ele>
        <time>2025-05-13T09:09:33Z</time>
      </trkpt>
      <trkpt lat="47.50813" lon="-2.69321">
        <ele>59</ele>
        <time>2025-05-13T09:09:34Z</time>
      </trkpt>
      <trkpt lat="47.50813" lon="-2.69321">
        <ele>59</ele>
        <time>2025-05-13T09:09:35Z</time>
      </trkpt>
      <trkpt lat="47.50813" lon="-2.69321">
        <ele>59</ele>
        <time>2025-05-13T09:09:36Z</time>
      </trkpt>
      <trkpt lat="47.50813" lon="-2.69321">
        <ele>59</ele>
        <time>2025-05-13T09:09:37Z</time>
      </trkpt>
      <trkpt lat="47.50813" lon="-2.69321">
        <ele>59</ele>
        <time>2025-05-13T09:09:38Z</time>
      </trkpt>
      <trkpt lat="47.50813" lon="-2.69321">
        <ele>59</ele>
        <time>2025-05-13T09:09:39Z</time>
      </trkpt>
      <trkpt lat="47.50813" lon="-2.69321">
        <ele>59</ele>
        <time>2025-05-13T09:09:40Z</time>
      </trkpt>
      <trkpt lat="47.50813" lon="-2.69321">
        <ele>59</ele>
        <time>2025-05-13T09:09:41Z</time>
      </trkpt>
      <trkpt lat="47.50813" lon="-2.69321">
        <ele>59</ele>
        <time>2025-05-13T09:09:42Z</time>
      </trkpt>
      <trkpt lat="47.50813" lon="-2.69321">
        <ele>59</ele>
        <time>2025-05-13T09:09:43Z</time>
      </trkpt>
      <trkpt lat="47.50813" lon="-2.69321">
        <ele>59</ele>
        <time>2025-05-13T09:09:44Z</time>
      </trkpt>
      <trkpt lat="47.50813" lon="-2.69321">
        <ele>59</ele>
        <time>2025-05-13T09:09:45Z</time>
      </trkpt>
      <trkpt lat="47.50813" lon="-2.69321">
        <ele>59</ele>
        <time>2025-05-13T09:09:46Z</time>
      </trkpt>
      <trkpt lat="47.50813" lon="-2.69321">
        <ele>59</ele>
        <time>2025-05-13T09:09:47Z</time>
      </trkpt>
      <trkpt lat="47.50813" lon="-2.69321">
        <ele>59</ele>
        <time>2025-05-13T09:09:48Z</time>
      </trkpt>
      <trkpt lat="47.50813" lon="-2.69321">
        <ele>59</ele>
        <time>2025-05-13T09:09:49Z</time>
      </trkpt>
      <trkpt lat="47.50813" lon="-2.69321">
        <ele>59</ele>
        <time>2025-05-13T09:09:50Z</time>
      </trkpt>
      <trkpt lat="47.50813" lon="-2.69321">
        <ele>59</ele>
        <time>2025-05-13T09:09:51Z</time>
      </trkpt>
      <trkpt lat="47.50813" lon="-2.69321">
        <ele>59</ele>
        <time>2025-05-13T09:09:52Z</time>
      </trkpt>
      <trkpt lat="47.50813" lon="-2.69321">
        <ele>59</ele>
        <time>2025-05-13T09:09:53Z</time>
      </trkpt>
      <trkpt lat="47.50813" lon="-2.69321">
        <ele>59</ele>
        <time>2025-05-13T09:09:54Z</time>
      </trkpt>
      <trkpt lat="47.50813" lon="-2.69321">
        <ele>59</ele>
        <time>2025-05-13T09:09:55Z</time>
      </trkpt>
      <trkpt lat="47.50813" lon="-2.69321">
        <ele>59</ele>
        <time>2025-05-13T09:09:56Z</time>
      </trkpt>
      <trkpt lat="47.50813" lon="-2.69321">
        <ele>59</ele>
        <time>2025-05-13T09:09:57Z</time>
      </trkpt>
      <trkpt lat="47.50813" lon="-2.69321">
        <ele>59</ele>
        <time>2025-05-13T09:09:58Z</time>
      </trkpt>
      <trkpt lat="47.50813" lon="-2.69321">
        <ele>59</ele>
        <time>2025-05-13T09:09:59Z</time>
      </trkpt>
      <trkpt lat="47.50813" lon="-2.69321">
        <ele>59</ele>
        <time>2025-05-13T09:10:00Z</time>
      </trkpt>
      <trkpt lat="47.50813" lon="-2.69321">
        <ele>59</ele>
        <time>2025-05-13T09:10:01Z</time>
      </trkpt>
      <trkpt lat="47.50813" lon="-2.69321">
        <ele>59</ele>
        <time>2025-05-13T09:10:02Z</time>
      </trkpt>
      <trkpt lat="47.50813" lon="-2.69321">
        <ele>59</ele>
        <time>2025-05-13T09:10:03Z</time>
      </trkpt>
      <trkpt lat="47.50813" lon="-2.69321">
        <ele>59</ele>
        <time>2025-05-13T09:10:04Z</time>
      </trkpt>
      <trkpt lat="47.50813" lon="-2.69321">
        <ele>59</ele>
        <time>2025-05-13T09:10:05Z</time>
      </trkpt>
      <trkpt lat="47.50813" lon="-2.69321">
        <ele>59</ele>
        <time>2025-05-13T09:10:06Z</time>
      </trkpt>
      <trkpt lat="47.50813" lon="-2.69321">
        <ele>59</ele>
        <time>2025-05-13T09:10:07Z</time>
      </trkpt>
      <trkpt lat="47.50813" lon="-2.69321">
        <ele>59</ele>
        <time>2025-05-13T09:11:41Z</time>
      </trkpt>
      <trkpt lat="47.50813" lon="-2.69321">
        <ele>59</ele>
        <time>2025-05-13T09:11:42Z</time>
      </trkpt>
      <trkpt lat="47.50813" lon="-2.69321">
        <ele>59</ele>
        <time>2025-05-13T09:11:43Z</time>
      </trkpt>
      <trkpt lat="47.50813" lon="-2.69321">
        <ele>59</ele>
        <time>2025-05-13T09:11:44Z</time>
      </trkpt>
      <trkpt lat="47.50813" lon="-2.69321">
        <ele>59</ele>
        <time>2025-05-13T09:11:45Z</time>
      </trkpt>
      <trkpt lat="47.50813" lon="-2.69321">
        <ele>59</ele>
        <time>2025-05-13T09:11:46Z</time>
      </trkpt>
      <trkpt lat="47.50814" lon="-2.6932">
        <ele>62</ele>
        <time>2025-05-13T09:11:47Z</time>
      </trkpt>
      <trkpt lat="47.50816" lon="-2.6932">
        <ele>62</ele>
        <time>2025-05-13T09:11:48Z</time>
      </trkpt>
      <trkpt lat="47.50817" lon="-2.6932">
        <ele>62</ele>
        <time>2025-05-13T09:11:49Z</time>
      </trkpt>
      <trkpt lat="47.50819" lon="-2.69321">
        <ele>62</ele>
        <time>2025-05-13T09:11:50Z</time>
      </trkpt>
      <trkpt lat="47.5082" lon="-2.69323">
        <ele>62</ele>
        <time>2025-05-13T09:11:51Z</time>
      </trkpt>
      <trkpt lat="47.50822" lon="-2.69325">
        <ele>63</ele>
        <time>2025-05-13T09:11:52Z</time>
      </trkpt>
      <trkpt lat="47.50823" lon="-2.69329">
        <ele>63</ele>
        <time>2025-05-13T09:11:53Z</time>
      </trkpt>
      <trkpt lat="47.50825" lon="-2.69332">
        <ele>63</ele>
        <time>2025-05-13T09:11:54Z</time>
      </trkpt>
      <trkpt lat="47.50826" lon="-2.69336">
        <ele>63</ele>
        <time>2025-05-13T09:11:55Z</time>
      </trkpt>
      <trkpt lat="47.50828" lon="-2.6934">
        <ele>63</ele>
        <time>2025-05-13T09:11:56Z</time>
      </trkpt>
      <trkpt lat="47.50829" lon="-2.69344">
        <ele>63</ele>
        <time>2025-05-13T09:11:57Z</time>
      </trkpt>
      <trkpt lat="47.50832" lon="-2.69347">
        <ele>63</ele>
        <time>2025-05-13T09:11:58Z</time>
      </trkpt>
      <trkpt lat="47.50834" lon="-2.69352">
        <ele>63</ele>
        <time>2025-05-13T09:11:59Z</time>
      </trkpt>
      <trkpt lat="47.50837" lon="-2.69355">
        <ele>62</ele>
        <time>2025-05-13T09:12:00Z</time>
      </trkpt>
      <trkpt lat="47.50839" lon="-2.69358">
        <ele>62</ele>
        <time>2025-05-13T09:12:01Z</time>
      </trkpt>
      <trkpt lat="47.50842" lon="-2.69361">
        <ele>62</ele>
        <time>2025-05-13T09:12:02Z</time>
      </trkpt>
      <trkpt lat="47.50844" lon="-2.69364">
        <ele>62</ele>
        <time>2025-05-13T09:12:03Z</time>
      </trkpt>
      <trkpt lat="47.50847" lon="-2.69367">
        <ele>61</ele>
        <time>2025-05-13T09:12:04Z</time>
      </trkpt>
      <trkpt lat="47.50849" lon="-2.69369">
        <ele>61</ele>
        <time>2025-05-13T09:12:05Z</time>
      </trkpt>
      <trkpt lat="47.50852" lon="-2.69372">
        <ele>61</ele>
        <time>2025-05-13T09:12:06Z</time>
      </trkpt>
      <trkpt lat="47.50854" lon="-2.69375">
        <ele>61</ele>
        <time>2025-05-13T09:12:07Z</time>
      </trkpt>
      <trkpt lat="47.50857" lon="-2.69379">
        <ele>60</ele>
        <time>2025-05-13T09:12:08Z</time>
      </trkpt>
      <trkpt lat="47.5086" lon="-2.69381">
        <ele>60</ele>
        <time>2025-05-13T09:12:09Z</time>
      </trkpt>
      <trkpt lat="47.50863" lon="-2.69384">
        <ele>60</ele>
        <time>2025-05-13T09:12:10Z</time>
      </trkpt>
      <trkpt lat="47.50866" lon="-2.69387">
        <ele>60</ele>
        <time>2025-05-13T09:12:11Z</time>
      </trkpt>
      <trkpt lat="47.50869" lon="-2.6939">
        <ele>60</ele>
        <time>2025-05-13T09:12:12Z</time>
      </trkpt>
      <trkpt lat="47.50872" lon="-2.69393">
        <ele>60</ele>
        <time>2025-05-13T09:12:13Z</time>
      </trkpt>
      <trkpt lat="47.50875" lon="-2.69395">
        <ele>60</ele>
        <time>2025-05-13T09:12:14Z</time>
      </trkpt>
      <trkpt lat="47.50879" lon="-2.69398">
        <ele>60</ele>
        <time>2025-05-13T09:12:15Z</time>
      </trkpt>
      <trkpt lat="47.50882" lon="-2.69401">
        <ele>61</ele>
        <time>2025-05-13T09:12:16Z</time>
      </trkpt>
      <trkpt lat="47.50885" lon="-2.69403">
        <ele>60</ele>
        <time>2025-05-13T09:12:17Z</time>
      </trkpt>
      <trkpt lat="47.50888" lon="-2.69406">
        <ele>61</ele>
        <time>2025-05-13T09:12:18Z</time>
      </trkpt>
      <trkpt lat="47.50891" lon="-2.69408">
        <ele>61</ele>
        <time>2025-05-13T09:12:19Z</time>
      </trkpt>
      <trkpt lat="47.50895" lon="-2.69411">
        <ele>60</ele>
        <time>2025-05-13T09:12:20Z</time>
      </trkpt>
      <trkpt lat="47.50897" lon="-2.69415">
        <ele>61</ele>
        <time>2025-05-13T09:12:21Z</time>
      </trkpt>
      <trkpt lat="47.509" lon="-2.69418">
        <ele>61</ele>
        <time>2025-05-13T09:12:22Z</time>
      </trkpt>
      <trkpt lat="47.50903" lon="-2.69421">
        <ele>61</ele>
        <time>2025-05-13T09:12:23Z</time>
      </trkpt>
      <trkpt lat="47.50906" lon="-2.69424">
        <ele>60</ele>
        <time>2025-05-13T09:12:24Z</time>
      </trkpt>
      <trkpt lat="47.50909" lon="-2.69427">
        <ele>60</ele>
        <time>2025-05-13T09:12:25Z</time>
      </trkpt>
      <trkpt lat="47.50913" lon="-2.6943">
        <ele>61</ele>
        <time>2025-05-13T09:12:26Z</time>
      </trkpt>
      <trkpt lat="47.50916" lon="-2.69433">
        <ele>61</ele>
        <time>2025-05-13T09:12:27Z</time>
      </trkpt>
      <trkpt lat="47.50919" lon="-2.69437">
        <ele>61</ele>
        <time>2025-05-13T09:12:28Z</time>
      </trkpt>
      <trkpt lat="47.50923" lon="-2.69441">
        <ele>60</ele>
        <time>2025-05-13T09:12:29Z</time>
      </trkpt>
      <trkpt lat="47.50926" lon="-2.69445">
        <ele>60</ele>
        <time>2025-05-13T09:12:30Z</time>
      </trkpt>
      <trkpt lat="47.50929" lon="-2.69448">
        <ele>60</ele>
        <time>2025-05-13T09:12:31Z</time>
      </trkpt>
      <trkpt lat="47.50932" lon="-2.69451">
        <ele>61</ele>
        <time>2025-05-13T09:12:32Z</time>
      </trkpt>
      <trkpt lat="47.50935" lon="-2.69454">
        <ele>61</ele>
        <time>2025-05-13T09:12:33Z</time>
      </trkpt>
      <trkpt lat="47.50938" lon="-2.69458">
        <ele>61</ele>
        <time>2025-05-13T09:12:34Z</time>
      </trkpt>
      <trkpt lat="47.50941" lon="-2.69461">
        <ele>62</ele>
        <time>2025-05-13T09:12:35Z</time>
      </trkpt>
      <trkpt lat="47.50944" lon="-2.69465">
        <ele>62</ele>
        <time>2025-05-13T09:12:36Z</time>
      </trkpt>
      <trkpt lat="47.50947" lon="-2.69469">
        <ele>62</ele>
        <time>2025-05-13T09:12:37Z</time>
      </trkpt>
      <trkpt lat="47.50949" lon="-2.69472">
        <ele>63</ele>
        <time>2025-05-13T09:12:38Z</time>
      </trkpt>
      <trkpt lat="47.50951" lon="-2.69475">
        <ele>63</ele>
        <time>2025-05-13T09:12:39Z</time>
      </trkpt>
      <trkpt lat="47.50953" lon="-2.69478">
        <ele>63</ele>
        <time>2025-05-13T09:12:40Z</time>
      </trkpt>
      <trkpt lat="47.50955" lon="-2.69481">
        <ele>62</ele>
        <time>2025-05-13T09:12:41Z</time>
      </trkpt>
      <trkpt lat="47.50957" lon="-2.69485">
        <ele>62</ele>
        <time>2025-05-13T09:12:42Z</time>
      </trkpt>
      <trkpt lat="47.5096" lon="-2.69488">
        <ele>61</ele>
        <time>2025-05-13T09:12:43Z</time>
      </trkpt>
      <trkpt lat="47.50962" lon="-2.69492">
        <ele>61</ele>
        <time>2025-05-13T09:12:44Z</time>
      </trkpt>
      <trkpt lat="47.50964" lon="-2.69497">
        <ele>60</ele>
        <time>2025-05-13T09:12:45Z</time>
      </trkpt>
      <trkpt lat="47.50967" lon="-2.69502">
        <ele>60</ele>
        <time>2025-05-13T09:12:46Z</time>
      </trkpt>
      <trkpt lat="47.5097" lon="-2.69507">
        <ele>59</ele>
        <time>2025-05-13T09:12:47Z</time>
      </trkpt>
      <trkpt lat="47.50972" lon="-2.69513">
        <ele>59</ele>
        <time>2025-05-13T09:12:48Z</time>
      </trkpt>
      <trkpt lat="47.50974" lon="-2.69518">
        <ele>59</ele>
        <time>2025-05-13T09:12:49Z</time>
      </trkpt>
      <trkpt lat="47.50977" lon="-2.69524">
        <ele>59</ele>
        <time>2025-05-13T09:12:50Z</time>
      </trkpt>
      <trkpt lat="47.5098" lon="-2.6953">
        <ele>59</ele>
        <time>2025-05-13T09:12:51Z</time>
      </trkpt>
      <trkpt lat="47.50983" lon="-2.69537">
        <ele>59</ele>
        <time>2025-05-13T09:12:52Z</time>
      </trkpt>
      <trkpt lat="47.50986" lon="-2.69543">
        <ele>59</ele>
        <time>2025-05-13T09:12:53Z</time>
      </trkpt>
      <trkpt lat="47.50989" lon="-2.6955">
        <ele>59</ele>
        <time>2025-05-13T09:12:54Z</time>
      </trkpt>
      <trkpt lat="47.50993" lon="-2.69557">
        <ele>59</ele>
        <time>2025-05-13T09:12:55Z</time>
      </trkpt>
      <trkpt lat="47.50996" lon="-2.69564">
        <ele>60</ele>
        <time>2025-05-13T09:12:56Z</time>
      </trkpt>
      <trkpt lat="47.50999" lon="-2.6957">
        <ele>60</ele>
        <time>2025-05-13T09:12:57Z</time>
      </trkpt>
      <trkpt lat="47.51002" lon="-2.69577">
        <ele>61</ele>
        <time>2025-05-13T09:12:58Z</time>
      </trkpt>
      <trkpt lat="47.51005" lon="-2.69585">
        <ele>61</ele>
        <time>2025-05-13T09:12:59Z</time>
      </trkpt>
      <trkpt lat="47.51006" lon="-2.69592">
        <ele>61</ele>
        <time>2025-05-13T09:13:00Z</time>
      </trkpt>
      <trkpt lat="47.51008" lon="-2.69599">
        <ele>62</ele>
        <time>2025-05-13T09:13:01Z</time>
      </trkpt>
      <trkpt lat="47.5101" lon="-2.69605">
        <ele>62</ele>
        <time>2025-05-13T09:13:02Z</time>
      </trkpt>
      <trkpt lat="47.51012" lon="-2.69612">
        <ele>62</ele>
        <time>2025-05-13T09:13:03Z</time>
      </trkpt>
      <trkpt lat="47.51013" lon="-2.69619">
        <ele>63</ele>
        <time>2025-05-13T09:13:04Z</time>
      </trkpt>
      <trkpt lat="47.51014" lon="-2.69626">
        <ele>64</ele>
        <time>2025-05-13T09:13:05Z</time>
      </trkpt>
      <trkpt lat="47.51016" lon="-2.69632">
        <ele>63</ele>
        <time>2025-05-13T09:13:06Z</time>
      </trkpt>
      <trkpt lat="47.51017" lon="-2.69638">
        <ele>64</ele>
        <time>2025-05-13T09:13:07Z</time>
      </trkpt>
      <trkpt lat="47.51018" lon="-2.69644">
        <ele>64</ele>
        <time>2025-05-13T09:13:08Z</time>
      </trkpt>
      <trkpt lat="47.51018" lon="-2.69649">
        <ele>64</ele>
        <time>2025-05-13T09:13:09Z</time>
      </trkpt>
      <trkpt lat="47.51019" lon="-2.69656">
        <ele>63</ele>
        <time>2025-05-13T09:13:10Z</time>
      </trkpt>
      <trkpt lat="47.51019" lon="-2.69663">
        <ele>63</ele>
        <time>2025-05-13T09:13:11Z</time>
      </trkpt>
      <trkpt lat="47.51019" lon="-2.69669">
        <ele>62</ele>
        <time>2025-05-13T09:13:12Z</time>
      </trkpt>
      <trkpt lat="47.51019" lon="-2.69675">
        <ele>62</ele>
        <time>2025-05-13T09:13:13Z</time>
      </trkpt>
      <trkpt lat="47.51019" lon="-2.69681">
        <ele>62</ele>
        <time>2025-05-13T09:13:14Z</time>
      </trkpt>
      <trkpt lat="47.51018" lon="-2.69687">
        <ele>62</ele>
        <time>2025-05-13T09:13:15Z</time>
      </trkpt>
      <trkpt lat="47.51017" lon="-2.69692">
        <ele>61</ele>
        <time>2025-05-13T09:13:16Z</time>
      </trkpt>
      <trkpt lat="47.51015" lon="-2.69697">
        <ele>60</ele>
        <time>2025-05-13T09:13:17Z</time>
      </trkpt>
      <trkpt lat="47.51012" lon="-2.69702">
        <ele>60</ele>
        <time>2025-05-13T09:13:18Z</time>
      </trkpt>
      <trkpt lat="47.51009" lon="-2.69706">
        <ele>60</ele>
        <time>2025-05-13T09:13:19Z</time>
      </trkpt>
      <trkpt lat="47.51005" lon="-2.69711">
        <ele>60</ele>
        <time>2025-05-13T09:13:20Z</time>
      </trkpt>
      <trkpt lat="47.51001" lon="-2.69715">
        <ele>60</ele>
        <time>2025-05-13T09:13:21Z</time>
      </trkpt>
      <trkpt lat="47.50996" lon="-2.69719">
        <ele>60</ele>
        <time>2025-05-13T09:13:22Z</time>
      </trkpt>
      <trkpt lat="47.50992" lon="-2.69723">
        <ele>60</ele>
        <time>2025-05-13T09:13:23Z</time>
      </trkpt>
      <trkpt lat="47.50987" lon="-2.69727">
        <ele>59</ele>
        <time>2025-05-13T09:13:24Z</time>
      </trkpt>
      <trkpt lat="47.50982" lon="-2.69732">
        <ele>58</ele>
        <time>2025-05-13T09:13:25Z</time>
      </trkpt>
      <trkpt lat="47.50977" lon="-2.69737">
        <ele>58</ele>
        <time>2025-05-13T09:13:26Z</time>
      </trkpt>
      <trkpt lat="47.50973" lon="-2.69742">
        <ele>57</ele>
        <time>2025-05-13T09:13:27Z</time>
      </trkpt>
      <trkpt lat="47.50968" lon="-2.69746">
        <ele>58</ele>
        <time>2025-05-13T09:13:28Z</time>
      </trkpt>
      <trkpt lat="47.50963" lon="-2.6975">
        <ele>57</ele>
        <time>2025-05-13T09:13:29Z</time>
      </trkpt>
      <trkpt lat="47.50959" lon="-2.69757">
        <ele>57</ele>
        <time>2025-05-13T09:13:30Z</time>
      </trkpt>
      <trkpt lat="47.50956" lon="-2.69764">
        <ele>57</ele>
        <time>2025-05-13T09:13:31Z</time>
      </trkpt>
      <trkpt lat="47.50954" lon="-2.69774">
        <ele>57</ele>
        <time>2025-05-13T09:13:32Z</time>
      </trkpt>
      <trkpt lat="47.50952" lon="-2.69783">
        <ele>57</ele>
        <time>2025-05-13T09:13:33Z</time>
      </trkpt>
      <trkpt lat="47.50951" lon="-2.69793">
        <ele>57</ele>
        <time>2025-05-13T09:13:34Z</time>
      </trkpt>
      <trkpt lat="47.50951" lon="-2.69801">
        <ele>56</ele>
        <time>2025-05-13T09:13:35Z</time>
      </trkpt>
      <trkpt lat="47.50951" lon="-2.6981">
        <ele>56</ele>
        <time>2025-05-13T09:13:36Z</time>
      </trkpt>
      <trkpt lat="47.50951" lon="-2.69818">
        <ele>56</ele>
        <time>2025-05-13T09:13:37Z</time>
      </trkpt>
      <trkpt lat="47.50951" lon="-2.69826">
        <ele>55</ele>
        <time>2025-05-13T09:13:38Z</time>
      </trkpt>
      <trkpt lat="47.5095" lon="-2.69834">
        <ele>54</ele>
        <time>2025-05-13T09:13:39Z</time>
      </trkpt>
      <trkpt lat="47.50949" lon="-2.69842">
        <ele>53</ele>
        <time>2025-05-13T09:13:40Z</time>
      </trkpt>
      <trkpt lat="47.50949" lon="-2.6985">
        <ele>52</ele>
        <time>2025-05-13T09:13:41Z</time>
      </trkpt>
      <trkpt lat="47.50948" lon="-2.69859">
        <ele>52</ele>
        <time>2025-05-13T09:13:42Z</time>
      </trkpt>
      <trkpt lat="47.50946" lon="-2.69867">
        <ele>51</ele>
        <time>2025-05-13T09:13:43Z</time>
      </trkpt>
      <trkpt lat="47.50945" lon="-2.69874">
        <ele>52</ele>
        <time>2025-05-13T09:13:44Z</time>
      </trkpt>
      <trkpt lat="47.50943" lon="-2.69881">
        <ele>52</ele>
        <time>2025-05-13T09:13:45Z</time>
      </trkpt>
      <trkpt lat="47.5094" lon="-2.69889">
        <ele>52</ele>
        <time>2025-05-13T09:13:46Z</time>
      </trkpt>
      <trkpt lat="47.50938" lon="-2.69896">
        <ele>52</ele>
        <time>2025-05-13T09:13:47Z</time>
      </trkpt>
      <trkpt lat="47.50935" lon="-2.69903">
        <ele>53</ele>
        <time>2025-05-13T09:13:48Z</time>
      </trkpt>
      <trkpt lat="47.50932" lon="-2.69909">
        <ele>53</ele>
        <time>2025-05-13T09:13:49Z</time>
      </trkpt>
      <trkpt lat="47.50929" lon="-2.69915">
        <ele>54</ele>
        <time>2025-05-13T09:13:50Z</time>
      </trkpt>
      <trkpt lat="47.50926" lon="-2.69922">
        <ele>55</ele>
        <time>2025-05-13T09:13:51Z</time>
      </trkpt>
      <trkpt lat="47.50924" lon="-2.69928">
        <ele>56</ele>
        <time>2025-05-13T09:13:52Z</time>
      </trkpt>
      <trkpt lat="47.50921" lon="-2.69935">
        <ele>55</ele>
        <time>2025-05-13T09:13:53Z</time>
      </trkpt>
      <trkpt lat="47.50918" lon="-2.6994">
        <ele>55</ele>
        <time>2025-05-13T09:13:54Z</time>
      </trkpt>
      <trkpt lat="47.50916" lon="-2.69945">
        <ele>56</ele>
        <time>2025-05-13T09:13:55Z</time>
      </trkpt>
      <trkpt lat="47.50914" lon="-2.6995">
        <ele>57</ele>
        <time>2025-05-13T09:13:56Z</time>
      </trkpt>
      <trkpt lat="47.50911" lon="-2.69955">
        <ele>58</ele>
        <time>2025-05-13T09:13:57Z</time>
      </trkpt>
      <trkpt lat="47.50909" lon="-2.69961">
        <ele>58</ele>
        <time>2025-05-13T09:13:58Z</time>
      </trkpt>
      <trkpt lat="47.50907" lon="-2.69966">
        <ele>59</ele>
        <time>2025-05-13T09:13:59Z</time>
      </trkpt>
      <trkpt lat="47.50905" lon="-2.69971">
        <ele>59</ele>
        <time>2025-05-13T09:14:00Z</time>
      </trkpt>
      <trkpt lat="47.50903" lon="-2.69975">
        <ele>59</ele>
        <time>2025-05-13T09:14:01Z</time>
      </trkpt>
      <trkpt lat="47.50902" lon="-2.69979">
        <ele>59</ele>
        <time>2025-05-13T09:14:02Z</time>
      </trkpt>
      <trkpt lat="47.509" lon="-2.69984">
        <ele>60</ele>
        <time>2025-05-13T09:14:03Z</time>
      </trkpt>
      <trkpt lat="47.50897" lon="-2.69989">
        <ele>61</ele>
        <time>2025-05-13T09:14:04Z</time>
      </trkpt>
      <trkpt lat="47.50895" lon="-2.69993">
        <ele>61</ele>
        <time>2025-05-13T09:14:05Z</time>
      </trkpt>
      <trkpt lat="47.50893" lon="-2.69997">
        <ele>61</ele>
        <time>2025-05-13T09:14:06Z</time>
      </trkpt>
      <trkpt lat="47.50892" lon="-2.70002">
        <ele>62</ele>
        <time>2025-05-13T09:14:07Z</time>
      </trkpt>
      <trkpt lat="47.5089" lon="-2.70006">
        <ele>63</ele>
        <time>2025-05-13T09:14:08Z</time>
      </trkpt>
      <trkpt lat="47.50888" lon="-2.7001">
        <ele>63</ele>
        <time>2025-05-13T09:14:09Z</time>
      </trkpt>
      <trkpt lat="47.50887" lon="-2.70013">
        <ele>64</ele>
        <time>2025-05-13T09:14:10Z</time>
      </trkpt>
      <trkpt lat="47.50885" lon="-2.70017">
        <ele>65</ele>
        <time>2025-05-13T09:14:11Z</time>
      </trkpt>
      <trkpt lat="47.50883" lon="-2.7002">
        <ele>66</ele>
        <time>2025-05-13T09:14:12Z</time>
      </trkpt>
      <trkpt lat="47.50882" lon="-2.70025">
        <ele>66</ele>
        <time>2025-05-13T09:14:13Z</time>
      </trkpt>
      <trkpt lat="47.5088" lon="-2.70029">
        <ele>65</ele>
        <time>2025-05-13T09:14:14Z</time>
      </trkpt>
      <trkpt lat="47.50879" lon="-2.70032">
        <ele>65</ele>
        <time>2025-05-13T09:14:15Z</time>
      </trkpt>
      <trkpt lat="47.50878" lon="-2.70037">
        <ele>65</ele>
        <time>2025-05-13T09:14:16Z</time>
      </trkpt>
      <trkpt lat="47.50876" lon="-2.7004">
        <ele>65</ele>
        <time>2025-05-13T09:14:17Z</time>
      </trkpt>
      <trkpt lat="47.50874" lon="-2.70045">
        <ele>65</ele>
        <time>2025-05-13T09:14:18Z</time>
      </trkpt>
      <trkpt lat="47.50872" lon="-2.70049">
        <ele>66</ele>
        <time>2025-05-13T09:14:19Z</time>
      </trkpt>
      <trkpt lat="47.50869" lon="-2.70052">
        <ele>65</ele>
        <time>2025-05-13T09:14:20Z</time>
      </trkpt>
      <trkpt lat="47.50868" lon="-2.70056">
        <ele>65</ele>
        <time>2025-05-13T09:14:21Z</time>
      </trkpt>
      <trkpt lat="47.50866" lon="-2.7006">
        <ele>65</ele>
        <time>2025-05-13T09:14:22Z</time>
      </trkpt>
      <trkpt lat="47.50864" lon="-2.70064">
        <ele>65</ele>
        <time>2025-05-13T09:14:23Z</time>
      </trkpt>
      <trkpt lat="47.50862" lon="-2.70068">
        <ele>65</ele>
        <time>2025-05-13T09:14:24Z</time>
      </trkpt>
      <trkpt lat="47.50861" lon="-2.70072">
        <ele>65</ele>
        <time>2025-05-13T09:14:25Z</time>
      </trkpt>
      <trkpt lat="47.5086" lon="-2.70077">
        <ele>65</ele>
        <time>2025-05-13T09:14:26Z</time>
      </trkpt>
      <trkpt lat="47.50858" lon="-2.70081">
        <ele>65</ele>
        <time>2025-05-13T09:14:27Z</time>
      </trkpt>
      <trkpt lat="47.50856" lon="-2.70086">
        <ele>65</ele>
        <time>2025-05-13T09:14:28Z</time>
      </trkpt>
      <trkpt lat="47.50855" lon="-2.70091">
        <ele>65</ele>
        <time>2025-05-13T09:14:29Z</time>
      </trkpt>
      <trkpt lat="47.50853" lon="-2.70096">
        <ele>65</ele>
        <time>2025-05-13T09:14:30Z</time>
      </trkpt>
      <trkpt lat="47.50852" lon="-2.701">
        <ele>65</ele>
        <time>2025-05-13T09:14:31Z</time>
      </trkpt>
      <trkpt lat="47.5085" lon="-2.70105">
        <ele>65</ele>
        <time>2025-05-13T09:14:32Z</time>
      </trkpt>
      <trkpt lat="47.50848" lon="-2.7011">
        <ele>65</ele>
        <time>2025-05-13T09:14:33Z</time>
      </trkpt>
      <trkpt lat="47.50846" lon="-2.70114">
        <ele>66</ele>
        <time>2025-05-13T09:14:34Z</time>
      </trkpt>
      <trkpt lat="47.50845" lon="-2.70118">
        <ele>66</ele>
        <time>2025-05-13T09:14:35Z</time>
      </trkpt>
      <trkpt lat="47.50843" lon="-2.70122">
        <ele>66</ele>
        <time>2025-05-13T09:14:36Z</time>
      </trkpt>
      <trkpt lat="47.50842" lon="-2.70126">
        <ele>66</ele>
        <time>2025-05-13T09:14:37Z</time>
      </trkpt>
      <trkpt lat="47.5084" lon="-2.7013">
        <ele>66</ele>
        <time>2025-05-13T09:14:38Z</time>
      </trkpt>
      <trkpt lat="47.50839" lon="-2.70135">
        <ele>66</ele>
        <time>2025-05-13T09:14:39Z</time>
      </trkpt>
      <trkpt lat="47.50838" lon="-2.7014">
        <ele>66</ele>
        <time>2025-05-13T09:14:40Z</time>
      </trkpt>
      <trkpt lat="47.50838" lon="-2.70144">
        <ele>65</ele>
        <time>2025-05-13T09:14:41Z</time>
      </trkpt>
      <trkpt lat="47.50837" lon="-2.70148">
        <ele>66</ele>
        <time>2025-05-13T09:14:42Z</time>
      </trkpt>
      <trkpt lat="47.50836" lon="-2.70152">
        <ele>66</ele>
        <time>2025-05-13T09:14:43Z</time>
      </trkpt>
      <trkpt lat="47.50836" lon="-2.70156">
        <ele>66</ele>
        <time>2025-05-13T09:14:44Z</time>
      </trkpt>
      <trkpt lat="47.50835" lon="-2.7016">
        <ele>66</ele>
        <time>2025-05-13T09:14:45Z</time>
      </trkpt>
      <trkpt lat="47.50834" lon="-2.70165">
        <ele>65</ele>
        <time>2025-05-13T09:14:46Z</time>
      </trkpt>
      <trkpt lat="47.50834" lon="-2.7017">
        <ele>65</ele>
        <time>2025-05-13T09:14:47Z</time>
      </trkpt>
      <trkpt lat="47.50833" lon="-2.70175">
        <ele>64</ele>
        <time>2025-05-13T09:14:48Z</time>
      </trkpt>
      <trkpt lat="47.50831" lon="-2.7018">
        <ele>64</ele>
        <time>2025-05-13T09:14:49Z</time>
      </trkpt>
      <trkpt lat="47.5083" lon="-2.70185">
        <ele>63</ele>
        <time>2025-05-13T09:14:50Z</time>
      </trkpt>
      <trkpt lat="47.50829" lon="-2.7019">
        <ele>63</ele>
        <time>2025-05-13T09:14:51Z</time>
      </trkpt>
      <trkpt lat="47.50827" lon="-2.70195">
        <ele>62</ele>
        <time>2025-05-13T09:14:52Z</time>
      </trkpt>
      <trkpt lat="47.50826" lon="-2.702">
        <ele>62</ele>
        <time>2025-05-13T09:14:53Z</time>
      </trkpt>
      <trkpt lat="47.50825" lon="-2.70207">
        <ele>60</ele>
        <time>2025-05-13T09:14:54Z</time>
      </trkpt>
      <trkpt lat="47.50823" lon="-2.70214">
        <ele>60</ele>
        <time>2025-05-13T09:14:55Z</time>
      </trkpt>
      <trkpt lat="47.50822" lon="-2.70221">
        <ele>59</ele>
        <time>2025-05-13T09:14:56Z</time>
      </trkpt>
      <trkpt lat="47.50821" lon="-2.70226">
        <ele>59</ele>
        <time>2025-05-13T09:14:57Z</time>
      </trkpt>
      <trkpt lat="47.5082" lon="-2.70233">
        <ele>60</ele>
        <time>2025-05-13T09:14:58Z</time>
      </trkpt>
      <trkpt lat="47.50819" lon="-2.70239">
        <ele>60</ele>
        <time>2025-05-13T09:14:59Z</time>
      </trkpt>
      <trkpt lat="47.50818" lon="-2.70245">
        <ele>60</ele>
        <time>2025-05-13T09:15:00Z</time>
      </trkpt>
      <trkpt lat="47.50816" lon="-2.70251">
        <ele>60</ele>
        <time>2025-05-13T09:15:01Z</time>
      </trkpt>
      <trkpt lat="47.50815" lon="-2.70258">
        <ele>60</ele>
        <time>2025-05-13T09:15:02Z</time>
      </trkpt>
      <trkpt lat="47.50814" lon="-2.70264">
        <ele>60</ele>
        <time>2025-05-13T09:15:03Z</time>
      </trkpt>
      <trkpt lat="47.50813" lon="-2.70271">
        <ele>59</ele>
        <time>2025-05-13T09:15:04Z</time>
      </trkpt>
      <trkpt lat="47.50813" lon="-2.70277">
        <ele>59</ele>
        <time>2025-05-13T09:15:05Z</time>
      </trkpt>
      <trkpt lat="47.50813" lon="-2.70283">
        <ele>60</ele>
        <time>2025-05-13T09:15:06Z</time>
      </trkpt>
      <trkpt lat="47.50812" lon="-2.7029">
        <ele>60</ele>
        <time>2025-05-13T09:15:07Z</time>
      </trkpt>
      <trkpt lat="47.50813" lon="-2.70295">
        <ele>60</ele>
        <time>2025-05-13T09:15:08Z</time>
      </trkpt>
      <trkpt lat="47.50814" lon="-2.70301">
        <ele>61</ele>
        <time>2025-05-13T09:15:09Z</time>
      </trkpt>
      <trkpt lat="47.50815" lon="-2.70307">
        <ele>60</ele>
        <time>2025-05-13T09:15:10Z</time>
      </trkpt>
      <trkpt lat="47.50816" lon="-2.70313">
        <ele>61</ele>
        <time>2025-05-13T09:15:11Z</time>
      </trkpt>
      <trkpt lat="47.50817" lon="-2.7032">
        <ele>61</ele>
        <time>2025-05-13T09:15:12Z</time>
      </trkpt>
      <trkpt lat="47.50819" lon="-2.70326">
        <ele>62</ele>
        <time>2025-05-13T09:15:13Z</time>
      </trkpt>
      <trkpt lat="47.50821" lon="-2.70333">
        <ele>62</ele>
        <time>2025-05-13T09:15:14Z</time>
      </trkpt>
      <trkpt lat="47.50823" lon="-2.70339">
        <ele>63</ele>
        <time>2025-05-13T09:15:15Z</time>
      </trkpt>
      <trkpt lat="47.50825" lon="-2.70345">
        <ele>63</ele>
        <time>2025-05-13T09:15:16Z</time>
      </trkpt>
      <trkpt lat="47.50827" lon="-2.70352">
        <ele>64</ele>
        <time>2025-05-13T09:15:17Z</time>
      </trkpt>
      <trkpt lat="47.50829" lon="-2.70358">
        <ele>63</ele>
        <time>2025-05-13T09:15:18Z</time>
      </trkpt>
      <trkpt lat="47.50829" lon="-2.70365">
        <ele>63</ele>
        <time>2025-05-13T09:15:19Z</time>
      </trkpt>
      <trkpt lat="47.50828" lon="-2.70372">
        <ele>63</ele>
        <time>2025-05-13T09:15:20Z</time>
      </trkpt>
      <trkpt lat="47.50827" lon="-2.70378">
        <ele>63</ele>
        <time>2025-05-13T09:15:21Z</time>
      </trkpt>
      <trkpt lat="47.50826" lon="-2.70383">
        <ele>64</ele>
        <time>2025-05-13T09:15:22Z</time>
      </trkpt>
      <trkpt lat="47.50825" lon="-2.70389">
        <ele>64</ele>
        <time>2025-05-13T09:15:23Z</time>
      </trkpt>
      <trkpt lat="47.50824" lon="-2.70395">
        <ele>64</ele>
        <time>2025-05-13T09:15:24Z</time>
      </trkpt>
      <trkpt lat="47.50822" lon="-2.70401">
        <ele>63</ele>
        <time>2025-05-13T09:15:25Z</time>
      </trkpt>
      <trkpt lat="47.5082" lon="-2.70406">
        <ele>63</ele>
        <time>2025-05-13T09:15:26Z</time>
      </trkpt>
      <trkpt lat="47.50819" lon="-2.70413">
        <ele>63</ele>
        <time>2025-05-13T09:15:27Z</time>
      </trkpt>
      <trkpt lat="47.50817" lon="-2.70418">
        <ele>63</ele>
        <time>2025-05-13T09:15:28Z</time>
      </trkpt>
      <trkpt lat="47.50814" lon="-2.70424">
        <ele>64</ele>
        <time>2025-05-13T09:15:29Z</time>
      </trkpt>
      <trkpt lat="47.50812" lon="-2.70429">
        <ele>64</ele>
        <time>2025-05-13T09:15:30Z</time>
      </trkpt>
      <trkpt lat="47.50811" lon="-2.70434">
        <ele>65</ele>
        <time>2025-05-13T09:15:31Z</time>
      </trkpt>
      <trkpt lat="47.5081" lon="-2.70439">
        <ele>65</ele>
        <time>2025-05-13T09:15:32Z</time>
      </trkpt>
      <trkpt lat="47.50809" lon="-2.70444">
        <ele>65</ele>
        <time>2025-05-13T09:15:33Z</time>
      </trkpt>
      <trkpt lat="47.50809" lon="-2.7045">
        <ele>65</ele>
        <time>2025-05-13T09:15:34Z</time>
      </trkpt>
      <trkpt lat="47.5081" lon="-2.70455">
        <ele>65</ele>
        <time>2025-05-13T09:15:35Z</time>
      </trkpt>
      <trkpt lat="47.50812" lon="-2.7046">
        <ele>64</ele>
        <time>2025-05-13T09:15:36Z</time>
      </trkpt>
      <trkpt lat="47.50814" lon="-2.70463">
        <ele>64</ele>
        <time>2025-05-13T09:15:37Z</time>
      </trkpt>
      <trkpt lat="47.50816" lon="-2.70466">
        <ele>65</ele>
        <time>2025-05-13T09:15:38Z</time>
      </trkpt>
      <trkpt lat="47.50817" lon="-2.70469">
        <ele>65</ele>
        <time>2025-05-13T09:15:39Z</time>
      </trkpt>
      <trkpt lat="47.50817" lon="-2.70472">
        <ele>65</ele>
        <time>2025-05-13T09:15:40Z</time>
      </trkpt>
      <trkpt lat="47.50818" lon="-2.70474">
        <ele>66</ele>
        <time>2025-05-13T09:15:41Z</time>
      </trkpt>
      <trkpt lat="47.50819" lon="-2.70477">
        <ele>66</ele>
        <time>2025-05-13T09:15:42Z</time>
      </trkpt>
      <trkpt lat="47.5082" lon="-2.7048">
        <ele>67</ele>
        <time>2025-05-13T09:15:43Z</time>
      </trkpt>
      <trkpt lat="47.5082" lon="-2.70483">
        <ele>67</ele>
        <time>2025-05-13T09:15:44Z</time>
      </trkpt>
      <trkpt lat="47.50821" lon="-2.70487">
        <ele>68</ele>
        <time>2025-05-13T09:15:45Z</time>
      </trkpt>
      <trkpt lat="47.50821" lon="-2.70489">
        <ele>68</ele>
        <time>2025-05-13T09:15:46Z</time>
      </trkpt>
      <trkpt lat="47.50822" lon="-2.70492">
        <ele>68</ele>
        <time>2025-05-13T09:15:47Z</time>
      </trkpt>
      <trkpt lat="47.50823" lon="-2.70495">
        <ele>69</ele>
        <time>2025-05-13T09:15:48Z</time>
      </trkpt>
      <trkpt lat="47.50824" lon="-2.70498">
        <ele>69</ele>
        <time>2025-05-13T09:15:49Z</time>
      </trkpt>
      <trkpt lat="47.50826" lon="-2.70501">
        <ele>69</ele>
        <time>2025-05-13T09:15:50Z</time>
      </trkpt>
      <trkpt lat="47.50826" lon="-2.70504">
        <ele>69</ele>
        <time>2025-05-13T09:15:51Z</time>
      </trkpt>
      <trkpt lat="47.50827" lon="-2.70507">
        <ele>70</ele>
        <time>2025-05-13T09:15:52Z</time>
      </trkpt>
      <trkpt lat="47.50828" lon="-2.70509">
        <ele>71</ele>
        <time>2025-05-13T09:15:53Z</time>
      </trkpt>
      <trkpt lat="47.50829" lon="-2.70512">
        <ele>71</ele>
        <time>2025-05-13T09:15:54Z</time>
      </trkpt>
      <trkpt lat="47.5083" lon="-2.70516">
        <ele>70</ele>
        <time>2025-05-13T09:15:55Z</time>
      </trkpt>
      <trkpt lat="47.50831" lon="-2.70519">
        <ele>70</ele>
        <time>2025-05-13T09:15:56Z</time>
      </trkpt>
      <trkpt lat="47.50832" lon="-2.70521">
        <ele>70</ele>
        <time>2025-05-13T09:15:57Z</time>
      </trkpt>
      <trkpt lat="47.50833" lon="-2.70524">
        <ele>70</ele>
        <time>2025-05-13T09:15:58Z</time>
      </trkpt>
      <trkpt lat="47.50834" lon="-2.70527">
        <ele>71</ele>
        <time>2025-05-13T09:15:59Z</time>
      </trkpt>
      <trkpt lat="47.50835" lon="-2.7053">
        <ele>71</ele>
        <time>2025-05-13T09:16:00Z</time>
      </trkpt>
      <trkpt lat="47.50836" lon="-2.70533">
        <ele>72</ele>
        <time>2025-05-13T09:16:01Z</time>
      </trkpt>
      <trkpt lat="47.50837" lon="-2.70536">
        <ele>72</ele>
        <time>2025-05-13T09:16:02Z</time>
      </trkpt>
      <trkpt lat="47.50838" lon="-2.70539">
        <ele>73</ele>
        <time>2025-05-13T09:16:03Z</time>
      </trkpt>
      <trkpt lat="47.50839" lon="-2.70541">
        <ele>73</ele>
        <time>2025-05-13T09:16:04Z</time>
      </trkpt>
      <trkpt lat="47.5084" lon="-2.70544">
        <ele>73</ele>
        <time>2025-05-13T09:16:05Z</time>
      </trkpt>
      <trkpt lat="47.50841" lon="-2.70547">
        <ele>73</ele>
        <time>2025-05-13T09:16:06Z</time>
      </trkpt>
      <trkpt lat="47.50842" lon="-2.7055">
        <ele>73</ele>
        <time>2025-05-13T09:16:07Z</time>
      </trkpt>
      <trkpt lat="47.50843" lon="-2.70553">
        <ele>73</ele>
        <time>2025-05-13T09:16:08Z</time>
      </trkpt>
      <trkpt lat="47.50844" lon="-2.70556">
        <ele>73</ele>
        <time>2025-05-13T09:16:09Z</time>
      </trkpt>
      <trkpt lat="47.50845" lon="-2.70559">
        <ele>73</ele>
        <time>2025-05-13T09:16:10Z</time>
      </trkpt>
      <trkpt lat="47.50847" lon="-2.70561">
        <ele>73</ele>
        <time>2025-05-13T09:16:11Z</time>
      </trkpt>
      <trkpt lat="47.50848" lon="-2.70564">
        <ele>73</ele>
        <time>2025-05-13T09:16:12Z</time>
      </trkpt>
      <trkpt lat="47.50849" lon="-2.70567">
        <ele>73</ele>
        <time>2025-05-13T09:16:13Z</time>
      </trkpt>
      <trkpt lat="47.50849" lon="-2.7057">
        <ele>73</ele>
        <time>2025-05-13T09:16:14Z</time>
      </trkpt>
      <trkpt lat="47.5085" lon="-2.70573">
        <ele>73</ele>
        <time>2025-05-13T09:16:15Z</time>
      </trkpt>
      <trkpt lat="47.50851" lon="-2.70575">
        <ele>73</ele>
        <time>2025-05-13T09:16:16Z</time>
      </trkpt>
      <trkpt lat="47.50852" lon="-2.70578">
        <ele>73</ele>
        <time>2025-05-13T09:16:17Z</time>
      </trkpt>
      <trkpt lat="47.50853" lon="-2.7058">
        <ele>73</ele>
        <time>2025-05-13T09:16:18Z</time>
      </trkpt>
      <trkpt lat="47.50854" lon="-2.70582">
        <ele>74</ele>
        <time>2025-05-13T09:16:19Z</time>
      </trkpt>
      <trkpt lat="47.50855" lon="-2.70585">
        <ele>74</ele>
        <time>2025-05-13T09:16:20Z</time>
      </trkpt>
      <trkpt lat="47.50856" lon="-2.70587">
        <ele>74</ele>
        <time>2025-05-13T09:16:21Z</time>
      </trkpt>
      <trkpt lat="47.50858" lon="-2.70589">
        <ele>74</ele>
        <time>2025-05-13T09:16:22Z</time>
      </trkpt>
      <trkpt lat="47.50859" lon="-2.70592">
        <ele>74</ele>
        <time>2025-05-13T09:16:23Z</time>
      </trkpt>
      <trkpt lat="47.5086" lon="-2.70595">
        <ele>74</ele>
        <time>2025-05-13T09:16:24Z</time>
      </trkpt>
      <trkpt lat="47.50861" lon="-2.70598">
        <ele>74</ele>
        <time>2025-05-13T09:16:25Z</time>
      </trkpt>
      <trkpt lat="47.50862" lon="-2.70601">
        <ele>74</ele>
        <time>2025-05-13T09:16:26Z</time>
      </trkpt>
      <trkpt lat="47.50863" lon="-2.70604">
        <ele>74</ele>
        <time>2025-05-13T09:16:27Z</time>
      </trkpt>
      <trkpt lat="47.50864" lon="-2.70607">
        <ele>75</ele>
        <time>2025-05-13T09:16:28Z</time>
      </trkpt>
      <trkpt lat="47.50866" lon="-2.70609">
        <ele>75</ele>
        <time>2025-05-13T09:16:29Z</time>
      </trkpt>
      <trkpt lat="47.50867" lon="-2.70612">
        <ele>75</ele>
        <time>2025-05-13T09:16:30Z</time>
      </trkpt>
      <trkpt lat="47.50868" lon="-2.70615">
        <ele>74</ele>
        <time>2025-05-13T09:16:31Z</time>
      </trkpt>
      <trkpt lat="47.5087" lon="-2.70617">
        <ele>74</ele>
        <time>2025-05-13T09:16:32Z</time>
      </trkpt>
      <trkpt lat="47.50871" lon="-2.7062">
        <ele>74</ele>
        <time>2025-05-13T09:16:33Z</time>
      </trkpt>
      <trkpt lat="47.50872" lon="-2.70623">
        <ele>74</ele>
        <time>2025-05-13T09:16:34Z</time>
      </trkpt>
      <trkpt lat="47.50874" lon="-2.70626">
        <ele>74</ele>
        <time>2025-05-13T09:16:35Z</time>
      </trkpt>
      <trkpt lat="47.50875" lon="-2.70628">
        <ele>75</ele>
        <time>2025-05-13T09:16:36Z</time>
      </trkpt>
      <trkpt lat="47.50876" lon="-2.70632">
        <ele>75</ele>
        <time>2025-05-13T09:16:37Z</time>
      </trkpt>
      <trkpt lat="47.50878" lon="-2.70634">
        <ele>75</ele>
        <time>2025-05-13T09:16:38Z</time>
      </trkpt>
      <trkpt lat="47.50879" lon="-2.70637">
        <ele>75</ele>
        <time>2025-05-13T09:16:39Z</time>
      </trkpt>
      <trkpt lat="47.50881" lon="-2.7064">
        <ele>76</ele>
        <time>2025-05-13T09:16:40Z</time>
      </trkpt>
      <trkpt lat="47.50882" lon="-2.70642">
        <ele>76</ele>
        <time>2025-05-13T09:16:41Z</time>
      </trkpt>
      <trkpt lat="47.50883" lon="-2.70645">
        <ele>76</ele>
        <time>2025-05-13T09:16:42Z</time>
      </trkpt>
      <trkpt lat="47.50884" lon="-2.70648">
        <ele>76</ele>
        <time>2025-05-13T09:16:43Z</time>
      </trkpt>
      <trkpt lat="47.50886" lon="-2.70651">
        <ele>76</ele>
        <time>2025-05-13T09:16:44Z</time>
      </trkpt>
      <trkpt lat="47.50887" lon="-2.70654">
        <ele>76</ele>
        <time>2025-05-13T09:16:45Z</time>
      </trkpt>
      <trkpt lat="47.50889" lon="-2.70658">
        <ele>76</ele>
        <time>2025-05-13T09:16:46Z</time>
      </trkpt>
      <trkpt lat="47.50891" lon="-2.70661">
        <ele>76</ele>
        <time>2025-05-13T09:16:47Z</time>
      </trkpt>
      <trkpt lat="47.50893" lon="-2.70663">
        <ele>76</ele>
        <time>2025-05-13T09:16:48Z</time>
      </trkpt>
      <trkpt lat="47.50895" lon="-2.70666">
        <ele>75</ele>
        <time>2025-05-13T09:16:49Z</time>
      </trkpt>
      <trkpt lat="47.50897" lon="-2.7067">
        <ele>75</ele>
        <time>2025-05-13T09:16:50Z</time>
      </trkpt>
      <trkpt lat="47.50899" lon="-2.70673">
        <ele>74</ele>
        <time>2025-05-13T09:16:51Z</time>
      </trkpt>
      <trkpt lat="47.50901" lon="-2.70677">
        <ele>74</ele>
        <time>2025-05-13T09:16:52Z</time>
      </trkpt>
      <trkpt lat="47.50903" lon="-2.7068">
        <ele>73</ele>
        <time>2025-05-13T09:16:53Z</time>
      </trkpt>
      <trkpt lat="47.50906" lon="-2.70684">
        <ele>73</ele>
        <time>2025-05-13T09:16:54Z</time>
      </trkpt>
      <trkpt lat="47.50909" lon="-2.70688">
        <ele>73</ele>
        <time>2025-05-13T09:16:55Z</time>
      </trkpt>
      <trkpt lat="47.50911" lon="-2.70692">
        <ele>73</ele>
        <time>2025-05-13T09:16:56Z</time>
      </trkpt>
      <trkpt lat="47.50914" lon="-2.70695">
        <ele>72</ele>
        <time>2025-05-13T09:16:57Z</time>
      </trkpt>
      <trkpt lat="47.50917" lon="-2.70699">
        <ele>72</ele>
        <time>2025-05-13T09:16:58Z</time>
      </trkpt>
      <trkpt lat="47.5092" lon="-2.70702">
        <ele>72</ele>
        <time>2025-05-13T09:16:59Z</time>
      </trkpt>
      <trkpt lat="47.50923" lon="-2.70705">
        <ele>72</ele>
        <time>2025-05-13T09:17:00Z</time>
      </trkpt>
      <trkpt lat="47.50927" lon="-2.70708">
        <ele>72</ele>
        <time>2025-05-13T09:17:01Z</time>
      </trkpt>
      <trkpt lat="47.5093" lon="-2.70711">
        <ele>72</ele>
        <time>2025-05-13T09:17:02Z</time>
      </trkpt>
      <trkpt lat="47.50934" lon="-2.70714">
        <ele>72</ele>
        <time>2025-05-13T09:17:03Z</time>
      </trkpt>
      <trkpt lat="47.50938" lon="-2.70717">
        <ele>72</ele>
        <time>2025-05-13T09:17:04Z</time>
      </trkpt>
      <trkpt lat="47.50943" lon="-2.70721">
        <ele>72</ele>
        <time>2025-05-13T09:17:05Z</time>
      </trkpt>
      <trkpt lat="47.50947" lon="-2.70724">
        <ele>72</ele>
        <time>2025-05-13T09:17:06Z</time>
      </trkpt>
      <trkpt lat="47.50951" lon="-2.70728">
        <ele>71</ele>
        <time>2025-05-13T09:17:07Z</time>
      </trkpt>
      <trkpt lat="47.50955" lon="-2.70733">
        <ele>72</ele>
        <time>2025-05-13T09:17:08Z</time>
      </trkpt>
      <trkpt lat="47.50958" lon="-2.70738">
        <ele>72</ele>
        <time>2025-05-13T09:17:09Z</time>
      </trkpt>
      <trkpt lat="47.50961" lon="-2.70744">
        <ele>72</ele>
        <time>2025-05-13T09:17:10Z</time>
      </trkpt>
      <trkpt lat="47.50963" lon="-2.7075">
        <ele>73</ele>
        <time>2025-05-13T09:17:11Z</time>
      </trkpt>
      <trkpt lat="47.50964" lon="-2.70757">
        <ele>72</ele>
        <time>2025-05-13T09:17:12Z</time>
      </trkpt>
      <trkpt lat="47.50965" lon="-2.70763">
        <ele>72</ele>
        <time>2025-05-13T09:17:13Z</time>
      </trkpt>
      <trkpt lat="47.50965" lon="-2.7077">
        <ele>72</ele>
        <time>2025-05-13T09:17:14Z</time>
      </trkpt>
      <trkpt lat="47.50966" lon="-2.70776">
        <ele>72</ele>
        <time>2025-05-13T09:17:15Z</time>
      </trkpt>
      <trkpt lat="47.50965" lon="-2.70783">
        <ele>72</ele>
        <time>2025-05-13T09:17:16Z</time>
      </trkpt>
      <trkpt lat="47.50965" lon="-2.70789">
        <ele>72</ele>
        <time>2025-05-13T09:17:17Z</time>
      </trkpt>
      <trkpt lat="47.50964" lon="-2.70795">
        <ele>73</ele>
        <time>2025-05-13T09:17:18Z</time>
      </trkpt>
      <trkpt lat="47.50964" lon="-2.70801">
        <ele>72</ele>
        <time>2025-05-13T09:17:19Z</time>
      </trkpt>
      <trkpt lat="47.50963" lon="-2.70808">
        <ele>72</ele>
        <time>2025-05-13T09:17:20Z</time>
      </trkpt>
      <trkpt lat="47.50963" lon="-2.70814">
        <ele>72</ele>
        <time>2025-05-13T09:17:21Z</time>
      </trkpt>
      <trkpt lat="47.50962" lon="-2.70821">
        <ele>72</ele>
        <time>2025-05-13T09:17:22Z</time>
      </trkpt>
      <trkpt lat="47.50961" lon="-2.70827">
        <ele>72</ele>
        <time>2025-05-13T09:17:23Z</time>
      </trkpt>
      <trkpt lat="47.50961" lon="-2.70833">
        <ele>72</ele>
        <time>2025-05-13T09:17:24Z</time>
      </trkpt>
      <trkpt lat="47.5096" lon="-2.70839">
        <ele>72</ele>
        <time>2025-05-13T09:17:25Z</time>
      </trkpt>
      <trkpt lat="47.50959" lon="-2.70844">
        <ele>72</ele>
        <time>2025-05-13T09:17:26Z</time>
      </trkpt>
      <trkpt lat="47.50958" lon="-2.7085">
        <ele>72</ele>
        <time>2025-05-13T09:17:27Z</time>
      </trkpt>
      <trkpt lat="47.50957" lon="-2.70856">
        <ele>72</ele>
        <time>2025-05-13T09:17:28Z</time>
      </trkpt>
      <trkpt lat="47.50957" lon="-2.70861">
        <ele>72</ele>
        <time>2025-05-13T09:17:29Z</time>
      </trkpt>
      <trkpt lat="47.50957" lon="-2.70867">
        <ele>72</ele>
        <time>2025-05-13T09:17:30Z</time>
      </trkpt>
      <trkpt lat="47.50957" lon="-2.70872">
        <ele>73</ele>
        <time>2025-05-13T09:17:31Z</time>
      </trkpt>
      <trkpt lat="47.50957" lon="-2.70877">
        <ele>73</ele>
        <time>2025-05-13T09:17:32Z</time>
      </trkpt>
      <trkpt lat="47.50957" lon="-2.70883">
        <ele>73</ele>
        <time>2025-05-13T09:17:33Z</time>
      </trkpt>
      <trkpt lat="47.50957" lon="-2.70888">
        <ele>73</ele>
        <time>2025-05-13T09:17:34Z</time>
      </trkpt>
      <trkpt lat="47.50957" lon="-2.70893">
        <ele>74</ele>
        <time>2025-05-13T09:17:35Z</time>
      </trkpt>
      <trkpt lat="47.50958" lon="-2.70899">
        <ele>74</ele>
        <time>2025-05-13T09:17:36Z</time>
      </trkpt>
      <trkpt lat="47.50958" lon="-2.70904">
        <ele>75</ele>
        <time>2025-05-13T09:17:37Z</time>
      </trkpt>
      <trkpt lat="47.50958" lon="-2.70908">
        <ele>75</ele>
        <time>2025-05-13T09:17:38Z</time>
      </trkpt>
      <trkpt lat="47.50958" lon="-2.70913">
        <ele>75</ele>
        <time>2025-05-13T09:17:39Z</time>
      </trkpt>
      <trkpt lat="47.50959" lon="-2.70918">
        <ele>76</ele>
        <time>2025-05-13T09:17:40Z</time>
      </trkpt>
      <trkpt lat="47.50959" lon="-2.70922">
        <ele>76</ele>
        <time>2025-05-13T09:17:41Z</time>
      </trkpt>
      <trkpt lat="47.50959" lon="-2.70928">
        <ele>76</ele>
        <time>2025-05-13T09:17:42Z</time>
      </trkpt>
      <trkpt lat="47.5096" lon="-2.70933">
        <ele>76</ele>
        <time>2025-05-13T09:17:43Z</time>
      </trkpt>
      <trkpt lat="47.5096" lon="-2.70937">
        <ele>76</ele>
        <time>2025-05-13T09:17:44Z</time>
      </trkpt>
      <trkpt lat="47.50961" lon="-2.70942">
        <ele>76</ele>
        <time>2025-05-13T09:17:45Z</time>
      </trkpt>
      <trkpt lat="47.50961" lon="-2.70947">
        <ele>76</ele>
        <time>2025-05-13T09:17:46Z</time>
      </trkpt>
      <trkpt lat="47.50962" lon="-2.70951">
        <ele>77</ele>
        <time>2025-05-13T09:17:47Z</time>
      </trkpt>
      <trkpt lat="47.50962" lon="-2.70956">
        <ele>77</ele>
        <time>2025-05-13T09:17:48Z</time>
      </trkpt>
      <trkpt lat="47.50963" lon="-2.7096">
        <ele>77</ele>
        <time>2025-05-13T09:17:49Z</time>
      </trkpt>
      <trkpt lat="47.50964" lon="-2.70965">
        <ele>77</ele>
        <time>2025-05-13T09:17:50Z</time>
      </trkpt>
      <trkpt lat="47.50964" lon="-2.70969">
        <ele>78</ele>
        <time>2025-05-13T09:17:51Z</time>
      </trkpt>
      <trkpt lat="47.50965" lon="-2.70974">
        <ele>79</ele>
        <time>2025-05-13T09:17:52Z</time>
      </trkpt>
      <trkpt lat="47.50967" lon="-2.70979">
        <ele>80</ele>
        <time>2025-05-13T09:17:53Z</time>
      </trkpt>
      <trkpt lat="47.50967" lon="-2.70984">
        <ele>80</ele>
        <time>2025-05-13T09:17:54Z</time>
      </trkpt>
      <trkpt lat="47.50969" lon="-2.70989">
        <ele>80</ele>
        <time>2025-05-13T09:17:55Z</time>
      </trkpt>
      <trkpt lat="47.5097" lon="-2.70993">
        <ele>80</ele>
        <time>2025-05-13T09:17:56Z</time>
      </trkpt>
      <trkpt lat="47.50972" lon="-2.70997">
        <ele>80</ele>
        <time>2025-05-13T09:17:57Z</time>
      </trkpt>
      <trkpt lat="47.50974" lon="-2.71001">
        <ele>79</ele>
        <time>2025-05-13T09:17:58Z</time>
      </trkpt>
      <trkpt lat="47.50975" lon="-2.71005">
        <ele>80</ele>
        <time>2025-05-13T09:17:59Z</time>
      </trkpt>
      <trkpt lat="47.50977" lon="-2.71008">
        <ele>80</ele>
        <time>2025-05-13T09:18:00Z</time>
      </trkpt>
      <trkpt lat="47.50978" lon="-2.71013">
        <ele>80</ele>
        <time>2025-05-13T09:18:01Z</time>
      </trkpt>
      <trkpt lat="47.50979" lon="-2.71016">
        <ele>80</ele>
        <time>2025-05-13T09:18:02Z</time>
      </trkpt>
      <trkpt lat="47.50981" lon="-2.7102">
        <ele>80</ele>
        <time>2025-05-13T09:18:03Z</time>
      </trkpt>
      <trkpt lat="47.50982" lon="-2.71024">
        <ele>80</ele>
        <time>2025-05-13T09:18:04Z</time>
      </trkpt>
      <trkpt lat="47.50984" lon="-2.71028">
        <ele>80</ele>
        <time>2025-05-13T09:18:05Z</time>
      </trkpt>
      <trkpt lat="47.50985" lon="-2.71033">
        <ele>80</ele>
        <time>2025-05-13T09:18:06Z</time>
      </trkpt>
      <trkpt lat="47.50986" lon="-2.71037">
        <ele>80</ele>
        <time>2025-05-13T09:18:07Z</time>
      </trkpt>
      <trkpt lat="47.50987" lon="-2.71041">
        <ele>79</ele>
        <time>2025-05-13T09:18:08Z</time>
      </trkpt>
      <trkpt lat="47.50988" lon="-2.71046">
        <ele>79</ele>
        <time>2025-05-13T09:18:09Z</time>
      </trkpt>
      <trkpt lat="47.5099" lon="-2.7105">
        <ele>79</ele>
        <time>2025-05-13T09:18:10Z</time>
      </trkpt>
      <trkpt lat="47.50991" lon="-2.71054">
        <ele>79</ele>
        <time>2025-05-13T09:18:11Z</time>
      </trkpt>
      <trkpt lat="47.50992" lon="-2.71059">
        <ele>79</ele>
        <time>2025-05-13T09:18:12Z</time>
      </trkpt>
      <trkpt lat="47.50993" lon="-2.71064">
        <ele>79</ele>
        <time>2025-05-13T09:18:13Z</time>
      </trkpt>
      <trkpt lat="47.50994" lon="-2.71068">
        <ele>79</ele>
        <time>2025-05-13T09:18:14Z</time>
      </trkpt>
      <trkpt lat="47.50995" lon="-2.71073">
        <ele>79</ele>
        <time>2025-05-13T09:18:15Z</time>
      </trkpt>
      <trkpt lat="47.50995" lon="-2.71077">
        <ele>79</ele>
        <time>2025-05-13T09:18:16Z</time>
      </trkpt>
      <trkpt lat="47.50995" lon="-2.71082">
        <ele>79</ele>
        <time>2025-05-13T09:18:17Z</time>
      </trkpt>
      <trkpt lat="47.50996" lon="-2.71087">
        <ele>79</ele>
        <time>2025-05-13T09:18:18Z</time>
      </trkpt>
      <trkpt lat="47.50997" lon="-2.71092">
        <ele>80</ele>
        <time>2025-05-13T09:18:19Z</time>
      </trkpt>
      <trkpt lat="47.50998" lon="-2.71098">
        <ele>79</ele>
        <time>2025-05-13T09:18:20Z</time>
      </trkpt>
      <trkpt lat="47.50999" lon="-2.71104">
        <ele>78</ele>
        <time>2025-05-13T09:18:21Z</time>
      </trkpt>
      <trkpt lat="47.51" lon="-2.7111">
        <ele>78</ele>
        <time>2025-05-13T09:18:22Z</time>
      </trkpt>
      <trkpt lat="47.51001" lon="-2.71115">
        <ele>77</ele>
        <time>2025-05-13T09:18:23Z</time>
      </trkpt>
      <trkpt lat="47.51002" lon="-2.71121">
        <ele>77</ele>
        <time>2025-05-13T09:18:24Z</time>
      </trkpt>
      <trkpt lat="47.51003" lon="-2.71127">
        <ele>76</ele>
        <time>2025-05-13T09:18:25Z</time>
      </trkpt>
      <trkpt lat="47.51005" lon="-2.71133">
        <ele>76</ele>
        <time>2025-05-13T09:18:26Z</time>
      </trkpt>
      <trkpt lat="47.51007" lon="-2.71139">
        <ele>76</ele>
        <time>2025-05-13T09:18:27Z</time>
      </trkpt>
      <trkpt lat="47.51009" lon="-2.71145">
        <ele>75</ele>
        <time>2025-05-13T09:18:28Z</time>
      </trkpt>
      <trkpt lat="47.51011" lon="-2.71152">
        <ele>75</ele>
        <time>2025-05-13T09:18:29Z</time>
      </trkpt>
      <trkpt lat="47.51013" lon="-2.7116">
        <ele>75</ele>
        <time>2025-05-13T09:18:30Z</time>
      </trkpt>
      <trkpt lat="47.51015" lon="-2.71167">
        <ele>75</ele>
        <time>2025-05-13T09:18:31Z</time>
      </trkpt>
      <trkpt lat="47.51017" lon="-2.71174">
        <ele>75</ele>
        <time>2025-05-13T09:18:32Z</time>
      </trkpt>
      <trkpt lat="47.51019" lon="-2.71182">
        <ele>75</ele>
        <time>2025-05-13T09:18:33Z</time>
      </trkpt>
      <trkpt lat="47.51021" lon="-2.71189">
        <ele>74</ele>
        <time>2025-05-13T09:18:34Z</time>
      </trkpt>
      <trkpt lat="47.51023" lon="-2.71197">
        <ele>74</ele>
        <time>2025-05-13T09:18:35Z</time>
      </trkpt>
      <trkpt lat="47.51025" lon="-2.71206">
        <ele>75</ele>
        <time>2025-05-13T09:18:36Z</time>
      </trkpt>
      <trkpt lat="47.51027" lon="-2.71215">
        <ele>75</ele>
        <time>2025-05-13T09:18:37Z</time>
      </trkpt>
      <trkpt lat="47.51029" lon="-2.71224">
        <ele>76</ele>
        <time>2025-05-13T09:18:38Z</time>
      </trkpt>
      <trkpt lat="47.5103" lon="-2.71233">
        <ele>76</ele>
        <time>2025-05-13T09:18:39Z</time>
      </trkpt>
      <trkpt lat="47.51031" lon="-2.71242">
        <ele>76</ele>
        <time>2025-05-13T09:18:40Z</time>
      </trkpt>
      <trkpt lat="47.51032" lon="-2.71251">
        <ele>76</ele>
        <time>2025-05-13T09:18:41Z</time>
      </trkpt>
      <trkpt lat="47.51032" lon="-2.71259">
        <ele>76</ele>
        <time>2025-05-13T09:18:42Z</time>
      </trkpt>
      <trkpt lat="47.51032" lon="-2.71267">
        <ele>76</ele>
        <time>2025-05-13T09:18:43Z</time>
      </trkpt>
      <trkpt lat="47.51032" lon="-2.71274">
        <ele>75</ele>
        <time>2025-05-13T09:18:44Z</time>
      </trkpt>
      <trkpt lat="47.51032" lon="-2.71281">
        <ele>74</ele>
        <time>2025-05-13T09:18:45Z</time>
      </trkpt>
      <trkpt lat="47.51032" lon="-2.71287">
        <ele>74</ele>
        <time>2025-05-13T09:18:46Z</time>
      </trkpt>
      <trkpt lat="47.51032" lon="-2.71293">
        <ele>74</ele>
        <time>2025-05-13T09:18:47Z</time>
      </trkpt>
      <trkpt lat="47.51032" lon="-2.713">
        <ele>73</ele>
        <time>2025-05-13T09:18:48Z</time>
      </trkpt>
      <trkpt lat="47.51031" lon="-2.71307">
        <ele>73</ele>
        <time>2025-05-13T09:18:49Z</time>
      </trkpt>
      <trkpt lat="47.5103" lon="-2.71313">
        <ele>72</ele>
        <time>2025-05-13T09:18:50Z</time>
      </trkpt>
      <trkpt lat="47.5103" lon="-2.71317">
        <ele>72</ele>
        <time>2025-05-13T09:18:51Z</time>
      </trkpt>
      <trkpt lat="47.5103" lon="-2.7132">
        <ele>70</ele>
        <time>2025-05-13T09:18:52Z</time>
      </trkpt>
      <trkpt lat="47.5103" lon="-2.71324">
        <ele>70</ele>
        <time>2025-05-13T09:18:53Z</time>
      </trkpt>
      <trkpt lat="47.51029" lon="-2.71327">
        <ele>69</ele>
        <time>2025-05-13T09:18:54Z</time>
      </trkpt>
      <trkpt lat="47.51027" lon="-2.71331">
        <ele>69</ele>
        <time>2025-05-13T09:18:55Z</time>
      </trkpt>
      <trkpt lat="47.51025" lon="-2.71332">
        <ele>68</ele>
        <time>2025-05-13T09:18:56Z</time>
      </trkpt>
      <trkpt lat="47.51023" lon="-2.71333">
        <ele>69</ele>
        <time>2025-05-13T09:18:57Z</time>
      </trkpt>
      <trkpt lat="47.5102" lon="-2.71334">
        <ele>69</ele>
        <time>2025-05-13T09:18:58Z</time>
      </trkpt>
      <trkpt lat="47.51018" lon="-2.71336">
        <ele>70</ele>
        <time>2025-05-13T09:18:59Z</time>
      </trkpt>
      <trkpt lat="47.51017" lon="-2.71339">
        <ele>70</ele>
        <time>2025-05-13T09:19:00Z</time>
      </trkpt>
      <trkpt lat="47.51015" lon="-2.71343">
        <ele>70</ele>
        <time>2025-05-13T09:19:01Z</time>
      </trkpt>
      <trkpt lat="47.51013" lon="-2.71345">
        <ele>70</ele>
        <time>2025-05-13T09:19:02Z</time>
      </trkpt>
      <trkpt lat="47.51011" lon="-2.71347">
        <ele>70</ele>
        <time>2025-05-13T09:19:03Z</time>
      </trkpt>
      <trkpt lat="47.51009" lon="-2.71348">
        <ele>70</ele>
        <time>2025-05-13T09:19:04Z</time>
      </trkpt>
      <trkpt lat="47.51006" lon="-2.71348">
        <ele>71</ele>
        <time>2025-05-13T09:19:05Z</time>
      </trkpt>
      <trkpt lat="47.51003" lon="-2.71347">
        <ele>71</ele>
        <time>2025-05-13T09:19:06Z</time>
      </trkpt>
      <trkpt lat="47.51" lon="-2.71346">
        <ele>71</ele>
        <time>2025-05-13T09:19:07Z</time>
      </trkpt>
      <trkpt lat="47.50997" lon="-2.71345">
        <ele>72</ele>
        <time>2025-05-13T09:19:08Z</time>
      </trkpt>
      <trkpt lat="47.50994" lon="-2.71345">
        <ele>72</ele>
        <time>2025-05-13T09:19:09Z</time>
      </trkpt>
      <trkpt lat="47.50991" lon="-2.71343">
        <ele>73</ele>
        <time>2025-05-13T09:19:10Z</time>
      </trkpt>
      <trkpt lat="47.50988" lon="-2.71343">
        <ele>73</ele>
        <time>2025-05-13T09:19:11Z</time>
      </trkpt>
      <trkpt lat="47.50986" lon="-2.71342">
        <ele>74</ele>
        <time>2025-05-13T09:19:12Z</time>
      </trkpt>
      <trkpt lat="47.50982" lon="-2.71342">
        <ele>74</ele>
        <time>2025-05-13T09:19:13Z</time>
      </trkpt>
      <trkpt lat="47.50979" lon="-2.71341">
        <ele>73</ele>
        <time>2025-05-13T09:19:14Z</time>
      </trkpt>
      <trkpt lat="47.50976" lon="-2.7134">
        <ele>74</ele>
        <time>2025-05-13T09:19:15Z</time>
      </trkpt>
      <trkpt lat="47.50974" lon="-2.71339">
        <ele>74</ele>
        <time>2025-05-13T09:19:16Z</time>
      </trkpt>
      <trkpt lat="47.50971" lon="-2.71338">
        <ele>75</ele>
        <time>2025-05-13T09:19:17Z</time>
      </trkpt>
      <trkpt lat="47.50968" lon="-2.71338">
        <ele>75</ele>
        <time>2025-05-13T09:19:18Z</time>
      </trkpt>
      <trkpt lat="47.50965" lon="-2.71337">
        <ele>75</ele>
        <time>2025-05-13T09:19:19Z</time>
      </trkpt>
      <trkpt lat="47.50963" lon="-2.71337">
        <ele>75</ele>
        <time>2025-05-13T09:19:20Z</time>
      </trkpt>
      <trkpt lat="47.5096" lon="-2.71337">
        <ele>75</ele>
        <time>2025-05-13T09:19:21Z</time>
      </trkpt>
      <trkpt lat="47.50958" lon="-2.71338">
        <ele>75</ele>
        <time>2025-05-13T09:19:22Z</time>
      </trkpt>
      <trkpt lat="47.50955" lon="-2.71338">
        <ele>74</ele>
        <time>2025-05-13T09:19:23Z</time>
      </trkpt>
      <trkpt lat="47.50952" lon="-2.71338">
        <ele>74</ele>
        <time>2025-05-13T09:19:24Z</time>
      </trkpt>
      <trkpt lat="47.50949" lon="-2.71338">
        <ele>75</ele>
        <time>2025-05-13T09:19:25Z</time>
      </trkpt>
      <trkpt lat="47.50946" lon="-2.71337">
        <ele>75</ele>
        <time>2025-05-13T09:19:26Z</time>
      </trkpt>
      <trkpt lat="47.50944" lon="-2.71335">
        <ele>75</ele>
        <time>2025-05-13T09:19:27Z</time>
      </trkpt>
      <trkpt lat="47.50941" lon="-2.71334">
        <ele>75</ele>
        <time>2025-05-13T09:19:28Z</time>
      </trkpt>
      <trkpt lat="47.50938" lon="-2.71334">
        <ele>75</ele>
        <time>2025-05-13T09:19:29Z</time>
      </trkpt>
      <trkpt lat="47.50935" lon="-2.71335">
        <ele>76</ele>
        <time>2025-05-13T09:19:30Z</time>
      </trkpt>
      <trkpt lat="47.50933" lon="-2.71337">
        <ele>77</ele>
        <time>2025-05-13T09:19:31Z</time>
      </trkpt>
      <trkpt lat="47.50931" lon="-2.7134">
        <ele>77</ele>
        <time>2025-05-13T09:19:32Z</time>
      </trkpt>
      <trkpt lat="47.5093" lon="-2.71343">
        <ele>76</ele>
        <time>2025-05-13T09:19:33Z</time>
      </trkpt>
      <trkpt lat="47.5093" lon="-2.71347">
        <ele>77</ele>
        <time>2025-05-13T09:19:34Z</time>
      </trkpt>
      <trkpt lat="47.5093" lon="-2.71352">
        <ele>76</ele>
        <time>2025-05-13T09:19:35Z</time>
      </trkpt>
      <trkpt lat="47.5093" lon="-2.71358">
        <ele>76</ele>
        <time>2025-05-13T09:19:36Z</time>
      </trkpt>
      <trkpt lat="47.50929" lon="-2.71363">
        <ele>76</ele>
        <time>2025-05-13T09:19:37Z</time>
      </trkpt>
      <trkpt lat="47.50929" lon="-2.7137">
        <ele>76</ele>
        <time>2025-05-13T09:19:38Z</time>
      </trkpt>
      <trkpt lat="47.5093" lon="-2.71377">
        <ele>75</ele>
        <time>2025-05-13T09:19:39Z</time>
      </trkpt>
      <trkpt lat="47.5093" lon="-2.71384">
        <ele>74</ele>
        <time>2025-05-13T09:19:40Z</time>
      </trkpt>
      <trkpt lat="47.5093" lon="-2.71391">
        <ele>73</ele>
        <time>2025-05-13T09:19:41Z</time>
      </trkpt>
      <trkpt lat="47.50931" lon="-2.71399">
        <ele>73</ele>
        <time>2025-05-13T09:19:42Z</time>
      </trkpt>
      <trkpt lat="47.50931" lon="-2.71408">
        <ele>73</ele>
        <time>2025-05-13T09:19:43Z</time>
      </trkpt>
      <trkpt lat="47.50932" lon="-2.71416">
        <ele>73</ele>
        <time>2025-05-13T09:19:44Z</time>
      </trkpt>
      <trkpt lat="47.50932" lon="-2.71425">
        <ele>73</ele>
        <time>2025-05-13T09:19:45Z</time>
      </trkpt>
      <trkpt lat="47.50932" lon="-2.71434">
        <ele>72</ele>
        <time>2025-05-13T09:19:46Z</time>
      </trkpt>
      <trkpt lat="47.50933" lon="-2.71444">
        <ele>72</ele>
        <time>2025-05-13T09:19:47Z</time>
      </trkpt>
      <trkpt lat="47.50932" lon="-2.71453">
        <ele>71</ele>
        <time>2025-05-13T09:19:48Z</time>
      </trkpt>
      <trkpt lat="47.50932" lon="-2.71462">
        <ele>71</ele>
        <time>2025-05-13T09:19:49Z</time>
      </trkpt>
      <trkpt lat="47.50932" lon="-2.71472">
        <ele>70</ele>
        <time>2025-05-13T09:19:50Z</time>
      </trkpt>
      <trkpt lat="47.50931" lon="-2.71481">
        <ele>70</ele>
        <time>2025-05-13T09:19:51Z</time>
      </trkpt>
      <trkpt lat="47.50931" lon="-2.71491">
        <ele>69</ele>
        <time>2025-05-13T09:19:52Z</time>
      </trkpt>
      <trkpt lat="47.5093" lon="-2.71501">
        <ele>68</ele>
        <time>2025-05-13T09:19:53Z</time>
      </trkpt>
      <trkpt lat="47.5093" lon="-2.71512">
        <ele>68</ele>
        <time>2025-05-13T09:19:54Z</time>
      </trkpt>
      <trkpt lat="47.50929" lon="-2.71523">
        <ele>67</ele>
        <time>2025-05-13T09:19:55Z</time>
      </trkpt>
      <trkpt lat="47.50929" lon="-2.71534">
        <ele>67</ele>
        <time>2025-05-13T09:19:56Z</time>
      </trkpt>
      <trkpt lat="47.5093" lon="-2.71544">
        <ele>66</ele>
        <time>2025-05-13T09:19:57Z</time>
      </trkpt>
      <trkpt lat="47.50931" lon="-2.71555">
        <ele>65</ele>
        <time>2025-05-13T09:19:58Z</time>
      </trkpt>
      <trkpt lat="47.50932" lon="-2.71565">
        <ele>64</ele>
        <time>2025-05-13T09:19:59Z</time>
      </trkpt>
      <trkpt lat="47.50933" lon="-2.71576">
        <ele>64</ele>
        <time>2025-05-13T09:20:00Z</time>
      </trkpt>
      <trkpt lat="47.50936" lon="-2.71586">
        <ele>63</ele>
        <time>2025-05-13T09:20:01Z</time>
      </trkpt>
      <trkpt lat="47.50938" lon="-2.71597">
        <ele>62</ele>
        <time>2025-05-13T09:20:02Z</time>
      </trkpt>
      <trkpt lat="47.50942" lon="-2.71608">
        <ele>62</ele>
        <time>2025-05-13T09:20:03Z</time>
      </trkpt>
      <trkpt lat="47.50945" lon="-2.71619">
        <ele>62</ele>
        <time>2025-05-13T09:20:04Z</time>
      </trkpt>
      <trkpt lat="47.50949" lon="-2.71629">
        <ele>61</ele>
        <time>2025-05-13T09:20:05Z</time>
      </trkpt>
      <trkpt lat="47.50952" lon="-2.71642">
        <ele>61</ele>
        <time>2025-05-13T09:20:06Z</time>
      </trkpt>
      <trkpt lat="47.50956" lon="-2.71654">
        <ele>61</ele>
        <time>2025-05-13T09:20:07Z</time>
      </trkpt>
      <trkpt lat="47.50959" lon="-2.71666">
        <ele>61</ele>
        <time>2025-05-13T09:20:08Z</time>
      </trkpt>
      <trkpt lat="47.50962" lon="-2.71676">
        <ele>60</ele>
        <time>2025-05-13T09:20:09Z</time>
      </trkpt>
      <trkpt lat="47.50965" lon="-2.71687">
        <ele>61</ele>
        <time>2025-05-13T09:20:10Z</time>
      </trkpt>
      <trkpt lat="47.50967" lon="-2.71698">
        <ele>61</ele>
        <time>2025-05-13T09:20:11Z</time>
      </trkpt>
      <trkpt lat="47.50969" lon="-2.71708">
        <ele>61</ele>
        <time>2025-05-13T09:20:12Z</time>
      </trkpt>
      <trkpt lat="47.50971" lon="-2.71717">
        <ele>62</ele>
        <time>2025-05-13T09:20:13Z</time>
      </trkpt>
      <trkpt lat="47.50972" lon="-2.71726">
        <ele>61</ele>
        <time>2025-05-13T09:20:14Z</time>
      </trkpt>
      <trkpt lat="47.50973" lon="-2.71735">
        <ele>62</ele>
        <time>2025-05-13T09:20:15Z</time>
      </trkpt>
      <trkpt lat="47.50974" lon="-2.71743">
        <ele>63</ele>
        <time>2025-05-13T09:20:16Z</time>
      </trkpt>
      <trkpt lat="47.50976" lon="-2.71751">
        <ele>65</ele>
        <time>2025-05-13T09:20:17Z</time>
      </trkpt>
      <trkpt lat="47.50977" lon="-2.71759">
        <ele>66</ele>
        <time>2025-05-13T09:20:18Z</time>
      </trkpt>
      <trkpt lat="47.50979" lon="-2.71767">
        <ele>66</ele>
        <time>2025-05-13T09:20:19Z</time>
      </trkpt>
      <trkpt lat="47.5098" lon="-2.71774">
        <ele>66</ele>
        <time>2025-05-13T09:20:20Z</time>
      </trkpt>
      <trkpt lat="47.50981" lon="-2.71782">
        <ele>66</ele>
        <time>2025-05-13T09:20:21Z</time>
      </trkpt>
      <trkpt lat="47.50982" lon="-2.7179">
        <ele>65</ele>
        <time>2025-05-13T09:20:22Z</time>
      </trkpt>
      <trkpt lat="47.50983" lon="-2.71797">
        <ele>65</ele>
        <time>2025-05-13T09:20:23Z</time>
      </trkpt>
      <trkpt lat="47.50985" lon="-2.71805">
        <ele>65</ele>
        <time>2025-05-13T09:20:24Z</time>
      </trkpt>
      <trkpt lat="47.50986" lon="-2.71812">
        <ele>65</ele>
        <time>2025-05-13T09:20:25Z</time>
      </trkpt>
      <trkpt lat="47.50988" lon="-2.71819">
        <ele>63</ele>
        <time>2025-05-13T09:20:26Z</time>
      </trkpt>
      <trkpt lat="47.50989" lon="-2.71827">
        <ele>63</ele>
        <time>2025-05-13T09:20:27Z</time>
      </trkpt>
      <trkpt lat="47.5099" lon="-2.71835">
        <ele>63</ele>
        <time>2025-05-13T09:20:28Z</time>
      </trkpt>
      <trkpt lat="47.50991" lon="-2.71843">
        <ele>62</ele>
        <time>2025-05-13T09:20:29Z</time>
      </trkpt>
      <trkpt lat="47.50992" lon="-2.71851">
        <ele>62</ele>
        <time>2025-05-13T09:20:30Z</time>
      </trkpt>
      <trkpt lat="47.50992" lon="-2.7186">
        <ele>61</ele>
        <time>2025-05-13T09:20:31Z</time>
      </trkpt>
      <trkpt lat="47.50992" lon="-2.71869">
        <ele>62</ele>
        <time>2025-05-13T09:20:32Z</time>
      </trkpt>
      <trkpt lat="47.50992" lon="-2.71877">
        <ele>61</ele>
        <time>2025-05-13T09:20:33Z</time>
      </trkpt>
      <trkpt lat="47.50992" lon="-2.71886">
        <ele>61</ele>
        <time>2025-05-13T09:20:34Z</time>
      </trkpt>
      <trkpt lat="47.50992" lon="-2.71895">
        <ele>61</ele>
        <time>2025-05-13T09:20:35Z</time>
      </trkpt>
      <trkpt lat="47.50991" lon="-2.71905">
        <ele>61</ele>
        <time>2025-05-13T09:20:36Z</time>
      </trkpt>
      <trkpt lat="47.50991" lon="-2.71914">
        <ele>61</ele>
        <time>2025-05-13T09:20:37Z</time>
      </trkpt>
      <trkpt lat="47.5099" lon="-2.71922">
        <ele>60</ele>
        <time>2025-05-13T09:20:38Z</time>
      </trkpt>
      <trkpt lat="47.50989" lon="-2.7193">
        <ele>60</ele>
        <time>2025-05-13T09:20:39Z</time>
      </trkpt>
      <trkpt lat="47.50989" lon="-2.71939">
        <ele>59</ele>
        <time>2025-05-13T09:20:40Z</time>
      </trkpt>
      <trkpt lat="47.50988" lon="-2.71947">
        <ele>59</ele>
        <time>2025-05-13T09:20:41Z</time>
      </trkpt>
      <trkpt lat="47.50988" lon="-2.71954">
        <ele>59</ele>
        <time>2025-05-13T09:20:42Z</time>
      </trkpt>
      <trkpt lat="47.50986" lon="-2.71962">
        <ele>59</ele>
        <time>2025-05-13T09:20:43Z</time>
      </trkpt>
      <trkpt lat="47.50986" lon="-2.7197">
        <ele>58</ele>
        <time>2025-05-13T09:20:44Z</time>
      </trkpt>
      <trkpt lat="47.50985" lon="-2.71977">
        <ele>58</ele>
        <time>2025-05-13T09:20:45Z</time>
      </trkpt>
      <trkpt lat="47.50985" lon="-2.71984">
        <ele>58</ele>
        <time>2025-05-13T09:20:46Z</time>
      </trkpt>
      <trkpt lat="47.50985" lon="-2.71992">
        <ele>58</ele>
        <time>2025-05-13T09:20:47Z</time>
      </trkpt>
      <trkpt lat="47.50985" lon="-2.71999">
        <ele>57</ele>
        <time>2025-05-13T09:20:48Z</time>
      </trkpt>
      <trkpt lat="47.50986" lon="-2.72006">
        <ele>56</ele>
        <time>2025-05-13T09:20:49Z</time>
      </trkpt>
      <trkpt lat="47.50988" lon="-2.7201">
        <ele>56</ele>
        <time>2025-05-13T09:20:50Z</time>
      </trkpt>
      <trkpt lat="47.50992" lon="-2.72013">
        <ele>55</ele>
        <time>2025-05-13T09:20:51Z</time>
      </trkpt>
      <trkpt lat="47.50996" lon="-2.72013">
        <ele>56</ele>
        <time>2025-05-13T09:20:52Z</time>
      </trkpt>
      <trkpt lat="47.51001" lon="-2.72011">
        <ele>55</ele>
        <time>2025-05-13T09:20:53Z</time>
      </trkpt>
      <trkpt lat="47.51006" lon="-2.72009">
        <ele>55</ele>
        <time>2025-05-13T09:20:54Z</time>
      </trkpt>
      <trkpt lat="47.5101" lon="-2.7201">
        <ele>55</ele>
        <time>2025-05-13T09:20:55Z</time>
      </trkpt>
      <trkpt lat="47.51015" lon="-2.72014">
        <ele>54</ele>
        <time>2025-05-13T09:20:56Z</time>
      </trkpt>
      <trkpt lat="47.51019" lon="-2.7202">
        <ele>55</ele>
        <time>2025-05-13T09:20:57Z</time>
      </trkpt>
      <trkpt lat="47.51022" lon="-2.72025">
        <ele>54</ele>
        <time>2025-05-13T09:20:58Z</time>
      </trkpt>
      <trkpt lat="47.51026" lon="-2.72029">
        <ele>55</ele>
        <time>2025-05-13T09:20:59Z</time>
      </trkpt>
      <trkpt lat="47.5103" lon="-2.72034">
        <ele>56</ele>
        <time>2025-05-13T09:21:00Z</time>
      </trkpt>
      <trkpt lat="47.51034" lon="-2.72038">
        <ele>56</ele>
        <time>2025-05-13T09:21:01Z</time>
      </trkpt>
      <trkpt lat="47.51038" lon="-2.72043">
        <ele>57</ele>
        <time>2025-05-13T09:21:02Z</time>
      </trkpt>
      <trkpt lat="47.51042" lon="-2.72047">
        <ele>58</ele>
        <time>2025-05-13T09:21:03Z</time>
      </trkpt>
      <trkpt lat="47.51046" lon="-2.72051">
        <ele>58</ele>
        <time>2025-05-13T09:21:04Z</time>
      </trkpt>
      <trkpt lat="47.51051" lon="-2.72054">
        <ele>58</ele>
        <time>2025-05-13T09:21:05Z</time>
      </trkpt>
      <trkpt lat="47.51054" lon="-2.72057">
        <ele>58</ele>
        <time>2025-05-13T09:21:06Z</time>
      </trkpt>
      <trkpt lat="47.51058" lon="-2.7206">
        <ele>59</ele>
        <time>2025-05-13T09:21:07Z</time>
      </trkpt>
      <trkpt lat="47.51062" lon="-2.72063">
        <ele>58</ele>
        <time>2025-05-13T09:21:08Z</time>
      </trkpt>
      <trkpt lat="47.51066" lon="-2.72066">
        <ele>59</ele>
        <time>2025-05-13T09:21:09Z</time>
      </trkpt>
      <trkpt lat="47.5107" lon="-2.72069">
        <ele>59</ele>
        <time>2025-05-13T09:21:10Z</time>
      </trkpt>
      <trkpt lat="47.51074" lon="-2.72072">
        <ele>60</ele>
        <time>2025-05-13T09:21:11Z</time>
      </trkpt>
      <trkpt lat="47.51078" lon="-2.72074">
        <ele>61</ele>
        <time>2025-05-13T09:21:12Z</time>
      </trkpt>
      <trkpt lat="47.51081" lon="-2.72077">
        <ele>61</ele>
        <time>2025-05-13T09:21:13Z</time>
      </trkpt>
      <trkpt lat="47.51085" lon="-2.7208">
        <ele>62</ele>
        <time>2025-05-13T09:21:14Z</time>
      </trkpt>
      <trkpt lat="47.51088" lon="-2.72082">
        <ele>62</ele>
        <time>2025-05-13T09:21:15Z</time>
      </trkpt>
      <trkpt lat="47.5109" lon="-2.72085">
        <ele>62</ele>
        <time>2025-05-13T09:21:16Z</time>
      </trkpt>
      <trkpt lat="47.51092" lon="-2.72087">
        <ele>63</ele>
        <time>2025-05-13T09:21:17Z</time>
      </trkpt>
      <trkpt lat="47.51094" lon="-2.72089">
        <ele>63</ele>
        <time>2025-05-13T09:21:18Z</time>
      </trkpt>
      <trkpt lat="47.51096" lon="-2.72092">
        <ele>63</ele>
        <time>2025-05-13T09:21:19Z</time>
      </trkpt>
      <trkpt lat="47.51098" lon="-2.72095">
        <ele>63</ele>
        <time>2025-05-13T09:21:20Z</time>
      </trkpt>
      <trkpt lat="47.511" lon="-2.72098">
        <ele>64</ele>
        <time>2025-05-13T09:21:21Z</time>
      </trkpt>
      <trkpt lat="47.51102" lon="-2.72102">
        <ele>64</ele>
        <time>2025-05-13T09:21:22Z</time>
      </trkpt>
      <trkpt lat="47.51103" lon="-2.72107">
        <ele>64</ele>
        <time>2025-05-13T09:21:23Z</time>
      </trkpt>
      <trkpt lat="47.51105" lon="-2.72111">
        <ele>64</ele>
        <time>2025-05-13T09:21:24Z</time>
      </trkpt>
      <trkpt lat="47.51106" lon="-2.72115">
        <ele>63</ele>
        <time>2025-05-13T09:21:25Z</time>
      </trkpt>
      <trkpt lat="47.51108" lon="-2.72119">
        <ele>64</ele>
        <time>2025-05-13T09:21:26Z</time>
      </trkpt>
      <trkpt lat="47.51109" lon="-2.72123">
        <ele>64</ele>
        <time>2025-05-13T09:21:27Z</time>
      </trkpt>
      <trkpt lat="47.51109" lon="-2.72128">
        <ele>64</ele>
        <time>2025-05-13T09:21:28Z</time>
      </trkpt>
      <trkpt lat="47.5111" lon="-2.72133">
        <ele>64</ele>
        <time>2025-05-13T09:21:29Z</time>
      </trkpt>
      <trkpt lat="47.51111" lon="-2.72138">
        <ele>64</ele>
        <time>2025-05-13T09:21:30Z</time>
      </trkpt>
      <trkpt lat="47.51112" lon="-2.72142">
        <ele>64</ele>
        <time>2025-05-13T09:21:31Z</time>
      </trkpt>
      <trkpt lat="47.51113" lon="-2.72147">
        <ele>63</ele>
        <time>2025-05-13T09:21:32Z</time>
      </trkpt>
      <trkpt lat="47.51113" lon="-2.72152">
        <ele>63</ele>
        <time>2025-05-13T09:21:33Z</time>
      </trkpt>
      <trkpt lat="47.51113" lon="-2.72157">
        <ele>63</ele>
        <time>2025-05-13T09:21:34Z</time>
      </trkpt>
      <trkpt lat="47.51114" lon="-2.72162">
        <ele>62</ele>
        <time>2025-05-13T09:21:35Z</time>
      </trkpt>
      <trkpt lat="47.51114" lon="-2.72167">
        <ele>62</ele>
        <time>2025-05-13T09:21:36Z</time>
      </trkpt>
      <trkpt lat="47.51114" lon="-2.72171">
        <ele>63</ele>
        <time>2025-05-13T09:21:37Z</time>
      </trkpt>
      <trkpt lat="47.51114" lon="-2.72176">
        <ele>63</ele>
        <time>2025-05-13T09:21:38Z</time>
      </trkpt>
      <trkpt lat="47.51114" lon="-2.72181">
        <ele>63</ele>
        <time>2025-05-13T09:21:39Z</time>
      </trkpt>
      <trkpt lat="47.51115" lon="-2.72185">
        <ele>63</ele>
        <time>2025-05-13T09:21:40Z</time>
      </trkpt>
      <trkpt lat="47.51115" lon="-2.7219">
        <ele>63</ele>
        <time>2025-05-13T09:21:41Z</time>
      </trkpt>
      <trkpt lat="47.51115" lon="-2.72195">
        <ele>63</ele>
        <time>2025-05-13T09:21:42Z</time>
      </trkpt>
      <trkpt lat="47.51116" lon="-2.722">
        <ele>63</ele>
        <time>2025-05-13T09:21:43Z</time>
      </trkpt>
      <trkpt lat="47.51117" lon="-2.72205">
        <ele>63</ele>
        <time>2025-05-13T09:21:44Z</time>
      </trkpt>
      <trkpt lat="47.51117" lon="-2.72211">
        <ele>63</ele>
        <time>2025-05-13T09:21:45Z</time>
      </trkpt>
      <trkpt lat="47.51117" lon="-2.72217">
        <ele>62</ele>
        <time>2025-05-13T09:21:46Z</time>
      </trkpt>
      <trkpt lat="47.51117" lon="-2.72223">
        <ele>62</ele>
        <time>2025-05-13T09:21:47Z</time>
      </trkpt>
      <trkpt lat="47.51117" lon="-2.72229">
        <ele>62</ele>
        <time>2025-05-13T09:21:48Z</time>
      </trkpt>
      <trkpt lat="47.51117" lon="-2.72235">
        <ele>62</ele>
        <time>2025-05-13T09:21:49Z</time>
      </trkpt>
      <trkpt lat="47.51117" lon="-2.7224">
        <ele>61</ele>
        <time>2025-05-13T09:21:50Z</time>
      </trkpt>
      <trkpt lat="47.51117" lon="-2.72245">
        <ele>61</ele>
        <time>2025-05-13T09:21:51Z</time>
      </trkpt>
      <trkpt lat="47.51117" lon="-2.72251">
        <ele>61</ele>
        <time>2025-05-13T09:21:52Z</time>
      </trkpt>
      <trkpt lat="47.51118" lon="-2.72256">
        <ele>61</ele>
        <time>2025-05-13T09:21:53Z</time>
      </trkpt>
      <trkpt lat="47.51117" lon="-2.72262">
        <ele>60</ele>
        <time>2025-05-13T09:21:54Z</time>
      </trkpt>
      <trkpt lat="47.51117" lon="-2.72267">
        <ele>60</ele>
        <time>2025-05-13T09:21:55Z</time>
      </trkpt>
      <trkpt lat="47.51118" lon="-2.72271">
        <ele>60</ele>
        <time>2025-05-13T09:21:56Z</time>
      </trkpt>
      <trkpt lat="47.51118" lon="-2.72276">
        <ele>60</ele>
        <time>2025-05-13T09:21:57Z</time>
      </trkpt>
      <trkpt lat="47.51118" lon="-2.7228">
        <ele>60</ele>
        <time>2025-05-13T09:21:58Z</time>
      </trkpt>
      <trkpt lat="47.51119" lon="-2.72285">
        <ele>61</ele>
        <time>2025-05-13T09:21:59Z</time>
      </trkpt>
      <trkpt lat="47.51119" lon="-2.7229">
        <ele>61</ele>
        <time>2025-05-13T09:22:00Z</time>
      </trkpt>
      <trkpt lat="47.5112" lon="-2.72296">
        <ele>61</ele>
        <time>2025-05-13T09:22:01Z</time>
      </trkpt>
      <trkpt lat="47.51121" lon="-2.72301">
        <ele>60</ele>
        <time>2025-05-13T09:22:02Z</time>
      </trkpt>
      <trkpt lat="47.51122" lon="-2.72307">
        <ele>60</ele>
        <time>2025-05-13T09:22:03Z</time>
      </trkpt>
      <trkpt lat="47.51123" lon="-2.72312">
        <ele>60</ele>
        <time>2025-05-13T09:22:04Z</time>
      </trkpt>
      <trkpt lat="47.51125" lon="-2.72318">
        <ele>59</ele>
        <time>2025-05-13T09:22:05Z</time>
      </trkpt>
      <trkpt lat="47.51126" lon="-2.72324">
        <ele>59</ele>
        <time>2025-05-13T09:22:06Z</time>
      </trkpt>
      <trkpt lat="47.51127" lon="-2.72331">
        <ele>58</ele>
        <time>2025-05-13T09:22:07Z</time>
      </trkpt>
      <trkpt lat="47.51128" lon="-2.72337">
        <ele>58</ele>
        <time>2025-05-13T09:22:08Z</time>
      </trkpt>
      <trkpt lat="47.5113" lon="-2.72344">
        <ele>58</ele>
        <time>2025-05-13T09:22:09Z</time>
      </trkpt>
      <trkpt lat="47.51131" lon="-2.72349">
        <ele>58</ele>
        <time>2025-05-13T09:22:10Z</time>
      </trkpt>
      <trkpt lat="47.51132" lon="-2.72356">
        <ele>58</ele>
        <time>2025-05-13T09:22:11Z</time>
      </trkpt>
      <trkpt lat="47.51133" lon="-2.72362">
        <ele>58</ele>
        <time>2025-05-13T09:22:12Z</time>
      </trkpt>
      <trkpt lat="47.51134" lon="-2.72368">
        <ele>58</ele>
        <time>2025-05-13T09:22:13Z</time>
      </trkpt>
      <trkpt lat="47.51135" lon="-2.72375">
        <ele>59</ele>
        <time>2025-05-13T09:22:14Z</time>
      </trkpt>
      <trkpt lat="47.51136" lon="-2.72381">
        <ele>59</ele>
        <time>2025-05-13T09:22:15Z</time>
      </trkpt>
      <trkpt lat="47.51138" lon="-2.72387">
        <ele>60</ele>
        <time>2025-05-13T09:22:16Z</time>
      </trkpt>
      <trkpt lat="47.51139" lon="-2.72393">
        <ele>59</ele>
        <time>2025-05-13T09:22:17Z</time>
      </trkpt>
      <trkpt lat="47.51141" lon="-2.72399">
        <ele>60</ele>
        <time>2025-05-13T09:22:18Z</time>
      </trkpt>
      <trkpt lat="47.51143" lon="-2.72405">
        <ele>60</ele>
        <time>2025-05-13T09:22:19Z</time>
      </trkpt>
      <trkpt lat="47.51143" lon="-2.72411">
        <ele>61</ele>
        <time>2025-05-13T09:22:20Z</time>
      </trkpt>
      <trkpt lat="47.51144" lon="-2.72417">
        <ele>61</ele>
        <time>2025-05-13T09:22:21Z</time>
      </trkpt>
      <trkpt lat="47.51144" lon="-2.72424">
        <ele>60</ele>
        <time>2025-05-13T09:22:22Z</time>
      </trkpt>
      <trkpt lat="47.51144" lon="-2.72431">
        <ele>60</ele>
        <time>2025-05-13T09:22:23Z</time>
      </trkpt>
      <trkpt lat="47.51145" lon="-2.72438">
        <ele>61</ele>
        <time>2025-05-13T09:22:24Z</time>
      </trkpt>
      <trkpt lat="47.51146" lon="-2.72445">
        <ele>61</ele>
        <time>2025-05-13T09:22:25Z</time>
      </trkpt>
      <trkpt lat="47.51146" lon="-2.72452">
        <ele>61</ele>
        <time>2025-05-13T09:22:26Z</time>
      </trkpt>
      <trkpt lat="47.51147" lon="-2.7246">
        <ele>61</ele>
        <time>2025-05-13T09:22:27Z</time>
      </trkpt>
      <trkpt lat="47.51148" lon="-2.72468">
        <ele>61</ele>
        <time>2025-05-13T09:22:28Z</time>
      </trkpt>
      <trkpt lat="47.51148" lon="-2.72476">
        <ele>61</ele>
        <time>2025-05-13T09:22:29Z</time>
      </trkpt>
      <trkpt lat="47.51149" lon="-2.72484">
        <ele>60</ele>
        <time>2025-05-13T09:22:30Z</time>
      </trkpt>
      <trkpt lat="47.51149" lon="-2.72492">
        <ele>59</ele>
        <time>2025-05-13T09:22:31Z</time>
      </trkpt>
      <trkpt lat="47.51149" lon="-2.725">
        <ele>59</ele>
        <time>2025-05-13T09:22:32Z</time>
      </trkpt>
      <trkpt lat="47.5115" lon="-2.7251">
        <ele>59</ele>
        <time>2025-05-13T09:22:33Z</time>
      </trkpt>
      <trkpt lat="47.5115" lon="-2.72519">
        <ele>58</ele>
        <time>2025-05-13T09:22:34Z</time>
      </trkpt>
      <trkpt lat="47.51151" lon="-2.72528">
        <ele>57</ele>
        <time>2025-05-13T09:22:35Z</time>
      </trkpt>
      <trkpt lat="47.51151" lon="-2.72538">
        <ele>57</ele>
        <time>2025-05-13T09:22:36Z</time>
      </trkpt>
      <trkpt lat="47.51151" lon="-2.72548">
        <ele>57</ele>
        <time>2025-05-13T09:22:37Z</time>
      </trkpt>
      <trkpt lat="47.51152" lon="-2.72558">
        <ele>56</ele>
        <time>2025-05-13T09:22:38Z</time>
      </trkpt>
      <trkpt lat="47.51152" lon="-2.72567">
        <ele>55</ele>
        <time>2025-05-13T09:22:39Z</time>
      </trkpt>
      <trkpt lat="47.51153" lon="-2.72577">
        <ele>56</ele>
        <time>2025-05-13T09:22:40Z</time>
      </trkpt>
      <trkpt lat="47.51153" lon="-2.72588">
        <ele>55</ele>
        <time>2025-05-13T09:22:41Z</time>
      </trkpt>
      <trkpt lat="47.51154" lon="-2.72598">
        <ele>55</ele>
        <time>2025-05-13T09:22:42Z</time>
      </trkpt>
      <trkpt lat="47.51154" lon="-2.72609">
        <ele>54</ele>
        <time>2025-05-13T09:22:43Z</time>
      </trkpt>
      <trkpt lat="47.51155" lon="-2.7262">
        <ele>55</ele>
        <time>2025-05-13T09:22:44Z</time>
      </trkpt>
      <trkpt lat="47.51155" lon="-2.72631">
        <ele>56</ele>
        <time>2025-05-13T09:22:45Z</time>
      </trkpt>
      <trkpt lat="47.51156" lon="-2.72642">
        <ele>55</ele>
        <time>2025-05-13T09:22:46Z</time>
      </trkpt>
      <trkpt lat="47.51156" lon="-2.72654">
        <ele>55</ele>
        <time>2025-05-13T09:22:47Z</time>
      </trkpt>
      <trkpt lat="47.51157" lon="-2.72665">
        <ele>55</ele>
        <time>2025-05-13T09:22:48Z</time>
      </trkpt>
      <trkpt lat="47.51157" lon="-2.72676">
        <ele>55</ele>
        <time>2025-05-13T09:22:49Z</time>
      </trkpt>
      <trkpt lat="47.51158" lon="-2.72687">
        <ele>55</ele>
        <time>2025-05-13T09:22:50Z</time>
      </trkpt>
      <trkpt lat="47.51159" lon="-2.72697">
        <ele>54</ele>
        <time>2025-05-13T09:22:51Z</time>
      </trkpt>
      <trkpt lat="47.5116" lon="-2.72708">
        <ele>54</ele>
        <time>2025-05-13T09:22:52Z</time>
      </trkpt>
      <trkpt lat="47.51161" lon="-2.72718">
        <ele>54</ele>
        <time>2025-05-13T09:22:53Z</time>
      </trkpt>
      <trkpt lat="47.51162" lon="-2.72727">
        <ele>54</ele>
        <time>2025-05-13T09:22:54Z</time>
      </trkpt>
      <trkpt lat="47.51162" lon="-2.72734">
        <ele>54</ele>
        <time>2025-05-13T09:22:55Z</time>
      </trkpt>
      <trkpt lat="47.51163" lon="-2.72739">
        <ele>55</ele>
        <time>2025-05-13T09:22:56Z</time>
      </trkpt>
      <trkpt lat="47.51163" lon="-2.72742">
        <ele>55</ele>
        <time>2025-05-13T09:22:57Z</time>
      </trkpt>
      <trkpt lat="47.51164" lon="-2.72743">
        <ele>56</ele>
        <time>2025-05-13T09:22:58Z</time>
      </trkpt>
      <trkpt lat="47.51164" lon="-2.72744">
        <ele>56</ele>
        <time>2025-05-13T09:22:59Z</time>
      </trkpt>
      <trkpt lat="47.51164" lon="-2.72745">
        <ele>56</ele>
        <time>2025-05-13T09:23:00Z</time>
      </trkpt>
      <trkpt lat="47.51164" lon="-2.72745">
        <ele>56</ele>
        <time>2025-05-13T09:23:01Z</time>
      </trkpt>
      <trkpt lat="47.51164" lon="-2.72745">
        <ele>56</ele>
        <time>2025-05-13T09:23:02Z</time>
      </trkpt>
      <trkpt lat="47.51164" lon="-2.72745">
        <ele>56</ele>
        <time>2025-05-13T09:23:03Z</time>
      </trkpt>
      <trkpt lat="47.51164" lon="-2.72745">
        <ele>56</ele>
        <time>2025-05-13T09:23:04Z</time>
      </trkpt>
      <trkpt lat="47.51164" lon="-2.72745">
        <ele>56</ele>
        <time>2025-05-13T09:23:05Z</time>
      </trkpt>
      <trkpt lat="47.51164" lon="-2.72745">
        <ele>56</ele>
        <time>2025-05-13T09:23:06Z</time>
      </trkpt>
      <trkpt lat="47.51164" lon="-2.72745">
        <ele>56</ele>
        <time>2025-05-13T09:23:07Z</time>
      </trkpt>
      <trkpt lat="47.51164" lon="-2.72745">
        <ele>56</ele>
        <time>2025-05-13T09:23:08Z</time>
      </trkpt>
      <trkpt lat="47.51164" lon="-2.72745">
        <ele>56</ele>
        <time>2025-05-13T09:23:09Z</time>
      </trkpt>
      <trkpt lat="47.51164" lon="-2.72744">
        <ele>56</ele>
        <time>2025-05-13T09:23:10Z</time>
      </trkpt>
      <trkpt lat="47.51164" lon="-2.72744">
        <ele>56</ele>
        <time>2025-05-13T09:23:11Z</time>
      </trkpt>
      <trkpt lat="47.51164" lon="-2.72744">
        <ele>56</ele>
        <time>2025-05-13T09:23:12Z</time>
      </trkpt>
      <trkpt lat="47.51164" lon="-2.72744">
        <ele>56</ele>
        <time>2025-05-13T09:23:13Z</time>
      </trkpt>
      <trkpt lat="47.51164" lon="-2.72744">
        <ele>56</ele>
        <time>2025-05-13T09:23:14Z</time>
      </trkpt>
      <trkpt lat="47.51164" lon="-2.72744">
        <ele>56</ele>
        <time>2025-05-13T09:23:15Z</time>
      </trkpt>
      <trkpt lat="47.51164" lon="-2.72744">
        <ele>56</ele>
        <time>2025-05-13T09:23:16Z</time>
      </trkpt>
      <trkpt lat="47.51164" lon="-2.72744">
        <ele>56</ele>
        <time>2025-05-13T09:23:17Z</time>
      </trkpt>
      <trkpt lat="47.51164" lon="-2.72744">
        <ele>56</ele>
        <time>2025-05-13T09:23:18Z</time>
      </trkpt>
      <trkpt lat="47.51164" lon="-2.72744">
        <ele>56</ele>
        <time>2025-05-13T09:23:19Z</time>
      </trkpt>
      <trkpt lat="47.51164" lon="-2.72744">
        <ele>56</ele>
        <time>2025-05-13T09:23:20Z</time>
      </trkpt>
      <trkpt lat="47.51164" lon="-2.72744">
        <ele>56</ele>
        <time>2025-05-13T09:23:21Z</time>
      </trkpt>
      <trkpt lat="47.51164" lon="-2.72744">
        <ele>56</ele>
        <time>2025-05-13T09:23:22Z</time>
      </trkpt>
      <trkpt lat="47.51164" lon="-2.72744">
        <ele>56</ele>
        <time>2025-05-13T09:23:23Z</time>
      </trkpt>
      <trkpt lat="47.51164" lon="-2.72744">
        <ele>56</ele>
        <time>2025-05-13T09:23:24Z</time>
      </trkpt>
      <trkpt lat="47.51164" lon="-2.72744">
        <ele>56</ele>
        <time>2025-05-13T09:23:25Z</time>
      </trkpt>
      <trkpt lat="47.51164" lon="-2.72744">
        <ele>56</ele>
        <time>2025-05-13T09:23:26Z</time>
      </trkpt>
      <trkpt lat="47.51164" lon="-2.72744">
        <ele>56</ele>
        <time>2025-05-13T09:23:27Z</time>
      </trkpt>
      <trkpt lat="47.51164" lon="-2.72744">
        <ele>56</ele>
        <time>2025-05-13T09:23:28Z</time>
      </trkpt>
      <trkpt lat="47.51164" lon="-2.72744">
        <ele>56</ele>
        <time>2025-05-13T09:23:29Z</time>
      </trkpt>
      <trkpt lat="47.51164" lon="-2.72744">
        <ele>56</ele>
        <time>2025-05-13T09:23:30Z</time>
      </trkpt>
      <trkpt lat="47.51164" lon="-2.72744">
        <ele>56</ele>
        <time>2025-05-13T09:23:31Z</time>
      </trkpt>
      <trkpt lat="47.51164" lon="-2.72744">
        <ele>56</ele>
        <time>2025-05-13T09:23:32Z</time>
      </trkpt>
      <trkpt lat="47.51164" lon="-2.72744">
        <ele>56</ele>
        <time>2025-05-13T09:23:33Z</time>
      </trkpt>
      <trkpt lat="47.51164" lon="-2.72744">
        <ele>56</ele>
        <time>2025-05-13T09:23:34Z</time>
      </trkpt>
      <trkpt lat="47.51164" lon="-2.72744">
        <ele>56</ele>
        <time>2025-05-13T09:23:35Z</time>
      </trkpt>
      <trkpt lat="47.51164" lon="-2.72744">
        <ele>56</ele>
        <time>2025-05-13T09:23:36Z</time>
      </trkpt>
      <trkpt lat="47.51164" lon="-2.72744">
        <ele>56</ele>
        <time>2025-05-13T09:23:37Z</time>
      </trkpt>
      <trkpt lat="47.51164" lon="-2.72744">
        <ele>56</ele>
        <time>2025-05-13T09:23:38Z</time>
      </trkpt>
      <trkpt lat="47.51164" lon="-2.72744">
        <ele>56</ele>
        <time>2025-05-13T09:23:39Z</time>
      </trkpt>
      <trkpt lat="47.51164" lon="-2.72744">
        <ele>56</ele>
        <time>2025-05-13T09:23:40Z</time>
      </trkpt>
      <trkpt lat="47.51164" lon="-2.72744">
        <ele>56</ele>
        <time>2025-05-13T09:23:41Z</time>
      </trkpt>
      <trkpt lat="47.51164" lon="-2.72744">
        <ele>56</ele>
        <time>2025-05-13T09:23:42Z</time>
      </trkpt>
      <trkpt lat="47.51164" lon="-2.72744">
        <ele>56</ele>
        <time>2025-05-13T09:23:43Z</time>
      </trkpt>
      <trkpt lat="47.51164" lon="-2.72744">
        <ele>56</ele>
        <time>2025-05-13T09:23:44Z</time>
      </trkpt>
      <trkpt lat="47.51164" lon="-2.72744">
        <ele>56</ele>
        <time>2025-05-13T09:23:45Z</time>
      </trkpt>
      <trkpt lat="47.51164" lon="-2.72744">
        <ele>56</ele>
        <time>2025-05-13T09:23:46Z</time>
      </trkpt>
      <trkpt lat="47.51164" lon="-2.72744">
        <ele>56</ele>
        <time>2025-05-13T09:23:47Z</time>
      </trkpt>
      <trkpt lat="47.51164" lon="-2.72744">
        <ele>56</ele>
        <time>2025-05-13T09:23:48Z</time>
      </trkpt>
      <trkpt lat="47.51164" lon="-2.72744">
        <ele>56</ele>
        <time>2025-05-13T09:23:49Z</time>
      </trkpt>
      <trkpt lat="47.51164" lon="-2.72744">
        <ele>56</ele>
        <time>2025-05-13T09:23:50Z</time>
      </trkpt>
      <trkpt lat="47.51164" lon="-2.72744">
        <ele>56</ele>
        <time>2025-05-13T09:23:51Z</time>
      </trkpt>
      <trkpt lat="47.51164" lon="-2.72744">
        <ele>56</ele>
        <time>2025-05-13T09:23:52Z</time>
      </trkpt>
      <trkpt lat="47.51164" lon="-2.72744">
        <ele>56</ele>
        <time>2025-05-13T09:23:53Z</time>
      </trkpt>
      <trkpt lat="47.51164" lon="-2.72744">
        <ele>56</ele>
        <time>2025-05-13T09:23:54Z</time>
      </trkpt>
      <trkpt lat="47.51164" lon="-2.72744">
        <ele>56</ele>
        <time>2025-05-13T09:23:55Z</time>
      </trkpt>
      <trkpt lat="47.51164" lon="-2.72744">
        <ele>56</ele>
        <time>2025-05-13T09:23:56Z</time>
      </trkpt>
      <trkpt lat="47.51164" lon="-2.72744">
        <ele>56</ele>
        <time>2025-05-13T09:23:57Z</time>
      </trkpt>
      <trkpt lat="47.51164" lon="-2.72744">
        <ele>56</ele>
        <time>2025-05-13T09:23:58Z</time>
      </trkpt>
      <trkpt lat="47.51164" lon="-2.72744">
        <ele>56</ele>
        <time>2025-05-13T09:23:59Z</time>
      </trkpt>
      <trkpt lat="47.51164" lon="-2.72744">
        <ele>56</ele>
        <time>2025-05-13T09:24:00Z</time>
      </trkpt>
      <trkpt lat="47.51164" lon="-2.72744">
        <ele>56</ele>
        <time>2025-05-13T09:24:01Z</time>
      </trkpt>
      <trkpt lat="47.51164" lon="-2.72744">
        <ele>56</ele>
        <time>2025-05-13T09:24:02Z</time>
      </trkpt>
      <trkpt lat="47.51164" lon="-2.72744">
        <ele>56</ele>
        <time>2025-05-13T09:24:03Z</time>
      </trkpt>
      <trkpt lat="47.51164" lon="-2.72744">
        <ele>56</ele>
        <time>2025-05-13T09:24:04Z</time>
      </trkpt>
      <trkpt lat="47.51164" lon="-2.72744">
        <ele>56</ele>
        <time>2025-05-13T09:24:05Z</time>
      </trkpt>
      <trkpt lat="47.51164" lon="-2.72744">
        <ele>56</ele>
        <time>2025-05-13T09:24:06Z</time>
      </trkpt>
      <trkpt lat="47.51164" lon="-2.72744">
        <ele>56</ele>
        <time>2025-05-13T09:24:07Z</time>
      </trkpt>
      <trkpt lat="47.51164" lon="-2.72744">
        <ele>56</ele>
        <time>2025-05-13T09:24:08Z</time>
      </trkpt>
      <trkpt lat="47.51164" lon="-2.72744">
        <ele>56</ele>
        <time>2025-05-13T09:24:09Z</time>
      </trkpt>
      <trkpt lat="47.51164" lon="-2.72744">
        <ele>56</ele>
        <time>2025-05-13T09:24:10Z</time>
      </trkpt>
      <trkpt lat="47.51164" lon="-2.72744">
        <ele>56</ele>
        <time>2025-05-13T09:24:11Z</time>
      </trkpt>
      <trkpt lat="47.51164" lon="-2.72744">
        <ele>56</ele>
        <time>2025-05-13T09:24:12Z</time>
      </trkpt>
      <trkpt lat="47.51164" lon="-2.72744">
        <ele>56</ele>
        <time>2025-05-13T09:24:13Z</time>
      </trkpt>
      <trkpt lat="47.51164" lon="-2.72744">
        <ele>56</ele>
        <time>2025-05-13T09:24:14Z</time>
      </trkpt>
      <trkpt lat="47.51164" lon="-2.72744">
        <ele>56</ele>
        <time>2025-05-13T09:24:15Z</time>
      </trkpt>
      <trkpt lat="47.51164" lon="-2.72744">
        <ele>56</ele>
        <time>2025-05-13T09:24:16Z</time>
      </trkpt>
      <trkpt lat="47.51164" lon="-2.72744">
        <ele>56</ele>
        <time>2025-05-13T09:24:17Z</time>
      </trkpt>
      <trkpt lat="47.51164" lon="-2.72744">
        <ele>56</ele>
        <time>2025-05-13T09:24:18Z</time>
      </trkpt>
      <trkpt lat="47.51164" lon="-2.72744">
        <ele>56</ele>
        <time>2025-05-13T09:24:19Z</time>
      </trkpt>
      <trkpt lat="47.51164" lon="-2.72744">
        <ele>56</ele>
        <time>2025-05-13T09:24:20Z</time>
      </trkpt>
      <trkpt lat="47.51164" lon="-2.72744">
        <ele>56</ele>
        <time>2025-05-13T09:24:43Z</time>
      </trkpt>
      <trkpt lat="47.51164" lon="-2.72744">
        <ele>56</ele>
        <time>2025-05-13T09:24:44Z</time>
      </trkpt>
      <trkpt lat="47.51164" lon="-2.72744">
        <ele>56</ele>
        <time>2025-05-13T09:24:45Z</time>
      </trkpt>
      <trkpt lat="47.51164" lon="-2.72744">
        <ele>56</ele>
        <time>2025-05-13T09:24:46Z</time>
      </trkpt>
      <trkpt lat="47.51162" lon="-2.72745">
        <ele>55</ele>
        <time>2025-05-13T09:24:47Z</time>
      </trkpt>
      <trkpt lat="47.51162" lon="-2.72748">
        <ele>55</ele>
        <time>2025-05-13T09:24:48Z</time>
      </trkpt>
      <trkpt lat="47.51162" lon="-2.72751">
        <ele>56</ele>
        <time>2025-05-13T09:24:49Z</time>
      </trkpt>
      <trkpt lat="47.51162" lon="-2.72754">
        <ele>56</ele>
        <time>2025-05-13T09:24:50Z</time>
      </trkpt>
      <trkpt lat="47.51162" lon="-2.72758">
        <ele>56</ele>
        <time>2025-05-13T09:24:51Z</time>
      </trkpt>
      <trkpt lat="47.51162" lon="-2.72762">
        <ele>56</ele>
        <time>2025-05-13T09:24:52Z</time>
      </trkpt>
      <trkpt lat="47.51162" lon="-2.72767">
        <ele>56</ele>
        <time>2025-05-13T09:24:53Z</time>
      </trkpt>
      <trkpt lat="47.51162" lon="-2.72772">
        <ele>56</ele>
        <time>2025-05-13T09:24:54Z</time>
      </trkpt>
      <trkpt lat="47.51162" lon="-2.72777">
        <ele>55</ele>
        <time>2025-05-13T09:24:55Z</time>
      </trkpt>
      <trkpt lat="47.51161" lon="-2.72783">
        <ele>55</ele>
        <time>2025-05-13T09:24:56Z</time>
      </trkpt>
      <trkpt lat="47.51161" lon="-2.72788">
        <ele>55</ele>
        <time>2025-05-13T09:24:57Z</time>
      </trkpt>
      <trkpt lat="47.5116" lon="-2.72793">
        <ele>55</ele>
        <time>2025-05-13T09:24:58Z</time>
      </trkpt>
      <trkpt lat="47.5116" lon="-2.72799">
        <ele>55</ele>
        <time>2025-05-13T09:24:59Z</time>
      </trkpt>
      <trkpt lat="47.51159" lon="-2.72805">
        <ele>55</ele>
        <time>2025-05-13T09:25:00Z</time>
      </trkpt>
      <trkpt lat="47.51159" lon="-2.72811">
        <ele>55</ele>
        <time>2025-05-13T09:25:01Z</time>
      </trkpt>
      <trkpt lat="47.51159" lon="-2.72818">
        <ele>55</ele>
        <time>2025-05-13T09:25:02Z</time>
      </trkpt>
      <trkpt lat="47.51159" lon="-2.72824">
        <ele>55</ele>
        <time>2025-05-13T09:25:03Z</time>
      </trkpt>
      <trkpt lat="47.51158" lon="-2.7283">
        <ele>55</ele>
        <time>2025-05-13T09:25:04Z</time>
      </trkpt>
      <trkpt lat="47.51158" lon="-2.72837">
        <ele>55</ele>
        <time>2025-05-13T09:25:05Z</time>
      </trkpt>
      <trkpt lat="47.51158" lon="-2.72843">
        <ele>56</ele>
        <time>2025-05-13T09:25:06Z</time>
      </trkpt>
      <trkpt lat="47.51157" lon="-2.72849">
        <ele>56</ele>
        <time>2025-05-13T09:25:07Z</time>
      </trkpt>
      <trkpt lat="47.51158" lon="-2.72855">
        <ele>56</ele>
        <time>2025-05-13T09:25:08Z</time>
      </trkpt>
      <trkpt lat="47.51158" lon="-2.7286">
        <ele>56</ele>
        <time>2025-05-13T09:25:09Z</time>
      </trkpt>
      <trkpt lat="47.51159" lon="-2.72865">
        <ele>57</ele>
        <time>2025-05-13T09:25:10Z</time>
      </trkpt>
      <trkpt lat="47.51159" lon="-2.72871">
        <ele>57</ele>
        <time>2025-05-13T09:25:11Z</time>
      </trkpt>
      <trkpt lat="47.5116" lon="-2.72878">
        <ele>57</ele>
        <time>2025-05-13T09:25:12Z</time>
      </trkpt>
      <trkpt lat="47.51161" lon="-2.72884">
        <ele>57</ele>
        <time>2025-05-13T09:25:13Z</time>
      </trkpt>
      <trkpt lat="47.51162" lon="-2.72889">
        <ele>57</ele>
        <time>2025-05-13T09:25:14Z</time>
      </trkpt>
      <trkpt lat="47.51163" lon="-2.72894">
        <ele>57</ele>
        <time>2025-05-13T09:25:15Z</time>
      </trkpt>
      <trkpt lat="47.51163" lon="-2.72899">
        <ele>57</ele>
        <time>2025-05-13T09:25:16Z</time>
      </trkpt>
      <trkpt lat="47.51164" lon="-2.72903">
        <ele>58</ele>
        <time>2025-05-13T09:25:17Z</time>
      </trkpt>
      <trkpt lat="47.51164" lon="-2.72906">
        <ele>58</ele>
        <time>2025-05-13T09:25:18Z</time>
      </trkpt>
      <trkpt lat="47.51164" lon="-2.72909">
        <ele>59</ele>
        <time>2025-05-13T09:25:19Z</time>
      </trkpt>
      <trkpt lat="47.51163" lon="-2.72912">
        <ele>59</ele>
        <time>2025-05-13T09:25:20Z</time>
      </trkpt>
      <trkpt lat="47.51162" lon="-2.72915">
        <ele>59</ele>
        <time>2025-05-13T09:25:21Z</time>
      </trkpt>
      <trkpt lat="47.51161" lon="-2.72917">
        <ele>59</ele>
        <time>2025-05-13T09:25:22Z</time>
      </trkpt>
      <trkpt lat="47.51159" lon="-2.7292">
        <ele>59</ele>
        <time>2025-05-13T09:25:23Z</time>
      </trkpt>
      <trkpt lat="47.51158" lon="-2.72923">
        <ele>59</ele>
        <time>2025-05-13T09:25:24Z</time>
      </trkpt>
      <trkpt lat="47.51156" lon="-2.72925">
        <ele>58</ele>
        <time>2025-05-13T09:25:25Z</time>
      </trkpt>
      <trkpt lat="47.51155" lon="-2.72928">
        <ele>58</ele>
        <time>2025-05-13T09:25:26Z</time>
      </trkpt>
      <trkpt lat="47.51153" lon="-2.7293">
        <ele>59</ele>
        <time>2025-05-13T09:25:27Z</time>
      </trkpt>
      <trkpt lat="47.51151" lon="-2.72932">
        <ele>59</ele>
        <time>2025-05-13T09:25:28Z</time>
      </trkpt>
      <trkpt lat="47.5115" lon="-2.72933">
        <ele>60</ele>
        <time>2025-05-13T09:25:29Z</time>
      </trkpt>
      <trkpt lat="47.51148" lon="-2.72935">
        <ele>61</ele>
        <time>2025-05-13T09:25:30Z</time>
      </trkpt>
      <trkpt lat="47.51147" lon="-2.72937">
        <ele>61</ele>
        <time>2025-05-13T09:25:31Z</time>
      </trkpt>
      <trkpt lat="47.51145" lon="-2.72939">
        <ele>61</ele>
        <time>2025-05-13T09:25:32Z</time>
      </trkpt>
      <trkpt lat="47.51143" lon="-2.7294">
        <ele>61</ele>
        <time>2025-05-13T09:25:33Z</time>
      </trkpt>
      <trkpt lat="47.51141" lon="-2.72941">
        <ele>61</ele>
        <time>2025-05-13T09:25:34Z</time>
      </trkpt>
      <trkpt lat="47.51139" lon="-2.72942">
        <ele>62</ele>
        <time>2025-05-13T09:25:35Z</time>
      </trkpt>
      <trkpt lat="47.51137" lon="-2.72943">
        <ele>63</ele>
        <time>2025-05-13T09:25:36Z</time>
      </trkpt>
      <trkpt lat="47.51135" lon="-2.72944">
        <ele>63</ele>
        <time>2025-05-13T09:25:37Z</time>
      </trkpt>
      <trkpt lat="47.51133" lon="-2.72945">
        <ele>63</ele>
        <time>2025-05-13T09:25:38Z</time>
      </trkpt>
      <trkpt lat="47.51131" lon="-2.72947">
        <ele>63</ele>
        <time>2025-05-13T09:25:39Z</time>
      </trkpt>
      <trkpt lat="47.51129" lon="-2.72949">
        <ele>63</ele>
        <time>2025-05-13T09:25:40Z</time>
      </trkpt>
      <trkpt lat="47.51128" lon="-2.72951">
        <ele>63</ele>
        <time>2025-05-13T09:25:41Z</time>
      </trkpt>
      <trkpt lat="47.51126" lon="-2.72953">
        <ele>63</ele>
        <time>2025-05-13T09:25:42Z</time>
      </trkpt>
      <trkpt lat="47.51124" lon="-2.72955">
        <ele>62</ele>
        <time>2025-05-13T09:25:43Z</time>
      </trkpt>
      <trkpt lat="47.51122" lon="-2.72957">
        <ele>63</ele>
        <time>2025-05-13T09:25:44Z</time>
      </trkpt>
      <trkpt lat="47.5112" lon="-2.72959">
        <ele>63</ele>
        <time>2025-05-13T09:25:45Z</time>
      </trkpt>
      <trkpt lat="47.51118" lon="-2.7296">
        <ele>63</ele>
        <time>2025-05-13T09:25:46Z</time>
      </trkpt>
      <trkpt lat="47.51116" lon="-2.72961">
        <ele>63</ele>
        <time>2025-05-13T09:25:47Z</time>
      </trkpt>
      <trkpt lat="47.51114" lon="-2.72963">
        <ele>63</ele>
        <time>2025-05-13T09:25:48Z</time>
      </trkpt>
      <trkpt lat="47.51112" lon="-2.72965">
        <ele>63</ele>
        <time>2025-05-13T09:25:49Z</time>
      </trkpt>
      <trkpt lat="47.5111" lon="-2.72966">
        <ele>63</ele>
        <time>2025-05-13T09:25:50Z</time>
      </trkpt>
      <trkpt lat="47.51108" lon="-2.72968">
        <ele>63</ele>
        <time>2025-05-13T09:25:51Z</time>
      </trkpt>
      <trkpt lat="47.51106" lon="-2.7297">
        <ele>63</ele>
        <time>2025-05-13T09:25:52Z</time>
      </trkpt>
      <trkpt lat="47.51104" lon="-2.72972">
        <ele>63</ele>
        <time>2025-05-13T09:25:53Z</time>
      </trkpt>
      <trkpt lat="47.51102" lon="-2.72973">
        <ele>63</ele>
        <time>2025-05-13T09:25:54Z</time>
      </trkpt>
      <trkpt lat="47.51099" lon="-2.72975">
        <ele>63</ele>
        <time>2025-05-13T09:25:55Z</time>
      </trkpt>
      <trkpt lat="47.51097" lon="-2.72977">
        <ele>63</ele>
        <time>2025-05-13T09:25:56Z</time>
      </trkpt>
      <trkpt lat="47.51095" lon="-2.72978">
        <ele>63</ele>
        <time>2025-05-13T09:25:57Z</time>
      </trkpt>
      <trkpt lat="47.51093" lon="-2.72981">
        <ele>63</ele>
        <time>2025-05-13T09:25:58Z</time>
      </trkpt>
      <trkpt lat="47.51091" lon="-2.72983">
        <ele>63</ele>
        <time>2025-05-13T09:25:59Z</time>
      </trkpt>
      <trkpt lat="47.51089" lon="-2.72984">
        <ele>63</ele>
        <time>2025-05-13T09:26:00Z</time>
      </trkpt>
      <trkpt lat="47.51086" lon="-2.72986">
        <ele>63</ele>
        <time>2025-05-13T09:26:01Z</time>
      </trkpt>
      <trkpt lat="47.51083" lon="-2.72986">
        <ele>63</ele>
        <time>2025-05-13T09:26:02Z</time>
      </trkpt>
      <trkpt lat="47.5108" lon="-2.72987">
        <ele>64</ele>
        <time>2025-05-13T09:26:03Z</time>
      </trkpt>
      <trkpt lat="47.51077" lon="-2.72989">
        <ele>64</ele>
        <time>2025-05-13T09:26:04Z</time>
      </trkpt>
      <trkpt lat="47.51075" lon="-2.72991">
        <ele>64</ele>
        <time>2025-05-13T09:26:05Z</time>
      </trkpt>
      <trkpt lat="47.51072" lon="-2.72992">
        <ele>64</ele>
        <time>2025-05-13T09:26:06Z</time>
      </trkpt>
      <trkpt lat="47.5107" lon="-2.72995">
        <ele>64</ele>
        <time>2025-05-13T09:26:07Z</time>
      </trkpt>
      <trkpt lat="47.51069" lon="-2.72998">
        <ele>63</ele>
        <time>2025-05-13T09:26:08Z</time>
      </trkpt>
      <trkpt lat="47.51068" lon="-2.73002">
        <ele>63</ele>
        <time>2025-05-13T09:26:09Z</time>
      </trkpt>
      <trkpt lat="47.51069" lon="-2.73007">
        <ele>63</ele>
        <time>2025-05-13T09:26:10Z</time>
      </trkpt>
      <trkpt lat="47.51069" lon="-2.73011">
        <ele>63</ele>
        <time>2025-05-13T09:26:11Z</time>
      </trkpt>
      <trkpt lat="47.5107" lon="-2.73016">
        <ele>63</ele>
        <time>2025-05-13T09:26:12Z</time>
      </trkpt>
      <trkpt lat="47.51071" lon="-2.73021">
        <ele>64</ele>
        <time>2025-05-13T09:26:13Z</time>
      </trkpt>
      <trkpt lat="47.51072" lon="-2.73026">
        <ele>64</ele>
        <time>2025-05-13T09:26:14Z</time>
      </trkpt>
      <trkpt lat="47.51073" lon="-2.7303">
        <ele>64</ele>
        <time>2025-05-13T09:26:15Z</time>
      </trkpt>
      <trkpt lat="47.51073" lon="-2.73035">
        <ele>64</ele>
        <time>2025-05-13T09:26:16Z</time>
      </trkpt>
      <trkpt lat="47.51073" lon="-2.7304">
        <ele>64</ele>
        <time>2025-05-13T09:26:17Z</time>
      </trkpt>
      <trkpt lat="47.51074" lon="-2.73045">
        <ele>63</ele>
        <time>2025-05-13T09:26:18Z</time>
      </trkpt>
      <trkpt lat="47.51074" lon="-2.7305">
        <ele>63</ele>
        <time>2025-05-13T09:26:19Z</time>
      </trkpt>
      <trkpt lat="47.51074" lon="-2.73055">
        <ele>63</ele>
        <time>2025-05-13T09:26:20Z</time>
      </trkpt>
      <trkpt lat="47.51074" lon="-2.73059">
        <ele>63</ele>
        <time>2025-05-13T09:26:21Z</time>
      </trkpt>
      <trkpt lat="47.51074" lon="-2.73064">
        <ele>63</ele>
        <time>2025-05-13T09:26:22Z</time>
      </trkpt>
      <trkpt lat="47.51074" lon="-2.73069">
        <ele>63</ele>
        <time>2025-05-13T09:26:23Z</time>
      </trkpt>
      <trkpt lat="47.51074" lon="-2.73074">
        <ele>63</ele>
        <time>2025-05-13T09:26:24Z</time>
      </trkpt>
      <trkpt lat="47.51075" lon="-2.73078">
        <ele>63</ele>
        <time>2025-05-13T09:26:25Z</time>
      </trkpt>
      <trkpt lat="47.51075" lon="-2.73083">
        <ele>63</ele>
        <time>2025-05-13T09:26:26Z</time>
      </trkpt>
      <trkpt lat="47.51076" lon="-2.73088">
        <ele>63</ele>
        <time>2025-05-13T09:26:27Z</time>
      </trkpt>
      <trkpt lat="47.51076" lon="-2.73093">
        <ele>63</ele>
        <time>2025-05-13T09:26:28Z</time>
      </trkpt>
      <trkpt lat="47.51076" lon="-2.73097">
        <ele>63</ele>
        <time>2025-05-13T09:26:29Z</time>
      </trkpt>
      <trkpt lat="47.51076" lon="-2.73102">
        <ele>64</ele>
        <time>2025-05-13T09:26:30Z</time>
      </trkpt>
      <trkpt lat="47.51076" lon="-2.73106">
        <ele>64</ele>
        <time>2025-05-13T09:26:31Z</time>
      </trkpt>
      <trkpt lat="47.51077" lon="-2.73111">
        <ele>64</ele>
        <time>2025-05-13T09:26:32Z</time>
      </trkpt>
      <trkpt lat="47.51076" lon="-2.73116">
        <ele>63</ele>
        <time>2025-05-13T09:26:33Z</time>
      </trkpt>
      <trkpt lat="47.51076" lon="-2.73122">
        <ele>64</ele>
        <time>2025-05-13T09:26:34Z</time>
      </trkpt>
      <trkpt lat="47.51077" lon="-2.73127">
        <ele>64</ele>
        <time>2025-05-13T09:26:35Z</time>
      </trkpt>
      <trkpt lat="47.51077" lon="-2.73132">
        <ele>64</ele>
        <time>2025-05-13T09:26:36Z</time>
      </trkpt>
      <trkpt lat="47.51077" lon="-2.73138">
        <ele>64</ele>
        <time>2025-05-13T09:26:37Z</time>
      </trkpt>
      <trkpt lat="47.51077" lon="-2.73143">
        <ele>64</ele>
        <time>2025-05-13T09:26:38Z</time>
      </trkpt>
      <trkpt lat="47.51078" lon="-2.73148">
        <ele>64</ele>
        <time>2025-05-13T09:26:39Z</time>
      </trkpt>
      <trkpt lat="47.51078" lon="-2.73152">
        <ele>64</ele>
        <time>2025-05-13T09:26:40Z</time>
      </trkpt>
      <trkpt lat="47.51078" lon="-2.73156">
        <ele>65</ele>
        <time>2025-05-13T09:26:41Z</time>
      </trkpt>
      <trkpt lat="47.51078" lon="-2.73161">
        <ele>65</ele>
        <time>2025-05-13T09:26:42Z</time>
      </trkpt>
      <trkpt lat="47.51078" lon="-2.73165">
        <ele>65</ele>
        <time>2025-05-13T09:26:43Z</time>
      </trkpt>
      <trkpt lat="47.51078" lon="-2.7317">
        <ele>66</ele>
        <time>2025-05-13T09:26:44Z</time>
      </trkpt>
      <trkpt lat="47.51079" lon="-2.73175">
        <ele>66</ele>
        <time>2025-05-13T09:26:45Z</time>
      </trkpt>
      <trkpt lat="47.51079" lon="-2.73181">
        <ele>66</ele>
        <time>2025-05-13T09:26:46Z</time>
      </trkpt>
      <trkpt lat="47.5108" lon="-2.73186">
        <ele>65</ele>
        <time>2025-05-13T09:26:47Z</time>
      </trkpt>
      <trkpt lat="47.5108" lon="-2.73191">
        <ele>64</ele>
        <time>2025-05-13T09:26:48Z</time>
      </trkpt>
      <trkpt lat="47.5108" lon="-2.73197">
        <ele>63</ele>
        <time>2025-05-13T09:26:49Z</time>
      </trkpt>
      <trkpt lat="47.5108" lon="-2.73202">
        <ele>62</ele>
        <time>2025-05-13T09:26:50Z</time>
      </trkpt>
      <trkpt lat="47.5108" lon="-2.73208">
        <ele>62</ele>
        <time>2025-05-13T09:26:51Z</time>
      </trkpt>
      <trkpt lat="47.51081" lon="-2.73213">
        <ele>61</ele>
        <time>2025-05-13T09:26:52Z</time>
      </trkpt>
      <trkpt lat="47.51081" lon="-2.73219">
        <ele>61</ele>
        <time>2025-05-13T09:26:53Z</time>
      </trkpt>
      <trkpt lat="47.51082" lon="-2.73224">
        <ele>60</ele>
        <time>2025-05-13T09:26:54Z</time>
      </trkpt>
      <trkpt lat="47.51082" lon="-2.73229">
        <ele>60</ele>
        <time>2025-05-13T09:26:55Z</time>
      </trkpt>
      <trkpt lat="47.51083" lon="-2.73233">
        <ele>59</ele>
        <time>2025-05-13T09:26:56Z</time>
      </trkpt>
      <trkpt lat="47.51083" lon="-2.73239">
        <ele>60</ele>
        <time>2025-05-13T09:26:57Z</time>
      </trkpt>
      <trkpt lat="47.51084" lon="-2.73244">
        <ele>60</ele>
        <time>2025-05-13T09:26:58Z</time>
      </trkpt>
      <trkpt lat="47.51084" lon="-2.73248">
        <ele>60</ele>
        <time>2025-05-13T09:26:59Z</time>
      </trkpt>
      <trkpt lat="47.51083" lon="-2.73254">
        <ele>61</ele>
        <time>2025-05-13T09:27:00Z</time>
      </trkpt>
      <trkpt lat="47.51083" lon="-2.73259">
        <ele>61</ele>
        <time>2025-05-13T09:27:01Z</time>
      </trkpt>
      <trkpt lat="47.51083" lon="-2.73264">
        <ele>61</ele>
        <time>2025-05-13T09:27:02Z</time>
      </trkpt>
      <trkpt lat="47.51083" lon="-2.7327">
        <ele>62</ele>
        <time>2025-05-13T09:27:03Z</time>
      </trkpt>
      <trkpt lat="47.51083" lon="-2.73276">
        <ele>62</ele>
        <time>2025-05-13T09:27:04Z</time>
      </trkpt>
      <trkpt lat="47.51083" lon="-2.73282">
        <ele>63</ele>
        <time>2025-05-13T09:27:05Z</time>
      </trkpt>
      <trkpt lat="47.51083" lon="-2.73287">
        <ele>63</ele>
        <time>2025-05-13T09:27:06Z</time>
      </trkpt>
      <trkpt lat="47.51083" lon="-2.73292">
        <ele>63</ele>
        <time>2025-05-13T09:27:07Z</time>
      </trkpt>
      <trkpt lat="47.51083" lon="-2.73297">
        <ele>63</ele>
        <time>2025-05-13T09:27:08Z</time>
      </trkpt>
      <trkpt lat="47.51084" lon="-2.73302">
        <ele>63</ele>
        <time>2025-05-13T09:27:09Z</time>
      </trkpt>
      <trkpt lat="47.51084" lon="-2.73308">
        <ele>63</ele>
        <time>2025-05-13T09:27:10Z</time>
      </trkpt>
      <trkpt lat="47.51084" lon="-2.73313">
        <ele>63</ele>
        <time>2025-05-13T09:27:11Z</time>
      </trkpt>
      <trkpt lat="47.51084" lon="-2.73318">
        <ele>63</ele>
        <time>2025-05-13T09:27:12Z</time>
      </trkpt>
      <trkpt lat="47.51084" lon="-2.73323">
        <ele>63</ele>
        <time>2025-05-13T09:27:13Z</time>
      </trkpt>
      <trkpt lat="47.51083" lon="-2.73328">
        <ele>63</ele>
        <time>2025-05-13T09:27:14Z</time>
      </trkpt>
      <trkpt lat="47.51083" lon="-2.73333">
        <ele>63</ele>
        <time>2025-05-13T09:27:15Z</time>
      </trkpt>
      <trkpt lat="47.51083" lon="-2.73338">
        <ele>63</ele>
        <time>2025-05-13T09:27:16Z</time>
      </trkpt>
      <trkpt lat="47.51083" lon="-2.73343">
        <ele>63</ele>
        <time>2025-05-13T09:27:17Z</time>
      </trkpt>
      <trkpt lat="47.51083" lon="-2.73348">
        <ele>63</ele>
        <time>2025-05-13T09:27:18Z</time>
      </trkpt>
      <trkpt lat="47.51082" lon="-2.73354">
        <ele>63</ele>
        <time>2025-05-13T09:27:19Z</time>
      </trkpt>
      <trkpt lat="47.51082" lon="-2.73359">
        <ele>63</ele>
        <time>2025-05-13T09:27:20Z</time>
      </trkpt>
      <trkpt lat="47.51082" lon="-2.73364">
        <ele>62</ele>
        <time>2025-05-13T09:27:21Z</time>
      </trkpt>
      <trkpt lat="47.51082" lon="-2.73369">
        <ele>63</ele>
        <time>2025-05-13T09:27:22Z</time>
      </trkpt>
      <trkpt lat="47.51082" lon="-2.73374">
        <ele>63</ele>
        <time>2025-05-13T09:27:23Z</time>
      </trkpt>
      <trkpt lat="47.51083" lon="-2.73379">
        <ele>63</ele>
        <time>2025-05-13T09:27:24Z</time>
      </trkpt>
      <trkpt lat="47.51084" lon="-2.73384">
        <ele>63</ele>
        <time>2025-05-13T09:27:25Z</time>
      </trkpt>
      <trkpt lat="47.51085" lon="-2.73389">
        <ele>63</ele>
        <time>2025-05-13T09:27:26Z</time>
      </trkpt>
      <trkpt lat="47.51087" lon="-2.73393">
        <ele>63</ele>
        <time>2025-05-13T09:27:27Z</time>
      </trkpt>
      <trkpt lat="47.5109" lon="-2.73397">
        <ele>63</ele>
        <time>2025-05-13T09:27:28Z</time>
      </trkpt>
      <trkpt lat="47.51094" lon="-2.73399">
        <ele>63</ele>
        <time>2025-05-13T09:27:29Z</time>
      </trkpt>
      <trkpt lat="47.51097" lon="-2.73399">
        <ele>64</ele>
        <time>2025-05-13T09:27:30Z</time>
      </trkpt>
      <trkpt lat="47.51101" lon="-2.73399">
        <ele>65</ele>
        <time>2025-05-13T09:27:31Z</time>
      </trkpt>
      <trkpt lat="47.51104" lon="-2.73399">
        <ele>66</ele>
        <time>2025-05-13T09:27:32Z</time>
      </trkpt>
      <trkpt lat="47.51107" lon="-2.73399">
        <ele>67</ele>
        <time>2025-05-13T09:27:33Z</time>
      </trkpt>
      <trkpt lat="47.5111" lon="-2.73399">
        <ele>68</ele>
        <time>2025-05-13T09:27:34Z</time>
      </trkpt>
      <trkpt lat="47.51113" lon="-2.73399">
        <ele>68</ele>
        <time>2025-05-13T09:27:35Z</time>
      </trkpt>
      <trkpt lat="47.51116" lon="-2.734">
        <ele>68</ele>
        <time>2025-05-13T09:27:36Z</time>
      </trkpt>
      <trkpt lat="47.5112" lon="-2.73401">
        <ele>68</ele>
        <time>2025-05-13T09:27:37Z</time>
      </trkpt>
      <trkpt lat="47.51123" lon="-2.73403">
        <ele>68</ele>
        <time>2025-05-13T09:27:38Z</time>
      </trkpt>
      <trkpt lat="47.51126" lon="-2.73407">
        <ele>67</ele>
        <time>2025-05-13T09:27:39Z</time>
      </trkpt>
      <trkpt lat="47.51128" lon="-2.7341">
        <ele>66</ele>
        <time>2025-05-13T09:27:40Z</time>
      </trkpt>
      <trkpt lat="47.51129" lon="-2.73415">
        <ele>66</ele>
        <time>2025-05-13T09:27:41Z</time>
      </trkpt>
      <trkpt lat="47.51128" lon="-2.73419">
        <ele>66</ele>
        <time>2025-05-13T09:27:42Z</time>
      </trkpt>
      <trkpt lat="47.51128" lon="-2.73425">
        <ele>66</ele>
        <time>2025-05-13T09:27:43Z</time>
      </trkpt>
      <trkpt lat="47.51128" lon="-2.7343">
        <ele>65</ele>
        <time>2025-05-13T09:27:44Z</time>
      </trkpt>
      <trkpt lat="47.51128" lon="-2.73435">
        <ele>65</ele>
        <time>2025-05-13T09:27:45Z</time>
      </trkpt>
      <trkpt lat="47.51128" lon="-2.7344">
        <ele>65</ele>
        <time>2025-05-13T09:27:46Z</time>
      </trkpt>
      <trkpt lat="47.51128" lon="-2.73445">
        <ele>65</ele>
        <time>2025-05-13T09:27:47Z</time>
      </trkpt>
      <trkpt lat="47.51129" lon="-2.7345">
        <ele>65</ele>
        <time>2025-05-13T09:27:48Z</time>
      </trkpt>
      <trkpt lat="47.51129" lon="-2.73455">
        <ele>65</ele>
        <time>2025-05-13T09:27:49Z</time>
      </trkpt>
      <trkpt lat="47.5113" lon="-2.7346">
        <ele>65</ele>
        <time>2025-05-13T09:27:50Z</time>
      </trkpt>
      <trkpt lat="47.5113" lon="-2.73465">
        <ele>64</ele>
        <time>2025-05-13T09:27:51Z</time>
      </trkpt>
      <trkpt lat="47.5113" lon="-2.7347">
        <ele>65</ele>
        <time>2025-05-13T09:27:52Z</time>
      </trkpt>
      <trkpt lat="47.5113" lon="-2.73475">
        <ele>65</ele>
        <time>2025-05-13T09:27:53Z</time>
      </trkpt>
      <trkpt lat="47.5113" lon="-2.73481">
        <ele>65</ele>
        <time>2025-05-13T09:27:54Z</time>
      </trkpt>
      <trkpt lat="47.5113" lon="-2.73486">
        <ele>65</ele>
        <time>2025-05-13T09:27:55Z</time>
      </trkpt>
      <trkpt lat="47.51131" lon="-2.73491">
        <ele>65</ele>
        <time>2025-05-13T09:27:56Z</time>
      </trkpt>
      <trkpt lat="47.51131" lon="-2.73497">
        <ele>65</ele>
        <time>2025-05-13T09:27:57Z</time>
      </trkpt>
      <trkpt lat="47.5113" lon="-2.73503">
        <ele>65</ele>
        <time>2025-05-13T09:27:58Z</time>
      </trkpt>
      <trkpt lat="47.5113" lon="-2.73508">
        <ele>65</ele>
        <time>2025-05-13T09:27:59Z</time>
      </trkpt>
      <trkpt lat="47.5113" lon="-2.73514">
        <ele>64</ele>
        <time>2025-05-13T09:28:00Z</time>
      </trkpt>
      <trkpt lat="47.5113" lon="-2.73519">
        <ele>64</ele>
        <time>2025-05-13T09:28:01Z</time>
      </trkpt>
      <trkpt lat="47.5113" lon="-2.73525">
        <ele>64</ele>
        <time>2025-05-13T09:28:02Z</time>
      </trkpt>
      <trkpt lat="47.5113" lon="-2.7353">
        <ele>64</ele>
        <time>2025-05-13T09:28:03Z</time>
      </trkpt>
      <trkpt lat="47.5113" lon="-2.73536">
        <ele>65</ele>
        <time>2025-05-13T09:28:04Z</time>
      </trkpt>
      <trkpt lat="47.5113" lon="-2.73542">
        <ele>65</ele>
        <time>2025-05-13T09:28:05Z</time>
      </trkpt>
      <trkpt lat="47.5113" lon="-2.73548">
        <ele>65</ele>
        <time>2025-05-13T09:28:06Z</time>
      </trkpt>
      <trkpt lat="47.5113" lon="-2.73554">
        <ele>65</ele>
        <time>2025-05-13T09:28:07Z</time>
      </trkpt>
      <trkpt lat="47.5113" lon="-2.73559">
        <ele>65</ele>
        <time>2025-05-13T09:28:08Z</time>
      </trkpt>
      <trkpt lat="47.51131" lon="-2.73565">
        <ele>65</ele>
        <time>2025-05-13T09:28:09Z</time>
      </trkpt>
      <trkpt lat="47.51131" lon="-2.73571">
        <ele>66</ele>
        <time>2025-05-13T09:28:10Z</time>
      </trkpt>
      <trkpt lat="47.51131" lon="-2.73576">
        <ele>66</ele>
        <time>2025-05-13T09:28:11Z</time>
      </trkpt>
      <trkpt lat="47.51131" lon="-2.73581">
        <ele>66</ele>
        <time>2025-05-13T09:28:12Z</time>
      </trkpt>
      <trkpt lat="47.51131" lon="-2.73586">
        <ele>66</ele>
        <time>2025-05-13T09:28:13Z</time>
      </trkpt>
      <trkpt lat="47.51131" lon="-2.73591">
        <ele>66</ele>
        <time>2025-05-13T09:28:14Z</time>
      </trkpt>
      <trkpt lat="47.51132" lon="-2.73596">
        <ele>66</ele>
        <time>2025-05-13T09:28:15Z</time>
      </trkpt>
      <trkpt lat="47.51132" lon="-2.73601">
        <ele>66</ele>
        <time>2025-05-13T09:28:16Z</time>
      </trkpt>
      <trkpt lat="47.51132" lon="-2.73606">
        <ele>66</ele>
        <time>2025-05-13T09:28:17Z</time>
      </trkpt>
      <trkpt lat="47.51132" lon="-2.73612">
        <ele>66</ele>
        <time>2025-05-13T09:28:18Z</time>
      </trkpt>
      <trkpt lat="47.51132" lon="-2.73617">
        <ele>67</ele>
        <time>2025-05-13T09:28:19Z</time>
      </trkpt>
      <trkpt lat="47.51132" lon="-2.73622">
        <ele>67</ele>
        <time>2025-05-13T09:28:20Z</time>
      </trkpt>
      <trkpt lat="47.51132" lon="-2.73627">
        <ele>67</ele>
        <time>2025-05-13T09:28:21Z</time>
      </trkpt>
      <trkpt lat="47.51132" lon="-2.73632">
        <ele>67</ele>
        <time>2025-05-13T09:28:22Z</time>
      </trkpt>
      <trkpt lat="47.51132" lon="-2.73637">
        <ele>67</ele>
        <time>2025-05-13T09:28:23Z</time>
      </trkpt>
      <trkpt lat="47.51132" lon="-2.73642">
        <ele>66</ele>
        <time>2025-05-13T09:28:24Z</time>
      </trkpt>
      <trkpt lat="47.51131" lon="-2.73647">
        <ele>66</ele>
        <time>2025-05-13T09:28:25Z</time>
      </trkpt>
      <trkpt lat="47.51131" lon="-2.73652">
        <ele>66</ele>
        <time>2025-05-13T09:28:26Z</time>
      </trkpt>
      <trkpt lat="47.51132" lon="-2.73657">
        <ele>66</ele>
        <time>2025-05-13T09:28:27Z</time>
      </trkpt>
      <trkpt lat="47.51132" lon="-2.73662">
        <ele>66</ele>
        <time>2025-05-13T09:28:28Z</time>
      </trkpt>
      <trkpt lat="47.51131" lon="-2.73667">
        <ele>67</ele>
        <time>2025-05-13T09:28:29Z</time>
      </trkpt>
      <trkpt lat="47.51131" lon="-2.73672">
        <ele>67</ele>
        <time>2025-05-13T09:28:30Z</time>
      </trkpt>
      <trkpt lat="47.51132" lon="-2.73677">
        <ele>67</ele>
        <time>2025-05-13T09:28:31Z</time>
      </trkpt>
      <trkpt lat="47.51132" lon="-2.73681">
        <ele>67</ele>
        <time>2025-05-13T09:28:32Z</time>
      </trkpt>
      <trkpt lat="47.51132" lon="-2.73686">
        <ele>67</ele>
        <time>2025-05-13T09:28:33Z</time>
      </trkpt>
      <trkpt lat="47.51132" lon="-2.73691">
        <ele>68</ele>
        <time>2025-05-13T09:28:34Z</time>
      </trkpt>
      <trkpt lat="47.51132" lon="-2.73696">
        <ele>68</ele>
        <time>2025-05-13T09:28:35Z</time>
      </trkpt>
      <trkpt lat="47.51132" lon="-2.73702">
        <ele>68</ele>
        <time>2025-05-13T09:28:36Z</time>
      </trkpt>
      <trkpt lat="47.51132" lon="-2.73706">
        <ele>69</ele>
        <time>2025-05-13T09:28:37Z</time>
      </trkpt>
      <trkpt lat="47.51132" lon="-2.73711">
        <ele>69</ele>
        <time>2025-05-13T09:28:38Z</time>
      </trkpt>
      <trkpt lat="47.51133" lon="-2.73715">
        <ele>68</ele>
        <time>2025-05-13T09:28:39Z</time>
      </trkpt>
      <trkpt lat="47.51132" lon="-2.7372">
        <ele>68</ele>
        <time>2025-05-13T09:28:40Z</time>
      </trkpt>
      <trkpt lat="47.51132" lon="-2.73725">
        <ele>68</ele>
        <time>2025-05-13T09:28:41Z</time>
      </trkpt>
      <trkpt lat="47.51132" lon="-2.7373">
        <ele>68</ele>
        <time>2025-05-13T09:28:42Z</time>
      </trkpt>
      <trkpt lat="47.51132" lon="-2.73735">
        <ele>68</ele>
        <time>2025-05-13T09:28:43Z</time>
      </trkpt>
      <trkpt lat="47.51132" lon="-2.7374">
        <ele>68</ele>
        <time>2025-05-13T09:28:44Z</time>
      </trkpt>
      <trkpt lat="47.51132" lon="-2.73745">
        <ele>68</ele>
        <time>2025-05-13T09:28:45Z</time>
      </trkpt>
      <trkpt lat="47.51132" lon="-2.73751">
        <ele>68</ele>
        <time>2025-05-13T09:28:46Z</time>
      </trkpt>
      <trkpt lat="47.51132" lon="-2.73756">
        <ele>68</ele>
        <time>2025-05-13T09:28:47Z</time>
      </trkpt>
      <trkpt lat="47.51132" lon="-2.73761">
        <ele>68</ele>
        <time>2025-05-13T09:28:48Z</time>
      </trkpt>
      <trkpt lat="47.51132" lon="-2.73767">
        <ele>69</ele>
        <time>2025-05-13T09:28:49Z</time>
      </trkpt>
      <trkpt lat="47.51132" lon="-2.73772">
        <ele>68</ele>
        <time>2025-05-13T09:28:50Z</time>
      </trkpt>
      <trkpt lat="47.51133" lon="-2.73778">
        <ele>68</ele>
        <time>2025-05-13T09:28:51Z</time>
      </trkpt>
      <trkpt lat="47.51132" lon="-2.73783">
        <ele>68</ele>
        <time>2025-05-13T09:28:52Z</time>
      </trkpt>
      <trkpt lat="47.51132" lon="-2.73789">
        <ele>68</ele>
        <time>2025-05-13T09:28:53Z</time>
      </trkpt>
      <trkpt lat="47.51132" lon="-2.73794">
        <ele>68</ele>
        <time>2025-05-13T09:28:54Z</time>
      </trkpt>
      <trkpt lat="47.51132" lon="-2.738">
        <ele>68</ele>
        <time>2025-05-13T09:28:55Z</time>
      </trkpt>
      <trkpt lat="47.51132" lon="-2.73806">
        <ele>68</ele>
        <time>2025-05-13T09:28:56Z</time>
      </trkpt>
      <trkpt lat="47.51131" lon="-2.73812">
        <ele>67</ele>
        <time>2025-05-13T09:28:57Z</time>
      </trkpt>
      <trkpt lat="47.51132" lon="-2.73817">
        <ele>67</ele>
        <time>2025-05-13T09:28:58Z</time>
      </trkpt>
      <trkpt lat="47.51131" lon="-2.73823">
        <ele>67</ele>
        <time>2025-05-13T09:28:59Z</time>
      </trkpt>
      <trkpt lat="47.51131" lon="-2.7383">
        <ele>67</ele>
        <time>2025-05-13T09:29:00Z</time>
      </trkpt>
      <trkpt lat="47.51131" lon="-2.73836">
        <ele>67</ele>
        <time>2025-05-13T09:29:01Z</time>
      </trkpt>
      <trkpt lat="47.51131" lon="-2.73843">
        <ele>67</ele>
        <time>2025-05-13T09:29:02Z</time>
      </trkpt>
      <trkpt lat="47.51131" lon="-2.7385">
        <ele>67</ele>
        <time>2025-05-13T09:29:03Z</time>
      </trkpt>
      <trkpt lat="47.51131" lon="-2.73857">
        <ele>67</ele>
        <time>2025-05-13T09:29:04Z</time>
      </trkpt>
      <trkpt lat="47.51131" lon="-2.73865">
        <ele>67</ele>
        <time>2025-05-13T09:29:05Z</time>
      </trkpt>
      <trkpt lat="47.51131" lon="-2.73872">
        <ele>67</ele>
        <time>2025-05-13T09:29:06Z</time>
      </trkpt>
      <trkpt lat="47.51131" lon="-2.7388">
        <ele>67</ele>
        <time>2025-05-13T09:29:07Z</time>
      </trkpt>
      <trkpt lat="47.51131" lon="-2.73889">
        <ele>67</ele>
        <time>2025-05-13T09:29:08Z</time>
      </trkpt>
      <trkpt lat="47.5113" lon="-2.73897">
        <ele>67</ele>
        <time>2025-05-13T09:29:09Z</time>
      </trkpt>
      <trkpt lat="47.51131" lon="-2.73906">
        <ele>67</ele>
        <time>2025-05-13T09:29:10Z</time>
      </trkpt>
      <trkpt lat="47.51131" lon="-2.73915">
        <ele>66</ele>
        <time>2025-05-13T09:29:11Z</time>
      </trkpt>
      <trkpt lat="47.51131" lon="-2.73924">
        <ele>66</ele>
        <time>2025-05-13T09:29:12Z</time>
      </trkpt>
      <trkpt lat="47.5113" lon="-2.73934">
        <ele>66</ele>
        <time>2025-05-13T09:29:13Z</time>
      </trkpt>
      <trkpt lat="47.5113" lon="-2.73942">
        <ele>65</ele>
        <time>2025-05-13T09:29:14Z</time>
      </trkpt>
      <trkpt lat="47.51131" lon="-2.73952">
        <ele>65</ele>
        <time>2025-05-13T09:29:15Z</time>
      </trkpt>
      <trkpt lat="47.5113" lon="-2.73963">
        <ele>64</ele>
        <time>2025-05-13T09:29:16Z</time>
      </trkpt>
      <trkpt lat="47.5113" lon="-2.73973">
        <ele>64</ele>
        <time>2025-05-13T09:29:17Z</time>
      </trkpt>
      <trkpt lat="47.51129" lon="-2.73984">
        <ele>63</ele>
        <time>2025-05-13T09:29:18Z</time>
      </trkpt>
      <trkpt lat="47.51129" lon="-2.73995">
        <ele>63</ele>
        <time>2025-05-13T09:29:19Z</time>
      </trkpt>
      <trkpt lat="47.51129" lon="-2.74006">
        <ele>62</ele>
        <time>2025-05-13T09:29:20Z</time>
      </trkpt>
      <trkpt lat="47.51128" lon="-2.74017">
        <ele>62</ele>
        <time>2025-05-13T09:29:21Z</time>
      </trkpt>
      <trkpt lat="47.51128" lon="-2.74027">
        <ele>62</ele>
        <time>2025-05-13T09:29:22Z</time>
      </trkpt>
      <trkpt lat="47.51128" lon="-2.74037">
        <ele>62</ele>
        <time>2025-05-13T09:29:23Z</time>
      </trkpt>
      <trkpt lat="47.51128" lon="-2.74047">
        <ele>62</ele>
        <time>2025-05-13T09:29:24Z</time>
      </trkpt>
      <trkpt lat="47.51127" lon="-2.74058">
        <ele>61</ele>
        <time>2025-05-13T09:29:25Z</time>
      </trkpt>
      <trkpt lat="47.51127" lon="-2.74068">
        <ele>61</ele>
        <time>2025-05-13T09:29:26Z</time>
      </trkpt>
      <trkpt lat="47.51127" lon="-2.74077">
        <ele>61</ele>
        <time>2025-05-13T09:29:27Z</time>
      </trkpt>
      <trkpt lat="47.51127" lon="-2.74086">
        <ele>62</ele>
        <time>2025-05-13T09:29:28Z</time>
      </trkpt>
      <trkpt lat="47.51127" lon="-2.74095">
        <ele>61</ele>
        <time>2025-05-13T09:29:29Z</time>
      </trkpt>
      <trkpt lat="47.51127" lon="-2.74104">
        <ele>61</ele>
        <time>2025-05-13T09:29:30Z</time>
      </trkpt>
      <trkpt lat="47.51126" lon="-2.74114">
        <ele>61</ele>
        <time>2025-05-13T09:29:31Z</time>
      </trkpt>
      <trkpt lat="47.51126" lon="-2.74123">
        <ele>61</ele>
        <time>2025-05-13T09:29:32Z</time>
      </trkpt>
      <trkpt lat="47.51126" lon="-2.74132">
        <ele>61</ele>
        <time>2025-05-13T09:29:33Z</time>
      </trkpt>
      <trkpt lat="47.51126" lon="-2.74141">
        <ele>62</ele>
        <time>2025-05-13T09:29:34Z</time>
      </trkpt>
      <trkpt lat="47.51126" lon="-2.74149">
        <ele>62</ele>
        <time>2025-05-13T09:29:35Z</time>
      </trkpt>
      <trkpt lat="47.51126" lon="-2.74158">
        <ele>61</ele>
        <time>2025-05-13T09:29:36Z</time>
      </trkpt>
      <trkpt lat="47.51126" lon="-2.74166">
        <ele>61</ele>
        <time>2025-05-13T09:29:37Z</time>
      </trkpt>
      <trkpt lat="47.51126" lon="-2.74175">
        <ele>61</ele>
        <time>2025-05-13T09:29:38Z</time>
      </trkpt>
      <trkpt lat="47.51126" lon="-2.74184">
        <ele>60</ele>
        <time>2025-05-13T09:29:39Z</time>
      </trkpt>
      <trkpt lat="47.51126" lon="-2.74193">
        <ele>60</ele>
        <time>2025-05-13T09:29:40Z</time>
      </trkpt>
      <trkpt lat="47.51125" lon="-2.74201">
        <ele>60</ele>
        <time>2025-05-13T09:29:41Z</time>
      </trkpt>
      <trkpt lat="47.51124" lon="-2.74209">
        <ele>61</ele>
        <time>2025-05-13T09:29:42Z</time>
      </trkpt>
      <trkpt lat="47.51125" lon="-2.74218">
        <ele>61</ele>
        <time>2025-05-13T09:29:43Z</time>
      </trkpt>
      <trkpt lat="47.51125" lon="-2.74226">
        <ele>62</ele>
        <time>2025-05-13T09:29:44Z</time>
      </trkpt>
      <trkpt lat="47.51124" lon="-2.74235">
        <ele>61</ele>
        <time>2025-05-13T09:29:45Z</time>
      </trkpt>
      <trkpt lat="47.51124" lon="-2.74244">
        <ele>61</ele>
        <time>2025-05-13T09:29:46Z</time>
      </trkpt>
      <trkpt lat="47.51124" lon="-2.74252">
        <ele>60</ele>
        <time>2025-05-13T09:29:47Z</time>
      </trkpt>
      <trkpt lat="47.51124" lon="-2.7426">
        <ele>60</ele>
        <time>2025-05-13T09:29:48Z</time>
      </trkpt>
      <trkpt lat="47.51124" lon="-2.74269">
        <ele>60</ele>
        <time>2025-05-13T09:29:49Z</time>
      </trkpt>
      <trkpt lat="47.51125" lon="-2.74277">
        <ele>60</ele>
        <time>2025-05-13T09:29:50Z</time>
      </trkpt>
      <trkpt lat="47.51125" lon="-2.74285">
        <ele>60</ele>
        <time>2025-05-13T09:29:51Z</time>
      </trkpt>
      <trkpt lat="47.51124" lon="-2.74294">
        <ele>60</ele>
        <time>2025-05-13T09:29:52Z</time>
      </trkpt>
      <trkpt lat="47.51124" lon="-2.74302">
        <ele>60</ele>
        <time>2025-05-13T09:29:53Z</time>
      </trkpt>
      <trkpt lat="47.51124" lon="-2.7431">
        <ele>60</ele>
        <time>2025-05-13T09:29:54Z</time>
      </trkpt>
      <trkpt lat="47.51123" lon="-2.74318">
        <ele>60</ele>
        <time>2025-05-13T09:29:55Z</time>
      </trkpt>
      <trkpt lat="47.51124" lon="-2.74325">
        <ele>59</ele>
        <time>2025-05-13T09:29:56Z</time>
      </trkpt>
      <trkpt lat="47.51124" lon="-2.74333">
        <ele>60</ele>
        <time>2025-05-13T09:29:57Z</time>
      </trkpt>
      <trkpt lat="47.51123" lon="-2.74341">
        <ele>60</ele>
        <time>2025-05-13T09:29:58Z</time>
      </trkpt>
      <trkpt lat="47.51123" lon="-2.74348">
        <ele>59</ele>
        <time>2025-05-13T09:29:59Z</time>
      </trkpt>
      <trkpt lat="47.51122" lon="-2.74356">
        <ele>60</ele>
        <time>2025-05-13T09:30:00Z</time>
      </trkpt>
      <trkpt lat="47.51122" lon="-2.74363">
        <ele>60</ele>
        <time>2025-05-13T09:30:01Z</time>
      </trkpt>
      <trkpt lat="47.51122" lon="-2.7437">
        <ele>60</ele>
        <time>2025-05-13T09:30:02Z</time>
      </trkpt>
      <trkpt lat="47.51122" lon="-2.74377">
        <ele>60</ele>
        <time>2025-05-13T09:30:03Z</time>
      </trkpt>
      <trkpt lat="47.51121" lon="-2.74384">
        <ele>60</ele>
        <time>2025-05-13T09:30:04Z</time>
      </trkpt>
      <trkpt lat="47.51121" lon="-2.74391">
        <ele>60</ele>
        <time>2025-05-13T09:30:05Z</time>
      </trkpt>
      <trkpt lat="47.5112" lon="-2.74398">
        <ele>60</ele>
        <time>2025-05-13T09:30:06Z</time>
      </trkpt>
      <trkpt lat="47.5112" lon="-2.74404">
        <ele>60</ele>
        <time>2025-05-13T09:30:07Z</time>
      </trkpt>
      <trkpt lat="47.5112" lon="-2.7441">
        <ele>60</ele>
        <time>2025-05-13T09:30:08Z</time>
      </trkpt>
      <trkpt lat="47.5112" lon="-2.74416">
        <ele>60</ele>
        <time>2025-05-13T09:30:09Z</time>
      </trkpt>
      <trkpt lat="47.51119" lon="-2.74422">
        <ele>61</ele>
        <time>2025-05-13T09:30:10Z</time>
      </trkpt>
      <trkpt lat="47.51119" lon="-2.74427">
        <ele>61</ele>
        <time>2025-05-13T09:30:11Z</time>
      </trkpt>
      <trkpt lat="47.51119" lon="-2.74432">
        <ele>62</ele>
        <time>2025-05-13T09:30:12Z</time>
      </trkpt>
      <trkpt lat="47.51119" lon="-2.74438">
        <ele>62</ele>
        <time>2025-05-13T09:30:13Z</time>
      </trkpt>
      <trkpt lat="47.51119" lon="-2.74443">
        <ele>62</ele>
        <time>2025-05-13T09:30:14Z</time>
      </trkpt>
      <trkpt lat="47.51118" lon="-2.74448">
        <ele>62</ele>
        <time>2025-05-13T09:30:15Z</time>
      </trkpt>
      <trkpt lat="47.51118" lon="-2.74452">
        <ele>62</ele>
        <time>2025-05-13T09:30:16Z</time>
      </trkpt>
      <trkpt lat="47.51118" lon="-2.74457">
        <ele>62</ele>
        <time>2025-05-13T09:30:17Z</time>
      </trkpt>
      <trkpt lat="47.51117" lon="-2.74461">
        <ele>63</ele>
        <time>2025-05-13T09:30:18Z</time>
      </trkpt>
      <trkpt lat="47.51117" lon="-2.74466">
        <ele>63</ele>
        <time>2025-05-13T09:30:19Z</time>
      </trkpt>
      <trkpt lat="47.51117" lon="-2.74471">
        <ele>63</ele>
        <time>2025-05-13T09:30:20Z</time>
      </trkpt>
      <trkpt lat="47.51117" lon="-2.74475">
        <ele>63</ele>
        <time>2025-05-13T09:30:21Z</time>
      </trkpt>
      <trkpt lat="47.51117" lon="-2.74479">
        <ele>63</ele>
        <time>2025-05-13T09:30:22Z</time>
      </trkpt>
      <trkpt lat="47.51116" lon="-2.74483">
        <ele>63</ele>
        <time>2025-05-13T09:30:23Z</time>
      </trkpt>
      <trkpt lat="47.51116" lon="-2.74487">
        <ele>63</ele>
        <time>2025-05-13T09:30:24Z</time>
      </trkpt>
      <trkpt lat="47.51116" lon="-2.74492">
        <ele>63</ele>
        <time>2025-05-13T09:30:25Z</time>
      </trkpt>
      <trkpt lat="47.51117" lon="-2.74497">
        <ele>63</ele>
        <time>2025-05-13T09:30:26Z</time>
      </trkpt>
      <trkpt lat="47.51117" lon="-2.74501">
        <ele>63</ele>
        <time>2025-05-13T09:30:27Z</time>
      </trkpt>
      <trkpt lat="47.51116" lon="-2.74507">
        <ele>63</ele>
        <time>2025-05-13T09:30:28Z</time>
      </trkpt>
      <trkpt lat="47.51116" lon="-2.74512">
        <ele>62</ele>
        <time>2025-05-13T09:30:29Z</time>
      </trkpt>
      <trkpt lat="47.51116" lon="-2.74517">
        <ele>62</ele>
        <time>2025-05-13T09:30:30Z</time>
      </trkpt>
      <trkpt lat="47.51116" lon="-2.74523">
        <ele>62</ele>
        <time>2025-05-13T09:30:31Z</time>
      </trkpt>
      <trkpt lat="47.51116" lon="-2.74529">
        <ele>62</ele>
        <time>2025-05-13T09:30:32Z</time>
      </trkpt>
      <trkpt lat="47.51115" lon="-2.74535">
        <ele>62</ele>
        <time>2025-05-13T09:30:33Z</time>
      </trkpt>
      <trkpt lat="47.51115" lon="-2.74541">
        <ele>62</ele>
        <time>2025-05-13T09:30:34Z</time>
      </trkpt>
      <trkpt lat="47.51115" lon="-2.74546">
        <ele>62</ele>
        <time>2025-05-13T09:30:35Z</time>
      </trkpt>
      <trkpt lat="47.51114" lon="-2.74552">
        <ele>62</ele>
        <time>2025-05-13T09:30:36Z</time>
      </trkpt>
      <trkpt lat="47.51114" lon="-2.74557">
        <ele>62</ele>
        <time>2025-05-13T09:30:37Z</time>
      </trkpt>
      <trkpt lat="47.51113" lon="-2.74563">
        <ele>62</ele>
        <time>2025-05-13T09:30:38Z</time>
      </trkpt>
      <trkpt lat="47.51113" lon="-2.74569">
        <ele>63</ele>
        <time>2025-05-13T09:30:39Z</time>
      </trkpt>
      <trkpt lat="47.51112" lon="-2.74574">
        <ele>63</ele>
        <time>2025-05-13T09:30:40Z</time>
      </trkpt>
      <trkpt lat="47.51112" lon="-2.7458">
        <ele>63</ele>
        <time>2025-05-13T09:30:41Z</time>
      </trkpt>
      <trkpt lat="47.51111" lon="-2.74586">
        <ele>63</ele>
        <time>2025-05-13T09:30:42Z</time>
      </trkpt>
      <trkpt lat="47.5111" lon="-2.74592">
        <ele>63</ele>
        <time>2025-05-13T09:30:43Z</time>
      </trkpt>
      <trkpt lat="47.5111" lon="-2.74597">
        <ele>63</ele>
        <time>2025-05-13T09:30:44Z</time>
      </trkpt>
      <trkpt lat="47.51109" lon="-2.74603">
        <ele>62</ele>
        <time>2025-05-13T09:30:45Z</time>
      </trkpt>
      <trkpt lat="47.51108" lon="-2.74609">
        <ele>62</ele>
        <time>2025-05-13T09:30:46Z</time>
      </trkpt>
      <trkpt lat="47.51107" lon="-2.74616">
        <ele>62</ele>
        <time>2025-05-13T09:30:47Z</time>
      </trkpt>
      <trkpt lat="47.51106" lon="-2.74623">
        <ele>61</ele>
        <time>2025-05-13T09:30:48Z</time>
      </trkpt>
      <trkpt lat="47.51104" lon="-2.7463">
        <ele>60</ele>
        <time>2025-05-13T09:30:49Z</time>
      </trkpt>
      <trkpt lat="47.51103" lon="-2.74637">
        <ele>60</ele>
        <time>2025-05-13T09:30:50Z</time>
      </trkpt>
      <trkpt lat="47.51102" lon="-2.74644">
        <ele>59</ele>
        <time>2025-05-13T09:30:51Z</time>
      </trkpt>
      <trkpt lat="47.511" lon="-2.74651">
        <ele>59</ele>
        <time>2025-05-13T09:30:52Z</time>
      </trkpt>
      <trkpt lat="47.51098" lon="-2.74659">
        <ele>59</ele>
        <time>2025-05-13T09:30:53Z</time>
      </trkpt>
      <trkpt lat="47.51096" lon="-2.74667">
        <ele>59</ele>
        <time>2025-05-13T09:30:54Z</time>
      </trkpt>
      <trkpt lat="47.51094" lon="-2.74675">
        <ele>59</ele>
        <time>2025-05-13T09:30:55Z</time>
      </trkpt>
      <trkpt lat="47.51092" lon="-2.74683">
        <ele>59</ele>
        <time>2025-05-13T09:30:56Z</time>
      </trkpt>
      <trkpt lat="47.51089" lon="-2.74692">
        <ele>60</ele>
        <time>2025-05-13T09:30:57Z</time>
      </trkpt>
      <trkpt lat="47.51088" lon="-2.74699">
        <ele>59</ele>
        <time>2025-05-13T09:30:58Z</time>
      </trkpt>
      <trkpt lat="47.51087" lon="-2.74707">
        <ele>59</ele>
        <time>2025-05-13T09:30:59Z</time>
      </trkpt>
      <trkpt lat="47.51085" lon="-2.74713">
        <ele>59</ele>
        <time>2025-05-13T09:31:00Z</time>
      </trkpt>
      <trkpt lat="47.51084" lon="-2.7472">
        <ele>59</ele>
        <time>2025-05-13T09:31:01Z</time>
      </trkpt>
      <trkpt lat="47.51082" lon="-2.74727">
        <ele>59</ele>
        <time>2025-05-13T09:31:02Z</time>
      </trkpt>
      <trkpt lat="47.51081" lon="-2.74735">
        <ele>59</ele>
        <time>2025-05-13T09:31:03Z</time>
      </trkpt>
      <trkpt lat="47.51078" lon="-2.74742">
        <ele>60</ele>
        <time>2025-05-13T09:31:04Z</time>
      </trkpt>
      <trkpt lat="47.51076" lon="-2.74748">
        <ele>60</ele>
        <time>2025-05-13T09:31:05Z</time>
      </trkpt>
      <trkpt lat="47.51074" lon="-2.74754">
        <ele>60</ele>
        <time>2025-05-13T09:31:06Z</time>
      </trkpt>
      <trkpt lat="47.51071" lon="-2.74759">
        <ele>60</ele>
        <time>2025-05-13T09:31:07Z</time>
      </trkpt>
      <trkpt lat="47.51069" lon="-2.74764">
        <ele>61</ele>
        <time>2025-05-13T09:31:08Z</time>
      </trkpt>
      <trkpt lat="47.51068" lon="-2.74769">
        <ele>61</ele>
        <time>2025-05-13T09:31:09Z</time>
      </trkpt>
      <trkpt lat="47.51066" lon="-2.74774">
        <ele>61</ele>
        <time>2025-05-13T09:31:10Z</time>
      </trkpt>
      <trkpt lat="47.51064" lon="-2.74778">
        <ele>62</ele>
        <time>2025-05-13T09:31:11Z</time>
      </trkpt>
      <trkpt lat="47.51062" lon="-2.74782">
        <ele>62</ele>
        <time>2025-05-13T09:31:12Z</time>
      </trkpt>
      <trkpt lat="47.5106" lon="-2.74786">
        <ele>62</ele>
        <time>2025-05-13T09:31:13Z</time>
      </trkpt>
      <trkpt lat="47.51058" lon="-2.74791">
        <ele>63</ele>
        <time>2025-05-13T09:31:14Z</time>
      </trkpt>
      <trkpt lat="47.51056" lon="-2.74795">
        <ele>63</ele>
        <time>2025-05-13T09:31:15Z</time>
      </trkpt>
      <trkpt lat="47.51054" lon="-2.74799">
        <ele>63</ele>
        <time>2025-05-13T09:31:16Z</time>
      </trkpt>
      <trkpt lat="47.51053" lon="-2.74804">
        <ele>62</ele>
        <time>2025-05-13T09:31:17Z</time>
      </trkpt>
      <trkpt lat="47.51051" lon="-2.74808">
        <ele>62</ele>
        <time>2025-05-13T09:31:18Z</time>
      </trkpt>
      <trkpt lat="47.51049" lon="-2.74812">
        <ele>62</ele>
        <time>2025-05-13T09:31:19Z</time>
      </trkpt>
      <trkpt lat="47.51048" lon="-2.74815">
        <ele>62</ele>
        <time>2025-05-13T09:31:20Z</time>
      </trkpt>
      <trkpt lat="47.51046" lon="-2.74819">
        <ele>63</ele>
        <time>2025-05-13T09:31:21Z</time>
      </trkpt>
      <trkpt lat="47.51045" lon="-2.74823">
        <ele>63</ele>
        <time>2025-05-13T09:31:22Z</time>
      </trkpt>
      <trkpt lat="47.51044" lon="-2.74827">
        <ele>63</ele>
        <time>2025-05-13T09:31:23Z</time>
      </trkpt>
      <trkpt lat="47.51044" lon="-2.7483">
        <ele>64</ele>
        <time>2025-05-13T09:31:24Z</time>
      </trkpt>
      <trkpt lat="47.51043" lon="-2.74835">
        <ele>64</ele>
        <time>2025-05-13T09:31:25Z</time>
      </trkpt>
      <trkpt lat="47.51042" lon="-2.74839">
        <ele>63</ele>
        <time>2025-05-13T09:31:26Z</time>
      </trkpt>
      <trkpt lat="47.51041" lon="-2.74843">
        <ele>64</ele>
        <time>2025-05-13T09:31:27Z</time>
      </trkpt>
      <trkpt lat="47.5104" lon="-2.74846">
        <ele>64</ele>
        <time>2025-05-13T09:31:28Z</time>
      </trkpt>
      <trkpt lat="47.51039" lon="-2.7485">
        <ele>63</ele>
        <time>2025-05-13T09:31:29Z</time>
      </trkpt>
      <trkpt lat="47.51038" lon="-2.74853">
        <ele>63</ele>
        <time>2025-05-13T09:31:30Z</time>
      </trkpt>
      <trkpt lat="47.51038" lon="-2.74857">
        <ele>63</ele>
        <time>2025-05-13T09:31:31Z</time>
      </trkpt>
      <trkpt lat="47.51037" lon="-2.74861">
        <ele>64</ele>
        <time>2025-05-13T09:31:32Z</time>
      </trkpt>
      <trkpt lat="47.51036" lon="-2.74864">
        <ele>64</ele>
        <time>2025-05-13T09:31:33Z</time>
      </trkpt>
      <trkpt lat="47.51035" lon="-2.74868">
        <ele>64</ele>
        <time>2025-05-13T09:31:34Z</time>
      </trkpt>
      <trkpt lat="47.51035" lon="-2.74871">
        <ele>63</ele>
        <time>2025-05-13T09:31:35Z</time>
      </trkpt>
      <trkpt lat="47.51034" lon="-2.74875">
        <ele>63</ele>
        <time>2025-05-13T09:31:36Z</time>
      </trkpt>
      <trkpt lat="47.51033" lon="-2.74879">
        <ele>63</ele>
        <time>2025-05-13T09:31:37Z</time>
      </trkpt>
      <trkpt lat="47.51032" lon="-2.74883">
        <ele>62</ele>
        <time>2025-05-13T09:31:38Z</time>
      </trkpt>
      <trkpt lat="47.51031" lon="-2.74887">
        <ele>62</ele>
        <time>2025-05-13T09:31:39Z</time>
      </trkpt>
      <trkpt lat="47.5103" lon="-2.74891">
        <ele>62</ele>
        <time>2025-05-13T09:31:40Z</time>
      </trkpt>
      <trkpt lat="47.5103" lon="-2.74896">
        <ele>62</ele>
        <time>2025-05-13T09:31:41Z</time>
      </trkpt>
      <trkpt lat="47.51029" lon="-2.74901">
        <ele>62</ele>
        <time>2025-05-13T09:31:42Z</time>
      </trkpt>
      <trkpt lat="47.51028" lon="-2.74906">
        <ele>63</ele>
        <time>2025-05-13T09:31:43Z</time>
      </trkpt>
      <trkpt lat="47.51026" lon="-2.74911">
        <ele>63</ele>
        <time>2025-05-13T09:31:44Z</time>
      </trkpt>
      <trkpt lat="47.51025" lon="-2.74916">
        <ele>62</ele>
        <time>2025-05-13T09:31:45Z</time>
      </trkpt>
      <trkpt lat="47.51024" lon="-2.74922">
        <ele>62</ele>
        <time>2025-05-13T09:31:46Z</time>
      </trkpt>
      <trkpt lat="47.51023" lon="-2.74928">
        <ele>62</ele>
        <time>2025-05-13T09:31:47Z</time>
      </trkpt>
      <trkpt lat="47.51021" lon="-2.74935">
        <ele>61</ele>
        <time>2025-05-13T09:31:48Z</time>
      </trkpt>
      <trkpt lat="47.5102" lon="-2.74941">
        <ele>61</ele>
        <time>2025-05-13T09:31:49Z</time>
      </trkpt>
      <trkpt lat="47.51019" lon="-2.74948">
        <ele>61</ele>
        <time>2025-05-13T09:31:50Z</time>
      </trkpt>
      <trkpt lat="47.51018" lon="-2.74953">
        <ele>61</ele>
        <time>2025-05-13T09:31:51Z</time>
      </trkpt>
      <trkpt lat="47.51017" lon="-2.74959">
        <ele>62</ele>
        <time>2025-05-13T09:31:52Z</time>
      </trkpt>
      <trkpt lat="47.51016" lon="-2.74966">
        <ele>62</ele>
        <time>2025-05-13T09:31:53Z</time>
      </trkpt>
      <trkpt lat="47.51014" lon="-2.74972">
        <ele>61</ele>
        <time>2025-05-13T09:31:54Z</time>
      </trkpt>
      <trkpt lat="47.51012" lon="-2.74979">
        <ele>61</ele>
        <time>2025-05-13T09:31:55Z</time>
      </trkpt>
      <trkpt lat="47.51011" lon="-2.74986">
        <ele>60</ele>
        <time>2025-05-13T09:31:56Z</time>
      </trkpt>
      <trkpt lat="47.5101" lon="-2.74993">
        <ele>60</ele>
        <time>2025-05-13T09:31:57Z</time>
      </trkpt>
      <trkpt lat="47.51009" lon="-2.74999">
        <ele>60</ele>
        <time>2025-05-13T09:31:58Z</time>
      </trkpt>
      <trkpt lat="47.51007" lon="-2.75005">
        <ele>59</ele>
        <time>2025-05-13T09:31:59Z</time>
      </trkpt>
      <trkpt lat="47.51005" lon="-2.75011">
        <ele>59</ele>
        <time>2025-05-13T09:32:00Z</time>
      </trkpt>
      <trkpt lat="47.51003" lon="-2.75017">
        <ele>59</ele>
        <time>2025-05-13T09:32:01Z</time>
      </trkpt>
      <trkpt lat="47.51001" lon="-2.75023">
        <ele>59</ele>
        <time>2025-05-13T09:32:02Z</time>
      </trkpt>
      <trkpt lat="47.50998" lon="-2.75028">
        <ele>59</ele>
        <time>2025-05-13T09:32:03Z</time>
      </trkpt>
      <trkpt lat="47.50995" lon="-2.75033">
        <ele>59</ele>
        <time>2025-05-13T09:32:04Z</time>
      </trkpt>
      <trkpt lat="47.50992" lon="-2.75037">
        <ele>60</ele>
        <time>2025-05-13T09:32:05Z</time>
      </trkpt>
      <trkpt lat="47.50989" lon="-2.75041">
        <ele>61</ele>
        <time>2025-05-13T09:32:06Z</time>
      </trkpt>
      <trkpt lat="47.50985" lon="-2.75045">
        <ele>61</ele>
        <time>2025-05-13T09:32:07Z</time>
      </trkpt>
      <trkpt lat="47.5098" lon="-2.75049">
        <ele>61</ele>
        <time>2025-05-13T09:32:08Z</time>
      </trkpt>
      <trkpt lat="47.50976" lon="-2.75053">
        <ele>61</ele>
        <time>2025-05-13T09:32:09Z</time>
      </trkpt>
      <trkpt lat="47.50972" lon="-2.75057">
        <ele>61</ele>
        <time>2025-05-13T09:32:10Z</time>
      </trkpt>
      <trkpt lat="47.50968" lon="-2.75061">
        <ele>61</ele>
        <time>2025-05-13T09:32:11Z</time>
      </trkpt>
      <trkpt lat="47.50964" lon="-2.75065">
        <ele>61</ele>
        <time>2025-05-13T09:32:12Z</time>
      </trkpt>
      <trkpt lat="47.5096" lon="-2.7507">
        <ele>61</ele>
        <time>2025-05-13T09:32:13Z</time>
      </trkpt>
      <trkpt lat="47.50955" lon="-2.75074">
        <ele>60</ele>
        <time>2025-05-13T09:32:14Z</time>
      </trkpt>
      <trkpt lat="47.50951" lon="-2.75078">
        <ele>60</ele>
        <time>2025-05-13T09:32:15Z</time>
      </trkpt>
      <trkpt lat="47.50947" lon="-2.75082">
        <ele>60</ele>
        <time>2025-05-13T09:32:16Z</time>
      </trkpt>
      <trkpt lat="47.50942" lon="-2.75086">
        <ele>60</ele>
        <time>2025-05-13T09:32:17Z</time>
      </trkpt>
      <trkpt lat="47.50938" lon="-2.7509">
        <ele>59</ele>
        <time>2025-05-13T09:32:18Z</time>
      </trkpt>
      <trkpt lat="47.50934" lon="-2.75093">
        <ele>58</ele>
        <time>2025-05-13T09:32:19Z</time>
      </trkpt>
      <trkpt lat="47.50929" lon="-2.75095">
        <ele>58</ele>
        <time>2025-05-13T09:32:20Z</time>
      </trkpt>
      <trkpt lat="47.50925" lon="-2.75097">
        <ele>58</ele>
        <time>2025-05-13T09:32:21Z</time>
      </trkpt>
      <trkpt lat="47.50921" lon="-2.75097">
        <ele>58</ele>
        <time>2025-05-13T09:32:22Z</time>
      </trkpt>
      <trkpt lat="47.50917" lon="-2.75097">
        <ele>59</ele>
        <time>2025-05-13T09:32:23Z</time>
      </trkpt>
      <trkpt lat="47.50913" lon="-2.75097">
        <ele>60</ele>
        <time>2025-05-13T09:32:24Z</time>
      </trkpt>
      <trkpt lat="47.50909" lon="-2.75097">
        <ele>60</ele>
        <time>2025-05-13T09:32:25Z</time>
      </trkpt>
      <trkpt lat="47.50906" lon="-2.75098">
        <ele>60</ele>
        <time>2025-05-13T09:32:26Z</time>
      </trkpt>
      <trkpt lat="47.50903" lon="-2.75097">
        <ele>61</ele>
        <time>2025-05-13T09:32:27Z</time>
      </trkpt>
      <trkpt lat="47.509" lon="-2.75097">
        <ele>61</ele>
        <time>2025-05-13T09:32:28Z</time>
      </trkpt>
      <trkpt lat="47.50896" lon="-2.75096">
        <ele>62</ele>
        <time>2025-05-13T09:32:29Z</time>
      </trkpt>
      <trkpt lat="47.50893" lon="-2.75095">
        <ele>62</ele>
        <time>2025-05-13T09:32:30Z</time>
      </trkpt>
      <trkpt lat="47.5089" lon="-2.75094">
        <ele>62</ele>
        <time>2025-05-13T09:32:31Z</time>
      </trkpt>
      <trkpt lat="47.50888" lon="-2.75094">
        <ele>63</ele>
        <time>2025-05-13T09:32:32Z</time>
      </trkpt>
      <trkpt lat="47.50885" lon="-2.75093">
        <ele>63</ele>
        <time>2025-05-13T09:32:33Z</time>
      </trkpt>
      <trkpt lat="47.50882" lon="-2.75093">
        <ele>64</ele>
        <time>2025-05-13T09:32:34Z</time>
      </trkpt>
      <trkpt lat="47.50879" lon="-2.75092">
        <ele>64</ele>
        <time>2025-05-13T09:32:35Z</time>
      </trkpt>
      <trkpt lat="47.50876" lon="-2.75092">
        <ele>64</ele>
        <time>2025-05-13T09:32:36Z</time>
      </trkpt>
      <trkpt lat="47.50873" lon="-2.75092">
        <ele>64</ele>
        <time>2025-05-13T09:32:37Z</time>
      </trkpt>
      <trkpt lat="47.5087" lon="-2.75092">
        <ele>64</ele>
        <time>2025-05-13T09:32:38Z</time>
      </trkpt>
      <trkpt lat="47.50866" lon="-2.75091">
        <ele>63</ele>
        <time>2025-05-13T09:32:39Z</time>
      </trkpt>
      <trkpt lat="47.50863" lon="-2.75091">
        <ele>63</ele>
        <time>2025-05-13T09:32:40Z</time>
      </trkpt>
      <trkpt lat="47.50859" lon="-2.7509">
        <ele>62</ele>
        <time>2025-05-13T09:32:41Z</time>
      </trkpt>
      <trkpt lat="47.50857" lon="-2.75089">
        <ele>62</ele>
        <time>2025-05-13T09:32:42Z</time>
      </trkpt>
      <trkpt lat="47.50854" lon="-2.75089">
        <ele>62</ele>
        <time>2025-05-13T09:32:43Z</time>
      </trkpt>
      <trkpt lat="47.50851" lon="-2.75088">
        <ele>62</ele>
        <time>2025-05-13T09:32:44Z</time>
      </trkpt>
      <trkpt lat="47.50848" lon="-2.75088">
        <ele>62</ele>
        <time>2025-05-13T09:32:45Z</time>
      </trkpt>
      <trkpt lat="47.50845" lon="-2.75088">
        <ele>62</ele>
        <time>2025-05-13T09:32:46Z</time>
      </trkpt>
      <trkpt lat="47.50842" lon="-2.75087">
        <ele>62</ele>
        <time>2025-05-13T09:32:47Z</time>
      </trkpt>
      <trkpt lat="47.50839" lon="-2.75087">
        <ele>62</ele>
        <time>2025-05-13T09:32:48Z</time>
      </trkpt>
      <trkpt lat="47.50836" lon="-2.75087">
        <ele>62</ele>
        <time>2025-05-13T09:32:49Z</time>
      </trkpt>
      <trkpt lat="47.50834" lon="-2.75087">
        <ele>62</ele>
        <time>2025-05-13T09:32:50Z</time>
      </trkpt>
      <trkpt lat="47.50832" lon="-2.75085">
        <ele>62</ele>
        <time>2025-05-13T09:32:51Z</time>
      </trkpt>
      <trkpt lat="47.50831" lon="-2.75083">
        <ele>62</ele>
        <time>2025-05-13T09:32:52Z</time>
      </trkpt>
      <trkpt lat="47.50831" lon="-2.7508">
        <ele>62</ele>
        <time>2025-05-13T09:32:53Z</time>
      </trkpt>
      <trkpt lat="47.50833" lon="-2.75079">
        <ele>62</ele>
        <time>2025-05-13T09:32:54Z</time>
      </trkpt>
      <trkpt lat="47.50835" lon="-2.7508">
        <ele>62</ele>
        <time>2025-05-13T09:32:55Z</time>
      </trkpt>
      <trkpt lat="47.50837" lon="-2.7508">
        <ele>62</ele>
        <time>2025-05-13T09:32:56Z</time>
      </trkpt>
      <trkpt lat="47.50838" lon="-2.75081">
        <ele>62</ele>
        <time>2025-05-13T09:32:57Z</time>
      </trkpt>
      <trkpt lat="47.5084" lon="-2.75082">
        <ele>62</ele>
        <time>2025-05-13T09:32:58Z</time>
      </trkpt>
      <trkpt lat="47.50842" lon="-2.75082">
        <ele>62</ele>
        <time>2025-05-13T09:32:59Z</time>
      </trkpt>
      <trkpt lat="47.50844" lon="-2.75082">
        <ele>62</ele>
        <time>2025-05-13T09:33:00Z</time>
      </trkpt>
      <trkpt lat="47.50845" lon="-2.75083">
        <ele>62</ele>
        <time>2025-05-13T09:33:01Z</time>
      </trkpt>
      <trkpt lat="47.50847" lon="-2.75083">
        <ele>61</ele>
        <time>2025-05-13T09:33:02Z</time>
      </trkpt>
      <trkpt lat="47.50849" lon="-2.75083">
        <ele>61</ele>
        <time>2025-05-13T09:33:03Z</time>
      </trkpt>
      <trkpt lat="47.50851" lon="-2.75083">
        <ele>61</ele>
        <time>2025-05-13T09:33:04Z</time>
      </trkpt>
      <trkpt lat="47.50853" lon="-2.75084">
        <ele>61</ele>
        <time>2025-05-13T09:33:05Z</time>
      </trkpt>
      <trkpt lat="47.50855" lon="-2.75084">
        <ele>61</ele>
        <time>2025-05-13T09:33:06Z</time>
      </trkpt>
      <trkpt lat="47.50857" lon="-2.75085">
        <ele>61</ele>
        <time>2025-05-13T09:33:07Z</time>
      </trkpt>
      <trkpt lat="47.5086" lon="-2.75085">
        <ele>62</ele>
        <time>2025-05-13T09:33:08Z</time>
      </trkpt>
      <trkpt lat="47.50862" lon="-2.75086">
        <ele>62</ele>
        <time>2025-05-13T09:33:09Z</time>
      </trkpt>
      <trkpt lat="47.50864" lon="-2.75085">
        <ele>62</ele>
        <time>2025-05-13T09:33:10Z</time>
      </trkpt>
      <trkpt lat="47.50866" lon="-2.75085">
        <ele>62</ele>
        <time>2025-05-13T09:33:11Z</time>
      </trkpt>
      <trkpt lat="47.50869" lon="-2.75085">
        <ele>62</ele>
        <time>2025-05-13T09:33:12Z</time>
      </trkpt>
      <trkpt lat="47.50872" lon="-2.75085">
        <ele>62</ele>
        <time>2025-05-13T09:33:13Z</time>
      </trkpt>
      <trkpt lat="47.50874" lon="-2.75086">
        <ele>63</ele>
        <time>2025-05-13T09:33:14Z</time>
      </trkpt>
      <trkpt lat="47.50877" lon="-2.75087">
        <ele>63</ele>
        <time>2025-05-13T09:33:15Z</time>
      </trkpt>
      <trkpt lat="47.50881" lon="-2.75088">
        <ele>63</ele>
        <time>2025-05-13T09:33:16Z</time>
      </trkpt>
      <trkpt lat="47.50884" lon="-2.75088">
        <ele>63</ele>
        <time>2025-05-13T09:33:17Z</time>
      </trkpt>
      <trkpt lat="47.50888" lon="-2.75088">
        <ele>63</ele>
        <time>2025-05-13T09:33:18Z</time>
      </trkpt>
      <trkpt lat="47.50892" lon="-2.75089">
        <ele>62</ele>
        <time>2025-05-13T09:33:19Z</time>
      </trkpt>
      <trkpt lat="47.50896" lon="-2.7509">
        <ele>62</ele>
        <time>2025-05-13T09:33:20Z</time>
      </trkpt>
      <trkpt lat="47.509" lon="-2.75091">
        <ele>62</ele>
        <time>2025-05-13T09:33:21Z</time>
      </trkpt>
      <trkpt lat="47.50903" lon="-2.75092">
        <ele>62</ele>
        <time>2025-05-13T09:33:22Z</time>
      </trkpt>
      <trkpt lat="47.50907" lon="-2.75092">
        <ele>62</ele>
        <time>2025-05-13T09:33:23Z</time>
      </trkpt>
      <trkpt lat="47.50911" lon="-2.75092">
        <ele>62</ele>
        <time>2025-05-13T09:33:24Z</time>
      </trkpt>
      <trkpt lat="47.50915" lon="-2.75094">
        <ele>61</ele>
        <time>2025-05-13T09:33:25Z</time>
      </trkpt>
      <trkpt lat="47.50919" lon="-2.75097">
        <ele>60</ele>
        <time>2025-05-13T09:33:26Z</time>
      </trkpt>
      <trkpt lat="47.50922" lon="-2.75102">
        <ele>60</ele>
        <time>2025-05-13T09:33:27Z</time>
      </trkpt>
      <trkpt lat="47.50924" lon="-2.75107">
        <ele>60</ele>
        <time>2025-05-13T09:33:28Z</time>
      </trkpt>
      <trkpt lat="47.50924" lon="-2.75113">
        <ele>60</ele>
        <time>2025-05-13T09:33:29Z</time>
      </trkpt>
      <trkpt lat="47.50924" lon="-2.75118">
        <ele>59</ele>
        <time>2025-05-13T09:33:30Z</time>
      </trkpt>
      <trkpt lat="47.50924" lon="-2.75123">
        <ele>59</ele>
        <time>2025-05-13T09:33:31Z</time>
      </trkpt>
      <trkpt lat="47.50924" lon="-2.75128">
        <ele>59</ele>
        <time>2025-05-13T09:33:32Z</time>
      </trkpt>
      <trkpt lat="47.50923" lon="-2.75133">
        <ele>59</ele>
        <time>2025-05-13T09:33:33Z</time>
      </trkpt>
      <trkpt lat="47.50923" lon="-2.75138">
        <ele>59</ele>
        <time>2025-05-13T09:33:34Z</time>
      </trkpt>
      <trkpt lat="47.50923" lon="-2.75143">
        <ele>59</ele>
        <time>2025-05-13T09:33:35Z</time>
      </trkpt>
      <trkpt lat="47.50922" lon="-2.75149">
        <ele>58</ele>
        <time>2025-05-13T09:33:36Z</time>
      </trkpt>
      <trkpt lat="47.50922" lon="-2.75154">
        <ele>58</ele>
        <time>2025-05-13T09:33:37Z</time>
      </trkpt>
      <trkpt lat="47.50921" lon="-2.7516">
        <ele>58</ele>
        <time>2025-05-13T09:33:38Z</time>
      </trkpt>
      <trkpt lat="47.50921" lon="-2.75166">
        <ele>58</ele>
        <time>2025-05-13T09:33:39Z</time>
      </trkpt>
      <trkpt lat="47.50921" lon="-2.75173">
        <ele>58</ele>
        <time>2025-05-13T09:33:40Z</time>
      </trkpt>
      <trkpt lat="47.5092" lon="-2.75179">
        <ele>58</ele>
        <time>2025-05-13T09:33:41Z</time>
      </trkpt>
      <trkpt lat="47.50919" lon="-2.75186">
        <ele>57</ele>
        <time>2025-05-13T09:33:42Z</time>
      </trkpt>
      <trkpt lat="47.50919" lon="-2.75192">
        <ele>56</ele>
        <time>2025-05-13T09:33:43Z</time>
      </trkpt>
      <trkpt lat="47.50919" lon="-2.75198">
        <ele>56</ele>
        <time>2025-05-13T09:33:44Z</time>
      </trkpt>
      <trkpt lat="47.5092" lon="-2.75204">
        <ele>56</ele>
        <time>2025-05-13T09:33:45Z</time>
      </trkpt>
      <trkpt lat="47.50921" lon="-2.7521">
        <ele>57</ele>
        <time>2025-05-13T09:33:46Z</time>
      </trkpt>
      <trkpt lat="47.50922" lon="-2.75216">
        <ele>57</ele>
        <time>2025-05-13T09:33:47Z</time>
      </trkpt>
      <trkpt lat="47.50925" lon="-2.75221">
        <ele>57</ele>
        <time>2025-05-13T09:33:48Z</time>
      </trkpt>
      <trkpt lat="47.50927" lon="-2.75226">
        <ele>58</ele>
        <time>2025-05-13T09:33:49Z</time>
      </trkpt>
      <trkpt lat="47.5093" lon="-2.75231">
        <ele>58</ele>
        <time>2025-05-13T09:33:50Z</time>
      </trkpt>
      <trkpt lat="47.50932" lon="-2.75236">
        <ele>58</ele>
        <time>2025-05-13T09:33:51Z</time>
      </trkpt>
      <trkpt lat="47.50935" lon="-2.7524">
        <ele>58</ele>
        <time>2025-05-13T09:33:52Z</time>
      </trkpt>
      <trkpt lat="47.50938" lon="-2.75244">
        <ele>57</ele>
        <time>2025-05-13T09:33:53Z</time>
      </trkpt>
      <trkpt lat="47.5094" lon="-2.75249">
        <ele>58</ele>
        <time>2025-05-13T09:33:54Z</time>
      </trkpt>
      <trkpt lat="47.50942" lon="-2.75253">
        <ele>58</ele>
        <time>2025-05-13T09:33:55Z</time>
      </trkpt>
      <trkpt lat="47.50944" lon="-2.75258">
        <ele>58</ele>
        <time>2025-05-13T09:33:56Z</time>
      </trkpt>
      <trkpt lat="47.50946" lon="-2.75262">
        <ele>58</ele>
        <time>2025-05-13T09:33:57Z</time>
      </trkpt>
      <trkpt lat="47.50947" lon="-2.75266">
        <ele>59</ele>
        <time>2025-05-13T09:33:58Z</time>
      </trkpt>
      <trkpt lat="47.50949" lon="-2.75271">
        <ele>59</ele>
        <time>2025-05-13T09:33:59Z</time>
      </trkpt>
      <trkpt lat="47.5095" lon="-2.75275">
        <ele>59</ele>
        <time>2025-05-13T09:34:00Z</time>
      </trkpt>
      <trkpt lat="47.50951" lon="-2.75279">
        <ele>59</ele>
        <time>2025-05-13T09:34:01Z</time>
      </trkpt>
      <trkpt lat="47.50953" lon="-2.75283">
        <ele>59</ele>
        <time>2025-05-13T09:34:02Z</time>
      </trkpt>
      <trkpt lat="47.50954" lon="-2.75287">
        <ele>59</ele>
        <time>2025-05-13T09:34:03Z</time>
      </trkpt>
      <trkpt lat="47.50955" lon="-2.75291">
        <ele>58</ele>
        <time>2025-05-13T09:34:04Z</time>
      </trkpt>
      <trkpt lat="47.50957" lon="-2.75295">
        <ele>59</ele>
        <time>2025-05-13T09:34:05Z</time>
      </trkpt>
      <trkpt lat="47.50959" lon="-2.753">
        <ele>59</ele>
        <time>2025-05-13T09:34:06Z</time>
      </trkpt>
      <trkpt lat="47.50961" lon="-2.75305">
        <ele>59</ele>
        <time>2025-05-13T09:34:07Z</time>
      </trkpt>
      <trkpt lat="47.50963" lon="-2.7531">
        <ele>59</ele>
        <time>2025-05-13T09:34:08Z</time>
      </trkpt>
      <trkpt lat="47.50966" lon="-2.75315">
        <ele>59</ele>
        <time>2025-05-13T09:34:09Z</time>
      </trkpt>
      <trkpt lat="47.50969" lon="-2.7532">
        <ele>59</ele>
        <time>2025-05-13T09:34:10Z</time>
      </trkpt>
      <trkpt lat="47.50972" lon="-2.75325">
        <ele>59</ele>
        <time>2025-05-13T09:34:11Z</time>
      </trkpt>
      <trkpt lat="47.50975" lon="-2.75329">
        <ele>59</ele>
        <time>2025-05-13T09:34:12Z</time>
      </trkpt>
      <trkpt lat="47.50977" lon="-2.75333">
        <ele>59</ele>
        <time>2025-05-13T09:34:13Z</time>
      </trkpt>
      <trkpt lat="47.5098" lon="-2.75336">
        <ele>59</ele>
        <time>2025-05-13T09:34:14Z</time>
      </trkpt>
      <trkpt lat="47.50983" lon="-2.7534">
        <ele>59</ele>
        <time>2025-05-13T09:34:15Z</time>
      </trkpt>
      <trkpt lat="47.50986" lon="-2.75344">
        <ele>59</ele>
        <time>2025-05-13T09:34:16Z</time>
      </trkpt>
      <trkpt lat="47.5099" lon="-2.75348">
        <ele>59</ele>
        <time>2025-05-13T09:34:17Z</time>
      </trkpt>
      <trkpt lat="47.50992" lon="-2.75353">
        <ele>59</ele>
        <time>2025-05-13T09:34:18Z</time>
      </trkpt>
      <trkpt lat="47.50995" lon="-2.75357">
        <ele>59</ele>
        <time>2025-05-13T09:34:19Z</time>
      </trkpt>
      <trkpt lat="47.50998" lon="-2.75362">
        <ele>59</ele>
        <time>2025-05-13T09:34:20Z</time>
      </trkpt>
      <trkpt lat="47.51001" lon="-2.75366">
        <ele>59</ele>
        <time>2025-05-13T09:34:21Z</time>
      </trkpt>
      <trkpt lat="47.51003" lon="-2.7537">
        <ele>59</ele>
        <time>2025-05-13T09:34:22Z</time>
      </trkpt>
      <trkpt lat="47.51006" lon="-2.75374">
        <ele>58</ele>
        <time>2025-05-13T09:34:23Z</time>
      </trkpt>
      <trkpt lat="47.51009" lon="-2.75379">
        <ele>58</ele>
        <time>2025-05-13T09:34:24Z</time>
      </trkpt>
      <trkpt lat="47.51011" lon="-2.75384">
        <ele>58</ele>
        <time>2025-05-13T09:34:25Z</time>
      </trkpt>
      <trkpt lat="47.51015" lon="-2.75389">
        <ele>58</ele>
        <time>2025-05-13T09:34:26Z</time>
      </trkpt>
      <trkpt lat="47.51018" lon="-2.75393">
        <ele>57</ele>
        <time>2025-05-13T09:34:27Z</time>
      </trkpt>
      <trkpt lat="47.51021" lon="-2.75397">
        <ele>58</ele>
        <time>2025-05-13T09:34:28Z</time>
      </trkpt>
      <trkpt lat="47.51024" lon="-2.75402">
        <ele>57</ele>
        <time>2025-05-13T09:34:29Z</time>
      </trkpt>
      <trkpt lat="47.51027" lon="-2.75406">
        <ele>57</ele>
        <time>2025-05-13T09:34:30Z</time>
      </trkpt>
      <trkpt lat="47.5103" lon="-2.7541">
        <ele>57</ele>
        <time>2025-05-13T09:34:31Z</time>
      </trkpt>
      <trkpt lat="47.51033" lon="-2.75415">
        <ele>57</ele>
        <time>2025-05-13T09:34:32Z</time>
      </trkpt>
      <trkpt lat="47.51036" lon="-2.75419">
        <ele>57</ele>
        <time>2025-05-13T09:34:33Z</time>
      </trkpt>
      <trkpt lat="47.51039" lon="-2.75424">
        <ele>58</ele>
        <time>2025-05-13T09:34:34Z</time>
      </trkpt>
      <trkpt lat="47.51042" lon="-2.75428">
        <ele>58</ele>
        <time>2025-05-13T09:34:35Z</time>
      </trkpt>
      <trkpt lat="47.51045" lon="-2.75433">
        <ele>58</ele>
        <time>2025-05-13T09:34:36Z</time>
      </trkpt>
      <trkpt lat="47.51048" lon="-2.75437">
        <ele>58</ele>
        <time>2025-05-13T09:34:37Z</time>
      </trkpt>
      <trkpt lat="47.51051" lon="-2.75442">
        <ele>58</ele>
        <time>2025-05-13T09:34:38Z</time>
      </trkpt>
      <trkpt lat="47.51053" lon="-2.75445">
        <ele>58</ele>
        <time>2025-05-13T09:34:39Z</time>
      </trkpt>
      <trkpt lat="47.51055" lon="-2.7545">
        <ele>59</ele>
        <time>2025-05-13T09:34:40Z</time>
      </trkpt>
      <trkpt lat="47.51057" lon="-2.75454">
        <ele>59</ele>
        <time>2025-05-13T09:34:41Z</time>
      </trkpt>
      <trkpt lat="47.51059" lon="-2.7546">
        <ele>59</ele>
        <time>2025-05-13T09:34:42Z</time>
      </trkpt>
      <trkpt lat="47.5106" lon="-2.75466">
        <ele>58</ele>
        <time>2025-05-13T09:34:43Z</time>
      </trkpt>
      <trkpt lat="47.51061" lon="-2.75471">
        <ele>58</ele>
        <time>2025-05-13T09:34:44Z</time>
      </trkpt>
      <trkpt lat="47.51063" lon="-2.75476">
        <ele>57</ele>
        <time>2025-05-13T09:34:45Z</time>
      </trkpt>
      <trkpt lat="47.51064" lon="-2.75483">
        <ele>57</ele>
        <time>2025-05-13T09:34:46Z</time>
      </trkpt>
      <trkpt lat="47.51065" lon="-2.75489">
        <ele>56</ele>
        <time>2025-05-13T09:34:47Z</time>
      </trkpt>
      <trkpt lat="47.51066" lon="-2.75495">
        <ele>56</ele>
        <time>2025-05-13T09:34:48Z</time>
      </trkpt>
      <trkpt lat="47.51067" lon="-2.75501">
        <ele>57</ele>
        <time>2025-05-13T09:34:49Z</time>
      </trkpt>
      <trkpt lat="47.51068" lon="-2.75507">
        <ele>57</ele>
        <time>2025-05-13T09:34:50Z</time>
      </trkpt>
      <trkpt lat="47.51069" lon="-2.75514">
        <ele>57</ele>
        <time>2025-05-13T09:34:51Z</time>
      </trkpt>
      <trkpt lat="47.5107" lon="-2.7552">
        <ele>57</ele>
        <time>2025-05-13T09:34:52Z</time>
      </trkpt>
      <trkpt lat="47.5107" lon="-2.75527">
        <ele>57</ele>
        <time>2025-05-13T09:34:53Z</time>
      </trkpt>
      <trkpt lat="47.5107" lon="-2.75533">
        <ele>57</ele>
        <time>2025-05-13T09:34:54Z</time>
      </trkpt>
      <trkpt lat="47.51071" lon="-2.7554">
        <ele>56</ele>
        <time>2025-05-13T09:34:55Z</time>
      </trkpt>
      <trkpt lat="47.51072" lon="-2.75547">
        <ele>56</ele>
        <time>2025-05-13T09:34:56Z</time>
      </trkpt>
      <trkpt lat="47.51073" lon="-2.75553">
        <ele>56</ele>
        <time>2025-05-13T09:34:57Z</time>
      </trkpt>
      <trkpt lat="47.51073" lon="-2.7556">
        <ele>56</ele>
        <time>2025-05-13T09:34:58Z</time>
      </trkpt>
      <trkpt lat="47.51074" lon="-2.75566">
        <ele>56</ele>
        <time>2025-05-13T09:34:59Z</time>
      </trkpt>
      <trkpt lat="47.51076" lon="-2.75572">
        <ele>57</ele>
        <time>2025-05-13T09:35:00Z</time>
      </trkpt>
      <trkpt lat="47.51078" lon="-2.75577">
        <ele>57</ele>
        <time>2025-05-13T09:35:01Z</time>
      </trkpt>
      <trkpt lat="47.5108" lon="-2.75583">
        <ele>58</ele>
        <time>2025-05-13T09:35:02Z</time>
      </trkpt>
      <trkpt lat="47.51081" lon="-2.75588">
        <ele>58</ele>
        <time>2025-05-13T09:35:03Z</time>
      </trkpt>
      <trkpt lat="47.51083" lon="-2.75594">
        <ele>57</ele>
        <time>2025-05-13T09:35:04Z</time>
      </trkpt>
      <trkpt lat="47.51085" lon="-2.75599">
        <ele>57</ele>
        <time>2025-05-13T09:35:05Z</time>
      </trkpt>
      <trkpt lat="47.51088" lon="-2.75604">
        <ele>57</ele>
        <time>2025-05-13T09:35:06Z</time>
      </trkpt>
      <trkpt lat="47.5109" lon="-2.75609">
        <ele>57</ele>
        <time>2025-05-13T09:35:07Z</time>
      </trkpt>
      <trkpt lat="47.51093" lon="-2.75615">
        <ele>56</ele>
        <time>2025-05-13T09:35:08Z</time>
      </trkpt>
      <trkpt lat="47.51095" lon="-2.75619">
        <ele>56</ele>
        <time>2025-05-13T09:35:09Z</time>
      </trkpt>
      <trkpt lat="47.51098" lon="-2.75624">
        <ele>56</ele>
        <time>2025-05-13T09:35:10Z</time>
      </trkpt>
      <trkpt lat="47.511" lon="-2.7563">
        <ele>56</ele>
        <time>2025-05-13T09:35:11Z</time>
      </trkpt>
      <trkpt lat="47.51103" lon="-2.75635">
        <ele>56</ele>
        <time>2025-05-13T09:35:12Z</time>
      </trkpt>
      <trkpt lat="47.51106" lon="-2.75639">
        <ele>56</ele>
        <time>2025-05-13T09:35:13Z</time>
      </trkpt>
      <trkpt lat="47.51109" lon="-2.75645">
        <ele>56</ele>
        <time>2025-05-13T09:35:14Z</time>
      </trkpt>
      <trkpt lat="47.51111" lon="-2.7565">
        <ele>57</ele>
        <time>2025-05-13T09:35:15Z</time>
      </trkpt>
      <trkpt lat="47.51114" lon="-2.75654">
        <ele>57</ele>
        <time>2025-05-13T09:35:16Z</time>
      </trkpt>
      <trkpt lat="47.51117" lon="-2.75659">
        <ele>57</ele>
        <time>2025-05-13T09:35:17Z</time>
      </trkpt>
      <trkpt lat="47.51119" lon="-2.75663">
        <ele>57</ele>
        <time>2025-05-13T09:35:18Z</time>
      </trkpt>
      <trkpt lat="47.51122" lon="-2.75668">
        <ele>57</ele>
        <time>2025-05-13T09:35:19Z</time>
      </trkpt>
      <trkpt lat="47.51125" lon="-2.75673">
        <ele>58</ele>
        <time>2025-05-13T09:35:20Z</time>
      </trkpt>
      <trkpt lat="47.51128" lon="-2.75677">
        <ele>58</ele>
        <time>2025-05-13T09:35:21Z</time>
      </trkpt>
      <trkpt lat="47.51131" lon="-2.75681">
        <ele>58</ele>
        <time>2025-05-13T09:35:22Z</time>
      </trkpt>
      <trkpt lat="47.51134" lon="-2.75685">
        <ele>58</ele>
        <time>2025-05-13T09:35:23Z</time>
      </trkpt>
      <trkpt lat="47.51137" lon="-2.75689">
        <ele>58</ele>
        <time>2025-05-13T09:35:24Z</time>
      </trkpt>
      <trkpt lat="47.5114" lon="-2.75694">
        <ele>58</ele>
        <time>2025-05-13T09:35:25Z</time>
      </trkpt>
      <trkpt lat="47.51143" lon="-2.75698">
        <ele>58</ele>
        <time>2025-05-13T09:35:26Z</time>
      </trkpt>
      <trkpt lat="47.51146" lon="-2.75702">
        <ele>58</ele>
        <time>2025-05-13T09:35:27Z</time>
      </trkpt>
      <trkpt lat="47.51149" lon="-2.75707">
        <ele>58</ele>
        <time>2025-05-13T09:35:28Z</time>
      </trkpt>
      <trkpt lat="47.51152" lon="-2.75711">
        <ele>58</ele>
        <time>2025-05-13T09:35:29Z</time>
      </trkpt>
      <trkpt lat="47.51155" lon="-2.75716">
        <ele>58</ele>
        <time>2025-05-13T09:35:30Z</time>
      </trkpt>
      <trkpt lat="47.51158" lon="-2.7572">
        <ele>58</ele>
        <time>2025-05-13T09:35:31Z</time>
      </trkpt>
      <trkpt lat="47.51161" lon="-2.75725">
        <ele>58</ele>
        <time>2025-05-13T09:35:32Z</time>
      </trkpt>
      <trkpt lat="47.51164" lon="-2.75728">
        <ele>58</ele>
        <time>2025-05-13T09:35:33Z</time>
      </trkpt>
      <trkpt lat="47.51167" lon="-2.75733">
        <ele>58</ele>
        <time>2025-05-13T09:35:34Z</time>
      </trkpt>
      <trkpt lat="47.5117" lon="-2.75737">
        <ele>58</ele>
        <time>2025-05-13T09:35:35Z</time>
      </trkpt>
      <trkpt lat="47.51173" lon="-2.75741">
        <ele>58</ele>
        <time>2025-05-13T09:35:36Z</time>
      </trkpt>
      <trkpt lat="47.51176" lon="-2.75745">
        <ele>58</ele>
        <time>2025-05-13T09:35:37Z</time>
      </trkpt>
      <trkpt lat="47.51178" lon="-2.75749">
        <ele>58</ele>
        <time>2025-05-13T09:35:38Z</time>
      </trkpt>
      <trkpt lat="47.51181" lon="-2.75753">
        <ele>58</ele>
        <time>2025-05-13T09:35:39Z</time>
      </trkpt>
      <trkpt lat="47.51183" lon="-2.75757">
        <ele>59</ele>
        <time>2025-05-13T09:35:40Z</time>
      </trkpt>
      <trkpt lat="47.51186" lon="-2.75761">
        <ele>59</ele>
        <time>2025-05-13T09:35:41Z</time>
      </trkpt>
      <trkpt lat="47.51189" lon="-2.75766">
        <ele>59</ele>
        <time>2025-05-13T09:35:42Z</time>
      </trkpt>
      <trkpt lat="47.51191" lon="-2.7577">
        <ele>59</ele>
        <time>2025-05-13T09:35:43Z</time>
      </trkpt>
      <trkpt lat="47.51194" lon="-2.75775">
        <ele>58</ele>
        <time>2025-05-13T09:35:44Z</time>
      </trkpt>
      <trkpt lat="47.51196" lon="-2.7578">
        <ele>58</ele>
        <time>2025-05-13T09:35:45Z</time>
      </trkpt>
      <trkpt lat="47.51199" lon="-2.75785">
        <ele>58</ele>
        <time>2025-05-13T09:35:46Z</time>
      </trkpt>
      <trkpt lat="47.51201" lon="-2.75789">
        <ele>59</ele>
        <time>2025-05-13T09:35:47Z</time>
      </trkpt>
      <trkpt lat="47.51203" lon="-2.75794">
        <ele>58</ele>
        <time>2025-05-13T09:35:48Z</time>
      </trkpt>
      <trkpt lat="47.51205" lon="-2.75798">
        <ele>59</ele>
        <time>2025-05-13T09:35:49Z</time>
      </trkpt>
      <trkpt lat="47.51207" lon="-2.75803">
        <ele>59</ele>
        <time>2025-05-13T09:35:50Z</time>
      </trkpt>
      <trkpt lat="47.51209" lon="-2.75808">
        <ele>59</ele>
        <time>2025-05-13T09:35:51Z</time>
      </trkpt>
      <trkpt lat="47.51211" lon="-2.75812">
        <ele>59</ele>
        <time>2025-05-13T09:35:52Z</time>
      </trkpt>
      <trkpt lat="47.51213" lon="-2.75817">
        <ele>59</ele>
        <time>2025-05-13T09:35:53Z</time>
      </trkpt>
      <trkpt lat="47.51214" lon="-2.75821">
        <ele>59</ele>
        <time>2025-05-13T09:35:54Z</time>
      </trkpt>
      <trkpt lat="47.51215" lon="-2.75825">
        <ele>59</ele>
        <time>2025-05-13T09:35:55Z</time>
      </trkpt>
      <trkpt lat="47.51216" lon="-2.75829">
        <ele>59</ele>
        <time>2025-05-13T09:35:56Z</time>
      </trkpt>
      <trkpt lat="47.51217" lon="-2.75833">
        <ele>59</ele>
        <time>2025-05-13T09:35:57Z</time>
      </trkpt>
      <trkpt lat="47.51219" lon="-2.75837">
        <ele>59</ele>
        <time>2025-05-13T09:35:58Z</time>
      </trkpt>
      <trkpt lat="47.51221" lon="-2.75842">
        <ele>59</ele>
        <time>2025-05-13T09:35:59Z</time>
      </trkpt>
      <trkpt lat="47.51222" lon="-2.75846">
        <ele>59</ele>
        <time>2025-05-13T09:36:00Z</time>
      </trkpt>
      <trkpt lat="47.51223" lon="-2.75851">
        <ele>59</ele>
        <time>2025-05-13T09:36:01Z</time>
      </trkpt>
      <trkpt lat="47.51225" lon="-2.75856">
        <ele>60</ele>
        <time>2025-05-13T09:36:02Z</time>
      </trkpt>
      <trkpt lat="47.51226" lon="-2.75861">
        <ele>60</ele>
        <time>2025-05-13T09:36:03Z</time>
      </trkpt>
      <trkpt lat="47.51227" lon="-2.75866">
        <ele>60</ele>
        <time>2025-05-13T09:36:04Z</time>
      </trkpt>
      <trkpt lat="47.51228" lon="-2.75871">
        <ele>60</ele>
        <time>2025-05-13T09:36:05Z</time>
      </trkpt>
      <trkpt lat="47.51229" lon="-2.75876">
        <ele>60</ele>
        <time>2025-05-13T09:36:06Z</time>
      </trkpt>
      <trkpt lat="47.51231" lon="-2.7588">
        <ele>60</ele>
        <time>2025-05-13T09:36:07Z</time>
      </trkpt>
      <trkpt lat="47.51233" lon="-2.75884">
        <ele>60</ele>
        <time>2025-05-13T09:36:08Z</time>
      </trkpt>
      <trkpt lat="47.51234" lon="-2.75889">
        <ele>60</ele>
        <time>2025-05-13T09:36:09Z</time>
      </trkpt>
      <trkpt lat="47.51236" lon="-2.75893">
        <ele>60</ele>
        <time>2025-05-13T09:36:10Z</time>
      </trkpt>
      <trkpt lat="47.51238" lon="-2.75898">
        <ele>60</ele>
        <time>2025-05-13T09:36:11Z</time>
      </trkpt>
      <trkpt lat="47.5124" lon="-2.75902">
        <ele>60</ele>
        <time>2025-05-13T09:36:12Z</time>
      </trkpt>
      <trkpt lat="47.51241" lon="-2.75907">
        <ele>60</ele>
        <time>2025-05-13T09:36:13Z</time>
      </trkpt>
      <trkpt lat="47.51243" lon="-2.75911">
        <ele>60</ele>
        <time>2025-05-13T09:36:14Z</time>
      </trkpt>
      <trkpt lat="47.51245" lon="-2.75915">
        <ele>59</ele>
        <time>2025-05-13T09:36:15Z</time>
      </trkpt>
      <trkpt lat="47.51246" lon="-2.75919">
        <ele>59</ele>
        <time>2025-05-13T09:36:16Z</time>
      </trkpt>
      <trkpt lat="47.51248" lon="-2.75924">
        <ele>59</ele>
        <time>2025-05-13T09:36:17Z</time>
      </trkpt>
      <trkpt lat="47.5125" lon="-2.75928">
        <ele>60</ele>
        <time>2025-05-13T09:36:18Z</time>
      </trkpt>
      <trkpt lat="47.51252" lon="-2.75932">
        <ele>61</ele>
        <time>2025-05-13T09:36:19Z</time>
      </trkpt>
      <trkpt lat="47.51253" lon="-2.75937">
        <ele>61</ele>
        <time>2025-05-13T09:36:20Z</time>
      </trkpt>
      <trkpt lat="47.51255" lon="-2.75942">
        <ele>61</ele>
        <time>2025-05-13T09:36:21Z</time>
      </trkpt>
      <trkpt lat="47.51258" lon="-2.75946">
        <ele>61</ele>
        <time>2025-05-13T09:36:22Z</time>
      </trkpt>
      <trkpt lat="47.51259" lon="-2.75951">
        <ele>61</ele>
        <time>2025-05-13T09:36:23Z</time>
      </trkpt>
      <trkpt lat="47.51261" lon="-2.75956">
        <ele>61</ele>
        <time>2025-05-13T09:36:24Z</time>
      </trkpt>
      <trkpt lat="47.51263" lon="-2.7596">
        <ele>61</ele>
        <time>2025-05-13T09:36:25Z</time>
      </trkpt>
      <trkpt lat="47.51265" lon="-2.75965">
        <ele>61</ele>
        <time>2025-05-13T09:36:26Z</time>
      </trkpt>
      <trkpt lat="47.51266" lon="-2.75971">
        <ele>61</ele>
        <time>2025-05-13T09:36:27Z</time>
      </trkpt>
      <trkpt lat="47.51267" lon="-2.75976">
        <ele>61</ele>
        <time>2025-05-13T09:36:28Z</time>
      </trkpt>
      <trkpt lat="47.51269" lon="-2.75981">
        <ele>61</ele>
        <time>2025-05-13T09:36:29Z</time>
      </trkpt>
      <trkpt lat="47.51271" lon="-2.75986">
        <ele>61</ele>
        <time>2025-05-13T09:36:30Z</time>
      </trkpt>
      <trkpt lat="47.51272" lon="-2.75991">
        <ele>60</ele>
        <time>2025-05-13T09:36:31Z</time>
      </trkpt>
      <trkpt lat="47.51273" lon="-2.75997">
        <ele>60</ele>
        <time>2025-05-13T09:36:32Z</time>
      </trkpt>
      <trkpt lat="47.51275" lon="-2.76002">
        <ele>60</ele>
        <time>2025-05-13T09:36:33Z</time>
      </trkpt>
      <trkpt lat="47.51277" lon="-2.76007">
        <ele>60</ele>
        <time>2025-05-13T09:36:34Z</time>
      </trkpt>
      <trkpt lat="47.51279" lon="-2.76012">
        <ele>59</ele>
        <time>2025-05-13T09:36:35Z</time>
      </trkpt>
      <trkpt lat="47.5128" lon="-2.76016">
        <ele>59</ele>
        <time>2025-05-13T09:36:36Z</time>
      </trkpt>
      <trkpt lat="47.51282" lon="-2.76022">
        <ele>58</ele>
        <time>2025-05-13T09:36:37Z</time>
      </trkpt>
      <trkpt lat="47.51284" lon="-2.76027">
        <ele>58</ele>
        <time>2025-05-13T09:36:38Z</time>
      </trkpt>
      <trkpt lat="47.51286" lon="-2.76031">
        <ele>58</ele>
        <time>2025-05-13T09:36:39Z</time>
      </trkpt>
      <trkpt lat="47.51288" lon="-2.76036">
        <ele>59</ele>
        <time>2025-05-13T09:36:40Z</time>
      </trkpt>
      <trkpt lat="47.5129" lon="-2.76041">
        <ele>59</ele>
        <time>2025-05-13T09:36:41Z</time>
      </trkpt>
      <trkpt lat="47.51292" lon="-2.76046">
        <ele>58</ele>
        <time>2025-05-13T09:36:42Z</time>
      </trkpt>
      <trkpt lat="47.51295" lon="-2.7605">
        <ele>58</ele>
        <time>2025-05-13T09:36:43Z</time>
      </trkpt>
      <trkpt lat="47.51298" lon="-2.76055">
        <ele>58</ele>
        <time>2025-05-13T09:36:44Z</time>
      </trkpt>
      <trkpt lat="47.513" lon="-2.76058">
        <ele>58</ele>
        <time>2025-05-13T09:36:45Z</time>
      </trkpt>
      <trkpt lat="47.51303" lon="-2.76062">
        <ele>58</ele>
        <time>2025-05-13T09:36:46Z</time>
      </trkpt>
      <trkpt lat="47.51305" lon="-2.76066">
        <ele>58</ele>
        <time>2025-05-13T09:36:47Z</time>
      </trkpt>
      <trkpt lat="47.51307" lon="-2.7607">
        <ele>58</ele>
        <time>2025-05-13T09:36:48Z</time>
      </trkpt>
      <trkpt lat="47.51309" lon="-2.76074">
        <ele>58</ele>
        <time>2025-05-13T09:36:49Z</time>
      </trkpt>
      <trkpt lat="47.51311" lon="-2.76078">
        <ele>58</ele>
        <time>2025-05-13T09:36:50Z</time>
      </trkpt>
      <trkpt lat="47.51313" lon="-2.76082">
        <ele>58</ele>
        <time>2025-05-13T09:36:51Z</time>
      </trkpt>
      <trkpt lat="47.51315" lon="-2.76086">
        <ele>59</ele>
        <time>2025-05-13T09:36:52Z</time>
      </trkpt>
      <trkpt lat="47.51318" lon="-2.76091">
        <ele>58</ele>
        <time>2025-05-13T09:36:53Z</time>
      </trkpt>
      <trkpt lat="47.5132" lon="-2.76094">
        <ele>58</ele>
        <time>2025-05-13T09:36:54Z</time>
      </trkpt>
      <trkpt lat="47.51322" lon="-2.76098">
        <ele>59</ele>
        <time>2025-05-13T09:36:55Z</time>
      </trkpt>
      <trkpt lat="47.51324" lon="-2.76102">
        <ele>58</ele>
        <time>2025-05-13T09:36:56Z</time>
      </trkpt>
      <trkpt lat="47.51326" lon="-2.76107">
        <ele>58</ele>
        <time>2025-05-13T09:36:57Z</time>
      </trkpt>
      <trkpt lat="47.51328" lon="-2.7611">
        <ele>58</ele>
        <time>2025-05-13T09:36:58Z</time>
      </trkpt>
      <trkpt lat="47.51331" lon="-2.76114">
        <ele>58</ele>
        <time>2025-05-13T09:36:59Z</time>
      </trkpt>
      <trkpt lat="47.51334" lon="-2.76118">
        <ele>59</ele>
        <time>2025-05-13T09:37:00Z</time>
      </trkpt>
      <trkpt lat="47.51338" lon="-2.76121">
        <ele>59</ele>
        <time>2025-05-13T09:37:01Z</time>
      </trkpt>
      <trkpt lat="47.51341" lon="-2.76125">
        <ele>60</ele>
        <time>2025-05-13T09:37:02Z</time>
      </trkpt>
      <trkpt lat="47.51344" lon="-2.76127">
        <ele>60</ele>
        <time>2025-05-13T09:37:03Z</time>
      </trkpt>
      <trkpt lat="47.51347" lon="-2.76131">
        <ele>60</ele>
        <time>2025-05-13T09:37:04Z</time>
      </trkpt>
      <trkpt lat="47.51351" lon="-2.76134">
        <ele>61</ele>
        <time>2025-05-13T09:37:05Z</time>
      </trkpt>
      <trkpt lat="47.51354" lon="-2.76137">
        <ele>61</ele>
        <time>2025-05-13T09:37:06Z</time>
      </trkpt>
      <trkpt lat="47.51357" lon="-2.7614">
        <ele>61</ele>
        <time>2025-05-13T09:37:07Z</time>
      </trkpt>
      <trkpt lat="47.5136" lon="-2.76142">
        <ele>60</ele>
        <time>2025-05-13T09:37:08Z</time>
      </trkpt>
      <trkpt lat="47.51363" lon="-2.76144">
        <ele>60</ele>
        <time>2025-05-13T09:37:09Z</time>
      </trkpt>
      <trkpt lat="47.51366" lon="-2.76147">
        <ele>60</ele>
        <time>2025-05-13T09:37:10Z</time>
      </trkpt>
      <trkpt lat="47.51369" lon="-2.76149">
        <ele>60</ele>
        <time>2025-05-13T09:37:11Z</time>
      </trkpt>
      <trkpt lat="47.51372" lon="-2.76152">
        <ele>60</ele>
        <time>2025-05-13T09:37:12Z</time>
      </trkpt>
      <trkpt lat="47.51375" lon="-2.76155">
        <ele>60</ele>
        <time>2025-05-13T09:37:13Z</time>
      </trkpt>
      <trkpt lat="47.51379" lon="-2.76157">
        <ele>60</ele>
        <time>2025-05-13T09:37:14Z</time>
      </trkpt>
      <trkpt lat="47.51382" lon="-2.7616">
        <ele>60</ele>
        <time>2025-05-13T09:37:15Z</time>
      </trkpt>
      <trkpt lat="47.51386" lon="-2.76162">
        <ele>61</ele>
        <time>2025-05-13T09:37:16Z</time>
      </trkpt>
      <trkpt lat="47.5139" lon="-2.76164">
        <ele>61</ele>
        <time>2025-05-13T09:37:17Z</time>
      </trkpt>
      <trkpt lat="47.51393" lon="-2.76165">
        <ele>61</ele>
        <time>2025-05-13T09:37:18Z</time>
      </trkpt>
      <trkpt lat="47.51397" lon="-2.76166">
        <ele>62</ele>
        <time>2025-05-13T09:37:19Z</time>
      </trkpt>
      <trkpt lat="47.514" lon="-2.76167">
        <ele>61</ele>
        <time>2025-05-13T09:37:20Z</time>
      </trkpt>
      <trkpt lat="47.51403" lon="-2.76168">
        <ele>61</ele>
        <time>2025-05-13T09:37:21Z</time>
      </trkpt>
      <trkpt lat="47.51407" lon="-2.76168">
        <ele>61</ele>
        <time>2025-05-13T09:37:22Z</time>
      </trkpt>
      <trkpt lat="47.5141" lon="-2.76169">
        <ele>61</ele>
        <time>2025-05-13T09:37:23Z</time>
      </trkpt>
      <trkpt lat="47.51414" lon="-2.76171">
        <ele>62</ele>
        <time>2025-05-13T09:37:24Z</time>
      </trkpt>
      <trkpt lat="47.51418" lon="-2.76171">
        <ele>62</ele>
        <time>2025-05-13T09:37:25Z</time>
      </trkpt>
      <trkpt lat="47.51421" lon="-2.76171">
        <ele>62</ele>
        <time>2025-05-13T09:37:26Z</time>
      </trkpt>
      <trkpt lat="47.51425" lon="-2.76172">
        <ele>62</ele>
        <time>2025-05-13T09:37:27Z</time>
      </trkpt>
      <trkpt lat="47.51428" lon="-2.76174">
        <ele>62</ele>
        <time>2025-05-13T09:37:28Z</time>
      </trkpt>
      <trkpt lat="47.51432" lon="-2.76176">
        <ele>61</ele>
        <time>2025-05-13T09:37:29Z</time>
      </trkpt>
      <trkpt lat="47.51436" lon="-2.76177">
        <ele>61</ele>
        <time>2025-05-13T09:37:30Z</time>
      </trkpt>
      <trkpt lat="47.5144" lon="-2.76179">
        <ele>62</ele>
        <time>2025-05-13T09:37:31Z</time>
      </trkpt>
      <trkpt lat="47.51444" lon="-2.7618">
        <ele>62</ele>
        <time>2025-05-13T09:37:32Z</time>
      </trkpt>
      <trkpt lat="47.51448" lon="-2.76182">
        <ele>62</ele>
        <time>2025-05-13T09:37:33Z</time>
      </trkpt>
      <trkpt lat="47.51451" lon="-2.76184">
        <ele>61</ele>
        <time>2025-05-13T09:37:34Z</time>
      </trkpt>
      <trkpt lat="47.51454" lon="-2.76186">
        <ele>61</ele>
        <time>2025-05-13T09:37:35Z</time>
      </trkpt>
      <trkpt lat="47.51458" lon="-2.76188">
        <ele>61</ele>
        <time>2025-05-13T09:37:36Z</time>
      </trkpt>
      <trkpt lat="47.51462" lon="-2.76189">
        <ele>60</ele>
        <time>2025-05-13T09:37:37Z</time>
      </trkpt>
      <trkpt lat="47.51465" lon="-2.76191">
        <ele>59</ele>
        <time>2025-05-13T09:37:38Z</time>
      </trkpt>
      <trkpt lat="47.51469" lon="-2.76194">
        <ele>59</ele>
        <time>2025-05-13T09:37:39Z</time>
      </trkpt>
      <trkpt lat="47.51473" lon="-2.76197">
        <ele>59</ele>
        <time>2025-05-13T09:37:40Z</time>
      </trkpt>
      <trkpt lat="47.51476" lon="-2.76199">
        <ele>59</ele>
        <time>2025-05-13T09:37:41Z</time>
      </trkpt>
      <trkpt lat="47.5148" lon="-2.76202">
        <ele>60</ele>
        <time>2025-05-13T09:37:42Z</time>
      </trkpt>
      <trkpt lat="47.51483" lon="-2.76204">
        <ele>60</ele>
        <time>2025-05-13T09:37:43Z</time>
      </trkpt>
      <trkpt lat="47.51487" lon="-2.76206">
        <ele>60</ele>
        <time>2025-05-13T09:37:44Z</time>
      </trkpt>
      <trkpt lat="47.5149" lon="-2.76208">
        <ele>60</ele>
        <time>2025-05-13T09:37:45Z</time>
      </trkpt>
      <trkpt lat="47.51494" lon="-2.76209">
        <ele>60</ele>
        <time>2025-05-13T09:37:46Z</time>
      </trkpt>
      <trkpt lat="47.51497" lon="-2.76211">
        <ele>60</ele>
        <time>2025-05-13T09:37:47Z</time>
      </trkpt>
      <trkpt lat="47.51501" lon="-2.76212">
        <ele>60</ele>
        <time>2025-05-13T09:37:48Z</time>
      </trkpt>
      <trkpt lat="47.51505" lon="-2.76213">
        <ele>60</ele>
        <time>2025-05-13T09:37:49Z</time>
      </trkpt>
      <trkpt lat="47.51509" lon="-2.76215">
        <ele>60</ele>
        <time>2025-05-13T09:37:50Z</time>
      </trkpt>
      <trkpt lat="47.51513" lon="-2.76217">
        <ele>60</ele>
        <time>2025-05-13T09:37:51Z</time>
      </trkpt>
      <trkpt lat="47.51518" lon="-2.76219">
        <ele>60</ele>
        <time>2025-05-13T09:37:52Z</time>
      </trkpt>
      <trkpt lat="47.51521" lon="-2.76221">
        <ele>59</ele>
        <time>2025-05-13T09:37:53Z</time>
      </trkpt>
      <trkpt lat="47.51525" lon="-2.76224">
        <ele>59</ele>
        <time>2025-05-13T09:37:54Z</time>
      </trkpt>
      <trkpt lat="47.51529" lon="-2.76227">
        <ele>60</ele>
        <time>2025-05-13T09:37:55Z</time>
      </trkpt>
      <trkpt lat="47.51532" lon="-2.7623">
        <ele>60</ele>
        <time>2025-05-13T09:37:56Z</time>
      </trkpt>
      <trkpt lat="47.51535" lon="-2.76233">
        <ele>60</ele>
        <time>2025-05-13T09:37:57Z</time>
      </trkpt>
      <trkpt lat="47.51538" lon="-2.76237">
        <ele>60</ele>
        <time>2025-05-13T09:37:58Z</time>
      </trkpt>
      <trkpt lat="47.51541" lon="-2.76241">
        <ele>60</ele>
        <time>2025-05-13T09:37:59Z</time>
      </trkpt>
      <trkpt lat="47.51545" lon="-2.76245">
        <ele>60</ele>
        <time>2025-05-13T09:38:00Z</time>
      </trkpt>
      <trkpt lat="47.51547" lon="-2.76249">
        <ele>60</ele>
        <time>2025-05-13T09:38:01Z</time>
      </trkpt>
      <trkpt lat="47.5155" lon="-2.76253">
        <ele>61</ele>
        <time>2025-05-13T09:38:02Z</time>
      </trkpt>
      <trkpt lat="47.51553" lon="-2.76258">
        <ele>61</ele>
        <time>2025-05-13T09:38:03Z</time>
      </trkpt>
      <trkpt lat="47.51555" lon="-2.76263">
        <ele>62</ele>
        <time>2025-05-13T09:38:04Z</time>
      </trkpt>
      <trkpt lat="47.51557" lon="-2.76268">
        <ele>61</ele>
        <time>2025-05-13T09:38:05Z</time>
      </trkpt>
      <trkpt lat="47.51559" lon="-2.76273">
        <ele>61</ele>
        <time>2025-05-13T09:38:06Z</time>
      </trkpt>
      <trkpt lat="47.51561" lon="-2.76279">
        <ele>61</ele>
        <time>2025-05-13T09:38:07Z</time>
      </trkpt>
      <trkpt lat="47.51563" lon="-2.76285">
        <ele>60</ele>
        <time>2025-05-13T09:38:08Z</time>
      </trkpt>
      <trkpt lat="47.51564" lon="-2.76291">
        <ele>60</ele>
        <time>2025-05-13T09:38:09Z</time>
      </trkpt>
      <trkpt lat="47.51566" lon="-2.76298">
        <ele>61</ele>
        <time>2025-05-13T09:38:10Z</time>
      </trkpt>
      <trkpt lat="47.51568" lon="-2.76305">
        <ele>60</ele>
        <time>2025-05-13T09:38:11Z</time>
      </trkpt>
      <trkpt lat="47.51569" lon="-2.7631">
        <ele>60</ele>
        <time>2025-05-13T09:38:12Z</time>
      </trkpt>
      <trkpt lat="47.51571" lon="-2.76316">
        <ele>60</ele>
        <time>2025-05-13T09:38:13Z</time>
      </trkpt>
      <trkpt lat="47.51572" lon="-2.76322">
        <ele>59</ele>
        <time>2025-05-13T09:38:14Z</time>
      </trkpt>
      <trkpt lat="47.51574" lon="-2.76328">
        <ele>59</ele>
        <time>2025-05-13T09:38:15Z</time>
      </trkpt>
      <trkpt lat="47.51575" lon="-2.76335">
        <ele>59</ele>
        <time>2025-05-13T09:38:16Z</time>
      </trkpt>
      <trkpt lat="47.51576" lon="-2.76341">
        <ele>59</ele>
        <time>2025-05-13T09:38:17Z</time>
      </trkpt>
      <trkpt lat="47.51577" lon="-2.76347">
        <ele>59</ele>
        <time>2025-05-13T09:38:18Z</time>
      </trkpt>
      <trkpt lat="47.51578" lon="-2.76352">
        <ele>60</ele>
        <time>2025-05-13T09:38:19Z</time>
      </trkpt>
      <trkpt lat="47.51579" lon="-2.76358">
        <ele>60</ele>
        <time>2025-05-13T09:38:20Z</time>
      </trkpt>
      <trkpt lat="47.5158" lon="-2.76364">
        <ele>61</ele>
        <time>2025-05-13T09:38:21Z</time>
      </trkpt>
      <trkpt lat="47.5158" lon="-2.7637">
        <ele>61</ele>
        <time>2025-05-13T09:38:22Z</time>
      </trkpt>
      <trkpt lat="47.51581" lon="-2.76377">
        <ele>61</ele>
        <time>2025-05-13T09:38:23Z</time>
      </trkpt>
      <trkpt lat="47.51582" lon="-2.76383">
        <ele>60</ele>
        <time>2025-05-13T09:38:24Z</time>
      </trkpt>
      <trkpt lat="47.51583" lon="-2.7639">
        <ele>60</ele>
        <time>2025-05-13T09:38:25Z</time>
      </trkpt>
      <trkpt lat="47.51583" lon="-2.76396">
        <ele>60</ele>
        <time>2025-05-13T09:38:26Z</time>
      </trkpt>
      <trkpt lat="47.51585" lon="-2.76402">
        <ele>60</ele>
        <time>2025-05-13T09:38:27Z</time>
      </trkpt>
      <trkpt lat="47.51585" lon="-2.76409">
        <ele>59</ele>
        <time>2025-05-13T09:38:28Z</time>
      </trkpt>
      <trkpt lat="47.51586" lon="-2.76415">
        <ele>59</ele>
        <time>2025-05-13T09:38:29Z</time>
      </trkpt>
      <trkpt lat="47.51586" lon="-2.76422">
        <ele>59</ele>
        <time>2025-05-13T09:38:30Z</time>
      </trkpt>
      <trkpt lat="47.51587" lon="-2.76428">
        <ele>59</ele>
        <time>2025-05-13T09:38:31Z</time>
      </trkpt>
      <trkpt lat="47.51588" lon="-2.76434">
        <ele>59</ele>
        <time>2025-05-13T09:38:32Z</time>
      </trkpt>
      <trkpt lat="47.51588" lon="-2.7644">
        <ele>60</ele>
        <time>2025-05-13T09:38:33Z</time>
      </trkpt>
      <trkpt lat="47.51589" lon="-2.76446">
        <ele>60</ele>
        <time>2025-05-13T09:38:34Z</time>
      </trkpt>
      <trkpt lat="47.51589" lon="-2.76453">
        <ele>60</ele>
        <time>2025-05-13T09:38:35Z</time>
      </trkpt>
      <trkpt lat="47.5159" lon="-2.76458">
        <ele>60</ele>
        <time>2025-05-13T09:38:36Z</time>
      </trkpt>
      <trkpt lat="47.51591" lon="-2.76464">
        <ele>60</ele>
        <time>2025-05-13T09:38:37Z</time>
      </trkpt>
      <trkpt lat="47.51591" lon="-2.7647">
        <ele>60</ele>
        <time>2025-05-13T09:38:38Z</time>
      </trkpt>
      <trkpt lat="47.51591" lon="-2.76476">
        <ele>60</ele>
        <time>2025-05-13T09:38:39Z</time>
      </trkpt>
      <trkpt lat="47.51591" lon="-2.76482">
        <ele>60</ele>
        <time>2025-05-13T09:38:40Z</time>
      </trkpt>
      <trkpt lat="47.51591" lon="-2.76487">
        <ele>60</ele>
        <time>2025-05-13T09:38:41Z</time>
      </trkpt>
      <trkpt lat="47.5159" lon="-2.76493">
        <ele>60</ele>
        <time>2025-05-13T09:38:42Z</time>
      </trkpt>
      <trkpt lat="47.51589" lon="-2.76497">
        <ele>60</ele>
        <time>2025-05-13T09:38:43Z</time>
      </trkpt>
      <trkpt lat="47.51588" lon="-2.76501">
        <ele>60</ele>
        <time>2025-05-13T09:38:44Z</time>
      </trkpt>
      <trkpt lat="47.51588" lon="-2.76505">
        <ele>61</ele>
        <time>2025-05-13T09:38:45Z</time>
      </trkpt>
      <trkpt lat="47.51587" lon="-2.76509">
        <ele>61</ele>
        <time>2025-05-13T09:38:46Z</time>
      </trkpt>
      <trkpt lat="47.51586" lon="-2.76512">
        <ele>61</ele>
        <time>2025-05-13T09:38:47Z</time>
      </trkpt>
      <trkpt lat="47.51585" lon="-2.76515">
        <ele>61</ele>
        <time>2025-05-13T09:38:48Z</time>
      </trkpt>
      <trkpt lat="47.51585" lon="-2.76519">
        <ele>61</ele>
        <time>2025-05-13T09:38:49Z</time>
      </trkpt>
      <trkpt lat="47.51584" lon="-2.76522">
        <ele>60</ele>
        <time>2025-05-13T09:38:50Z</time>
      </trkpt>
      <trkpt lat="47.51584" lon="-2.76525">
        <ele>60</ele>
        <time>2025-05-13T09:38:51Z</time>
      </trkpt>
      <trkpt lat="47.51584" lon="-2.76529">
        <ele>60</ele>
        <time>2025-05-13T09:38:52Z</time>
      </trkpt>
      <trkpt lat="47.51584" lon="-2.76533">
        <ele>60</ele>
        <time>2025-05-13T09:38:53Z</time>
      </trkpt>
      <trkpt lat="47.51583" lon="-2.76537">
        <ele>60</ele>
        <time>2025-05-13T09:38:54Z</time>
      </trkpt>
      <trkpt lat="47.51582" lon="-2.76542">
        <ele>59</ele>
        <time>2025-05-13T09:38:55Z</time>
      </trkpt>
      <trkpt lat="47.51581" lon="-2.76547">
        <ele>60</ele>
        <time>2025-05-13T09:38:56Z</time>
      </trkpt>
      <trkpt lat="47.51579" lon="-2.76553">
        <ele>60</ele>
        <time>2025-05-13T09:38:57Z</time>
      </trkpt>
      <trkpt lat="47.51578" lon="-2.76558">
        <ele>60</ele>
        <time>2025-05-13T09:38:58Z</time>
      </trkpt>
      <trkpt lat="47.51577" lon="-2.76564">
        <ele>60</ele>
        <time>2025-05-13T09:38:59Z</time>
      </trkpt>
      <trkpt lat="47.51575" lon="-2.76568">
        <ele>60</ele>
        <time>2025-05-13T09:39:00Z</time>
      </trkpt>
      <trkpt lat="47.51574" lon="-2.76573">
        <ele>60</ele>
        <time>2025-05-13T09:39:01Z</time>
      </trkpt>
      <trkpt lat="47.51573" lon="-2.76577">
        <ele>60</ele>
        <time>2025-05-13T09:39:02Z</time>
      </trkpt>
      <trkpt lat="47.51572" lon="-2.76582">
        <ele>60</ele>
        <time>2025-05-13T09:39:03Z</time>
      </trkpt>
      <trkpt lat="47.51571" lon="-2.76587">
        <ele>60</ele>
        <time>2025-05-13T09:39:04Z</time>
      </trkpt>
      <trkpt lat="47.5157" lon="-2.76591">
        <ele>59</ele>
        <time>2025-05-13T09:39:05Z</time>
      </trkpt>
      <trkpt lat="47.51568" lon="-2.76595">
        <ele>59</ele>
        <time>2025-05-13T09:39:06Z</time>
      </trkpt>
      <trkpt lat="47.51567" lon="-2.76599">
        <ele>59</ele>
        <time>2025-05-13T09:39:07Z</time>
      </trkpt>
      <trkpt lat="47.51566" lon="-2.76604">
        <ele>60</ele>
        <time>2025-05-13T09:39:08Z</time>
      </trkpt>
      <trkpt lat="47.51565" lon="-2.76608">
        <ele>60</ele>
        <time>2025-05-13T09:39:09Z</time>
      </trkpt>
      <trkpt lat="47.51565" lon="-2.76612">
        <ele>60</ele>
        <time>2025-05-13T09:39:10Z</time>
      </trkpt>
      <trkpt lat="47.51566" lon="-2.76616">
        <ele>59</ele>
        <time>2025-05-13T09:39:11Z</time>
      </trkpt>
      <trkpt lat="47.51567" lon="-2.7662">
        <ele>59</ele>
        <time>2025-05-13T09:39:12Z</time>
      </trkpt>
      <trkpt lat="47.51567" lon="-2.76622">
        <ele>59</ele>
        <time>2025-05-13T09:39:13Z</time>
      </trkpt>
      <trkpt lat="47.51569" lon="-2.76624">
        <ele>59</ele>
        <time>2025-05-13T09:39:14Z</time>
      </trkpt>
      <trkpt lat="47.51571" lon="-2.76624">
        <ele>59</ele>
        <time>2025-05-13T09:39:15Z</time>
      </trkpt>
      <trkpt lat="47.51574" lon="-2.76623">
        <ele>60</ele>
        <time>2025-05-13T09:39:16Z</time>
      </trkpt>
      <trkpt lat="47.51577" lon="-2.76624">
        <ele>60</ele>
        <time>2025-05-13T09:39:17Z</time>
      </trkpt>
      <trkpt lat="47.5158" lon="-2.76626">
        <ele>60</ele>
        <time>2025-05-13T09:39:18Z</time>
      </trkpt>
      <trkpt lat="47.51583" lon="-2.7663">
        <ele>60</ele>
        <time>2025-05-13T09:39:19Z</time>
      </trkpt>
      <trkpt lat="47.51585" lon="-2.76633">
        <ele>61</ele>
        <time>2025-05-13T09:39:20Z</time>
      </trkpt>
      <trkpt lat="47.51589" lon="-2.76635">
        <ele>61</ele>
        <time>2025-05-13T09:39:21Z</time>
      </trkpt>
      <trkpt lat="47.51593" lon="-2.76637">
        <ele>61</ele>
        <time>2025-05-13T09:39:22Z</time>
      </trkpt>
      <trkpt lat="47.51596" lon="-2.76639">
        <ele>61</ele>
        <time>2025-05-13T09:39:23Z</time>
      </trkpt>
      <trkpt lat="47.516" lon="-2.76642">
        <ele>61</ele>
        <time>2025-05-13T09:39:24Z</time>
      </trkpt>
      <trkpt lat="47.51604" lon="-2.76644">
        <ele>61</ele>
        <time>2025-05-13T09:39:25Z</time>
      </trkpt>
      <trkpt lat="47.51607" lon="-2.76646">
        <ele>60</ele>
        <time>2025-05-13T09:39:26Z</time>
      </trkpt>
      <trkpt lat="47.5161" lon="-2.76649">
        <ele>60</ele>
        <time>2025-05-13T09:39:27Z</time>
      </trkpt>
      <trkpt lat="47.51613" lon="-2.76652">
        <ele>60</ele>
        <time>2025-05-13T09:39:28Z</time>
      </trkpt>
      <trkpt lat="47.51616" lon="-2.76654">
        <ele>60</ele>
        <time>2025-05-13T09:39:29Z</time>
      </trkpt>
      <trkpt lat="47.51619" lon="-2.76657">
        <ele>60</ele>
        <time>2025-05-13T09:39:30Z</time>
      </trkpt>
      <trkpt lat="47.51623" lon="-2.7666">
        <ele>60</ele>
        <time>2025-05-13T09:39:31Z</time>
      </trkpt>
      <trkpt lat="47.51626" lon="-2.76663">
        <ele>60</ele>
        <time>2025-05-13T09:39:32Z</time>
      </trkpt>
      <trkpt lat="47.51629" lon="-2.76666">
        <ele>60</ele>
        <time>2025-05-13T09:39:33Z</time>
      </trkpt>
      <trkpt lat="47.51632" lon="-2.7667">
        <ele>60</ele>
        <time>2025-05-13T09:39:34Z</time>
      </trkpt>
      <trkpt lat="47.51635" lon="-2.76673">
        <ele>60</ele>
        <time>2025-05-13T09:39:35Z</time>
      </trkpt>
      <trkpt lat="47.51638" lon="-2.76675">
        <ele>60</ele>
        <time>2025-05-13T09:39:36Z</time>
      </trkpt>
      <trkpt lat="47.5164" lon="-2.76678">
        <ele>60</ele>
        <time>2025-05-13T09:39:37Z</time>
      </trkpt>
      <trkpt lat="47.51643" lon="-2.7668">
        <ele>60</ele>
        <time>2025-05-13T09:39:38Z</time>
      </trkpt>
      <trkpt lat="47.51645" lon="-2.76683">
        <ele>60</ele>
        <time>2025-05-13T09:39:39Z</time>
      </trkpt>
      <trkpt lat="47.51648" lon="-2.76686">
        <ele>60</ele>
        <time>2025-05-13T09:39:40Z</time>
      </trkpt>
      <trkpt lat="47.5165" lon="-2.76688">
        <ele>60</ele>
        <time>2025-05-13T09:39:41Z</time>
      </trkpt>
      <trkpt lat="47.51652" lon="-2.76691">
        <ele>60</ele>
        <time>2025-05-13T09:39:42Z</time>
      </trkpt>
      <trkpt lat="47.51653" lon="-2.76694">
        <ele>61</ele>
        <time>2025-05-13T09:39:43Z</time>
      </trkpt>
      <trkpt lat="47.51655" lon="-2.76697">
        <ele>60</ele>
        <time>2025-05-13T09:39:44Z</time>
      </trkpt>
      <trkpt lat="47.51657" lon="-2.76699">
        <ele>61</ele>
        <time>2025-05-13T09:39:45Z</time>
      </trkpt>
      <trkpt lat="47.51659" lon="-2.76701">
        <ele>61</ele>
        <time>2025-05-13T09:39:46Z</time>
      </trkpt>
      <trkpt lat="47.51661" lon="-2.76704">
        <ele>61</ele>
        <time>2025-05-13T09:39:47Z</time>
      </trkpt>
      <trkpt lat="47.51662" lon="-2.76707">
        <ele>62</ele>
        <time>2025-05-13T09:39:48Z</time>
      </trkpt>
      <trkpt lat="47.51662" lon="-2.76711">
        <ele>61</ele>
        <time>2025-05-13T09:39:49Z</time>
      </trkpt>
      <trkpt lat="47.51663" lon="-2.76715">
        <ele>62</ele>
        <time>2025-05-13T09:39:50Z</time>
      </trkpt>
      <trkpt lat="47.51663" lon="-2.76718">
        <ele>61</ele>
        <time>2025-05-13T09:39:51Z</time>
      </trkpt>
      <trkpt lat="47.51663" lon="-2.76722">
        <ele>61</ele>
        <time>2025-05-13T09:39:52Z</time>
      </trkpt>
      <trkpt lat="47.51664" lon="-2.76725">
        <ele>61</ele>
        <time>2025-05-13T09:39:53Z</time>
      </trkpt>
      <trkpt lat="47.51666" lon="-2.76727">
        <ele>61</ele>
        <time>2025-05-13T09:39:54Z</time>
      </trkpt>
      <trkpt lat="47.51667" lon="-2.76729">
        <ele>62</ele>
        <time>2025-05-13T09:39:55Z</time>
      </trkpt>
      <trkpt lat="47.51669" lon="-2.76731">
        <ele>62</ele>
        <time>2025-05-13T09:39:56Z</time>
      </trkpt>
      <trkpt lat="47.5167" lon="-2.76734">
        <ele>62</ele>
        <time>2025-05-13T09:39:57Z</time>
      </trkpt>
      <trkpt lat="47.5167" lon="-2.76736">
        <ele>62</ele>
        <time>2025-05-13T09:39:58Z</time>
      </trkpt>
      <trkpt lat="47.5167" lon="-2.76738">
        <ele>62</ele>
        <time>2025-05-13T09:39:59Z</time>
      </trkpt>
      <trkpt lat="47.51669" lon="-2.76739">
        <ele>62</ele>
        <time>2025-05-13T09:40:00Z</time>
      </trkpt>
      <trkpt lat="47.51669" lon="-2.76739">
        <ele>62</ele>
        <time>2025-05-13T09:40:01Z</time>
      </trkpt>
      <trkpt lat="47.51669" lon="-2.76739">
        <ele>62</ele>
        <time>2025-05-13T09:40:02Z</time>
      </trkpt>
      <trkpt lat="47.51669" lon="-2.76739">
        <ele>62</ele>
        <time>2025-05-13T09:40:03Z</time>
      </trkpt>
      <trkpt lat="47.51669" lon="-2.76739">
        <ele>62</ele>
        <time>2025-05-13T09:40:04Z</time>
      </trkpt>
      <trkpt lat="47.51669" lon="-2.76739">
        <ele>62</ele>
        <time>2025-05-13T09:40:05Z</time>
      </trkpt>
      <trkpt lat="47.51669" lon="-2.76739">
        <ele>62</ele>
        <time>2025-05-13T09:40:06Z</time>
      </trkpt>
      <trkpt lat="47.51669" lon="-2.76739">
        <ele>62</ele>
        <time>2025-05-13T09:40:07Z</time>
      </trkpt>
      <trkpt lat="47.51669" lon="-2.76739">
        <ele>62</ele>
        <time>2025-05-13T09:40:08Z</time>
      </trkpt>
      <trkpt lat="47.51669" lon="-2.76739">
        <ele>62</ele>
        <time>2025-05-13T09:40:09Z</time>
      </trkpt>
      <trkpt lat="47.51669" lon="-2.76739">
        <ele>62</ele>
        <time>2025-05-13T09:40:10Z</time>
      </trkpt>
      <trkpt lat="47.51669" lon="-2.76739">
        <ele>62</ele>
        <time>2025-05-13T09:40:11Z</time>
      </trkpt>
      <trkpt lat="47.51669" lon="-2.76739">
        <ele>62</ele>
        <time>2025-05-13T09:40:12Z</time>
      </trkpt>
      <trkpt lat="47.51669" lon="-2.76739">
        <ele>62</ele>
        <time>2025-05-13T09:40:13Z</time>
      </trkpt>
      <trkpt lat="47.51669" lon="-2.76739">
        <ele>62</ele>
        <time>2025-05-13T09:40:14Z</time>
      </trkpt>
      <trkpt lat="47.51669" lon="-2.76739">
        <ele>62</ele>
        <time>2025-05-13T09:40:15Z</time>
      </trkpt>
      <trkpt lat="47.51669" lon="-2.76739">
        <ele>62</ele>
        <time>2025-05-13T09:40:16Z</time>
      </trkpt>
      <trkpt lat="47.51669" lon="-2.76739">
        <ele>62</ele>
        <time>2025-05-13T09:40:17Z</time>
      </trkpt>
      <trkpt lat="47.51669" lon="-2.76739">
        <ele>62</ele>
        <time>2025-05-13T09:40:18Z</time>
      </trkpt>
      <trkpt lat="47.51669" lon="-2.76739">
        <ele>62</ele>
        <time>2025-05-13T09:40:19Z</time>
      </trkpt>
      <trkpt lat="47.51669" lon="-2.76739">
        <ele>62</ele>
        <time>2025-05-13T09:40:20Z</time>
      </trkpt>
      <trkpt lat="47.51669" lon="-2.76739">
        <ele>62</ele>
        <time>2025-05-13T09:40:21Z</time>
      </trkpt>
      <trkpt lat="47.51669" lon="-2.76739">
        <ele>62</ele>
        <time>2025-05-13T09:40:22Z</time>
      </trkpt>
      <trkpt lat="47.51669" lon="-2.76739">
        <ele>62</ele>
        <time>2025-05-13T09:40:23Z</time>
      </trkpt>
      <trkpt lat="47.51669" lon="-2.76739">
        <ele>62</ele>
        <time>2025-05-13T09:40:24Z</time>
      </trkpt>
      <trkpt lat="47.51669" lon="-2.76739">
        <ele>62</ele>
        <time>2025-05-13T09:40:25Z</time>
      </trkpt>
      <trkpt lat="47.51669" lon="-2.76739">
        <ele>62</ele>
        <time>2025-05-13T09:40:26Z</time>
      </trkpt>
      <trkpt lat="47.51669" lon="-2.76739">
        <ele>62</ele>
        <time>2025-05-13T09:40:27Z</time>
      </trkpt>
      <trkpt lat="47.51669" lon="-2.76739">
        <ele>62</ele>
        <time>2025-05-13T09:40:28Z</time>
      </trkpt>
      <trkpt lat="47.51669" lon="-2.76739">
        <ele>62</ele>
        <time>2025-05-13T09:40:29Z</time>
      </trkpt>
      <trkpt lat="47.51669" lon="-2.76739">
        <ele>62</ele>
        <time>2025-05-13T09:40:30Z</time>
      </trkpt>
      <trkpt lat="47.51669" lon="-2.76739">
        <ele>62</ele>
        <time>2025-05-13T09:40:31Z</time>
      </trkpt>
      <trkpt lat="47.51669" lon="-2.76739">
        <ele>62</ele>
        <time>2025-05-13T09:40:32Z</time>
      </trkpt>
      <trkpt lat="47.51669" lon="-2.76739">
        <ele>62</ele>
        <time>2025-05-13T09:40:33Z</time>
      </trkpt>
      <trkpt lat="47.51669" lon="-2.76739">
        <ele>62</ele>
        <time>2025-05-13T09:40:34Z</time>
      </trkpt>
      <trkpt lat="47.51669" lon="-2.76739">
        <ele>62</ele>
        <time>2025-05-13T09:40:35Z</time>
      </trkpt>
      <trkpt lat="47.51669" lon="-2.76739">
        <ele>62</ele>
        <time>2025-05-13T09:40:36Z</time>
      </trkpt>
      <trkpt lat="47.51669" lon="-2.76739">
        <ele>62</ele>
        <time>2025-05-13T09:40:37Z</time>
      </trkpt>
      <trkpt lat="47.51669" lon="-2.76739">
        <ele>62</ele>
        <time>2025-05-13T09:40:38Z</time>
      </trkpt>
      <trkpt lat="47.51669" lon="-2.76739">
        <ele>62</ele>
        <time>2025-05-13T09:40:39Z</time>
      </trkpt>
      <trkpt lat="47.51669" lon="-2.76739">
        <ele>62</ele>
        <time>2025-05-13T09:40:40Z</time>
      </trkpt>
      <trkpt lat="47.51669" lon="-2.76739">
        <ele>62</ele>
        <time>2025-05-13T09:40:41Z</time>
      </trkpt>
      <trkpt lat="47.51669" lon="-2.76739">
        <ele>62</ele>
        <time>2025-05-13T09:40:42Z</time>
      </trkpt>
      <trkpt lat="47.51669" lon="-2.76739">
        <ele>62</ele>
        <time>2025-05-13T09:40:43Z</time>
      </trkpt>
      <trkpt lat="47.51669" lon="-2.76739">
        <ele>62</ele>
        <time>2025-05-13T09:40:44Z</time>
      </trkpt>
      <trkpt lat="47.51669" lon="-2.76739">
        <ele>62</ele>
        <time>2025-05-13T09:40:45Z</time>
      </trkpt>
      <trkpt lat="47.51669" lon="-2.76739">
        <ele>62</ele>
        <time>2025-05-13T09:40:46Z</time>
      </trkpt>
      <trkpt lat="47.51669" lon="-2.76739">
        <ele>62</ele>
        <time>2025-05-13T09:40:47Z</time>
      </trkpt>
      <trkpt lat="47.51669" lon="-2.76739">
        <ele>62</ele>
        <time>2025-05-13T09:40:48Z</time>
      </trkpt>
      <trkpt lat="47.51667" lon="-2.76741">
        <ele>62</ele>
        <time>2025-05-13T09:40:49Z</time>
      </trkpt>
      <trkpt lat="47.51666" lon="-2.76739">
        <ele>62</ele>
        <time>2025-05-13T09:40:50Z</time>
      </trkpt>
      <trkpt lat="47.51666" lon="-2.76736">
        <ele>62</ele>
        <time>2025-05-13T09:40:51Z</time>
      </trkpt>
      <trkpt lat="47.51665" lon="-2.76733">
        <ele>62</ele>
        <time>2025-05-13T09:40:52Z</time>
      </trkpt>
      <trkpt lat="47.51664" lon="-2.76729">
        <ele>62</ele>
        <time>2025-05-13T09:40:53Z</time>
      </trkpt>
      <trkpt lat="47.51662" lon="-2.76727">
        <ele>62</ele>
        <time>2025-05-13T09:40:54Z</time>
      </trkpt>
      <trkpt lat="47.51659" lon="-2.76727">
        <ele>62</ele>
        <time>2025-05-13T09:40:55Z</time>
      </trkpt>
      <trkpt lat="47.51657" lon="-2.76729">
        <ele>62</ele>
        <time>2025-05-13T09:40:56Z</time>
      </trkpt>
      <trkpt lat="47.51655" lon="-2.76731">
        <ele>62</ele>
        <time>2025-05-13T09:40:57Z</time>
      </trkpt>
      <trkpt lat="47.51653" lon="-2.76733">
        <ele>63</ele>
        <time>2025-05-13T09:40:58Z</time>
      </trkpt>
      <trkpt lat="47.51652" lon="-2.76736">
        <ele>63</ele>
        <time>2025-05-13T09:40:59Z</time>
      </trkpt>
      <trkpt lat="47.51651" lon="-2.76739">
        <ele>63</ele>
        <time>2025-05-13T09:41:00Z</time>
      </trkpt>
      <trkpt lat="47.5165" lon="-2.76741">
        <ele>63</ele>
        <time>2025-05-13T09:41:01Z</time>
      </trkpt>
      <trkpt lat="47.51648" lon="-2.76743">
        <ele>63</ele>
        <time>2025-05-13T09:41:02Z</time>
      </trkpt>
      <trkpt lat="47.51647" lon="-2.76745">
        <ele>62</ele>
        <time>2025-05-13T09:41:03Z</time>
      </trkpt>
      <trkpt lat="47.51646" lon="-2.76748">
        <ele>62</ele>
        <time>2025-05-13T09:41:04Z</time>
      </trkpt>
      <trkpt lat="47.51645" lon="-2.7675">
        <ele>61</ele>
        <time>2025-05-13T09:41:05Z</time>
      </trkpt>
      <trkpt lat="47.51645" lon="-2.76753">
        <ele>62</ele>
        <time>2025-05-13T09:41:06Z</time>
      </trkpt>
      <trkpt lat="47.51644" lon="-2.76756">
        <ele>61</ele>
        <time>2025-05-13T09:41:07Z</time>
      </trkpt>
      <trkpt lat="47.51643" lon="-2.76759">
        <ele>61</ele>
        <time>2025-05-13T09:41:08Z</time>
      </trkpt>
      <trkpt lat="47.51642" lon="-2.76762">
        <ele>61</ele>
        <time>2025-05-13T09:41:09Z</time>
      </trkpt>
      <trkpt lat="47.51641" lon="-2.76764">
        <ele>62</ele>
        <time>2025-05-13T09:41:10Z</time>
      </trkpt>
      <trkpt lat="47.5164" lon="-2.76766">
        <ele>62</ele>
        <time>2025-05-13T09:41:11Z</time>
      </trkpt>
      <trkpt lat="47.5164" lon="-2.76768">
        <ele>62</ele>
        <time>2025-05-13T09:41:12Z</time>
      </trkpt>
      <trkpt lat="47.5164" lon="-2.76771">
        <ele>62</ele>
        <time>2025-05-13T09:41:13Z</time>
      </trkpt>
      <trkpt lat="47.51639" lon="-2.76774">
        <ele>62</ele>
        <time>2025-05-13T09:41:14Z</time>
      </trkpt>
      <trkpt lat="47.51637" lon="-2.76776">
        <ele>62</ele>
        <time>2025-05-13T09:41:15Z</time>
      </trkpt>
      <trkpt lat="47.51636" lon="-2.76779">
        <ele>63</ele>
        <time>2025-05-13T09:41:16Z</time>
      </trkpt>
      <trkpt lat="47.51635" lon="-2.76781">
        <ele>63</ele>
        <time>2025-05-13T09:41:17Z</time>
      </trkpt>
      <trkpt lat="47.51634" lon="-2.76784">
        <ele>62</ele>
        <time>2025-05-13T09:41:18Z</time>
      </trkpt>
      <trkpt lat="47.51633" lon="-2.76786">
        <ele>62</ele>
        <time>2025-05-13T09:41:19Z</time>
      </trkpt>
      <trkpt lat="47.51632" lon="-2.76789">
        <ele>62</ele>
        <time>2025-05-13T09:41:20Z</time>
      </trkpt>
      <trkpt lat="47.51631" lon="-2.76792">
        <ele>62</ele>
        <time>2025-05-13T09:41:21Z</time>
      </trkpt>
      <trkpt lat="47.51629" lon="-2.76795">
        <ele>62</ele>
        <time>2025-05-13T09:41:22Z</time>
      </trkpt>
      <trkpt lat="47.51628" lon="-2.76797">
        <ele>62</ele>
        <time>2025-05-13T09:41:23Z</time>
      </trkpt>
      <trkpt lat="47.51627" lon="-2.768">
        <ele>62</ele>
        <time>2025-05-13T09:41:24Z</time>
      </trkpt>
      <trkpt lat="47.51625" lon="-2.76803">
        <ele>62</ele>
        <time>2025-05-13T09:41:25Z</time>
      </trkpt>
      <trkpt lat="47.51623" lon="-2.76806">
        <ele>62</ele>
        <time>2025-05-13T09:41:26Z</time>
      </trkpt>
      <trkpt lat="47.51622" lon="-2.76808">
        <ele>62</ele>
        <time>2025-05-13T09:41:27Z</time>
      </trkpt>
      <trkpt lat="47.5162" lon="-2.76811">
        <ele>62</ele>
        <time>2025-05-13T09:41:28Z</time>
      </trkpt>
      <trkpt lat="47.51619" lon="-2.76814">
        <ele>62</ele>
        <time>2025-05-13T09:41:29Z</time>
      </trkpt>
      <trkpt lat="47.51617" lon="-2.76817">
        <ele>62</ele>
        <time>2025-05-13T09:41:30Z</time>
      </trkpt>
      <trkpt lat="47.51615" lon="-2.7682">
        <ele>61</ele>
        <time>2025-05-13T09:41:31Z</time>
      </trkpt>
      <trkpt lat="47.51614" lon="-2.76823">
        <ele>61</ele>
        <time>2025-05-13T09:41:32Z</time>
      </trkpt>
      <trkpt lat="47.51613" lon="-2.76826">
        <ele>61</ele>
        <time>2025-05-13T09:41:33Z</time>
      </trkpt>
      <trkpt lat="47.51611" lon="-2.76828">
        <ele>60</ele>
        <time>2025-05-13T09:41:34Z</time>
      </trkpt>
      <trkpt lat="47.51609" lon="-2.76831">
        <ele>60</ele>
        <time>2025-05-13T09:41:35Z</time>
      </trkpt>
      <trkpt lat="47.51607" lon="-2.76833">
        <ele>60</ele>
        <time>2025-05-13T09:41:36Z</time>
      </trkpt>
      <trkpt lat="47.51605" lon="-2.76835">
        <ele>60</ele>
        <time>2025-05-13T09:41:37Z</time>
      </trkpt>
      <trkpt lat="47.51603" lon="-2.76837">
        <ele>60</ele>
        <time>2025-05-13T09:41:38Z</time>
      </trkpt>
      <trkpt lat="47.51602" lon="-2.7684">
        <ele>60</ele>
        <time>2025-05-13T09:41:39Z</time>
      </trkpt>
      <trkpt lat="47.516" lon="-2.76842">
        <ele>60</ele>
        <time>2025-05-13T09:41:40Z</time>
      </trkpt>
      <trkpt lat="47.51598" lon="-2.76843">
        <ele>60</ele>
        <time>2025-05-13T09:41:41Z</time>
      </trkpt>
      <trkpt lat="47.51596" lon="-2.76844">
        <ele>60</ele>
        <time>2025-05-13T09:41:42Z</time>
      </trkpt>
      <trkpt lat="47.51594" lon="-2.76846">
        <ele>59</ele>
        <time>2025-05-13T09:41:43Z</time>
      </trkpt>
      <trkpt lat="47.51592" lon="-2.76848">
        <ele>59</ele>
        <time>2025-05-13T09:41:44Z</time>
      </trkpt>
      <trkpt lat="47.5159" lon="-2.76851">
        <ele>58</ele>
        <time>2025-05-13T09:41:45Z</time>
      </trkpt>
      <trkpt lat="47.51588" lon="-2.76853">
        <ele>58</ele>
        <time>2025-05-13T09:41:46Z</time>
      </trkpt>
      <trkpt lat="47.51586" lon="-2.76856">
        <ele>58</ele>
        <time>2025-05-13T09:41:47Z</time>
      </trkpt>
      <trkpt lat="47.51584" lon="-2.76858">
        <ele>58</ele>
        <time>2025-05-13T09:41:48Z</time>
      </trkpt>
      <trkpt lat="47.51582" lon="-2.7686">
        <ele>59</ele>
        <time>2025-05-13T09:41:49Z</time>
      </trkpt>
      <trkpt lat="47.51581" lon="-2.76861">
        <ele>59</ele>
        <time>2025-05-13T09:41:50Z</time>
      </trkpt>
      <trkpt lat="47.51579" lon="-2.76862">
        <ele>59</ele>
        <time>2025-05-13T09:41:51Z</time>
      </trkpt>
      <trkpt lat="47.51577" lon="-2.76863">
        <ele>59</ele>
        <time>2025-05-13T09:41:52Z</time>
      </trkpt>
      <trkpt lat="47.51575" lon="-2.76865">
        <ele>59</ele>
        <time>2025-05-13T09:41:53Z</time>
      </trkpt>
      <trkpt lat="47.51573" lon="-2.76867">
        <ele>58</ele>
        <time>2025-05-13T09:41:54Z</time>
      </trkpt>
      <trkpt lat="47.51572" lon="-2.76868">
        <ele>58</ele>
        <time>2025-05-13T09:41:55Z</time>
      </trkpt>
      <trkpt lat="47.5157" lon="-2.76869">
        <ele>58</ele>
        <time>2025-05-13T09:41:56Z</time>
      </trkpt>
      <trkpt lat="47.51568" lon="-2.76871">
        <ele>58</ele>
        <time>2025-05-13T09:41:57Z</time>
      </trkpt>
      <trkpt lat="47.51566" lon="-2.76873">
        <ele>58</ele>
        <time>2025-05-13T09:41:58Z</time>
      </trkpt>
      <trkpt lat="47.51565" lon="-2.76875">
        <ele>58</ele>
        <time>2025-05-13T09:41:59Z</time>
      </trkpt>
      <trkpt lat="47.51563" lon="-2.76877">
        <ele>58</ele>
        <time>2025-05-13T09:42:00Z</time>
      </trkpt>
      <trkpt lat="47.51561" lon="-2.76878">
        <ele>58</ele>
        <time>2025-05-13T09:42:01Z</time>
      </trkpt>
      <trkpt lat="47.51559" lon="-2.7688">
        <ele>58</ele>
        <time>2025-05-13T09:42:02Z</time>
      </trkpt>
      <trkpt lat="47.51557" lon="-2.76882">
        <ele>58</ele>
        <time>2025-05-13T09:42:03Z</time>
      </trkpt>
      <trkpt lat="47.51554" lon="-2.76883">
        <ele>58</ele>
        <time>2025-05-13T09:42:04Z</time>
      </trkpt>
      <trkpt lat="47.51551" lon="-2.76885">
        <ele>58</ele>
        <time>2025-05-13T09:42:05Z</time>
      </trkpt>
      <trkpt lat="47.51549" lon="-2.76886">
        <ele>58</ele>
        <time>2025-05-13T09:42:06Z</time>
      </trkpt>
      <trkpt lat="47.51548" lon="-2.76888">
        <ele>58</ele>
        <time>2025-05-13T09:42:07Z</time>
      </trkpt>
      <trkpt lat="47.51545" lon="-2.76889">
        <ele>59</ele>
        <time>2025-05-13T09:42:08Z</time>
      </trkpt>
      <trkpt lat="47.51543" lon="-2.7689">
        <ele>60</ele>
        <time>2025-05-13T09:42:09Z</time>
      </trkpt>
      <trkpt lat="47.5154" lon="-2.76892">
        <ele>60</ele>
        <time>2025-05-13T09:42:10Z</time>
      </trkpt>
      <trkpt lat="47.51538" lon="-2.76894">
        <ele>60</ele>
        <time>2025-05-13T09:42:11Z</time>
      </trkpt>
      <trkpt lat="47.51536" lon="-2.76896">
        <ele>60</ele>
        <time>2025-05-13T09:42:12Z</time>
      </trkpt>
      <trkpt lat="47.51533" lon="-2.76898">
        <ele>60</ele>
        <time>2025-05-13T09:42:13Z</time>
      </trkpt>
      <trkpt lat="47.51531" lon="-2.769">
        <ele>61</ele>
        <time>2025-05-13T09:42:14Z</time>
      </trkpt>
      <trkpt lat="47.51529" lon="-2.76903">
        <ele>62</ele>
        <time>2025-05-13T09:42:15Z</time>
      </trkpt>
      <trkpt lat="47.51526" lon="-2.76905">
        <ele>62</ele>
        <time>2025-05-13T09:42:16Z</time>
      </trkpt>
      <trkpt lat="47.51523" lon="-2.76907">
        <ele>63</ele>
        <time>2025-05-13T09:42:17Z</time>
      </trkpt>
      <trkpt lat="47.5152" lon="-2.76909">
        <ele>64</ele>
        <time>2025-05-13T09:42:18Z</time>
      </trkpt>
      <trkpt lat="47.51518" lon="-2.76911">
        <ele>64</ele>
        <time>2025-05-13T09:42:19Z</time>
      </trkpt>
      <trkpt lat="47.51516" lon="-2.76912">
        <ele>65</ele>
        <time>2025-05-13T09:42:20Z</time>
      </trkpt>
      <trkpt lat="47.51513" lon="-2.76913">
        <ele>65</ele>
        <time>2025-05-13T09:42:21Z</time>
      </trkpt>
      <trkpt lat="47.51511" lon="-2.76915">
        <ele>65</ele>
        <time>2025-05-13T09:42:22Z</time>
      </trkpt>
      <trkpt lat="47.51508" lon="-2.76916">
        <ele>66</ele>
        <time>2025-05-13T09:42:23Z</time>
      </trkpt>
      <trkpt lat="47.51505" lon="-2.76917">
        <ele>66</ele>
        <time>2025-05-13T09:42:24Z</time>
      </trkpt>
      <trkpt lat="47.51503" lon="-2.76919">
        <ele>66</ele>
        <time>2025-05-13T09:42:25Z</time>
      </trkpt>
      <trkpt lat="47.51501" lon="-2.7692">
        <ele>66</ele>
        <time>2025-05-13T09:42:26Z</time>
      </trkpt>
      <trkpt lat="47.51499" lon="-2.76921">
        <ele>66</ele>
        <time>2025-05-13T09:42:27Z</time>
      </trkpt>
      <trkpt lat="47.51496" lon="-2.76922">
        <ele>67</ele>
        <time>2025-05-13T09:42:28Z</time>
      </trkpt>
      <trkpt lat="47.51494" lon="-2.76923">
        <ele>66</ele>
        <time>2025-05-13T09:42:29Z</time>
      </trkpt>
      <trkpt lat="47.51491" lon="-2.76925">
        <ele>66</ele>
        <time>2025-05-13T09:42:30Z</time>
      </trkpt>
      <trkpt lat="47.51489" lon="-2.76926">
        <ele>66</ele>
        <time>2025-05-13T09:42:31Z</time>
      </trkpt>
      <trkpt lat="47.51486" lon="-2.76927">
        <ele>66</ele>
        <time>2025-05-13T09:42:32Z</time>
      </trkpt>
      <trkpt lat="47.51484" lon="-2.76927">
        <ele>66</ele>
        <time>2025-05-13T09:42:33Z</time>
      </trkpt>
      <trkpt lat="47.51482" lon="-2.76927">
        <ele>66</ele>
        <time>2025-05-13T09:42:34Z</time>
      </trkpt>
      <trkpt lat="47.5148" lon="-2.76928">
        <ele>67</ele>
        <time>2025-05-13T09:42:35Z</time>
      </trkpt>
      <trkpt lat="47.51478" lon="-2.7693">
        <ele>67</ele>
        <time>2025-05-13T09:42:36Z</time>
      </trkpt>
      <trkpt lat="47.51476" lon="-2.7693">
        <ele>67</ele>
        <time>2025-05-13T09:42:37Z</time>
      </trkpt>
      <trkpt lat="47.51473" lon="-2.76932">
        <ele>67</ele>
        <time>2025-05-13T09:42:38Z</time>
      </trkpt>
      <trkpt lat="47.51471" lon="-2.76934">
        <ele>67</ele>
        <time>2025-05-13T09:42:39Z</time>
      </trkpt>
      <trkpt lat="47.51469" lon="-2.76935">
        <ele>66</ele>
        <time>2025-05-13T09:42:40Z</time>
      </trkpt>
      <trkpt lat="47.51465" lon="-2.76936">
        <ele>66</ele>
        <time>2025-05-13T09:42:41Z</time>
      </trkpt>
      <trkpt lat="47.51462" lon="-2.76936">
        <ele>66</ele>
        <time>2025-05-13T09:42:42Z</time>
      </trkpt>
      <trkpt lat="47.51459" lon="-2.76937">
        <ele>66</ele>
        <time>2025-05-13T09:42:43Z</time>
      </trkpt>
      <trkpt lat="47.51457" lon="-2.76937">
        <ele>67</ele>
        <time>2025-05-13T09:42:44Z</time>
      </trkpt>
      <trkpt lat="47.51455" lon="-2.76938">
        <ele>67</ele>
        <time>2025-05-13T09:42:45Z</time>
      </trkpt>
      <trkpt lat="47.51453" lon="-2.76939">
        <ele>67</ele>
        <time>2025-05-13T09:42:46Z</time>
      </trkpt>
      <trkpt lat="47.5145" lon="-2.7694">
        <ele>67</ele>
        <time>2025-05-13T09:42:47Z</time>
      </trkpt>
      <trkpt lat="47.51447" lon="-2.76941">
        <ele>67</ele>
        <time>2025-05-13T09:42:48Z</time>
      </trkpt>
      <trkpt lat="47.51444" lon="-2.76942">
        <ele>67</ele>
        <time>2025-05-13T09:42:49Z</time>
      </trkpt>
      <trkpt lat="47.51442" lon="-2.76943">
        <ele>66</ele>
        <time>2025-05-13T09:42:50Z</time>
      </trkpt>
      <trkpt lat="47.51439" lon="-2.76944">
        <ele>66</ele>
        <time>2025-05-13T09:42:51Z</time>
      </trkpt>
      <trkpt lat="47.51437" lon="-2.76945">
        <ele>66</ele>
        <time>2025-05-13T09:42:52Z</time>
      </trkpt>
      <trkpt lat="47.51435" lon="-2.76946">
        <ele>67</ele>
        <time>2025-05-13T09:42:53Z</time>
      </trkpt>
      <trkpt lat="47.51433" lon="-2.76946">
        <ele>67</ele>
        <time>2025-05-13T09:42:54Z</time>
      </trkpt>
      <trkpt lat="47.51431" lon="-2.76947">
        <ele>67</ele>
        <time>2025-05-13T09:42:55Z</time>
      </trkpt>
      <trkpt lat="47.51429" lon="-2.76949">
        <ele>67</ele>
        <time>2025-05-13T09:42:56Z</time>
      </trkpt>
      <trkpt lat="47.51428" lon="-2.7695">
        <ele>67</ele>
        <time>2025-05-13T09:42:57Z</time>
      </trkpt>
      <trkpt lat="47.51426" lon="-2.76951">
        <ele>67</ele>
        <time>2025-05-13T09:42:58Z</time>
      </trkpt>
      <trkpt lat="47.51424" lon="-2.76952">
        <ele>67</ele>
        <time>2025-05-13T09:42:59Z</time>
      </trkpt>
      <trkpt lat="47.51422" lon="-2.76953">
        <ele>66</ele>
        <time>2025-05-13T09:43:00Z</time>
      </trkpt>
      <trkpt lat="47.5142" lon="-2.76953">
        <ele>66</ele>
        <time>2025-05-13T09:43:01Z</time>
      </trkpt>
      <trkpt lat="47.51418" lon="-2.76955">
        <ele>66</ele>
        <time>2025-05-13T09:43:02Z</time>
      </trkpt>
      <trkpt lat="47.51416" lon="-2.76956">
        <ele>66</ele>
        <time>2025-05-13T09:43:03Z</time>
      </trkpt>
      <trkpt lat="47.51413" lon="-2.76956">
        <ele>66</ele>
        <time>2025-05-13T09:43:04Z</time>
      </trkpt>
      <trkpt lat="47.51411" lon="-2.76957">
        <ele>66</ele>
        <time>2025-05-13T09:43:05Z</time>
      </trkpt>
      <trkpt lat="47.51409" lon="-2.76958">
        <ele>66</ele>
        <time>2025-05-13T09:43:06Z</time>
      </trkpt>
      <trkpt lat="47.51406" lon="-2.76959">
        <ele>66</ele>
        <time>2025-05-13T09:43:07Z</time>
      </trkpt>
      <trkpt lat="47.51404" lon="-2.76961">
        <ele>66</ele>
        <time>2025-05-13T09:43:08Z</time>
      </trkpt>
      <trkpt lat="47.51401" lon="-2.76962">
        <ele>66</ele>
        <time>2025-05-13T09:43:09Z</time>
      </trkpt>
      <trkpt lat="47.51399" lon="-2.76964">
        <ele>65</ele>
        <time>2025-05-13T09:43:10Z</time>
      </trkpt>
      <trkpt lat="47.51397" lon="-2.76965">
        <ele>65</ele>
        <time>2025-05-13T09:43:11Z</time>
      </trkpt>
      <trkpt lat="47.51395" lon="-2.76966">
        <ele>65</ele>
        <time>2025-05-13T09:43:12Z</time>
      </trkpt>
      <trkpt lat="47.51393" lon="-2.76967">
        <ele>65</ele>
        <time>2025-05-13T09:43:13Z</time>
      </trkpt>
      <trkpt lat="47.51391" lon="-2.76968">
        <ele>65</ele>
        <time>2025-05-13T09:43:14Z</time>
      </trkpt>
      <trkpt lat="47.51389" lon="-2.76969">
        <ele>65</ele>
        <time>2025-05-13T09:43:15Z</time>
      </trkpt>
      <trkpt lat="47.51387" lon="-2.76971">
        <ele>65</ele>
        <time>2025-05-13T09:43:16Z</time>
      </trkpt>
      <trkpt lat="47.51386" lon="-2.76972">
        <ele>66</ele>
        <time>2025-05-13T09:43:17Z</time>
      </trkpt>
      <trkpt lat="47.51384" lon="-2.76973">
        <ele>66</ele>
        <time>2025-05-13T09:43:18Z</time>
      </trkpt>
      <trkpt lat="47.51382" lon="-2.76974">
        <ele>66</ele>
        <time>2025-05-13T09:43:19Z</time>
      </trkpt>
      <trkpt lat="47.51381" lon="-2.76975">
        <ele>66</ele>
        <time>2025-05-13T09:43:20Z</time>
      </trkpt>
      <trkpt lat="47.51379" lon="-2.76976">
        <ele>66</ele>
        <time>2025-05-13T09:43:21Z</time>
      </trkpt>
      <trkpt lat="47.51377" lon="-2.76977">
        <ele>66</ele>
        <time>2025-05-13T09:43:22Z</time>
      </trkpt>
      <trkpt lat="47.51375" lon="-2.76977">
        <ele>66</ele>
        <time>2025-05-13T09:43:23Z</time>
      </trkpt>
      <trkpt lat="47.51373" lon="-2.76978">
        <ele>66</ele>
        <time>2025-05-13T09:43:24Z</time>
      </trkpt>
      <trkpt lat="47.51371" lon="-2.76979">
        <ele>66</ele>
        <time>2025-05-13T09:43:25Z</time>
      </trkpt>
      <trkpt lat="47.51369" lon="-2.7698">
        <ele>66</ele>
        <time>2025-05-13T09:43:26Z</time>
      </trkpt>
      <trkpt lat="47.51366" lon="-2.76982">
        <ele>66</ele>
        <time>2025-05-13T09:43:27Z</time>
      </trkpt>
      <trkpt lat="47.51364" lon="-2.76984">
        <ele>66</ele>
        <time>2025-05-13T09:43:28Z</time>
      </trkpt>
      <trkpt lat="47.51362" lon="-2.76984">
        <ele>67</ele>
        <time>2025-05-13T09:43:29Z</time>
      </trkpt>
      <trkpt lat="47.5136" lon="-2.76986">
        <ele>67</ele>
        <time>2025-05-13T09:43:30Z</time>
      </trkpt>
      <trkpt lat="47.51358" lon="-2.76987">
        <ele>67</ele>
        <time>2025-05-13T09:43:31Z</time>
      </trkpt>
      <trkpt lat="47.51356" lon="-2.76988">
        <ele>67</ele>
        <time>2025-05-13T09:43:32Z</time>
      </trkpt>
      <trkpt lat="47.51353" lon="-2.76989">
        <ele>68</ele>
        <time>2025-05-13T09:43:33Z</time>
      </trkpt>
      <trkpt lat="47.51352" lon="-2.76991">
        <ele>68</ele>
        <time>2025-05-13T09:43:34Z</time>
      </trkpt>
      <trkpt lat="47.51349" lon="-2.76992">
        <ele>69</ele>
        <time>2025-05-13T09:43:35Z</time>
      </trkpt>
      <trkpt lat="47.51346" lon="-2.76993">
        <ele>70</ele>
        <time>2025-05-13T09:43:36Z</time>
      </trkpt>
      <trkpt lat="47.51344" lon="-2.76995">
        <ele>70</ele>
        <time>2025-05-13T09:43:37Z</time>
      </trkpt>
      <trkpt lat="47.51343" lon="-2.76996">
        <ele>71</ele>
        <time>2025-05-13T09:43:38Z</time>
      </trkpt>
      <trkpt lat="47.51341" lon="-2.76997">
        <ele>71</ele>
        <time>2025-05-13T09:43:39Z</time>
      </trkpt>
      <trkpt lat="47.51339" lon="-2.76998">
        <ele>71</ele>
        <time>2025-05-13T09:43:40Z</time>
      </trkpt>
      <trkpt lat="47.51337" lon="-2.76999">
        <ele>70</ele>
        <time>2025-05-13T09:43:41Z</time>
      </trkpt>
      <trkpt lat="47.51335" lon="-2.77">
        <ele>70</ele>
        <time>2025-05-13T09:43:42Z</time>
      </trkpt>
      <trkpt lat="47.51332" lon="-2.77001">
        <ele>70</ele>
        <time>2025-05-13T09:43:43Z</time>
      </trkpt>
      <trkpt lat="47.51329" lon="-2.77003">
        <ele>70</ele>
        <time>2025-05-13T09:43:44Z</time>
      </trkpt>
      <trkpt lat="47.51327" lon="-2.77005">
        <ele>70</ele>
        <time>2025-05-13T09:43:45Z</time>
      </trkpt>
      <trkpt lat="47.51324" lon="-2.77007">
        <ele>70</ele>
        <time>2025-05-13T09:43:46Z</time>
      </trkpt>
      <trkpt lat="47.51322" lon="-2.77008">
        <ele>70</ele>
        <time>2025-05-13T09:43:47Z</time>
      </trkpt>
      <trkpt lat="47.51321" lon="-2.77009">
        <ele>71</ele>
        <time>2025-05-13T09:43:48Z</time>
      </trkpt>
      <trkpt lat="47.51318" lon="-2.7701">
        <ele>71</ele>
        <time>2025-05-13T09:43:49Z</time>
      </trkpt>
      <trkpt lat="47.51316" lon="-2.77011">
        <ele>71</ele>
        <time>2025-05-13T09:43:50Z</time>
      </trkpt>
      <trkpt lat="47.51314" lon="-2.77012">
        <ele>71</ele>
        <time>2025-05-13T09:43:51Z</time>
      </trkpt>
      <trkpt lat="47.51313" lon="-2.77014">
        <ele>71</ele>
        <time>2025-05-13T09:43:52Z</time>
      </trkpt>
      <trkpt lat="47.51311" lon="-2.77015">
        <ele>71</ele>
        <time>2025-05-13T09:43:53Z</time>
      </trkpt>
      <trkpt lat="47.51309" lon="-2.77016">
        <ele>71</ele>
        <time>2025-05-13T09:43:54Z</time>
      </trkpt>
      <trkpt lat="47.51307" lon="-2.77017">
        <ele>71</ele>
        <time>2025-05-13T09:43:55Z</time>
      </trkpt>
      <trkpt lat="47.51305" lon="-2.77017">
        <ele>71</ele>
        <time>2025-05-13T09:43:56Z</time>
      </trkpt>
      <trkpt lat="47.51304" lon="-2.77018">
        <ele>71</ele>
        <time>2025-05-13T09:43:57Z</time>
      </trkpt>
      <trkpt lat="47.51302" lon="-2.7702">
        <ele>71</ele>
        <time>2025-05-13T09:43:58Z</time>
      </trkpt>
      <trkpt lat="47.51299" lon="-2.7702">
        <ele>71</ele>
        <time>2025-05-13T09:43:59Z</time>
      </trkpt>
      <trkpt lat="47.51297" lon="-2.77022">
        <ele>71</ele>
        <time>2025-05-13T09:44:00Z</time>
      </trkpt>
      <trkpt lat="47.51294" lon="-2.77022">
        <ele>70</ele>
        <time>2025-05-13T09:44:01Z</time>
      </trkpt>
      <trkpt lat="47.51292" lon="-2.77023">
        <ele>71</ele>
        <time>2025-05-13T09:44:02Z</time>
      </trkpt>
      <trkpt lat="47.5129" lon="-2.77023">
        <ele>71</ele>
        <time>2025-05-13T09:44:03Z</time>
      </trkpt>
      <trkpt lat="47.51287" lon="-2.77025">
        <ele>70</ele>
        <time>2025-05-13T09:44:04Z</time>
      </trkpt>
      <trkpt lat="47.51285" lon="-2.77026">
        <ele>71</ele>
        <time>2025-05-13T09:44:05Z</time>
      </trkpt>
      <trkpt lat="47.51282" lon="-2.77027">
        <ele>71</ele>
        <time>2025-05-13T09:44:06Z</time>
      </trkpt>
      <trkpt lat="47.5128" lon="-2.77028">
        <ele>72</ele>
        <time>2025-05-13T09:44:07Z</time>
      </trkpt>
      <trkpt lat="47.51277" lon="-2.77028">
        <ele>72</ele>
        <time>2025-05-13T09:44:08Z</time>
      </trkpt>
      <trkpt lat="47.51275" lon="-2.77029">
        <ele>72</ele>
        <time>2025-05-13T09:44:09Z</time>
      </trkpt>
      <trkpt lat="47.51272" lon="-2.7703">
        <ele>73</ele>
        <time>2025-05-13T09:44:10Z</time>
      </trkpt>
      <trkpt lat="47.5127" lon="-2.7703">
        <ele>73</ele>
        <time>2025-05-13T09:44:11Z</time>
      </trkpt>
      <trkpt lat="47.51267" lon="-2.77031">
        <ele>72</ele>
        <time>2025-05-13T09:44:12Z</time>
      </trkpt>
      <trkpt lat="47.51265" lon="-2.77032">
        <ele>72</ele>
        <time>2025-05-13T09:44:13Z</time>
      </trkpt>
      <trkpt lat="47.51263" lon="-2.77033">
        <ele>72</ele>
        <time>2025-05-13T09:44:14Z</time>
      </trkpt>
      <trkpt lat="47.51261" lon="-2.77034">
        <ele>72</ele>
        <time>2025-05-13T09:44:15Z</time>
      </trkpt>
      <trkpt lat="47.51259" lon="-2.77035">
        <ele>72</ele>
        <time>2025-05-13T09:44:16Z</time>
      </trkpt>
      <trkpt lat="47.51256" lon="-2.77036">
        <ele>72</ele>
        <time>2025-05-13T09:44:17Z</time>
      </trkpt>
      <trkpt lat="47.51255" lon="-2.77037">
        <ele>72</ele>
        <time>2025-05-13T09:44:18Z</time>
      </trkpt>
      <trkpt lat="47.51253" lon="-2.77038">
        <ele>73</ele>
        <time>2025-05-13T09:44:19Z</time>
      </trkpt>
      <trkpt lat="47.51251" lon="-2.77039">
        <ele>73</ele>
        <time>2025-05-13T09:44:20Z</time>
      </trkpt>
      <trkpt lat="47.51249" lon="-2.7704">
        <ele>74</ele>
        <time>2025-05-13T09:44:21Z</time>
      </trkpt>
      <trkpt lat="47.51247" lon="-2.77041">
        <ele>74</ele>
        <time>2025-05-13T09:44:22Z</time>
      </trkpt>
      <trkpt lat="47.51246" lon="-2.77042">
        <ele>74</ele>
        <time>2025-05-13T09:44:23Z</time>
      </trkpt>
      <trkpt lat="47.51244" lon="-2.77043">
        <ele>75</ele>
        <time>2025-05-13T09:44:24Z</time>
      </trkpt>
      <trkpt lat="47.51242" lon="-2.77044">
        <ele>75</ele>
        <time>2025-05-13T09:44:25Z</time>
      </trkpt>
      <trkpt lat="47.51239" lon="-2.77046">
        <ele>75</ele>
        <time>2025-05-13T09:44:26Z</time>
      </trkpt>
      <trkpt lat="47.51237" lon="-2.77046">
        <ele>75</ele>
        <time>2025-05-13T09:44:27Z</time>
      </trkpt>
      <trkpt lat="47.51236" lon="-2.77047">
        <ele>75</ele>
        <time>2025-05-13T09:44:28Z</time>
      </trkpt>
      <trkpt lat="47.51233" lon="-2.77048">
        <ele>75</ele>
        <time>2025-05-13T09:44:29Z</time>
      </trkpt>
      <trkpt lat="47.51231" lon="-2.77049">
        <ele>75</ele>
        <time>2025-05-13T09:44:30Z</time>
      </trkpt>
      <trkpt lat="47.51228" lon="-2.7705">
        <ele>76</ele>
        <time>2025-05-13T09:44:31Z</time>
      </trkpt>
      <trkpt lat="47.51226" lon="-2.77051">
        <ele>76</ele>
        <time>2025-05-13T09:44:32Z</time>
      </trkpt>
      <trkpt lat="47.51225" lon="-2.77053">
        <ele>76</ele>
        <time>2025-05-13T09:44:33Z</time>
      </trkpt>
      <trkpt lat="47.51223" lon="-2.77054">
        <ele>77</ele>
        <time>2025-05-13T09:44:34Z</time>
      </trkpt>
      <trkpt lat="47.51221" lon="-2.77055">
        <ele>77</ele>
        <time>2025-05-13T09:44:35Z</time>
      </trkpt>
      <trkpt lat="47.51219" lon="-2.77056">
        <ele>77</ele>
        <time>2025-05-13T09:44:36Z</time>
      </trkpt>
      <trkpt lat="47.51218" lon="-2.77057">
        <ele>77</ele>
        <time>2025-05-13T09:44:37Z</time>
      </trkpt>
      <trkpt lat="47.51216" lon="-2.77058">
        <ele>77</ele>
        <time>2025-05-13T09:44:38Z</time>
      </trkpt>
      <trkpt lat="47.51215" lon="-2.77059">
        <ele>77</ele>
        <time>2025-05-13T09:44:39Z</time>
      </trkpt>
      <trkpt lat="47.51214" lon="-2.7706">
        <ele>78</ele>
        <time>2025-05-13T09:44:40Z</time>
      </trkpt>
      <trkpt lat="47.51213" lon="-2.7706">
        <ele>78</ele>
        <time>2025-05-13T09:44:41Z</time>
      </trkpt>
      <trkpt lat="47.51214" lon="-2.7706">
        <ele>78</ele>
        <time>2025-05-13T09:44:42Z</time>
      </trkpt>
      <trkpt lat="47.51214" lon="-2.7706">
        <ele>78</ele>
        <time>2025-05-13T09:44:43Z</time>
      </trkpt>
      <trkpt lat="47.51214" lon="-2.7706">
        <ele>78</ele>
        <time>2025-05-13T09:44:44Z</time>
      </trkpt>
      <trkpt lat="47.51214" lon="-2.7706">
        <ele>78</ele>
        <time>2025-05-13T09:44:45Z</time>
      </trkpt>
      <trkpt lat="47.51214" lon="-2.7706">
        <ele>78</ele>
        <time>2025-05-13T09:44:46Z</time>
      </trkpt>
      <trkpt lat="47.51214" lon="-2.7706">
        <ele>78</ele>
        <time>2025-05-13T09:44:47Z</time>
      </trkpt>
      <trkpt lat="47.51214" lon="-2.7706">
        <ele>78</ele>
        <time>2025-05-13T09:44:48Z</time>
      </trkpt>
      <trkpt lat="47.51214" lon="-2.7706">
        <ele>78</ele>
        <time>2025-05-13T09:44:49Z</time>
      </trkpt>
      <trkpt lat="47.51214" lon="-2.7706">
        <ele>78</ele>
        <time>2025-05-13T09:44:50Z</time>
      </trkpt>
      <trkpt lat="47.51209" lon="-2.7706">
        <ele>78</ele>
        <time>2025-05-13T09:45:21Z</time>
      </trkpt>
      <trkpt lat="47.51207" lon="-2.77065">
        <ele>79</ele>
        <time>2025-05-13T09:45:22Z</time>
      </trkpt>
      <trkpt lat="47.51204" lon="-2.77069">
        <ele>80</ele>
        <time>2025-05-13T09:45:23Z</time>
      </trkpt>
      <trkpt lat="47.512" lon="-2.77071">
        <ele>80</ele>
        <time>2025-05-13T09:45:24Z</time>
      </trkpt>
      <trkpt lat="47.51199" lon="-2.77071">
        <ele>79</ele>
        <time>2025-05-13T09:45:25Z</time>
      </trkpt>
      <trkpt lat="47.51197" lon="-2.77071">
        <ele>80</ele>
        <time>2025-05-13T09:45:26Z</time>
      </trkpt>
      <trkpt lat="47.51196" lon="-2.77071">
        <ele>79</ele>
        <time>2025-05-13T09:45:27Z</time>
      </trkpt>
      <trkpt lat="47.51195" lon="-2.77072">
        <ele>80</ele>
        <time>2025-05-13T09:45:28Z</time>
      </trkpt>
      <trkpt lat="47.51194" lon="-2.77073">
        <ele>80</ele>
        <time>2025-05-13T09:45:29Z</time>
      </trkpt>
      <trkpt lat="47.51192" lon="-2.77075">
        <ele>80</ele>
        <time>2025-05-13T09:45:30Z</time>
      </trkpt>
      <trkpt lat="47.51191" lon="-2.77076">
        <ele>80</ele>
        <time>2025-05-13T09:45:31Z</time>
      </trkpt>
      <trkpt lat="47.51189" lon="-2.77078">
        <ele>80</ele>
        <time>2025-05-13T09:45:32Z</time>
      </trkpt>
      <trkpt lat="47.51187" lon="-2.77079">
        <ele>79</ele>
        <time>2025-05-13T09:45:33Z</time>
      </trkpt>
      <trkpt lat="47.51185" lon="-2.7708">
        <ele>79</ele>
        <time>2025-05-13T09:45:34Z</time>
      </trkpt>
      <trkpt lat="47.51183" lon="-2.77082">
        <ele>79</ele>
        <time>2025-05-13T09:45:35Z</time>
      </trkpt>
      <trkpt lat="47.5118" lon="-2.77083">
        <ele>79</ele>
        <time>2025-05-13T09:45:36Z</time>
      </trkpt>
      <trkpt lat="47.51177" lon="-2.77084">
        <ele>79</ele>
        <time>2025-05-13T09:45:37Z</time>
      </trkpt>
      <trkpt lat="47.51174" lon="-2.77085">
        <ele>79</ele>
        <time>2025-05-13T09:45:38Z</time>
      </trkpt>
      <trkpt lat="47.51171" lon="-2.77086">
        <ele>79</ele>
        <time>2025-05-13T09:45:39Z</time>
      </trkpt>
      <trkpt lat="47.51169" lon="-2.77088">
        <ele>78</ele>
        <time>2025-05-13T09:45:40Z</time>
      </trkpt>
      <trkpt lat="47.51166" lon="-2.77089">
        <ele>78</ele>
        <time>2025-05-13T09:45:41Z</time>
      </trkpt>
      <trkpt lat="47.51163" lon="-2.7709">
        <ele>79</ele>
        <time>2025-05-13T09:45:42Z</time>
      </trkpt>
      <trkpt lat="47.5116" lon="-2.77091">
        <ele>79</ele>
        <time>2025-05-13T09:45:43Z</time>
      </trkpt>
      <trkpt lat="47.51157" lon="-2.77093">
        <ele>78</ele>
        <time>2025-05-13T09:45:44Z</time>
      </trkpt>
      <trkpt lat="47.51155" lon="-2.77095">
        <ele>78</ele>
        <time>2025-05-13T09:45:45Z</time>
      </trkpt>
      <trkpt lat="47.51152" lon="-2.77096">
        <ele>78</ele>
        <time>2025-05-13T09:45:46Z</time>
      </trkpt>
      <trkpt lat="47.51149" lon="-2.77097">
        <ele>78</ele>
        <time>2025-05-13T09:45:47Z</time>
      </trkpt>
      <trkpt lat="47.51147" lon="-2.77099">
        <ele>78</ele>
        <time>2025-05-13T09:45:48Z</time>
      </trkpt>
      <trkpt lat="47.51144" lon="-2.77101">
        <ele>79</ele>
        <time>2025-05-13T09:45:49Z</time>
      </trkpt>
      <trkpt lat="47.51141" lon="-2.77102">
        <ele>79</ele>
        <time>2025-05-13T09:45:50Z</time>
      </trkpt>
      <trkpt lat="47.51138" lon="-2.77104">
        <ele>79</ele>
        <time>2025-05-13T09:45:51Z</time>
      </trkpt>
      <trkpt lat="47.51136" lon="-2.77105">
        <ele>80</ele>
        <time>2025-05-13T09:45:52Z</time>
      </trkpt>
      <trkpt lat="47.51133" lon="-2.77107">
        <ele>80</ele>
        <time>2025-05-13T09:45:53Z</time>
      </trkpt>
      <trkpt lat="47.51131" lon="-2.77108">
        <ele>80</ele>
        <time>2025-05-13T09:45:54Z</time>
      </trkpt>
      <trkpt lat="47.51129" lon="-2.7711">
        <ele>80</ele>
        <time>2025-05-13T09:45:55Z</time>
      </trkpt>
      <trkpt lat="47.51126" lon="-2.77112">
        <ele>80</ele>
        <time>2025-05-13T09:45:56Z</time>
      </trkpt>
      <trkpt lat="47.51124" lon="-2.77114">
        <ele>79</ele>
        <time>2025-05-13T09:45:57Z</time>
      </trkpt>
      <trkpt lat="47.51122" lon="-2.77116">
        <ele>79</ele>
        <time>2025-05-13T09:45:58Z</time>
      </trkpt>
      <trkpt lat="47.51119" lon="-2.77118">
        <ele>78</ele>
        <time>2025-05-13T09:45:59Z</time>
      </trkpt>
      <trkpt lat="47.51116" lon="-2.7712">
        <ele>77</ele>
        <time>2025-05-13T09:46:00Z</time>
      </trkpt>
      <trkpt lat="47.51113" lon="-2.77122">
        <ele>77</ele>
        <time>2025-05-13T09:46:01Z</time>
      </trkpt>
      <trkpt lat="47.5111" lon="-2.77123">
        <ele>77</ele>
        <time>2025-05-13T09:46:02Z</time>
      </trkpt>
      <trkpt lat="47.51107" lon="-2.77126">
        <ele>77</ele>
        <time>2025-05-13T09:46:03Z</time>
      </trkpt>
      <trkpt lat="47.51103" lon="-2.77128">
        <ele>76</ele>
        <time>2025-05-13T09:46:04Z</time>
      </trkpt>
      <trkpt lat="47.511" lon="-2.77131">
        <ele>76</ele>
        <time>2025-05-13T09:46:05Z</time>
      </trkpt>
      <trkpt lat="47.51096" lon="-2.77133">
        <ele>76</ele>
        <time>2025-05-13T09:46:06Z</time>
      </trkpt>
      <trkpt lat="47.51093" lon="-2.77135">
        <ele>76</ele>
        <time>2025-05-13T09:46:07Z</time>
      </trkpt>
      <trkpt lat="47.51089" lon="-2.77137">
        <ele>76</ele>
        <time>2025-05-13T09:46:08Z</time>
      </trkpt>
      <trkpt lat="47.51085" lon="-2.77139">
        <ele>76</ele>
        <time>2025-05-13T09:46:09Z</time>
      </trkpt>
      <trkpt lat="47.51081" lon="-2.77142">
        <ele>76</ele>
        <time>2025-05-13T09:46:10Z</time>
      </trkpt>
      <trkpt lat="47.51078" lon="-2.77144">
        <ele>76</ele>
        <time>2025-05-13T09:46:11Z</time>
      </trkpt>
      <trkpt lat="47.51075" lon="-2.77146">
        <ele>76</ele>
        <time>2025-05-13T09:46:12Z</time>
      </trkpt>
      <trkpt lat="47.51071" lon="-2.77148">
        <ele>76</ele>
        <time>2025-05-13T09:46:13Z</time>
      </trkpt>
      <trkpt lat="47.51067" lon="-2.7715">
        <ele>76</ele>
        <time>2025-05-13T09:46:14Z</time>
      </trkpt>
      <trkpt lat="47.51064" lon="-2.77151">
        <ele>75</ele>
        <time>2025-05-13T09:46:15Z</time>
      </trkpt>
      <trkpt lat="47.5106" lon="-2.77153">
        <ele>75</ele>
        <time>2025-05-13T09:46:16Z</time>
      </trkpt>
      <trkpt lat="47.51056" lon="-2.77155">
        <ele>75</ele>
        <time>2025-05-13T09:46:17Z</time>
      </trkpt>
      <trkpt lat="47.51053" lon="-2.77156">
        <ele>75</ele>
        <time>2025-05-13T09:46:18Z</time>
      </trkpt>
      <trkpt lat="47.51049" lon="-2.77158">
        <ele>75</ele>
        <time>2025-05-13T09:46:19Z</time>
      </trkpt>
      <trkpt lat="47.51046" lon="-2.77159">
        <ele>75</ele>
        <time>2025-05-13T09:46:20Z</time>
      </trkpt>
      <trkpt lat="47.51043" lon="-2.7716">
        <ele>75</ele>
        <time>2025-05-13T09:46:21Z</time>
      </trkpt>
      <trkpt lat="47.51039" lon="-2.77162">
        <ele>74</ele>
        <time>2025-05-13T09:46:22Z</time>
      </trkpt>
      <trkpt lat="47.51036" lon="-2.77164">
        <ele>74</ele>
        <time>2025-05-13T09:46:23Z</time>
      </trkpt>
      <trkpt lat="47.51033" lon="-2.77166">
        <ele>74</ele>
        <time>2025-05-13T09:46:24Z</time>
      </trkpt>
      <trkpt lat="47.51029" lon="-2.77168">
        <ele>74</ele>
        <time>2025-05-13T09:46:25Z</time>
      </trkpt>
      <trkpt lat="47.51025" lon="-2.7717">
        <ele>74</ele>
        <time>2025-05-13T09:46:26Z</time>
      </trkpt>
      <trkpt lat="47.51021" lon="-2.77172">
        <ele>73</ele>
        <time>2025-05-13T09:46:27Z</time>
      </trkpt>
      <trkpt lat="47.51018" lon="-2.77174">
        <ele>73</ele>
        <time>2025-05-13T09:46:28Z</time>
      </trkpt>
      <trkpt lat="47.51014" lon="-2.77176">
        <ele>73</ele>
        <time>2025-05-13T09:46:29Z</time>
      </trkpt>
      <trkpt lat="47.5101" lon="-2.77177">
        <ele>73</ele>
        <time>2025-05-13T09:46:30Z</time>
      </trkpt>
      <trkpt lat="47.51006" lon="-2.77179">
        <ele>74</ele>
        <time>2025-05-13T09:46:31Z</time>
      </trkpt>
      <trkpt lat="47.51001" lon="-2.7718">
        <ele>74</ele>
        <time>2025-05-13T09:46:32Z</time>
      </trkpt>
      <trkpt lat="47.50998" lon="-2.77182">
        <ele>74</ele>
        <time>2025-05-13T09:46:33Z</time>
      </trkpt>
      <trkpt lat="47.50994" lon="-2.77183">
        <ele>73</ele>
        <time>2025-05-13T09:46:34Z</time>
      </trkpt>
      <trkpt lat="47.50991" lon="-2.77183">
        <ele>73</ele>
        <time>2025-05-13T09:46:35Z</time>
      </trkpt>
      <trkpt lat="47.50986" lon="-2.77184">
        <ele>73</ele>
        <time>2025-05-13T09:46:36Z</time>
      </trkpt>
      <trkpt lat="47.50981" lon="-2.77186">
        <ele>73</ele>
        <time>2025-05-13T09:46:37Z</time>
      </trkpt>
      <trkpt lat="47.50977" lon="-2.77187">
        <ele>73</ele>
        <time>2025-05-13T09:46:38Z</time>
      </trkpt>
      <trkpt lat="47.50973" lon="-2.77189">
        <ele>73</ele>
        <time>2025-05-13T09:46:39Z</time>
      </trkpt>
      <trkpt lat="47.50968" lon="-2.7719">
        <ele>73</ele>
        <time>2025-05-13T09:46:40Z</time>
      </trkpt>
      <trkpt lat="47.50964" lon="-2.77191">
        <ele>74</ele>
        <time>2025-05-13T09:46:41Z</time>
      </trkpt>
      <trkpt lat="47.50959" lon="-2.77191">
        <ele>73</ele>
        <time>2025-05-13T09:46:42Z</time>
      </trkpt>
      <trkpt lat="47.50955" lon="-2.77192">
        <ele>73</ele>
        <time>2025-05-13T09:46:43Z</time>
      </trkpt>
      <trkpt lat="47.50951" lon="-2.77192">
        <ele>73</ele>
        <time>2025-05-13T09:46:44Z</time>
      </trkpt>
      <trkpt lat="47.50948" lon="-2.77192">
        <ele>73</ele>
        <time>2025-05-13T09:46:45Z</time>
      </trkpt>
      <trkpt lat="47.50945" lon="-2.77192">
        <ele>73</ele>
        <time>2025-05-13T09:46:46Z</time>
      </trkpt>
      <trkpt lat="47.50942" lon="-2.77192">
        <ele>73</ele>
        <time>2025-05-13T09:46:47Z</time>
      </trkpt>
      <trkpt lat="47.50938" lon="-2.77194">
        <ele>75</ele>
        <time>2025-05-13T09:46:48Z</time>
      </trkpt>
      <trkpt lat="47.50936" lon="-2.77195">
        <ele>75</ele>
        <time>2025-05-13T09:46:49Z</time>
      </trkpt>
      <trkpt lat="47.50934" lon="-2.77196">
        <ele>75</ele>
        <time>2025-05-13T09:46:50Z</time>
      </trkpt>
      <trkpt lat="47.50934" lon="-2.77197">
        <ele>76</ele>
        <time>2025-05-13T09:46:51Z</time>
      </trkpt>
      <trkpt lat="47.50934" lon="-2.77197">
        <ele>76</ele>
        <time>2025-05-13T09:46:52Z</time>
      </trkpt>
      <trkpt lat="47.50934" lon="-2.77198">
        <ele>77</ele>
        <time>2025-05-13T09:46:53Z</time>
      </trkpt>
      <trkpt lat="47.50934" lon="-2.77198">
        <ele>77</ele>
        <time>2025-05-13T09:46:54Z</time>
      </trkpt>
      <trkpt lat="47.50934" lon="-2.77198">
        <ele>77</ele>
        <time>2025-05-13T09:46:55Z</time>
      </trkpt>
      <trkpt lat="47.50934" lon="-2.77198">
        <ele>77</ele>
        <time>2025-05-13T09:46:56Z</time>
      </trkpt>
      <trkpt lat="47.50934" lon="-2.77198">
        <ele>78</ele>
        <time>2025-05-13T09:46:57Z</time>
      </trkpt>
      <trkpt lat="47.50934" lon="-2.77198">
        <ele>78</ele>
        <time>2025-05-13T09:46:58Z</time>
      </trkpt>
      <trkpt lat="47.50934" lon="-2.77198">
        <ele>78</ele>
        <time>2025-05-13T09:46:59Z</time>
      </trkpt>
      <trkpt lat="47.50934" lon="-2.77198">
        <ele>78</ele>
        <time>2025-05-13T09:47:00Z</time>
      </trkpt>
      <trkpt lat="47.50934" lon="-2.77198">
        <ele>78</ele>
        <time>2025-05-13T09:47:01Z</time>
      </trkpt>
      <trkpt lat="47.50934" lon="-2.77198">
        <ele>78</ele>
        <time>2025-05-13T09:47:02Z</time>
      </trkpt>
      <trkpt lat="47.50932" lon="-2.77199">
        <ele>77</ele>
        <time>2025-05-13T09:47:03Z</time>
      </trkpt>
      <trkpt lat="47.50931" lon="-2.77198">
        <ele>77</ele>
        <time>2025-05-13T09:47:04Z</time>
      </trkpt>
      <trkpt lat="47.50929" lon="-2.77199">
        <ele>77</ele>
        <time>2025-05-13T09:47:05Z</time>
      </trkpt>
      <trkpt lat="47.50927" lon="-2.77199">
        <ele>78</ele>
        <time>2025-05-13T09:47:06Z</time>
      </trkpt>
      <trkpt lat="47.50925" lon="-2.772">
        <ele>78</ele>
        <time>2025-05-13T09:47:07Z</time>
      </trkpt>
      <trkpt lat="47.50923" lon="-2.77201">
        <ele>78</ele>
        <time>2025-05-13T09:47:08Z</time>
      </trkpt>
      <trkpt lat="47.50919" lon="-2.77202">
        <ele>78</ele>
        <time>2025-05-13T09:47:09Z</time>
      </trkpt>
      <trkpt lat="47.50916" lon="-2.77204">
        <ele>78</ele>
        <time>2025-05-13T09:47:10Z</time>
      </trkpt>
      <trkpt lat="47.50912" lon="-2.77205">
        <ele>78</ele>
        <time>2025-05-13T09:47:11Z</time>
      </trkpt>
      <trkpt lat="47.50908" lon="-2.77206">
        <ele>77</ele>
        <time>2025-05-13T09:47:12Z</time>
      </trkpt>
      <trkpt lat="47.50904" lon="-2.77207">
        <ele>77</ele>
        <time>2025-05-13T09:47:13Z</time>
      </trkpt>
      <trkpt lat="47.50899" lon="-2.77208">
        <ele>76</ele>
        <time>2025-05-13T09:47:14Z</time>
      </trkpt>
      <trkpt lat="47.50895" lon="-2.77209">
        <ele>76</ele>
        <time>2025-05-13T09:47:15Z</time>
      </trkpt>
      <trkpt lat="47.5089" lon="-2.77209">
        <ele>76</ele>
        <time>2025-05-13T09:47:16Z</time>
      </trkpt>
      <trkpt lat="47.50885" lon="-2.77209">
        <ele>76</ele>
        <time>2025-05-13T09:47:17Z</time>
      </trkpt>
      <trkpt lat="47.50881" lon="-2.7721">
        <ele>75</ele>
        <time>2025-05-13T09:47:18Z</time>
      </trkpt>
      <trkpt lat="47.50876" lon="-2.7721">
        <ele>74</ele>
        <time>2025-05-13T09:47:19Z</time>
      </trkpt>
      <trkpt lat="47.50871" lon="-2.77211">
        <ele>74</ele>
        <time>2025-05-13T09:47:20Z</time>
      </trkpt>
      <trkpt lat="47.50865" lon="-2.77212">
        <ele>73</ele>
        <time>2025-05-13T09:47:21Z</time>
      </trkpt>
      <trkpt lat="47.50858" lon="-2.77213">
        <ele>73</ele>
        <time>2025-05-13T09:47:22Z</time>
      </trkpt>
      <trkpt lat="47.50851" lon="-2.77214">
        <ele>73</ele>
        <time>2025-05-13T09:47:23Z</time>
      </trkpt>
      <trkpt lat="47.50844" lon="-2.77215">
        <ele>72</ele>
        <time>2025-05-13T09:47:24Z</time>
      </trkpt>
      <trkpt lat="47.50837" lon="-2.77215">
        <ele>71</ele>
        <time>2025-05-13T09:47:25Z</time>
      </trkpt>
      <trkpt lat="47.50831" lon="-2.77215">
        <ele>71</ele>
        <time>2025-05-13T09:47:26Z</time>
      </trkpt>
      <trkpt lat="47.50825" lon="-2.77215">
        <ele>71</ele>
        <time>2025-05-13T09:47:27Z</time>
      </trkpt>
      <trkpt lat="47.5082" lon="-2.77215">
        <ele>72</ele>
        <time>2025-05-13T09:47:28Z</time>
      </trkpt>
      <trkpt lat="47.50816" lon="-2.77216">
        <ele>72</ele>
        <time>2025-05-13T09:47:29Z</time>
      </trkpt>
      <trkpt lat="47.50813" lon="-2.77215">
        <ele>72</ele>
        <time>2025-05-13T09:47:30Z</time>
      </trkpt>
      <trkpt lat="47.5081" lon="-2.77213">
        <ele>72</ele>
        <time>2025-05-13T09:47:31Z</time>
      </trkpt>
      <trkpt lat="47.50808" lon="-2.77209">
        <ele>72</ele>
        <time>2025-05-13T09:47:32Z</time>
      </trkpt>
      <trkpt lat="47.50805" lon="-2.77205">
        <ele>72</ele>
        <time>2025-05-13T09:47:33Z</time>
      </trkpt>
      <trkpt lat="47.50802" lon="-2.77201">
        <ele>72</ele>
        <time>2025-05-13T09:47:34Z</time>
      </trkpt>
      <trkpt lat="47.508" lon="-2.77197">
        <ele>72</ele>
        <time>2025-05-13T09:47:35Z</time>
      </trkpt>
      <trkpt lat="47.50797" lon="-2.77194">
        <ele>72</ele>
        <time>2025-05-13T09:47:36Z</time>
      </trkpt>
      <trkpt lat="47.50794" lon="-2.77193">
        <ele>72</ele>
        <time>2025-05-13T09:47:37Z</time>
      </trkpt>
      <trkpt lat="47.5079" lon="-2.77192">
        <ele>71</ele>
        <time>2025-05-13T09:47:38Z</time>
      </trkpt>
      <trkpt lat="47.50786" lon="-2.77193">
        <ele>71</ele>
        <time>2025-05-13T09:47:39Z</time>
      </trkpt>
      <trkpt lat="47.50782" lon="-2.77193">
        <ele>71</ele>
        <time>2025-05-13T09:47:40Z</time>
      </trkpt>
      <trkpt lat="47.50776" lon="-2.77193">
        <ele>71</ele>
        <time>2025-05-13T09:47:41Z</time>
      </trkpt>
      <trkpt lat="47.50771" lon="-2.77192">
        <ele>70</ele>
        <time>2025-05-13T09:47:42Z</time>
      </trkpt>
      <trkpt lat="47.50766" lon="-2.77192">
        <ele>69</ele>
        <time>2025-05-13T09:47:43Z</time>
      </trkpt>
      <trkpt lat="47.5076" lon="-2.77192">
        <ele>69</ele>
        <time>2025-05-13T09:47:44Z</time>
      </trkpt>
      <trkpt lat="47.50754" lon="-2.77192">
        <ele>68</ele>
        <time>2025-05-13T09:47:45Z</time>
      </trkpt>
      <trkpt lat="47.50749" lon="-2.77192">
        <ele>68</ele>
        <time>2025-05-13T09:47:46Z</time>
      </trkpt>
      <trkpt lat="47.50744" lon="-2.77192">
        <ele>68</ele>
        <time>2025-05-13T09:47:47Z</time>
      </trkpt>
      <trkpt lat="47.50738" lon="-2.77191">
        <ele>68</ele>
        <time>2025-05-13T09:47:48Z</time>
      </trkpt>
      <trkpt lat="47.50734" lon="-2.77192">
        <ele>68</ele>
        <time>2025-05-13T09:47:49Z</time>
      </trkpt>
      <trkpt lat="47.50731" lon="-2.77191">
        <ele>69</ele>
        <time>2025-05-13T09:47:50Z</time>
      </trkpt>
      <trkpt lat="47.50728" lon="-2.77191">
        <ele>69</ele>
        <time>2025-05-13T09:47:51Z</time>
      </trkpt>
      <trkpt lat="47.50725" lon="-2.77191">
        <ele>70</ele>
        <time>2025-05-13T09:47:52Z</time>
      </trkpt>
      <trkpt lat="47.50723" lon="-2.77191">
        <ele>70</ele>
        <time>2025-05-13T09:47:53Z</time>
      </trkpt>
      <trkpt lat="47.50721" lon="-2.7719">
        <ele>70</ele>
        <time>2025-05-13T09:47:54Z</time>
      </trkpt>
      <trkpt lat="47.50719" lon="-2.77189">
        <ele>70</ele>
        <time>2025-05-13T09:47:55Z</time>
      </trkpt>
      <trkpt lat="47.50717" lon="-2.77188">
        <ele>69</ele>
        <time>2025-05-13T09:47:56Z</time>
      </trkpt>
      <trkpt lat="47.50714" lon="-2.77186">
        <ele>69</ele>
        <time>2025-05-13T09:47:57Z</time>
      </trkpt>
      <trkpt lat="47.50711" lon="-2.77184">
        <ele>68</ele>
        <time>2025-05-13T09:47:58Z</time>
      </trkpt>
      <trkpt lat="47.50707" lon="-2.77183">
        <ele>68</ele>
        <time>2025-05-13T09:47:59Z</time>
      </trkpt>
      <trkpt lat="47.50703" lon="-2.77181">
        <ele>68</ele>
        <time>2025-05-13T09:48:00Z</time>
      </trkpt>
      <trkpt lat="47.507" lon="-2.77181">
        <ele>67</ele>
        <time>2025-05-13T09:48:01Z</time>
      </trkpt>
      <trkpt lat="47.50696" lon="-2.77181">
        <ele>67</ele>
        <time>2025-05-13T09:48:02Z</time>
      </trkpt>
      <trkpt lat="47.50691" lon="-2.77181">
        <ele>67</ele>
        <time>2025-05-13T09:48:03Z</time>
      </trkpt>
      <trkpt lat="47.50687" lon="-2.77181">
        <ele>66</ele>
        <time>2025-05-13T09:48:04Z</time>
      </trkpt>
      <trkpt lat="47.50683" lon="-2.77181">
        <ele>66</ele>
        <time>2025-05-13T09:48:05Z</time>
      </trkpt>
      <trkpt lat="47.50678" lon="-2.77181">
        <ele>66</ele>
        <time>2025-05-13T09:48:06Z</time>
      </trkpt>
      <trkpt lat="47.50674" lon="-2.77182">
        <ele>66</ele>
        <time>2025-05-13T09:48:07Z</time>
      </trkpt>
      <trkpt lat="47.5067" lon="-2.77183">
        <ele>66</ele>
        <time>2025-05-13T09:48:08Z</time>
      </trkpt>
      <trkpt lat="47.50665" lon="-2.77184">
        <ele>66</ele>
        <time>2025-05-13T09:48:09Z</time>
      </trkpt>
      <trkpt lat="47.5066" lon="-2.77183">
        <ele>65</ele>
        <time>2025-05-13T09:48:10Z</time>
      </trkpt>
      <trkpt lat="47.50655" lon="-2.77184">
        <ele>65</ele>
        <time>2025-05-13T09:48:11Z</time>
      </trkpt>
      <trkpt lat="47.5065" lon="-2.77185">
        <ele>65</ele>
        <time>2025-05-13T09:48:12Z</time>
      </trkpt>
      <trkpt lat="47.50646" lon="-2.77186">
        <ele>65</ele>
        <time>2025-05-13T09:48:13Z</time>
      </trkpt>
      <trkpt lat="47.50641" lon="-2.77187">
        <ele>65</ele>
        <time>2025-05-13T09:48:14Z</time>
      </trkpt>
      <trkpt lat="47.50637" lon="-2.77187">
        <ele>66</ele>
        <time>2025-05-13T09:48:15Z</time>
      </trkpt>
      <trkpt lat="47.50633" lon="-2.77189">
        <ele>66</ele>
        <time>2025-05-13T09:48:16Z</time>
      </trkpt>
      <trkpt lat="47.50629" lon="-2.7719">
        <ele>66</ele>
        <time>2025-05-13T09:48:17Z</time>
      </trkpt>
      <trkpt lat="47.50626" lon="-2.77191">
        <ele>66</ele>
        <time>2025-05-13T09:48:18Z</time>
      </trkpt>
      <trkpt lat="47.50623" lon="-2.77192">
        <ele>67</ele>
        <time>2025-05-13T09:48:19Z</time>
      </trkpt>
      <trkpt lat="47.5062" lon="-2.77193">
        <ele>67</ele>
        <time>2025-05-13T09:48:20Z</time>
      </trkpt>
      <trkpt lat="47.50617" lon="-2.77193">
        <ele>68</ele>
        <time>2025-05-13T09:48:21Z</time>
      </trkpt>
      <trkpt lat="47.50615" lon="-2.77194">
        <ele>68</ele>
        <time>2025-05-13T09:48:22Z</time>
      </trkpt>
      <trkpt lat="47.50613" lon="-2.77194">
        <ele>68</ele>
        <time>2025-05-13T09:48:23Z</time>
      </trkpt>
      <trkpt lat="47.5061" lon="-2.77192">
        <ele>68</ele>
        <time>2025-05-13T09:48:24Z</time>
      </trkpt>
      <trkpt lat="47.50607" lon="-2.7719">
        <ele>69</ele>
        <time>2025-05-13T09:48:25Z</time>
      </trkpt>
      <trkpt lat="47.50604" lon="-2.77188">
        <ele>69</ele>
        <time>2025-05-13T09:48:26Z</time>
      </trkpt>
      <trkpt lat="47.50601" lon="-2.77186">
        <ele>69</ele>
        <time>2025-05-13T09:48:27Z</time>
      </trkpt>
      <trkpt lat="47.50597" lon="-2.77185">
        <ele>69</ele>
        <time>2025-05-13T09:48:28Z</time>
      </trkpt>
      <trkpt lat="47.50593" lon="-2.77184">
        <ele>69</ele>
        <time>2025-05-13T09:48:29Z</time>
      </trkpt>
      <trkpt lat="47.5059" lon="-2.77182">
        <ele>70</ele>
        <time>2025-05-13T09:48:30Z</time>
      </trkpt>
      <trkpt lat="47.50587" lon="-2.77179">
        <ele>70</ele>
        <time>2025-05-13T09:48:31Z</time>
      </trkpt>
      <trkpt lat="47.50584" lon="-2.77176">
        <ele>70</ele>
        <time>2025-05-13T09:48:32Z</time>
      </trkpt>
      <trkpt lat="47.50581" lon="-2.77173">
        <ele>70</ele>
        <time>2025-05-13T09:48:33Z</time>
      </trkpt>
      <trkpt lat="47.50577" lon="-2.7717">
        <ele>70</ele>
        <time>2025-05-13T09:48:34Z</time>
      </trkpt>
      <trkpt lat="47.50575" lon="-2.77166">
        <ele>70</ele>
        <time>2025-05-13T09:48:35Z</time>
      </trkpt>
      <trkpt lat="47.50572" lon="-2.77163">
        <ele>70</ele>
        <time>2025-05-13T09:48:36Z</time>
      </trkpt>
      <trkpt lat="47.50569" lon="-2.7716">
        <ele>70</ele>
        <time>2025-05-13T09:48:37Z</time>
      </trkpt>
      <trkpt lat="47.50567" lon="-2.77157">
        <ele>70</ele>
        <time>2025-05-13T09:48:38Z</time>
      </trkpt>
      <trkpt lat="47.50564" lon="-2.77154">
        <ele>69</ele>
        <time>2025-05-13T09:48:39Z</time>
      </trkpt>
      <trkpt lat="47.50561" lon="-2.77151">
        <ele>69</ele>
        <time>2025-05-13T09:48:40Z</time>
      </trkpt>
      <trkpt lat="47.50558" lon="-2.77148">
        <ele>69</ele>
        <time>2025-05-13T09:48:41Z</time>
      </trkpt>
      <trkpt lat="47.50556" lon="-2.77146">
        <ele>69</ele>
        <time>2025-05-13T09:48:42Z</time>
      </trkpt>
      <trkpt lat="47.50553" lon="-2.77146">
        <ele>68</ele>
        <time>2025-05-13T09:48:43Z</time>
      </trkpt>
      <trkpt lat="47.50551" lon="-2.77147">
        <ele>68</ele>
        <time>2025-05-13T09:48:44Z</time>
      </trkpt>
      <trkpt lat="47.50549" lon="-2.77149">
        <ele>69</ele>
        <time>2025-05-13T09:48:45Z</time>
      </trkpt>
      <trkpt lat="47.50548" lon="-2.77152">
        <ele>69</ele>
        <time>2025-05-13T09:48:46Z</time>
      </trkpt>
      <trkpt lat="47.50546" lon="-2.77155">
        <ele>68</ele>
        <time>2025-05-13T09:48:47Z</time>
      </trkpt>
      <trkpt lat="47.50544" lon="-2.77158">
        <ele>68</ele>
        <time>2025-05-13T09:48:48Z</time>
      </trkpt>
      <trkpt lat="47.50543" lon="-2.77161">
        <ele>68</ele>
        <time>2025-05-13T09:48:49Z</time>
      </trkpt>
      <trkpt lat="47.50541" lon="-2.77165">
        <ele>68</ele>
        <time>2025-05-13T09:48:50Z</time>
      </trkpt>
      <trkpt lat="47.50539" lon="-2.77168">
        <ele>67</ele>
        <time>2025-05-13T09:48:51Z</time>
      </trkpt>
      <trkpt lat="47.50536" lon="-2.77172">
        <ele>66</ele>
        <time>2025-05-13T09:48:52Z</time>
      </trkpt>
      <trkpt lat="47.50534" lon="-2.77176">
        <ele>66</ele>
        <time>2025-05-13T09:48:53Z</time>
      </trkpt>
      <trkpt lat="47.50532" lon="-2.7718">
        <ele>65</ele>
        <time>2025-05-13T09:48:54Z</time>
      </trkpt>
      <trkpt lat="47.5053" lon="-2.77184">
        <ele>64</ele>
        <time>2025-05-13T09:48:55Z</time>
      </trkpt>
      <trkpt lat="47.50528" lon="-2.77189">
        <ele>63</ele>
        <time>2025-05-13T09:48:56Z</time>
      </trkpt>
      <trkpt lat="47.50526" lon="-2.77193">
        <ele>62</ele>
        <time>2025-05-13T09:48:57Z</time>
      </trkpt>
      <trkpt lat="47.50524" lon="-2.77198">
        <ele>62</ele>
        <time>2025-05-13T09:48:58Z</time>
      </trkpt>
      <trkpt lat="47.50523" lon="-2.772">
        <ele>61</ele>
        <time>2025-05-13T09:48:59Z</time>
      </trkpt>
      <trkpt lat="47.50522" lon="-2.77202">
        <ele>61</ele>
        <time>2025-05-13T09:49:00Z</time>
      </trkpt>
      <trkpt lat="47.5052" lon="-2.77205">
        <ele>61</ele>
        <time>2025-05-13T09:49:01Z</time>
      </trkpt>
      <trkpt lat="47.50519" lon="-2.77209">
        <ele>61</ele>
        <time>2025-05-13T09:49:02Z</time>
      </trkpt>
      <trkpt lat="47.50517" lon="-2.77213">
        <ele>61</ele>
        <time>2025-05-13T09:49:03Z</time>
      </trkpt>
      <trkpt lat="47.50514" lon="-2.77216">
        <ele>61</ele>
        <time>2025-05-13T09:49:04Z</time>
      </trkpt>
      <trkpt lat="47.5051" lon="-2.7722">
        <ele>61</ele>
        <time>2025-05-13T09:49:05Z</time>
      </trkpt>
      <trkpt lat="47.50507" lon="-2.77224">
        <ele>61</ele>
        <time>2025-05-13T09:49:06Z</time>
      </trkpt>
      <trkpt lat="47.50504" lon="-2.77228">
        <ele>61</ele>
        <time>2025-05-13T09:49:07Z</time>
      </trkpt>
      <trkpt lat="47.505" lon="-2.77233">
        <ele>60</ele>
        <time>2025-05-13T09:49:08Z</time>
      </trkpt>
      <trkpt lat="47.50496" lon="-2.77237">
        <ele>59</ele>
        <time>2025-05-13T09:49:09Z</time>
      </trkpt>
      <trkpt lat="47.50491" lon="-2.77241">
        <ele>59</ele>
        <time>2025-05-13T09:49:10Z</time>
      </trkpt>
      <trkpt lat="47.50487" lon="-2.77245">
        <ele>60</ele>
        <time>2025-05-13T09:49:11Z</time>
      </trkpt>
      <trkpt lat="47.50482" lon="-2.77248">
        <ele>60</ele>
        <time>2025-05-13T09:49:12Z</time>
      </trkpt>
      <trkpt lat="47.50476" lon="-2.7725">
        <ele>60</ele>
        <time>2025-05-13T09:49:13Z</time>
      </trkpt>
      <trkpt lat="47.5047" lon="-2.7725">
        <ele>60</ele>
        <time>2025-05-13T09:49:14Z</time>
      </trkpt>
      <trkpt lat="47.50464" lon="-2.77251">
        <ele>59</ele>
        <time>2025-05-13T09:49:15Z</time>
      </trkpt>
      <trkpt lat="47.50458" lon="-2.77251">
        <ele>59</ele>
        <time>2025-05-13T09:49:16Z</time>
      </trkpt>
      <trkpt lat="47.50452" lon="-2.77251">
        <ele>59</ele>
        <time>2025-05-13T09:49:17Z</time>
      </trkpt>
      <trkpt lat="47.50447" lon="-2.77251">
        <ele>58</ele>
        <time>2025-05-13T09:49:18Z</time>
      </trkpt>
      <trkpt lat="47.50441" lon="-2.77251">
        <ele>58</ele>
        <time>2025-05-13T09:49:19Z</time>
      </trkpt>
      <trkpt lat="47.50436" lon="-2.77251">
        <ele>58</ele>
        <time>2025-05-13T09:49:20Z</time>
      </trkpt>
      <trkpt lat="47.50431" lon="-2.77251">
        <ele>58</ele>
        <time>2025-05-13T09:49:21Z</time>
      </trkpt>
      <trkpt lat="47.50426" lon="-2.7725">
        <ele>57</ele>
        <time>2025-05-13T09:49:22Z</time>
      </trkpt>
      <trkpt lat="47.5042" lon="-2.7725">
        <ele>57</ele>
        <time>2025-05-13T09:49:23Z</time>
      </trkpt>
      <trkpt lat="47.50416" lon="-2.7725">
        <ele>57</ele>
        <time>2025-05-13T09:49:24Z</time>
      </trkpt>
      <trkpt lat="47.50411" lon="-2.77249">
        <ele>57</ele>
        <time>2025-05-13T09:49:25Z</time>
      </trkpt>
      <trkpt lat="47.50406" lon="-2.77248">
        <ele>57</ele>
        <time>2025-05-13T09:49:26Z</time>
      </trkpt>
      <trkpt lat="47.50402" lon="-2.77247">
        <ele>58</ele>
        <time>2025-05-13T09:49:27Z</time>
      </trkpt>
      <trkpt lat="47.50397" lon="-2.77244">
        <ele>58</ele>
        <time>2025-05-13T09:49:28Z</time>
      </trkpt>
      <trkpt lat="47.50393" lon="-2.77242">
        <ele>59</ele>
        <time>2025-05-13T09:49:29Z</time>
      </trkpt>
      <trkpt lat="47.50388" lon="-2.7724">
        <ele>58</ele>
        <time>2025-05-13T09:49:30Z</time>
      </trkpt>
      <trkpt lat="47.50383" lon="-2.77237">
        <ele>58</ele>
        <time>2025-05-13T09:49:31Z</time>
      </trkpt>
      <trkpt lat="47.50377" lon="-2.77234">
        <ele>58</ele>
        <time>2025-05-13T09:49:32Z</time>
      </trkpt>
      <trkpt lat="47.50372" lon="-2.7723">
        <ele>59</ele>
        <time>2025-05-13T09:49:33Z</time>
      </trkpt>
      <trkpt lat="47.50367" lon="-2.77227">
        <ele>59</ele>
        <time>2025-05-13T09:49:34Z</time>
      </trkpt>
      <trkpt lat="47.50362" lon="-2.77224">
        <ele>58</ele>
        <time>2025-05-13T09:49:35Z</time>
      </trkpt>
      <trkpt lat="47.50357" lon="-2.77221">
        <ele>58</ele>
        <time>2025-05-13T09:49:36Z</time>
      </trkpt>
      <trkpt lat="47.50353" lon="-2.77217">
        <ele>58</ele>
        <time>2025-05-13T09:49:37Z</time>
      </trkpt>
      <trkpt lat="47.50348" lon="-2.77214">
        <ele>57</ele>
        <time>2025-05-13T09:49:38Z</time>
      </trkpt>
      <trkpt lat="47.50343" lon="-2.77212">
        <ele>57</ele>
        <time>2025-05-13T09:49:39Z</time>
      </trkpt>
      <trkpt lat="47.50338" lon="-2.77208">
        <ele>57</ele>
        <time>2025-05-13T09:49:40Z</time>
      </trkpt>
      <trkpt lat="47.50334" lon="-2.77205">
        <ele>57</ele>
        <time>2025-05-13T09:49:41Z</time>
      </trkpt>
      <trkpt lat="47.50329" lon="-2.77202">
        <ele>57</ele>
        <time>2025-05-13T09:49:42Z</time>
      </trkpt>
      <trkpt lat="47.50324" lon="-2.772">
        <ele>56</ele>
        <time>2025-05-13T09:49:43Z</time>
      </trkpt>
      <trkpt lat="47.5032" lon="-2.77197">
        <ele>56</ele>
        <time>2025-05-13T09:49:44Z</time>
      </trkpt>
      <trkpt lat="47.50316" lon="-2.77194">
        <ele>56</ele>
        <time>2025-05-13T09:49:45Z</time>
      </trkpt>
      <trkpt lat="47.50312" lon="-2.7719">
        <ele>55</ele>
        <time>2025-05-13T09:49:46Z</time>
      </trkpt>
      <trkpt lat="47.50308" lon="-2.77185">
        <ele>55</ele>
        <time>2025-05-13T09:49:47Z</time>
      </trkpt>
      <trkpt lat="47.50305" lon="-2.7718">
        <ele>55</ele>
        <time>2025-05-13T09:49:48Z</time>
      </trkpt>
      <trkpt lat="47.50302" lon="-2.77176">
        <ele>55</ele>
        <time>2025-05-13T09:49:49Z</time>
      </trkpt>
      <trkpt lat="47.50299" lon="-2.77173">
        <ele>54</ele>
        <time>2025-05-13T09:49:50Z</time>
      </trkpt>
      <trkpt lat="47.50296" lon="-2.7717">
        <ele>54</ele>
        <time>2025-05-13T09:49:51Z</time>
      </trkpt>
      <trkpt lat="47.50292" lon="-2.77167">
        <ele>54</ele>
        <time>2025-05-13T09:49:52Z</time>
      </trkpt>
      <trkpt lat="47.50289" lon="-2.77163">
        <ele>54</ele>
        <time>2025-05-13T09:49:53Z</time>
      </trkpt>
      <trkpt lat="47.50286" lon="-2.77159">
        <ele>53</ele>
        <time>2025-05-13T09:49:54Z</time>
      </trkpt>
      <trkpt lat="47.50283" lon="-2.77157">
        <ele>54</ele>
        <time>2025-05-13T09:49:55Z</time>
      </trkpt>
      <trkpt lat="47.50279" lon="-2.77156">
        <ele>53</ele>
        <time>2025-05-13T09:49:56Z</time>
      </trkpt>
      <trkpt lat="47.50275" lon="-2.77155">
        <ele>54</ele>
        <time>2025-05-13T09:49:57Z</time>
      </trkpt>
      <trkpt lat="47.50272" lon="-2.77154">
        <ele>54</ele>
        <time>2025-05-13T09:49:58Z</time>
      </trkpt>
      <trkpt lat="47.50268" lon="-2.77153">
        <ele>54</ele>
        <time>2025-05-13T09:49:59Z</time>
      </trkpt>
      <trkpt lat="47.50264" lon="-2.77152">
        <ele>54</ele>
        <time>2025-05-13T09:50:00Z</time>
      </trkpt>
      <trkpt lat="47.50261" lon="-2.77152">
        <ele>54</ele>
        <time>2025-05-13T09:50:01Z</time>
      </trkpt>
      <trkpt lat="47.50256" lon="-2.77152">
        <ele>54</ele>
        <time>2025-05-13T09:50:02Z</time>
      </trkpt>
      <trkpt lat="47.50252" lon="-2.77152">
        <ele>55</ele>
        <time>2025-05-13T09:50:03Z</time>
      </trkpt>
      <trkpt lat="47.50248" lon="-2.77152">
        <ele>55</ele>
        <time>2025-05-13T09:50:04Z</time>
      </trkpt>
      <trkpt lat="47.50244" lon="-2.77152">
        <ele>56</ele>
        <time>2025-05-13T09:50:05Z</time>
      </trkpt>
      <trkpt lat="47.5024" lon="-2.77152">
        <ele>56</ele>
        <time>2025-05-13T09:50:06Z</time>
      </trkpt>
      <trkpt lat="47.50236" lon="-2.77152">
        <ele>57</ele>
        <time>2025-05-13T09:50:07Z</time>
      </trkpt>
      <trkpt lat="47.50232" lon="-2.77151">
        <ele>57</ele>
        <time>2025-05-13T09:50:08Z</time>
      </trkpt>
      <trkpt lat="47.50229" lon="-2.77151">
        <ele>57</ele>
        <time>2025-05-13T09:50:09Z</time>
      </trkpt>
      <trkpt lat="47.50225" lon="-2.77151">
        <ele>58</ele>
        <time>2025-05-13T09:50:10Z</time>
      </trkpt>
      <trkpt lat="47.50222" lon="-2.7715">
        <ele>58</ele>
        <time>2025-05-13T09:50:11Z</time>
      </trkpt>
      <trkpt lat="47.50218" lon="-2.7715">
        <ele>58</ele>
        <time>2025-05-13T09:50:12Z</time>
      </trkpt>
      <trkpt lat="47.50215" lon="-2.7715">
        <ele>58</ele>
        <time>2025-05-13T09:50:13Z</time>
      </trkpt>
      <trkpt lat="47.50212" lon="-2.77149">
        <ele>59</ele>
        <time>2025-05-13T09:50:14Z</time>
      </trkpt>
      <trkpt lat="47.50209" lon="-2.7715">
        <ele>59</ele>
        <time>2025-05-13T09:50:15Z</time>
      </trkpt>
      <trkpt lat="47.50206" lon="-2.77152">
        <ele>59</ele>
        <time>2025-05-13T09:50:16Z</time>
      </trkpt>
      <trkpt lat="47.50205" lon="-2.77156">
        <ele>60</ele>
        <time>2025-05-13T09:50:17Z</time>
      </trkpt>
      <trkpt lat="47.50203" lon="-2.77159">
        <ele>60</ele>
        <time>2025-05-13T09:50:18Z</time>
      </trkpt>
      <trkpt lat="47.502" lon="-2.77162">
        <ele>60</ele>
        <time>2025-05-13T09:50:19Z</time>
      </trkpt>
      <trkpt lat="47.50198" lon="-2.77163">
        <ele>60</ele>
        <time>2025-05-13T09:50:20Z</time>
      </trkpt>
      <trkpt lat="47.50195" lon="-2.77164">
        <ele>60</ele>
        <time>2025-05-13T09:50:21Z</time>
      </trkpt>
      <trkpt lat="47.50192" lon="-2.77165">
        <ele>60</ele>
        <time>2025-05-13T09:50:22Z</time>
      </trkpt>
      <trkpt lat="47.50189" lon="-2.77164">
        <ele>60</ele>
        <time>2025-05-13T09:50:23Z</time>
      </trkpt>
      <trkpt lat="47.50186" lon="-2.77164">
        <ele>61</ele>
        <time>2025-05-13T09:50:24Z</time>
      </trkpt>
      <trkpt lat="47.50183" lon="-2.77163">
        <ele>61</ele>
        <time>2025-05-13T09:50:25Z</time>
      </trkpt>
      <trkpt lat="47.50179" lon="-2.77163">
        <ele>61</ele>
        <time>2025-05-13T09:50:26Z</time>
      </trkpt>
      <trkpt lat="47.50177" lon="-2.77162">
        <ele>61</ele>
        <time>2025-05-13T09:50:27Z</time>
      </trkpt>
      <trkpt lat="47.50174" lon="-2.77161">
        <ele>61</ele>
        <time>2025-05-13T09:50:28Z</time>
      </trkpt>
      <trkpt lat="47.50171" lon="-2.77161">
        <ele>61</ele>
        <time>2025-05-13T09:50:29Z</time>
      </trkpt>
      <trkpt lat="47.50168" lon="-2.7716">
        <ele>62</ele>
        <time>2025-05-13T09:50:30Z</time>
      </trkpt>
      <trkpt lat="47.50165" lon="-2.77159">
        <ele>62</ele>
        <time>2025-05-13T09:50:31Z</time>
      </trkpt>
      <trkpt lat="47.50162" lon="-2.77158">
        <ele>63</ele>
        <time>2025-05-13T09:50:32Z</time>
      </trkpt>
      <trkpt lat="47.50159" lon="-2.77157">
        <ele>63</ele>
        <time>2025-05-13T09:50:33Z</time>
      </trkpt>
      <trkpt lat="47.50156" lon="-2.77156">
        <ele>62</ele>
        <time>2025-05-13T09:50:34Z</time>
      </trkpt>
      <trkpt lat="47.50152" lon="-2.77155">
        <ele>62</ele>
        <time>2025-05-13T09:50:35Z</time>
      </trkpt>
      <trkpt lat="47.50149" lon="-2.77155">
        <ele>62</ele>
        <time>2025-05-13T09:50:36Z</time>
      </trkpt>
      <trkpt lat="47.50146" lon="-2.77154">
        <ele>61</ele>
        <time>2025-05-13T09:50:37Z</time>
      </trkpt>
      <trkpt lat="47.50142" lon="-2.77153">
        <ele>61</ele>
        <time>2025-05-13T09:50:38Z</time>
      </trkpt>
      <trkpt lat="47.50138" lon="-2.77152">
        <ele>61</ele>
        <time>2025-05-13T09:50:39Z</time>
      </trkpt>
      <trkpt lat="47.50134" lon="-2.7715">
        <ele>61</ele>
        <time>2025-05-13T09:50:40Z</time>
      </trkpt>
      <trkpt lat="47.5013" lon="-2.77149">
        <ele>61</ele>
        <time>2025-05-13T09:50:41Z</time>
      </trkpt>
      <trkpt lat="47.50127" lon="-2.77148">
        <ele>61</ele>
        <time>2025-05-13T09:50:42Z</time>
      </trkpt>
      <trkpt lat="47.50123" lon="-2.77147">
        <ele>61</ele>
        <time>2025-05-13T09:50:43Z</time>
      </trkpt>
      <trkpt lat="47.5012" lon="-2.77146">
        <ele>61</ele>
        <time>2025-05-13T09:50:44Z</time>
      </trkpt>
      <trkpt lat="47.50116" lon="-2.77146">
        <ele>61</ele>
        <time>2025-05-13T09:50:45Z</time>
      </trkpt>
      <trkpt lat="47.50112" lon="-2.77145">
        <ele>61</ele>
        <time>2025-05-13T09:50:46Z</time>
      </trkpt>
      <trkpt lat="47.50109" lon="-2.77143">
        <ele>61</ele>
        <time>2025-05-13T09:50:47Z</time>
      </trkpt>
      <trkpt lat="47.50105" lon="-2.77142">
        <ele>61</ele>
        <time>2025-05-13T09:50:48Z</time>
      </trkpt>
      <trkpt lat="47.50101" lon="-2.77141">
        <ele>61</ele>
        <time>2025-05-13T09:50:49Z</time>
      </trkpt>
      <trkpt lat="47.50097" lon="-2.7714">
        <ele>61</ele>
        <time>2025-05-13T09:50:50Z</time>
      </trkpt>
      <trkpt lat="47.50093" lon="-2.77138">
        <ele>61</ele>
        <time>2025-05-13T09:50:51Z</time>
      </trkpt>
      <trkpt lat="47.50089" lon="-2.77137">
        <ele>61</ele>
        <time>2025-05-13T09:50:52Z</time>
      </trkpt>
      <trkpt lat="47.50085" lon="-2.77136">
        <ele>61</ele>
        <time>2025-05-13T09:50:53Z</time>
      </trkpt>
      <trkpt lat="47.5008" lon="-2.77134">
        <ele>61</ele>
        <time>2025-05-13T09:50:54Z</time>
      </trkpt>
      <trkpt lat="47.50076" lon="-2.77133">
        <ele>61</ele>
        <time>2025-05-13T09:50:55Z</time>
      </trkpt>
      <trkpt lat="47.50072" lon="-2.77131">
        <ele>61</ele>
        <time>2025-05-13T09:50:56Z</time>
      </trkpt>
      <trkpt lat="47.50068" lon="-2.7713">
        <ele>61</ele>
        <time>2025-05-13T09:50:57Z</time>
      </trkpt>
      <trkpt lat="47.50064" lon="-2.77128">
        <ele>61</ele>
        <time>2025-05-13T09:50:58Z</time>
      </trkpt>
      <trkpt lat="47.5006" lon="-2.77127">
        <ele>61</ele>
        <time>2025-05-13T09:50:59Z</time>
      </trkpt>
      <trkpt lat="47.50055" lon="-2.77125">
        <ele>60</ele>
        <time>2025-05-13T09:51:00Z</time>
      </trkpt>
      <trkpt lat="47.50051" lon="-2.77124">
        <ele>60</ele>
        <time>2025-05-13T09:51:01Z</time>
      </trkpt>
      <trkpt lat="47.50046" lon="-2.77122">
        <ele>60</ele>
        <time>2025-05-13T09:51:02Z</time>
      </trkpt>
      <trkpt lat="47.50042" lon="-2.7712">
        <ele>60</ele>
        <time>2025-05-13T09:51:03Z</time>
      </trkpt>
      <trkpt lat="47.50037" lon="-2.77118">
        <ele>60</ele>
        <time>2025-05-13T09:51:04Z</time>
      </trkpt>
      <trkpt lat="47.50032" lon="-2.77116">
        <ele>60</ele>
        <time>2025-05-13T09:51:05Z</time>
      </trkpt>
      <trkpt lat="47.50028" lon="-2.77114">
        <ele>59</ele>
        <time>2025-05-13T09:51:06Z</time>
      </trkpt>
      <trkpt lat="47.50024" lon="-2.77112">
        <ele>59</ele>
        <time>2025-05-13T09:51:07Z</time>
      </trkpt>
      <trkpt lat="47.50019" lon="-2.7711">
        <ele>59</ele>
        <time>2025-05-13T09:51:08Z</time>
      </trkpt>
      <trkpt lat="47.50014" lon="-2.77107">
        <ele>59</ele>
        <time>2025-05-13T09:51:09Z</time>
      </trkpt>
      <trkpt lat="47.5001" lon="-2.77104">
        <ele>59</ele>
        <time>2025-05-13T09:51:10Z</time>
      </trkpt>
      <trkpt lat="47.50007" lon="-2.77101">
        <ele>59</ele>
        <time>2025-05-13T09:51:11Z</time>
      </trkpt>
      <trkpt lat="47.50003" lon="-2.77097">
        <ele>59</ele>
        <time>2025-05-13T09:51:12Z</time>
      </trkpt>
      <trkpt lat="47.49999" lon="-2.77092">
        <ele>59</ele>
        <time>2025-05-13T09:51:13Z</time>
      </trkpt>
      <trkpt lat="47.49995" lon="-2.77088">
        <ele>59</ele>
        <time>2025-05-13T09:51:14Z</time>
      </trkpt>
      <trkpt lat="47.49991" lon="-2.77083">
        <ele>59</ele>
        <time>2025-05-13T09:51:15Z</time>
      </trkpt>
      <trkpt lat="47.49987" lon="-2.77078">
        <ele>59</ele>
        <time>2025-05-13T09:51:16Z</time>
      </trkpt>
      <trkpt lat="47.49983" lon="-2.77074">
        <ele>59</ele>
        <time>2025-05-13T09:51:17Z</time>
      </trkpt>
      <trkpt lat="47.49978" lon="-2.77069">
        <ele>59</ele>
        <time>2025-05-13T09:51:18Z</time>
      </trkpt>
      <trkpt lat="47.49974" lon="-2.77066">
        <ele>58</ele>
        <time>2025-05-13T09:51:19Z</time>
      </trkpt>
      <trkpt lat="47.49969" lon="-2.77063">
        <ele>58</ele>
        <time>2025-05-13T09:51:20Z</time>
      </trkpt>
      <trkpt lat="47.49964" lon="-2.77061">
        <ele>58</ele>
        <time>2025-05-13T09:51:21Z</time>
      </trkpt>
      <trkpt lat="47.49959" lon="-2.7706">
        <ele>58</ele>
        <time>2025-05-13T09:51:22Z</time>
      </trkpt>
      <trkpt lat="47.49953" lon="-2.77058">
        <ele>58</ele>
        <time>2025-05-13T09:51:23Z</time>
      </trkpt>
      <trkpt lat="47.49949" lon="-2.77057">
        <ele>58</ele>
        <time>2025-05-13T09:51:24Z</time>
      </trkpt>
      <trkpt lat="47.49944" lon="-2.77057">
        <ele>57</ele>
        <time>2025-05-13T09:51:25Z</time>
      </trkpt>
      <trkpt lat="47.49939" lon="-2.77058">
        <ele>57</ele>
        <time>2025-05-13T09:51:26Z</time>
      </trkpt>
      <trkpt lat="47.49934" lon="-2.77059">
        <ele>57</ele>
        <time>2025-05-13T09:51:27Z</time>
      </trkpt>
      <trkpt lat="47.49929" lon="-2.7706">
        <ele>57</ele>
        <time>2025-05-13T09:51:28Z</time>
      </trkpt>
      <trkpt lat="47.49924" lon="-2.77062">
        <ele>57</ele>
        <time>2025-05-13T09:51:29Z</time>
      </trkpt>
      <trkpt lat="47.49919" lon="-2.77064">
        <ele>57</ele>
        <time>2025-05-13T09:51:30Z</time>
      </trkpt>
      <trkpt lat="47.49914" lon="-2.77066">
        <ele>57</ele>
        <time>2025-05-13T09:51:31Z</time>
      </trkpt>
      <trkpt lat="47.4991" lon="-2.77069">
        <ele>57</ele>
        <time>2025-05-13T09:51:32Z</time>
      </trkpt>
      <trkpt lat="47.49905" lon="-2.77071">
        <ele>57</ele>
        <time>2025-05-13T09:51:33Z</time>
      </trkpt>
      <trkpt lat="47.49901" lon="-2.77073">
        <ele>57</ele>
        <time>2025-05-13T09:51:34Z</time>
      </trkpt>
      <trkpt lat="47.49896" lon="-2.77074">
        <ele>57</ele>
        <time>2025-05-13T09:51:35Z</time>
      </trkpt>
      <trkpt lat="47.49892" lon="-2.77076">
        <ele>57</ele>
        <time>2025-05-13T09:51:36Z</time>
      </trkpt>
      <trkpt lat="47.49887" lon="-2.77078">
        <ele>57</ele>
        <time>2025-05-13T09:51:37Z</time>
      </trkpt>
      <trkpt lat="47.49883" lon="-2.7708">
        <ele>56</ele>
        <time>2025-05-13T09:51:38Z</time>
      </trkpt>
      <trkpt lat="47.49879" lon="-2.77082">
        <ele>56</ele>
        <time>2025-05-13T09:51:39Z</time>
      </trkpt>
      <trkpt lat="47.49874" lon="-2.77085">
        <ele>56</ele>
        <time>2025-05-13T09:51:40Z</time>
      </trkpt>
      <trkpt lat="47.49869" lon="-2.77086">
        <ele>56</ele>
        <time>2025-05-13T09:51:41Z</time>
      </trkpt>
      <trkpt lat="47.49865" lon="-2.77088">
        <ele>56</ele>
        <time>2025-05-13T09:51:42Z</time>
      </trkpt>
      <trkpt lat="47.4986" lon="-2.77089">
        <ele>56</ele>
        <time>2025-05-13T09:51:43Z</time>
      </trkpt>
      <trkpt lat="47.49855" lon="-2.77091">
        <ele>56</ele>
        <time>2025-05-13T09:51:44Z</time>
      </trkpt>
      <trkpt lat="47.49851" lon="-2.77093">
        <ele>56</ele>
        <time>2025-05-13T09:51:45Z</time>
      </trkpt>
      <trkpt lat="47.49847" lon="-2.77094">
        <ele>57</ele>
        <time>2025-05-13T09:51:46Z</time>
      </trkpt>
      <trkpt lat="47.49843" lon="-2.77096">
        <ele>57</ele>
        <time>2025-05-13T09:51:47Z</time>
      </trkpt>
      <trkpt lat="47.49839" lon="-2.77097">
        <ele>57</ele>
        <time>2025-05-13T09:51:48Z</time>
      </trkpt>
      <trkpt lat="47.49835" lon="-2.771">
        <ele>56</ele>
        <time>2025-05-13T09:51:49Z</time>
      </trkpt>
      <trkpt lat="47.49831" lon="-2.77101">
        <ele>56</ele>
        <time>2025-05-13T09:51:50Z</time>
      </trkpt>
      <trkpt lat="47.49827" lon="-2.77103">
        <ele>56</ele>
        <time>2025-05-13T09:51:51Z</time>
      </trkpt>
      <trkpt lat="47.49823" lon="-2.77105">
        <ele>56</ele>
        <time>2025-05-13T09:51:52Z</time>
      </trkpt>
      <trkpt lat="47.49819" lon="-2.77106">
        <ele>56</ele>
        <time>2025-05-13T09:51:53Z</time>
      </trkpt>
      <trkpt lat="47.49815" lon="-2.77108">
        <ele>56</ele>
        <time>2025-05-13T09:51:54Z</time>
      </trkpt>
      <trkpt lat="47.49811" lon="-2.7711">
        <ele>56</ele>
        <time>2025-05-13T09:51:55Z</time>
      </trkpt>
      <trkpt lat="47.49807" lon="-2.77112">
        <ele>56</ele>
        <time>2025-05-13T09:51:56Z</time>
      </trkpt>
      <trkpt lat="47.49803" lon="-2.77113">
        <ele>56</ele>
        <time>2025-05-13T09:51:57Z</time>
      </trkpt>
      <trkpt lat="47.49799" lon="-2.77115">
        <ele>56</ele>
        <time>2025-05-13T09:51:58Z</time>
      </trkpt>
      <trkpt lat="47.49795" lon="-2.77116">
        <ele>56</ele>
        <time>2025-05-13T09:51:59Z</time>
      </trkpt>
      <trkpt lat="47.49791" lon="-2.77118">
        <ele>56</ele>
        <time>2025-05-13T09:52:00Z</time>
      </trkpt>
      <trkpt lat="47.49787" lon="-2.77119">
        <ele>57</ele>
        <time>2025-05-13T09:52:01Z</time>
      </trkpt>
      <trkpt lat="47.49783" lon="-2.7712">
        <ele>57</ele>
        <time>2025-05-13T09:52:02Z</time>
      </trkpt>
      <trkpt lat="47.4978" lon="-2.77121">
        <ele>56</ele>
        <time>2025-05-13T09:52:03Z</time>
      </trkpt>
      <trkpt lat="47.49777" lon="-2.77122">
        <ele>56</ele>
        <time>2025-05-13T09:52:04Z</time>
      </trkpt>
      <trkpt lat="47.49774" lon="-2.77123">
        <ele>56</ele>
        <time>2025-05-13T09:52:05Z</time>
      </trkpt>
      <trkpt lat="47.49772" lon="-2.77124">
        <ele>56</ele>
        <time>2025-05-13T09:52:06Z</time>
      </trkpt>
      <trkpt lat="47.49769" lon="-2.77125">
        <ele>56</ele>
        <time>2025-05-13T09:52:07Z</time>
      </trkpt>
      <trkpt lat="47.49767" lon="-2.77126">
        <ele>56</ele>
        <time>2025-05-13T09:52:08Z</time>
      </trkpt>
      <trkpt lat="47.49765" lon="-2.77128">
        <ele>57</ele>
        <time>2025-05-13T09:52:09Z</time>
      </trkpt>
      <trkpt lat="47.49763" lon="-2.77128">
        <ele>56</ele>
        <time>2025-05-13T09:52:10Z</time>
      </trkpt>
      <trkpt lat="47.49761" lon="-2.77129">
        <ele>56</ele>
        <time>2025-05-13T09:52:11Z</time>
      </trkpt>
      <trkpt lat="47.49759" lon="-2.77129">
        <ele>56</ele>
        <time>2025-05-13T09:52:12Z</time>
      </trkpt>
      <trkpt lat="47.49758" lon="-2.77129">
        <ele>56</ele>
        <time>2025-05-13T09:52:13Z</time>
      </trkpt>
      <trkpt lat="47.49756" lon="-2.77129">
        <ele>57</ele>
        <time>2025-05-13T09:52:14Z</time>
      </trkpt>
      <trkpt lat="47.49755" lon="-2.7713">
        <ele>57</ele>
        <time>2025-05-13T09:52:15Z</time>
      </trkpt>
      <trkpt lat="47.49754" lon="-2.7713">
        <ele>57</ele>
        <time>2025-05-13T09:52:16Z</time>
      </trkpt>
      <trkpt lat="47.49753" lon="-2.7713">
        <ele>57</ele>
        <time>2025-05-13T09:52:17Z</time>
      </trkpt>
      <trkpt lat="47.49752" lon="-2.7713">
        <ele>57</ele>
        <time>2025-05-13T09:52:18Z</time>
      </trkpt>
      <trkpt lat="47.49752" lon="-2.7713">
        <ele>57</ele>
        <time>2025-05-13T09:52:19Z</time>
      </trkpt>
      <trkpt lat="47.49752" lon="-2.7713">
        <ele>57</ele>
        <time>2025-05-13T09:52:20Z</time>
      </trkpt>
      <trkpt lat="47.49752" lon="-2.7713">
        <ele>57</ele>
        <time>2025-05-13T09:52:21Z</time>
      </trkpt>
      <trkpt lat="47.49752" lon="-2.7713">
        <ele>57</ele>
        <time>2025-05-13T09:52:22Z</time>
      </trkpt>
      <trkpt lat="47.49752" lon="-2.7713">
        <ele>57</ele>
        <time>2025-05-13T09:52:23Z</time>
      </trkpt>
      <trkpt lat="47.49752" lon="-2.7713">
        <ele>57</ele>
        <time>2025-05-13T09:52:24Z</time>
      </trkpt>
      <trkpt lat="47.49752" lon="-2.7713">
        <ele>57</ele>
        <time>2025-05-13T09:52:25Z</time>
      </trkpt>
      <trkpt lat="47.49752" lon="-2.7713">
        <ele>57</ele>
        <time>2025-05-13T09:52:26Z</time>
      </trkpt>
      <trkpt lat="47.49752" lon="-2.7713">
        <ele>57</ele>
        <time>2025-05-13T09:52:27Z</time>
      </trkpt>
      <trkpt lat="47.49752" lon="-2.7713">
        <ele>57</ele>
        <time>2025-05-13T09:52:28Z</time>
      </trkpt>
      <trkpt lat="47.49752" lon="-2.7713">
        <ele>57</ele>
        <time>2025-05-13T09:52:29Z</time>
      </trkpt>
      <trkpt lat="47.49752" lon="-2.7713">
        <ele>57</ele>
        <time>2025-05-13T09:52:30Z</time>
      </trkpt>
      <trkpt lat="47.49752" lon="-2.7713">
        <ele>57</ele>
        <time>2025-05-13T09:52:31Z</time>
      </trkpt>
      <trkpt lat="47.49753" lon="-2.7713">
        <ele>57</ele>
        <time>2025-05-13T09:52:32Z</time>
      </trkpt>
      <trkpt lat="47.49753" lon="-2.7713">
        <ele>57</ele>
        <time>2025-05-13T09:52:33Z</time>
      </trkpt>
      <trkpt lat="47.49753" lon="-2.7713">
        <ele>57</ele>
        <time>2025-05-13T09:52:34Z</time>
      </trkpt>
      <trkpt lat="47.49753" lon="-2.7713">
        <ele>57</ele>
        <time>2025-05-13T09:52:35Z</time>
      </trkpt>
      <trkpt lat="47.49753" lon="-2.7713">
        <ele>57</ele>
        <time>2025-05-13T09:52:36Z</time>
      </trkpt>
      <trkpt lat="47.49753" lon="-2.7713">
        <ele>57</ele>
        <time>2025-05-13T09:52:37Z</time>
      </trkpt>
      <trkpt lat="47.49753" lon="-2.7713">
        <ele>57</ele>
        <time>2025-05-13T09:52:38Z</time>
      </trkpt>
      <trkpt lat="47.49753" lon="-2.7713">
        <ele>57</ele>
        <time>2025-05-13T09:52:39Z</time>
      </trkpt>
      <trkpt lat="47.49753" lon="-2.7713">
        <ele>57</ele>
        <time>2025-05-13T09:52:40Z</time>
      </trkpt>
      <trkpt lat="47.49753" lon="-2.7713">
        <ele>57</ele>
        <time>2025-05-13T09:52:41Z</time>
      </trkpt>
      <trkpt lat="47.49753" lon="-2.7713">
        <ele>57</ele>
        <time>2025-05-13T09:52:42Z</time>
      </trkpt>
      <trkpt lat="47.49753" lon="-2.7713">
        <ele>57</ele>
        <time>2025-05-13T09:52:43Z</time>
      </trkpt>
      <trkpt lat="47.49753" lon="-2.7713">
        <ele>57</ele>
        <time>2025-05-13T09:52:44Z</time>
      </trkpt>
      <trkpt lat="47.49753" lon="-2.7713">
        <ele>57</ele>
        <time>2025-05-13T09:52:45Z</time>
      </trkpt>
      <trkpt lat="47.49753" lon="-2.7713">
        <ele>57</ele>
        <time>2025-05-13T09:52:46Z</time>
      </trkpt>
      <trkpt lat="47.49753" lon="-2.7713">
        <ele>57</ele>
        <time>2025-05-13T09:52:47Z</time>
      </trkpt>
      <trkpt lat="47.49753" lon="-2.7713">
        <ele>57</ele>
        <time>2025-05-13T09:52:48Z</time>
      </trkpt>
      <trkpt lat="47.49753" lon="-2.7713">
        <ele>57</ele>
        <time>2025-05-13T09:52:49Z</time>
      </trkpt>
      <trkpt lat="47.49753" lon="-2.7713">
        <ele>57</ele>
        <time>2025-05-13T09:52:50Z</time>
      </trkpt>
      <trkpt lat="47.49753" lon="-2.7713">
        <ele>57</ele>
        <time>2025-05-13T09:52:51Z</time>
      </trkpt>
      <trkpt lat="47.49753" lon="-2.7713">
        <ele>57</ele>
        <time>2025-05-13T09:52:52Z</time>
      </trkpt>
      <trkpt lat="47.49753" lon="-2.7713">
        <ele>57</ele>
        <time>2025-05-13T09:52:53Z</time>
      </trkpt>
      <trkpt lat="47.49753" lon="-2.7713">
        <ele>57</ele>
        <time>2025-05-13T09:52:54Z</time>
      </trkpt>
      <trkpt lat="47.49753" lon="-2.7713">
        <ele>57</ele>
        <time>2025-05-13T09:52:55Z</time>
      </trkpt>
      <trkpt lat="47.49753" lon="-2.7713">
        <ele>57</ele>
        <time>2025-05-13T09:52:56Z</time>
      </trkpt>
      <trkpt lat="47.49753" lon="-2.7713">
        <ele>57</ele>
        <time>2025-05-13T09:52:57Z</time>
      </trkpt>
      <trkpt lat="47.49753" lon="-2.7713">
        <ele>57</ele>
        <time>2025-05-13T09:52:58Z</time>
      </trkpt>
      <trkpt lat="47.49753" lon="-2.7713">
        <ele>57</ele>
        <time>2025-05-13T09:52:59Z</time>
      </trkpt>
      <trkpt lat="47.49753" lon="-2.7713">
        <ele>57</ele>
        <time>2025-05-13T09:53:00Z</time>
      </trkpt>
      <trkpt lat="47.49753" lon="-2.7713">
        <ele>57</ele>
        <time>2025-05-13T09:53:01Z</time>
      </trkpt>
      <trkpt lat="47.49753" lon="-2.7713">
        <ele>57</ele>
        <time>2025-05-13T09:53:02Z</time>
      </trkpt>
      <trkpt lat="47.49753" lon="-2.7713">
        <ele>57</ele>
        <time>2025-05-13T09:53:03Z</time>
      </trkpt>
      <trkpt lat="47.49753" lon="-2.7713">
        <ele>57</ele>
        <time>2025-05-13T09:53:04Z</time>
      </trkpt>
      <trkpt lat="47.49753" lon="-2.7713">
        <ele>57</ele>
        <time>2025-05-13T09:53:05Z</time>
      </trkpt>
      <trkpt lat="47.49753" lon="-2.7713">
        <ele>57</ele>
        <time>2025-05-13T09:53:06Z</time>
      </trkpt>
      <trkpt lat="47.49753" lon="-2.7713">
        <ele>57</ele>
        <time>2025-05-13T09:53:07Z</time>
      </trkpt>
      <trkpt lat="47.49753" lon="-2.7713">
        <ele>57</ele>
        <time>2025-05-13T09:53:08Z</time>
      </trkpt>
      <trkpt lat="47.49753" lon="-2.7713">
        <ele>57</ele>
        <time>2025-05-13T09:53:09Z</time>
      </trkpt>
      <trkpt lat="47.49753" lon="-2.7713">
        <ele>57</ele>
        <time>2025-05-13T09:53:10Z</time>
      </trkpt>
      <trkpt lat="47.49753" lon="-2.7713">
        <ele>57</ele>
        <time>2025-05-13T09:53:11Z</time>
      </trkpt>
      <trkpt lat="47.49753" lon="-2.7713">
        <ele>57</ele>
        <time>2025-05-13T09:53:12Z</time>
      </trkpt>
      <trkpt lat="47.49753" lon="-2.7713">
        <ele>57</ele>
        <time>2025-05-13T09:53:13Z</time>
      </trkpt>
      <trkpt lat="47.49753" lon="-2.7713">
        <ele>57</ele>
        <time>2025-05-13T09:53:14Z</time>
      </trkpt>
      <trkpt lat="47.49753" lon="-2.7713">
        <ele>57</ele>
        <time>2025-05-13T09:53:15Z</time>
      </trkpt>
      <trkpt lat="47.49753" lon="-2.7713">
        <ele>57</ele>
        <time>2025-05-13T09:53:16Z</time>
      </trkpt>
      <trkpt lat="47.49753" lon="-2.7713">
        <ele>57</ele>
        <time>2025-05-13T09:53:17Z</time>
      </trkpt>
      <trkpt lat="47.49753" lon="-2.7713">
        <ele>57</ele>
        <time>2025-05-13T09:53:18Z</time>
      </trkpt>
      <trkpt lat="47.49753" lon="-2.7713">
        <ele>57</ele>
        <time>2025-05-13T09:53:19Z</time>
      </trkpt>
      <trkpt lat="47.49753" lon="-2.7713">
        <ele>57</ele>
        <time>2025-05-13T09:53:20Z</time>
      </trkpt>
      <trkpt lat="47.49753" lon="-2.7713">
        <ele>57</ele>
        <time>2025-05-13T09:53:21Z</time>
      </trkpt>
      <trkpt lat="47.49753" lon="-2.7713">
        <ele>57</ele>
        <time>2025-05-13T09:53:22Z</time>
      </trkpt>
      <trkpt lat="47.49753" lon="-2.7713">
        <ele>57</ele>
        <time>2025-05-13T09:53:23Z</time>
      </trkpt>
      <trkpt lat="47.49753" lon="-2.7713">
        <ele>57</ele>
        <time>2025-05-13T09:53:24Z</time>
      </trkpt>
      <trkpt lat="47.49753" lon="-2.7713">
        <ele>57</ele>
        <time>2025-05-13T09:53:25Z</time>
      </trkpt>
      <trkpt lat="47.49753" lon="-2.7713">
        <ele>57</ele>
        <time>2025-05-13T09:53:26Z</time>
      </trkpt>
      <trkpt lat="47.49753" lon="-2.7713">
        <ele>57</ele>
        <time>2025-05-13T09:53:27Z</time>
      </trkpt>
      <trkpt lat="47.49753" lon="-2.7713">
        <ele>57</ele>
        <time>2025-05-13T09:53:28Z</time>
      </trkpt>
      <trkpt lat="47.49753" lon="-2.7713">
        <ele>57</ele>
        <time>2025-05-13T09:53:29Z</time>
      </trkpt>
      <trkpt lat="47.49753" lon="-2.7713">
        <ele>57</ele>
        <time>2025-05-13T10:08:24Z</time>
      </trkpt>
      <trkpt lat="47.49753" lon="-2.7713">
        <ele>57</ele>
        <time>2025-05-13T10:08:25Z</time>
      </trkpt>
      <trkpt lat="47.49753" lon="-2.7713">
        <ele>57</ele>
        <time>2025-05-13T10:08:26Z</time>
      </trkpt>
      <trkpt lat="47.49753" lon="-2.7713">
        <ele>57</ele>
        <time>2025-05-13T10:08:27Z</time>
      </trkpt>
      <trkpt lat="47.49753" lon="-2.7713">
        <ele>57</ele>
        <time>2025-05-13T10:08:28Z</time>
      </trkpt>
      <trkpt lat="47.49753" lon="-2.7713">
        <ele>57</ele>
        <time>2025-05-13T10:08:29Z</time>
      </trkpt>
      <trkpt lat="47.49753" lon="-2.7713">
        <ele>57</ele>
        <time>2025-05-13T10:08:30Z</time>
      </trkpt>
      <trkpt lat="47.49752" lon="-2.77131">
        <ele>63</ele>
        <time>2025-05-13T10:08:31Z</time>
      </trkpt>
      <trkpt lat="47.49753" lon="-2.77133">
        <ele>62</ele>
        <time>2025-05-13T10:08:32Z</time>
      </trkpt>
      <trkpt lat="47.49754" lon="-2.77134">
        <ele>62</ele>
        <time>2025-05-13T10:08:33Z</time>
      </trkpt>
      <trkpt lat="47.49755" lon="-2.77136">
        <ele>62</ele>
        <time>2025-05-13T10:08:34Z</time>
      </trkpt>
      <trkpt lat="47.49757" lon="-2.77136">
        <ele>61</ele>
        <time>2025-05-13T10:08:35Z</time>
      </trkpt>
      <trkpt lat="47.49758" lon="-2.77137">
        <ele>61</ele>
        <time>2025-05-13T10:08:36Z</time>
      </trkpt>
      <trkpt lat="47.49758" lon="-2.77136">
        <ele>60</ele>
        <time>2025-05-13T10:08:37Z</time>
      </trkpt>
      <trkpt lat="47.49759" lon="-2.77137">
        <ele>60</ele>
        <time>2025-05-13T10:08:38Z</time>
      </trkpt>
      <trkpt lat="47.49759" lon="-2.77139">
        <ele>60</ele>
        <time>2025-05-13T10:08:39Z</time>
      </trkpt>
      <trkpt lat="47.49759" lon="-2.77142">
        <ele>59</ele>
        <time>2025-05-13T10:08:40Z</time>
      </trkpt>
      <trkpt lat="47.49759" lon="-2.77144">
        <ele>59</ele>
        <time>2025-05-13T10:08:41Z</time>
      </trkpt>
      <trkpt lat="47.49759" lon="-2.77146">
        <ele>59</ele>
        <time>2025-05-13T10:08:42Z</time>
      </trkpt>
      <trkpt lat="47.4976" lon="-2.77149">
        <ele>59</ele>
        <time>2025-05-13T10:08:43Z</time>
      </trkpt>
      <trkpt lat="47.49761" lon="-2.77152">
        <ele>59</ele>
        <time>2025-05-13T10:08:44Z</time>
      </trkpt>
      <trkpt lat="47.49761" lon="-2.77156">
        <ele>59</ele>
        <time>2025-05-13T10:08:45Z</time>
      </trkpt>
      <trkpt lat="47.49761" lon="-2.7716">
        <ele>59</ele>
        <time>2025-05-13T10:08:46Z</time>
      </trkpt>
      <trkpt lat="47.49761" lon="-2.77164">
        <ele>59</ele>
        <time>2025-05-13T10:08:47Z</time>
      </trkpt>
      <trkpt lat="47.49761" lon="-2.77168">
        <ele>59</ele>
        <time>2025-05-13T10:08:48Z</time>
      </trkpt>
      <trkpt lat="47.49761" lon="-2.77173">
        <ele>59</ele>
        <time>2025-05-13T10:08:49Z</time>
      </trkpt>
      <trkpt lat="47.49761" lon="-2.77179">
        <ele>60</ele>
        <time>2025-05-13T10:08:50Z</time>
      </trkpt>
      <trkpt lat="47.49761" lon="-2.77184">
        <ele>60</ele>
        <time>2025-05-13T10:08:51Z</time>
      </trkpt>
      <trkpt lat="47.49761" lon="-2.7719">
        <ele>61</ele>
        <time>2025-05-13T10:08:52Z</time>
      </trkpt>
      <trkpt lat="47.49762" lon="-2.77196">
        <ele>61</ele>
        <time>2025-05-13T10:08:53Z</time>
      </trkpt>
      <trkpt lat="47.49762" lon="-2.77201">
        <ele>61</ele>
        <time>2025-05-13T10:08:54Z</time>
      </trkpt>
      <trkpt lat="47.49763" lon="-2.77206">
        <ele>60</ele>
        <time>2025-05-13T10:08:55Z</time>
      </trkpt>
      <trkpt lat="47.49763" lon="-2.77211">
        <ele>59</ele>
        <time>2025-05-13T10:08:56Z</time>
      </trkpt>
      <trkpt lat="47.49763" lon="-2.77217">
        <ele>59</ele>
        <time>2025-05-13T10:08:57Z</time>
      </trkpt>
      <trkpt lat="47.49764" lon="-2.77222">
        <ele>58</ele>
        <time>2025-05-13T10:08:58Z</time>
      </trkpt>
      <trkpt lat="47.49765" lon="-2.77227">
        <ele>58</ele>
        <time>2025-05-13T10:08:59Z</time>
      </trkpt>
      <trkpt lat="47.49767" lon="-2.77232">
        <ele>58</ele>
        <time>2025-05-13T10:09:00Z</time>
      </trkpt>
      <trkpt lat="47.49768" lon="-2.77238">
        <ele>58</ele>
        <time>2025-05-13T10:09:01Z</time>
      </trkpt>
      <trkpt lat="47.49769" lon="-2.77241">
        <ele>56</ele>
        <time>2025-05-13T10:09:02Z</time>
      </trkpt>
      <trkpt lat="47.49771" lon="-2.77245">
        <ele>56</ele>
        <time>2025-05-13T10:09:03Z</time>
      </trkpt>
      <trkpt lat="47.49772" lon="-2.7725">
        <ele>56</ele>
        <time>2025-05-13T10:09:04Z</time>
      </trkpt>
      <trkpt lat="47.49772" lon="-2.77255">
        <ele>57</ele>
        <time>2025-05-13T10:09:05Z</time>
      </trkpt>
      <trkpt lat="47.49771" lon="-2.7726">
        <ele>57</ele>
        <time>2025-05-13T10:09:06Z</time>
      </trkpt>
      <trkpt lat="47.4977" lon="-2.77265">
        <ele>57</ele>
        <time>2025-05-13T10:09:07Z</time>
      </trkpt>
      <trkpt lat="47.4977" lon="-2.77269">
        <ele>57</ele>
        <time>2025-05-13T10:09:08Z</time>
      </trkpt>
      <trkpt lat="47.49769" lon="-2.77272">
        <ele>58</ele>
        <time>2025-05-13T10:09:09Z</time>
      </trkpt>
      <trkpt lat="47.49768" lon="-2.77277">
        <ele>58</ele>
        <time>2025-05-13T10:09:10Z</time>
      </trkpt>
      <trkpt lat="47.49767" lon="-2.77281">
        <ele>58</ele>
        <time>2025-05-13T10:09:11Z</time>
      </trkpt>
      <trkpt lat="47.49767" lon="-2.77285">
        <ele>58</ele>
        <time>2025-05-13T10:09:12Z</time>
      </trkpt>
      <trkpt lat="47.49767" lon="-2.77289">
        <ele>58</ele>
        <time>2025-05-13T10:09:13Z</time>
      </trkpt>
      <trkpt lat="47.49767" lon="-2.77293">
        <ele>58</ele>
        <time>2025-05-13T10:09:14Z</time>
      </trkpt>
      <trkpt lat="47.49767" lon="-2.77297">
        <ele>58</ele>
        <time>2025-05-13T10:09:15Z</time>
      </trkpt>
      <trkpt lat="47.49768" lon="-2.773">
        <ele>59</ele>
        <time>2025-05-13T10:09:16Z</time>
      </trkpt>
      <trkpt lat="47.49768" lon="-2.77303">
        <ele>59</ele>
        <time>2025-05-13T10:09:17Z</time>
      </trkpt>
      <trkpt lat="47.49769" lon="-2.77306">
        <ele>59</ele>
        <time>2025-05-13T10:09:18Z</time>
      </trkpt>
      <trkpt lat="47.49769" lon="-2.7731">
        <ele>60</ele>
        <time>2025-05-13T10:09:19Z</time>
      </trkpt>
      <trkpt lat="47.4977" lon="-2.77314">
        <ele>60</ele>
        <time>2025-05-13T10:09:20Z</time>
      </trkpt>
      <trkpt lat="47.49771" lon="-2.77317">
        <ele>61</ele>
        <time>2025-05-13T10:09:21Z</time>
      </trkpt>
      <trkpt lat="47.49771" lon="-2.77321">
        <ele>61</ele>
        <time>2025-05-13T10:09:22Z</time>
      </trkpt>
      <trkpt lat="47.49771" lon="-2.77325">
        <ele>61</ele>
        <time>2025-05-13T10:09:23Z</time>
      </trkpt>
      <trkpt lat="47.49771" lon="-2.77328">
        <ele>62</ele>
        <time>2025-05-13T10:09:24Z</time>
      </trkpt>
      <trkpt lat="47.49771" lon="-2.77331">
        <ele>62</ele>
        <time>2025-05-13T10:09:25Z</time>
      </trkpt>
      <trkpt lat="47.49772" lon="-2.77335">
        <ele>62</ele>
        <time>2025-05-13T10:09:26Z</time>
      </trkpt>
      <trkpt lat="47.49772" lon="-2.77338">
        <ele>62</ele>
        <time>2025-05-13T10:09:27Z</time>
      </trkpt>
      <trkpt lat="47.49772" lon="-2.77341">
        <ele>63</ele>
        <time>2025-05-13T10:09:28Z</time>
      </trkpt>
      <trkpt lat="47.49772" lon="-2.77344">
        <ele>63</ele>
        <time>2025-05-13T10:09:29Z</time>
      </trkpt>
      <trkpt lat="47.49773" lon="-2.77347">
        <ele>63</ele>
        <time>2025-05-13T10:09:30Z</time>
      </trkpt>
      <trkpt lat="47.49773" lon="-2.77351">
        <ele>63</ele>
        <time>2025-05-13T10:09:31Z</time>
      </trkpt>
      <trkpt lat="47.49773" lon="-2.77354">
        <ele>64</ele>
        <time>2025-05-13T10:09:32Z</time>
      </trkpt>
      <trkpt lat="47.49773" lon="-2.77357">
        <ele>64</ele>
        <time>2025-05-13T10:09:33Z</time>
      </trkpt>
      <trkpt lat="47.49773" lon="-2.7736">
        <ele>64</ele>
        <time>2025-05-13T10:09:34Z</time>
      </trkpt>
      <trkpt lat="47.49774" lon="-2.77363">
        <ele>65</ele>
        <time>2025-05-13T10:09:35Z</time>
      </trkpt>
      <trkpt lat="47.49775" lon="-2.77367">
        <ele>65</ele>
        <time>2025-05-13T10:09:36Z</time>
      </trkpt>
      <trkpt lat="47.49776" lon="-2.7737">
        <ele>64</ele>
        <time>2025-05-13T10:09:37Z</time>
      </trkpt>
      <trkpt lat="47.49777" lon="-2.77373">
        <ele>64</ele>
        <time>2025-05-13T10:09:38Z</time>
      </trkpt>
      <trkpt lat="47.49778" lon="-2.77375">
        <ele>64</ele>
        <time>2025-05-13T10:09:39Z</time>
      </trkpt>
      <trkpt lat="47.49778" lon="-2.77378">
        <ele>64</ele>
        <time>2025-05-13T10:09:40Z</time>
      </trkpt>
      <trkpt lat="47.49779" lon="-2.77381">
        <ele>63</ele>
        <time>2025-05-13T10:09:41Z</time>
      </trkpt>
      <trkpt lat="47.4978" lon="-2.77383">
        <ele>63</ele>
        <time>2025-05-13T10:09:42Z</time>
      </trkpt>
      <trkpt lat="47.49781" lon="-2.77386">
        <ele>63</ele>
        <time>2025-05-13T10:09:43Z</time>
      </trkpt>
      <trkpt lat="47.49783" lon="-2.77389">
        <ele>63</ele>
        <time>2025-05-13T10:09:44Z</time>
      </trkpt>
      <trkpt lat="47.49784" lon="-2.77391">
        <ele>63</ele>
        <time>2025-05-13T10:09:45Z</time>
      </trkpt>
      <trkpt lat="47.49786" lon="-2.77394">
        <ele>64</ele>
        <time>2025-05-13T10:09:46Z</time>
      </trkpt>
      <trkpt lat="47.49787" lon="-2.77397">
        <ele>64</ele>
        <time>2025-05-13T10:09:47Z</time>
      </trkpt>
      <trkpt lat="47.49789" lon="-2.774">
        <ele>65</ele>
        <time>2025-05-13T10:09:48Z</time>
      </trkpt>
      <trkpt lat="47.4979" lon="-2.77402">
        <ele>65</ele>
        <time>2025-05-13T10:09:49Z</time>
      </trkpt>
      <trkpt lat="47.49791" lon="-2.77405">
        <ele>65</ele>
        <time>2025-05-13T10:09:50Z</time>
      </trkpt>
      <trkpt lat="47.49792" lon="-2.77408">
        <ele>65</ele>
        <time>2025-05-13T10:09:51Z</time>
      </trkpt>
      <trkpt lat="47.49793" lon="-2.77411">
        <ele>66</ele>
        <time>2025-05-13T10:09:52Z</time>
      </trkpt>
      <trkpt lat="47.49794" lon="-2.77413">
        <ele>66</ele>
        <time>2025-05-13T10:09:53Z</time>
      </trkpt>
      <trkpt lat="47.49795" lon="-2.77416">
        <ele>66</ele>
        <time>2025-05-13T10:09:54Z</time>
      </trkpt>
      <trkpt lat="47.49795" lon="-2.77419">
        <ele>66</ele>
        <time>2025-05-13T10:09:55Z</time>
      </trkpt>
      <trkpt lat="47.49796" lon="-2.77422">
        <ele>66</ele>
        <time>2025-05-13T10:09:56Z</time>
      </trkpt>
      <trkpt lat="47.49796" lon="-2.77424">
        <ele>66</ele>
        <time>2025-05-13T10:09:57Z</time>
      </trkpt>
      <trkpt lat="47.49797" lon="-2.77426">
        <ele>66</ele>
        <time>2025-05-13T10:09:58Z</time>
      </trkpt>
      <trkpt lat="47.49798" lon="-2.77429">
        <ele>67</ele>
        <time>2025-05-13T10:09:59Z</time>
      </trkpt>
      <trkpt lat="47.49798" lon="-2.77431">
        <ele>67</ele>
        <time>2025-05-13T10:10:00Z</time>
      </trkpt>
      <trkpt lat="47.49799" lon="-2.77434">
        <ele>67</ele>
        <time>2025-05-13T10:10:01Z</time>
      </trkpt>
      <trkpt lat="47.498" lon="-2.77437">
        <ele>68</ele>
        <time>2025-05-13T10:10:02Z</time>
      </trkpt>
      <trkpt lat="47.49801" lon="-2.7744">
        <ele>68</ele>
        <time>2025-05-13T10:10:03Z</time>
      </trkpt>
      <trkpt lat="47.49802" lon="-2.77443">
        <ele>68</ele>
        <time>2025-05-13T10:10:04Z</time>
      </trkpt>
      <trkpt lat="47.49803" lon="-2.77445">
        <ele>68</ele>
        <time>2025-05-13T10:10:05Z</time>
      </trkpt>
      <trkpt lat="47.49803" lon="-2.77448">
        <ele>68</ele>
        <time>2025-05-13T10:10:06Z</time>
      </trkpt>
      <trkpt lat="47.49804" lon="-2.77451">
        <ele>68</ele>
        <time>2025-05-13T10:10:07Z</time>
      </trkpt>
      <trkpt lat="47.49805" lon="-2.77453">
        <ele>69</ele>
        <time>2025-05-13T10:10:08Z</time>
      </trkpt>
      <trkpt lat="47.49805" lon="-2.77456">
        <ele>69</ele>
        <time>2025-05-13T10:10:09Z</time>
      </trkpt>
      <trkpt lat="47.49806" lon="-2.77458">
        <ele>69</ele>
        <time>2025-05-13T10:10:10Z</time>
      </trkpt>
      <trkpt lat="47.49806" lon="-2.77461">
        <ele>69</ele>
        <time>2025-05-13T10:10:11Z</time>
      </trkpt>
      <trkpt lat="47.49807" lon="-2.77464">
        <ele>69</ele>
        <time>2025-05-13T10:10:12Z</time>
      </trkpt>
      <trkpt lat="47.49807" lon="-2.77467">
        <ele>69</ele>
        <time>2025-05-13T10:10:13Z</time>
      </trkpt>
      <trkpt lat="47.49808" lon="-2.7747">
        <ele>69</ele>
        <time>2025-05-13T10:10:14Z</time>
      </trkpt>
      <trkpt lat="47.49808" lon="-2.77472">
        <ele>69</ele>
        <time>2025-05-13T10:10:15Z</time>
      </trkpt>
      <trkpt lat="47.49809" lon="-2.77475">
        <ele>69</ele>
        <time>2025-05-13T10:10:16Z</time>
      </trkpt>
      <trkpt lat="47.4981" lon="-2.77478">
        <ele>69</ele>
        <time>2025-05-13T10:10:17Z</time>
      </trkpt>
      <trkpt lat="47.4981" lon="-2.77481">
        <ele>69</ele>
        <time>2025-05-13T10:10:18Z</time>
      </trkpt>
      <trkpt lat="47.49811" lon="-2.77483">
        <ele>69</ele>
        <time>2025-05-13T10:10:19Z</time>
      </trkpt>
      <trkpt lat="47.49812" lon="-2.77486">
        <ele>70</ele>
        <time>2025-05-13T10:10:20Z</time>
      </trkpt>
      <trkpt lat="47.49812" lon="-2.77489">
        <ele>69</ele>
        <time>2025-05-13T10:10:21Z</time>
      </trkpt>
      <trkpt lat="47.49813" lon="-2.77492">
        <ele>70</ele>
        <time>2025-05-13T10:10:22Z</time>
      </trkpt>
      <trkpt lat="47.49813" lon="-2.77495">
        <ele>70</ele>
        <time>2025-05-13T10:10:23Z</time>
      </trkpt>
      <trkpt lat="47.49814" lon="-2.77498">
        <ele>70</ele>
        <time>2025-05-13T10:10:24Z</time>
      </trkpt>
      <trkpt lat="47.49814" lon="-2.77501">
        <ele>70</ele>
        <time>2025-05-13T10:10:25Z</time>
      </trkpt>
      <trkpt lat="47.49814" lon="-2.77504">
        <ele>70</ele>
        <time>2025-05-13T10:10:26Z</time>
      </trkpt>
      <trkpt lat="47.49815" lon="-2.77507">
        <ele>70</ele>
        <time>2025-05-13T10:10:27Z</time>
      </trkpt>
      <trkpt lat="47.49816" lon="-2.7751">
        <ele>70</ele>
        <time>2025-05-13T10:10:28Z</time>
      </trkpt>
      <trkpt lat="47.49817" lon="-2.77513">
        <ele>70</ele>
        <time>2025-05-13T10:10:29Z</time>
      </trkpt>
      <trkpt lat="47.49818" lon="-2.77516">
        <ele>70</ele>
        <time>2025-05-13T10:10:30Z</time>
      </trkpt>
      <trkpt lat="47.49819" lon="-2.7752">
        <ele>70</ele>
        <time>2025-05-13T10:10:31Z</time>
      </trkpt>
      <trkpt lat="47.49819" lon="-2.77523">
        <ele>70</ele>
        <time>2025-05-13T10:10:32Z</time>
      </trkpt>
      <trkpt lat="47.4982" lon="-2.77526">
        <ele>70</ele>
        <time>2025-05-13T10:10:33Z</time>
      </trkpt>
      <trkpt lat="47.4982" lon="-2.77529">
        <ele>70</ele>
        <time>2025-05-13T10:10:34Z</time>
      </trkpt>
      <trkpt lat="47.49821" lon="-2.77532">
        <ele>70</ele>
        <time>2025-05-13T10:10:35Z</time>
      </trkpt>
      <trkpt lat="47.49822" lon="-2.77535">
        <ele>70</ele>
        <time>2025-05-13T10:10:36Z</time>
      </trkpt>
      <trkpt lat="47.49823" lon="-2.77538">
        <ele>70</ele>
        <time>2025-05-13T10:10:37Z</time>
      </trkpt>
      <trkpt lat="47.49823" lon="-2.77542">
        <ele>71</ele>
        <time>2025-05-13T10:10:38Z</time>
      </trkpt>
      <trkpt lat="47.49824" lon="-2.77545">
        <ele>71</ele>
        <time>2025-05-13T10:10:39Z</time>
      </trkpt>
      <trkpt lat="47.49825" lon="-2.77549">
        <ele>71</ele>
        <time>2025-05-13T10:10:40Z</time>
      </trkpt>
      <trkpt lat="47.49826" lon="-2.77552">
        <ele>71</ele>
        <time>2025-05-13T10:10:41Z</time>
      </trkpt>
      <trkpt lat="47.49827" lon="-2.77556">
        <ele>71</ele>
        <time>2025-05-13T10:10:42Z</time>
      </trkpt>
      <trkpt lat="47.49828" lon="-2.77559">
        <ele>70</ele>
        <time>2025-05-13T10:10:43Z</time>
      </trkpt>
      <trkpt lat="47.49829" lon="-2.77562">
        <ele>70</ele>
        <time>2025-05-13T10:10:44Z</time>
      </trkpt>
      <trkpt lat="47.4983" lon="-2.77565">
        <ele>70</ele>
        <time>2025-05-13T10:10:45Z</time>
      </trkpt>
      <trkpt lat="47.49831" lon="-2.77569">
        <ele>70</ele>
        <time>2025-05-13T10:10:46Z</time>
      </trkpt>
      <trkpt lat="47.49832" lon="-2.77573">
        <ele>70</ele>
        <time>2025-05-13T10:10:47Z</time>
      </trkpt>
      <trkpt lat="47.49833" lon="-2.77577">
        <ele>70</ele>
        <time>2025-05-13T10:10:48Z</time>
      </trkpt>
      <trkpt lat="47.49834" lon="-2.7758">
        <ele>70</ele>
        <time>2025-05-13T10:10:49Z</time>
      </trkpt>
      <trkpt lat="47.49835" lon="-2.77583">
        <ele>70</ele>
        <time>2025-05-13T10:10:50Z</time>
      </trkpt>
      <trkpt lat="47.49836" lon="-2.77587">
        <ele>70</ele>
        <time>2025-05-13T10:10:51Z</time>
      </trkpt>
      <trkpt lat="47.49837" lon="-2.7759">
        <ele>70</ele>
        <time>2025-05-13T10:10:52Z</time>
      </trkpt>
      <trkpt lat="47.49838" lon="-2.77594">
        <ele>69</ele>
        <time>2025-05-13T10:10:53Z</time>
      </trkpt>
      <trkpt lat="47.49839" lon="-2.77599">
        <ele>69</ele>
        <time>2025-05-13T10:10:54Z</time>
      </trkpt>
      <trkpt lat="47.4984" lon="-2.77603">
        <ele>69</ele>
        <time>2025-05-13T10:10:55Z</time>
      </trkpt>
      <trkpt lat="47.4984" lon="-2.77607">
        <ele>68</ele>
        <time>2025-05-13T10:10:56Z</time>
      </trkpt>
      <trkpt lat="47.49841" lon="-2.77612">
        <ele>69</ele>
        <time>2025-05-13T10:10:57Z</time>
      </trkpt>
      <trkpt lat="47.49842" lon="-2.77616">
        <ele>69</ele>
        <time>2025-05-13T10:10:58Z</time>
      </trkpt>
      <trkpt lat="47.49842" lon="-2.77621">
        <ele>69</ele>
        <time>2025-05-13T10:10:59Z</time>
      </trkpt>
      <trkpt lat="47.49843" lon="-2.77626">
        <ele>69</ele>
        <time>2025-05-13T10:11:00Z</time>
      </trkpt>
      <trkpt lat="47.49844" lon="-2.77631">
        <ele>70</ele>
        <time>2025-05-13T10:11:01Z</time>
      </trkpt>
      <trkpt lat="47.49844" lon="-2.77635">
        <ele>70</ele>
        <time>2025-05-13T10:11:02Z</time>
      </trkpt>
      <trkpt lat="47.49845" lon="-2.7764">
        <ele>70</ele>
        <time>2025-05-13T10:11:03Z</time>
      </trkpt>
      <trkpt lat="47.49846" lon="-2.77645">
        <ele>70</ele>
        <time>2025-05-13T10:11:04Z</time>
      </trkpt>
      <trkpt lat="47.49846" lon="-2.7765">
        <ele>70</ele>
        <time>2025-05-13T10:11:05Z</time>
      </trkpt>
      <trkpt lat="47.49847" lon="-2.77655">
        <ele>70</ele>
        <time>2025-05-13T10:11:06Z</time>
      </trkpt>
      <trkpt lat="47.49847" lon="-2.7766">
        <ele>70</ele>
        <time>2025-05-13T10:11:07Z</time>
      </trkpt>
      <trkpt lat="47.49847" lon="-2.77665">
        <ele>70</ele>
        <time>2025-05-13T10:11:08Z</time>
      </trkpt>
      <trkpt lat="47.49847" lon="-2.7767">
        <ele>70</ele>
        <time>2025-05-13T10:11:09Z</time>
      </trkpt>
      <trkpt lat="47.49847" lon="-2.77675">
        <ele>70</ele>
        <time>2025-05-13T10:11:10Z</time>
      </trkpt>
      <trkpt lat="47.49848" lon="-2.7768">
        <ele>70</ele>
        <time>2025-05-13T10:11:11Z</time>
      </trkpt>
      <trkpt lat="47.49848" lon="-2.77684">
        <ele>70</ele>
        <time>2025-05-13T10:11:12Z</time>
      </trkpt>
      <trkpt lat="47.49849" lon="-2.77689">
        <ele>70</ele>
        <time>2025-05-13T10:11:13Z</time>
      </trkpt>
      <trkpt lat="47.49849" lon="-2.77693">
        <ele>71</ele>
        <time>2025-05-13T10:11:14Z</time>
      </trkpt>
      <trkpt lat="47.4985" lon="-2.77698">
        <ele>71</ele>
        <time>2025-05-13T10:11:15Z</time>
      </trkpt>
      <trkpt lat="47.4985" lon="-2.77702">
        <ele>71</ele>
        <time>2025-05-13T10:11:16Z</time>
      </trkpt>
      <trkpt lat="47.4985" lon="-2.77706">
        <ele>71</ele>
        <time>2025-05-13T10:11:17Z</time>
      </trkpt>
      <trkpt lat="47.4985" lon="-2.77711">
        <ele>71</ele>
        <time>2025-05-13T10:11:18Z</time>
      </trkpt>
      <trkpt lat="47.49851" lon="-2.77716">
        <ele>71</ele>
        <time>2025-05-13T10:11:19Z</time>
      </trkpt>
      <trkpt lat="47.49851" lon="-2.7772">
        <ele>71</ele>
        <time>2025-05-13T10:11:20Z</time>
      </trkpt>
      <trkpt lat="47.49852" lon="-2.77725">
        <ele>71</ele>
        <time>2025-05-13T10:11:21Z</time>
      </trkpt>
      <trkpt lat="47.49852" lon="-2.7773">
        <ele>70</ele>
        <time>2025-05-13T10:11:22Z</time>
      </trkpt>
      <trkpt lat="47.49852" lon="-2.77735">
        <ele>70</ele>
        <time>2025-05-13T10:11:23Z</time>
      </trkpt>
      <trkpt lat="47.49852" lon="-2.7774">
        <ele>70</ele>
        <time>2025-05-13T10:11:24Z</time>
      </trkpt>
      <trkpt lat="47.49852" lon="-2.77744">
        <ele>71</ele>
        <time>2025-05-13T10:11:25Z</time>
      </trkpt>
      <trkpt lat="47.49852" lon="-2.77749">
        <ele>71</ele>
        <time>2025-05-13T10:11:26Z</time>
      </trkpt>
      <trkpt lat="47.49853" lon="-2.77754">
        <ele>71</ele>
        <time>2025-05-13T10:11:27Z</time>
      </trkpt>
      <trkpt lat="47.49853" lon="-2.7776">
        <ele>71</ele>
        <time>2025-05-13T10:11:28Z</time>
      </trkpt>
      <trkpt lat="47.49853" lon="-2.77765">
        <ele>71</ele>
        <time>2025-05-13T10:11:29Z</time>
      </trkpt>
      <trkpt lat="47.49853" lon="-2.7777">
        <ele>71</ele>
        <time>2025-05-13T10:11:30Z</time>
      </trkpt>
      <trkpt lat="47.49853" lon="-2.77776">
        <ele>71</ele>
        <time>2025-05-13T10:11:31Z</time>
      </trkpt>
      <trkpt lat="47.49854" lon="-2.77781">
        <ele>71</ele>
        <time>2025-05-13T10:11:32Z</time>
      </trkpt>
      <trkpt lat="47.49855" lon="-2.77787">
        <ele>71</ele>
        <time>2025-05-13T10:11:33Z</time>
      </trkpt>
      <trkpt lat="47.49855" lon="-2.77793">
        <ele>71</ele>
        <time>2025-05-13T10:11:34Z</time>
      </trkpt>
      <trkpt lat="47.49855" lon="-2.77799">
        <ele>70</ele>
        <time>2025-05-13T10:11:35Z</time>
      </trkpt>
      <trkpt lat="47.49855" lon="-2.77806">
        <ele>70</ele>
        <time>2025-05-13T10:11:36Z</time>
      </trkpt>
      <trkpt lat="47.49855" lon="-2.77812">
        <ele>70</ele>
        <time>2025-05-13T10:11:37Z</time>
      </trkpt>
      <trkpt lat="47.49854" lon="-2.77819">
        <ele>69</ele>
        <time>2025-05-13T10:11:38Z</time>
      </trkpt>
      <trkpt lat="47.49854" lon="-2.77826">
        <ele>69</ele>
        <time>2025-05-13T10:11:39Z</time>
      </trkpt>
      <trkpt lat="47.49854" lon="-2.77833">
        <ele>68</ele>
        <time>2025-05-13T10:11:40Z</time>
      </trkpt>
      <trkpt lat="47.49855" lon="-2.7784">
        <ele>68</ele>
        <time>2025-05-13T10:11:41Z</time>
      </trkpt>
      <trkpt lat="47.49855" lon="-2.77847">
        <ele>68</ele>
        <time>2025-05-13T10:11:42Z</time>
      </trkpt>
      <trkpt lat="47.49854" lon="-2.77855">
        <ele>68</ele>
        <time>2025-05-13T10:11:43Z</time>
      </trkpt>
      <trkpt lat="47.49854" lon="-2.77862">
        <ele>68</ele>
        <time>2025-05-13T10:11:44Z</time>
      </trkpt>
      <trkpt lat="47.49855" lon="-2.77868">
        <ele>68</ele>
        <time>2025-05-13T10:11:45Z</time>
      </trkpt>
      <trkpt lat="47.49855" lon="-2.77875">
        <ele>68</ele>
        <time>2025-05-13T10:11:46Z</time>
      </trkpt>
      <trkpt lat="47.49855" lon="-2.77882">
        <ele>67</ele>
        <time>2025-05-13T10:11:47Z</time>
      </trkpt>
      <trkpt lat="47.49855" lon="-2.77888">
        <ele>67</ele>
        <time>2025-05-13T10:11:48Z</time>
      </trkpt>
      <trkpt lat="47.49856" lon="-2.77894">
        <ele>67</ele>
        <time>2025-05-13T10:11:49Z</time>
      </trkpt>
      <trkpt lat="47.49856" lon="-2.77901">
        <ele>67</ele>
        <time>2025-05-13T10:11:50Z</time>
      </trkpt>
      <trkpt lat="47.49857" lon="-2.77906">
        <ele>66</ele>
        <time>2025-05-13T10:11:51Z</time>
      </trkpt>
      <trkpt lat="47.49857" lon="-2.77911">
        <ele>65</ele>
        <time>2025-05-13T10:11:52Z</time>
      </trkpt>
      <trkpt lat="47.49857" lon="-2.77917">
        <ele>65</ele>
        <time>2025-05-13T10:11:53Z</time>
      </trkpt>
      <trkpt lat="47.49855" lon="-2.77922">
        <ele>65</ele>
        <time>2025-05-13T10:11:54Z</time>
      </trkpt>
      <trkpt lat="47.49852" lon="-2.77926">
        <ele>65</ele>
        <time>2025-05-13T10:11:55Z</time>
      </trkpt>
      <trkpt lat="47.49847" lon="-2.77928">
        <ele>65</ele>
        <time>2025-05-13T10:11:56Z</time>
      </trkpt>
      <trkpt lat="47.49843" lon="-2.77928">
        <ele>64</ele>
        <time>2025-05-13T10:11:57Z</time>
      </trkpt>
      <trkpt lat="47.49838" lon="-2.77928">
        <ele>63</ele>
        <time>2025-05-13T10:11:58Z</time>
      </trkpt>
      <trkpt lat="47.49834" lon="-2.77927">
        <ele>63</ele>
        <time>2025-05-13T10:11:59Z</time>
      </trkpt>
      <trkpt lat="47.49829" lon="-2.77927">
        <ele>63</ele>
        <time>2025-05-13T10:12:00Z</time>
      </trkpt>
      <trkpt lat="47.49824" lon="-2.77927">
        <ele>63</ele>
        <time>2025-05-13T10:12:01Z</time>
      </trkpt>
      <trkpt lat="47.49819" lon="-2.77927">
        <ele>63</ele>
        <time>2025-05-13T10:12:02Z</time>
      </trkpt>
      <trkpt lat="47.49813" lon="-2.77926">
        <ele>62</ele>
        <time>2025-05-13T10:12:03Z</time>
      </trkpt>
      <trkpt lat="47.49808" lon="-2.77926">
        <ele>62</ele>
        <time>2025-05-13T10:12:04Z</time>
      </trkpt>
      <trkpt lat="47.49802" lon="-2.77927">
        <ele>62</ele>
        <time>2025-05-13T10:12:05Z</time>
      </trkpt>
      <trkpt lat="47.49797" lon="-2.77927">
        <ele>61</ele>
        <time>2025-05-13T10:12:06Z</time>
      </trkpt>
      <trkpt lat="47.49791" lon="-2.77927">
        <ele>61</ele>
        <time>2025-05-13T10:12:07Z</time>
      </trkpt>
      <trkpt lat="47.49785" lon="-2.77928">
        <ele>60</ele>
        <time>2025-05-13T10:12:08Z</time>
      </trkpt>
      <trkpt lat="47.4978" lon="-2.77929">
        <ele>60</ele>
        <time>2025-05-13T10:12:09Z</time>
      </trkpt>
      <trkpt lat="47.49774" lon="-2.7793">
        <ele>60</ele>
        <time>2025-05-13T10:12:10Z</time>
      </trkpt>
      <trkpt lat="47.49768" lon="-2.77931">
        <ele>60</ele>
        <time>2025-05-13T10:12:11Z</time>
      </trkpt>
      <trkpt lat="47.49763" lon="-2.77932">
        <ele>60</ele>
        <time>2025-05-13T10:12:12Z</time>
      </trkpt>
      <trkpt lat="47.49758" lon="-2.77932">
        <ele>60</ele>
        <time>2025-05-13T10:12:13Z</time>
      </trkpt>
      <trkpt lat="47.49752" lon="-2.77933">
        <ele>60</ele>
        <time>2025-05-13T10:12:14Z</time>
      </trkpt>
      <trkpt lat="47.49746" lon="-2.77934">
        <ele>60</ele>
        <time>2025-05-13T10:12:15Z</time>
      </trkpt>
      <trkpt lat="47.49741" lon="-2.77934">
        <ele>61</ele>
        <time>2025-05-13T10:12:16Z</time>
      </trkpt>
      <trkpt lat="47.49735" lon="-2.77935">
        <ele>61</ele>
        <time>2025-05-13T10:12:17Z</time>
      </trkpt>
      <trkpt lat="47.49729" lon="-2.77936">
        <ele>61</ele>
        <time>2025-05-13T10:12:18Z</time>
      </trkpt>
      <trkpt lat="47.49723" lon="-2.77939">
        <ele>60</ele>
        <time>2025-05-13T10:12:19Z</time>
      </trkpt>
      <trkpt lat="47.49719" lon="-2.77944">
        <ele>60</ele>
        <time>2025-05-13T10:12:20Z</time>
      </trkpt>
      <trkpt lat="47.49718" lon="-2.77951">
        <ele>61</ele>
        <time>2025-05-13T10:12:21Z</time>
      </trkpt>
      <trkpt lat="47.49718" lon="-2.77957">
        <ele>62</ele>
        <time>2025-05-13T10:12:22Z</time>
      </trkpt>
      <trkpt lat="47.49721" lon="-2.77962">
        <ele>62</ele>
        <time>2025-05-13T10:12:23Z</time>
      </trkpt>
      <trkpt lat="47.49724" lon="-2.77967">
        <ele>62</ele>
        <time>2025-05-13T10:12:24Z</time>
      </trkpt>
      <trkpt lat="47.49728" lon="-2.7797">
        <ele>62</ele>
        <time>2025-05-13T10:12:25Z</time>
      </trkpt>
      <trkpt lat="47.49731" lon="-2.77974">
        <ele>61</ele>
        <time>2025-05-13T10:12:26Z</time>
      </trkpt>
      <trkpt lat="47.49734" lon="-2.77977">
        <ele>61</ele>
        <time>2025-05-13T10:12:27Z</time>
      </trkpt>
      <trkpt lat="47.49737" lon="-2.7798">
        <ele>60</ele>
        <time>2025-05-13T10:12:28Z</time>
      </trkpt>
      <trkpt lat="47.4974" lon="-2.77984">
        <ele>61</ele>
        <time>2025-05-13T10:12:29Z</time>
      </trkpt>
      <trkpt lat="47.49743" lon="-2.77987">
        <ele>60</ele>
        <time>2025-05-13T10:12:30Z</time>
      </trkpt>
      <trkpt lat="47.49745" lon="-2.7799">
        <ele>61</ele>
        <time>2025-05-13T10:12:31Z</time>
      </trkpt>
      <trkpt lat="47.49748" lon="-2.77993">
        <ele>61</ele>
        <time>2025-05-13T10:12:32Z</time>
      </trkpt>
      <trkpt lat="47.49751" lon="-2.77996">
        <ele>61</ele>
        <time>2025-05-13T10:12:33Z</time>
      </trkpt>
      <trkpt lat="47.49754" lon="-2.77999">
        <ele>61</ele>
        <time>2025-05-13T10:12:34Z</time>
      </trkpt>
      <trkpt lat="47.49757" lon="-2.78002">
        <ele>61</ele>
        <time>2025-05-13T10:12:35Z</time>
      </trkpt>
      <trkpt lat="47.49759" lon="-2.78006">
        <ele>61</ele>
        <time>2025-05-13T10:12:36Z</time>
      </trkpt>
      <trkpt lat="47.49761" lon="-2.78009">
        <ele>60</ele>
        <time>2025-05-13T10:12:37Z</time>
      </trkpt>
      <trkpt lat="47.49763" lon="-2.78014">
        <ele>60</ele>
        <time>2025-05-13T10:12:38Z</time>
      </trkpt>
      <trkpt lat="47.49764" lon="-2.78018">
        <ele>61</ele>
        <time>2025-05-13T10:12:39Z</time>
      </trkpt>
      <trkpt lat="47.49764" lon="-2.78023">
        <ele>61</ele>
        <time>2025-05-13T10:12:40Z</time>
      </trkpt>
      <trkpt lat="47.49765" lon="-2.78028">
        <ele>61</ele>
        <time>2025-05-13T10:12:41Z</time>
      </trkpt>
      <trkpt lat="47.49765" lon="-2.78034">
        <ele>61</ele>
        <time>2025-05-13T10:12:42Z</time>
      </trkpt>
      <trkpt lat="47.49765" lon="-2.78039">
        <ele>61</ele>
        <time>2025-05-13T10:12:43Z</time>
      </trkpt>
      <trkpt lat="47.49764" lon="-2.78044">
        <ele>61</ele>
        <time>2025-05-13T10:12:44Z</time>
      </trkpt>
      <trkpt lat="47.49765" lon="-2.78048">
        <ele>62</ele>
        <time>2025-05-13T10:12:45Z</time>
      </trkpt>
      <trkpt lat="47.49765" lon="-2.78053">
        <ele>62</ele>
        <time>2025-05-13T10:12:46Z</time>
      </trkpt>
      <trkpt lat="47.49765" lon="-2.78055">
        <ele>63</ele>
        <time>2025-05-13T10:12:47Z</time>
      </trkpt>
      <trkpt lat="47.49765" lon="-2.78057">
        <ele>63</ele>
        <time>2025-05-13T10:12:48Z</time>
      </trkpt>
      <trkpt lat="47.49765" lon="-2.78059">
        <ele>63</ele>
        <time>2025-05-13T10:12:49Z</time>
      </trkpt>
      <trkpt lat="47.49765" lon="-2.78059">
        <ele>63</ele>
        <time>2025-05-13T10:12:50Z</time>
      </trkpt>
      <trkpt lat="47.49765" lon="-2.78059">
        <ele>63</ele>
        <time>2025-05-13T10:12:51Z</time>
      </trkpt>
      <trkpt lat="47.49765" lon="-2.78059">
        <ele>63</ele>
        <time>2025-05-13T10:12:52Z</time>
      </trkpt>
      <trkpt lat="47.49765" lon="-2.78059">
        <ele>63</ele>
        <time>2025-05-13T10:12:53Z</time>
      </trkpt>
      <trkpt lat="47.49765" lon="-2.78059">
        <ele>63</ele>
        <time>2025-05-13T10:12:54Z</time>
      </trkpt>
      <trkpt lat="47.49765" lon="-2.78059">
        <ele>63</ele>
        <time>2025-05-13T10:12:55Z</time>
      </trkpt>
      <trkpt lat="47.49765" lon="-2.78059">
        <ele>63</ele>
        <time>2025-05-13T10:12:56Z</time>
      </trkpt>
      <trkpt lat="47.49765" lon="-2.78059">
        <ele>63</ele>
        <time>2025-05-13T10:12:57Z</time>
      </trkpt>
      <trkpt lat="47.49765" lon="-2.78059">
        <ele>63</ele>
        <time>2025-05-13T10:12:58Z</time>
      </trkpt>
      <trkpt lat="47.49765" lon="-2.78059">
        <ele>63</ele>
        <time>2025-05-13T10:12:59Z</time>
      </trkpt>
      <trkpt lat="47.49765" lon="-2.78059">
        <ele>63</ele>
        <time>2025-05-13T10:13:00Z</time>
      </trkpt>
      <trkpt lat="47.49765" lon="-2.78059">
        <ele>63</ele>
        <time>2025-05-13T10:13:01Z</time>
      </trkpt>
      <trkpt lat="47.49765" lon="-2.78059">
        <ele>63</ele>
        <time>2025-05-13T10:13:02Z</time>
      </trkpt>
      <trkpt lat="47.49765" lon="-2.78059">
        <ele>63</ele>
        <time>2025-05-13T10:13:03Z</time>
      </trkpt>
      <trkpt lat="47.49765" lon="-2.78059">
        <ele>63</ele>
        <time>2025-05-13T10:13:04Z</time>
      </trkpt>
      <trkpt lat="47.49765" lon="-2.78059">
        <ele>63</ele>
        <time>2025-05-13T10:13:05Z</time>
      </trkpt>
      <trkpt lat="47.49765" lon="-2.78059">
        <ele>63</ele>
        <time>2025-05-13T10:13:06Z</time>
      </trkpt>
      <trkpt lat="47.49765" lon="-2.78059">
        <ele>63</ele>
        <time>2025-05-13T10:13:07Z</time>
      </trkpt>
      <trkpt lat="47.49765" lon="-2.78059">
        <ele>63</ele>
        <time>2025-05-13T10:13:08Z</time>
      </trkpt>
      <trkpt lat="47.49765" lon="-2.78059">
        <ele>63</ele>
        <time>2025-05-13T10:13:09Z</time>
      </trkpt>
      <trkpt lat="47.49765" lon="-2.78059">
        <ele>63</ele>
        <time>2025-05-13T10:13:10Z</time>
      </trkpt>
      <trkpt lat="47.49765" lon="-2.78059">
        <ele>63</ele>
        <time>2025-05-13T10:13:11Z</time>
      </trkpt>
      <trkpt lat="47.49765" lon="-2.78059">
        <ele>63</ele>
        <time>2025-05-13T10:13:12Z</time>
      </trkpt>
      <trkpt lat="47.49765" lon="-2.78059">
        <ele>63</ele>
        <time>2025-05-13T10:13:13Z</time>
      </trkpt>
      <trkpt lat="47.49765" lon="-2.78059">
        <ele>63</ele>
        <time>2025-05-13T10:13:14Z</time>
      </trkpt>
      <trkpt lat="47.49765" lon="-2.78059">
        <ele>63</ele>
        <time>2025-05-13T10:13:15Z</time>
      </trkpt>
      <trkpt lat="47.49765" lon="-2.78059">
        <ele>63</ele>
        <time>2025-05-13T10:13:16Z</time>
      </trkpt>
      <trkpt lat="47.49765" lon="-2.78059">
        <ele>63</ele>
        <time>2025-05-13T10:13:17Z</time>
      </trkpt>
      <trkpt lat="47.49765" lon="-2.78059">
        <ele>63</ele>
        <time>2025-05-13T10:13:18Z</time>
      </trkpt>
      <trkpt lat="47.49765" lon="-2.78059">
        <ele>63</ele>
        <time>2025-05-13T10:13:19Z</time>
      </trkpt>
      <trkpt lat="47.49765" lon="-2.78059">
        <ele>63</ele>
        <time>2025-05-13T10:13:20Z</time>
      </trkpt>
      <trkpt lat="47.49765" lon="-2.78059">
        <ele>63</ele>
        <time>2025-05-13T10:13:21Z</time>
      </trkpt>
      <trkpt lat="47.49765" lon="-2.78059">
        <ele>63</ele>
        <time>2025-05-13T10:13:22Z</time>
      </trkpt>
      <trkpt lat="47.49765" lon="-2.78059">
        <ele>63</ele>
        <time>2025-05-13T10:13:23Z</time>
      </trkpt>
      <trkpt lat="47.49765" lon="-2.78059">
        <ele>63</ele>
        <time>2025-05-13T10:13:24Z</time>
      </trkpt>
      <trkpt lat="47.49765" lon="-2.78059">
        <ele>63</ele>
        <time>2025-05-13T10:13:25Z</time>
      </trkpt>
      <trkpt lat="47.49765" lon="-2.78059">
        <ele>63</ele>
        <time>2025-05-13T10:13:26Z</time>
      </trkpt>
      <trkpt lat="47.49765" lon="-2.78059">
        <ele>63</ele>
        <time>2025-05-13T10:13:27Z</time>
      </trkpt>
      <trkpt lat="47.49765" lon="-2.78059">
        <ele>63</ele>
        <time>2025-05-13T10:13:28Z</time>
      </trkpt>
      <trkpt lat="47.49765" lon="-2.78059">
        <ele>63</ele>
        <time>2025-05-13T10:13:29Z</time>
      </trkpt>
      <trkpt lat="47.49765" lon="-2.78059">
        <ele>63</ele>
        <time>2025-05-13T10:13:30Z</time>
      </trkpt>
      <trkpt lat="47.49765" lon="-2.78059">
        <ele>63</ele>
        <time>2025-05-13T10:13:31Z</time>
      </trkpt>
      <trkpt lat="47.49765" lon="-2.78059">
        <ele>63</ele>
        <time>2025-05-13T10:13:32Z</time>
      </trkpt>
      <trkpt lat="47.49765" lon="-2.78059">
        <ele>63</ele>
        <time>2025-05-13T10:13:33Z</time>
      </trkpt>
      <trkpt lat="47.49765" lon="-2.78059">
        <ele>63</ele>
        <time>2025-05-13T10:13:34Z</time>
      </trkpt>
      <trkpt lat="47.49765" lon="-2.78059">
        <ele>63</ele>
        <time>2025-05-13T10:13:35Z</time>
      </trkpt>
      <trkpt lat="47.49765" lon="-2.78059">
        <ele>63</ele>
        <time>2025-05-13T10:13:36Z</time>
      </trkpt>
      <trkpt lat="47.49765" lon="-2.78059">
        <ele>63</ele>
        <time>2025-05-13T10:13:37Z</time>
      </trkpt>
      <trkpt lat="47.49765" lon="-2.78059">
        <ele>63</ele>
        <time>2025-05-13T10:13:38Z</time>
      </trkpt>
      <trkpt lat="47.49765" lon="-2.78059">
        <ele>63</ele>
        <time>2025-05-13T10:13:39Z</time>
      </trkpt>
      <trkpt lat="47.49765" lon="-2.78059">
        <ele>63</ele>
        <time>2025-05-13T10:13:40Z</time>
      </trkpt>
      <trkpt lat="47.49765" lon="-2.78059">
        <ele>63</ele>
        <time>2025-05-13T10:13:41Z</time>
      </trkpt>
      <trkpt lat="47.49765" lon="-2.78059">
        <ele>63</ele>
        <time>2025-05-13T10:13:42Z</time>
      </trkpt>
      <trkpt lat="47.49765" lon="-2.78059">
        <ele>63</ele>
        <time>2025-05-13T10:13:43Z</time>
      </trkpt>
      <trkpt lat="47.49765" lon="-2.78059">
        <ele>63</ele>
        <time>2025-05-13T10:13:44Z</time>
      </trkpt>
      <trkpt lat="47.49765" lon="-2.78059">
        <ele>63</ele>
        <time>2025-05-13T10:13:45Z</time>
      </trkpt>
      <trkpt lat="47.49765" lon="-2.78059">
        <ele>63</ele>
        <time>2025-05-13T10:13:46Z</time>
      </trkpt>
      <trkpt lat="47.49765" lon="-2.78059">
        <ele>63</ele>
        <time>2025-05-13T10:13:47Z</time>
      </trkpt>
      <trkpt lat="47.49765" lon="-2.78059">
        <ele>63</ele>
        <time>2025-05-13T10:13:48Z</time>
      </trkpt>
      <trkpt lat="47.49765" lon="-2.78059">
        <ele>63</ele>
        <time>2025-05-13T10:13:49Z</time>
      </trkpt>
      <trkpt lat="47.49765" lon="-2.78059">
        <ele>63</ele>
        <time>2025-05-13T10:13:50Z</time>
      </trkpt>
      <trkpt lat="47.49764" lon="-2.78061">
        <ele>63</ele>
        <time>2025-05-13T10:13:51Z</time>
      </trkpt>
      <trkpt lat="47.49764" lon="-2.78063">
        <ele>63</ele>
        <time>2025-05-13T10:13:52Z</time>
      </trkpt>
      <trkpt lat="47.49763" lon="-2.78066">
        <ele>64</ele>
        <time>2025-05-13T10:13:53Z</time>
      </trkpt>
      <trkpt lat="47.49762" lon="-2.78069">
        <ele>64</ele>
        <time>2025-05-13T10:13:54Z</time>
      </trkpt>
      <trkpt lat="47.49762" lon="-2.78074">
        <ele>65</ele>
        <time>2025-05-13T10:13:55Z</time>
      </trkpt>
      <trkpt lat="47.49762" lon="-2.78079">
        <ele>65</ele>
        <time>2025-05-13T10:13:56Z</time>
      </trkpt>
      <trkpt lat="47.49762" lon="-2.78084">
        <ele>65</ele>
        <time>2025-05-13T10:13:57Z</time>
      </trkpt>
      <trkpt lat="47.49762" lon="-2.78089">
        <ele>64</ele>
        <time>2025-05-13T10:13:58Z</time>
      </trkpt>
      <trkpt lat="47.49762" lon="-2.78094">
        <ele>64</ele>
        <time>2025-05-13T10:13:59Z</time>
      </trkpt>
      <trkpt lat="47.49762" lon="-2.78099">
        <ele>64</ele>
        <time>2025-05-13T10:14:00Z</time>
      </trkpt>
      <trkpt lat="47.49762" lon="-2.78104">
        <ele>64</ele>
        <time>2025-05-13T10:14:01Z</time>
      </trkpt>
      <trkpt lat="47.49761" lon="-2.7811">
        <ele>64</ele>
        <time>2025-05-13T10:14:02Z</time>
      </trkpt>
      <trkpt lat="47.49761" lon="-2.78116">
        <ele>64</ele>
        <time>2025-05-13T10:14:03Z</time>
      </trkpt>
      <trkpt lat="47.49761" lon="-2.78121">
        <ele>64</ele>
        <time>2025-05-13T10:14:04Z</time>
      </trkpt>
      <trkpt lat="47.49761" lon="-2.78126">
        <ele>64</ele>
        <time>2025-05-13T10:14:05Z</time>
      </trkpt>
      <trkpt lat="47.4976" lon="-2.78131">
        <ele>64</ele>
        <time>2025-05-13T10:14:06Z</time>
      </trkpt>
      <trkpt lat="47.4976" lon="-2.78136">
        <ele>64</ele>
        <time>2025-05-13T10:14:07Z</time>
      </trkpt>
      <trkpt lat="47.4976" lon="-2.78141">
        <ele>64</ele>
        <time>2025-05-13T10:14:08Z</time>
      </trkpt>
      <trkpt lat="47.4976" lon="-2.78146">
        <ele>64</ele>
        <time>2025-05-13T10:14:09Z</time>
      </trkpt>
      <trkpt lat="47.49758" lon="-2.7815">
        <ele>64</ele>
        <time>2025-05-13T10:14:10Z</time>
      </trkpt>
      <trkpt lat="47.49756" lon="-2.78153">
        <ele>63</ele>
        <time>2025-05-13T10:14:11Z</time>
      </trkpt>
      <trkpt lat="47.49753" lon="-2.78156">
        <ele>63</ele>
        <time>2025-05-13T10:14:12Z</time>
      </trkpt>
      <trkpt lat="47.49749" lon="-2.78158">
        <ele>62</ele>
        <time>2025-05-13T10:14:13Z</time>
      </trkpt>
      <trkpt lat="47.49745" lon="-2.7816">
        <ele>62</ele>
        <time>2025-05-13T10:14:14Z</time>
      </trkpt>
      <trkpt lat="47.4974" lon="-2.78161">
        <ele>61</ele>
        <time>2025-05-13T10:14:15Z</time>
      </trkpt>
      <trkpt lat="47.49736" lon="-2.78162">
        <ele>61</ele>
        <time>2025-05-13T10:14:16Z</time>
      </trkpt>
      <trkpt lat="47.49731" lon="-2.78164">
        <ele>61</ele>
        <time>2025-05-13T10:14:17Z</time>
      </trkpt>
      <trkpt lat="47.49727" lon="-2.78165">
        <ele>62</ele>
        <time>2025-05-13T10:14:18Z</time>
      </trkpt>
      <trkpt lat="47.49722" lon="-2.78166">
        <ele>61</ele>
        <time>2025-05-13T10:14:19Z</time>
      </trkpt>
      <trkpt lat="47.49718" lon="-2.78168">
        <ele>61</ele>
        <time>2025-05-13T10:14:20Z</time>
      </trkpt>
      <trkpt lat="47.49713" lon="-2.78169">
        <ele>61</ele>
        <time>2025-05-13T10:14:21Z</time>
      </trkpt>
      <trkpt lat="47.49708" lon="-2.78171">
        <ele>60</ele>
        <time>2025-05-13T10:14:22Z</time>
      </trkpt>
      <trkpt lat="47.49703" lon="-2.78172">
        <ele>60</ele>
        <time>2025-05-13T10:14:23Z</time>
      </trkpt>
      <trkpt lat="47.49698" lon="-2.78173">
        <ele>61</ele>
        <time>2025-05-13T10:14:24Z</time>
      </trkpt>
      <trkpt lat="47.49693" lon="-2.78175">
        <ele>60</ele>
        <time>2025-05-13T10:14:25Z</time>
      </trkpt>
      <trkpt lat="47.49689" lon="-2.78176">
        <ele>60</ele>
        <time>2025-05-13T10:14:26Z</time>
      </trkpt>
      <trkpt lat="47.49684" lon="-2.78179">
        <ele>60</ele>
        <time>2025-05-13T10:14:27Z</time>
      </trkpt>
      <trkpt lat="47.49679" lon="-2.78181">
        <ele>60</ele>
        <time>2025-05-13T10:14:28Z</time>
      </trkpt>
      <trkpt lat="47.49674" lon="-2.78184">
        <ele>60</ele>
        <time>2025-05-13T10:14:29Z</time>
      </trkpt>
      <trkpt lat="47.4967" lon="-2.78187">
        <ele>60</ele>
        <time>2025-05-13T10:14:30Z</time>
      </trkpt>
      <trkpt lat="47.49665" lon="-2.78188">
        <ele>60</ele>
        <time>2025-05-13T10:14:31Z</time>
      </trkpt>
      <trkpt lat="47.49659" lon="-2.7819">
        <ele>59</ele>
        <time>2025-05-13T10:14:32Z</time>
      </trkpt>
      <trkpt lat="47.49655" lon="-2.78192">
        <ele>59</ele>
        <time>2025-05-13T10:14:33Z</time>
      </trkpt>
      <trkpt lat="47.49649" lon="-2.78194">
        <ele>59</ele>
        <time>2025-05-13T10:14:34Z</time>
      </trkpt>
      <trkpt lat="47.49644" lon="-2.78196">
        <ele>58</ele>
        <time>2025-05-13T10:14:35Z</time>
      </trkpt>
      <trkpt lat="47.49639" lon="-2.78197">
        <ele>59</ele>
        <time>2025-05-13T10:14:36Z</time>
      </trkpt>
      <trkpt lat="47.49635" lon="-2.78197">
        <ele>58</ele>
        <time>2025-05-13T10:14:37Z</time>
      </trkpt>
      <trkpt lat="47.4963" lon="-2.78197">
        <ele>58</ele>
        <time>2025-05-13T10:14:38Z</time>
      </trkpt>
      <trkpt lat="47.49626" lon="-2.78197">
        <ele>57</ele>
        <time>2025-05-13T10:14:39Z</time>
      </trkpt>
      <trkpt lat="47.49622" lon="-2.78196">
        <ele>57</ele>
        <time>2025-05-13T10:14:40Z</time>
      </trkpt>
      <trkpt lat="47.49619" lon="-2.78195">
        <ele>57</ele>
        <time>2025-05-13T10:14:41Z</time>
      </trkpt>
      <trkpt lat="47.49616" lon="-2.78195">
        <ele>57</ele>
        <time>2025-05-13T10:14:42Z</time>
      </trkpt>
      <trkpt lat="47.49613" lon="-2.78195">
        <ele>57</ele>
        <time>2025-05-13T10:14:43Z</time>
      </trkpt>
      <trkpt lat="47.49609" lon="-2.78194">
        <ele>57</ele>
        <time>2025-05-13T10:14:44Z</time>
      </trkpt>
      <trkpt lat="47.49606" lon="-2.78194">
        <ele>57</ele>
        <time>2025-05-13T10:14:45Z</time>
      </trkpt>
      <trkpt lat="47.49603" lon="-2.78194">
        <ele>57</ele>
        <time>2025-05-13T10:14:46Z</time>
      </trkpt>
      <trkpt lat="47.496" lon="-2.78194">
        <ele>56</ele>
        <time>2025-05-13T10:14:47Z</time>
      </trkpt>
      <trkpt lat="47.49597" lon="-2.78195">
        <ele>56</ele>
        <time>2025-05-13T10:14:48Z</time>
      </trkpt>
      <trkpt lat="47.49595" lon="-2.78197">
        <ele>57</ele>
        <time>2025-05-13T10:14:49Z</time>
      </trkpt>
      <trkpt lat="47.49595" lon="-2.782">
        <ele>57</ele>
        <time>2025-05-13T10:14:50Z</time>
      </trkpt>
      <trkpt lat="47.49594" lon="-2.78203">
        <ele>58</ele>
        <time>2025-05-13T10:14:51Z</time>
      </trkpt>
      <trkpt lat="47.49594" lon="-2.78207">
        <ele>58</ele>
        <time>2025-05-13T10:14:52Z</time>
      </trkpt>
      <trkpt lat="47.49595" lon="-2.78211">
        <ele>58</ele>
        <time>2025-05-13T10:14:53Z</time>
      </trkpt>
      <trkpt lat="47.49595" lon="-2.78215">
        <ele>58</ele>
        <time>2025-05-13T10:14:54Z</time>
      </trkpt>
      <trkpt lat="47.49597" lon="-2.78219">
        <ele>58</ele>
        <time>2025-05-13T10:14:55Z</time>
      </trkpt>
      <trkpt lat="47.49598" lon="-2.78223">
        <ele>58</ele>
        <time>2025-05-13T10:14:56Z</time>
      </trkpt>
      <trkpt lat="47.496" lon="-2.78227">
        <ele>58</ele>
        <time>2025-05-13T10:14:57Z</time>
      </trkpt>
      <trkpt lat="47.49602" lon="-2.78232">
        <ele>57</ele>
        <time>2025-05-13T10:14:58Z</time>
      </trkpt>
      <trkpt lat="47.49603" lon="-2.78236">
        <ele>57</ele>
        <time>2025-05-13T10:14:59Z</time>
      </trkpt>
      <trkpt lat="47.49604" lon="-2.7824">
        <ele>57</ele>
        <time>2025-05-13T10:15:00Z</time>
      </trkpt>
      <trkpt lat="47.49604" lon="-2.78245">
        <ele>56</ele>
        <time>2025-05-13T10:15:01Z</time>
      </trkpt>
      <trkpt lat="47.49606" lon="-2.7825">
        <ele>56</ele>
        <time>2025-05-13T10:15:02Z</time>
      </trkpt>
      <trkpt lat="47.49607" lon="-2.78255">
        <ele>56</ele>
        <time>2025-05-13T10:15:03Z</time>
      </trkpt>
      <trkpt lat="47.49608" lon="-2.78261">
        <ele>56</ele>
        <time>2025-05-13T10:15:04Z</time>
      </trkpt>
      <trkpt lat="47.4961" lon="-2.78265">
        <ele>57</ele>
        <time>2025-05-13T10:15:05Z</time>
      </trkpt>
      <trkpt lat="47.49612" lon="-2.78271">
        <ele>57</ele>
        <time>2025-05-13T10:15:06Z</time>
      </trkpt>
      <trkpt lat="47.49613" lon="-2.78275">
        <ele>57</ele>
        <time>2025-05-13T10:15:07Z</time>
      </trkpt>
      <trkpt lat="47.49615" lon="-2.78279">
        <ele>57</ele>
        <time>2025-05-13T10:15:08Z</time>
      </trkpt>
      <trkpt lat="47.49617" lon="-2.78282">
        <ele>57</ele>
        <time>2025-05-13T10:15:09Z</time>
      </trkpt>
      <trkpt lat="47.4962" lon="-2.78285">
        <ele>58</ele>
        <time>2025-05-13T10:15:10Z</time>
      </trkpt>
      <trkpt lat="47.49623" lon="-2.78286">
        <ele>59</ele>
        <time>2025-05-13T10:15:11Z</time>
      </trkpt>
      <trkpt lat="47.49626" lon="-2.78287">
        <ele>60</ele>
        <time>2025-05-13T10:15:12Z</time>
      </trkpt>
      <trkpt lat="47.4963" lon="-2.78288">
        <ele>60</ele>
        <time>2025-05-13T10:15:13Z</time>
      </trkpt>
      <trkpt lat="47.49633" lon="-2.78288">
        <ele>61</ele>
        <time>2025-05-13T10:15:14Z</time>
      </trkpt>
      <trkpt lat="47.49636" lon="-2.78287">
        <ele>62</ele>
        <time>2025-05-13T10:15:15Z</time>
      </trkpt>
      <trkpt lat="47.49639" lon="-2.78287">
        <ele>63</ele>
        <time>2025-05-13T10:15:16Z</time>
      </trkpt>
      <trkpt lat="47.49641" lon="-2.78288">
        <ele>62</ele>
        <time>2025-05-13T10:15:17Z</time>
      </trkpt>
      <trkpt lat="47.49643" lon="-2.78288">
        <ele>62</ele>
        <time>2025-05-13T10:15:18Z</time>
      </trkpt>
      <trkpt lat="47.49647" lon="-2.78289">
        <ele>63</ele>
        <time>2025-05-13T10:15:19Z</time>
      </trkpt>
      <trkpt lat="47.4965" lon="-2.7829">
        <ele>63</ele>
        <time>2025-05-13T10:15:20Z</time>
      </trkpt>
      <trkpt lat="47.49653" lon="-2.78291">
        <ele>64</ele>
        <time>2025-05-13T10:15:21Z</time>
      </trkpt>
      <trkpt lat="47.49657" lon="-2.78291">
        <ele>64</ele>
        <time>2025-05-13T10:15:22Z</time>
      </trkpt>
      <trkpt lat="47.4966" lon="-2.78291">
        <ele>64</ele>
        <time>2025-05-13T10:15:23Z</time>
      </trkpt>
      <trkpt lat="47.49663" lon="-2.78291">
        <ele>64</ele>
        <time>2025-05-13T10:15:24Z</time>
      </trkpt>
      <trkpt lat="47.49667" lon="-2.78292">
        <ele>64</ele>
        <time>2025-05-13T10:15:25Z</time>
      </trkpt>
      <trkpt lat="47.49669" lon="-2.78293">
        <ele>64</ele>
        <time>2025-05-13T10:15:26Z</time>
      </trkpt>
      <trkpt lat="47.49672" lon="-2.78293">
        <ele>64</ele>
        <time>2025-05-13T10:15:27Z</time>
      </trkpt>
      <trkpt lat="47.49675" lon="-2.78293">
        <ele>64</ele>
        <time>2025-05-13T10:15:28Z</time>
      </trkpt>
      <trkpt lat="47.49679" lon="-2.78294">
        <ele>64</ele>
        <time>2025-05-13T10:15:29Z</time>
      </trkpt>
      <trkpt lat="47.49682" lon="-2.78293">
        <ele>63</ele>
        <time>2025-05-13T10:15:30Z</time>
      </trkpt>
      <trkpt lat="47.49685" lon="-2.78294">
        <ele>63</ele>
        <time>2025-05-13T10:15:31Z</time>
      </trkpt>
      <trkpt lat="47.49688" lon="-2.78295">
        <ele>63</ele>
        <time>2025-05-13T10:15:32Z</time>
      </trkpt>
      <trkpt lat="47.49692" lon="-2.78296">
        <ele>63</ele>
        <time>2025-05-13T10:15:33Z</time>
      </trkpt>
      <trkpt lat="47.49695" lon="-2.78297">
        <ele>63</ele>
        <time>2025-05-13T10:15:34Z</time>
      </trkpt>
      <trkpt lat="47.49698" lon="-2.78298">
        <ele>63</ele>
        <time>2025-05-13T10:15:35Z</time>
      </trkpt>
      <trkpt lat="47.49701" lon="-2.78302">
        <ele>63</ele>
        <time>2025-05-13T10:15:36Z</time>
      </trkpt>
      <trkpt lat="47.49704" lon="-2.78304">
        <ele>63</ele>
        <time>2025-05-13T10:15:37Z</time>
      </trkpt>
      <trkpt lat="47.49706" lon="-2.78306">
        <ele>63</ele>
        <time>2025-05-13T10:15:38Z</time>
      </trkpt>
      <trkpt lat="47.4971" lon="-2.78308">
        <ele>63</ele>
        <time>2025-05-13T10:15:39Z</time>
      </trkpt>
      <trkpt lat="47.49712" lon="-2.78309">
        <ele>63</ele>
        <time>2025-05-13T10:15:40Z</time>
      </trkpt>
      <trkpt lat="47.49714" lon="-2.78311">
        <ele>63</ele>
        <time>2025-05-13T10:15:41Z</time>
      </trkpt>
      <trkpt lat="47.49717" lon="-2.78313">
        <ele>62</ele>
        <time>2025-05-13T10:15:42Z</time>
      </trkpt>
      <trkpt lat="47.49719" lon="-2.78314">
        <ele>62</ele>
        <time>2025-05-13T10:15:43Z</time>
      </trkpt>
      <trkpt lat="47.49722" lon="-2.78316">
        <ele>62</ele>
        <time>2025-05-13T10:15:44Z</time>
      </trkpt>
      <trkpt lat="47.49724" lon="-2.78317">
        <ele>62</ele>
        <time>2025-05-13T10:15:45Z</time>
      </trkpt>
      <trkpt lat="47.49727" lon="-2.78319">
        <ele>62</ele>
        <time>2025-05-13T10:15:46Z</time>
      </trkpt>
      <trkpt lat="47.4973" lon="-2.78321">
        <ele>63</ele>
        <time>2025-05-13T10:15:47Z</time>
      </trkpt>
      <trkpt lat="47.49732" lon="-2.78322">
        <ele>63</ele>
        <time>2025-05-13T10:15:48Z</time>
      </trkpt>
      <trkpt lat="47.49735" lon="-2.78324">
        <ele>63</ele>
        <time>2025-05-13T10:15:49Z</time>
      </trkpt>
      <trkpt lat="47.49737" lon="-2.78325">
        <ele>63</ele>
        <time>2025-05-13T10:15:50Z</time>
      </trkpt>
      <trkpt lat="47.4974" lon="-2.78326">
        <ele>63</ele>
        <time>2025-05-13T10:15:51Z</time>
      </trkpt>
      <trkpt lat="47.49743" lon="-2.78327">
        <ele>63</ele>
        <time>2025-05-13T10:15:52Z</time>
      </trkpt>
      <trkpt lat="47.49745" lon="-2.78329">
        <ele>63</ele>
        <time>2025-05-13T10:15:53Z</time>
      </trkpt>
      <trkpt lat="47.49747" lon="-2.7833">
        <ele>64</ele>
        <time>2025-05-13T10:15:54Z</time>
      </trkpt>
      <trkpt lat="47.4975" lon="-2.78331">
        <ele>63</ele>
        <time>2025-05-13T10:15:55Z</time>
      </trkpt>
      <trkpt lat="47.49753" lon="-2.78332">
        <ele>63</ele>
        <time>2025-05-13T10:15:56Z</time>
      </trkpt>
      <trkpt lat="47.49755" lon="-2.78333">
        <ele>63</ele>
        <time>2025-05-13T10:15:57Z</time>
      </trkpt>
      <trkpt lat="47.49758" lon="-2.78334">
        <ele>63</ele>
        <time>2025-05-13T10:15:58Z</time>
      </trkpt>
      <trkpt lat="47.49761" lon="-2.78335">
        <ele>64</ele>
        <time>2025-05-13T10:15:59Z</time>
      </trkpt>
      <trkpt lat="47.49764" lon="-2.78335">
        <ele>64</ele>
        <time>2025-05-13T10:16:00Z</time>
      </trkpt>
      <trkpt lat="47.49766" lon="-2.78335">
        <ele>65</ele>
        <time>2025-05-13T10:16:01Z</time>
      </trkpt>
      <trkpt lat="47.49769" lon="-2.78336">
        <ele>65</ele>
        <time>2025-05-13T10:16:02Z</time>
      </trkpt>
      <trkpt lat="47.49771" lon="-2.78337">
        <ele>65</ele>
        <time>2025-05-13T10:16:03Z</time>
      </trkpt>
      <trkpt lat="47.49774" lon="-2.78337">
        <ele>66</ele>
        <time>2025-05-13T10:16:04Z</time>
      </trkpt>
      <trkpt lat="47.49777" lon="-2.78338">
        <ele>66</ele>
        <time>2025-05-13T10:16:05Z</time>
      </trkpt>
      <trkpt lat="47.49779" lon="-2.78338">
        <ele>66</ele>
        <time>2025-05-13T10:16:06Z</time>
      </trkpt>
      <trkpt lat="47.49782" lon="-2.78338">
        <ele>66</ele>
        <time>2025-05-13T10:16:07Z</time>
      </trkpt>
      <trkpt lat="47.49785" lon="-2.78339">
        <ele>66</ele>
        <time>2025-05-13T10:16:08Z</time>
      </trkpt>
      <trkpt lat="47.49788" lon="-2.7834">
        <ele>67</ele>
        <time>2025-05-13T10:16:09Z</time>
      </trkpt>
      <trkpt lat="47.4979" lon="-2.7834">
        <ele>67</ele>
        <time>2025-05-13T10:16:10Z</time>
      </trkpt>
      <trkpt lat="47.49793" lon="-2.7834">
        <ele>67</ele>
        <time>2025-05-13T10:16:11Z</time>
      </trkpt>
      <trkpt lat="47.49796" lon="-2.78341">
        <ele>67</ele>
        <time>2025-05-13T10:16:12Z</time>
      </trkpt>
      <trkpt lat="47.49799" lon="-2.78341">
        <ele>67</ele>
        <time>2025-05-13T10:16:13Z</time>
      </trkpt>
      <trkpt lat="47.49801" lon="-2.78342">
        <ele>67</ele>
        <time>2025-05-13T10:16:14Z</time>
      </trkpt>
      <trkpt lat="47.49804" lon="-2.78342">
        <ele>68</ele>
        <time>2025-05-13T10:16:15Z</time>
      </trkpt>
      <trkpt lat="47.49806" lon="-2.78342">
        <ele>68</ele>
        <time>2025-05-13T10:16:16Z</time>
      </trkpt>
      <trkpt lat="47.49809" lon="-2.78342">
        <ele>68</ele>
        <time>2025-05-13T10:16:17Z</time>
      </trkpt>
      <trkpt lat="47.49811" lon="-2.78342">
        <ele>68</ele>
        <time>2025-05-13T10:16:18Z</time>
      </trkpt>
      <trkpt lat="47.49814" lon="-2.78342">
        <ele>69</ele>
        <time>2025-05-13T10:16:19Z</time>
      </trkpt>
      <trkpt lat="47.49816" lon="-2.78342">
        <ele>69</ele>
        <time>2025-05-13T10:16:20Z</time>
      </trkpt>
      <trkpt lat="47.49818" lon="-2.78342">
        <ele>69</ele>
        <time>2025-05-13T10:16:21Z</time>
      </trkpt>
      <trkpt lat="47.4982" lon="-2.78343">
        <ele>68</ele>
        <time>2025-05-13T10:16:22Z</time>
      </trkpt>
      <trkpt lat="47.49822" lon="-2.78343">
        <ele>69</ele>
        <time>2025-05-13T10:16:23Z</time>
      </trkpt>
      <trkpt lat="47.49825" lon="-2.78344">
        <ele>69</ele>
        <time>2025-05-13T10:16:24Z</time>
      </trkpt>
      <trkpt lat="47.49827" lon="-2.78343">
        <ele>69</ele>
        <time>2025-05-13T10:16:25Z</time>
      </trkpt>
      <trkpt lat="47.4983" lon="-2.78343">
        <ele>69</ele>
        <time>2025-05-13T10:16:26Z</time>
      </trkpt>
      <trkpt lat="47.49832" lon="-2.78344">
        <ele>69</ele>
        <time>2025-05-13T10:16:27Z</time>
      </trkpt>
      <trkpt lat="47.49835" lon="-2.78344">
        <ele>69</ele>
        <time>2025-05-13T10:16:28Z</time>
      </trkpt>
      <trkpt lat="47.49837" lon="-2.78344">
        <ele>70</ele>
        <time>2025-05-13T10:16:29Z</time>
      </trkpt>
      <trkpt lat="47.49839" lon="-2.78345">
        <ele>70</ele>
        <time>2025-05-13T10:16:30Z</time>
      </trkpt>
      <trkpt lat="47.49841" lon="-2.78346">
        <ele>70</ele>
        <time>2025-05-13T10:16:31Z</time>
      </trkpt>
      <trkpt lat="47.49844" lon="-2.78347">
        <ele>70</ele>
        <time>2025-05-13T10:16:32Z</time>
      </trkpt>
      <trkpt lat="47.49846" lon="-2.78348">
        <ele>70</ele>
        <time>2025-05-13T10:16:33Z</time>
      </trkpt>
      <trkpt lat="47.49848" lon="-2.7835">
        <ele>70</ele>
        <time>2025-05-13T10:16:34Z</time>
      </trkpt>
      <trkpt lat="47.4985" lon="-2.78352">
        <ele>70</ele>
        <time>2025-05-13T10:16:35Z</time>
      </trkpt>
      <trkpt lat="47.49852" lon="-2.78353">
        <ele>70</ele>
        <time>2025-05-13T10:16:36Z</time>
      </trkpt>
      <trkpt lat="47.49853" lon="-2.78356">
        <ele>70</ele>
        <time>2025-05-13T10:16:37Z</time>
      </trkpt>
      <trkpt lat="47.49855" lon="-2.78358">
        <ele>70</ele>
        <time>2025-05-13T10:16:38Z</time>
      </trkpt>
      <trkpt lat="47.49856" lon="-2.7836">
        <ele>70</ele>
        <time>2025-05-13T10:16:39Z</time>
      </trkpt>
      <trkpt lat="47.49857" lon="-2.78362">
        <ele>70</ele>
        <time>2025-05-13T10:16:40Z</time>
      </trkpt>
      <trkpt lat="47.49859" lon="-2.78364">
        <ele>70</ele>
        <time>2025-05-13T10:16:41Z</time>
      </trkpt>
      <trkpt lat="47.4986" lon="-2.78366">
        <ele>70</ele>
        <time>2025-05-13T10:16:42Z</time>
      </trkpt>
      <trkpt lat="47.49861" lon="-2.78369">
        <ele>70</ele>
        <time>2025-05-13T10:16:43Z</time>
      </trkpt>
      <trkpt lat="47.49862" lon="-2.7837">
        <ele>70</ele>
        <time>2025-05-13T10:16:44Z</time>
      </trkpt>
      <trkpt lat="47.49862" lon="-2.78372">
        <ele>71</ele>
        <time>2025-05-13T10:16:45Z</time>
      </trkpt>
      <trkpt lat="47.49863" lon="-2.78374">
        <ele>71</ele>
        <time>2025-05-13T10:16:46Z</time>
      </trkpt>
      <trkpt lat="47.49863" lon="-2.78376">
        <ele>71</ele>
        <time>2025-05-13T10:16:47Z</time>
      </trkpt>
      <trkpt lat="47.49863" lon="-2.78378">
        <ele>72</ele>
        <time>2025-05-13T10:16:48Z</time>
      </trkpt>
      <trkpt lat="47.49862" lon="-2.78381">
        <ele>72</ele>
        <time>2025-05-13T10:16:49Z</time>
      </trkpt>
      <trkpt lat="47.49861" lon="-2.78383">
        <ele>72</ele>
        <time>2025-05-13T10:16:50Z</time>
      </trkpt>
      <trkpt lat="47.49861" lon="-2.78386">
        <ele>71</ele>
        <time>2025-05-13T10:16:51Z</time>
      </trkpt>
      <trkpt lat="47.4986" lon="-2.78388">
        <ele>71</ele>
        <time>2025-05-13T10:16:52Z</time>
      </trkpt>
      <trkpt lat="47.49859" lon="-2.78391">
        <ele>71</ele>
        <time>2025-05-13T10:16:53Z</time>
      </trkpt>
      <trkpt lat="47.49859" lon="-2.78394">
        <ele>70</ele>
        <time>2025-05-13T10:16:54Z</time>
      </trkpt>
      <trkpt lat="47.49857" lon="-2.78396">
        <ele>70</ele>
        <time>2025-05-13T10:16:55Z</time>
      </trkpt>
      <trkpt lat="47.49856" lon="-2.78398">
        <ele>70</ele>
        <time>2025-05-13T10:16:56Z</time>
      </trkpt>
      <trkpt lat="47.49855" lon="-2.784">
        <ele>70</ele>
        <time>2025-05-13T10:16:57Z</time>
      </trkpt>
      <trkpt lat="47.49854" lon="-2.78402">
        <ele>70</ele>
        <time>2025-05-13T10:16:58Z</time>
      </trkpt>
      <trkpt lat="47.49853" lon="-2.78403">
        <ele>70</ele>
        <time>2025-05-13T10:16:59Z</time>
      </trkpt>
      <trkpt lat="47.49851" lon="-2.78404">
        <ele>71</ele>
        <time>2025-05-13T10:17:00Z</time>
      </trkpt>
      <trkpt lat="47.4985" lon="-2.78406">
        <ele>71</ele>
        <time>2025-05-13T10:17:01Z</time>
      </trkpt>
      <trkpt lat="47.49848" lon="-2.78408">
        <ele>70</ele>
        <time>2025-05-13T10:17:02Z</time>
      </trkpt>
      <trkpt lat="47.49846" lon="-2.78409">
        <ele>70</ele>
        <time>2025-05-13T10:17:03Z</time>
      </trkpt>
      <trkpt lat="47.49844" lon="-2.78412">
        <ele>70</ele>
        <time>2025-05-13T10:17:04Z</time>
      </trkpt>
      <trkpt lat="47.49842" lon="-2.78414">
        <ele>70</ele>
        <time>2025-05-13T10:17:05Z</time>
      </trkpt>
      <trkpt lat="47.4984" lon="-2.78417">
        <ele>69</ele>
        <time>2025-05-13T10:17:06Z</time>
      </trkpt>
      <trkpt lat="47.49838" lon="-2.7842">
        <ele>69</ele>
        <time>2025-05-13T10:17:07Z</time>
      </trkpt>
      <trkpt lat="47.49835" lon="-2.78424">
        <ele>69</ele>
        <time>2025-05-13T10:17:08Z</time>
      </trkpt>
      <trkpt lat="47.49833" lon="-2.78428">
        <ele>69</ele>
        <time>2025-05-13T10:17:09Z</time>
      </trkpt>
      <trkpt lat="47.4983" lon="-2.78431">
        <ele>69</ele>
        <time>2025-05-13T10:17:10Z</time>
      </trkpt>
      <trkpt lat="47.49828" lon="-2.78435">
        <ele>69</ele>
        <time>2025-05-13T10:17:11Z</time>
      </trkpt>
      <trkpt lat="47.49825" lon="-2.7844">
        <ele>69</ele>
        <time>2025-05-13T10:17:12Z</time>
      </trkpt>
      <trkpt lat="47.49823" lon="-2.78444">
        <ele>69</ele>
        <time>2025-05-13T10:17:13Z</time>
      </trkpt>
      <trkpt lat="47.49821" lon="-2.78449">
        <ele>69</ele>
        <time>2025-05-13T10:17:14Z</time>
      </trkpt>
      <trkpt lat="47.49819" lon="-2.78454">
        <ele>69</ele>
        <time>2025-05-13T10:17:15Z</time>
      </trkpt>
      <trkpt lat="47.49816" lon="-2.78459">
        <ele>69</ele>
        <time>2025-05-13T10:17:16Z</time>
      </trkpt>
      <trkpt lat="47.49814" lon="-2.78464">
        <ele>69</ele>
        <time>2025-05-13T10:17:17Z</time>
      </trkpt>
      <trkpt lat="47.49811" lon="-2.78469">
        <ele>69</ele>
        <time>2025-05-13T10:17:18Z</time>
      </trkpt>
      <trkpt lat="47.49809" lon="-2.78475">
        <ele>69</ele>
        <time>2025-05-13T10:17:19Z</time>
      </trkpt>
      <trkpt lat="47.49806" lon="-2.78481">
        <ele>68</ele>
        <time>2025-05-13T10:17:20Z</time>
      </trkpt>
      <trkpt lat="47.49804" lon="-2.78486">
        <ele>68</ele>
        <time>2025-05-13T10:17:21Z</time>
      </trkpt>
      <trkpt lat="47.49801" lon="-2.78492">
        <ele>68</ele>
        <time>2025-05-13T10:17:22Z</time>
      </trkpt>
      <trkpt lat="47.49799" lon="-2.78498">
        <ele>68</ele>
        <time>2025-05-13T10:17:23Z</time>
      </trkpt>
      <trkpt lat="47.49796" lon="-2.78504">
        <ele>68</ele>
        <time>2025-05-13T10:17:24Z</time>
      </trkpt>
      <trkpt lat="47.49794" lon="-2.7851">
        <ele>68</ele>
        <time>2025-05-13T10:17:25Z</time>
      </trkpt>
      <trkpt lat="47.49791" lon="-2.78516">
        <ele>68</ele>
        <time>2025-05-13T10:17:26Z</time>
      </trkpt>
      <trkpt lat="47.49789" lon="-2.78523">
        <ele>68</ele>
        <time>2025-05-13T10:17:27Z</time>
      </trkpt>
      <trkpt lat="47.49786" lon="-2.7853">
        <ele>68</ele>
        <time>2025-05-13T10:17:28Z</time>
      </trkpt>
      <trkpt lat="47.49784" lon="-2.78537">
        <ele>68</ele>
        <time>2025-05-13T10:17:29Z</time>
      </trkpt>
      <trkpt lat="47.49782" lon="-2.78543">
        <ele>68</ele>
        <time>2025-05-13T10:17:30Z</time>
      </trkpt>
      <trkpt lat="47.4978" lon="-2.7855">
        <ele>67</ele>
        <time>2025-05-13T10:17:31Z</time>
      </trkpt>
      <trkpt lat="47.49778" lon="-2.78556">
        <ele>67</ele>
        <time>2025-05-13T10:17:32Z</time>
      </trkpt>
      <trkpt lat="47.49776" lon="-2.78562">
        <ele>68</ele>
        <time>2025-05-13T10:17:33Z</time>
      </trkpt>
      <trkpt lat="47.49774" lon="-2.78569">
        <ele>68</ele>
        <time>2025-05-13T10:17:34Z</time>
      </trkpt>
      <trkpt lat="47.49772" lon="-2.78575">
        <ele>67</ele>
        <time>2025-05-13T10:17:35Z</time>
      </trkpt>
      <trkpt lat="47.4977" lon="-2.78582">
        <ele>67</ele>
        <time>2025-05-13T10:17:36Z</time>
      </trkpt>
      <trkpt lat="47.49769" lon="-2.78588">
        <ele>66</ele>
        <time>2025-05-13T10:17:37Z</time>
      </trkpt>
      <trkpt lat="47.49767" lon="-2.78595">
        <ele>66</ele>
        <time>2025-05-13T10:17:38Z</time>
      </trkpt>
      <trkpt lat="47.49764" lon="-2.78602">
        <ele>66</ele>
        <time>2025-05-13T10:17:39Z</time>
      </trkpt>
      <trkpt lat="47.49763" lon="-2.78608">
        <ele>66</ele>
        <time>2025-05-13T10:17:40Z</time>
      </trkpt>
      <trkpt lat="47.49761" lon="-2.78615">
        <ele>65</ele>
        <time>2025-05-13T10:17:41Z</time>
      </trkpt>
      <trkpt lat="47.49759" lon="-2.78622">
        <ele>65</ele>
        <time>2025-05-13T10:17:42Z</time>
      </trkpt>
      <trkpt lat="47.49758" lon="-2.78629">
        <ele>64</ele>
        <time>2025-05-13T10:17:43Z</time>
      </trkpt>
      <trkpt lat="47.49756" lon="-2.78636">
        <ele>65</ele>
        <time>2025-05-13T10:17:44Z</time>
      </trkpt>
      <trkpt lat="47.49755" lon="-2.78643">
        <ele>65</ele>
        <time>2025-05-13T10:17:45Z</time>
      </trkpt>
      <trkpt lat="47.49753" lon="-2.7865">
        <ele>65</ele>
        <time>2025-05-13T10:17:46Z</time>
      </trkpt>
      <trkpt lat="47.49751" lon="-2.78657">
        <ele>65</ele>
        <time>2025-05-13T10:17:47Z</time>
      </trkpt>
      <trkpt lat="47.49749" lon="-2.78664">
        <ele>65</ele>
        <time>2025-05-13T10:17:48Z</time>
      </trkpt>
      <trkpt lat="47.49747" lon="-2.78671">
        <ele>65</ele>
        <time>2025-05-13T10:17:49Z</time>
      </trkpt>
      <trkpt lat="47.49744" lon="-2.78678">
        <ele>66</ele>
        <time>2025-05-13T10:17:50Z</time>
      </trkpt>
      <trkpt lat="47.49741" lon="-2.78684">
        <ele>66</ele>
        <time>2025-05-13T10:17:51Z</time>
      </trkpt>
      <trkpt lat="47.49737" lon="-2.7869">
        <ele>66</ele>
        <time>2025-05-13T10:17:52Z</time>
      </trkpt>
      <trkpt lat="47.49734" lon="-2.78695">
        <ele>65</ele>
        <time>2025-05-13T10:17:53Z</time>
      </trkpt>
      <trkpt lat="47.4973" lon="-2.787">
        <ele>65</ele>
        <time>2025-05-13T10:17:54Z</time>
      </trkpt>
      <trkpt lat="47.49727" lon="-2.78705">
        <ele>65</ele>
        <time>2025-05-13T10:17:55Z</time>
      </trkpt>
      <trkpt lat="47.49723" lon="-2.7871">
        <ele>64</ele>
        <time>2025-05-13T10:17:56Z</time>
      </trkpt>
      <trkpt lat="47.49719" lon="-2.78715">
        <ele>63</ele>
        <time>2025-05-13T10:17:57Z</time>
      </trkpt>
      <trkpt lat="47.49714" lon="-2.7872">
        <ele>63</ele>
        <time>2025-05-13T10:17:58Z</time>
      </trkpt>
      <trkpt lat="47.4971" lon="-2.78725">
        <ele>64</ele>
        <time>2025-05-13T10:17:59Z</time>
      </trkpt>
      <trkpt lat="47.49706" lon="-2.78731">
        <ele>64</ele>
        <time>2025-05-13T10:18:00Z</time>
      </trkpt>
      <trkpt lat="47.49703" lon="-2.78737">
        <ele>64</ele>
        <time>2025-05-13T10:18:01Z</time>
      </trkpt>
      <trkpt lat="47.49699" lon="-2.78743">
        <ele>63</ele>
        <time>2025-05-13T10:18:02Z</time>
      </trkpt>
      <trkpt lat="47.49695" lon="-2.78749">
        <ele>63</ele>
        <time>2025-05-13T10:18:03Z</time>
      </trkpt>
      <trkpt lat="47.4969" lon="-2.78754">
        <ele>63</ele>
        <time>2025-05-13T10:18:04Z</time>
      </trkpt>
      <trkpt lat="47.49687" lon="-2.7876">
        <ele>63</ele>
        <time>2025-05-13T10:18:05Z</time>
      </trkpt>
      <trkpt lat="47.49683" lon="-2.78765">
        <ele>63</ele>
        <time>2025-05-13T10:18:06Z</time>
      </trkpt>
      <trkpt lat="47.49679" lon="-2.7877">
        <ele>62</ele>
        <time>2025-05-13T10:18:07Z</time>
      </trkpt>
      <trkpt lat="47.49676" lon="-2.78776">
        <ele>62</ele>
        <time>2025-05-13T10:18:08Z</time>
      </trkpt>
      <trkpt lat="47.49672" lon="-2.78781">
        <ele>62</ele>
        <time>2025-05-13T10:18:09Z</time>
      </trkpt>
      <trkpt lat="47.49668" lon="-2.78787">
        <ele>62</ele>
        <time>2025-05-13T10:18:10Z</time>
      </trkpt>
      <trkpt lat="47.49665" lon="-2.78792">
        <ele>62</ele>
        <time>2025-05-13T10:18:11Z</time>
      </trkpt>
      <trkpt lat="47.49661" lon="-2.78797">
        <ele>63</ele>
        <time>2025-05-13T10:18:12Z</time>
      </trkpt>
      <trkpt lat="47.49658" lon="-2.78803">
        <ele>63</ele>
        <time>2025-05-13T10:18:13Z</time>
      </trkpt>
      <trkpt lat="47.49654" lon="-2.78807">
        <ele>63</ele>
        <time>2025-05-13T10:18:14Z</time>
      </trkpt>
      <trkpt lat="47.4965" lon="-2.78811">
        <ele>63</ele>
        <time>2025-05-13T10:18:15Z</time>
      </trkpt>
      <trkpt lat="47.49646" lon="-2.78814">
        <ele>63</ele>
        <time>2025-05-13T10:18:16Z</time>
      </trkpt>
      <trkpt lat="47.49642" lon="-2.78817">
        <ele>63</ele>
        <time>2025-05-13T10:18:17Z</time>
      </trkpt>
      <trkpt lat="47.49638" lon="-2.78818">
        <ele>63</ele>
        <time>2025-05-13T10:18:18Z</time>
      </trkpt>
      <trkpt lat="47.49633" lon="-2.7882">
        <ele>63</ele>
        <time>2025-05-13T10:18:19Z</time>
      </trkpt>
      <trkpt lat="47.49629" lon="-2.78821">
        <ele>63</ele>
        <time>2025-05-13T10:18:20Z</time>
      </trkpt>
      <trkpt lat="47.49624" lon="-2.78823">
        <ele>63</ele>
        <time>2025-05-13T10:18:21Z</time>
      </trkpt>
      <trkpt lat="47.49618" lon="-2.78825">
        <ele>63</ele>
        <time>2025-05-13T10:18:22Z</time>
      </trkpt>
      <trkpt lat="47.49613" lon="-2.78826">
        <ele>62</ele>
        <time>2025-05-13T10:18:23Z</time>
      </trkpt>
      <trkpt lat="47.49608" lon="-2.78826">
        <ele>62</ele>
        <time>2025-05-13T10:18:24Z</time>
      </trkpt>
      <trkpt lat="47.49603" lon="-2.78828">
        <ele>62</ele>
        <time>2025-05-13T10:18:25Z</time>
      </trkpt>
      <trkpt lat="47.49598" lon="-2.7883">
        <ele>61</ele>
        <time>2025-05-13T10:18:26Z</time>
      </trkpt>
      <trkpt lat="47.49593" lon="-2.78832">
        <ele>61</ele>
        <time>2025-05-13T10:18:27Z</time>
      </trkpt>
      <trkpt lat="47.49587" lon="-2.78833">
        <ele>61</ele>
        <time>2025-05-13T10:18:28Z</time>
      </trkpt>
      <trkpt lat="47.49582" lon="-2.78835">
        <ele>61</ele>
        <time>2025-05-13T10:18:29Z</time>
      </trkpt>
      <trkpt lat="47.49577" lon="-2.78837">
        <ele>61</ele>
        <time>2025-05-13T10:18:30Z</time>
      </trkpt>
      <trkpt lat="47.49573" lon="-2.78839">
        <ele>61</ele>
        <time>2025-05-13T10:18:31Z</time>
      </trkpt>
      <trkpt lat="47.49568" lon="-2.78841">
        <ele>61</ele>
        <time>2025-05-13T10:18:32Z</time>
      </trkpt>
      <trkpt lat="47.49564" lon="-2.78843">
        <ele>61</ele>
        <time>2025-05-13T10:18:33Z</time>
      </trkpt>
      <trkpt lat="47.49559" lon="-2.78844">
        <ele>62</ele>
        <time>2025-05-13T10:18:34Z</time>
      </trkpt>
      <trkpt lat="47.49555" lon="-2.78845">
        <ele>62</ele>
        <time>2025-05-13T10:18:35Z</time>
      </trkpt>
      <trkpt lat="47.4955" lon="-2.78847">
        <ele>61</ele>
        <time>2025-05-13T10:18:36Z</time>
      </trkpt>
      <trkpt lat="47.49546" lon="-2.78848">
        <ele>61</ele>
        <time>2025-05-13T10:18:37Z</time>
      </trkpt>
      <trkpt lat="47.49541" lon="-2.78849">
        <ele>61</ele>
        <time>2025-05-13T10:18:38Z</time>
      </trkpt>
      <trkpt lat="47.49537" lon="-2.7885">
        <ele>61</ele>
        <time>2025-05-13T10:18:39Z</time>
      </trkpt>
      <trkpt lat="47.49532" lon="-2.78851">
        <ele>61</ele>
        <time>2025-05-13T10:18:40Z</time>
      </trkpt>
      <trkpt lat="47.49528" lon="-2.78853">
        <ele>61</ele>
        <time>2025-05-13T10:18:41Z</time>
      </trkpt>
      <trkpt lat="47.49523" lon="-2.78855">
        <ele>61</ele>
        <time>2025-05-13T10:18:42Z</time>
      </trkpt>
      <trkpt lat="47.49519" lon="-2.78856">
        <ele>61</ele>
        <time>2025-05-13T10:18:43Z</time>
      </trkpt>
      <trkpt lat="47.49514" lon="-2.78857">
        <ele>61</ele>
        <time>2025-05-13T10:18:44Z</time>
      </trkpt>
      <trkpt lat="47.4951" lon="-2.78858">
        <ele>61</ele>
        <time>2025-05-13T10:18:45Z</time>
      </trkpt>
      <trkpt lat="47.49505" lon="-2.7886">
        <ele>61</ele>
        <time>2025-05-13T10:18:46Z</time>
      </trkpt>
      <trkpt lat="47.49501" lon="-2.78862">
        <ele>61</ele>
        <time>2025-05-13T10:18:47Z</time>
      </trkpt>
      <trkpt lat="47.49496" lon="-2.78864">
        <ele>61</ele>
        <time>2025-05-13T10:18:48Z</time>
      </trkpt>
      <trkpt lat="47.49492" lon="-2.78865">
        <ele>60</ele>
        <time>2025-05-13T10:18:49Z</time>
      </trkpt>
      <trkpt lat="47.49487" lon="-2.78867">
        <ele>60</ele>
        <time>2025-05-13T10:18:50Z</time>
      </trkpt>
      <trkpt lat="47.49483" lon="-2.78868">
        <ele>60</ele>
        <time>2025-05-13T10:18:51Z</time>
      </trkpt>
      <trkpt lat="47.49478" lon="-2.7887">
        <ele>60</ele>
        <time>2025-05-13T10:18:52Z</time>
      </trkpt>
      <trkpt lat="47.49473" lon="-2.78871">
        <ele>60</ele>
        <time>2025-05-13T10:18:53Z</time>
      </trkpt>
      <trkpt lat="47.49469" lon="-2.78872">
        <ele>60</ele>
        <time>2025-05-13T10:18:54Z</time>
      </trkpt>
      <trkpt lat="47.49464" lon="-2.78873">
        <ele>59</ele>
        <time>2025-05-13T10:18:55Z</time>
      </trkpt>
      <trkpt lat="47.49459" lon="-2.78874">
        <ele>59</ele>
        <time>2025-05-13T10:18:56Z</time>
      </trkpt>
      <trkpt lat="47.49455" lon="-2.78875">
        <ele>59</ele>
        <time>2025-05-13T10:18:57Z</time>
      </trkpt>
      <trkpt lat="47.49451" lon="-2.78877">
        <ele>59</ele>
        <time>2025-05-13T10:18:58Z</time>
      </trkpt>
      <trkpt lat="47.49446" lon="-2.78879">
        <ele>59</ele>
        <time>2025-05-13T10:18:59Z</time>
      </trkpt>
      <trkpt lat="47.49442" lon="-2.7888">
        <ele>59</ele>
        <time>2025-05-13T10:19:00Z</time>
      </trkpt>
      <trkpt lat="47.49438" lon="-2.78882">
        <ele>59</ele>
        <time>2025-05-13T10:19:01Z</time>
      </trkpt>
      <trkpt lat="47.49434" lon="-2.78884">
        <ele>59</ele>
        <time>2025-05-13T10:19:02Z</time>
      </trkpt>
      <trkpt lat="47.4943" lon="-2.78886">
        <ele>59</ele>
        <time>2025-05-13T10:19:03Z</time>
      </trkpt>
      <trkpt lat="47.49426" lon="-2.78889">
        <ele>59</ele>
        <time>2025-05-13T10:19:04Z</time>
      </trkpt>
      <trkpt lat="47.49421" lon="-2.78891">
        <ele>58</ele>
        <time>2025-05-13T10:19:05Z</time>
      </trkpt>
      <trkpt lat="47.49417" lon="-2.78893">
        <ele>59</ele>
        <time>2025-05-13T10:19:06Z</time>
      </trkpt>
      <trkpt lat="47.49413" lon="-2.78896">
        <ele>59</ele>
        <time>2025-05-13T10:19:07Z</time>
      </trkpt>
      <trkpt lat="47.49409" lon="-2.78899">
        <ele>60</ele>
        <time>2025-05-13T10:19:08Z</time>
      </trkpt>
      <trkpt lat="47.49404" lon="-2.78903">
        <ele>60</ele>
        <time>2025-05-13T10:19:09Z</time>
      </trkpt>
      <trkpt lat="47.494" lon="-2.78907">
        <ele>59</ele>
        <time>2025-05-13T10:19:10Z</time>
      </trkpt>
      <trkpt lat="47.49396" lon="-2.78911">
        <ele>59</ele>
        <time>2025-05-13T10:19:11Z</time>
      </trkpt>
      <trkpt lat="47.49392" lon="-2.78916">
        <ele>59</ele>
        <time>2025-05-13T10:19:12Z</time>
      </trkpt>
      <trkpt lat="47.49389" lon="-2.7892">
        <ele>59</ele>
        <time>2025-05-13T10:19:13Z</time>
      </trkpt>
      <trkpt lat="47.49385" lon="-2.78924">
        <ele>59</ele>
        <time>2025-05-13T10:19:14Z</time>
      </trkpt>
      <trkpt lat="47.49382" lon="-2.78928">
        <ele>59</ele>
        <time>2025-05-13T10:19:15Z</time>
      </trkpt>
      <trkpt lat="47.49379" lon="-2.78932">
        <ele>59</ele>
        <time>2025-05-13T10:19:16Z</time>
      </trkpt>
      <trkpt lat="47.49376" lon="-2.78935">
        <ele>59</ele>
        <time>2025-05-13T10:19:17Z</time>
      </trkpt>
      <trkpt lat="47.49374" lon="-2.7894">
        <ele>59</ele>
        <time>2025-05-13T10:19:18Z</time>
      </trkpt>
      <trkpt lat="47.49371" lon="-2.78944">
        <ele>60</ele>
        <time>2025-05-13T10:19:19Z</time>
      </trkpt>
      <trkpt lat="47.49369" lon="-2.78948">
        <ele>60</ele>
        <time>2025-05-13T10:19:20Z</time>
      </trkpt>
      <trkpt lat="47.49368" lon="-2.78953">
        <ele>60</ele>
        <time>2025-05-13T10:19:21Z</time>
      </trkpt>
      <trkpt lat="47.49367" lon="-2.78958">
        <ele>60</ele>
        <time>2025-05-13T10:19:22Z</time>
      </trkpt>
      <trkpt lat="47.49366" lon="-2.78962">
        <ele>60</ele>
        <time>2025-05-13T10:19:23Z</time>
      </trkpt>
      <trkpt lat="47.49366" lon="-2.78966">
        <ele>59</ele>
        <time>2025-05-13T10:19:24Z</time>
      </trkpt>
      <trkpt lat="47.49366" lon="-2.7897">
        <ele>59</ele>
        <time>2025-05-13T10:19:25Z</time>
      </trkpt>
      <trkpt lat="47.49367" lon="-2.78974">
        <ele>59</ele>
        <time>2025-05-13T10:19:26Z</time>
      </trkpt>
      <trkpt lat="47.4937" lon="-2.78978">
        <ele>60</ele>
        <time>2025-05-13T10:19:27Z</time>
      </trkpt>
      <trkpt lat="47.49372" lon="-2.78981">
        <ele>60</ele>
        <time>2025-05-13T10:19:28Z</time>
      </trkpt>
      <trkpt lat="47.49374" lon="-2.78985">
        <ele>60</ele>
        <time>2025-05-13T10:19:29Z</time>
      </trkpt>
      <trkpt lat="47.49376" lon="-2.7899">
        <ele>61</ele>
        <time>2025-05-13T10:19:30Z</time>
      </trkpt>
      <trkpt lat="47.49378" lon="-2.78995">
        <ele>61</ele>
        <time>2025-05-13T10:19:31Z</time>
      </trkpt>
      <trkpt lat="47.49379" lon="-2.78999">
        <ele>61</ele>
        <time>2025-05-13T10:19:32Z</time>
      </trkpt>
      <trkpt lat="47.49381" lon="-2.79004">
        <ele>61</ele>
        <time>2025-05-13T10:19:33Z</time>
      </trkpt>
      <trkpt lat="47.49382" lon="-2.79008">
        <ele>61</ele>
        <time>2025-05-13T10:19:34Z</time>
      </trkpt>
      <trkpt lat="47.49384" lon="-2.79013">
        <ele>61</ele>
        <time>2025-05-13T10:19:35Z</time>
      </trkpt>
      <trkpt lat="47.49385" lon="-2.79018">
        <ele>61</ele>
        <time>2025-05-13T10:19:36Z</time>
      </trkpt>
      <trkpt lat="47.49386" lon="-2.79022">
        <ele>61</ele>
        <time>2025-05-13T10:19:37Z</time>
      </trkpt>
      <trkpt lat="47.49387" lon="-2.79027">
        <ele>61</ele>
        <time>2025-05-13T10:19:38Z</time>
      </trkpt>
      <trkpt lat="47.49388" lon="-2.79031">
        <ele>62</ele>
        <time>2025-05-13T10:19:39Z</time>
      </trkpt>
      <trkpt lat="47.49389" lon="-2.79036">
        <ele>62</ele>
        <time>2025-05-13T10:19:40Z</time>
      </trkpt>
      <trkpt lat="47.4939" lon="-2.7904">
        <ele>62</ele>
        <time>2025-05-13T10:19:41Z</time>
      </trkpt>
      <trkpt lat="47.49391" lon="-2.79045">
        <ele>62</ele>
        <time>2025-05-13T10:19:42Z</time>
      </trkpt>
      <trkpt lat="47.49391" lon="-2.79049">
        <ele>62</ele>
        <time>2025-05-13T10:19:43Z</time>
      </trkpt>
      <trkpt lat="47.49391" lon="-2.79054">
        <ele>63</ele>
        <time>2025-05-13T10:19:44Z</time>
      </trkpt>
      <trkpt lat="47.49391" lon="-2.79059">
        <ele>63</ele>
        <time>2025-05-13T10:19:45Z</time>
      </trkpt>
      <trkpt lat="47.4939" lon="-2.79064">
        <ele>63</ele>
        <time>2025-05-13T10:19:46Z</time>
      </trkpt>
      <trkpt lat="47.49389" lon="-2.79069">
        <ele>63</ele>
        <time>2025-05-13T10:19:47Z</time>
      </trkpt>
      <trkpt lat="47.49388" lon="-2.79074">
        <ele>64</ele>
        <time>2025-05-13T10:19:48Z</time>
      </trkpt>
      <trkpt lat="47.49388" lon="-2.79078">
        <ele>64</ele>
        <time>2025-05-13T10:19:49Z</time>
      </trkpt>
      <trkpt lat="47.49387" lon="-2.79083">
        <ele>64</ele>
        <time>2025-05-13T10:19:50Z</time>
      </trkpt>
      <trkpt lat="47.49386" lon="-2.79087">
        <ele>65</ele>
        <time>2025-05-13T10:19:51Z</time>
      </trkpt>
      <trkpt lat="47.49386" lon="-2.79091">
        <ele>66</ele>
        <time>2025-05-13T10:19:52Z</time>
      </trkpt>
      <trkpt lat="47.49385" lon="-2.79095">
        <ele>66</ele>
        <time>2025-05-13T10:19:53Z</time>
      </trkpt>
      <trkpt lat="47.49385" lon="-2.79099">
        <ele>66</ele>
        <time>2025-05-13T10:19:54Z</time>
      </trkpt>
      <trkpt lat="47.49385" lon="-2.79103">
        <ele>66</ele>
        <time>2025-05-13T10:19:55Z</time>
      </trkpt>
      <trkpt lat="47.49384" lon="-2.79106">
        <ele>66</ele>
        <time>2025-05-13T10:19:56Z</time>
      </trkpt>
      <trkpt lat="47.49384" lon="-2.7911">
        <ele>65</ele>
        <time>2025-05-13T10:19:57Z</time>
      </trkpt>
      <trkpt lat="47.49384" lon="-2.79114">
        <ele>65</ele>
        <time>2025-05-13T10:19:58Z</time>
      </trkpt>
      <trkpt lat="47.49383" lon="-2.79118">
        <ele>65</ele>
        <time>2025-05-13T10:19:59Z</time>
      </trkpt>
      <trkpt lat="47.49383" lon="-2.79123">
        <ele>65</ele>
        <time>2025-05-13T10:20:00Z</time>
      </trkpt>
      <trkpt lat="47.49383" lon="-2.79128">
        <ele>65</ele>
        <time>2025-05-13T10:20:01Z</time>
      </trkpt>
      <trkpt lat="47.49383" lon="-2.79132">
        <ele>65</ele>
        <time>2025-05-13T10:20:02Z</time>
      </trkpt>
      <trkpt lat="47.49383" lon="-2.79136">
        <ele>65</ele>
        <time>2025-05-13T10:20:03Z</time>
      </trkpt>
      <trkpt lat="47.49383" lon="-2.7914">
        <ele>65</ele>
        <time>2025-05-13T10:20:04Z</time>
      </trkpt>
      <trkpt lat="47.49383" lon="-2.79144">
        <ele>65</ele>
        <time>2025-05-13T10:20:05Z</time>
      </trkpt>
      <trkpt lat="47.49383" lon="-2.79148">
        <ele>65</ele>
        <time>2025-05-13T10:20:06Z</time>
      </trkpt>
      <trkpt lat="47.49383" lon="-2.79152">
        <ele>65</ele>
        <time>2025-05-13T10:20:07Z</time>
      </trkpt>
      <trkpt lat="47.49382" lon="-2.79156">
        <ele>65</ele>
        <time>2025-05-13T10:20:08Z</time>
      </trkpt>
      <trkpt lat="47.49382" lon="-2.79159">
        <ele>66</ele>
        <time>2025-05-13T10:20:09Z</time>
      </trkpt>
      <trkpt lat="47.49382" lon="-2.79163">
        <ele>66</ele>
        <time>2025-05-13T10:20:10Z</time>
      </trkpt>
      <trkpt lat="47.49383" lon="-2.79167">
        <ele>66</ele>
        <time>2025-05-13T10:20:11Z</time>
      </trkpt>
      <trkpt lat="47.49383" lon="-2.7917">
        <ele>66</ele>
        <time>2025-05-13T10:20:12Z</time>
      </trkpt>
      <trkpt lat="47.49383" lon="-2.79173">
        <ele>67</ele>
        <time>2025-05-13T10:20:13Z</time>
      </trkpt>
      <trkpt lat="47.49383" lon="-2.79177">
        <ele>67</ele>
        <time>2025-05-13T10:20:14Z</time>
      </trkpt>
      <trkpt lat="47.49382" lon="-2.79181">
        <ele>68</ele>
        <time>2025-05-13T10:20:15Z</time>
      </trkpt>
      <trkpt lat="47.49382" lon="-2.79184">
        <ele>68</ele>
        <time>2025-05-13T10:20:16Z</time>
      </trkpt>
      <trkpt lat="47.49382" lon="-2.79187">
        <ele>69</ele>
        <time>2025-05-13T10:20:17Z</time>
      </trkpt>
      <trkpt lat="47.49382" lon="-2.7919">
        <ele>69</ele>
        <time>2025-05-13T10:20:18Z</time>
      </trkpt>
      <trkpt lat="47.49382" lon="-2.79193">
        <ele>68</ele>
        <time>2025-05-13T10:20:19Z</time>
      </trkpt>
      <trkpt lat="47.49382" lon="-2.79197">
        <ele>68</ele>
        <time>2025-05-13T10:20:20Z</time>
      </trkpt>
      <trkpt lat="47.49382" lon="-2.792">
        <ele>68</ele>
        <time>2025-05-13T10:20:21Z</time>
      </trkpt>
      <trkpt lat="47.49381" lon="-2.79203">
        <ele>68</ele>
        <time>2025-05-13T10:20:22Z</time>
      </trkpt>
      <trkpt lat="47.49381" lon="-2.79207">
        <ele>68</ele>
        <time>2025-05-13T10:20:23Z</time>
      </trkpt>
      <trkpt lat="47.49381" lon="-2.7921">
        <ele>68</ele>
        <time>2025-05-13T10:20:24Z</time>
      </trkpt>
      <trkpt lat="47.49381" lon="-2.79214">
        <ele>68</ele>
        <time>2025-05-13T10:20:25Z</time>
      </trkpt>
      <trkpt lat="47.4938" lon="-2.79217">
        <ele>68</ele>
        <time>2025-05-13T10:20:26Z</time>
      </trkpt>
      <trkpt lat="47.4938" lon="-2.7922">
        <ele>69</ele>
        <time>2025-05-13T10:20:27Z</time>
      </trkpt>
      <trkpt lat="47.49379" lon="-2.79224">
        <ele>69</ele>
        <time>2025-05-13T10:20:28Z</time>
      </trkpt>
      <trkpt lat="47.49379" lon="-2.79227">
        <ele>68</ele>
        <time>2025-05-13T10:20:29Z</time>
      </trkpt>
      <trkpt lat="47.49379" lon="-2.7923">
        <ele>68</ele>
        <time>2025-05-13T10:20:30Z</time>
      </trkpt>
      <trkpt lat="47.49378" lon="-2.79233">
        <ele>68</ele>
        <time>2025-05-13T10:20:31Z</time>
      </trkpt>
      <trkpt lat="47.49377" lon="-2.79236">
        <ele>68</ele>
        <time>2025-05-13T10:20:32Z</time>
      </trkpt>
      <trkpt lat="47.49377" lon="-2.7924">
        <ele>69</ele>
        <time>2025-05-13T10:20:33Z</time>
      </trkpt>
      <trkpt lat="47.49377" lon="-2.79243">
        <ele>69</ele>
        <time>2025-05-13T10:20:34Z</time>
      </trkpt>
      <trkpt lat="47.49376" lon="-2.79246">
        <ele>69</ele>
        <time>2025-05-13T10:20:35Z</time>
      </trkpt>
      <trkpt lat="47.49375" lon="-2.79249">
        <ele>70</ele>
        <time>2025-05-13T10:20:36Z</time>
      </trkpt>
      <trkpt lat="47.49375" lon="-2.79252">
        <ele>70</ele>
        <time>2025-05-13T10:20:37Z</time>
      </trkpt>
      <trkpt lat="47.49374" lon="-2.79254">
        <ele>71</ele>
        <time>2025-05-13T10:20:38Z</time>
      </trkpt>
      <trkpt lat="47.49374" lon="-2.79257">
        <ele>71</ele>
        <time>2025-05-13T10:20:39Z</time>
      </trkpt>
      <trkpt lat="47.49373" lon="-2.7926">
        <ele>72</ele>
        <time>2025-05-13T10:20:40Z</time>
      </trkpt>
      <trkpt lat="47.49372" lon="-2.79263">
        <ele>72</ele>
        <time>2025-05-13T10:20:41Z</time>
      </trkpt>
      <trkpt lat="47.49372" lon="-2.79267">
        <ele>72</ele>
        <time>2025-05-13T10:20:42Z</time>
      </trkpt>
      <trkpt lat="47.49371" lon="-2.7927">
        <ele>72</ele>
        <time>2025-05-13T10:20:43Z</time>
      </trkpt>
      <trkpt lat="47.4937" lon="-2.79273">
        <ele>72</ele>
        <time>2025-05-13T10:20:44Z</time>
      </trkpt>
      <trkpt lat="47.49369" lon="-2.79276">
        <ele>72</ele>
        <time>2025-05-13T10:20:45Z</time>
      </trkpt>
      <trkpt lat="47.49368" lon="-2.79279">
        <ele>72</ele>
        <time>2025-05-13T10:20:46Z</time>
      </trkpt>
      <trkpt lat="47.49368" lon="-2.79282">
        <ele>72</ele>
        <time>2025-05-13T10:20:47Z</time>
      </trkpt>
      <trkpt lat="47.49367" lon="-2.79285">
        <ele>72</ele>
        <time>2025-05-13T10:20:48Z</time>
      </trkpt>
      <trkpt lat="47.49366" lon="-2.79288">
        <ele>72</ele>
        <time>2025-05-13T10:20:49Z</time>
      </trkpt>
      <trkpt lat="47.49366" lon="-2.7929">
        <ele>71</ele>
        <time>2025-05-13T10:20:50Z</time>
      </trkpt>
      <trkpt lat="47.49366" lon="-2.79293">
        <ele>71</ele>
        <time>2025-05-13T10:20:51Z</time>
      </trkpt>
      <trkpt lat="47.49365" lon="-2.79296">
        <ele>71</ele>
        <time>2025-05-13T10:20:52Z</time>
      </trkpt>
      <trkpt lat="47.49364" lon="-2.79298">
        <ele>71</ele>
        <time>2025-05-13T10:20:53Z</time>
      </trkpt>
      <trkpt lat="47.49363" lon="-2.79301">
        <ele>72</ele>
        <time>2025-05-13T10:20:54Z</time>
      </trkpt>
      <trkpt lat="47.49361" lon="-2.79303">
        <ele>72</ele>
        <time>2025-05-13T10:20:55Z</time>
      </trkpt>
      <trkpt lat="47.4936" lon="-2.79306">
        <ele>72</ele>
        <time>2025-05-13T10:20:56Z</time>
      </trkpt>
      <trkpt lat="47.49359" lon="-2.79309">
        <ele>72</ele>
        <time>2025-05-13T10:20:57Z</time>
      </trkpt>
      <trkpt lat="47.49358" lon="-2.79312">
        <ele>72</ele>
        <time>2025-05-13T10:20:58Z</time>
      </trkpt>
      <trkpt lat="47.49358" lon="-2.79315">
        <ele>72</ele>
        <time>2025-05-13T10:20:59Z</time>
      </trkpt>
      <trkpt lat="47.49358" lon="-2.79318">
        <ele>72</ele>
        <time>2025-05-13T10:21:00Z</time>
      </trkpt>
      <trkpt lat="47.49358" lon="-2.79321">
        <ele>73</ele>
        <time>2025-05-13T10:21:01Z</time>
      </trkpt>
      <trkpt lat="47.49359" lon="-2.79324">
        <ele>73</ele>
        <time>2025-05-13T10:21:02Z</time>
      </trkpt>
      <trkpt lat="47.4936" lon="-2.79326">
        <ele>73</ele>
        <time>2025-05-13T10:21:03Z</time>
      </trkpt>
      <trkpt lat="47.4936" lon="-2.79329">
        <ele>74</ele>
        <time>2025-05-13T10:21:04Z</time>
      </trkpt>
      <trkpt lat="47.49361" lon="-2.79332">
        <ele>74</ele>
        <time>2025-05-13T10:21:05Z</time>
      </trkpt>
      <trkpt lat="47.49361" lon="-2.79335">
        <ele>74</ele>
        <time>2025-05-13T10:21:06Z</time>
      </trkpt>
      <trkpt lat="47.49362" lon="-2.79338">
        <ele>74</ele>
        <time>2025-05-13T10:21:07Z</time>
      </trkpt>
      <trkpt lat="47.49363" lon="-2.79342">
        <ele>74</ele>
        <time>2025-05-13T10:21:08Z</time>
      </trkpt>
      <trkpt lat="47.49363" lon="-2.79345">
        <ele>74</ele>
        <time>2025-05-13T10:21:09Z</time>
      </trkpt>
      <trkpt lat="47.49364" lon="-2.79348">
        <ele>74</ele>
        <time>2025-05-13T10:21:10Z</time>
      </trkpt>
      <trkpt lat="47.49364" lon="-2.79351">
        <ele>75</ele>
        <time>2025-05-13T10:21:11Z</time>
      </trkpt>
      <trkpt lat="47.49364" lon="-2.79354">
        <ele>75</ele>
        <time>2025-05-13T10:21:12Z</time>
      </trkpt>
      <trkpt lat="47.49365" lon="-2.79357">
        <ele>75</ele>
        <time>2025-05-13T10:21:13Z</time>
      </trkpt>
      <trkpt lat="47.49365" lon="-2.7936">
        <ele>75</ele>
        <time>2025-05-13T10:21:14Z</time>
      </trkpt>
      <trkpt lat="47.49365" lon="-2.79363">
        <ele>75</ele>
        <time>2025-05-13T10:21:15Z</time>
      </trkpt>
      <trkpt lat="47.49366" lon="-2.79366">
        <ele>75</ele>
        <time>2025-05-13T10:21:16Z</time>
      </trkpt>
      <trkpt lat="47.49366" lon="-2.79369">
        <ele>75</ele>
        <time>2025-05-13T10:21:17Z</time>
      </trkpt>
      <trkpt lat="47.49367" lon="-2.79372">
        <ele>75</ele>
        <time>2025-05-13T10:21:18Z</time>
      </trkpt>
      <trkpt lat="47.49369" lon="-2.79375">
        <ele>75</ele>
        <time>2025-05-13T10:21:19Z</time>
      </trkpt>
      <trkpt lat="47.4937" lon="-2.79377">
        <ele>75</ele>
        <time>2025-05-13T10:21:20Z</time>
      </trkpt>
      <trkpt lat="47.49372" lon="-2.7938">
        <ele>75</ele>
        <time>2025-05-13T10:21:21Z</time>
      </trkpt>
      <trkpt lat="47.49373" lon="-2.79381">
        <ele>75</ele>
        <time>2025-05-13T10:21:22Z</time>
      </trkpt>
      <trkpt lat="47.49374" lon="-2.79383">
        <ele>75</ele>
        <time>2025-05-13T10:21:23Z</time>
      </trkpt>
      <trkpt lat="47.49376" lon="-2.79384">
        <ele>75</ele>
        <time>2025-05-13T10:21:24Z</time>
      </trkpt>
      <trkpt lat="47.49377" lon="-2.79386">
        <ele>75</ele>
        <time>2025-05-13T10:21:25Z</time>
      </trkpt>
      <trkpt lat="47.49378" lon="-2.79388">
        <ele>75</ele>
        <time>2025-05-13T10:21:26Z</time>
      </trkpt>
      <trkpt lat="47.4938" lon="-2.79391">
        <ele>75</ele>
        <time>2025-05-13T10:21:27Z</time>
      </trkpt>
      <trkpt lat="47.49381" lon="-2.79393">
        <ele>75</ele>
        <time>2025-05-13T10:21:28Z</time>
      </trkpt>
      <trkpt lat="47.49382" lon="-2.79395">
        <ele>75</ele>
        <time>2025-05-13T10:21:29Z</time>
      </trkpt>
      <trkpt lat="47.49384" lon="-2.79397">
        <ele>76</ele>
        <time>2025-05-13T10:21:30Z</time>
      </trkpt>
      <trkpt lat="47.49385" lon="-2.79399">
        <ele>77</ele>
        <time>2025-05-13T10:21:31Z</time>
      </trkpt>
      <trkpt lat="47.49386" lon="-2.79402">
        <ele>78</ele>
        <time>2025-05-13T10:21:32Z</time>
      </trkpt>
      <trkpt lat="47.49387" lon="-2.79404">
        <ele>79</ele>
        <time>2025-05-13T10:21:33Z</time>
      </trkpt>
      <trkpt lat="47.49388" lon="-2.79406">
        <ele>79</ele>
        <time>2025-05-13T10:21:34Z</time>
      </trkpt>
      <trkpt lat="47.49388" lon="-2.79408">
        <ele>80</ele>
        <time>2025-05-13T10:21:35Z</time>
      </trkpt>
      <trkpt lat="47.49388" lon="-2.7941">
        <ele>80</ele>
        <time>2025-05-13T10:21:36Z</time>
      </trkpt>
      <trkpt lat="47.49387" lon="-2.79413">
        <ele>79</ele>
        <time>2025-05-13T10:21:37Z</time>
      </trkpt>
      <trkpt lat="47.49387" lon="-2.79415">
        <ele>79</ele>
        <time>2025-05-13T10:21:38Z</time>
      </trkpt>
      <trkpt lat="47.49386" lon="-2.79418">
        <ele>79</ele>
        <time>2025-05-13T10:21:39Z</time>
      </trkpt>
      <trkpt lat="47.49385" lon="-2.79422">
        <ele>79</ele>
        <time>2025-05-13T10:21:40Z</time>
      </trkpt>
      <trkpt lat="47.49383" lon="-2.79424">
        <ele>79</ele>
        <time>2025-05-13T10:21:41Z</time>
      </trkpt>
      <trkpt lat="47.49382" lon="-2.79427">
        <ele>79</ele>
        <time>2025-05-13T10:21:42Z</time>
      </trkpt>
      <trkpt lat="47.49381" lon="-2.79429">
        <ele>79</ele>
        <time>2025-05-13T10:21:43Z</time>
      </trkpt>
      <trkpt lat="47.49381" lon="-2.79431">
        <ele>79</ele>
        <time>2025-05-13T10:21:44Z</time>
      </trkpt>
      <trkpt lat="47.4938" lon="-2.79434">
        <ele>79</ele>
        <time>2025-05-13T10:21:45Z</time>
      </trkpt>
      <trkpt lat="47.4938" lon="-2.79436">
        <ele>79</ele>
        <time>2025-05-13T10:21:46Z</time>
      </trkpt>
      <trkpt lat="47.49379" lon="-2.79439">
        <ele>79</ele>
        <time>2025-05-13T10:21:47Z</time>
      </trkpt>
      <trkpt lat="47.49379" lon="-2.79442">
        <ele>79</ele>
        <time>2025-05-13T10:21:48Z</time>
      </trkpt>
      <trkpt lat="47.49379" lon="-2.79445">
        <ele>79</ele>
        <time>2025-05-13T10:21:49Z</time>
      </trkpt>
      <trkpt lat="47.49379" lon="-2.79448">
        <ele>79</ele>
        <time>2025-05-13T10:21:50Z</time>
      </trkpt>
      <trkpt lat="47.49379" lon="-2.79451">
        <ele>79</ele>
        <time>2025-05-13T10:21:51Z</time>
      </trkpt>
      <trkpt lat="47.49379" lon="-2.79454">
        <ele>79</ele>
        <time>2025-05-13T10:21:52Z</time>
      </trkpt>
      <trkpt lat="47.49379" lon="-2.79457">
        <ele>79</ele>
        <time>2025-05-13T10:21:53Z</time>
      </trkpt>
      <trkpt lat="47.49378" lon="-2.79461">
        <ele>79</ele>
        <time>2025-05-13T10:21:54Z</time>
      </trkpt>
      <trkpt lat="47.49378" lon="-2.79464">
        <ele>79</ele>
        <time>2025-05-13T10:21:55Z</time>
      </trkpt>
      <trkpt lat="47.49378" lon="-2.79468">
        <ele>78</ele>
        <time>2025-05-13T10:21:56Z</time>
      </trkpt>
      <trkpt lat="47.49378" lon="-2.79472">
        <ele>78</ele>
        <time>2025-05-13T10:21:57Z</time>
      </trkpt>
      <trkpt lat="47.49378" lon="-2.79475">
        <ele>78</ele>
        <time>2025-05-13T10:21:58Z</time>
      </trkpt>
      <trkpt lat="47.49378" lon="-2.79479">
        <ele>79</ele>
        <time>2025-05-13T10:21:59Z</time>
      </trkpt>
      <trkpt lat="47.49378" lon="-2.79482">
        <ele>79</ele>
        <time>2025-05-13T10:22:00Z</time>
      </trkpt>
      <trkpt lat="47.49378" lon="-2.79486">
        <ele>79</ele>
        <time>2025-05-13T10:22:01Z</time>
      </trkpt>
      <trkpt lat="47.49378" lon="-2.79489">
        <ele>79</ele>
        <time>2025-05-13T10:22:02Z</time>
      </trkpt>
      <trkpt lat="47.49378" lon="-2.79493">
        <ele>80</ele>
        <time>2025-05-13T10:22:03Z</time>
      </trkpt>
      <trkpt lat="47.49378" lon="-2.79497">
        <ele>80</ele>
        <time>2025-05-13T10:22:04Z</time>
      </trkpt>
      <trkpt lat="47.49378" lon="-2.79501">
        <ele>80</ele>
        <time>2025-05-13T10:22:05Z</time>
      </trkpt>
      <trkpt lat="47.49378" lon="-2.79505">
        <ele>81</ele>
        <time>2025-05-13T10:22:06Z</time>
      </trkpt>
      <trkpt lat="47.49377" lon="-2.79508">
        <ele>81</ele>
        <time>2025-05-13T10:22:07Z</time>
      </trkpt>
      <trkpt lat="47.49377" lon="-2.79512">
        <ele>81</ele>
        <time>2025-05-13T10:22:08Z</time>
      </trkpt>
      <trkpt lat="47.49377" lon="-2.79516">
        <ele>81</ele>
        <time>2025-05-13T10:22:09Z</time>
      </trkpt>
      <trkpt lat="47.49377" lon="-2.79519">
        <ele>81</ele>
        <time>2025-05-13T10:22:10Z</time>
      </trkpt>
      <trkpt lat="47.49377" lon="-2.79523">
        <ele>81</ele>
        <time>2025-05-13T10:22:11Z</time>
      </trkpt>
      <trkpt lat="47.49377" lon="-2.79528">
        <ele>81</ele>
        <time>2025-05-13T10:22:12Z</time>
      </trkpt>
      <trkpt lat="47.49376" lon="-2.79532">
        <ele>80</ele>
        <time>2025-05-13T10:22:13Z</time>
      </trkpt>
      <trkpt lat="47.49376" lon="-2.79536">
        <ele>80</ele>
        <time>2025-05-13T10:22:14Z</time>
      </trkpt>
      <trkpt lat="47.49375" lon="-2.79541">
        <ele>80</ele>
        <time>2025-05-13T10:22:15Z</time>
      </trkpt>
      <trkpt lat="47.49375" lon="-2.79545">
        <ele>79</ele>
        <time>2025-05-13T10:22:16Z</time>
      </trkpt>
      <trkpt lat="47.49375" lon="-2.7955">
        <ele>79</ele>
        <time>2025-05-13T10:22:17Z</time>
      </trkpt>
      <trkpt lat="47.49375" lon="-2.79554">
        <ele>78</ele>
        <time>2025-05-13T10:22:18Z</time>
      </trkpt>
      <trkpt lat="47.49374" lon="-2.79559">
        <ele>78</ele>
        <time>2025-05-13T10:22:19Z</time>
      </trkpt>
      <trkpt lat="47.49374" lon="-2.79564">
        <ele>78</ele>
        <time>2025-05-13T10:22:20Z</time>
      </trkpt>
      <trkpt lat="47.49374" lon="-2.79569">
        <ele>78</ele>
        <time>2025-05-13T10:22:21Z</time>
      </trkpt>
      <trkpt lat="47.49374" lon="-2.79573">
        <ele>78</ele>
        <time>2025-05-13T10:22:22Z</time>
      </trkpt>
      <trkpt lat="47.49373" lon="-2.79578">
        <ele>78</ele>
        <time>2025-05-13T10:22:23Z</time>
      </trkpt>
      <trkpt lat="47.49373" lon="-2.79583">
        <ele>78</ele>
        <time>2025-05-13T10:22:24Z</time>
      </trkpt>
      <trkpt lat="47.49372" lon="-2.79588">
        <ele>78</ele>
        <time>2025-05-13T10:22:25Z</time>
      </trkpt>
      <trkpt lat="47.49372" lon="-2.79594">
        <ele>77</ele>
        <time>2025-05-13T10:22:26Z</time>
      </trkpt>
      <trkpt lat="47.49372" lon="-2.796">
        <ele>77</ele>
        <time>2025-05-13T10:22:27Z</time>
      </trkpt>
      <trkpt lat="47.49372" lon="-2.79606">
        <ele>77</ele>
        <time>2025-05-13T10:22:28Z</time>
      </trkpt>
      <trkpt lat="47.49372" lon="-2.79612">
        <ele>76</ele>
        <time>2025-05-13T10:22:29Z</time>
      </trkpt>
      <trkpt lat="47.49371" lon="-2.79619">
        <ele>76</ele>
        <time>2025-05-13T10:22:30Z</time>
      </trkpt>
      <trkpt lat="47.49371" lon="-2.79626">
        <ele>75</ele>
        <time>2025-05-13T10:22:31Z</time>
      </trkpt>
      <trkpt lat="47.4937" lon="-2.79633">
        <ele>75</ele>
        <time>2025-05-13T10:22:32Z</time>
      </trkpt>
      <trkpt lat="47.4937" lon="-2.79641">
        <ele>75</ele>
        <time>2025-05-13T10:22:33Z</time>
      </trkpt>
      <trkpt lat="47.4937" lon="-2.79648">
        <ele>75</ele>
        <time>2025-05-13T10:22:34Z</time>
      </trkpt>
      <trkpt lat="47.4937" lon="-2.79656">
        <ele>75</ele>
        <time>2025-05-13T10:22:35Z</time>
      </trkpt>
      <trkpt lat="47.49369" lon="-2.79663">
        <ele>75</ele>
        <time>2025-05-13T10:22:36Z</time>
      </trkpt>
      <trkpt lat="47.49369" lon="-2.79671">
        <ele>75</ele>
        <time>2025-05-13T10:22:37Z</time>
      </trkpt>
      <trkpt lat="47.49369" lon="-2.79679">
        <ele>75</ele>
        <time>2025-05-13T10:22:38Z</time>
      </trkpt>
      <trkpt lat="47.49368" lon="-2.79688">
        <ele>75</ele>
        <time>2025-05-13T10:22:39Z</time>
      </trkpt>
      <trkpt lat="47.49368" lon="-2.79696">
        <ele>75</ele>
        <time>2025-05-13T10:22:40Z</time>
      </trkpt>
      <trkpt lat="47.49367" lon="-2.79704">
        <ele>75</ele>
        <time>2025-05-13T10:22:41Z</time>
      </trkpt>
      <trkpt lat="47.49366" lon="-2.79713">
        <ele>75</ele>
        <time>2025-05-13T10:22:42Z</time>
      </trkpt>
      <trkpt lat="47.49366" lon="-2.79721">
        <ele>75</ele>
        <time>2025-05-13T10:22:43Z</time>
      </trkpt>
      <trkpt lat="47.49366" lon="-2.79729">
        <ele>75</ele>
        <time>2025-05-13T10:22:44Z</time>
      </trkpt>
      <trkpt lat="47.49366" lon="-2.79738">
        <ele>75</ele>
        <time>2025-05-13T10:22:45Z</time>
      </trkpt>
      <trkpt lat="47.49366" lon="-2.79747">
        <ele>75</ele>
        <time>2025-05-13T10:22:46Z</time>
      </trkpt>
      <trkpt lat="47.49365" lon="-2.79756">
        <ele>75</ele>
        <time>2025-05-13T10:22:47Z</time>
      </trkpt>
      <trkpt lat="47.49365" lon="-2.79765">
        <ele>75</ele>
        <time>2025-05-13T10:22:48Z</time>
      </trkpt>
      <trkpt lat="47.49365" lon="-2.79773">
        <ele>75</ele>
        <time>2025-05-13T10:22:49Z</time>
      </trkpt>
      <trkpt lat="47.49364" lon="-2.79782">
        <ele>75</ele>
        <time>2025-05-13T10:22:50Z</time>
      </trkpt>
      <trkpt lat="47.49364" lon="-2.7979">
        <ele>75</ele>
        <time>2025-05-13T10:22:51Z</time>
      </trkpt>
      <trkpt lat="47.49364" lon="-2.79798">
        <ele>75</ele>
        <time>2025-05-13T10:22:52Z</time>
      </trkpt>
      <trkpt lat="47.49363" lon="-2.79806">
        <ele>75</ele>
        <time>2025-05-13T10:22:53Z</time>
      </trkpt>
      <trkpt lat="47.49363" lon="-2.79813">
        <ele>75</ele>
        <time>2025-05-13T10:22:54Z</time>
      </trkpt>
      <trkpt lat="47.49361" lon="-2.79821">
        <ele>75</ele>
        <time>2025-05-13T10:22:55Z</time>
      </trkpt>
      <trkpt lat="47.4936" lon="-2.79828">
        <ele>75</ele>
        <time>2025-05-13T10:22:56Z</time>
      </trkpt>
      <trkpt lat="47.49359" lon="-2.79836">
        <ele>75</ele>
        <time>2025-05-13T10:22:57Z</time>
      </trkpt>
      <trkpt lat="47.49358" lon="-2.79843">
        <ele>75</ele>
        <time>2025-05-13T10:22:58Z</time>
      </trkpt>
      <trkpt lat="47.49357" lon="-2.79851">
        <ele>75</ele>
        <time>2025-05-13T10:22:59Z</time>
      </trkpt>
      <trkpt lat="47.49355" lon="-2.79858">
        <ele>75</ele>
        <time>2025-05-13T10:23:00Z</time>
      </trkpt>
      <trkpt lat="47.49352" lon="-2.79866">
        <ele>74</ele>
        <time>2025-05-13T10:23:01Z</time>
      </trkpt>
      <trkpt lat="47.4935" lon="-2.79873">
        <ele>73</ele>
        <time>2025-05-13T10:23:02Z</time>
      </trkpt>
      <trkpt lat="47.49346" lon="-2.79882">
        <ele>73</ele>
        <time>2025-05-13T10:23:03Z</time>
      </trkpt>
      <trkpt lat="47.49343" lon="-2.7989">
        <ele>72</ele>
        <time>2025-05-13T10:23:04Z</time>
      </trkpt>
      <trkpt lat="47.49339" lon="-2.79899">
        <ele>72</ele>
        <time>2025-05-13T10:23:05Z</time>
      </trkpt>
      <trkpt lat="47.49335" lon="-2.79908">
        <ele>72</ele>
        <time>2025-05-13T10:23:06Z</time>
      </trkpt>
      <trkpt lat="47.49331" lon="-2.79917">
        <ele>71</ele>
        <time>2025-05-13T10:23:07Z</time>
      </trkpt>
      <trkpt lat="47.49326" lon="-2.79926">
        <ele>71</ele>
        <time>2025-05-13T10:23:08Z</time>
      </trkpt>
      <trkpt lat="47.49323" lon="-2.79936">
        <ele>70</ele>
        <time>2025-05-13T10:23:09Z</time>
      </trkpt>
      <trkpt lat="47.49319" lon="-2.79945">
        <ele>70</ele>
        <time>2025-05-13T10:23:10Z</time>
      </trkpt>
      <trkpt lat="47.49315" lon="-2.79955">
        <ele>70</ele>
        <time>2025-05-13T10:23:11Z</time>
      </trkpt>
      <trkpt lat="47.4931" lon="-2.79965">
        <ele>69</ele>
        <time>2025-05-13T10:23:12Z</time>
      </trkpt>
      <trkpt lat="47.49306" lon="-2.79974">
        <ele>68</ele>
        <time>2025-05-13T10:23:13Z</time>
      </trkpt>
      <trkpt lat="47.49301" lon="-2.79984">
        <ele>67</ele>
        <time>2025-05-13T10:23:14Z</time>
      </trkpt>
      <trkpt lat="47.49297" lon="-2.79994">
        <ele>67</ele>
        <time>2025-05-13T10:23:15Z</time>
      </trkpt>
      <trkpt lat="47.49293" lon="-2.80003">
        <ele>66</ele>
        <time>2025-05-13T10:23:16Z</time>
      </trkpt>
      <trkpt lat="47.49289" lon="-2.80012">
        <ele>67</ele>
        <time>2025-05-13T10:23:17Z</time>
      </trkpt>
      <trkpt lat="47.49284" lon="-2.80021">
        <ele>67</ele>
        <time>2025-05-13T10:23:18Z</time>
      </trkpt>
      <trkpt lat="47.49281" lon="-2.80031">
        <ele>68</ele>
        <time>2025-05-13T10:23:19Z</time>
      </trkpt>
      <trkpt lat="47.49277" lon="-2.80039">
        <ele>68</ele>
        <time>2025-05-13T10:23:20Z</time>
      </trkpt>
      <trkpt lat="47.49274" lon="-2.80048">
        <ele>68</ele>
        <time>2025-05-13T10:23:21Z</time>
      </trkpt>
      <trkpt lat="47.4927" lon="-2.80057">
        <ele>68</ele>
        <time>2025-05-13T10:23:22Z</time>
      </trkpt>
      <trkpt lat="47.49266" lon="-2.80067">
        <ele>68</ele>
        <time>2025-05-13T10:23:23Z</time>
      </trkpt>
      <trkpt lat="47.49261" lon="-2.80076">
        <ele>67</ele>
        <time>2025-05-13T10:23:24Z</time>
      </trkpt>
      <trkpt lat="47.49257" lon="-2.80086">
        <ele>66</ele>
        <time>2025-05-13T10:23:25Z</time>
      </trkpt>
      <trkpt lat="47.49253" lon="-2.80096">
        <ele>66</ele>
        <time>2025-05-13T10:23:26Z</time>
      </trkpt>
      <trkpt lat="47.49249" lon="-2.80105">
        <ele>65</ele>
        <time>2025-05-13T10:23:27Z</time>
      </trkpt>
      <trkpt lat="47.49245" lon="-2.80115">
        <ele>65</ele>
        <time>2025-05-13T10:23:28Z</time>
      </trkpt>
      <trkpt lat="47.49241" lon="-2.80124">
        <ele>64</ele>
        <time>2025-05-13T10:23:29Z</time>
      </trkpt>
      <trkpt lat="47.49237" lon="-2.80133">
        <ele>64</ele>
        <time>2025-05-13T10:23:30Z</time>
      </trkpt>
      <trkpt lat="47.49233" lon="-2.80142">
        <ele>64</ele>
        <time>2025-05-13T10:23:31Z</time>
      </trkpt>
      <trkpt lat="47.49229" lon="-2.80151">
        <ele>64</ele>
        <time>2025-05-13T10:23:32Z</time>
      </trkpt>
      <trkpt lat="47.49224" lon="-2.80161">
        <ele>64</ele>
        <time>2025-05-13T10:23:33Z</time>
      </trkpt>
      <trkpt lat="47.4922" lon="-2.8017">
        <ele>64</ele>
        <time>2025-05-13T10:23:34Z</time>
      </trkpt>
      <trkpt lat="47.49216" lon="-2.8018">
        <ele>63</ele>
        <time>2025-05-13T10:23:35Z</time>
      </trkpt>
      <trkpt lat="47.49211" lon="-2.8019">
        <ele>62</ele>
        <time>2025-05-13T10:23:36Z</time>
      </trkpt>
      <trkpt lat="47.49207" lon="-2.802">
        <ele>62</ele>
        <time>2025-05-13T10:23:37Z</time>
      </trkpt>
      <trkpt lat="47.49203" lon="-2.80211">
        <ele>61</ele>
        <time>2025-05-13T10:23:38Z</time>
      </trkpt>
      <trkpt lat="47.49199" lon="-2.80221">
        <ele>60</ele>
        <time>2025-05-13T10:23:39Z</time>
      </trkpt>
      <trkpt lat="47.49194" lon="-2.80231">
        <ele>59</ele>
        <time>2025-05-13T10:23:40Z</time>
      </trkpt>
      <trkpt lat="47.4919" lon="-2.80242">
        <ele>59</ele>
        <time>2025-05-13T10:23:41Z</time>
      </trkpt>
      <trkpt lat="47.49186" lon="-2.80251">
        <ele>59</ele>
        <time>2025-05-13T10:23:42Z</time>
      </trkpt>
      <trkpt lat="47.49183" lon="-2.80261">
        <ele>58</ele>
        <time>2025-05-13T10:23:43Z</time>
      </trkpt>
      <trkpt lat="47.49179" lon="-2.80271">
        <ele>58</ele>
        <time>2025-05-13T10:23:44Z</time>
      </trkpt>
      <trkpt lat="47.49175" lon="-2.8028">
        <ele>58</ele>
        <time>2025-05-13T10:23:45Z</time>
      </trkpt>
      <trkpt lat="47.49171" lon="-2.80288">
        <ele>57</ele>
        <time>2025-05-13T10:23:46Z</time>
      </trkpt>
      <trkpt lat="47.49167" lon="-2.80295">
        <ele>57</ele>
        <time>2025-05-13T10:23:47Z</time>
      </trkpt>
      <trkpt lat="47.49163" lon="-2.80303">
        <ele>58</ele>
        <time>2025-05-13T10:23:48Z</time>
      </trkpt>
      <trkpt lat="47.49159" lon="-2.8031">
        <ele>58</ele>
        <time>2025-05-13T10:23:49Z</time>
      </trkpt>
      <trkpt lat="47.49155" lon="-2.80318">
        <ele>58</ele>
        <time>2025-05-13T10:23:50Z</time>
      </trkpt>
      <trkpt lat="47.49152" lon="-2.80325">
        <ele>58</ele>
        <time>2025-05-13T10:23:51Z</time>
      </trkpt>
      <trkpt lat="47.4915" lon="-2.80332">
        <ele>58</ele>
        <time>2025-05-13T10:23:52Z</time>
      </trkpt>
      <trkpt lat="47.49147" lon="-2.80339">
        <ele>57</ele>
        <time>2025-05-13T10:23:53Z</time>
      </trkpt>
      <trkpt lat="47.49145" lon="-2.80346">
        <ele>57</ele>
        <time>2025-05-13T10:23:54Z</time>
      </trkpt>
      <trkpt lat="47.49142" lon="-2.80352">
        <ele>58</ele>
        <time>2025-05-13T10:23:55Z</time>
      </trkpt>
      <trkpt lat="47.4914" lon="-2.80357">
        <ele>57</ele>
        <time>2025-05-13T10:23:56Z</time>
      </trkpt>
      <trkpt lat="47.49138" lon="-2.80363">
        <ele>57</ele>
        <time>2025-05-13T10:23:57Z</time>
      </trkpt>
      <trkpt lat="47.49136" lon="-2.80368">
        <ele>57</ele>
        <time>2025-05-13T10:23:58Z</time>
      </trkpt>
      <trkpt lat="47.49133" lon="-2.80373">
        <ele>57</ele>
        <time>2025-05-13T10:23:59Z</time>
      </trkpt>
      <trkpt lat="47.4913" lon="-2.80378">
        <ele>57</ele>
        <time>2025-05-13T10:24:00Z</time>
      </trkpt>
      <trkpt lat="47.49128" lon="-2.80384">
        <ele>57</ele>
        <time>2025-05-13T10:24:01Z</time>
      </trkpt>
      <trkpt lat="47.49126" lon="-2.8039">
        <ele>56</ele>
        <time>2025-05-13T10:24:02Z</time>
      </trkpt>
      <trkpt lat="47.49124" lon="-2.80396">
        <ele>56</ele>
        <time>2025-05-13T10:24:03Z</time>
      </trkpt>
      <trkpt lat="47.49123" lon="-2.80404">
        <ele>56</ele>
        <time>2025-05-13T10:24:04Z</time>
      </trkpt>
      <trkpt lat="47.49123" lon="-2.80411">
        <ele>56</ele>
        <time>2025-05-13T10:24:05Z</time>
      </trkpt>
      <trkpt lat="47.49122" lon="-2.8042">
        <ele>55</ele>
        <time>2025-05-13T10:24:06Z</time>
      </trkpt>
      <trkpt lat="47.49122" lon="-2.80428">
        <ele>55</ele>
        <time>2025-05-13T10:24:07Z</time>
      </trkpt>
      <trkpt lat="47.49122" lon="-2.80437">
        <ele>55</ele>
        <time>2025-05-13T10:24:08Z</time>
      </trkpt>
      <trkpt lat="47.49121" lon="-2.80446">
        <ele>55</ele>
        <time>2025-05-13T10:24:09Z</time>
      </trkpt>
      <trkpt lat="47.49121" lon="-2.80454">
        <ele>56</ele>
        <time>2025-05-13T10:24:10Z</time>
      </trkpt>
      <trkpt lat="47.49122" lon="-2.80461">
        <ele>57</ele>
        <time>2025-05-13T10:24:11Z</time>
      </trkpt>
      <trkpt lat="47.49123" lon="-2.80468">
        <ele>58</ele>
        <time>2025-05-13T10:24:12Z</time>
      </trkpt>
      <trkpt lat="47.49124" lon="-2.80475">
        <ele>59</ele>
        <time>2025-05-13T10:24:13Z</time>
      </trkpt>
      <trkpt lat="47.49125" lon="-2.80481">
        <ele>59</ele>
        <time>2025-05-13T10:24:14Z</time>
      </trkpt>
      <trkpt lat="47.49126" lon="-2.80487">
        <ele>59</ele>
        <time>2025-05-13T10:24:15Z</time>
      </trkpt>
      <trkpt lat="47.49127" lon="-2.80493">
        <ele>58</ele>
        <time>2025-05-13T10:24:16Z</time>
      </trkpt>
      <trkpt lat="47.49129" lon="-2.80499">
        <ele>58</ele>
        <time>2025-05-13T10:24:17Z</time>
      </trkpt>
      <trkpt lat="47.4913" lon="-2.80505">
        <ele>58</ele>
        <time>2025-05-13T10:24:18Z</time>
      </trkpt>
      <trkpt lat="47.49131" lon="-2.80511">
        <ele>58</ele>
        <time>2025-05-13T10:24:19Z</time>
      </trkpt>
      <trkpt lat="47.49133" lon="-2.80517">
        <ele>57</ele>
        <time>2025-05-13T10:24:20Z</time>
      </trkpt>
      <trkpt lat="47.49133" lon="-2.80522">
        <ele>57</ele>
        <time>2025-05-13T10:24:21Z</time>
      </trkpt>
      <trkpt lat="47.49134" lon="-2.80527">
        <ele>58</ele>
        <time>2025-05-13T10:24:22Z</time>
      </trkpt>
      <trkpt lat="47.49134" lon="-2.80532">
        <ele>58</ele>
        <time>2025-05-13T10:24:23Z</time>
      </trkpt>
      <trkpt lat="47.49134" lon="-2.80535">
        <ele>58</ele>
        <time>2025-05-13T10:24:24Z</time>
      </trkpt>
      <trkpt lat="47.49134" lon="-2.80538">
        <ele>58</ele>
        <time>2025-05-13T10:24:25Z</time>
      </trkpt>
      <trkpt lat="47.49134" lon="-2.8054">
        <ele>59</ele>
        <time>2025-05-13T10:24:26Z</time>
      </trkpt>
      <trkpt lat="47.49134" lon="-2.8054">
        <ele>59</ele>
        <time>2025-05-13T10:24:27Z</time>
      </trkpt>
      <trkpt lat="47.49135" lon="-2.8054">
        <ele>59</ele>
        <time>2025-05-13T10:24:28Z</time>
      </trkpt>
      <trkpt lat="47.49135" lon="-2.8054">
        <ele>59</ele>
        <time>2025-05-13T10:24:29Z</time>
      </trkpt>
      <trkpt lat="47.49135" lon="-2.8054">
        <ele>59</ele>
        <time>2025-05-13T10:24:30Z</time>
      </trkpt>
      <trkpt lat="47.49135" lon="-2.8054">
        <ele>59</ele>
        <time>2025-05-13T10:24:31Z</time>
      </trkpt>
      <trkpt lat="47.49135" lon="-2.8054">
        <ele>59</ele>
        <time>2025-05-13T10:24:32Z</time>
      </trkpt>
      <trkpt lat="47.49135" lon="-2.8054">
        <ele>59</ele>
        <time>2025-05-13T10:24:33Z</time>
      </trkpt>
      <trkpt lat="47.49135" lon="-2.8054">
        <ele>59</ele>
        <time>2025-05-13T10:24:34Z</time>
      </trkpt>
      <trkpt lat="47.49135" lon="-2.8054">
        <ele>59</ele>
        <time>2025-05-13T10:24:35Z</time>
      </trkpt>
      <trkpt lat="47.49135" lon="-2.8054">
        <ele>59</ele>
        <time>2025-05-13T10:24:36Z</time>
      </trkpt>
      <trkpt lat="47.49135" lon="-2.8054">
        <ele>59</ele>
        <time>2025-05-13T10:24:37Z</time>
      </trkpt>
      <trkpt lat="47.49135" lon="-2.8054">
        <ele>59</ele>
        <time>2025-05-13T10:24:38Z</time>
      </trkpt>
      <trkpt lat="47.49135" lon="-2.8054">
        <ele>59</ele>
        <time>2025-05-13T10:24:39Z</time>
      </trkpt>
      <trkpt lat="47.49135" lon="-2.8054">
        <ele>59</ele>
        <time>2025-05-13T10:24:40Z</time>
      </trkpt>
      <trkpt lat="47.49135" lon="-2.8054">
        <ele>59</ele>
        <time>2025-05-13T10:24:41Z</time>
      </trkpt>
      <trkpt lat="47.49135" lon="-2.8054">
        <ele>59</ele>
        <time>2025-05-13T10:24:42Z</time>
      </trkpt>
      <trkpt lat="47.49135" lon="-2.8054">
        <ele>59</ele>
        <time>2025-05-13T10:24:43Z</time>
      </trkpt>
      <trkpt lat="47.49135" lon="-2.8054">
        <ele>59</ele>
        <time>2025-05-13T10:24:44Z</time>
      </trkpt>
      <trkpt lat="47.49135" lon="-2.8054">
        <ele>59</ele>
        <time>2025-05-13T10:24:45Z</time>
      </trkpt>
      <trkpt lat="47.49135" lon="-2.8054">
        <ele>59</ele>
        <time>2025-05-13T10:24:46Z</time>
      </trkpt>
      <trkpt lat="47.49135" lon="-2.8054">
        <ele>59</ele>
        <time>2025-05-13T10:24:47Z</time>
      </trkpt>
      <trkpt lat="47.49135" lon="-2.8054">
        <ele>59</ele>
        <time>2025-05-13T10:24:48Z</time>
      </trkpt>
      <trkpt lat="47.49135" lon="-2.8054">
        <ele>59</ele>
        <time>2025-05-13T10:24:49Z</time>
      </trkpt>
      <trkpt lat="47.49135" lon="-2.8054">
        <ele>59</ele>
        <time>2025-05-13T10:24:50Z</time>
      </trkpt>
      <trkpt lat="47.49135" lon="-2.8054">
        <ele>59</ele>
        <time>2025-05-13T10:24:51Z</time>
      </trkpt>
      <trkpt lat="47.49135" lon="-2.8054">
        <ele>59</ele>
        <time>2025-05-13T10:24:52Z</time>
      </trkpt>
      <trkpt lat="47.49135" lon="-2.8054">
        <ele>59</ele>
        <time>2025-05-13T10:24:53Z</time>
      </trkpt>
      <trkpt lat="47.49135" lon="-2.8054">
        <ele>59</ele>
        <time>2025-05-13T10:24:54Z</time>
      </trkpt>
      <trkpt lat="47.49135" lon="-2.8054">
        <ele>59</ele>
        <time>2025-05-13T10:24:55Z</time>
      </trkpt>
      <trkpt lat="47.49135" lon="-2.8054">
        <ele>59</ele>
        <time>2025-05-13T10:24:56Z</time>
      </trkpt>
      <trkpt lat="47.49135" lon="-2.8054">
        <ele>59</ele>
        <time>2025-05-13T10:24:57Z</time>
      </trkpt>
      <trkpt lat="47.49135" lon="-2.8054">
        <ele>59</ele>
        <time>2025-05-13T10:24:58Z</time>
      </trkpt>
      <trkpt lat="47.49135" lon="-2.8054">
        <ele>59</ele>
        <time>2025-05-13T10:24:59Z</time>
      </trkpt>
      <trkpt lat="47.49135" lon="-2.8054">
        <ele>59</ele>
        <time>2025-05-13T10:25:00Z</time>
      </trkpt>
      <trkpt lat="47.49135" lon="-2.8054">
        <ele>59</ele>
        <time>2025-05-13T10:25:01Z</time>
      </trkpt>
      <trkpt lat="47.49135" lon="-2.8054">
        <ele>59</ele>
        <time>2025-05-13T10:25:02Z</time>
      </trkpt>
      <trkpt lat="47.49135" lon="-2.8054">
        <ele>59</ele>
        <time>2025-05-13T10:25:03Z</time>
      </trkpt>
      <trkpt lat="47.49135" lon="-2.8054">
        <ele>59</ele>
        <time>2025-05-13T10:25:04Z</time>
      </trkpt>
      <trkpt lat="47.49135" lon="-2.8054">
        <ele>59</ele>
        <time>2025-05-13T10:25:05Z</time>
      </trkpt>
      <trkpt lat="47.49135" lon="-2.8054">
        <ele>59</ele>
        <time>2025-05-13T10:25:06Z</time>
      </trkpt>
      <trkpt lat="47.49135" lon="-2.8054">
        <ele>59</ele>
        <time>2025-05-13T10:25:07Z</time>
      </trkpt>
      <trkpt lat="47.49135" lon="-2.8054">
        <ele>59</ele>
        <time>2025-05-13T10:25:08Z</time>
      </trkpt>
      <trkpt lat="47.49135" lon="-2.8054">
        <ele>59</ele>
        <time>2025-05-13T10:25:09Z</time>
      </trkpt>
      <trkpt lat="47.49135" lon="-2.8054">
        <ele>59</ele>
        <time>2025-05-13T10:25:10Z</time>
      </trkpt>
      <trkpt lat="47.49135" lon="-2.8054">
        <ele>59</ele>
        <time>2025-05-13T10:25:11Z</time>
      </trkpt>
      <trkpt lat="47.49135" lon="-2.8054">
        <ele>59</ele>
        <time>2025-05-13T10:25:12Z</time>
      </trkpt>
      <trkpt lat="47.49135" lon="-2.8054">
        <ele>59</ele>
        <time>2025-05-13T10:25:13Z</time>
      </trkpt>
      <trkpt lat="47.49135" lon="-2.8054">
        <ele>59</ele>
        <time>2025-05-13T10:25:14Z</time>
      </trkpt>
      <trkpt lat="47.49135" lon="-2.8054">
        <ele>59</ele>
        <time>2025-05-13T10:25:15Z</time>
      </trkpt>
      <trkpt lat="47.49135" lon="-2.8054">
        <ele>59</ele>
        <time>2025-05-13T10:25:16Z</time>
      </trkpt>
      <trkpt lat="47.49135" lon="-2.8054">
        <ele>59</ele>
        <time>2025-05-13T10:25:17Z</time>
      </trkpt>
      <trkpt lat="47.49135" lon="-2.8054">
        <ele>59</ele>
        <time>2025-05-13T10:25:18Z</time>
      </trkpt>
      <trkpt lat="47.49135" lon="-2.8054">
        <ele>59</ele>
        <time>2025-05-13T10:25:19Z</time>
      </trkpt>
      <trkpt lat="47.49135" lon="-2.8054">
        <ele>59</ele>
        <time>2025-05-13T10:25:20Z</time>
      </trkpt>
      <trkpt lat="47.49135" lon="-2.8054">
        <ele>59</ele>
        <time>2025-05-13T10:25:21Z</time>
      </trkpt>
      <trkpt lat="47.49135" lon="-2.8054">
        <ele>59</ele>
        <time>2025-05-13T10:25:22Z</time>
      </trkpt>
      <trkpt lat="47.49135" lon="-2.8054">
        <ele>59</ele>
        <time>2025-05-13T10:25:23Z</time>
      </trkpt>
      <trkpt lat="47.49135" lon="-2.8054">
        <ele>59</ele>
        <time>2025-05-13T10:25:24Z</time>
      </trkpt>
      <trkpt lat="47.49135" lon="-2.8054">
        <ele>59</ele>
        <time>2025-05-13T10:25:25Z</time>
      </trkpt>
      <trkpt lat="47.49135" lon="-2.8054">
        <ele>59</ele>
        <time>2025-05-13T10:25:26Z</time>
      </trkpt>
      <trkpt lat="47.49135" lon="-2.8054">
        <ele>59</ele>
        <time>2025-05-13T10:25:27Z</time>
      </trkpt>
      <trkpt lat="47.49135" lon="-2.8054">
        <ele>59</ele>
        <time>2025-05-13T10:25:28Z</time>
      </trkpt>
      <trkpt lat="47.49135" lon="-2.8054">
        <ele>59</ele>
        <time>2025-05-13T10:25:29Z</time>
      </trkpt>
      <trkpt lat="47.49135" lon="-2.8054">
        <ele>59</ele>
        <time>2025-05-13T10:25:30Z</time>
      </trkpt>
      <trkpt lat="47.49135" lon="-2.8054">
        <ele>59</ele>
        <time>2025-05-13T10:25:31Z</time>
      </trkpt>
      <trkpt lat="47.49135" lon="-2.8054">
        <ele>59</ele>
        <time>2025-05-13T10:25:32Z</time>
      </trkpt>
      <trkpt lat="47.49135" lon="-2.8054">
        <ele>59</ele>
        <time>2025-05-13T10:25:33Z</time>
      </trkpt>
      <trkpt lat="47.49135" lon="-2.8054">
        <ele>59</ele>
        <time>2025-05-13T10:25:34Z</time>
      </trkpt>
      <trkpt lat="47.49135" lon="-2.8054">
        <ele>59</ele>
        <time>2025-05-13T10:25:35Z</time>
      </trkpt>
      <trkpt lat="47.49135" lon="-2.8054">
        <ele>59</ele>
        <time>2025-05-13T10:25:36Z</time>
      </trkpt>
      <trkpt lat="47.49135" lon="-2.8054">
        <ele>59</ele>
        <time>2025-05-13T10:25:37Z</time>
      </trkpt>
      <trkpt lat="47.49135" lon="-2.8054">
        <ele>59</ele>
        <time>2025-05-13T10:25:38Z</time>
      </trkpt>
      <trkpt lat="47.49135" lon="-2.8054">
        <ele>59</ele>
        <time>2025-05-13T10:25:39Z</time>
      </trkpt>
      <trkpt lat="47.49135" lon="-2.8054">
        <ele>59</ele>
        <time>2025-05-13T10:25:40Z</time>
      </trkpt>
      <trkpt lat="47.49135" lon="-2.8054">
        <ele>59</ele>
        <time>2025-05-13T10:25:41Z</time>
      </trkpt>
      <trkpt lat="47.49135" lon="-2.8054">
        <ele>59</ele>
        <time>2025-05-13T10:25:42Z</time>
      </trkpt>
      <trkpt lat="47.49135" lon="-2.8054">
        <ele>59</ele>
        <time>2025-05-13T10:25:43Z</time>
      </trkpt>
      <trkpt lat="47.49135" lon="-2.8054">
        <ele>59</ele>
        <time>2025-05-13T10:25:44Z</time>
      </trkpt>
      <trkpt lat="47.49135" lon="-2.8054">
        <ele>59</ele>
        <time>2025-05-13T10:27:32Z</time>
      </trkpt>
      <trkpt lat="47.49135" lon="-2.8054">
        <ele>59</ele>
        <time>2025-05-13T10:27:33Z</time>
      </trkpt>
      <trkpt lat="47.49135" lon="-2.8054">
        <ele>59</ele>
        <time>2025-05-13T10:27:34Z</time>
      </trkpt>
      <trkpt lat="47.49135" lon="-2.8054">
        <ele>59</ele>
        <time>2025-05-13T10:27:35Z</time>
      </trkpt>
      <trkpt lat="47.49135" lon="-2.8054">
        <ele>59</ele>
        <time>2025-05-13T10:27:36Z</time>
      </trkpt>
      <trkpt lat="47.49135" lon="-2.8054">
        <ele>59</ele>
        <time>2025-05-13T10:27:37Z</time>
      </trkpt>
      <trkpt lat="47.49135" lon="-2.8054">
        <ele>59</ele>
        <time>2025-05-13T10:27:38Z</time>
      </trkpt>
      <trkpt lat="47.49135" lon="-2.8054">
        <ele>59</ele>
        <time>2025-05-13T10:27:39Z</time>
      </trkpt>
      <trkpt lat="47.49135" lon="-2.8054">
        <ele>59</ele>
        <time>2025-05-13T10:27:40Z</time>
      </trkpt>
      <trkpt lat="47.49135" lon="-2.8054">
        <ele>59</ele>
        <time>2025-05-13T10:27:41Z</time>
      </trkpt>
      <trkpt lat="47.49135" lon="-2.8054">
        <ele>59</ele>
        <time>2025-05-13T10:27:42Z</time>
      </trkpt>
      <trkpt lat="47.49135" lon="-2.8054">
        <ele>59</ele>
        <time>2025-05-13T10:27:43Z</time>
      </trkpt>
      <trkpt lat="47.49135" lon="-2.80551">
        <ele>62</ele>
        <time>2025-05-13T10:27:44Z</time>
      </trkpt>
      <trkpt lat="47.49135" lon="-2.80555">
        <ele>62</ele>
        <time>2025-05-13T10:27:45Z</time>
      </trkpt>
      <trkpt lat="47.49135" lon="-2.80558">
        <ele>62</ele>
        <time>2025-05-13T10:27:46Z</time>
      </trkpt>
      <trkpt lat="47.49136" lon="-2.80561">
        <ele>63</ele>
        <time>2025-05-13T10:27:47Z</time>
      </trkpt>
      <trkpt lat="47.49136" lon="-2.80564">
        <ele>63</ele>
        <time>2025-05-13T10:27:48Z</time>
      </trkpt>
      <trkpt lat="47.49137" lon="-2.80567">
        <ele>63</ele>
        <time>2025-05-13T10:27:49Z</time>
      </trkpt>
      <trkpt lat="47.49137" lon="-2.8057">
        <ele>63</ele>
        <time>2025-05-13T10:27:50Z</time>
      </trkpt>
      <trkpt lat="47.49137" lon="-2.80574">
        <ele>64</ele>
        <time>2025-05-13T10:27:51Z</time>
      </trkpt>
      <trkpt lat="47.49138" lon="-2.80578">
        <ele>64</ele>
        <time>2025-05-13T10:27:52Z</time>
      </trkpt>
      <trkpt lat="47.49138" lon="-2.80581">
        <ele>64</ele>
        <time>2025-05-13T10:27:53Z</time>
      </trkpt>
      <trkpt lat="47.49139" lon="-2.80584">
        <ele>65</ele>
        <time>2025-05-13T10:27:54Z</time>
      </trkpt>
      <trkpt lat="47.4914" lon="-2.80589">
        <ele>64</ele>
        <time>2025-05-13T10:27:55Z</time>
      </trkpt>
      <trkpt lat="47.49141" lon="-2.80593">
        <ele>64</ele>
        <time>2025-05-13T10:27:56Z</time>
      </trkpt>
      <trkpt lat="47.49142" lon="-2.80597">
        <ele>64</ele>
        <time>2025-05-13T10:27:57Z</time>
      </trkpt>
      <trkpt lat="47.49143" lon="-2.80601">
        <ele>64</ele>
        <time>2025-05-13T10:27:58Z</time>
      </trkpt>
      <trkpt lat="47.49144" lon="-2.80605">
        <ele>63</ele>
        <time>2025-05-13T10:27:59Z</time>
      </trkpt>
      <trkpt lat="47.49144" lon="-2.80609">
        <ele>63</ele>
        <time>2025-05-13T10:28:00Z</time>
      </trkpt>
      <trkpt lat="47.49145" lon="-2.80613">
        <ele>63</ele>
        <time>2025-05-13T10:28:01Z</time>
      </trkpt>
      <trkpt lat="47.49145" lon="-2.80618">
        <ele>63</ele>
        <time>2025-05-13T10:28:02Z</time>
      </trkpt>
      <trkpt lat="47.49146" lon="-2.80622">
        <ele>63</ele>
        <time>2025-05-13T10:28:03Z</time>
      </trkpt>
      <trkpt lat="47.49146" lon="-2.80627">
        <ele>63</ele>
        <time>2025-05-13T10:28:04Z</time>
      </trkpt>
      <trkpt lat="47.49148" lon="-2.80631">
        <ele>62</ele>
        <time>2025-05-13T10:28:05Z</time>
      </trkpt>
      <trkpt lat="47.49149" lon="-2.80634">
        <ele>62</ele>
        <time>2025-05-13T10:28:06Z</time>
      </trkpt>
      <trkpt lat="47.4915" lon="-2.80638">
        <ele>62</ele>
        <time>2025-05-13T10:28:07Z</time>
      </trkpt>
      <trkpt lat="47.4915" lon="-2.80642">
        <ele>62</ele>
        <time>2025-05-13T10:28:08Z</time>
      </trkpt>
      <trkpt lat="47.49151" lon="-2.80646">
        <ele>62</ele>
        <time>2025-05-13T10:28:09Z</time>
      </trkpt>
      <trkpt lat="47.49152" lon="-2.8065">
        <ele>62</ele>
        <time>2025-05-13T10:28:10Z</time>
      </trkpt>
      <trkpt lat="47.49152" lon="-2.80654">
        <ele>63</ele>
        <time>2025-05-13T10:28:11Z</time>
      </trkpt>
      <trkpt lat="47.49153" lon="-2.80658">
        <ele>63</ele>
        <time>2025-05-13T10:28:12Z</time>
      </trkpt>
      <trkpt lat="47.49154" lon="-2.80661">
        <ele>64</ele>
        <time>2025-05-13T10:28:13Z</time>
      </trkpt>
      <trkpt lat="47.49154" lon="-2.80664">
        <ele>64</ele>
        <time>2025-05-13T10:28:14Z</time>
      </trkpt>
      <trkpt lat="47.49155" lon="-2.80668">
        <ele>65</ele>
        <time>2025-05-13T10:28:15Z</time>
      </trkpt>
      <trkpt lat="47.49155" lon="-2.80673">
        <ele>65</ele>
        <time>2025-05-13T10:28:16Z</time>
      </trkpt>
      <trkpt lat="47.49156" lon="-2.80677">
        <ele>65</ele>
        <time>2025-05-13T10:28:17Z</time>
      </trkpt>
      <trkpt lat="47.49157" lon="-2.8068">
        <ele>65</ele>
        <time>2025-05-13T10:28:18Z</time>
      </trkpt>
      <trkpt lat="47.49158" lon="-2.80684">
        <ele>65</ele>
        <time>2025-05-13T10:28:19Z</time>
      </trkpt>
      <trkpt lat="47.49159" lon="-2.80688">
        <ele>65</ele>
        <time>2025-05-13T10:28:20Z</time>
      </trkpt>
      <trkpt lat="47.4916" lon="-2.80692">
        <ele>65</ele>
        <time>2025-05-13T10:28:21Z</time>
      </trkpt>
      <trkpt lat="47.49161" lon="-2.80695">
        <ele>65</ele>
        <time>2025-05-13T10:28:22Z</time>
      </trkpt>
      <trkpt lat="47.49162" lon="-2.80699">
        <ele>65</ele>
        <time>2025-05-13T10:28:23Z</time>
      </trkpt>
      <trkpt lat="47.49163" lon="-2.80703">
        <ele>65</ele>
        <time>2025-05-13T10:28:24Z</time>
      </trkpt>
      <trkpt lat="47.49164" lon="-2.80707">
        <ele>65</ele>
        <time>2025-05-13T10:28:25Z</time>
      </trkpt>
      <trkpt lat="47.49166" lon="-2.80711">
        <ele>66</ele>
        <time>2025-05-13T10:28:26Z</time>
      </trkpt>
      <trkpt lat="47.49167" lon="-2.80715">
        <ele>66</ele>
        <time>2025-05-13T10:28:27Z</time>
      </trkpt>
      <trkpt lat="47.49168" lon="-2.80718">
        <ele>67</ele>
        <time>2025-05-13T10:28:28Z</time>
      </trkpt>
      <trkpt lat="47.4917" lon="-2.80721">
        <ele>67</ele>
        <time>2025-05-13T10:28:29Z</time>
      </trkpt>
      <trkpt lat="47.49171" lon="-2.80723">
        <ele>67</ele>
        <time>2025-05-13T10:28:30Z</time>
      </trkpt>
      <trkpt lat="47.49172" lon="-2.80725">
        <ele>67</ele>
        <time>2025-05-13T10:28:31Z</time>
      </trkpt>
      <trkpt lat="47.49173" lon="-2.80727">
        <ele>67</ele>
        <time>2025-05-13T10:28:32Z</time>
      </trkpt>
      <trkpt lat="47.49174" lon="-2.80729">
        <ele>67</ele>
        <time>2025-05-13T10:28:33Z</time>
      </trkpt>
      <trkpt lat="47.49175" lon="-2.80732">
        <ele>67</ele>
        <time>2025-05-13T10:28:34Z</time>
      </trkpt>
      <trkpt lat="47.49176" lon="-2.80734">
        <ele>68</ele>
        <time>2025-05-13T10:28:35Z</time>
      </trkpt>
      <trkpt lat="47.49177" lon="-2.80736">
        <ele>68</ele>
        <time>2025-05-13T10:28:36Z</time>
      </trkpt>
      <trkpt lat="47.49179" lon="-2.80738">
        <ele>68</ele>
        <time>2025-05-13T10:28:37Z</time>
      </trkpt>
      <trkpt lat="47.4918" lon="-2.8074">
        <ele>68</ele>
        <time>2025-05-13T10:28:38Z</time>
      </trkpt>
      <trkpt lat="47.49182" lon="-2.80742">
        <ele>68</ele>
        <time>2025-05-13T10:28:39Z</time>
      </trkpt>
      <trkpt lat="47.49183" lon="-2.80743">
        <ele>69</ele>
        <time>2025-05-13T10:28:40Z</time>
      </trkpt>
      <trkpt lat="47.49184" lon="-2.80746">
        <ele>69</ele>
        <time>2025-05-13T10:28:41Z</time>
      </trkpt>
      <trkpt lat="47.49186" lon="-2.80748">
        <ele>69</ele>
        <time>2025-05-13T10:28:42Z</time>
      </trkpt>
      <trkpt lat="47.49187" lon="-2.80749">
        <ele>69</ele>
        <time>2025-05-13T10:28:43Z</time>
      </trkpt>
      <trkpt lat="47.49189" lon="-2.80751">
        <ele>69</ele>
        <time>2025-05-13T10:28:44Z</time>
      </trkpt>
      <trkpt lat="47.4919" lon="-2.80753">
        <ele>69</ele>
        <time>2025-05-13T10:28:45Z</time>
      </trkpt>
      <trkpt lat="47.49192" lon="-2.80756">
        <ele>69</ele>
        <time>2025-05-13T10:28:46Z</time>
      </trkpt>
      <trkpt lat="47.49193" lon="-2.80759">
        <ele>69</ele>
        <time>2025-05-13T10:28:47Z</time>
      </trkpt>
      <trkpt lat="47.49194" lon="-2.8076">
        <ele>69</ele>
        <time>2025-05-13T10:28:48Z</time>
      </trkpt>
      <trkpt lat="47.49195" lon="-2.80762">
        <ele>69</ele>
        <time>2025-05-13T10:28:49Z</time>
      </trkpt>
      <trkpt lat="47.49196" lon="-2.80764">
        <ele>69</ele>
        <time>2025-05-13T10:28:50Z</time>
      </trkpt>
      <trkpt lat="47.49198" lon="-2.80765">
        <ele>69</ele>
        <time>2025-05-13T10:28:51Z</time>
      </trkpt>
      <trkpt lat="47.49199" lon="-2.80767">
        <ele>69</ele>
        <time>2025-05-13T10:28:52Z</time>
      </trkpt>
      <trkpt lat="47.49201" lon="-2.80769">
        <ele>69</ele>
        <time>2025-05-13T10:28:53Z</time>
      </trkpt>
      <trkpt lat="47.49202" lon="-2.80771">
        <ele>69</ele>
        <time>2025-05-13T10:28:54Z</time>
      </trkpt>
      <trkpt lat="47.49203" lon="-2.80773">
        <ele>69</ele>
        <time>2025-05-13T10:28:55Z</time>
      </trkpt>
      <trkpt lat="47.49205" lon="-2.80776">
        <ele>70</ele>
        <time>2025-05-13T10:28:56Z</time>
      </trkpt>
      <trkpt lat="47.49206" lon="-2.80777">
        <ele>70</ele>
        <time>2025-05-13T10:28:57Z</time>
      </trkpt>
      <trkpt lat="47.49208" lon="-2.80779">
        <ele>70</ele>
        <time>2025-05-13T10:28:58Z</time>
      </trkpt>
      <trkpt lat="47.4921" lon="-2.80782">
        <ele>70</ele>
        <time>2025-05-13T10:28:59Z</time>
      </trkpt>
      <trkpt lat="47.49211" lon="-2.80784">
        <ele>70</ele>
        <time>2025-05-13T10:29:00Z</time>
      </trkpt>
      <trkpt lat="47.49212" lon="-2.80786">
        <ele>70</ele>
        <time>2025-05-13T10:29:01Z</time>
      </trkpt>
      <trkpt lat="47.49214" lon="-2.80788">
        <ele>70</ele>
        <time>2025-05-13T10:29:02Z</time>
      </trkpt>
      <trkpt lat="47.49215" lon="-2.8079">
        <ele>70</ele>
        <time>2025-05-13T10:29:03Z</time>
      </trkpt>
      <trkpt lat="47.49216" lon="-2.80793">
        <ele>70</ele>
        <time>2025-05-13T10:29:04Z</time>
      </trkpt>
      <trkpt lat="47.49218" lon="-2.80795">
        <ele>71</ele>
        <time>2025-05-13T10:29:05Z</time>
      </trkpt>
      <trkpt lat="47.49219" lon="-2.80797">
        <ele>71</ele>
        <time>2025-05-13T10:29:06Z</time>
      </trkpt>
      <trkpt lat="47.4922" lon="-2.80799">
        <ele>72</ele>
        <time>2025-05-13T10:29:07Z</time>
      </trkpt>
      <trkpt lat="47.49222" lon="-2.808">
        <ele>72</ele>
        <time>2025-05-13T10:29:08Z</time>
      </trkpt>
      <trkpt lat="47.49224" lon="-2.80802">
        <ele>72</ele>
        <time>2025-05-13T10:29:09Z</time>
      </trkpt>
      <trkpt lat="47.49226" lon="-2.80805">
        <ele>73</ele>
        <time>2025-05-13T10:29:10Z</time>
      </trkpt>
      <trkpt lat="47.49227" lon="-2.80807">
        <ele>73</ele>
        <time>2025-05-13T10:29:11Z</time>
      </trkpt>
      <trkpt lat="47.49229" lon="-2.80809">
        <ele>74</ele>
        <time>2025-05-13T10:29:12Z</time>
      </trkpt>
      <trkpt lat="47.4923" lon="-2.80811">
        <ele>74</ele>
        <time>2025-05-13T10:29:13Z</time>
      </trkpt>
      <trkpt lat="47.49232" lon="-2.80813">
        <ele>74</ele>
        <time>2025-05-13T10:29:14Z</time>
      </trkpt>
      <trkpt lat="47.49233" lon="-2.80816">
        <ele>74</ele>
        <time>2025-05-13T10:29:15Z</time>
      </trkpt>
      <trkpt lat="47.49235" lon="-2.80818">
        <ele>73</ele>
        <time>2025-05-13T10:29:16Z</time>
      </trkpt>
      <trkpt lat="47.49236" lon="-2.8082">
        <ele>74</ele>
        <time>2025-05-13T10:29:17Z</time>
      </trkpt>
      <trkpt lat="47.49238" lon="-2.80823">
        <ele>74</ele>
        <time>2025-05-13T10:29:18Z</time>
      </trkpt>
      <trkpt lat="47.49239" lon="-2.80825">
        <ele>74</ele>
        <time>2025-05-13T10:29:19Z</time>
      </trkpt>
      <trkpt lat="47.49241" lon="-2.80827">
        <ele>74</ele>
        <time>2025-05-13T10:29:20Z</time>
      </trkpt>
      <trkpt lat="47.49243" lon="-2.80829">
        <ele>74</ele>
        <time>2025-05-13T10:29:21Z</time>
      </trkpt>
      <trkpt lat="47.49244" lon="-2.80831">
        <ele>74</ele>
        <time>2025-05-13T10:29:22Z</time>
      </trkpt>
      <trkpt lat="47.49246" lon="-2.80833">
        <ele>74</ele>
        <time>2025-05-13T10:29:23Z</time>
      </trkpt>
      <trkpt lat="47.49247" lon="-2.80835">
        <ele>74</ele>
        <time>2025-05-13T10:29:24Z</time>
      </trkpt>
      <trkpt lat="47.49249" lon="-2.80837">
        <ele>74</ele>
        <time>2025-05-13T10:29:25Z</time>
      </trkpt>
      <trkpt lat="47.4925" lon="-2.80839">
        <ele>74</ele>
        <time>2025-05-13T10:29:26Z</time>
      </trkpt>
      <trkpt lat="47.49251" lon="-2.80841">
        <ele>74</ele>
        <time>2025-05-13T10:29:27Z</time>
      </trkpt>
      <trkpt lat="47.49253" lon="-2.80843">
        <ele>74</ele>
        <time>2025-05-13T10:29:28Z</time>
      </trkpt>
      <trkpt lat="47.49255" lon="-2.80845">
        <ele>74</ele>
        <time>2025-05-13T10:29:29Z</time>
      </trkpt>
      <trkpt lat="47.49256" lon="-2.80847">
        <ele>74</ele>
        <time>2025-05-13T10:29:30Z</time>
      </trkpt>
      <trkpt lat="47.49257" lon="-2.8085">
        <ele>74</ele>
        <time>2025-05-13T10:29:31Z</time>
      </trkpt>
      <trkpt lat="47.49258" lon="-2.80852">
        <ele>75</ele>
        <time>2025-05-13T10:29:32Z</time>
      </trkpt>
      <trkpt lat="47.4926" lon="-2.80854">
        <ele>75</ele>
        <time>2025-05-13T10:29:33Z</time>
      </trkpt>
      <trkpt lat="47.49261" lon="-2.80856">
        <ele>75</ele>
        <time>2025-05-13T10:29:34Z</time>
      </trkpt>
      <trkpt lat="47.49262" lon="-2.80858">
        <ele>74</ele>
        <time>2025-05-13T10:29:35Z</time>
      </trkpt>
      <trkpt lat="47.49264" lon="-2.8086">
        <ele>74</ele>
        <time>2025-05-13T10:29:36Z</time>
      </trkpt>
      <trkpt lat="47.49265" lon="-2.80862">
        <ele>74</ele>
        <time>2025-05-13T10:29:37Z</time>
      </trkpt>
      <trkpt lat="47.49266" lon="-2.80864">
        <ele>74</ele>
        <time>2025-05-13T10:29:38Z</time>
      </trkpt>
      <trkpt lat="47.49268" lon="-2.80866">
        <ele>74</ele>
        <time>2025-05-13T10:29:39Z</time>
      </trkpt>
      <trkpt lat="47.49269" lon="-2.80868">
        <ele>75</ele>
        <time>2025-05-13T10:29:40Z</time>
      </trkpt>
      <trkpt lat="47.49271" lon="-2.80869">
        <ele>75</ele>
        <time>2025-05-13T10:29:41Z</time>
      </trkpt>
      <trkpt lat="47.49272" lon="-2.80871">
        <ele>75</ele>
        <time>2025-05-13T10:29:42Z</time>
      </trkpt>
      <trkpt lat="47.49274" lon="-2.80873">
        <ele>76</ele>
        <time>2025-05-13T10:29:43Z</time>
      </trkpt>
      <trkpt lat="47.49275" lon="-2.80875">
        <ele>76</ele>
        <time>2025-05-13T10:29:44Z</time>
      </trkpt>
      <trkpt lat="47.49276" lon="-2.80878">
        <ele>76</ele>
        <time>2025-05-13T10:29:45Z</time>
      </trkpt>
      <trkpt lat="47.49278" lon="-2.8088">
        <ele>76</ele>
        <time>2025-05-13T10:29:46Z</time>
      </trkpt>
      <trkpt lat="47.49279" lon="-2.80882">
        <ele>77</ele>
        <time>2025-05-13T10:29:47Z</time>
      </trkpt>
      <trkpt lat="47.49281" lon="-2.80884">
        <ele>77</ele>
        <time>2025-05-13T10:29:48Z</time>
      </trkpt>
      <trkpt lat="47.49283" lon="-2.80887">
        <ele>77</ele>
        <time>2025-05-13T10:29:49Z</time>
      </trkpt>
      <trkpt lat="47.49284" lon="-2.80889">
        <ele>77</ele>
        <time>2025-05-13T10:29:50Z</time>
      </trkpt>
      <trkpt lat="47.49286" lon="-2.80891">
        <ele>78</ele>
        <time>2025-05-13T10:29:51Z</time>
      </trkpt>
      <trkpt lat="47.49287" lon="-2.80893">
        <ele>78</ele>
        <time>2025-05-13T10:29:52Z</time>
      </trkpt>
      <trkpt lat="47.49289" lon="-2.80895">
        <ele>78</ele>
        <time>2025-05-13T10:29:53Z</time>
      </trkpt>
      <trkpt lat="47.49291" lon="-2.80897">
        <ele>78</ele>
        <time>2025-05-13T10:29:54Z</time>
      </trkpt>
      <trkpt lat="47.49292" lon="-2.80899">
        <ele>78</ele>
        <time>2025-05-13T10:29:55Z</time>
      </trkpt>
      <trkpt lat="47.49294" lon="-2.80901">
        <ele>78</ele>
        <time>2025-05-13T10:29:56Z</time>
      </trkpt>
      <trkpt lat="47.49295" lon="-2.80904">
        <ele>78</ele>
        <time>2025-05-13T10:29:57Z</time>
      </trkpt>
      <trkpt lat="47.49297" lon="-2.80906">
        <ele>79</ele>
        <time>2025-05-13T10:29:58Z</time>
      </trkpt>
      <trkpt lat="47.49298" lon="-2.80908">
        <ele>79</ele>
        <time>2025-05-13T10:29:59Z</time>
      </trkpt>
      <trkpt lat="47.49299" lon="-2.8091">
        <ele>80</ele>
        <time>2025-05-13T10:30:00Z</time>
      </trkpt>
      <trkpt lat="47.49301" lon="-2.80912">
        <ele>80</ele>
        <time>2025-05-13T10:30:01Z</time>
      </trkpt>
      <trkpt lat="47.49302" lon="-2.80914">
        <ele>80</ele>
        <time>2025-05-13T10:30:02Z</time>
      </trkpt>
      <trkpt lat="47.49304" lon="-2.80916">
        <ele>80</ele>
        <time>2025-05-13T10:30:03Z</time>
      </trkpt>
      <trkpt lat="47.49305" lon="-2.80919">
        <ele>80</ele>
        <time>2025-05-13T10:30:04Z</time>
      </trkpt>
      <trkpt lat="47.49306" lon="-2.80921">
        <ele>80</ele>
        <time>2025-05-13T10:30:05Z</time>
      </trkpt>
      <trkpt lat="47.49308" lon="-2.80923">
        <ele>80</ele>
        <time>2025-05-13T10:30:06Z</time>
      </trkpt>
      <trkpt lat="47.49309" lon="-2.80925">
        <ele>81</ele>
        <time>2025-05-13T10:30:07Z</time>
      </trkpt>
      <trkpt lat="47.49311" lon="-2.80927">
        <ele>81</ele>
        <time>2025-05-13T10:30:08Z</time>
      </trkpt>
      <trkpt lat="47.49312" lon="-2.8093">
        <ele>81</ele>
        <time>2025-05-13T10:30:09Z</time>
      </trkpt>
      <trkpt lat="47.49314" lon="-2.80932">
        <ele>82</ele>
        <time>2025-05-13T10:30:10Z</time>
      </trkpt>
      <trkpt lat="47.49315" lon="-2.80934">
        <ele>82</ele>
        <time>2025-05-13T10:30:11Z</time>
      </trkpt>
      <trkpt lat="47.49317" lon="-2.80936">
        <ele>82</ele>
        <time>2025-05-13T10:30:12Z</time>
      </trkpt>
      <trkpt lat="47.49318" lon="-2.80939">
        <ele>82</ele>
        <time>2025-05-13T10:30:13Z</time>
      </trkpt>
      <trkpt lat="47.4932" lon="-2.80941">
        <ele>82</ele>
        <time>2025-05-13T10:30:14Z</time>
      </trkpt>
      <trkpt lat="47.49321" lon="-2.80943">
        <ele>81</ele>
        <time>2025-05-13T10:30:15Z</time>
      </trkpt>
      <trkpt lat="47.49323" lon="-2.80945">
        <ele>81</ele>
        <time>2025-05-13T10:30:16Z</time>
      </trkpt>
      <trkpt lat="47.49324" lon="-2.80947">
        <ele>82</ele>
        <time>2025-05-13T10:30:17Z</time>
      </trkpt>
      <trkpt lat="47.49326" lon="-2.8095">
        <ele>82</ele>
        <time>2025-05-13T10:30:18Z</time>
      </trkpt>
      <trkpt lat="47.49327" lon="-2.80952">
        <ele>82</ele>
        <time>2025-05-13T10:30:19Z</time>
      </trkpt>
      <trkpt lat="47.49328" lon="-2.80954">
        <ele>82</ele>
        <time>2025-05-13T10:30:20Z</time>
      </trkpt>
      <trkpt lat="47.4933" lon="-2.80956">
        <ele>82</ele>
        <time>2025-05-13T10:30:21Z</time>
      </trkpt>
      <trkpt lat="47.49331" lon="-2.80958">
        <ele>82</ele>
        <time>2025-05-13T10:30:22Z</time>
      </trkpt>
      <trkpt lat="47.49332" lon="-2.8096">
        <ele>82</ele>
        <time>2025-05-13T10:30:23Z</time>
      </trkpt>
      <trkpt lat="47.49333" lon="-2.80963">
        <ele>82</ele>
        <time>2025-05-13T10:30:24Z</time>
      </trkpt>
      <trkpt lat="47.49335" lon="-2.80965">
        <ele>82</ele>
        <time>2025-05-13T10:30:25Z</time>
      </trkpt>
      <trkpt lat="47.49336" lon="-2.80968">
        <ele>82</ele>
        <time>2025-05-13T10:30:26Z</time>
      </trkpt>
      <trkpt lat="47.49338" lon="-2.80969">
        <ele>82</ele>
        <time>2025-05-13T10:30:27Z</time>
      </trkpt>
      <trkpt lat="47.4934" lon="-2.80971">
        <ele>82</ele>
        <time>2025-05-13T10:30:28Z</time>
      </trkpt>
      <trkpt lat="47.49341" lon="-2.80973">
        <ele>82</ele>
        <time>2025-05-13T10:30:29Z</time>
      </trkpt>
      <trkpt lat="47.49342" lon="-2.80976">
        <ele>82</ele>
        <time>2025-05-13T10:30:30Z</time>
      </trkpt>
      <trkpt lat="47.49344" lon="-2.80979">
        <ele>82</ele>
        <time>2025-05-13T10:30:31Z</time>
      </trkpt>
      <trkpt lat="47.49345" lon="-2.80981">
        <ele>81</ele>
        <time>2025-05-13T10:30:32Z</time>
      </trkpt>
      <trkpt lat="47.49346" lon="-2.80984">
        <ele>81</ele>
        <time>2025-05-13T10:30:33Z</time>
      </trkpt>
      <trkpt lat="47.49348" lon="-2.80987">
        <ele>82</ele>
        <time>2025-05-13T10:30:34Z</time>
      </trkpt>
      <trkpt lat="47.49349" lon="-2.80989">
        <ele>82</ele>
        <time>2025-05-13T10:30:35Z</time>
      </trkpt>
      <trkpt lat="47.49351" lon="-2.80992">
        <ele>82</ele>
        <time>2025-05-13T10:30:36Z</time>
      </trkpt>
      <trkpt lat="47.49352" lon="-2.80994">
        <ele>82</ele>
        <time>2025-05-13T10:30:37Z</time>
      </trkpt>
      <trkpt lat="47.49354" lon="-2.80997">
        <ele>82</ele>
        <time>2025-05-13T10:30:38Z</time>
      </trkpt>
      <trkpt lat="47.49355" lon="-2.81">
        <ele>82</ele>
        <time>2025-05-13T10:30:39Z</time>
      </trkpt>
      <trkpt lat="47.49357" lon="-2.81002">
        <ele>82</ele>
        <time>2025-05-13T10:30:40Z</time>
      </trkpt>
      <trkpt lat="47.49358" lon="-2.81005">
        <ele>83</ele>
        <time>2025-05-13T10:30:41Z</time>
      </trkpt>
      <trkpt lat="47.4936" lon="-2.81007">
        <ele>83</ele>
        <time>2025-05-13T10:30:42Z</time>
      </trkpt>
      <trkpt lat="47.49361" lon="-2.8101">
        <ele>83</ele>
        <time>2025-05-13T10:30:43Z</time>
      </trkpt>
      <trkpt lat="47.49363" lon="-2.81013">
        <ele>83</ele>
        <time>2025-05-13T10:30:44Z</time>
      </trkpt>
      <trkpt lat="47.49364" lon="-2.81015">
        <ele>83</ele>
        <time>2025-05-13T10:30:45Z</time>
      </trkpt>
      <trkpt lat="47.49365" lon="-2.81018">
        <ele>83</ele>
        <time>2025-05-13T10:30:46Z</time>
      </trkpt>
      <trkpt lat="47.49367" lon="-2.81021">
        <ele>84</ele>
        <time>2025-05-13T10:30:47Z</time>
      </trkpt>
      <trkpt lat="47.49368" lon="-2.81024">
        <ele>84</ele>
        <time>2025-05-13T10:30:48Z</time>
      </trkpt>
      <trkpt lat="47.4937" lon="-2.81027">
        <ele>84</ele>
        <time>2025-05-13T10:30:49Z</time>
      </trkpt>
      <trkpt lat="47.49371" lon="-2.81031">
        <ele>84</ele>
        <time>2025-05-13T10:30:50Z</time>
      </trkpt>
      <trkpt lat="47.49372" lon="-2.81034">
        <ele>84</ele>
        <time>2025-05-13T10:30:51Z</time>
      </trkpt>
      <trkpt lat="47.49374" lon="-2.81036">
        <ele>84</ele>
        <time>2025-05-13T10:30:52Z</time>
      </trkpt>
      <trkpt lat="47.49375" lon="-2.81038">
        <ele>84</ele>
        <time>2025-05-13T10:30:53Z</time>
      </trkpt>
      <trkpt lat="47.49377" lon="-2.81041">
        <ele>84</ele>
        <time>2025-05-13T10:30:54Z</time>
      </trkpt>
      <trkpt lat="47.49378" lon="-2.81044">
        <ele>84</ele>
        <time>2025-05-13T10:30:55Z</time>
      </trkpt>
      <trkpt lat="47.49379" lon="-2.81046">
        <ele>84</ele>
        <time>2025-05-13T10:30:56Z</time>
      </trkpt>
      <trkpt lat="47.49381" lon="-2.81049">
        <ele>84</ele>
        <time>2025-05-13T10:30:57Z</time>
      </trkpt>
      <trkpt lat="47.49382" lon="-2.81052">
        <ele>83</ele>
        <time>2025-05-13T10:30:58Z</time>
      </trkpt>
      <trkpt lat="47.49384" lon="-2.81056">
        <ele>83</ele>
        <time>2025-05-13T10:30:59Z</time>
      </trkpt>
      <trkpt lat="47.49385" lon="-2.81058">
        <ele>84</ele>
        <time>2025-05-13T10:31:00Z</time>
      </trkpt>
      <trkpt lat="47.49387" lon="-2.81061">
        <ele>84</ele>
        <time>2025-05-13T10:31:01Z</time>
      </trkpt>
      <trkpt lat="47.49388" lon="-2.81064">
        <ele>84</ele>
        <time>2025-05-13T10:31:02Z</time>
      </trkpt>
      <trkpt lat="47.4939" lon="-2.81067">
        <ele>84</ele>
        <time>2025-05-13T10:31:03Z</time>
      </trkpt>
      <trkpt lat="47.49391" lon="-2.81069">
        <ele>84</ele>
        <time>2025-05-13T10:31:04Z</time>
      </trkpt>
      <trkpt lat="47.49393" lon="-2.81072">
        <ele>84</ele>
        <time>2025-05-13T10:31:05Z</time>
      </trkpt>
      <trkpt lat="47.49394" lon="-2.81075">
        <ele>84</ele>
        <time>2025-05-13T10:31:06Z</time>
      </trkpt>
      <trkpt lat="47.49396" lon="-2.81078">
        <ele>84</ele>
        <time>2025-05-13T10:31:07Z</time>
      </trkpt>
      <trkpt lat="47.49397" lon="-2.81081">
        <ele>84</ele>
        <time>2025-05-13T10:31:08Z</time>
      </trkpt>
      <trkpt lat="47.49398" lon="-2.81084">
        <ele>84</ele>
        <time>2025-05-13T10:31:09Z</time>
      </trkpt>
      <trkpt lat="47.494" lon="-2.81088">
        <ele>84</ele>
        <time>2025-05-13T10:31:10Z</time>
      </trkpt>
      <trkpt lat="47.49401" lon="-2.81091">
        <ele>83</ele>
        <time>2025-05-13T10:31:11Z</time>
      </trkpt>
      <trkpt lat="47.49403" lon="-2.81094">
        <ele>84</ele>
        <time>2025-05-13T10:31:12Z</time>
      </trkpt>
      <trkpt lat="47.49405" lon="-2.81097">
        <ele>85</ele>
        <time>2025-05-13T10:31:13Z</time>
      </trkpt>
      <trkpt lat="47.49407" lon="-2.811">
        <ele>85</ele>
        <time>2025-05-13T10:31:14Z</time>
      </trkpt>
      <trkpt lat="47.49408" lon="-2.81104">
        <ele>85</ele>
        <time>2025-05-13T10:31:15Z</time>
      </trkpt>
      <trkpt lat="47.4941" lon="-2.81107">
        <ele>85</ele>
        <time>2025-05-13T10:31:16Z</time>
      </trkpt>
      <trkpt lat="47.49412" lon="-2.8111">
        <ele>85</ele>
        <time>2025-05-13T10:31:17Z</time>
      </trkpt>
      <trkpt lat="47.49413" lon="-2.81113">
        <ele>85</ele>
        <time>2025-05-13T10:31:18Z</time>
      </trkpt>
      <trkpt lat="47.49415" lon="-2.81116">
        <ele>85</ele>
        <time>2025-05-13T10:31:19Z</time>
      </trkpt>
      <trkpt lat="47.49417" lon="-2.81119">
        <ele>85</ele>
        <time>2025-05-13T10:31:20Z</time>
      </trkpt>
      <trkpt lat="47.49418" lon="-2.81122">
        <ele>85</ele>
        <time>2025-05-13T10:31:21Z</time>
      </trkpt>
      <trkpt lat="47.49419" lon="-2.81124">
        <ele>85</ele>
        <time>2025-05-13T10:31:22Z</time>
      </trkpt>
      <trkpt lat="47.49421" lon="-2.81127">
        <ele>85</ele>
        <time>2025-05-13T10:31:23Z</time>
      </trkpt>
      <trkpt lat="47.49422" lon="-2.8113">
        <ele>85</ele>
        <time>2025-05-13T10:31:24Z</time>
      </trkpt>
      <trkpt lat="47.49423" lon="-2.81133">
        <ele>85</ele>
        <time>2025-05-13T10:31:25Z</time>
      </trkpt>
      <trkpt lat="47.49425" lon="-2.81136">
        <ele>85</ele>
        <time>2025-05-13T10:31:26Z</time>
      </trkpt>
      <trkpt lat="47.49427" lon="-2.81139">
        <ele>84</ele>
        <time>2025-05-13T10:31:27Z</time>
      </trkpt>
      <trkpt lat="47.49428" lon="-2.81142">
        <ele>84</ele>
        <time>2025-05-13T10:31:28Z</time>
      </trkpt>
      <trkpt lat="47.4943" lon="-2.81145">
        <ele>84</ele>
        <time>2025-05-13T10:31:29Z</time>
      </trkpt>
      <trkpt lat="47.49431" lon="-2.81149">
        <ele>84</ele>
        <time>2025-05-13T10:31:30Z</time>
      </trkpt>
      <trkpt lat="47.49433" lon="-2.81153">
        <ele>84</ele>
        <time>2025-05-13T10:31:31Z</time>
      </trkpt>
      <trkpt lat="47.49435" lon="-2.81156">
        <ele>84</ele>
        <time>2025-05-13T10:31:32Z</time>
      </trkpt>
      <trkpt lat="47.49437" lon="-2.81159">
        <ele>84</ele>
        <time>2025-05-13T10:31:33Z</time>
      </trkpt>
      <trkpt lat="47.49439" lon="-2.81163">
        <ele>85</ele>
        <time>2025-05-13T10:31:34Z</time>
      </trkpt>
      <trkpt lat="47.49441" lon="-2.81167">
        <ele>85</ele>
        <time>2025-05-13T10:31:35Z</time>
      </trkpt>
      <trkpt lat="47.49443" lon="-2.8117">
        <ele>85</ele>
        <time>2025-05-13T10:31:36Z</time>
      </trkpt>
      <trkpt lat="47.49445" lon="-2.81174">
        <ele>85</ele>
        <time>2025-05-13T10:31:37Z</time>
      </trkpt>
      <trkpt lat="47.49447" lon="-2.81177">
        <ele>85</ele>
        <time>2025-05-13T10:31:38Z</time>
      </trkpt>
      <trkpt lat="47.49449" lon="-2.81181">
        <ele>84</ele>
        <time>2025-05-13T10:31:39Z</time>
      </trkpt>
      <trkpt lat="47.49451" lon="-2.81184">
        <ele>84</ele>
        <time>2025-05-13T10:31:40Z</time>
      </trkpt>
      <trkpt lat="47.49453" lon="-2.81187">
        <ele>83</ele>
        <time>2025-05-13T10:31:41Z</time>
      </trkpt>
      <trkpt lat="47.49454" lon="-2.81191">
        <ele>84</ele>
        <time>2025-05-13T10:31:42Z</time>
      </trkpt>
      <trkpt lat="47.49454" lon="-2.81196">
        <ele>83</ele>
        <time>2025-05-13T10:31:43Z</time>
      </trkpt>
      <trkpt lat="47.49453" lon="-2.812">
        <ele>83</ele>
        <time>2025-05-13T10:31:44Z</time>
      </trkpt>
      <trkpt lat="47.49451" lon="-2.81204">
        <ele>83</ele>
        <time>2025-05-13T10:31:45Z</time>
      </trkpt>
      <trkpt lat="47.49448" lon="-2.81207">
        <ele>83</ele>
        <time>2025-05-13T10:31:46Z</time>
      </trkpt>
      <trkpt lat="47.49445" lon="-2.81209">
        <ele>83</ele>
        <time>2025-05-13T10:31:47Z</time>
      </trkpt>
      <trkpt lat="47.49442" lon="-2.81211">
        <ele>82</ele>
        <time>2025-05-13T10:31:48Z</time>
      </trkpt>
      <trkpt lat="47.49439" lon="-2.81213">
        <ele>82</ele>
        <time>2025-05-13T10:31:49Z</time>
      </trkpt>
      <trkpt lat="47.49435" lon="-2.81216">
        <ele>82</ele>
        <time>2025-05-13T10:31:50Z</time>
      </trkpt>
      <trkpt lat="47.49432" lon="-2.81219">
        <ele>82</ele>
        <time>2025-05-13T10:31:51Z</time>
      </trkpt>
      <trkpt lat="47.49428" lon="-2.81222">
        <ele>82</ele>
        <time>2025-05-13T10:31:52Z</time>
      </trkpt>
      <trkpt lat="47.49425" lon="-2.81225">
        <ele>81</ele>
        <time>2025-05-13T10:31:53Z</time>
      </trkpt>
      <trkpt lat="47.49421" lon="-2.81228">
        <ele>81</ele>
        <time>2025-05-13T10:31:54Z</time>
      </trkpt>
      <trkpt lat="47.49417" lon="-2.8123">
        <ele>81</ele>
        <time>2025-05-13T10:31:55Z</time>
      </trkpt>
      <trkpt lat="47.49413" lon="-2.81232">
        <ele>81</ele>
        <time>2025-05-13T10:31:56Z</time>
      </trkpt>
      <trkpt lat="47.49409" lon="-2.81234">
        <ele>81</ele>
        <time>2025-05-13T10:31:57Z</time>
      </trkpt>
      <trkpt lat="47.49404" lon="-2.81237">
        <ele>80</ele>
        <time>2025-05-13T10:31:58Z</time>
      </trkpt>
      <trkpt lat="47.494" lon="-2.81239">
        <ele>80</ele>
        <time>2025-05-13T10:31:59Z</time>
      </trkpt>
      <trkpt lat="47.49396" lon="-2.81242">
        <ele>79</ele>
        <time>2025-05-13T10:32:00Z</time>
      </trkpt>
      <trkpt lat="47.49392" lon="-2.81245">
        <ele>79</ele>
        <time>2025-05-13T10:32:01Z</time>
      </trkpt>
      <trkpt lat="47.49388" lon="-2.81248">
        <ele>79</ele>
        <time>2025-05-13T10:32:02Z</time>
      </trkpt>
      <trkpt lat="47.49383" lon="-2.81251">
        <ele>78</ele>
        <time>2025-05-13T10:32:03Z</time>
      </trkpt>
      <trkpt lat="47.49379" lon="-2.81255">
        <ele>78</ele>
        <time>2025-05-13T10:32:04Z</time>
      </trkpt>
      <trkpt lat="47.49374" lon="-2.81258">
        <ele>77</ele>
        <time>2025-05-13T10:32:05Z</time>
      </trkpt>
      <trkpt lat="47.4937" lon="-2.81261">
        <ele>76</ele>
        <time>2025-05-13T10:32:06Z</time>
      </trkpt>
      <trkpt lat="47.49365" lon="-2.81264">
        <ele>77</ele>
        <time>2025-05-13T10:32:07Z</time>
      </trkpt>
      <trkpt lat="47.4936" lon="-2.81267">
        <ele>77</ele>
        <time>2025-05-13T10:32:08Z</time>
      </trkpt>
      <trkpt lat="47.49356" lon="-2.8127">
        <ele>76</ele>
        <time>2025-05-13T10:32:09Z</time>
      </trkpt>
      <trkpt lat="47.49351" lon="-2.81274">
        <ele>76</ele>
        <time>2025-05-13T10:32:10Z</time>
      </trkpt>
      <trkpt lat="47.49346" lon="-2.81277">
        <ele>77</ele>
        <time>2025-05-13T10:32:11Z</time>
      </trkpt>
      <trkpt lat="47.49343" lon="-2.8128">
        <ele>76</ele>
        <time>2025-05-13T10:32:12Z</time>
      </trkpt>
      <trkpt lat="47.49339" lon="-2.81285">
        <ele>76</ele>
        <time>2025-05-13T10:32:13Z</time>
      </trkpt>
      <trkpt lat="47.49337" lon="-2.81291">
        <ele>76</ele>
        <time>2025-05-13T10:32:14Z</time>
      </trkpt>
      <trkpt lat="47.49336" lon="-2.81299">
        <ele>77</ele>
        <time>2025-05-13T10:32:15Z</time>
      </trkpt>
      <trkpt lat="47.49338" lon="-2.81306">
        <ele>76</ele>
        <time>2025-05-13T10:32:16Z</time>
      </trkpt>
      <trkpt lat="47.49341" lon="-2.81312">
        <ele>76</ele>
        <time>2025-05-13T10:32:17Z</time>
      </trkpt>
      <trkpt lat="47.49345" lon="-2.81317">
        <ele>76</ele>
        <time>2025-05-13T10:32:18Z</time>
      </trkpt>
      <trkpt lat="47.49348" lon="-2.81321">
        <ele>77</ele>
        <time>2025-05-13T10:32:19Z</time>
      </trkpt>
      <trkpt lat="47.49352" lon="-2.81325">
        <ele>77</ele>
        <time>2025-05-13T10:32:20Z</time>
      </trkpt>
      <trkpt lat="47.49354" lon="-2.8133">
        <ele>77</ele>
        <time>2025-05-13T10:32:21Z</time>
      </trkpt>
      <trkpt lat="47.49357" lon="-2.81335">
        <ele>76</ele>
        <time>2025-05-13T10:32:22Z</time>
      </trkpt>
      <trkpt lat="47.49358" lon="-2.81341">
        <ele>77</ele>
        <time>2025-05-13T10:32:23Z</time>
      </trkpt>
      <trkpt lat="47.4936" lon="-2.81346">
        <ele>77</ele>
        <time>2025-05-13T10:32:24Z</time>
      </trkpt>
      <trkpt lat="47.49361" lon="-2.81351">
        <ele>77</ele>
        <time>2025-05-13T10:32:25Z</time>
      </trkpt>
      <trkpt lat="47.49363" lon="-2.81356">
        <ele>76</ele>
        <time>2025-05-13T10:32:26Z</time>
      </trkpt>
      <trkpt lat="47.49364" lon="-2.81361">
        <ele>76</ele>
        <time>2025-05-13T10:32:27Z</time>
      </trkpt>
      <trkpt lat="47.49366" lon="-2.81365">
        <ele>76</ele>
        <time>2025-05-13T10:32:28Z</time>
      </trkpt>
      <trkpt lat="47.49367" lon="-2.81371">
        <ele>77</ele>
        <time>2025-05-13T10:32:29Z</time>
      </trkpt>
      <trkpt lat="47.49367" lon="-2.81375">
        <ele>77</ele>
        <time>2025-05-13T10:32:30Z</time>
      </trkpt>
      <trkpt lat="47.49368" lon="-2.8138">
        <ele>77</ele>
        <time>2025-05-13T10:32:31Z</time>
      </trkpt>
      <trkpt lat="47.49367" lon="-2.81385">
        <ele>77</ele>
        <time>2025-05-13T10:32:32Z</time>
      </trkpt>
      <trkpt lat="47.49367" lon="-2.81389">
        <ele>78</ele>
        <time>2025-05-13T10:32:33Z</time>
      </trkpt>
      <trkpt lat="47.49366" lon="-2.81394">
        <ele>78</ele>
        <time>2025-05-13T10:32:34Z</time>
      </trkpt>
      <trkpt lat="47.49365" lon="-2.81398">
        <ele>78</ele>
        <time>2025-05-13T10:32:35Z</time>
      </trkpt>
      <trkpt lat="47.49365" lon="-2.81402">
        <ele>79</ele>
        <time>2025-05-13T10:32:36Z</time>
      </trkpt>
      <trkpt lat="47.49364" lon="-2.81407">
        <ele>79</ele>
        <time>2025-05-13T10:32:37Z</time>
      </trkpt>
      <trkpt lat="47.49364" lon="-2.81411">
        <ele>80</ele>
        <time>2025-05-13T10:32:38Z</time>
      </trkpt>
      <trkpt lat="47.49363" lon="-2.81415">
        <ele>80</ele>
        <time>2025-05-13T10:32:39Z</time>
      </trkpt>
      <trkpt lat="47.49362" lon="-2.81419">
        <ele>80</ele>
        <time>2025-05-13T10:32:40Z</time>
      </trkpt>
      <trkpt lat="47.4936" lon="-2.81424">
        <ele>80</ele>
        <time>2025-05-13T10:32:41Z</time>
      </trkpt>
      <trkpt lat="47.49359" lon="-2.81428">
        <ele>80</ele>
        <time>2025-05-13T10:32:42Z</time>
      </trkpt>
      <trkpt lat="47.49357" lon="-2.81433">
        <ele>80</ele>
        <time>2025-05-13T10:32:43Z</time>
      </trkpt>
      <trkpt lat="47.49356" lon="-2.81437">
        <ele>80</ele>
        <time>2025-05-13T10:32:44Z</time>
      </trkpt>
      <trkpt lat="47.49354" lon="-2.81441">
        <ele>80</ele>
        <time>2025-05-13T10:32:45Z</time>
      </trkpt>
      <trkpt lat="47.49352" lon="-2.81445">
        <ele>80</ele>
        <time>2025-05-13T10:32:46Z</time>
      </trkpt>
      <trkpt lat="47.4935" lon="-2.8145">
        <ele>80</ele>
        <time>2025-05-13T10:32:47Z</time>
      </trkpt>
      <trkpt lat="47.49348" lon="-2.81454">
        <ele>80</ele>
        <time>2025-05-13T10:32:48Z</time>
      </trkpt>
      <trkpt lat="47.49345" lon="-2.81458">
        <ele>80</ele>
        <time>2025-05-13T10:32:49Z</time>
      </trkpt>
      <trkpt lat="47.49343" lon="-2.81463">
        <ele>80</ele>
        <time>2025-05-13T10:32:50Z</time>
      </trkpt>
      <trkpt lat="47.49341" lon="-2.81468">
        <ele>79</ele>
        <time>2025-05-13T10:32:51Z</time>
      </trkpt>
      <trkpt lat="47.4934" lon="-2.81474">
        <ele>79</ele>
        <time>2025-05-13T10:32:52Z</time>
      </trkpt>
      <trkpt lat="47.49337" lon="-2.8148">
        <ele>78</ele>
        <time>2025-05-13T10:32:53Z</time>
      </trkpt>
      <trkpt lat="47.49335" lon="-2.81486">
        <ele>78</ele>
        <time>2025-05-13T10:32:54Z</time>
      </trkpt>
      <trkpt lat="47.49333" lon="-2.81493">
        <ele>78</ele>
        <time>2025-05-13T10:32:55Z</time>
      </trkpt>
      <trkpt lat="47.49331" lon="-2.81499">
        <ele>78</ele>
        <time>2025-05-13T10:32:56Z</time>
      </trkpt>
      <trkpt lat="47.4933" lon="-2.81507">
        <ele>78</ele>
        <time>2025-05-13T10:32:57Z</time>
      </trkpt>
      <trkpt lat="47.49329" lon="-2.81514">
        <ele>79</ele>
        <time>2025-05-13T10:32:58Z</time>
      </trkpt>
      <trkpt lat="47.49327" lon="-2.81521">
        <ele>78</ele>
        <time>2025-05-13T10:32:59Z</time>
      </trkpt>
      <trkpt lat="47.49325" lon="-2.81528">
        <ele>78</ele>
        <time>2025-05-13T10:33:00Z</time>
      </trkpt>
      <trkpt lat="47.49323" lon="-2.81535">
        <ele>79</ele>
        <time>2025-05-13T10:33:01Z</time>
      </trkpt>
      <trkpt lat="47.49322" lon="-2.81542">
        <ele>78</ele>
        <time>2025-05-13T10:33:02Z</time>
      </trkpt>
      <trkpt lat="47.49321" lon="-2.8155">
        <ele>77</ele>
        <time>2025-05-13T10:33:03Z</time>
      </trkpt>
      <trkpt lat="47.4932" lon="-2.81558">
        <ele>77</ele>
        <time>2025-05-13T10:33:04Z</time>
      </trkpt>
      <trkpt lat="47.49319" lon="-2.81566">
        <ele>76</ele>
        <time>2025-05-13T10:33:05Z</time>
      </trkpt>
      <trkpt lat="47.49317" lon="-2.81574">
        <ele>76</ele>
        <time>2025-05-13T10:33:06Z</time>
      </trkpt>
      <trkpt lat="47.49316" lon="-2.81582">
        <ele>76</ele>
        <time>2025-05-13T10:33:07Z</time>
      </trkpt>
      <trkpt lat="47.49314" lon="-2.81589">
        <ele>76</ele>
        <time>2025-05-13T10:33:08Z</time>
      </trkpt>
      <trkpt lat="47.49313" lon="-2.81597">
        <ele>76</ele>
        <time>2025-05-13T10:33:09Z</time>
      </trkpt>
      <trkpt lat="47.49312" lon="-2.81605">
        <ele>75</ele>
        <time>2025-05-13T10:33:10Z</time>
      </trkpt>
      <trkpt lat="47.49311" lon="-2.81615">
        <ele>75</ele>
        <time>2025-05-13T10:33:11Z</time>
      </trkpt>
      <trkpt lat="47.4931" lon="-2.81624">
        <ele>75</ele>
        <time>2025-05-13T10:33:12Z</time>
      </trkpt>
      <trkpt lat="47.49308" lon="-2.81632">
        <ele>75</ele>
        <time>2025-05-13T10:33:13Z</time>
      </trkpt>
      <trkpt lat="47.49307" lon="-2.81641">
        <ele>75</ele>
        <time>2025-05-13T10:33:14Z</time>
      </trkpt>
      <trkpt lat="47.49305" lon="-2.8165">
        <ele>75</ele>
        <time>2025-05-13T10:33:15Z</time>
      </trkpt>
      <trkpt lat="47.49304" lon="-2.8166">
        <ele>74</ele>
        <time>2025-05-13T10:33:16Z</time>
      </trkpt>
      <trkpt lat="47.49303" lon="-2.81669">
        <ele>74</ele>
        <time>2025-05-13T10:33:17Z</time>
      </trkpt>
      <trkpt lat="47.49301" lon="-2.81678">
        <ele>74</ele>
        <time>2025-05-13T10:33:18Z</time>
      </trkpt>
      <trkpt lat="47.493" lon="-2.81686">
        <ele>74</ele>
        <time>2025-05-13T10:33:19Z</time>
      </trkpt>
      <trkpt lat="47.49301" lon="-2.81694">
        <ele>74</ele>
        <time>2025-05-13T10:33:20Z</time>
      </trkpt>
      <trkpt lat="47.49302" lon="-2.817">
        <ele>75</ele>
        <time>2025-05-13T10:33:21Z</time>
      </trkpt>
      <trkpt lat="47.49305" lon="-2.81703">
        <ele>75</ele>
        <time>2025-05-13T10:33:22Z</time>
      </trkpt>
      <trkpt lat="47.49308" lon="-2.81705">
        <ele>75</ele>
        <time>2025-05-13T10:33:23Z</time>
      </trkpt>
      <trkpt lat="47.49312" lon="-2.81704">
        <ele>75</ele>
        <time>2025-05-13T10:33:24Z</time>
      </trkpt>
      <trkpt lat="47.49315" lon="-2.81705">
        <ele>75</ele>
        <time>2025-05-13T10:33:25Z</time>
      </trkpt>
      <trkpt lat="47.49318" lon="-2.81705">
        <ele>75</ele>
        <time>2025-05-13T10:33:26Z</time>
      </trkpt>
      <trkpt lat="47.49321" lon="-2.81705">
        <ele>75</ele>
        <time>2025-05-13T10:33:27Z</time>
      </trkpt>
      <trkpt lat="47.49324" lon="-2.81705">
        <ele>75</ele>
        <time>2025-05-13T10:33:28Z</time>
      </trkpt>
      <trkpt lat="47.49327" lon="-2.81706">
        <ele>75</ele>
        <time>2025-05-13T10:33:29Z</time>
      </trkpt>
      <trkpt lat="47.49329" lon="-2.81707">
        <ele>75</ele>
        <time>2025-05-13T10:33:30Z</time>
      </trkpt>
      <trkpt lat="47.49331" lon="-2.81711">
        <ele>75</ele>
        <time>2025-05-13T10:33:31Z</time>
      </trkpt>
      <trkpt lat="47.49333" lon="-2.81716">
        <ele>76</ele>
        <time>2025-05-13T10:33:32Z</time>
      </trkpt>
      <trkpt lat="47.49334" lon="-2.81722">
        <ele>76</ele>
        <time>2025-05-13T10:33:33Z</time>
      </trkpt>
      <trkpt lat="47.49335" lon="-2.81728">
        <ele>76</ele>
        <time>2025-05-13T10:33:34Z</time>
      </trkpt>
      <trkpt lat="47.49337" lon="-2.81733">
        <ele>76</ele>
        <time>2025-05-13T10:33:35Z</time>
      </trkpt>
      <trkpt lat="47.49339" lon="-2.81739">
        <ele>76</ele>
        <time>2025-05-13T10:33:36Z</time>
      </trkpt>
      <trkpt lat="47.49341" lon="-2.81745">
        <ele>76</ele>
        <time>2025-05-13T10:33:37Z</time>
      </trkpt>
      <trkpt lat="47.49342" lon="-2.8175">
        <ele>76</ele>
        <time>2025-05-13T10:33:38Z</time>
      </trkpt>
      <trkpt lat="47.49343" lon="-2.81756">
        <ele>75</ele>
        <time>2025-05-13T10:33:39Z</time>
      </trkpt>
      <trkpt lat="47.49346" lon="-2.81762">
        <ele>75</ele>
        <time>2025-05-13T10:33:40Z</time>
      </trkpt>
      <trkpt lat="47.49348" lon="-2.81767">
        <ele>76</ele>
        <time>2025-05-13T10:33:41Z</time>
      </trkpt>
      <trkpt lat="47.49349" lon="-2.81773">
        <ele>76</ele>
        <time>2025-05-13T10:33:42Z</time>
      </trkpt>
      <trkpt lat="47.49351" lon="-2.81777">
        <ele>76</ele>
        <time>2025-05-13T10:33:43Z</time>
      </trkpt>
      <trkpt lat="47.49353" lon="-2.81782">
        <ele>77</ele>
        <time>2025-05-13T10:33:44Z</time>
      </trkpt>
      <trkpt lat="47.49354" lon="-2.81787">
        <ele>77</ele>
        <time>2025-05-13T10:33:45Z</time>
      </trkpt>
      <trkpt lat="47.49355" lon="-2.81791">
        <ele>77</ele>
        <time>2025-05-13T10:33:46Z</time>
      </trkpt>
      <trkpt lat="47.49357" lon="-2.81795">
        <ele>77</ele>
        <time>2025-05-13T10:33:47Z</time>
      </trkpt>
      <trkpt lat="47.49359" lon="-2.81799">
        <ele>78</ele>
        <time>2025-05-13T10:33:48Z</time>
      </trkpt>
      <trkpt lat="47.4936" lon="-2.81803">
        <ele>78</ele>
        <time>2025-05-13T10:33:49Z</time>
      </trkpt>
      <trkpt lat="47.49362" lon="-2.81807">
        <ele>78</ele>
        <time>2025-05-13T10:33:50Z</time>
      </trkpt>
      <trkpt lat="47.49363" lon="-2.81812">
        <ele>79</ele>
        <time>2025-05-13T10:33:51Z</time>
      </trkpt>
      <trkpt lat="47.49365" lon="-2.81817">
        <ele>79</ele>
        <time>2025-05-13T10:33:52Z</time>
      </trkpt>
      <trkpt lat="47.49367" lon="-2.81821">
        <ele>79</ele>
        <time>2025-05-13T10:33:53Z</time>
      </trkpt>
      <trkpt lat="47.49368" lon="-2.81826">
        <ele>79</ele>
        <time>2025-05-13T10:33:54Z</time>
      </trkpt>
      <trkpt lat="47.49369" lon="-2.81831">
        <ele>79</ele>
        <time>2025-05-13T10:33:55Z</time>
      </trkpt>
      <trkpt lat="47.4937" lon="-2.81835">
        <ele>79</ele>
        <time>2025-05-13T10:33:56Z</time>
      </trkpt>
      <trkpt lat="47.49372" lon="-2.8184">
        <ele>79</ele>
        <time>2025-05-13T10:33:57Z</time>
      </trkpt>
      <trkpt lat="47.49373" lon="-2.81844">
        <ele>79</ele>
        <time>2025-05-13T10:33:58Z</time>
      </trkpt>
      <trkpt lat="47.49374" lon="-2.81848">
        <ele>80</ele>
        <time>2025-05-13T10:33:59Z</time>
      </trkpt>
      <trkpt lat="47.49375" lon="-2.81853">
        <ele>80</ele>
        <time>2025-05-13T10:34:00Z</time>
      </trkpt>
      <trkpt lat="47.49376" lon="-2.81858">
        <ele>80</ele>
        <time>2025-05-13T10:34:01Z</time>
      </trkpt>
      <trkpt lat="47.49376" lon="-2.81862">
        <ele>79</ele>
        <time>2025-05-13T10:34:02Z</time>
      </trkpt>
      <trkpt lat="47.49377" lon="-2.81867">
        <ele>79</ele>
        <time>2025-05-13T10:34:03Z</time>
      </trkpt>
      <trkpt lat="47.49378" lon="-2.81871">
        <ele>79</ele>
        <time>2025-05-13T10:34:04Z</time>
      </trkpt>
      <trkpt lat="47.49379" lon="-2.81876">
        <ele>79</ele>
        <time>2025-05-13T10:34:05Z</time>
      </trkpt>
      <trkpt lat="47.4938" lon="-2.8188">
        <ele>80</ele>
        <time>2025-05-13T10:34:06Z</time>
      </trkpt>
      <trkpt lat="47.49381" lon="-2.81884">
        <ele>80</ele>
        <time>2025-05-13T10:34:07Z</time>
      </trkpt>
      <trkpt lat="47.49381" lon="-2.81888">
        <ele>80</ele>
        <time>2025-05-13T10:34:08Z</time>
      </trkpt>
      <trkpt lat="47.49382" lon="-2.81893">
        <ele>80</ele>
        <time>2025-05-13T10:34:09Z</time>
      </trkpt>
      <trkpt lat="47.49384" lon="-2.81897">
        <ele>80</ele>
        <time>2025-05-13T10:34:10Z</time>
      </trkpt>
      <trkpt lat="47.49384" lon="-2.81902">
        <ele>79</ele>
        <time>2025-05-13T10:34:11Z</time>
      </trkpt>
      <trkpt lat="47.49385" lon="-2.81907">
        <ele>79</ele>
        <time>2025-05-13T10:34:12Z</time>
      </trkpt>
      <trkpt lat="47.49386" lon="-2.81912">
        <ele>79</ele>
        <time>2025-05-13T10:34:13Z</time>
      </trkpt>
      <trkpt lat="47.49387" lon="-2.81917">
        <ele>79</ele>
        <time>2025-05-13T10:34:14Z</time>
      </trkpt>
      <trkpt lat="47.49387" lon="-2.81922">
        <ele>80</ele>
        <time>2025-05-13T10:34:15Z</time>
      </trkpt>
      <trkpt lat="47.49388" lon="-2.81926">
        <ele>80</ele>
        <time>2025-05-13T10:34:16Z</time>
      </trkpt>
      <trkpt lat="47.49389" lon="-2.81931">
        <ele>79</ele>
        <time>2025-05-13T10:34:17Z</time>
      </trkpt>
      <trkpt lat="47.4939" lon="-2.81935">
        <ele>79</ele>
        <time>2025-05-13T10:34:18Z</time>
      </trkpt>
      <trkpt lat="47.49391" lon="-2.8194">
        <ele>79</ele>
        <time>2025-05-13T10:34:19Z</time>
      </trkpt>
      <trkpt lat="47.49392" lon="-2.81944">
        <ele>80</ele>
        <time>2025-05-13T10:34:20Z</time>
      </trkpt>
      <trkpt lat="47.49393" lon="-2.81949">
        <ele>81</ele>
        <time>2025-05-13T10:34:21Z</time>
      </trkpt>
      <trkpt lat="47.49394" lon="-2.81953">
        <ele>82</ele>
        <time>2025-05-13T10:34:22Z</time>
      </trkpt>
      <trkpt lat="47.49395" lon="-2.81958">
        <ele>81</ele>
        <time>2025-05-13T10:34:23Z</time>
      </trkpt>
      <trkpt lat="47.49396" lon="-2.81962">
        <ele>81</ele>
        <time>2025-05-13T10:34:24Z</time>
      </trkpt>
      <trkpt lat="47.49397" lon="-2.81966">
        <ele>81</ele>
        <time>2025-05-13T10:34:25Z</time>
      </trkpt>
      <trkpt lat="47.49398" lon="-2.8197">
        <ele>81</ele>
        <time>2025-05-13T10:34:26Z</time>
      </trkpt>
      <trkpt lat="47.49399" lon="-2.81973">
        <ele>82</ele>
        <time>2025-05-13T10:34:27Z</time>
      </trkpt>
      <trkpt lat="47.494" lon="-2.81976">
        <ele>82</ele>
        <time>2025-05-13T10:34:28Z</time>
      </trkpt>
      <trkpt lat="47.49401" lon="-2.8198">
        <ele>82</ele>
        <time>2025-05-13T10:34:29Z</time>
      </trkpt>
      <trkpt lat="47.49402" lon="-2.81984">
        <ele>82</ele>
        <time>2025-05-13T10:34:30Z</time>
      </trkpt>
      <trkpt lat="47.49403" lon="-2.81988">
        <ele>82</ele>
        <time>2025-05-13T10:34:31Z</time>
      </trkpt>
      <trkpt lat="47.49405" lon="-2.81991">
        <ele>82</ele>
        <time>2025-05-13T10:34:32Z</time>
      </trkpt>
      <trkpt lat="47.49406" lon="-2.81995">
        <ele>82</ele>
        <time>2025-05-13T10:34:33Z</time>
      </trkpt>
      <trkpt lat="47.49407" lon="-2.81999">
        <ele>82</ele>
        <time>2025-05-13T10:34:34Z</time>
      </trkpt>
      <trkpt lat="47.49408" lon="-2.82002">
        <ele>82</ele>
        <time>2025-05-13T10:34:35Z</time>
      </trkpt>
      <trkpt lat="47.49409" lon="-2.82007">
        <ele>83</ele>
        <time>2025-05-13T10:34:36Z</time>
      </trkpt>
      <trkpt lat="47.49411" lon="-2.8201">
        <ele>82</ele>
        <time>2025-05-13T10:34:37Z</time>
      </trkpt>
      <trkpt lat="47.49412" lon="-2.82014">
        <ele>83</ele>
        <time>2025-05-13T10:34:38Z</time>
      </trkpt>
      <trkpt lat="47.49413" lon="-2.82018">
        <ele>83</ele>
        <time>2025-05-13T10:34:39Z</time>
      </trkpt>
      <trkpt lat="47.49414" lon="-2.82022">
        <ele>83</ele>
        <time>2025-05-13T10:34:40Z</time>
      </trkpt>
      <trkpt lat="47.49414" lon="-2.82027">
        <ele>83</ele>
        <time>2025-05-13T10:34:41Z</time>
      </trkpt>
      <trkpt lat="47.49416" lon="-2.8203">
        <ele>83</ele>
        <time>2025-05-13T10:34:42Z</time>
      </trkpt>
      <trkpt lat="47.49417" lon="-2.82034">
        <ele>83</ele>
        <time>2025-05-13T10:34:43Z</time>
      </trkpt>
      <trkpt lat="47.49418" lon="-2.82037">
        <ele>83</ele>
        <time>2025-05-13T10:34:44Z</time>
      </trkpt>
      <trkpt lat="47.4942" lon="-2.82041">
        <ele>83</ele>
        <time>2025-05-13T10:34:45Z</time>
      </trkpt>
      <trkpt lat="47.4942" lon="-2.82044">
        <ele>83</ele>
        <time>2025-05-13T10:34:46Z</time>
      </trkpt>
      <trkpt lat="47.4942" lon="-2.82048">
        <ele>83</ele>
        <time>2025-05-13T10:34:47Z</time>
      </trkpt>
      <trkpt lat="47.4942" lon="-2.82051">
        <ele>83</ele>
        <time>2025-05-13T10:34:48Z</time>
      </trkpt>
      <trkpt lat="47.49418" lon="-2.82054">
        <ele>83</ele>
        <time>2025-05-13T10:34:49Z</time>
      </trkpt>
      <trkpt lat="47.49416" lon="-2.82058">
        <ele>83</ele>
        <time>2025-05-13T10:34:50Z</time>
      </trkpt>
      <trkpt lat="47.49414" lon="-2.8206">
        <ele>83</ele>
        <time>2025-05-13T10:34:51Z</time>
      </trkpt>
      <trkpt lat="47.49411" lon="-2.82061">
        <ele>83</ele>
        <time>2025-05-13T10:34:52Z</time>
      </trkpt>
      <trkpt lat="47.49408" lon="-2.82062">
        <ele>83</ele>
        <time>2025-05-13T10:34:53Z</time>
      </trkpt>
      <trkpt lat="47.49405" lon="-2.82063">
        <ele>83</ele>
        <time>2025-05-13T10:34:54Z</time>
      </trkpt>
      <trkpt lat="47.49402" lon="-2.82065">
        <ele>83</ele>
        <time>2025-05-13T10:34:55Z</time>
      </trkpt>
      <trkpt lat="47.49399" lon="-2.82066">
        <ele>82</ele>
        <time>2025-05-13T10:34:56Z</time>
      </trkpt>
      <trkpt lat="47.49396" lon="-2.82068">
        <ele>82</ele>
        <time>2025-05-13T10:34:57Z</time>
      </trkpt>
      <trkpt lat="47.49394" lon="-2.82071">
        <ele>82</ele>
        <time>2025-05-13T10:34:58Z</time>
      </trkpt>
      <trkpt lat="47.49391" lon="-2.82073">
        <ele>82</ele>
        <time>2025-05-13T10:34:59Z</time>
      </trkpt>
      <trkpt lat="47.49388" lon="-2.82076">
        <ele>81</ele>
        <time>2025-05-13T10:35:00Z</time>
      </trkpt>
      <trkpt lat="47.49385" lon="-2.82079">
        <ele>81</ele>
        <time>2025-05-13T10:35:01Z</time>
      </trkpt>
      <trkpt lat="47.49382" lon="-2.82081">
        <ele>81</ele>
        <time>2025-05-13T10:35:02Z</time>
      </trkpt>
      <trkpt lat="47.49379" lon="-2.82084">
        <ele>81</ele>
        <time>2025-05-13T10:35:03Z</time>
      </trkpt>
      <trkpt lat="47.49376" lon="-2.82086">
        <ele>82</ele>
        <time>2025-05-13T10:35:04Z</time>
      </trkpt>
      <trkpt lat="47.49373" lon="-2.82089">
        <ele>82</ele>
        <time>2025-05-13T10:35:05Z</time>
      </trkpt>
      <trkpt lat="47.49369" lon="-2.82093">
        <ele>82</ele>
        <time>2025-05-13T10:35:06Z</time>
      </trkpt>
      <trkpt lat="47.49367" lon="-2.82097">
        <ele>81</ele>
        <time>2025-05-13T10:35:07Z</time>
      </trkpt>
      <trkpt lat="47.49364" lon="-2.82101">
        <ele>82</ele>
        <time>2025-05-13T10:35:08Z</time>
      </trkpt>
      <trkpt lat="47.49362" lon="-2.82106">
        <ele>82</ele>
        <time>2025-05-13T10:35:09Z</time>
      </trkpt>
      <trkpt lat="47.49361" lon="-2.82111">
        <ele>82</ele>
        <time>2025-05-13T10:35:10Z</time>
      </trkpt>
      <trkpt lat="47.49359" lon="-2.82116">
        <ele>82</ele>
        <time>2025-05-13T10:35:11Z</time>
      </trkpt>
      <trkpt lat="47.49358" lon="-2.82121">
        <ele>82</ele>
        <time>2025-05-13T10:35:12Z</time>
      </trkpt>
      <trkpt lat="47.49358" lon="-2.82127">
        <ele>83</ele>
        <time>2025-05-13T10:35:13Z</time>
      </trkpt>
      <trkpt lat="47.49358" lon="-2.82132">
        <ele>82</ele>
        <time>2025-05-13T10:35:14Z</time>
      </trkpt>
      <trkpt lat="47.49359" lon="-2.82137">
        <ele>82</ele>
        <time>2025-05-13T10:35:15Z</time>
      </trkpt>
      <trkpt lat="47.49359" lon="-2.82142">
        <ele>82</ele>
        <time>2025-05-13T10:35:16Z</time>
      </trkpt>
      <trkpt lat="47.4936" lon="-2.82146">
        <ele>82</ele>
        <time>2025-05-13T10:35:17Z</time>
      </trkpt>
      <trkpt lat="47.49361" lon="-2.8215">
        <ele>82</ele>
        <time>2025-05-13T10:35:18Z</time>
      </trkpt>
      <trkpt lat="47.49361" lon="-2.82154">
        <ele>82</ele>
        <time>2025-05-13T10:35:19Z</time>
      </trkpt>
      <trkpt lat="47.49362" lon="-2.82158">
        <ele>82</ele>
        <time>2025-05-13T10:35:20Z</time>
      </trkpt>
      <trkpt lat="47.49363" lon="-2.82161">
        <ele>82</ele>
        <time>2025-05-13T10:35:21Z</time>
      </trkpt>
      <trkpt lat="47.49364" lon="-2.82165">
        <ele>82</ele>
        <time>2025-05-13T10:35:22Z</time>
      </trkpt>
      <trkpt lat="47.49365" lon="-2.82169">
        <ele>82</ele>
        <time>2025-05-13T10:35:23Z</time>
      </trkpt>
      <trkpt lat="47.49366" lon="-2.82173">
        <ele>82</ele>
        <time>2025-05-13T10:35:24Z</time>
      </trkpt>
      <trkpt lat="47.49367" lon="-2.82177">
        <ele>82</ele>
        <time>2025-05-13T10:35:25Z</time>
      </trkpt>
      <trkpt lat="47.49368" lon="-2.82181">
        <ele>82</ele>
        <time>2025-05-13T10:35:26Z</time>
      </trkpt>
      <trkpt lat="47.49369" lon="-2.82185">
        <ele>82</ele>
        <time>2025-05-13T10:35:27Z</time>
      </trkpt>
      <trkpt lat="47.49369" lon="-2.82189">
        <ele>82</ele>
        <time>2025-05-13T10:35:28Z</time>
      </trkpt>
      <trkpt lat="47.4937" lon="-2.82193">
        <ele>82</ele>
        <time>2025-05-13T10:35:29Z</time>
      </trkpt>
      <trkpt lat="47.49371" lon="-2.82198">
        <ele>82</ele>
        <time>2025-05-13T10:35:30Z</time>
      </trkpt>
      <trkpt lat="47.49371" lon="-2.82201">
        <ele>82</ele>
        <time>2025-05-13T10:35:31Z</time>
      </trkpt>
      <trkpt lat="47.49372" lon="-2.82206">
        <ele>81</ele>
        <time>2025-05-13T10:35:32Z</time>
      </trkpt>
      <trkpt lat="47.49373" lon="-2.8221">
        <ele>81</ele>
        <time>2025-05-13T10:35:33Z</time>
      </trkpt>
      <trkpt lat="47.49374" lon="-2.82213">
        <ele>81</ele>
        <time>2025-05-13T10:35:34Z</time>
      </trkpt>
      <trkpt lat="47.49375" lon="-2.82218">
        <ele>81</ele>
        <time>2025-05-13T10:35:35Z</time>
      </trkpt>
      <trkpt lat="47.49376" lon="-2.82222">
        <ele>81</ele>
        <time>2025-05-13T10:35:36Z</time>
      </trkpt>
      <trkpt lat="47.49377" lon="-2.82226">
        <ele>81</ele>
        <time>2025-05-13T10:35:37Z</time>
      </trkpt>
      <trkpt lat="47.49378" lon="-2.82231">
        <ele>81</ele>
        <time>2025-05-13T10:35:38Z</time>
      </trkpt>
      <trkpt lat="47.49379" lon="-2.82235">
        <ele>81</ele>
        <time>2025-05-13T10:35:39Z</time>
      </trkpt>
      <trkpt lat="47.4938" lon="-2.8224">
        <ele>81</ele>
        <time>2025-05-13T10:35:40Z</time>
      </trkpt>
      <trkpt lat="47.4938" lon="-2.82244">
        <ele>81</ele>
        <time>2025-05-13T10:35:41Z</time>
      </trkpt>
      <trkpt lat="47.49381" lon="-2.82249">
        <ele>81</ele>
        <time>2025-05-13T10:35:42Z</time>
      </trkpt>
      <trkpt lat="47.49382" lon="-2.82254">
        <ele>81</ele>
        <time>2025-05-13T10:35:43Z</time>
      </trkpt>
      <trkpt lat="47.49383" lon="-2.82259">
        <ele>81</ele>
        <time>2025-05-13T10:35:44Z</time>
      </trkpt>
      <trkpt lat="47.49385" lon="-2.82265">
        <ele>81</ele>
        <time>2025-05-13T10:35:45Z</time>
      </trkpt>
      <trkpt lat="47.49386" lon="-2.82271">
        <ele>80</ele>
        <time>2025-05-13T10:35:46Z</time>
      </trkpt>
      <trkpt lat="47.49387" lon="-2.82278">
        <ele>80</ele>
        <time>2025-05-13T10:35:47Z</time>
      </trkpt>
      <trkpt lat="47.49389" lon="-2.82285">
        <ele>80</ele>
        <time>2025-05-13T10:35:48Z</time>
      </trkpt>
      <trkpt lat="47.49391" lon="-2.82293">
        <ele>79</ele>
        <time>2025-05-13T10:35:49Z</time>
      </trkpt>
      <trkpt lat="47.49392" lon="-2.82301">
        <ele>79</ele>
        <time>2025-05-13T10:35:50Z</time>
      </trkpt>
      <trkpt lat="47.49394" lon="-2.82309">
        <ele>78</ele>
        <time>2025-05-13T10:35:51Z</time>
      </trkpt>
      <trkpt lat="47.49396" lon="-2.82318">
        <ele>78</ele>
        <time>2025-05-13T10:35:52Z</time>
      </trkpt>
      <trkpt lat="47.49398" lon="-2.82327">
        <ele>77</ele>
        <time>2025-05-13T10:35:53Z</time>
      </trkpt>
      <trkpt lat="47.494" lon="-2.82337">
        <ele>77</ele>
        <time>2025-05-13T10:35:54Z</time>
      </trkpt>
      <trkpt lat="47.49403" lon="-2.82347">
        <ele>77</ele>
        <time>2025-05-13T10:35:55Z</time>
      </trkpt>
      <trkpt lat="47.49406" lon="-2.82358">
        <ele>76</ele>
        <time>2025-05-13T10:35:56Z</time>
      </trkpt>
      <trkpt lat="47.4941" lon="-2.82369">
        <ele>75</ele>
        <time>2025-05-13T10:35:57Z</time>
      </trkpt>
      <trkpt lat="47.49414" lon="-2.82379">
        <ele>75</ele>
        <time>2025-05-13T10:35:58Z</time>
      </trkpt>
      <trkpt lat="47.49418" lon="-2.8239">
        <ele>75</ele>
        <time>2025-05-13T10:35:59Z</time>
      </trkpt>
      <trkpt lat="47.49422" lon="-2.82401">
        <ele>75</ele>
        <time>2025-05-13T10:36:00Z</time>
      </trkpt>
      <trkpt lat="47.49426" lon="-2.82411">
        <ele>75</ele>
        <time>2025-05-13T10:36:01Z</time>
      </trkpt>
      <trkpt lat="47.49431" lon="-2.82421">
        <ele>75</ele>
        <time>2025-05-13T10:36:02Z</time>
      </trkpt>
      <trkpt lat="47.49435" lon="-2.8243">
        <ele>75</ele>
        <time>2025-05-13T10:36:03Z</time>
      </trkpt>
      <trkpt lat="47.49439" lon="-2.82438">
        <ele>75</ele>
        <time>2025-05-13T10:36:04Z</time>
      </trkpt>
      <trkpt lat="47.49443" lon="-2.82447">
        <ele>75</ele>
        <time>2025-05-13T10:36:05Z</time>
      </trkpt>
      <trkpt lat="47.49446" lon="-2.82455">
        <ele>75</ele>
        <time>2025-05-13T10:36:06Z</time>
      </trkpt>
      <trkpt lat="47.49448" lon="-2.82463">
        <ele>76</ele>
        <time>2025-05-13T10:36:07Z</time>
      </trkpt>
      <trkpt lat="47.49451" lon="-2.82471">
        <ele>76</ele>
        <time>2025-05-13T10:36:08Z</time>
      </trkpt>
      <trkpt lat="47.49454" lon="-2.82477">
        <ele>76</ele>
        <time>2025-05-13T10:36:09Z</time>
      </trkpt>
      <trkpt lat="47.49457" lon="-2.82483">
        <ele>76</ele>
        <time>2025-05-13T10:36:10Z</time>
      </trkpt>
      <trkpt lat="47.4946" lon="-2.82489">
        <ele>76</ele>
        <time>2025-05-13T10:36:11Z</time>
      </trkpt>
      <trkpt lat="47.49462" lon="-2.82494">
        <ele>76</ele>
        <time>2025-05-13T10:36:12Z</time>
      </trkpt>
      <trkpt lat="47.49465" lon="-2.82499">
        <ele>76</ele>
        <time>2025-05-13T10:36:13Z</time>
      </trkpt>
      <trkpt lat="47.49467" lon="-2.82504">
        <ele>76</ele>
        <time>2025-05-13T10:36:14Z</time>
      </trkpt>
      <trkpt lat="47.49469" lon="-2.82509">
        <ele>77</ele>
        <time>2025-05-13T10:36:15Z</time>
      </trkpt>
      <trkpt lat="47.4947" lon="-2.82513">
        <ele>77</ele>
        <time>2025-05-13T10:36:16Z</time>
      </trkpt>
      <trkpt lat="47.49472" lon="-2.82518">
        <ele>77</ele>
        <time>2025-05-13T10:36:17Z</time>
      </trkpt>
      <trkpt lat="47.49474" lon="-2.82522">
        <ele>77</ele>
        <time>2025-05-13T10:36:18Z</time>
      </trkpt>
      <trkpt lat="47.49476" lon="-2.82526">
        <ele>77</ele>
        <time>2025-05-13T10:36:19Z</time>
      </trkpt>
      <trkpt lat="47.49478" lon="-2.8253">
        <ele>77</ele>
        <time>2025-05-13T10:36:20Z</time>
      </trkpt>
      <trkpt lat="47.4948" lon="-2.82535">
        <ele>78</ele>
        <time>2025-05-13T10:36:21Z</time>
      </trkpt>
      <trkpt lat="47.49482" lon="-2.82539">
        <ele>78</ele>
        <time>2025-05-13T10:36:22Z</time>
      </trkpt>
      <trkpt lat="47.49483" lon="-2.82543">
        <ele>79</ele>
        <time>2025-05-13T10:36:23Z</time>
      </trkpt>
      <trkpt lat="47.49484" lon="-2.82547">
        <ele>79</ele>
        <time>2025-05-13T10:36:24Z</time>
      </trkpt>
      <trkpt lat="47.49486" lon="-2.82551">
        <ele>79</ele>
        <time>2025-05-13T10:36:25Z</time>
      </trkpt>
      <trkpt lat="47.49487" lon="-2.82556">
        <ele>79</ele>
        <time>2025-05-13T10:36:26Z</time>
      </trkpt>
      <trkpt lat="47.49489" lon="-2.82561">
        <ele>80</ele>
        <time>2025-05-13T10:36:27Z</time>
      </trkpt>
      <trkpt lat="47.49491" lon="-2.82565">
        <ele>80</ele>
        <time>2025-05-13T10:36:28Z</time>
      </trkpt>
      <trkpt lat="47.49493" lon="-2.8257">
        <ele>80</ele>
        <time>2025-05-13T10:36:29Z</time>
      </trkpt>
      <trkpt lat="47.49495" lon="-2.82575">
        <ele>80</ele>
        <time>2025-05-13T10:36:30Z</time>
      </trkpt>
      <trkpt lat="47.49496" lon="-2.82579">
        <ele>80</ele>
        <time>2025-05-13T10:36:31Z</time>
      </trkpt>
      <trkpt lat="47.49498" lon="-2.82583">
        <ele>80</ele>
        <time>2025-05-13T10:36:32Z</time>
      </trkpt>
      <trkpt lat="47.495" lon="-2.82588">
        <ele>80</ele>
        <time>2025-05-13T10:36:33Z</time>
      </trkpt>
      <trkpt lat="47.49502" lon="-2.82592">
        <ele>80</ele>
        <time>2025-05-13T10:36:34Z</time>
      </trkpt>
      <trkpt lat="47.49503" lon="-2.82596">
        <ele>80</ele>
        <time>2025-05-13T10:36:35Z</time>
      </trkpt>
      <trkpt lat="47.49505" lon="-2.826">
        <ele>81</ele>
        <time>2025-05-13T10:36:36Z</time>
      </trkpt>
      <trkpt lat="47.49507" lon="-2.82604">
        <ele>81</ele>
        <time>2025-05-13T10:36:37Z</time>
      </trkpt>
      <trkpt lat="47.49508" lon="-2.82608">
        <ele>81</ele>
        <time>2025-05-13T10:36:38Z</time>
      </trkpt>
      <trkpt lat="47.4951" lon="-2.82613">
        <ele>81</ele>
        <time>2025-05-13T10:36:39Z</time>
      </trkpt>
      <trkpt lat="47.49511" lon="-2.82617">
        <ele>81</ele>
        <time>2025-05-13T10:36:40Z</time>
      </trkpt>
      <trkpt lat="47.49513" lon="-2.82621">
        <ele>81</ele>
        <time>2025-05-13T10:36:41Z</time>
      </trkpt>
      <trkpt lat="47.49515" lon="-2.82625">
        <ele>82</ele>
        <time>2025-05-13T10:36:42Z</time>
      </trkpt>
      <trkpt lat="47.49517" lon="-2.82628">
        <ele>82</ele>
        <time>2025-05-13T10:36:43Z</time>
      </trkpt>
      <trkpt lat="47.49518" lon="-2.82632">
        <ele>83</ele>
        <time>2025-05-13T10:36:44Z</time>
      </trkpt>
      <trkpt lat="47.4952" lon="-2.82636">
        <ele>83</ele>
        <time>2025-05-13T10:36:45Z</time>
      </trkpt>
      <trkpt lat="47.49522" lon="-2.8264">
        <ele>83</ele>
        <time>2025-05-13T10:36:46Z</time>
      </trkpt>
      <trkpt lat="47.49524" lon="-2.82643">
        <ele>83</ele>
        <time>2025-05-13T10:36:47Z</time>
      </trkpt>
      <trkpt lat="47.49526" lon="-2.82647">
        <ele>83</ele>
        <time>2025-05-13T10:36:48Z</time>
      </trkpt>
      <trkpt lat="47.49528" lon="-2.8265">
        <ele>83</ele>
        <time>2025-05-13T10:36:49Z</time>
      </trkpt>
      <trkpt lat="47.4953" lon="-2.82654">
        <ele>83</ele>
        <time>2025-05-13T10:36:50Z</time>
      </trkpt>
      <trkpt lat="47.49532" lon="-2.82657">
        <ele>83</ele>
        <time>2025-05-13T10:36:51Z</time>
      </trkpt>
      <trkpt lat="47.49534" lon="-2.8266">
        <ele>83</ele>
        <time>2025-05-13T10:36:52Z</time>
      </trkpt>
      <trkpt lat="47.49537" lon="-2.82662">
        <ele>84</ele>
        <time>2025-05-13T10:36:53Z</time>
      </trkpt>
      <trkpt lat="47.49539" lon="-2.82665">
        <ele>84</ele>
        <time>2025-05-13T10:36:54Z</time>
      </trkpt>
      <trkpt lat="47.49542" lon="-2.82668">
        <ele>84</ele>
        <time>2025-05-13T10:36:55Z</time>
      </trkpt>
      <trkpt lat="47.49544" lon="-2.8267">
        <ele>85</ele>
        <time>2025-05-13T10:36:56Z</time>
      </trkpt>
      <trkpt lat="47.49546" lon="-2.82672">
        <ele>84</ele>
        <time>2025-05-13T10:36:57Z</time>
      </trkpt>
      <trkpt lat="47.49549" lon="-2.82674">
        <ele>84</ele>
        <time>2025-05-13T10:36:58Z</time>
      </trkpt>
      <trkpt lat="47.49552" lon="-2.82676">
        <ele>84</ele>
        <time>2025-05-13T10:36:59Z</time>
      </trkpt>
      <trkpt lat="47.49553" lon="-2.82679">
        <ele>84</ele>
        <time>2025-05-13T10:37:00Z</time>
      </trkpt>
      <trkpt lat="47.49556" lon="-2.82681">
        <ele>83</ele>
        <time>2025-05-13T10:37:01Z</time>
      </trkpt>
      <trkpt lat="47.49558" lon="-2.82683">
        <ele>83</ele>
        <time>2025-05-13T10:37:02Z</time>
      </trkpt>
      <trkpt lat="47.49561" lon="-2.82685">
        <ele>84</ele>
        <time>2025-05-13T10:37:03Z</time>
      </trkpt>
      <trkpt lat="47.49563" lon="-2.82687">
        <ele>84</ele>
        <time>2025-05-13T10:37:04Z</time>
      </trkpt>
      <trkpt lat="47.49566" lon="-2.8269">
        <ele>84</ele>
        <time>2025-05-13T10:37:05Z</time>
      </trkpt>
      <trkpt lat="47.49568" lon="-2.82693">
        <ele>84</ele>
        <time>2025-05-13T10:37:06Z</time>
      </trkpt>
      <trkpt lat="47.4957" lon="-2.82696">
        <ele>84</ele>
        <time>2025-05-13T10:37:07Z</time>
      </trkpt>
      <trkpt lat="47.49572" lon="-2.82699">
        <ele>85</ele>
        <time>2025-05-13T10:37:08Z</time>
      </trkpt>
      <trkpt lat="47.49574" lon="-2.82703">
        <ele>85</ele>
        <time>2025-05-13T10:37:09Z</time>
      </trkpt>
      <trkpt lat="47.49575" lon="-2.82706">
        <ele>85</ele>
        <time>2025-05-13T10:37:10Z</time>
      </trkpt>
      <trkpt lat="47.49577" lon="-2.82709">
        <ele>86</ele>
        <time>2025-05-13T10:37:11Z</time>
      </trkpt>
      <trkpt lat="47.49578" lon="-2.82712">
        <ele>85</ele>
        <time>2025-05-13T10:37:12Z</time>
      </trkpt>
      <trkpt lat="47.49579" lon="-2.82716">
        <ele>86</ele>
        <time>2025-05-13T10:37:13Z</time>
      </trkpt>
      <trkpt lat="47.49581" lon="-2.82719">
        <ele>85</ele>
        <time>2025-05-13T10:37:14Z</time>
      </trkpt>
      <trkpt lat="47.49582" lon="-2.82723">
        <ele>85</ele>
        <time>2025-05-13T10:37:15Z</time>
      </trkpt>
      <trkpt lat="47.49583" lon="-2.82727">
        <ele>85</ele>
        <time>2025-05-13T10:37:16Z</time>
      </trkpt>
      <trkpt lat="47.49585" lon="-2.82731">
        <ele>85</ele>
        <time>2025-05-13T10:37:17Z</time>
      </trkpt>
      <trkpt lat="47.49586" lon="-2.82735">
        <ele>84</ele>
        <time>2025-05-13T10:37:18Z</time>
      </trkpt>
      <trkpt lat="47.49587" lon="-2.8274">
        <ele>84</ele>
        <time>2025-05-13T10:37:19Z</time>
      </trkpt>
      <trkpt lat="47.49588" lon="-2.82744">
        <ele>84</ele>
        <time>2025-05-13T10:37:20Z</time>
      </trkpt>
      <trkpt lat="47.49589" lon="-2.82749">
        <ele>83</ele>
        <time>2025-05-13T10:37:21Z</time>
      </trkpt>
      <trkpt lat="47.4959" lon="-2.82754">
        <ele>83</ele>
        <time>2025-05-13T10:37:22Z</time>
      </trkpt>
      <trkpt lat="47.49592" lon="-2.82759">
        <ele>83</ele>
        <time>2025-05-13T10:37:23Z</time>
      </trkpt>
      <trkpt lat="47.49593" lon="-2.82764">
        <ele>82</ele>
        <time>2025-05-13T10:37:24Z</time>
      </trkpt>
      <trkpt lat="47.49594" lon="-2.82769">
        <ele>82</ele>
        <time>2025-05-13T10:37:25Z</time>
      </trkpt>
      <trkpt lat="47.49595" lon="-2.82774">
        <ele>82</ele>
        <time>2025-05-13T10:37:26Z</time>
      </trkpt>
      <trkpt lat="47.49597" lon="-2.8278">
        <ele>82</ele>
        <time>2025-05-13T10:37:27Z</time>
      </trkpt>
      <trkpt lat="47.49598" lon="-2.82785">
        <ele>81</ele>
        <time>2025-05-13T10:37:28Z</time>
      </trkpt>
      <trkpt lat="47.496" lon="-2.82791">
        <ele>81</ele>
        <time>2025-05-13T10:37:29Z</time>
      </trkpt>
      <trkpt lat="47.49602" lon="-2.82796">
        <ele>82</ele>
        <time>2025-05-13T10:37:30Z</time>
      </trkpt>
      <trkpt lat="47.49604" lon="-2.82802">
        <ele>82</ele>
        <time>2025-05-13T10:37:31Z</time>
      </trkpt>
      <trkpt lat="47.49606" lon="-2.82808">
        <ele>82</ele>
        <time>2025-05-13T10:37:32Z</time>
      </trkpt>
      <trkpt lat="47.49608" lon="-2.82815">
        <ele>82</ele>
        <time>2025-05-13T10:37:33Z</time>
      </trkpt>
      <trkpt lat="47.49611" lon="-2.82821">
        <ele>82</ele>
        <time>2025-05-13T10:37:34Z</time>
      </trkpt>
      <trkpt lat="47.49615" lon="-2.82827">
        <ele>82</ele>
        <time>2025-05-13T10:37:35Z</time>
      </trkpt>
      <trkpt lat="47.49619" lon="-2.82831">
        <ele>82</ele>
        <time>2025-05-13T10:37:36Z</time>
      </trkpt>
      <trkpt lat="47.49623" lon="-2.82835">
        <ele>81</ele>
        <time>2025-05-13T10:37:37Z</time>
      </trkpt>
      <trkpt lat="47.49628" lon="-2.82839">
        <ele>80</ele>
        <time>2025-05-13T10:37:38Z</time>
      </trkpt>
      <trkpt lat="47.49633" lon="-2.82841">
        <ele>81</ele>
        <time>2025-05-13T10:37:39Z</time>
      </trkpt>
      <trkpt lat="47.49638" lon="-2.82843">
        <ele>80</ele>
        <time>2025-05-13T10:37:40Z</time>
      </trkpt>
      <trkpt lat="47.49642" lon="-2.82843">
        <ele>80</ele>
        <time>2025-05-13T10:37:41Z</time>
      </trkpt>
      <trkpt lat="47.49646" lon="-2.82843">
        <ele>81</ele>
        <time>2025-05-13T10:37:42Z</time>
      </trkpt>
      <trkpt lat="47.49651" lon="-2.82842">
        <ele>81</ele>
        <time>2025-05-13T10:37:43Z</time>
      </trkpt>
      <trkpt lat="47.49656" lon="-2.82842">
        <ele>82</ele>
        <time>2025-05-13T10:37:44Z</time>
      </trkpt>
      <trkpt lat="47.49661" lon="-2.82842">
        <ele>82</ele>
        <time>2025-05-13T10:37:45Z</time>
      </trkpt>
      <trkpt lat="47.49665" lon="-2.82845">
        <ele>82</ele>
        <time>2025-05-13T10:37:46Z</time>
      </trkpt>
      <trkpt lat="47.49669" lon="-2.82849">
        <ele>82</ele>
        <time>2025-05-13T10:37:47Z</time>
      </trkpt>
      <trkpt lat="47.49673" lon="-2.82854">
        <ele>82</ele>
        <time>2025-05-13T10:37:48Z</time>
      </trkpt>
      <trkpt lat="47.49675" lon="-2.82861">
        <ele>82</ele>
        <time>2025-05-13T10:37:49Z</time>
      </trkpt>
      <trkpt lat="47.49677" lon="-2.82869">
        <ele>82</ele>
        <time>2025-05-13T10:37:50Z</time>
      </trkpt>
      <trkpt lat="47.49679" lon="-2.82877">
        <ele>82</ele>
        <time>2025-05-13T10:37:51Z</time>
      </trkpt>
      <trkpt lat="47.4968" lon="-2.82884">
        <ele>81</ele>
        <time>2025-05-13T10:37:52Z</time>
      </trkpt>
      <trkpt lat="47.49682" lon="-2.82893">
        <ele>81</ele>
        <time>2025-05-13T10:37:53Z</time>
      </trkpt>
      <trkpt lat="47.49683" lon="-2.82901">
        <ele>81</ele>
        <time>2025-05-13T10:37:54Z</time>
      </trkpt>
      <trkpt lat="47.49684" lon="-2.82909">
        <ele>80</ele>
        <time>2025-05-13T10:37:55Z</time>
      </trkpt>
      <trkpt lat="47.49685" lon="-2.82918">
        <ele>80</ele>
        <time>2025-05-13T10:37:56Z</time>
      </trkpt>
      <trkpt lat="47.49686" lon="-2.82927">
        <ele>80</ele>
        <time>2025-05-13T10:37:57Z</time>
      </trkpt>
      <trkpt lat="47.49688" lon="-2.82936">
        <ele>80</ele>
        <time>2025-05-13T10:37:58Z</time>
      </trkpt>
      <trkpt lat="47.49689" lon="-2.82944">
        <ele>79</ele>
        <time>2025-05-13T10:37:59Z</time>
      </trkpt>
      <trkpt lat="47.49691" lon="-2.82954">
        <ele>79</ele>
        <time>2025-05-13T10:38:00Z</time>
      </trkpt>
      <trkpt lat="47.49693" lon="-2.82963">
        <ele>80</ele>
        <time>2025-05-13T10:38:01Z</time>
      </trkpt>
      <trkpt lat="47.49694" lon="-2.82971">
        <ele>80</ele>
        <time>2025-05-13T10:38:02Z</time>
      </trkpt>
      <trkpt lat="47.49695" lon="-2.82979">
        <ele>80</ele>
        <time>2025-05-13T10:38:03Z</time>
      </trkpt>
      <trkpt lat="47.49697" lon="-2.82987">
        <ele>80</ele>
        <time>2025-05-13T10:38:04Z</time>
      </trkpt>
      <trkpt lat="47.49699" lon="-2.82995">
        <ele>80</ele>
        <time>2025-05-13T10:38:05Z</time>
      </trkpt>
      <trkpt lat="47.497" lon="-2.83003">
        <ele>79</ele>
        <time>2025-05-13T10:38:06Z</time>
      </trkpt>
      <trkpt lat="47.49701" lon="-2.8301">
        <ele>80</ele>
        <time>2025-05-13T10:38:07Z</time>
      </trkpt>
      <trkpt lat="47.49702" lon="-2.83017">
        <ele>80</ele>
        <time>2025-05-13T10:38:08Z</time>
      </trkpt>
      <trkpt lat="47.49703" lon="-2.83022">
        <ele>79</ele>
        <time>2025-05-13T10:38:09Z</time>
      </trkpt>
      <trkpt lat="47.49704" lon="-2.83028">
        <ele>79</ele>
        <time>2025-05-13T10:38:10Z</time>
      </trkpt>
      <trkpt lat="47.49705" lon="-2.83034">
        <ele>79</ele>
        <time>2025-05-13T10:38:11Z</time>
      </trkpt>
      <trkpt lat="47.49705" lon="-2.83041">
        <ele>80</ele>
        <time>2025-05-13T10:38:12Z</time>
      </trkpt>
      <trkpt lat="47.49706" lon="-2.83047">
        <ele>81</ele>
        <time>2025-05-13T10:38:13Z</time>
      </trkpt>
      <trkpt lat="47.49707" lon="-2.83053">
        <ele>81</ele>
        <time>2025-05-13T10:38:14Z</time>
      </trkpt>
      <trkpt lat="47.49707" lon="-2.83058">
        <ele>81</ele>
        <time>2025-05-13T10:38:15Z</time>
      </trkpt>
      <trkpt lat="47.49708" lon="-2.83064">
        <ele>82</ele>
        <time>2025-05-13T10:38:16Z</time>
      </trkpt>
      <trkpt lat="47.49708" lon="-2.83069">
        <ele>82</ele>
        <time>2025-05-13T10:38:17Z</time>
      </trkpt>
      <trkpt lat="47.49708" lon="-2.83074">
        <ele>82</ele>
        <time>2025-05-13T10:38:18Z</time>
      </trkpt>
      <trkpt lat="47.49709" lon="-2.83079">
        <ele>82</ele>
        <time>2025-05-13T10:38:19Z</time>
      </trkpt>
      <trkpt lat="47.49709" lon="-2.83084">
        <ele>81</ele>
        <time>2025-05-13T10:38:20Z</time>
      </trkpt>
      <trkpt lat="47.49709" lon="-2.83089">
        <ele>81</ele>
        <time>2025-05-13T10:38:21Z</time>
      </trkpt>
      <trkpt lat="47.49709" lon="-2.83094">
        <ele>81</ele>
        <time>2025-05-13T10:38:22Z</time>
      </trkpt>
      <trkpt lat="47.49709" lon="-2.83099">
        <ele>81</ele>
        <time>2025-05-13T10:38:23Z</time>
      </trkpt>
      <trkpt lat="47.49709" lon="-2.83104">
        <ele>82</ele>
        <time>2025-05-13T10:38:24Z</time>
      </trkpt>
      <trkpt lat="47.4971" lon="-2.83109">
        <ele>81</ele>
        <time>2025-05-13T10:38:25Z</time>
      </trkpt>
      <trkpt lat="47.4971" lon="-2.83114">
        <ele>81</ele>
        <time>2025-05-13T10:38:26Z</time>
      </trkpt>
      <trkpt lat="47.49711" lon="-2.8312">
        <ele>81</ele>
        <time>2025-05-13T10:38:27Z</time>
      </trkpt>
      <trkpt lat="47.49711" lon="-2.83125">
        <ele>81</ele>
        <time>2025-05-13T10:38:28Z</time>
      </trkpt>
      <trkpt lat="47.49712" lon="-2.8313">
        <ele>81</ele>
        <time>2025-05-13T10:38:29Z</time>
      </trkpt>
      <trkpt lat="47.49713" lon="-2.83134">
        <ele>81</ele>
        <time>2025-05-13T10:38:30Z</time>
      </trkpt>
      <trkpt lat="47.49713" lon="-2.83139">
        <ele>82</ele>
        <time>2025-05-13T10:38:31Z</time>
      </trkpt>
      <trkpt lat="47.49714" lon="-2.83144">
        <ele>81</ele>
        <time>2025-05-13T10:38:32Z</time>
      </trkpt>
      <trkpt lat="47.49714" lon="-2.83149">
        <ele>82</ele>
        <time>2025-05-13T10:38:33Z</time>
      </trkpt>
      <trkpt lat="47.49715" lon="-2.83153">
        <ele>82</ele>
        <time>2025-05-13T10:38:34Z</time>
      </trkpt>
      <trkpt lat="47.49716" lon="-2.83158">
        <ele>82</ele>
        <time>2025-05-13T10:38:35Z</time>
      </trkpt>
      <trkpt lat="47.49717" lon="-2.83163">
        <ele>83</ele>
        <time>2025-05-13T10:38:36Z</time>
      </trkpt>
      <trkpt lat="47.49717" lon="-2.83167">
        <ele>83</ele>
        <time>2025-05-13T10:38:37Z</time>
      </trkpt>
      <trkpt lat="47.49718" lon="-2.83172">
        <ele>83</ele>
        <time>2025-05-13T10:38:38Z</time>
      </trkpt>
      <trkpt lat="47.49719" lon="-2.83176">
        <ele>83</ele>
        <time>2025-05-13T10:38:39Z</time>
      </trkpt>
      <trkpt lat="47.49721" lon="-2.8318">
        <ele>83</ele>
        <time>2025-05-13T10:38:40Z</time>
      </trkpt>
      <trkpt lat="47.49723" lon="-2.83184">
        <ele>84</ele>
        <time>2025-05-13T10:38:41Z</time>
      </trkpt>
      <trkpt lat="47.49726" lon="-2.83188">
        <ele>84</ele>
        <time>2025-05-13T10:38:42Z</time>
      </trkpt>
      <trkpt lat="47.49729" lon="-2.83191">
        <ele>84</ele>
        <time>2025-05-13T10:38:43Z</time>
      </trkpt>
      <trkpt lat="47.49731" lon="-2.83195">
        <ele>84</ele>
        <time>2025-05-13T10:38:44Z</time>
      </trkpt>
      <trkpt lat="47.49734" lon="-2.83196">
        <ele>84</ele>
        <time>2025-05-13T10:38:45Z</time>
      </trkpt>
      <trkpt lat="47.49737" lon="-2.83198">
        <ele>83</ele>
        <time>2025-05-13T10:38:46Z</time>
      </trkpt>
      <trkpt lat="47.4974" lon="-2.832">
        <ele>83</ele>
        <time>2025-05-13T10:38:47Z</time>
      </trkpt>
      <trkpt lat="47.49743" lon="-2.83202">
        <ele>83</ele>
        <time>2025-05-13T10:38:48Z</time>
      </trkpt>
      <trkpt lat="47.49746" lon="-2.83203">
        <ele>83</ele>
        <time>2025-05-13T10:38:49Z</time>
      </trkpt>
      <trkpt lat="47.49749" lon="-2.83204">
        <ele>83</ele>
        <time>2025-05-13T10:38:50Z</time>
      </trkpt>
      <trkpt lat="47.49752" lon="-2.83206">
        <ele>83</ele>
        <time>2025-05-13T10:38:51Z</time>
      </trkpt>
      <trkpt lat="47.49755" lon="-2.83208">
        <ele>83</ele>
        <time>2025-05-13T10:38:52Z</time>
      </trkpt>
      <trkpt lat="47.49759" lon="-2.8321">
        <ele>83</ele>
        <time>2025-05-13T10:38:53Z</time>
      </trkpt>
      <trkpt lat="47.49762" lon="-2.83212">
        <ele>83</ele>
        <time>2025-05-13T10:38:54Z</time>
      </trkpt>
      <trkpt lat="47.49765" lon="-2.83213">
        <ele>83</ele>
        <time>2025-05-13T10:38:55Z</time>
      </trkpt>
      <trkpt lat="47.49767" lon="-2.83215">
        <ele>83</ele>
        <time>2025-05-13T10:38:56Z</time>
      </trkpt>
      <trkpt lat="47.4977" lon="-2.83217">
        <ele>84</ele>
        <time>2025-05-13T10:38:57Z</time>
      </trkpt>
      <trkpt lat="47.49773" lon="-2.83219">
        <ele>84</ele>
        <time>2025-05-13T10:38:58Z</time>
      </trkpt>
      <trkpt lat="47.49776" lon="-2.8322">
        <ele>84</ele>
        <time>2025-05-13T10:38:59Z</time>
      </trkpt>
      <trkpt lat="47.49779" lon="-2.83222">
        <ele>84</ele>
        <time>2025-05-13T10:39:00Z</time>
      </trkpt>
      <trkpt lat="47.49782" lon="-2.83223">
        <ele>84</ele>
        <time>2025-05-13T10:39:01Z</time>
      </trkpt>
      <trkpt lat="47.49785" lon="-2.83225">
        <ele>84</ele>
        <time>2025-05-13T10:39:02Z</time>
      </trkpt>
      <trkpt lat="47.49788" lon="-2.83227">
        <ele>84</ele>
        <time>2025-05-13T10:39:03Z</time>
      </trkpt>
      <trkpt lat="47.49791" lon="-2.83228">
        <ele>84</ele>
        <time>2025-05-13T10:39:04Z</time>
      </trkpt>
      <trkpt lat="47.49794" lon="-2.83229">
        <ele>84</ele>
        <time>2025-05-13T10:39:05Z</time>
      </trkpt>
      <trkpt lat="47.49797" lon="-2.8323">
        <ele>84</ele>
        <time>2025-05-13T10:39:06Z</time>
      </trkpt>
      <trkpt lat="47.49801" lon="-2.83232">
        <ele>83</ele>
        <time>2025-05-13T10:39:07Z</time>
      </trkpt>
      <trkpt lat="47.49804" lon="-2.83233">
        <ele>83</ele>
        <time>2025-05-13T10:39:08Z</time>
      </trkpt>
      <trkpt lat="47.49808" lon="-2.83235">
        <ele>84</ele>
        <time>2025-05-13T10:39:09Z</time>
      </trkpt>
      <trkpt lat="47.49811" lon="-2.83237">
        <ele>84</ele>
        <time>2025-05-13T10:39:10Z</time>
      </trkpt>
      <trkpt lat="47.49814" lon="-2.83239">
        <ele>84</ele>
        <time>2025-05-13T10:39:11Z</time>
      </trkpt>
      <trkpt lat="47.49818" lon="-2.83241">
        <ele>84</ele>
        <time>2025-05-13T10:39:12Z</time>
      </trkpt>
      <trkpt lat="47.49821" lon="-2.83242">
        <ele>84</ele>
        <time>2025-05-13T10:39:13Z</time>
      </trkpt>
      <trkpt lat="47.49824" lon="-2.83244">
        <ele>83</ele>
        <time>2025-05-13T10:39:14Z</time>
      </trkpt>
      <trkpt lat="47.49826" lon="-2.83246">
        <ele>82</ele>
        <time>2025-05-13T10:39:15Z</time>
      </trkpt>
      <trkpt lat="47.49829" lon="-2.83247">
        <ele>82</ele>
        <time>2025-05-13T10:39:16Z</time>
      </trkpt>
      <trkpt lat="47.49833" lon="-2.83249">
        <ele>82</ele>
        <time>2025-05-13T10:39:17Z</time>
      </trkpt>
      <trkpt lat="47.49836" lon="-2.83251">
        <ele>83</ele>
        <time>2025-05-13T10:39:18Z</time>
      </trkpt>
      <trkpt lat="47.4984" lon="-2.83253">
        <ele>83</ele>
        <time>2025-05-13T10:39:19Z</time>
      </trkpt>
      <trkpt lat="47.49844" lon="-2.83255">
        <ele>83</ele>
        <time>2025-05-13T10:39:20Z</time>
      </trkpt>
      <trkpt lat="47.49848" lon="-2.83257">
        <ele>83</ele>
        <time>2025-05-13T10:39:21Z</time>
      </trkpt>
      <trkpt lat="47.49851" lon="-2.83259">
        <ele>82</ele>
        <time>2025-05-13T10:39:22Z</time>
      </trkpt>
      <trkpt lat="47.49855" lon="-2.8326">
        <ele>82</ele>
        <time>2025-05-13T10:39:23Z</time>
      </trkpt>
      <trkpt lat="47.49858" lon="-2.83262">
        <ele>82</ele>
        <time>2025-05-13T10:39:24Z</time>
      </trkpt>
      <trkpt lat="47.49861" lon="-2.83263">
        <ele>82</ele>
        <time>2025-05-13T10:39:25Z</time>
      </trkpt>
      <trkpt lat="47.49865" lon="-2.83265">
        <ele>83</ele>
        <time>2025-05-13T10:39:26Z</time>
      </trkpt>
      <trkpt lat="47.49868" lon="-2.83266">
        <ele>84</ele>
        <time>2025-05-13T10:39:27Z</time>
      </trkpt>
      <trkpt lat="47.49872" lon="-2.83268">
        <ele>84</ele>
        <time>2025-05-13T10:39:28Z</time>
      </trkpt>
      <trkpt lat="47.49876" lon="-2.83269">
        <ele>84</ele>
        <time>2025-05-13T10:39:29Z</time>
      </trkpt>
      <trkpt lat="47.4988" lon="-2.83269">
        <ele>84</ele>
        <time>2025-05-13T10:39:30Z</time>
      </trkpt>
      <trkpt lat="47.49883" lon="-2.83271">
        <ele>84</ele>
        <time>2025-05-13T10:39:31Z</time>
      </trkpt>
      <trkpt lat="47.49887" lon="-2.83272">
        <ele>84</ele>
        <time>2025-05-13T10:39:32Z</time>
      </trkpt>
      <trkpt lat="47.49891" lon="-2.83273">
        <ele>85</ele>
        <time>2025-05-13T10:39:33Z</time>
      </trkpt>
      <trkpt lat="47.49894" lon="-2.83275">
        <ele>85</ele>
        <time>2025-05-13T10:39:34Z</time>
      </trkpt>
      <trkpt lat="47.49899" lon="-2.83276">
        <ele>85</ele>
        <time>2025-05-13T10:39:35Z</time>
      </trkpt>
      <trkpt lat="47.49903" lon="-2.83277">
        <ele>86</ele>
        <time>2025-05-13T10:39:36Z</time>
      </trkpt>
      <trkpt lat="47.49907" lon="-2.83279">
        <ele>86</ele>
        <time>2025-05-13T10:39:37Z</time>
      </trkpt>
      <trkpt lat="47.49911" lon="-2.83281">
        <ele>86</ele>
        <time>2025-05-13T10:39:38Z</time>
      </trkpt>
      <trkpt lat="47.49915" lon="-2.83283">
        <ele>86</ele>
        <time>2025-05-13T10:39:39Z</time>
      </trkpt>
      <trkpt lat="47.49919" lon="-2.83285">
        <ele>85</ele>
        <time>2025-05-13T10:39:40Z</time>
      </trkpt>
      <trkpt lat="47.49923" lon="-2.83287">
        <ele>85</ele>
        <time>2025-05-13T10:39:41Z</time>
      </trkpt>
      <trkpt lat="47.49927" lon="-2.83288">
        <ele>85</ele>
        <time>2025-05-13T10:39:42Z</time>
      </trkpt>
      <trkpt lat="47.49932" lon="-2.83289">
        <ele>85</ele>
        <time>2025-05-13T10:39:43Z</time>
      </trkpt>
      <trkpt lat="47.49936" lon="-2.83291">
        <ele>85</ele>
        <time>2025-05-13T10:39:44Z</time>
      </trkpt>
      <trkpt lat="47.4994" lon="-2.83293">
        <ele>84</ele>
        <time>2025-05-13T10:39:45Z</time>
      </trkpt>
      <trkpt lat="47.49944" lon="-2.83295">
        <ele>84</ele>
        <time>2025-05-13T10:39:46Z</time>
      </trkpt>
      <trkpt lat="47.49948" lon="-2.83298">
        <ele>84</ele>
        <time>2025-05-13T10:39:47Z</time>
      </trkpt>
      <trkpt lat="47.49951" lon="-2.83302">
        <ele>84</ele>
        <time>2025-05-13T10:39:48Z</time>
      </trkpt>
      <trkpt lat="47.49955" lon="-2.83306">
        <ele>83</ele>
        <time>2025-05-13T10:39:49Z</time>
      </trkpt>
      <trkpt lat="47.4996" lon="-2.8331">
        <ele>83</ele>
        <time>2025-05-13T10:39:50Z</time>
      </trkpt>
      <trkpt lat="47.49964" lon="-2.83314">
        <ele>83</ele>
        <time>2025-05-13T10:39:51Z</time>
      </trkpt>
      <trkpt lat="47.49968" lon="-2.8332">
        <ele>83</ele>
        <time>2025-05-13T10:39:52Z</time>
      </trkpt>
      <trkpt lat="47.49973" lon="-2.83326">
        <ele>82</ele>
        <time>2025-05-13T10:39:53Z</time>
      </trkpt>
      <trkpt lat="47.49977" lon="-2.83332">
        <ele>82</ele>
        <time>2025-05-13T10:39:54Z</time>
      </trkpt>
      <trkpt lat="47.49981" lon="-2.83338">
        <ele>82</ele>
        <time>2025-05-13T10:39:55Z</time>
      </trkpt>
      <trkpt lat="47.49985" lon="-2.83344">
        <ele>82</ele>
        <time>2025-05-13T10:39:56Z</time>
      </trkpt>
      <trkpt lat="47.49989" lon="-2.8335">
        <ele>82</ele>
        <time>2025-05-13T10:39:57Z</time>
      </trkpt>
      <trkpt lat="47.49992" lon="-2.83356">
        <ele>81</ele>
        <time>2025-05-13T10:39:58Z</time>
      </trkpt>
      <trkpt lat="47.49996" lon="-2.83362">
        <ele>81</ele>
        <time>2025-05-13T10:39:59Z</time>
      </trkpt>
      <trkpt lat="47.5" lon="-2.83367">
        <ele>81</ele>
        <time>2025-05-13T10:40:00Z</time>
      </trkpt>
      <trkpt lat="47.50004" lon="-2.83373">
        <ele>82</ele>
        <time>2025-05-13T10:40:01Z</time>
      </trkpt>
      <trkpt lat="47.50009" lon="-2.83377">
        <ele>82</ele>
        <time>2025-05-13T10:40:02Z</time>
      </trkpt>
      <trkpt lat="47.50014" lon="-2.83382">
        <ele>82</ele>
        <time>2025-05-13T10:40:03Z</time>
      </trkpt>
      <trkpt lat="47.5002" lon="-2.83385">
        <ele>81</ele>
        <time>2025-05-13T10:40:04Z</time>
      </trkpt>
      <trkpt lat="47.50025" lon="-2.83388">
        <ele>82</ele>
        <time>2025-05-13T10:40:05Z</time>
      </trkpt>
      <trkpt lat="47.5003" lon="-2.83391">
        <ele>81</ele>
        <time>2025-05-13T10:40:06Z</time>
      </trkpt>
      <trkpt lat="47.50036" lon="-2.83394">
        <ele>81</ele>
        <time>2025-05-13T10:40:07Z</time>
      </trkpt>
      <trkpt lat="47.50041" lon="-2.83396">
        <ele>81</ele>
        <time>2025-05-13T10:40:08Z</time>
      </trkpt>
      <trkpt lat="47.50047" lon="-2.83398">
        <ele>81</ele>
        <time>2025-05-13T10:40:09Z</time>
      </trkpt>
      <trkpt lat="47.50052" lon="-2.834">
        <ele>81</ele>
        <time>2025-05-13T10:40:10Z</time>
      </trkpt>
      <trkpt lat="47.50057" lon="-2.83402">
        <ele>82</ele>
        <time>2025-05-13T10:40:11Z</time>
      </trkpt>
      <trkpt lat="47.50062" lon="-2.83404">
        <ele>82</ele>
        <time>2025-05-13T10:40:12Z</time>
      </trkpt>
      <trkpt lat="47.50066" lon="-2.83406">
        <ele>82</ele>
        <time>2025-05-13T10:40:13Z</time>
      </trkpt>
      <trkpt lat="47.5007" lon="-2.83408">
        <ele>82</ele>
        <time>2025-05-13T10:40:14Z</time>
      </trkpt>
      <trkpt lat="47.50074" lon="-2.83411">
        <ele>82</ele>
        <time>2025-05-13T10:40:15Z</time>
      </trkpt>
      <trkpt lat="47.50077" lon="-2.83414">
        <ele>82</ele>
        <time>2025-05-13T10:40:16Z</time>
      </trkpt>
      <trkpt lat="47.5008" lon="-2.83417">
        <ele>82</ele>
        <time>2025-05-13T10:40:17Z</time>
      </trkpt>
      <trkpt lat="47.50082" lon="-2.83421">
        <ele>82</ele>
        <time>2025-05-13T10:40:18Z</time>
      </trkpt>
      <trkpt lat="47.50084" lon="-2.83424">
        <ele>82</ele>
        <time>2025-05-13T10:40:19Z</time>
      </trkpt>
      <trkpt lat="47.50087" lon="-2.83426">
        <ele>81</ele>
        <time>2025-05-13T10:40:20Z</time>
      </trkpt>
      <trkpt lat="47.50089" lon="-2.83428">
        <ele>82</ele>
        <time>2025-05-13T10:40:21Z</time>
      </trkpt>
      <trkpt lat="47.50091" lon="-2.8343">
        <ele>82</ele>
        <time>2025-05-13T10:40:22Z</time>
      </trkpt>
      <trkpt lat="47.50093" lon="-2.8343">
        <ele>82</ele>
        <time>2025-05-13T10:40:23Z</time>
      </trkpt>
      <trkpt lat="47.50095" lon="-2.8343">
        <ele>82</ele>
        <time>2025-05-13T10:40:24Z</time>
      </trkpt>
      <trkpt lat="47.50096" lon="-2.83428">
        <ele>82</ele>
        <time>2025-05-13T10:40:25Z</time>
      </trkpt>
      <trkpt lat="47.50097" lon="-2.83426">
        <ele>82</ele>
        <time>2025-05-13T10:40:26Z</time>
      </trkpt>
      <trkpt lat="47.50099" lon="-2.83425">
        <ele>82</ele>
        <time>2025-05-13T10:40:27Z</time>
      </trkpt>
      <trkpt lat="47.50099" lon="-2.83425">
        <ele>82</ele>
        <time>2025-05-13T10:40:28Z</time>
      </trkpt>
      <trkpt lat="47.501" lon="-2.83425">
        <ele>82</ele>
        <time>2025-05-13T10:40:29Z</time>
      </trkpt>
      <trkpt lat="47.50099" lon="-2.83425">
        <ele>82</ele>
        <time>2025-05-13T10:40:30Z</time>
      </trkpt>
      <trkpt lat="47.50099" lon="-2.83425">
        <ele>82</ele>
        <time>2025-05-13T10:40:31Z</time>
      </trkpt>
      <trkpt lat="47.50099" lon="-2.83425">
        <ele>82</ele>
        <time>2025-05-13T10:40:32Z</time>
      </trkpt>
      <trkpt lat="47.50099" lon="-2.83425">
        <ele>82</ele>
        <time>2025-05-13T10:40:33Z</time>
      </trkpt>
      <trkpt lat="47.50099" lon="-2.83425">
        <ele>82</ele>
        <time>2025-05-13T10:40:34Z</time>
      </trkpt>
      <trkpt lat="47.50099" lon="-2.83425">
        <ele>82</ele>
        <time>2025-05-13T10:40:35Z</time>
      </trkpt>
      <trkpt lat="47.50099" lon="-2.83425">
        <ele>82</ele>
        <time>2025-05-13T10:40:36Z</time>
      </trkpt>
      <trkpt lat="47.50099" lon="-2.83425">
        <ele>82</ele>
        <time>2025-05-13T10:40:37Z</time>
      </trkpt>
      <trkpt lat="47.50099" lon="-2.83425">
        <ele>82</ele>
        <time>2025-05-13T10:40:38Z</time>
      </trkpt>
      <trkpt lat="47.50099" lon="-2.83425">
        <ele>82</ele>
        <time>2025-05-13T10:40:39Z</time>
      </trkpt>
      <trkpt lat="47.50099" lon="-2.83425">
        <ele>82</ele>
        <time>2025-05-13T10:40:40Z</time>
      </trkpt>
      <trkpt lat="47.50099" lon="-2.83425">
        <ele>82</ele>
        <time>2025-05-13T10:40:41Z</time>
      </trkpt>
      <trkpt lat="47.50099" lon="-2.83425">
        <ele>82</ele>
        <time>2025-05-13T10:40:42Z</time>
      </trkpt>
      <trkpt lat="47.50101" lon="-2.83426">
        <ele>81</ele>
        <time>2025-05-13T10:40:43Z</time>
      </trkpt>
      <trkpt lat="47.50102" lon="-2.83425">
        <ele>81</ele>
        <time>2025-05-13T10:40:44Z</time>
      </trkpt>
      <trkpt lat="47.50104" lon="-2.83424">
        <ele>81</ele>
        <time>2025-05-13T10:40:45Z</time>
      </trkpt>
      <trkpt lat="47.50105" lon="-2.83422">
        <ele>82</ele>
        <time>2025-05-13T10:40:46Z</time>
      </trkpt>
      <trkpt lat="47.50107" lon="-2.8342">
        <ele>82</ele>
        <time>2025-05-13T10:40:47Z</time>
      </trkpt>
      <trkpt lat="47.50109" lon="-2.83418">
        <ele>82</ele>
        <time>2025-05-13T10:40:48Z</time>
      </trkpt>
      <trkpt lat="47.50111" lon="-2.83416">
        <ele>82</ele>
        <time>2025-05-13T10:40:49Z</time>
      </trkpt>
      <trkpt lat="47.50114" lon="-2.83414">
        <ele>82</ele>
        <time>2025-05-13T10:40:50Z</time>
      </trkpt>
      <trkpt lat="47.50116" lon="-2.83411">
        <ele>82</ele>
        <time>2025-05-13T10:40:51Z</time>
      </trkpt>
      <trkpt lat="47.50119" lon="-2.83409">
        <ele>82</ele>
        <time>2025-05-13T10:40:52Z</time>
      </trkpt>
      <trkpt lat="47.50121" lon="-2.83406">
        <ele>83</ele>
        <time>2025-05-13T10:40:53Z</time>
      </trkpt>
      <trkpt lat="47.50124" lon="-2.83403">
        <ele>83</ele>
        <time>2025-05-13T10:40:54Z</time>
      </trkpt>
      <trkpt lat="47.50126" lon="-2.83401">
        <ele>83</ele>
        <time>2025-05-13T10:40:55Z</time>
      </trkpt>
      <trkpt lat="47.50129" lon="-2.83398">
        <ele>83</ele>
        <time>2025-05-13T10:40:56Z</time>
      </trkpt>
      <trkpt lat="47.50131" lon="-2.83394">
        <ele>83</ele>
        <time>2025-05-13T10:40:57Z</time>
      </trkpt>
      <trkpt lat="47.50133" lon="-2.83391">
        <ele>83</ele>
        <time>2025-05-13T10:40:58Z</time>
      </trkpt>
      <trkpt lat="47.50135" lon="-2.83388">
        <ele>83</ele>
        <time>2025-05-13T10:40:59Z</time>
      </trkpt>
      <trkpt lat="47.50137" lon="-2.83385">
        <ele>82</ele>
        <time>2025-05-13T10:41:00Z</time>
      </trkpt>
      <trkpt lat="47.50139" lon="-2.83382">
        <ele>82</ele>
        <time>2025-05-13T10:41:01Z</time>
      </trkpt>
      <trkpt lat="47.50142" lon="-2.83378">
        <ele>82</ele>
        <time>2025-05-13T10:41:02Z</time>
      </trkpt>
      <trkpt lat="47.50144" lon="-2.83375">
        <ele>82</ele>
        <time>2025-05-13T10:41:03Z</time>
      </trkpt>
      <trkpt lat="47.50146" lon="-2.83372">
        <ele>82</ele>
        <time>2025-05-13T10:41:04Z</time>
      </trkpt>
      <trkpt lat="47.50149" lon="-2.83369">
        <ele>83</ele>
        <time>2025-05-13T10:41:05Z</time>
      </trkpt>
      <trkpt lat="47.50151" lon="-2.83366">
        <ele>83</ele>
        <time>2025-05-13T10:41:06Z</time>
      </trkpt>
      <trkpt lat="47.50153" lon="-2.83362">
        <ele>83</ele>
        <time>2025-05-13T10:41:07Z</time>
      </trkpt>
      <trkpt lat="47.50155" lon="-2.83359">
        <ele>83</ele>
        <time>2025-05-13T10:41:08Z</time>
      </trkpt>
      <trkpt lat="47.50157" lon="-2.83356">
        <ele>83</ele>
        <time>2025-05-13T10:41:09Z</time>
      </trkpt>
      <trkpt lat="47.50159" lon="-2.83352">
        <ele>84</ele>
        <time>2025-05-13T10:41:10Z</time>
      </trkpt>
      <trkpt lat="47.50161" lon="-2.83349">
        <ele>83</ele>
        <time>2025-05-13T10:41:11Z</time>
      </trkpt>
      <trkpt lat="47.50163" lon="-2.83345">
        <ele>83</ele>
        <time>2025-05-13T10:41:12Z</time>
      </trkpt>
      <trkpt lat="47.50165" lon="-2.83342">
        <ele>83</ele>
        <time>2025-05-13T10:41:13Z</time>
      </trkpt>
      <trkpt lat="47.50167" lon="-2.83337">
        <ele>84</ele>
        <time>2025-05-13T10:41:14Z</time>
      </trkpt>
      <trkpt lat="47.5017" lon="-2.83334">
        <ele>84</ele>
        <time>2025-05-13T10:41:15Z</time>
      </trkpt>
      <trkpt lat="47.50172" lon="-2.83331">
        <ele>83</ele>
        <time>2025-05-13T10:41:16Z</time>
      </trkpt>
      <trkpt lat="47.50174" lon="-2.83328">
        <ele>84</ele>
        <time>2025-05-13T10:41:17Z</time>
      </trkpt>
      <trkpt lat="47.50175" lon="-2.83325">
        <ele>84</ele>
        <time>2025-05-13T10:41:18Z</time>
      </trkpt>
      <trkpt lat="47.50177" lon="-2.83322">
        <ele>84</ele>
        <time>2025-05-13T10:41:19Z</time>
      </trkpt>
      <trkpt lat="47.50179" lon="-2.83319">
        <ele>84</ele>
        <time>2025-05-13T10:41:20Z</time>
      </trkpt>
      <trkpt lat="47.5018" lon="-2.83315">
        <ele>85</ele>
        <time>2025-05-13T10:41:21Z</time>
      </trkpt>
      <trkpt lat="47.50182" lon="-2.83312">
        <ele>85</ele>
        <time>2025-05-13T10:41:22Z</time>
      </trkpt>
      <trkpt lat="47.50183" lon="-2.83309">
        <ele>85</ele>
        <time>2025-05-13T10:41:23Z</time>
      </trkpt>
      <trkpt lat="47.50185" lon="-2.83306">
        <ele>85</ele>
        <time>2025-05-13T10:41:24Z</time>
      </trkpt>
      <trkpt lat="47.50186" lon="-2.83302">
        <ele>85</ele>
        <time>2025-05-13T10:41:25Z</time>
      </trkpt>
      <trkpt lat="47.50188" lon="-2.83299">
        <ele>85</ele>
        <time>2025-05-13T10:41:26Z</time>
      </trkpt>
      <trkpt lat="47.50189" lon="-2.83297">
        <ele>85</ele>
        <time>2025-05-13T10:41:27Z</time>
      </trkpt>
      <trkpt lat="47.50191" lon="-2.83293">
        <ele>85</ele>
        <time>2025-05-13T10:41:28Z</time>
      </trkpt>
      <trkpt lat="47.50193" lon="-2.8329">
        <ele>86</ele>
        <time>2025-05-13T10:41:29Z</time>
      </trkpt>
      <trkpt lat="47.50195" lon="-2.83287">
        <ele>86</ele>
        <time>2025-05-13T10:41:30Z</time>
      </trkpt>
      <trkpt lat="47.50197" lon="-2.83284">
        <ele>86</ele>
        <time>2025-05-13T10:41:31Z</time>
      </trkpt>
      <trkpt lat="47.50199" lon="-2.83281">
        <ele>86</ele>
        <time>2025-05-13T10:41:32Z</time>
      </trkpt>
      <trkpt lat="47.502" lon="-2.83278">
        <ele>86</ele>
        <time>2025-05-13T10:41:33Z</time>
      </trkpt>
      <trkpt lat="47.50202" lon="-2.83275">
        <ele>87</ele>
        <time>2025-05-13T10:41:34Z</time>
      </trkpt>
      <trkpt lat="47.50204" lon="-2.83273">
        <ele>87</ele>
        <time>2025-05-13T10:41:35Z</time>
      </trkpt>
      <trkpt lat="47.50206" lon="-2.83271">
        <ele>88</ele>
        <time>2025-05-13T10:41:36Z</time>
      </trkpt>
      <trkpt lat="47.50208" lon="-2.8327">
        <ele>88</ele>
        <time>2025-05-13T10:41:37Z</time>
      </trkpt>
      <trkpt lat="47.5021" lon="-2.83269">
        <ele>87</ele>
        <time>2025-05-13T10:41:38Z</time>
      </trkpt>
      <trkpt lat="47.50212" lon="-2.83268">
        <ele>87</ele>
        <time>2025-05-13T10:41:39Z</time>
      </trkpt>
      <trkpt lat="47.50213" lon="-2.83268">
        <ele>87</ele>
        <time>2025-05-13T10:41:40Z</time>
      </trkpt>
      <trkpt lat="47.50215" lon="-2.83268">
        <ele>87</ele>
        <time>2025-05-13T10:41:41Z</time>
      </trkpt>
      <trkpt lat="47.50216" lon="-2.83267">
        <ele>87</ele>
        <time>2025-05-13T10:41:42Z</time>
      </trkpt>
      <trkpt lat="47.50218" lon="-2.83266">
        <ele>87</ele>
        <time>2025-05-13T10:41:43Z</time>
      </trkpt>
      <trkpt lat="47.5022" lon="-2.83266">
        <ele>88</ele>
        <time>2025-05-13T10:41:44Z</time>
      </trkpt>
      <trkpt lat="47.50222" lon="-2.83266">
        <ele>88</ele>
        <time>2025-05-13T10:41:45Z</time>
      </trkpt>
      <trkpt lat="47.50224" lon="-2.83266">
        <ele>88</ele>
        <time>2025-05-13T10:41:46Z</time>
      </trkpt>
      <trkpt lat="47.50225" lon="-2.83267">
        <ele>88</ele>
        <time>2025-05-13T10:41:47Z</time>
      </trkpt>
      <trkpt lat="47.50227" lon="-2.83269">
        <ele>88</ele>
        <time>2025-05-13T10:41:48Z</time>
      </trkpt>
      <trkpt lat="47.50228" lon="-2.83272">
        <ele>88</ele>
        <time>2025-05-13T10:41:49Z</time>
      </trkpt>
      <trkpt lat="47.5023" lon="-2.83275">
        <ele>88</ele>
        <time>2025-05-13T10:41:50Z</time>
      </trkpt>
      <trkpt lat="47.50231" lon="-2.83279">
        <ele>88</ele>
        <time>2025-05-13T10:41:51Z</time>
      </trkpt>
      <trkpt lat="47.50233" lon="-2.83282">
        <ele>88</ele>
        <time>2025-05-13T10:41:52Z</time>
      </trkpt>
      <trkpt lat="47.50234" lon="-2.83286">
        <ele>87</ele>
        <time>2025-05-13T10:41:53Z</time>
      </trkpt>
      <trkpt lat="47.50234" lon="-2.8329">
        <ele>87</ele>
        <time>2025-05-13T10:41:54Z</time>
      </trkpt>
      <trkpt lat="47.50235" lon="-2.83294">
        <ele>87</ele>
        <time>2025-05-13T10:41:55Z</time>
      </trkpt>
      <trkpt lat="47.50236" lon="-2.83299">
        <ele>87</ele>
        <time>2025-05-13T10:41:56Z</time>
      </trkpt>
      <trkpt lat="47.50237" lon="-2.83303">
        <ele>87</ele>
        <time>2025-05-13T10:41:57Z</time>
      </trkpt>
      <trkpt lat="47.50239" lon="-2.83308">
        <ele>88</ele>
        <time>2025-05-13T10:41:58Z</time>
      </trkpt>
      <trkpt lat="47.5024" lon="-2.83313">
        <ele>88</ele>
        <time>2025-05-13T10:41:59Z</time>
      </trkpt>
      <trkpt lat="47.50242" lon="-2.83318">
        <ele>89</ele>
        <time>2025-05-13T10:42:00Z</time>
      </trkpt>
      <trkpt lat="47.50243" lon="-2.83323">
        <ele>89</ele>
        <time>2025-05-13T10:42:01Z</time>
      </trkpt>
      <trkpt lat="47.50244" lon="-2.83328">
        <ele>89</ele>
        <time>2025-05-13T10:42:02Z</time>
      </trkpt>
      <trkpt lat="47.50245" lon="-2.83334">
        <ele>89</ele>
        <time>2025-05-13T10:42:03Z</time>
      </trkpt>
      <trkpt lat="47.50246" lon="-2.83339">
        <ele>89</ele>
        <time>2025-05-13T10:42:04Z</time>
      </trkpt>
      <trkpt lat="47.50247" lon="-2.83345">
        <ele>89</ele>
        <time>2025-05-13T10:42:05Z</time>
      </trkpt>
      <trkpt lat="47.50249" lon="-2.83349">
        <ele>89</ele>
        <time>2025-05-13T10:42:06Z</time>
      </trkpt>
      <trkpt lat="47.5025" lon="-2.83354">
        <ele>89</ele>
        <time>2025-05-13T10:42:07Z</time>
      </trkpt>
      <trkpt lat="47.50252" lon="-2.83359">
        <ele>89</ele>
        <time>2025-05-13T10:42:08Z</time>
      </trkpt>
      <trkpt lat="47.50253" lon="-2.83364">
        <ele>89</ele>
        <time>2025-05-13T10:42:09Z</time>
      </trkpt>
      <trkpt lat="47.50254" lon="-2.83369">
        <ele>89</ele>
        <time>2025-05-13T10:42:10Z</time>
      </trkpt>
      <trkpt lat="47.50255" lon="-2.83373">
        <ele>89</ele>
        <time>2025-05-13T10:42:11Z</time>
      </trkpt>
      <trkpt lat="47.50256" lon="-2.83379">
        <ele>88</ele>
        <time>2025-05-13T10:42:12Z</time>
      </trkpt>
      <trkpt lat="47.50257" lon="-2.83383">
        <ele>89</ele>
        <time>2025-05-13T10:42:13Z</time>
      </trkpt>
      <trkpt lat="47.50259" lon="-2.83387">
        <ele>89</ele>
        <time>2025-05-13T10:42:14Z</time>
      </trkpt>
      <trkpt lat="47.5026" lon="-2.83392">
        <ele>89</ele>
        <time>2025-05-13T10:42:15Z</time>
      </trkpt>
      <trkpt lat="47.50261" lon="-2.83397">
        <ele>89</ele>
        <time>2025-05-13T10:42:16Z</time>
      </trkpt>
      <trkpt lat="47.50262" lon="-2.83403">
        <ele>89</ele>
        <time>2025-05-13T10:42:17Z</time>
      </trkpt>
      <trkpt lat="47.50263" lon="-2.83408">
        <ele>89</ele>
        <time>2025-05-13T10:42:18Z</time>
      </trkpt>
      <trkpt lat="47.50265" lon="-2.83413">
        <ele>89</ele>
        <time>2025-05-13T10:42:19Z</time>
      </trkpt>
      <trkpt lat="47.50265" lon="-2.83418">
        <ele>89</ele>
        <time>2025-05-13T10:42:20Z</time>
      </trkpt>
      <trkpt lat="47.50267" lon="-2.83423">
        <ele>89</ele>
        <time>2025-05-13T10:42:21Z</time>
      </trkpt>
      <trkpt lat="47.50268" lon="-2.83429">
        <ele>89</ele>
        <time>2025-05-13T10:42:22Z</time>
      </trkpt>
      <trkpt lat="47.5027" lon="-2.83434">
        <ele>89</ele>
        <time>2025-05-13T10:42:23Z</time>
      </trkpt>
      <trkpt lat="47.50271" lon="-2.83439">
        <ele>88</ele>
        <time>2025-05-13T10:42:24Z</time>
      </trkpt>
      <trkpt lat="47.50273" lon="-2.83445">
        <ele>88</ele>
        <time>2025-05-13T10:42:25Z</time>
      </trkpt>
      <trkpt lat="47.50275" lon="-2.83451">
        <ele>88</ele>
        <time>2025-05-13T10:42:26Z</time>
      </trkpt>
      <trkpt lat="47.50276" lon="-2.83458">
        <ele>88</ele>
        <time>2025-05-13T10:42:27Z</time>
      </trkpt>
      <trkpt lat="47.50278" lon="-2.83463">
        <ele>88</ele>
        <time>2025-05-13T10:42:28Z</time>
      </trkpt>
      <trkpt lat="47.50279" lon="-2.8347">
        <ele>88</ele>
        <time>2025-05-13T10:42:29Z</time>
      </trkpt>
      <trkpt lat="47.5028" lon="-2.83475">
        <ele>88</ele>
        <time>2025-05-13T10:42:30Z</time>
      </trkpt>
      <trkpt lat="47.50282" lon="-2.83481">
        <ele>88</ele>
        <time>2025-05-13T10:42:31Z</time>
      </trkpt>
      <trkpt lat="47.50283" lon="-2.83487">
        <ele>89</ele>
        <time>2025-05-13T10:42:32Z</time>
      </trkpt>
      <trkpt lat="47.50285" lon="-2.83492">
        <ele>89</ele>
        <time>2025-05-13T10:42:33Z</time>
      </trkpt>
      <trkpt lat="47.50286" lon="-2.83498">
        <ele>89</ele>
        <time>2025-05-13T10:42:34Z</time>
      </trkpt>
      <trkpt lat="47.50287" lon="-2.83503">
        <ele>89</ele>
        <time>2025-05-13T10:42:35Z</time>
      </trkpt>
      <trkpt lat="47.50288" lon="-2.83509">
        <ele>89</ele>
        <time>2025-05-13T10:42:36Z</time>
      </trkpt>
      <trkpt lat="47.5029" lon="-2.83514">
        <ele>89</ele>
        <time>2025-05-13T10:42:37Z</time>
      </trkpt>
      <trkpt lat="47.50292" lon="-2.8352">
        <ele>90</ele>
        <time>2025-05-13T10:42:38Z</time>
      </trkpt>
      <trkpt lat="47.50293" lon="-2.83525">
        <ele>90</ele>
        <time>2025-05-13T10:42:39Z</time>
      </trkpt>
      <trkpt lat="47.50295" lon="-2.83531">
        <ele>90</ele>
        <time>2025-05-13T10:42:40Z</time>
      </trkpt>
      <trkpt lat="47.50297" lon="-2.83536">
        <ele>90</ele>
        <time>2025-05-13T10:42:41Z</time>
      </trkpt>
      <trkpt lat="47.50298" lon="-2.83541">
        <ele>89</ele>
        <time>2025-05-13T10:42:42Z</time>
      </trkpt>
      <trkpt lat="47.503" lon="-2.83546">
        <ele>89</ele>
        <time>2025-05-13T10:42:43Z</time>
      </trkpt>
      <trkpt lat="47.50302" lon="-2.8355">
        <ele>89</ele>
        <time>2025-05-13T10:42:44Z</time>
      </trkpt>
      <trkpt lat="47.50304" lon="-2.83555">
        <ele>89</ele>
        <time>2025-05-13T10:42:45Z</time>
      </trkpt>
      <trkpt lat="47.50306" lon="-2.8356">
        <ele>89</ele>
        <time>2025-05-13T10:42:46Z</time>
      </trkpt>
      <trkpt lat="47.50307" lon="-2.83566">
        <ele>88</ele>
        <time>2025-05-13T10:42:47Z</time>
      </trkpt>
      <trkpt lat="47.50309" lon="-2.83572">
        <ele>89</ele>
        <time>2025-05-13T10:42:48Z</time>
      </trkpt>
      <trkpt lat="47.50311" lon="-2.83578">
        <ele>89</ele>
        <time>2025-05-13T10:42:49Z</time>
      </trkpt>
      <trkpt lat="47.50313" lon="-2.83583">
        <ele>89</ele>
        <time>2025-05-13T10:42:50Z</time>
      </trkpt>
      <trkpt lat="47.50316" lon="-2.83589">
        <ele>89</ele>
        <time>2025-05-13T10:42:51Z</time>
      </trkpt>
      <trkpt lat="47.50318" lon="-2.83594">
        <ele>90</ele>
        <time>2025-05-13T10:42:52Z</time>
      </trkpt>
      <trkpt lat="47.5032" lon="-2.836">
        <ele>90</ele>
        <time>2025-05-13T10:42:53Z</time>
      </trkpt>
      <trkpt lat="47.50323" lon="-2.83605">
        <ele>90</ele>
        <time>2025-05-13T10:42:54Z</time>
      </trkpt>
      <trkpt lat="47.50326" lon="-2.8361">
        <ele>90</ele>
        <time>2025-05-13T10:42:55Z</time>
      </trkpt>
      <trkpt lat="47.50328" lon="-2.83615">
        <ele>90</ele>
        <time>2025-05-13T10:42:56Z</time>
      </trkpt>
      <trkpt lat="47.50331" lon="-2.8362">
        <ele>89</ele>
        <time>2025-05-13T10:42:57Z</time>
      </trkpt>
      <trkpt lat="47.50333" lon="-2.83624">
        <ele>90</ele>
        <time>2025-05-13T10:42:58Z</time>
      </trkpt>
      <trkpt lat="47.50336" lon="-2.83628">
        <ele>90</ele>
        <time>2025-05-13T10:42:59Z</time>
      </trkpt>
      <trkpt lat="47.50339" lon="-2.83633">
        <ele>89</ele>
        <time>2025-05-13T10:43:00Z</time>
      </trkpt>
      <trkpt lat="47.50341" lon="-2.83637">
        <ele>90</ele>
        <time>2025-05-13T10:43:01Z</time>
      </trkpt>
      <trkpt lat="47.50344" lon="-2.83642">
        <ele>90</ele>
        <time>2025-05-13T10:43:02Z</time>
      </trkpt>
      <trkpt lat="47.50347" lon="-2.83646">
        <ele>90</ele>
        <time>2025-05-13T10:43:03Z</time>
      </trkpt>
      <trkpt lat="47.5035" lon="-2.8365">
        <ele>89</ele>
        <time>2025-05-13T10:43:04Z</time>
      </trkpt>
      <trkpt lat="47.50352" lon="-2.83655">
        <ele>89</ele>
        <time>2025-05-13T10:43:05Z</time>
      </trkpt>
      <trkpt lat="47.50355" lon="-2.8366">
        <ele>89</ele>
        <time>2025-05-13T10:43:06Z</time>
      </trkpt>
      <trkpt lat="47.50358" lon="-2.83664">
        <ele>89</ele>
        <time>2025-05-13T10:43:07Z</time>
      </trkpt>
      <trkpt lat="47.50361" lon="-2.83668">
        <ele>89</ele>
        <time>2025-05-13T10:43:08Z</time>
      </trkpt>
      <trkpt lat="47.50364" lon="-2.83671">
        <ele>90</ele>
        <time>2025-05-13T10:43:09Z</time>
      </trkpt>
      <trkpt lat="47.50367" lon="-2.83674">
        <ele>90</ele>
        <time>2025-05-13T10:43:10Z</time>
      </trkpt>
      <trkpt lat="47.5037" lon="-2.83677">
        <ele>90</ele>
        <time>2025-05-13T10:43:11Z</time>
      </trkpt>
      <trkpt lat="47.50373" lon="-2.8368">
        <ele>90</ele>
        <time>2025-05-13T10:43:12Z</time>
      </trkpt>
      <trkpt lat="47.50376" lon="-2.83683">
        <ele>90</ele>
        <time>2025-05-13T10:43:13Z</time>
      </trkpt>
      <trkpt lat="47.5038" lon="-2.83686">
        <ele>90</ele>
        <time>2025-05-13T10:43:14Z</time>
      </trkpt>
      <trkpt lat="47.50383" lon="-2.83688">
        <ele>90</ele>
        <time>2025-05-13T10:43:15Z</time>
      </trkpt>
      <trkpt lat="47.50386" lon="-2.83691">
        <ele>89</ele>
        <time>2025-05-13T10:43:16Z</time>
      </trkpt>
      <trkpt lat="47.5039" lon="-2.83694">
        <ele>89</ele>
        <time>2025-05-13T10:43:17Z</time>
      </trkpt>
      <trkpt lat="47.50393" lon="-2.83698">
        <ele>89</ele>
        <time>2025-05-13T10:43:18Z</time>
      </trkpt>
      <trkpt lat="47.50396" lon="-2.83701">
        <ele>89</ele>
        <time>2025-05-13T10:43:19Z</time>
      </trkpt>
      <trkpt lat="47.50399" lon="-2.83703">
        <ele>90</ele>
        <time>2025-05-13T10:43:20Z</time>
      </trkpt>
      <trkpt lat="47.50402" lon="-2.83704">
        <ele>90</ele>
        <time>2025-05-13T10:43:21Z</time>
      </trkpt>
      <trkpt lat="47.50406" lon="-2.83704">
        <ele>90</ele>
        <time>2025-05-13T10:43:22Z</time>
      </trkpt>
      <trkpt lat="47.50409" lon="-2.83702">
        <ele>90</ele>
        <time>2025-05-13T10:43:23Z</time>
      </trkpt>
      <trkpt lat="47.50412" lon="-2.83701">
        <ele>90</ele>
        <time>2025-05-13T10:43:24Z</time>
      </trkpt>
      <trkpt lat="47.50415" lon="-2.83701">
        <ele>90</ele>
        <time>2025-05-13T10:43:25Z</time>
      </trkpt>
      <trkpt lat="47.50417" lon="-2.83703">
        <ele>90</ele>
        <time>2025-05-13T10:43:26Z</time>
      </trkpt>
      <trkpt lat="47.5042" lon="-2.83706">
        <ele>90</ele>
        <time>2025-05-13T10:43:27Z</time>
      </trkpt>
      <trkpt lat="47.50422" lon="-2.83709">
        <ele>91</ele>
        <time>2025-05-13T10:43:28Z</time>
      </trkpt>
      <trkpt lat="47.50424" lon="-2.83713">
        <ele>91</ele>
        <time>2025-05-13T10:43:29Z</time>
      </trkpt>
      <trkpt lat="47.50426" lon="-2.83718">
        <ele>92</ele>
        <time>2025-05-13T10:43:30Z</time>
      </trkpt>
      <trkpt lat="47.50427" lon="-2.83722">
        <ele>92</ele>
        <time>2025-05-13T10:43:31Z</time>
      </trkpt>
      <trkpt lat="47.50429" lon="-2.83726">
        <ele>92</ele>
        <time>2025-05-13T10:43:32Z</time>
      </trkpt>
      <trkpt lat="47.50431" lon="-2.83729">
        <ele>91</ele>
        <time>2025-05-13T10:43:33Z</time>
      </trkpt>
      <trkpt lat="47.50434" lon="-2.83733">
        <ele>91</ele>
        <time>2025-05-13T10:43:34Z</time>
      </trkpt>
      <trkpt lat="47.50438" lon="-2.83736">
        <ele>92</ele>
        <time>2025-05-13T10:43:35Z</time>
      </trkpt>
      <trkpt lat="47.50442" lon="-2.83739">
        <ele>91</ele>
        <time>2025-05-13T10:43:36Z</time>
      </trkpt>
      <trkpt lat="47.50446" lon="-2.83741">
        <ele>91</ele>
        <time>2025-05-13T10:43:37Z</time>
      </trkpt>
      <trkpt lat="47.5045" lon="-2.83744">
        <ele>91</ele>
        <time>2025-05-13T10:43:38Z</time>
      </trkpt>
      <trkpt lat="47.50454" lon="-2.83746">
        <ele>91</ele>
        <time>2025-05-13T10:43:39Z</time>
      </trkpt>
      <trkpt lat="47.50458" lon="-2.83748">
        <ele>91</ele>
        <time>2025-05-13T10:43:40Z</time>
      </trkpt>
      <trkpt lat="47.50462" lon="-2.8375">
        <ele>91</ele>
        <time>2025-05-13T10:43:41Z</time>
      </trkpt>
      <trkpt lat="47.50466" lon="-2.83752">
        <ele>91</ele>
        <time>2025-05-13T10:43:42Z</time>
      </trkpt>
      <trkpt lat="47.5047" lon="-2.83754">
        <ele>90</ele>
        <time>2025-05-13T10:43:43Z</time>
      </trkpt>
      <trkpt lat="47.50474" lon="-2.83755">
        <ele>90</ele>
        <time>2025-05-13T10:43:44Z</time>
      </trkpt>
      <trkpt lat="47.50479" lon="-2.83756">
        <ele>89</ele>
        <time>2025-05-13T10:43:45Z</time>
      </trkpt>
      <trkpt lat="47.50483" lon="-2.83757">
        <ele>89</ele>
        <time>2025-05-13T10:43:46Z</time>
      </trkpt>
      <trkpt lat="47.50487" lon="-2.83758">
        <ele>89</ele>
        <time>2025-05-13T10:43:47Z</time>
      </trkpt>
      <trkpt lat="47.50491" lon="-2.83759">
        <ele>90</ele>
        <time>2025-05-13T10:43:48Z</time>
      </trkpt>
      <trkpt lat="47.50495" lon="-2.8376">
        <ele>90</ele>
        <time>2025-05-13T10:43:49Z</time>
      </trkpt>
      <trkpt lat="47.50499" lon="-2.8376">
        <ele>90</ele>
        <time>2025-05-13T10:43:50Z</time>
      </trkpt>
      <trkpt lat="47.50503" lon="-2.8376">
        <ele>90</ele>
        <time>2025-05-13T10:43:51Z</time>
      </trkpt>
      <trkpt lat="47.50508" lon="-2.83761">
        <ele>90</ele>
        <time>2025-05-13T10:43:52Z</time>
      </trkpt>
      <trkpt lat="47.50512" lon="-2.83762">
        <ele>90</ele>
        <time>2025-05-13T10:43:53Z</time>
      </trkpt>
      <trkpt lat="47.50516" lon="-2.83762">
        <ele>90</ele>
        <time>2025-05-13T10:43:54Z</time>
      </trkpt>
      <trkpt lat="47.5052" lon="-2.83762">
        <ele>89</ele>
        <time>2025-05-13T10:43:55Z</time>
      </trkpt>
      <trkpt lat="47.50524" lon="-2.83762">
        <ele>90</ele>
        <time>2025-05-13T10:43:56Z</time>
      </trkpt>
      <trkpt lat="47.50528" lon="-2.83763">
        <ele>89</ele>
        <time>2025-05-13T10:43:57Z</time>
      </trkpt>
      <trkpt lat="47.50532" lon="-2.83764">
        <ele>90</ele>
        <time>2025-05-13T10:43:58Z</time>
      </trkpt>
      <trkpt lat="47.50536" lon="-2.83764">
        <ele>90</ele>
        <time>2025-05-13T10:43:59Z</time>
      </trkpt>
      <trkpt lat="47.5054" lon="-2.83765">
        <ele>90</ele>
        <time>2025-05-13T10:44:00Z</time>
      </trkpt>
      <trkpt lat="47.50545" lon="-2.83765">
        <ele>91</ele>
        <time>2025-05-13T10:44:01Z</time>
      </trkpt>
      <trkpt lat="47.50549" lon="-2.83765">
        <ele>91</ele>
        <time>2025-05-13T10:44:02Z</time>
      </trkpt>
      <trkpt lat="47.50554" lon="-2.83765">
        <ele>91</ele>
        <time>2025-05-13T10:44:03Z</time>
      </trkpt>
      <trkpt lat="47.50558" lon="-2.83765">
        <ele>91</ele>
        <time>2025-05-13T10:44:04Z</time>
      </trkpt>
      <trkpt lat="47.50563" lon="-2.83765">
        <ele>91</ele>
        <time>2025-05-13T10:44:05Z</time>
      </trkpt>
      <trkpt lat="47.50568" lon="-2.83765">
        <ele>91</ele>
        <time>2025-05-13T10:44:06Z</time>
      </trkpt>
      <trkpt lat="47.50573" lon="-2.83765">
        <ele>91</ele>
        <time>2025-05-13T10:44:07Z</time>
      </trkpt>
      <trkpt lat="47.50578" lon="-2.83766">
        <ele>91</ele>
        <time>2025-05-13T10:44:08Z</time>
      </trkpt>
      <trkpt lat="47.50583" lon="-2.83766">
        <ele>91</ele>
        <time>2025-05-13T10:44:09Z</time>
      </trkpt>
      <trkpt lat="47.50587" lon="-2.83767">
        <ele>91</ele>
        <time>2025-05-13T10:44:10Z</time>
      </trkpt>
      <trkpt lat="47.50592" lon="-2.83767">
        <ele>90</ele>
        <time>2025-05-13T10:44:11Z</time>
      </trkpt>
      <trkpt lat="47.50597" lon="-2.83767">
        <ele>90</ele>
        <time>2025-05-13T10:44:12Z</time>
      </trkpt>
      <trkpt lat="47.50603" lon="-2.83768">
        <ele>90</ele>
        <time>2025-05-13T10:44:13Z</time>
      </trkpt>
      <trkpt lat="47.50608" lon="-2.83768">
        <ele>90</ele>
        <time>2025-05-13T10:44:14Z</time>
      </trkpt>
      <trkpt lat="47.50613" lon="-2.83769">
        <ele>90</ele>
        <time>2025-05-13T10:44:15Z</time>
      </trkpt>
      <trkpt lat="47.50618" lon="-2.83769">
        <ele>90</ele>
        <time>2025-05-13T10:44:16Z</time>
      </trkpt>
      <trkpt lat="47.50623" lon="-2.8377">
        <ele>90</ele>
        <time>2025-05-13T10:44:17Z</time>
      </trkpt>
      <trkpt lat="47.50628" lon="-2.8377">
        <ele>89</ele>
        <time>2025-05-13T10:44:18Z</time>
      </trkpt>
      <trkpt lat="47.50633" lon="-2.83771">
        <ele>89</ele>
        <time>2025-05-13T10:44:19Z</time>
      </trkpt>
      <trkpt lat="47.50638" lon="-2.83771">
        <ele>89</ele>
        <time>2025-05-13T10:44:20Z</time>
      </trkpt>
      <trkpt lat="47.50643" lon="-2.83772">
        <ele>89</ele>
        <time>2025-05-13T10:44:21Z</time>
      </trkpt>
      <trkpt lat="47.50647" lon="-2.83772">
        <ele>90</ele>
        <time>2025-05-13T10:44:22Z</time>
      </trkpt>
      <trkpt lat="47.50652" lon="-2.83773">
        <ele>90</ele>
        <time>2025-05-13T10:44:23Z</time>
      </trkpt>
      <trkpt lat="47.50657" lon="-2.83773">
        <ele>90</ele>
        <time>2025-05-13T10:44:24Z</time>
      </trkpt>
      <trkpt lat="47.50661" lon="-2.83773">
        <ele>90</ele>
        <time>2025-05-13T10:44:25Z</time>
      </trkpt>
      <trkpt lat="47.50665" lon="-2.83773">
        <ele>90</ele>
        <time>2025-05-13T10:44:26Z</time>
      </trkpt>
      <trkpt lat="47.50669" lon="-2.83774">
        <ele>90</ele>
        <time>2025-05-13T10:44:27Z</time>
      </trkpt>
      <trkpt lat="47.50673" lon="-2.83775">
        <ele>90</ele>
        <time>2025-05-13T10:44:28Z</time>
      </trkpt>
      <trkpt lat="47.50677" lon="-2.83776">
        <ele>90</ele>
        <time>2025-05-13T10:44:29Z</time>
      </trkpt>
      <trkpt lat="47.50682" lon="-2.83776">
        <ele>90</ele>
        <time>2025-05-13T10:44:30Z</time>
      </trkpt>
      <trkpt lat="47.50685" lon="-2.83777">
        <ele>90</ele>
        <time>2025-05-13T10:44:31Z</time>
      </trkpt>
      <trkpt lat="47.50689" lon="-2.83777">
        <ele>90</ele>
        <time>2025-05-13T10:44:32Z</time>
      </trkpt>
      <trkpt lat="47.50693" lon="-2.83778">
        <ele>90</ele>
        <time>2025-05-13T10:44:33Z</time>
      </trkpt>
      <trkpt lat="47.50697" lon="-2.83779">
        <ele>89</ele>
        <time>2025-05-13T10:44:34Z</time>
      </trkpt>
      <trkpt lat="47.507" lon="-2.83778">
        <ele>89</ele>
        <time>2025-05-13T10:44:35Z</time>
      </trkpt>
      <trkpt lat="47.50704" lon="-2.83779">
        <ele>89</ele>
        <time>2025-05-13T10:44:36Z</time>
      </trkpt>
      <trkpt lat="47.50706" lon="-2.8378">
        <ele>89</ele>
        <time>2025-05-13T10:44:37Z</time>
      </trkpt>
      <trkpt lat="47.50708" lon="-2.83782">
        <ele>89</ele>
        <time>2025-05-13T10:44:38Z</time>
      </trkpt>
      <trkpt lat="47.5071" lon="-2.83782">
        <ele>88</ele>
        <time>2025-05-13T10:44:39Z</time>
      </trkpt>
      <trkpt lat="47.50713" lon="-2.83782">
        <ele>88</ele>
        <time>2025-05-13T10:44:40Z</time>
      </trkpt>
      <trkpt lat="47.50717" lon="-2.83783">
        <ele>88</ele>
        <time>2025-05-13T10:44:41Z</time>
      </trkpt>
      <trkpt lat="47.5072" lon="-2.83783">
        <ele>87</ele>
        <time>2025-05-13T10:44:42Z</time>
      </trkpt>
      <trkpt lat="47.50724" lon="-2.83783">
        <ele>88</ele>
        <time>2025-05-13T10:44:43Z</time>
      </trkpt>
      <trkpt lat="47.50728" lon="-2.83784">
        <ele>88</ele>
        <time>2025-05-13T10:44:44Z</time>
      </trkpt>
      <trkpt lat="47.50732" lon="-2.83784">
        <ele>88</ele>
        <time>2025-05-13T10:44:45Z</time>
      </trkpt>
      <trkpt lat="47.50736" lon="-2.83785">
        <ele>88</ele>
        <time>2025-05-13T10:44:46Z</time>
      </trkpt>
      <trkpt lat="47.5074" lon="-2.83786">
        <ele>88</ele>
        <time>2025-05-13T10:44:47Z</time>
      </trkpt>
      <trkpt lat="47.50744" lon="-2.83786">
        <ele>88</ele>
        <time>2025-05-13T10:44:48Z</time>
      </trkpt>
      <trkpt lat="47.50748" lon="-2.83786">
        <ele>88</ele>
        <time>2025-05-13T10:44:49Z</time>
      </trkpt>
      <trkpt lat="47.50753" lon="-2.83786">
        <ele>88</ele>
        <time>2025-05-13T10:44:50Z</time>
      </trkpt>
      <trkpt lat="47.50757" lon="-2.83786">
        <ele>88</ele>
        <time>2025-05-13T10:44:51Z</time>
      </trkpt>
      <trkpt lat="47.50761" lon="-2.83787">
        <ele>89</ele>
        <time>2025-05-13T10:44:52Z</time>
      </trkpt>
      <trkpt lat="47.50766" lon="-2.83787">
        <ele>88</ele>
        <time>2025-05-13T10:44:53Z</time>
      </trkpt>
      <trkpt lat="47.5077" lon="-2.83787">
        <ele>88</ele>
        <time>2025-05-13T10:44:54Z</time>
      </trkpt>
      <trkpt lat="47.50775" lon="-2.83788">
        <ele>88</ele>
        <time>2025-05-13T10:44:55Z</time>
      </trkpt>
      <trkpt lat="47.50779" lon="-2.83788">
        <ele>88</ele>
        <time>2025-05-13T10:44:56Z</time>
      </trkpt>
      <trkpt lat="47.50784" lon="-2.83789">
        <ele>89</ele>
        <time>2025-05-13T10:44:57Z</time>
      </trkpt>
      <trkpt lat="47.50788" lon="-2.83789">
        <ele>88</ele>
        <time>2025-05-13T10:44:58Z</time>
      </trkpt>
      <trkpt lat="47.50793" lon="-2.83789">
        <ele>88</ele>
        <time>2025-05-13T10:44:59Z</time>
      </trkpt>
      <trkpt lat="47.50797" lon="-2.83789">
        <ele>88</ele>
        <time>2025-05-13T10:45:00Z</time>
      </trkpt>
      <trkpt lat="47.50801" lon="-2.8379">
        <ele>88</ele>
        <time>2025-05-13T10:45:01Z</time>
      </trkpt>
      <trkpt lat="47.50805" lon="-2.83791">
        <ele>89</ele>
        <time>2025-05-13T10:45:02Z</time>
      </trkpt>
      <trkpt lat="47.5081" lon="-2.83791">
        <ele>88</ele>
        <time>2025-05-13T10:45:03Z</time>
      </trkpt>
      <trkpt lat="47.50814" lon="-2.83791">
        <ele>88</ele>
        <time>2025-05-13T10:45:04Z</time>
      </trkpt>
      <trkpt lat="47.50818" lon="-2.83791">
        <ele>88</ele>
        <time>2025-05-13T10:45:05Z</time>
      </trkpt>
      <trkpt lat="47.50823" lon="-2.83791">
        <ele>87</ele>
        <time>2025-05-13T10:45:06Z</time>
      </trkpt>
      <trkpt lat="47.50827" lon="-2.83791">
        <ele>87</ele>
        <time>2025-05-13T10:45:07Z</time>
      </trkpt>
      <trkpt lat="47.50831" lon="-2.83792">
        <ele>87</ele>
        <time>2025-05-13T10:45:08Z</time>
      </trkpt>
      <trkpt lat="47.50835" lon="-2.83792">
        <ele>87</ele>
        <time>2025-05-13T10:45:09Z</time>
      </trkpt>
      <trkpt lat="47.50839" lon="-2.83792">
        <ele>87</ele>
        <time>2025-05-13T10:45:10Z</time>
      </trkpt>
      <trkpt lat="47.50843" lon="-2.83793">
        <ele>87</ele>
        <time>2025-05-13T10:45:11Z</time>
      </trkpt>
      <trkpt lat="47.50847" lon="-2.83792">
        <ele>87</ele>
        <time>2025-05-13T10:45:12Z</time>
      </trkpt>
      <trkpt lat="47.50851" lon="-2.83793">
        <ele>87</ele>
        <time>2025-05-13T10:45:13Z</time>
      </trkpt>
      <trkpt lat="47.50855" lon="-2.83793">
        <ele>87</ele>
        <time>2025-05-13T10:45:14Z</time>
      </trkpt>
      <trkpt lat="47.50859" lon="-2.83794">
        <ele>87</ele>
        <time>2025-05-13T10:45:15Z</time>
      </trkpt>
      <trkpt lat="47.50863" lon="-2.83794">
        <ele>87</ele>
        <time>2025-05-13T10:45:16Z</time>
      </trkpt>
      <trkpt lat="47.50868" lon="-2.83795">
        <ele>86</ele>
        <time>2025-05-13T10:45:17Z</time>
      </trkpt>
      <trkpt lat="47.50873" lon="-2.83796">
        <ele>86</ele>
        <time>2025-05-13T10:45:18Z</time>
      </trkpt>
      <trkpt lat="47.50878" lon="-2.83797">
        <ele>86</ele>
        <time>2025-05-13T10:45:19Z</time>
      </trkpt>
      <trkpt lat="47.50883" lon="-2.83797">
        <ele>87</ele>
        <time>2025-05-13T10:45:20Z</time>
      </trkpt>
      <trkpt lat="47.50889" lon="-2.83798">
        <ele>86</ele>
        <time>2025-05-13T10:45:21Z</time>
      </trkpt>
      <trkpt lat="47.50894" lon="-2.83799">
        <ele>86</ele>
        <time>2025-05-13T10:45:22Z</time>
      </trkpt>
      <trkpt lat="47.509" lon="-2.83801">
        <ele>86</ele>
        <time>2025-05-13T10:45:23Z</time>
      </trkpt>
      <trkpt lat="47.50905" lon="-2.83803">
        <ele>86</ele>
        <time>2025-05-13T10:45:24Z</time>
      </trkpt>
      <trkpt lat="47.50911" lon="-2.83804">
        <ele>86</ele>
        <time>2025-05-13T10:45:25Z</time>
      </trkpt>
      <trkpt lat="47.50917" lon="-2.83806">
        <ele>85</ele>
        <time>2025-05-13T10:45:26Z</time>
      </trkpt>
      <trkpt lat="47.50923" lon="-2.83807">
        <ele>85</ele>
        <time>2025-05-13T10:45:27Z</time>
      </trkpt>
      <trkpt lat="47.5093" lon="-2.83808">
        <ele>85</ele>
        <time>2025-05-13T10:45:28Z</time>
      </trkpt>
      <trkpt lat="47.50936" lon="-2.83808">
        <ele>85</ele>
        <time>2025-05-13T10:45:29Z</time>
      </trkpt>
      <trkpt lat="47.50942" lon="-2.83809">
        <ele>85</ele>
        <time>2025-05-13T10:45:30Z</time>
      </trkpt>
      <trkpt lat="47.50948" lon="-2.83811">
        <ele>85</ele>
        <time>2025-05-13T10:45:31Z</time>
      </trkpt>
      <trkpt lat="47.50954" lon="-2.83813">
        <ele>85</ele>
        <time>2025-05-13T10:45:32Z</time>
      </trkpt>
      <trkpt lat="47.5096" lon="-2.83815">
        <ele>85</ele>
        <time>2025-05-13T10:45:33Z</time>
      </trkpt>
      <trkpt lat="47.50967" lon="-2.83817">
        <ele>86</ele>
        <time>2025-05-13T10:45:34Z</time>
      </trkpt>
      <trkpt lat="47.50974" lon="-2.83819">
        <ele>87</ele>
        <time>2025-05-13T10:45:35Z</time>
      </trkpt>
      <trkpt lat="47.50981" lon="-2.83821">
        <ele>87</ele>
        <time>2025-05-13T10:45:36Z</time>
      </trkpt>
      <trkpt lat="47.50987" lon="-2.83824">
        <ele>87</ele>
        <time>2025-05-13T10:45:37Z</time>
      </trkpt>
      <trkpt lat="47.50994" lon="-2.83827">
        <ele>87</ele>
        <time>2025-05-13T10:45:38Z</time>
      </trkpt>
      <trkpt lat="47.51" lon="-2.83828">
        <ele>86</ele>
        <time>2025-05-13T10:45:39Z</time>
      </trkpt>
      <trkpt lat="47.51006" lon="-2.8383">
        <ele>85</ele>
        <time>2025-05-13T10:45:40Z</time>
      </trkpt>
      <trkpt lat="47.51013" lon="-2.83833">
        <ele>85</ele>
        <time>2025-05-13T10:45:41Z</time>
      </trkpt>
      <trkpt lat="47.51019" lon="-2.83836">
        <ele>85</ele>
        <time>2025-05-13T10:45:42Z</time>
      </trkpt>
      <trkpt lat="47.51026" lon="-2.83839">
        <ele>85</ele>
        <time>2025-05-13T10:45:43Z</time>
      </trkpt>
      <trkpt lat="47.51032" lon="-2.83843">
        <ele>85</ele>
        <time>2025-05-13T10:45:44Z</time>
      </trkpt>
      <trkpt lat="47.51038" lon="-2.83846">
        <ele>85</ele>
        <time>2025-05-13T10:45:45Z</time>
      </trkpt>
      <trkpt lat="47.51044" lon="-2.8385">
        <ele>85</ele>
        <time>2025-05-13T10:45:46Z</time>
      </trkpt>
      <trkpt lat="47.51051" lon="-2.83853">
        <ele>84</ele>
        <time>2025-05-13T10:45:47Z</time>
      </trkpt>
      <trkpt lat="47.51057" lon="-2.83856">
        <ele>84</ele>
        <time>2025-05-13T10:45:48Z</time>
      </trkpt>
      <trkpt lat="47.51063" lon="-2.8386">
        <ele>84</ele>
        <time>2025-05-13T10:45:49Z</time>
      </trkpt>
      <trkpt lat="47.51069" lon="-2.83864">
        <ele>84</ele>
        <time>2025-05-13T10:45:50Z</time>
      </trkpt>
      <trkpt lat="47.51075" lon="-2.83868">
        <ele>84</ele>
        <time>2025-05-13T10:45:51Z</time>
      </trkpt>
      <trkpt lat="47.51081" lon="-2.83874">
        <ele>84</ele>
        <time>2025-05-13T10:45:52Z</time>
      </trkpt>
      <trkpt lat="47.51086" lon="-2.83879">
        <ele>84</ele>
        <time>2025-05-13T10:45:53Z</time>
      </trkpt>
      <trkpt lat="47.51093" lon="-2.83884">
        <ele>84</ele>
        <time>2025-05-13T10:45:54Z</time>
      </trkpt>
      <trkpt lat="47.51098" lon="-2.83889">
        <ele>83</ele>
        <time>2025-05-13T10:45:55Z</time>
      </trkpt>
      <trkpt lat="47.51104" lon="-2.83894">
        <ele>83</ele>
        <time>2025-05-13T10:45:56Z</time>
      </trkpt>
      <trkpt lat="47.5111" lon="-2.83899">
        <ele>83</ele>
        <time>2025-05-13T10:45:57Z</time>
      </trkpt>
      <trkpt lat="47.51115" lon="-2.83904">
        <ele>83</ele>
        <time>2025-05-13T10:45:58Z</time>
      </trkpt>
      <trkpt lat="47.5112" lon="-2.83909">
        <ele>83</ele>
        <time>2025-05-13T10:45:59Z</time>
      </trkpt>
      <trkpt lat="47.51125" lon="-2.83911">
        <ele>82</ele>
        <time>2025-05-13T10:46:00Z</time>
      </trkpt>
      <trkpt lat="47.51129" lon="-2.83914">
        <ele>82</ele>
        <time>2025-05-13T10:46:01Z</time>
      </trkpt>
      <trkpt lat="47.51133" lon="-2.83916">
        <ele>82</ele>
        <time>2025-05-13T10:46:02Z</time>
      </trkpt>
      <trkpt lat="47.51137" lon="-2.83919">
        <ele>82</ele>
        <time>2025-05-13T10:46:03Z</time>
      </trkpt>
      <trkpt lat="47.51142" lon="-2.83921">
        <ele>82</ele>
        <time>2025-05-13T10:46:04Z</time>
      </trkpt>
      <trkpt lat="47.51146" lon="-2.83922">
        <ele>82</ele>
        <time>2025-05-13T10:46:05Z</time>
      </trkpt>
      <trkpt lat="47.5115" lon="-2.83922">
        <ele>82</ele>
        <time>2025-05-13T10:46:06Z</time>
      </trkpt>
      <trkpt lat="47.51155" lon="-2.83921">
        <ele>82</ele>
        <time>2025-05-13T10:46:07Z</time>
      </trkpt>
      <trkpt lat="47.51159" lon="-2.83919">
        <ele>82</ele>
        <time>2025-05-13T10:46:08Z</time>
      </trkpt>
      <trkpt lat="47.51164" lon="-2.83918">
        <ele>81</ele>
        <time>2025-05-13T10:46:09Z</time>
      </trkpt>
      <trkpt lat="47.51168" lon="-2.83917">
        <ele>81</ele>
        <time>2025-05-13T10:46:10Z</time>
      </trkpt>
      <trkpt lat="47.51173" lon="-2.83916">
        <ele>81</ele>
        <time>2025-05-13T10:46:11Z</time>
      </trkpt>
      <trkpt lat="47.51178" lon="-2.83916">
        <ele>81</ele>
        <time>2025-05-13T10:46:12Z</time>
      </trkpt>
      <trkpt lat="47.51183" lon="-2.83915">
        <ele>81</ele>
        <time>2025-05-13T10:46:13Z</time>
      </trkpt>
      <trkpt lat="47.51187" lon="-2.83914">
        <ele>81</ele>
        <time>2025-05-13T10:46:14Z</time>
      </trkpt>
      <trkpt lat="47.51192" lon="-2.83913">
        <ele>80</ele>
        <time>2025-05-13T10:46:15Z</time>
      </trkpt>
      <trkpt lat="47.51197" lon="-2.83913">
        <ele>80</ele>
        <time>2025-05-13T10:46:16Z</time>
      </trkpt>
      <trkpt lat="47.51202" lon="-2.83913">
        <ele>80</ele>
        <time>2025-05-13T10:46:17Z</time>
      </trkpt>
      <trkpt lat="47.51207" lon="-2.83911">
        <ele>80</ele>
        <time>2025-05-13T10:46:18Z</time>
      </trkpt>
      <trkpt lat="47.51212" lon="-2.83909">
        <ele>80</ele>
        <time>2025-05-13T10:46:19Z</time>
      </trkpt>
      <trkpt lat="47.51217" lon="-2.83907">
        <ele>81</ele>
        <time>2025-05-13T10:46:20Z</time>
      </trkpt>
      <trkpt lat="47.51221" lon="-2.83905">
        <ele>81</ele>
        <time>2025-05-13T10:46:21Z</time>
      </trkpt>
      <trkpt lat="47.51225" lon="-2.83903">
        <ele>81</ele>
        <time>2025-05-13T10:46:22Z</time>
      </trkpt>
      <trkpt lat="47.5123" lon="-2.839">
        <ele>81</ele>
        <time>2025-05-13T10:46:23Z</time>
      </trkpt>
      <trkpt lat="47.51235" lon="-2.83897">
        <ele>80</ele>
        <time>2025-05-13T10:46:24Z</time>
      </trkpt>
      <trkpt lat="47.5124" lon="-2.83895">
        <ele>80</ele>
        <time>2025-05-13T10:46:25Z</time>
      </trkpt>
      <trkpt lat="47.51246" lon="-2.83891">
        <ele>80</ele>
        <time>2025-05-13T10:46:26Z</time>
      </trkpt>
      <trkpt lat="47.51251" lon="-2.83888">
        <ele>79</ele>
        <time>2025-05-13T10:46:27Z</time>
      </trkpt>
      <trkpt lat="47.51257" lon="-2.83884">
        <ele>79</ele>
        <time>2025-05-13T10:46:28Z</time>
      </trkpt>
      <trkpt lat="47.51262" lon="-2.83881">
        <ele>79</ele>
        <time>2025-05-13T10:46:29Z</time>
      </trkpt>
      <trkpt lat="47.51268" lon="-2.83878">
        <ele>78</ele>
        <time>2025-05-13T10:46:30Z</time>
      </trkpt>
      <trkpt lat="47.51273" lon="-2.83875">
        <ele>77</ele>
        <time>2025-05-13T10:46:31Z</time>
      </trkpt>
      <trkpt lat="47.51278" lon="-2.83871">
        <ele>77</ele>
        <time>2025-05-13T10:46:32Z</time>
      </trkpt>
      <trkpt lat="47.51283" lon="-2.83868">
        <ele>77</ele>
        <time>2025-05-13T10:46:33Z</time>
      </trkpt>
      <trkpt lat="47.51288" lon="-2.83866">
        <ele>77</ele>
        <time>2025-05-13T10:46:34Z</time>
      </trkpt>
      <trkpt lat="47.51293" lon="-2.83863">
        <ele>78</ele>
        <time>2025-05-13T10:46:35Z</time>
      </trkpt>
      <trkpt lat="47.51297" lon="-2.8386">
        <ele>78</ele>
        <time>2025-05-13T10:46:36Z</time>
      </trkpt>
      <trkpt lat="47.51302" lon="-2.83857">
        <ele>77</ele>
        <time>2025-05-13T10:46:37Z</time>
      </trkpt>
      <trkpt lat="47.51308" lon="-2.83854">
        <ele>77</ele>
        <time>2025-05-13T10:46:38Z</time>
      </trkpt>
      <trkpt lat="47.51313" lon="-2.83851">
        <ele>77</ele>
        <time>2025-05-13T10:46:39Z</time>
      </trkpt>
      <trkpt lat="47.51318" lon="-2.83849">
        <ele>77</ele>
        <time>2025-05-13T10:46:40Z</time>
      </trkpt>
      <trkpt lat="47.51322" lon="-2.83846">
        <ele>77</ele>
        <time>2025-05-13T10:46:41Z</time>
      </trkpt>
      <trkpt lat="47.51326" lon="-2.83844">
        <ele>77</ele>
        <time>2025-05-13T10:46:42Z</time>
      </trkpt>
      <trkpt lat="47.51329" lon="-2.83843">
        <ele>77</ele>
        <time>2025-05-13T10:46:43Z</time>
      </trkpt>
      <trkpt lat="47.51333" lon="-2.83842">
        <ele>77</ele>
        <time>2025-05-13T10:46:44Z</time>
      </trkpt>
      <trkpt lat="47.51335" lon="-2.83841">
        <ele>77</ele>
        <time>2025-05-13T10:46:45Z</time>
      </trkpt>
      <trkpt lat="47.51338" lon="-2.83839">
        <ele>78</ele>
        <time>2025-05-13T10:46:46Z</time>
      </trkpt>
      <trkpt lat="47.51341" lon="-2.83838">
        <ele>77</ele>
        <time>2025-05-13T10:46:47Z</time>
      </trkpt>
      <trkpt lat="47.51343" lon="-2.83836">
        <ele>77</ele>
        <time>2025-05-13T10:46:48Z</time>
      </trkpt>
      <trkpt lat="47.51344" lon="-2.83835">
        <ele>77</ele>
        <time>2025-05-13T10:46:49Z</time>
      </trkpt>
      <trkpt lat="47.51345" lon="-2.83835">
        <ele>77</ele>
        <time>2025-05-13T10:46:50Z</time>
      </trkpt>
      <trkpt lat="47.51345" lon="-2.83835">
        <ele>77</ele>
        <time>2025-05-13T10:46:51Z</time>
      </trkpt>
      <trkpt lat="47.51345" lon="-2.83835">
        <ele>77</ele>
        <time>2025-05-13T10:46:52Z</time>
      </trkpt>
      <trkpt lat="47.51345" lon="-2.83835">
        <ele>77</ele>
        <time>2025-05-13T10:46:53Z</time>
      </trkpt>
      <trkpt lat="47.51345" lon="-2.83835">
        <ele>77</ele>
        <time>2025-05-13T10:46:54Z</time>
      </trkpt>
      <trkpt lat="47.51345" lon="-2.83835">
        <ele>77</ele>
        <time>2025-05-13T10:46:55Z</time>
      </trkpt>
      <trkpt lat="47.51345" lon="-2.83835">
        <ele>77</ele>
        <time>2025-05-13T10:46:56Z</time>
      </trkpt>
      <trkpt lat="47.51345" lon="-2.83835">
        <ele>77</ele>
        <time>2025-05-13T10:46:57Z</time>
      </trkpt>
      <trkpt lat="47.51345" lon="-2.83835">
        <ele>77</ele>
        <time>2025-05-13T10:46:58Z</time>
      </trkpt>
      <trkpt lat="47.51345" lon="-2.83835">
        <ele>77</ele>
        <time>2025-05-13T10:46:59Z</time>
      </trkpt>
      <trkpt lat="47.51345" lon="-2.83835">
        <ele>77</ele>
        <time>2025-05-13T10:47:00Z</time>
      </trkpt>
      <trkpt lat="47.51345" lon="-2.83835">
        <ele>77</ele>
        <time>2025-05-13T10:47:01Z</time>
      </trkpt>
      <trkpt lat="47.51345" lon="-2.83835">
        <ele>77</ele>
        <time>2025-05-13T10:47:02Z</time>
      </trkpt>
      <trkpt lat="47.51345" lon="-2.83836">
        <ele>76</ele>
        <time>2025-05-13T10:47:03Z</time>
      </trkpt>
      <trkpt lat="47.51347" lon="-2.83835">
        <ele>76</ele>
        <time>2025-05-13T10:47:04Z</time>
      </trkpt>
      <trkpt lat="47.51348" lon="-2.83834">
        <ele>76</ele>
        <time>2025-05-13T10:47:05Z</time>
      </trkpt>
      <trkpt lat="47.5135" lon="-2.83834">
        <ele>76</ele>
        <time>2025-05-13T10:47:06Z</time>
      </trkpt>
      <trkpt lat="47.51352" lon="-2.83834">
        <ele>76</ele>
        <time>2025-05-13T10:47:07Z</time>
      </trkpt>
      <trkpt lat="47.51353" lon="-2.83835">
        <ele>75</ele>
        <time>2025-05-13T10:47:08Z</time>
      </trkpt>
      <trkpt lat="47.51355" lon="-2.83836">
        <ele>75</ele>
        <time>2025-05-13T10:47:09Z</time>
      </trkpt>
      <trkpt lat="47.51357" lon="-2.83836">
        <ele>75</ele>
        <time>2025-05-13T10:47:10Z</time>
      </trkpt>
      <trkpt lat="47.51359" lon="-2.83837">
        <ele>75</ele>
        <time>2025-05-13T10:47:11Z</time>
      </trkpt>
      <trkpt lat="47.51361" lon="-2.83837">
        <ele>76</ele>
        <time>2025-05-13T10:47:12Z</time>
      </trkpt>
      <trkpt lat="47.51364" lon="-2.83837">
        <ele>76</ele>
        <time>2025-05-13T10:47:13Z</time>
      </trkpt>
      <trkpt lat="47.51367" lon="-2.83836">
        <ele>76</ele>
        <time>2025-05-13T10:47:14Z</time>
      </trkpt>
      <trkpt lat="47.51369" lon="-2.83835">
        <ele>77</ele>
        <time>2025-05-13T10:47:15Z</time>
      </trkpt>
      <trkpt lat="47.51372" lon="-2.83835">
        <ele>77</ele>
        <time>2025-05-13T10:47:16Z</time>
      </trkpt>
      <trkpt lat="47.51375" lon="-2.83834">
        <ele>77</ele>
        <time>2025-05-13T10:47:17Z</time>
      </trkpt>
      <trkpt lat="47.51378" lon="-2.83834">
        <ele>78</ele>
        <time>2025-05-13T10:47:18Z</time>
      </trkpt>
      <trkpt lat="47.51381" lon="-2.83834">
        <ele>78</ele>
        <time>2025-05-13T10:47:19Z</time>
      </trkpt>
      <trkpt lat="47.51384" lon="-2.83834">
        <ele>78</ele>
        <time>2025-05-13T10:47:20Z</time>
      </trkpt>
      <trkpt lat="47.51387" lon="-2.83834">
        <ele>78</ele>
        <time>2025-05-13T10:47:21Z</time>
      </trkpt>
      <trkpt lat="47.5139" lon="-2.83833">
        <ele>78</ele>
        <time>2025-05-13T10:47:22Z</time>
      </trkpt>
      <trkpt lat="47.51393" lon="-2.83832">
        <ele>78</ele>
        <time>2025-05-13T10:47:23Z</time>
      </trkpt>
      <trkpt lat="47.51396" lon="-2.83832">
        <ele>78</ele>
        <time>2025-05-13T10:47:24Z</time>
      </trkpt>
      <trkpt lat="47.51398" lon="-2.83832">
        <ele>78</ele>
        <time>2025-05-13T10:47:25Z</time>
      </trkpt>
      <trkpt lat="47.51401" lon="-2.83831">
        <ele>78</ele>
        <time>2025-05-13T10:47:26Z</time>
      </trkpt>
      <trkpt lat="47.51404" lon="-2.8383">
        <ele>78</ele>
        <time>2025-05-13T10:47:27Z</time>
      </trkpt>
      <trkpt lat="47.51408" lon="-2.83829">
        <ele>78</ele>
        <time>2025-05-13T10:47:28Z</time>
      </trkpt>
      <trkpt lat="47.51411" lon="-2.83829">
        <ele>78</ele>
        <time>2025-05-13T10:47:29Z</time>
      </trkpt>
      <trkpt lat="47.51414" lon="-2.83828">
        <ele>78</ele>
        <time>2025-05-13T10:47:30Z</time>
      </trkpt>
      <trkpt lat="47.51417" lon="-2.83828">
        <ele>78</ele>
        <time>2025-05-13T10:47:31Z</time>
      </trkpt>
      <trkpt lat="47.51421" lon="-2.83827">
        <ele>78</ele>
        <time>2025-05-13T10:47:32Z</time>
      </trkpt>
      <trkpt lat="47.51424" lon="-2.83827">
        <ele>78</ele>
        <time>2025-05-13T10:47:33Z</time>
      </trkpt>
      <trkpt lat="47.51427" lon="-2.83826">
        <ele>78</ele>
        <time>2025-05-13T10:47:34Z</time>
      </trkpt>
      <trkpt lat="47.5143" lon="-2.83826">
        <ele>78</ele>
        <time>2025-05-13T10:47:35Z</time>
      </trkpt>
      <trkpt lat="47.51433" lon="-2.83826">
        <ele>78</ele>
        <time>2025-05-13T10:47:36Z</time>
      </trkpt>
      <trkpt lat="47.51436" lon="-2.83825">
        <ele>78</ele>
        <time>2025-05-13T10:47:37Z</time>
      </trkpt>
      <trkpt lat="47.51439" lon="-2.83825">
        <ele>78</ele>
        <time>2025-05-13T10:47:38Z</time>
      </trkpt>
      <trkpt lat="47.51442" lon="-2.83826">
        <ele>78</ele>
        <time>2025-05-13T10:47:39Z</time>
      </trkpt>
      <trkpt lat="47.51446" lon="-2.83825">
        <ele>78</ele>
        <time>2025-05-13T10:47:40Z</time>
      </trkpt>
      <trkpt lat="47.51449" lon="-2.83825">
        <ele>78</ele>
        <time>2025-05-13T10:47:41Z</time>
      </trkpt>
      <trkpt lat="47.51452" lon="-2.83824">
        <ele>78</ele>
        <time>2025-05-13T10:47:42Z</time>
      </trkpt>
      <trkpt lat="47.51456" lon="-2.83824">
        <ele>78</ele>
        <time>2025-05-13T10:47:43Z</time>
      </trkpt>
      <trkpt lat="47.5146" lon="-2.83823">
        <ele>78</ele>
        <time>2025-05-13T10:47:44Z</time>
      </trkpt>
      <trkpt lat="47.51464" lon="-2.83823">
        <ele>78</ele>
        <time>2025-05-13T10:47:45Z</time>
      </trkpt>
      <trkpt lat="47.51467" lon="-2.83823">
        <ele>78</ele>
        <time>2025-05-13T10:47:46Z</time>
      </trkpt>
      <trkpt lat="47.51471" lon="-2.83822">
        <ele>78</ele>
        <time>2025-05-13T10:47:47Z</time>
      </trkpt>
      <trkpt lat="47.51474" lon="-2.83822">
        <ele>78</ele>
        <time>2025-05-13T10:47:48Z</time>
      </trkpt>
      <trkpt lat="47.51478" lon="-2.83822">
        <ele>78</ele>
        <time>2025-05-13T10:47:49Z</time>
      </trkpt>
      <trkpt lat="47.51482" lon="-2.83821">
        <ele>78</ele>
        <time>2025-05-13T10:47:50Z</time>
      </trkpt>
      <trkpt lat="47.51485" lon="-2.83821">
        <ele>78</ele>
        <time>2025-05-13T10:47:51Z</time>
      </trkpt>
      <trkpt lat="47.51489" lon="-2.83821">
        <ele>77</ele>
        <time>2025-05-13T10:47:52Z</time>
      </trkpt>
      <trkpt lat="47.51493" lon="-2.83821">
        <ele>77</ele>
        <time>2025-05-13T10:47:53Z</time>
      </trkpt>
      <trkpt lat="47.51497" lon="-2.83821">
        <ele>76</ele>
        <time>2025-05-13T10:47:54Z</time>
      </trkpt>
      <trkpt lat="47.51501" lon="-2.83821">
        <ele>76</ele>
        <time>2025-05-13T10:47:55Z</time>
      </trkpt>
      <trkpt lat="47.51505" lon="-2.83821">
        <ele>76</ele>
        <time>2025-05-13T10:47:56Z</time>
      </trkpt>
      <trkpt lat="47.51509" lon="-2.83821">
        <ele>76</ele>
        <time>2025-05-13T10:47:57Z</time>
      </trkpt>
      <trkpt lat="47.51513" lon="-2.83821">
        <ele>76</ele>
        <time>2025-05-13T10:47:58Z</time>
      </trkpt>
      <trkpt lat="47.51516" lon="-2.83822">
        <ele>76</ele>
        <time>2025-05-13T10:47:59Z</time>
      </trkpt>
      <trkpt lat="47.5152" lon="-2.83823">
        <ele>75</ele>
        <time>2025-05-13T10:48:00Z</time>
      </trkpt>
      <trkpt lat="47.51524" lon="-2.83824">
        <ele>75</ele>
        <time>2025-05-13T10:48:01Z</time>
      </trkpt>
      <trkpt lat="47.51528" lon="-2.83824">
        <ele>74</ele>
        <time>2025-05-13T10:48:02Z</time>
      </trkpt>
      <trkpt lat="47.51533" lon="-2.83825">
        <ele>74</ele>
        <time>2025-05-13T10:48:03Z</time>
      </trkpt>
      <trkpt lat="47.51537" lon="-2.83826">
        <ele>74</ele>
        <time>2025-05-13T10:48:04Z</time>
      </trkpt>
      <trkpt lat="47.51542" lon="-2.83827">
        <ele>74</ele>
        <time>2025-05-13T10:48:05Z</time>
      </trkpt>
      <trkpt lat="47.51546" lon="-2.83827">
        <ele>74</ele>
        <time>2025-05-13T10:48:06Z</time>
      </trkpt>
      <trkpt lat="47.51551" lon="-2.83828">
        <ele>74</ele>
        <time>2025-05-13T10:48:07Z</time>
      </trkpt>
      <trkpt lat="47.51555" lon="-2.83828">
        <ele>74</ele>
        <time>2025-05-13T10:48:08Z</time>
      </trkpt>
      <trkpt lat="47.5156" lon="-2.83829">
        <ele>74</ele>
        <time>2025-05-13T10:48:09Z</time>
      </trkpt>
      <trkpt lat="47.51564" lon="-2.8383">
        <ele>74</ele>
        <time>2025-05-13T10:48:10Z</time>
      </trkpt>
      <trkpt lat="47.51569" lon="-2.8383">
        <ele>74</ele>
        <time>2025-05-13T10:48:11Z</time>
      </trkpt>
      <trkpt lat="47.51574" lon="-2.83831">
        <ele>74</ele>
        <time>2025-05-13T10:48:12Z</time>
      </trkpt>
      <trkpt lat="47.51579" lon="-2.83832">
        <ele>74</ele>
        <time>2025-05-13T10:48:13Z</time>
      </trkpt>
      <trkpt lat="47.51585" lon="-2.83833">
        <ele>74</ele>
        <time>2025-05-13T10:48:14Z</time>
      </trkpt>
      <trkpt lat="47.5159" lon="-2.83832">
        <ele>74</ele>
        <time>2025-05-13T10:48:15Z</time>
      </trkpt>
      <trkpt lat="47.51594" lon="-2.83832">
        <ele>74</ele>
        <time>2025-05-13T10:48:16Z</time>
      </trkpt>
      <trkpt lat="47.51598" lon="-2.83831">
        <ele>73</ele>
        <time>2025-05-13T10:48:17Z</time>
      </trkpt>
      <trkpt lat="47.51602" lon="-2.83832">
        <ele>73</ele>
        <time>2025-05-13T10:48:18Z</time>
      </trkpt>
      <trkpt lat="47.51605" lon="-2.83832">
        <ele>72</ele>
        <time>2025-05-13T10:48:19Z</time>
      </trkpt>
      <trkpt lat="47.51608" lon="-2.83832">
        <ele>72</ele>
        <time>2025-05-13T10:48:20Z</time>
      </trkpt>
      <trkpt lat="47.51611" lon="-2.83832">
        <ele>72</ele>
        <time>2025-05-13T10:48:21Z</time>
      </trkpt>
      <trkpt lat="47.51614" lon="-2.83832">
        <ele>72</ele>
        <time>2025-05-13T10:48:22Z</time>
      </trkpt>
      <trkpt lat="47.51617" lon="-2.83833">
        <ele>72</ele>
        <time>2025-05-13T10:48:23Z</time>
      </trkpt>
      <trkpt lat="47.5162" lon="-2.83833">
        <ele>71</ele>
        <time>2025-05-13T10:48:24Z</time>
      </trkpt>
      <trkpt lat="47.51623" lon="-2.83834">
        <ele>71</ele>
        <time>2025-05-13T10:48:25Z</time>
      </trkpt>
      <trkpt lat="47.51626" lon="-2.83834">
        <ele>71</ele>
        <time>2025-05-13T10:48:26Z</time>
      </trkpt>
      <trkpt lat="47.51629" lon="-2.83834">
        <ele>71</ele>
        <time>2025-05-13T10:48:27Z</time>
      </trkpt>
      <trkpt lat="47.51632" lon="-2.83834">
        <ele>72</ele>
        <time>2025-05-13T10:48:28Z</time>
      </trkpt>
      <trkpt lat="47.51635" lon="-2.83834">
        <ele>71</ele>
        <time>2025-05-13T10:48:29Z</time>
      </trkpt>
      <trkpt lat="47.51638" lon="-2.83835">
        <ele>71</ele>
        <time>2025-05-13T10:48:30Z</time>
      </trkpt>
      <trkpt lat="47.51642" lon="-2.83836">
        <ele>71</ele>
        <time>2025-05-13T10:48:31Z</time>
      </trkpt>
      <trkpt lat="47.51645" lon="-2.83837">
        <ele>71</ele>
        <time>2025-05-13T10:48:32Z</time>
      </trkpt>
      <trkpt lat="47.51648" lon="-2.83838">
        <ele>70</ele>
        <time>2025-05-13T10:48:33Z</time>
      </trkpt>
      <trkpt lat="47.51651" lon="-2.83838">
        <ele>70</ele>
        <time>2025-05-13T10:48:34Z</time>
      </trkpt>
      <trkpt lat="47.51655" lon="-2.83838">
        <ele>70</ele>
        <time>2025-05-13T10:48:35Z</time>
      </trkpt>
      <trkpt lat="47.51658" lon="-2.83839">
        <ele>70</ele>
        <time>2025-05-13T10:48:36Z</time>
      </trkpt>
      <trkpt lat="47.51662" lon="-2.83839">
        <ele>70</ele>
        <time>2025-05-13T10:48:37Z</time>
      </trkpt>
      <trkpt lat="47.51665" lon="-2.83839">
        <ele>70</ele>
        <time>2025-05-13T10:48:38Z</time>
      </trkpt>
      <trkpt lat="47.51668" lon="-2.8384">
        <ele>70</ele>
        <time>2025-05-13T10:48:39Z</time>
      </trkpt>
      <trkpt lat="47.51671" lon="-2.83841">
        <ele>70</ele>
        <time>2025-05-13T10:48:40Z</time>
      </trkpt>
      <trkpt lat="47.51674" lon="-2.83841">
        <ele>70</ele>
        <time>2025-05-13T10:48:41Z</time>
      </trkpt>
      <trkpt lat="47.51676" lon="-2.83842">
        <ele>71</ele>
        <time>2025-05-13T10:48:42Z</time>
      </trkpt>
      <trkpt lat="47.51679" lon="-2.83843">
        <ele>71</ele>
        <time>2025-05-13T10:48:43Z</time>
      </trkpt>
      <trkpt lat="47.51682" lon="-2.83843">
        <ele>71</ele>
        <time>2025-05-13T10:48:44Z</time>
      </trkpt>
      <trkpt lat="47.51685" lon="-2.83842">
        <ele>70</ele>
        <time>2025-05-13T10:48:45Z</time>
      </trkpt>
      <trkpt lat="47.51688" lon="-2.83841">
        <ele>70</ele>
        <time>2025-05-13T10:48:46Z</time>
      </trkpt>
      <trkpt lat="47.51691" lon="-2.83841">
        <ele>69</ele>
        <time>2025-05-13T10:48:47Z</time>
      </trkpt>
      <trkpt lat="47.51693" lon="-2.8384">
        <ele>69</ele>
        <time>2025-05-13T10:48:48Z</time>
      </trkpt>
      <trkpt lat="47.51696" lon="-2.8384">
        <ele>68</ele>
        <time>2025-05-13T10:48:49Z</time>
      </trkpt>
      <trkpt lat="47.51698" lon="-2.8384">
        <ele>68</ele>
        <time>2025-05-13T10:48:50Z</time>
      </trkpt>
      <trkpt lat="47.51701" lon="-2.83841">
        <ele>67</ele>
        <time>2025-05-13T10:48:51Z</time>
      </trkpt>
      <trkpt lat="47.51703" lon="-2.83842">
        <ele>67</ele>
        <time>2025-05-13T10:48:52Z</time>
      </trkpt>
      <trkpt lat="47.51705" lon="-2.83843">
        <ele>67</ele>
        <time>2025-05-13T10:48:53Z</time>
      </trkpt>
      <trkpt lat="47.51707" lon="-2.83844">
        <ele>67</ele>
        <time>2025-05-13T10:48:54Z</time>
      </trkpt>
      <trkpt lat="47.51708" lon="-2.83845">
        <ele>67</ele>
        <time>2025-05-13T10:48:55Z</time>
      </trkpt>
      <trkpt lat="47.5171" lon="-2.83846">
        <ele>67</ele>
        <time>2025-05-13T10:48:56Z</time>
      </trkpt>
      <trkpt lat="47.51712" lon="-2.83847">
        <ele>67</ele>
        <time>2025-05-13T10:48:57Z</time>
      </trkpt>
      <trkpt lat="47.51713" lon="-2.83847">
        <ele>67</ele>
        <time>2025-05-13T10:48:58Z</time>
      </trkpt>
      <trkpt lat="47.51716" lon="-2.83847">
        <ele>67</ele>
        <time>2025-05-13T10:48:59Z</time>
      </trkpt>
      <trkpt lat="47.51718" lon="-2.83848">
        <ele>67</ele>
        <time>2025-05-13T10:49:00Z</time>
      </trkpt>
      <trkpt lat="47.51721" lon="-2.83849">
        <ele>67</ele>
        <time>2025-05-13T10:49:01Z</time>
      </trkpt>
      <trkpt lat="47.51724" lon="-2.8385">
        <ele>67</ele>
        <time>2025-05-13T10:49:02Z</time>
      </trkpt>
      <trkpt lat="47.51727" lon="-2.8385">
        <ele>67</ele>
        <time>2025-05-13T10:49:03Z</time>
      </trkpt>
      <trkpt lat="47.51731" lon="-2.8385">
        <ele>67</ele>
        <time>2025-05-13T10:49:04Z</time>
      </trkpt>
      <trkpt lat="47.51734" lon="-2.8385">
        <ele>67</ele>
        <time>2025-05-13T10:49:05Z</time>
      </trkpt>
      <trkpt lat="47.51738" lon="-2.83851">
        <ele>67</ele>
        <time>2025-05-13T10:49:06Z</time>
      </trkpt>
      <trkpt lat="47.51741" lon="-2.83852">
        <ele>66</ele>
        <time>2025-05-13T10:49:07Z</time>
      </trkpt>
      <trkpt lat="47.51743" lon="-2.83853">
        <ele>65</ele>
        <time>2025-05-13T10:49:08Z</time>
      </trkpt>
      <trkpt lat="47.51746" lon="-2.83855">
        <ele>65</ele>
        <time>2025-05-13T10:49:09Z</time>
      </trkpt>
      <trkpt lat="47.51748" lon="-2.83856">
        <ele>64</ele>
        <time>2025-05-13T10:49:10Z</time>
      </trkpt>
      <trkpt lat="47.51751" lon="-2.83858">
        <ele>64</ele>
        <time>2025-05-13T10:49:11Z</time>
      </trkpt>
      <trkpt lat="47.51753" lon="-2.83859">
        <ele>64</ele>
        <time>2025-05-13T10:49:12Z</time>
      </trkpt>
      <trkpt lat="47.51756" lon="-2.83859">
        <ele>64</ele>
        <time>2025-05-13T10:49:13Z</time>
      </trkpt>
      <trkpt lat="47.51758" lon="-2.83857">
        <ele>64</ele>
        <time>2025-05-13T10:49:14Z</time>
      </trkpt>
      <trkpt lat="47.5176" lon="-2.83854">
        <ele>64</ele>
        <time>2025-05-13T10:49:15Z</time>
      </trkpt>
      <trkpt lat="47.51762" lon="-2.8385">
        <ele>64</ele>
        <time>2025-05-13T10:49:16Z</time>
      </trkpt>
      <trkpt lat="47.51763" lon="-2.83846">
        <ele>64</ele>
        <time>2025-05-13T10:49:17Z</time>
      </trkpt>
      <trkpt lat="47.51764" lon="-2.83843">
        <ele>63</ele>
        <time>2025-05-13T10:49:18Z</time>
      </trkpt>
      <trkpt lat="47.51766" lon="-2.83839">
        <ele>63</ele>
        <time>2025-05-13T10:49:19Z</time>
      </trkpt>
      <trkpt lat="47.51767" lon="-2.83835">
        <ele>63</ele>
        <time>2025-05-13T10:49:20Z</time>
      </trkpt>
      <trkpt lat="47.51769" lon="-2.83831">
        <ele>62</ele>
        <time>2025-05-13T10:49:21Z</time>
      </trkpt>
      <trkpt lat="47.51771" lon="-2.83827">
        <ele>63</ele>
        <time>2025-05-13T10:49:22Z</time>
      </trkpt>
      <trkpt lat="47.51774" lon="-2.83822">
        <ele>63</ele>
        <time>2025-05-13T10:49:23Z</time>
      </trkpt>
      <trkpt lat="47.51776" lon="-2.83817">
        <ele>62</ele>
        <time>2025-05-13T10:49:24Z</time>
      </trkpt>
      <trkpt lat="47.51778" lon="-2.83812">
        <ele>62</ele>
        <time>2025-05-13T10:49:25Z</time>
      </trkpt>
      <trkpt lat="47.5178" lon="-2.83806">
        <ele>62</ele>
        <time>2025-05-13T10:49:26Z</time>
      </trkpt>
      <trkpt lat="47.51783" lon="-2.83801">
        <ele>62</ele>
        <time>2025-05-13T10:49:27Z</time>
      </trkpt>
      <trkpt lat="47.51785" lon="-2.83796">
        <ele>61</ele>
        <time>2025-05-13T10:49:28Z</time>
      </trkpt>
      <trkpt lat="47.51787" lon="-2.83791">
        <ele>61</ele>
        <time>2025-05-13T10:49:29Z</time>
      </trkpt>
      <trkpt lat="47.51789" lon="-2.83786">
        <ele>60</ele>
        <time>2025-05-13T10:49:30Z</time>
      </trkpt>
      <trkpt lat="47.51791" lon="-2.83781">
        <ele>60</ele>
        <time>2025-05-13T10:49:31Z</time>
      </trkpt>
      <trkpt lat="47.51793" lon="-2.83775">
        <ele>60</ele>
        <time>2025-05-13T10:49:32Z</time>
      </trkpt>
      <trkpt lat="47.51795" lon="-2.8377">
        <ele>61</ele>
        <time>2025-05-13T10:49:33Z</time>
      </trkpt>
      <trkpt lat="47.51798" lon="-2.83765">
        <ele>61</ele>
        <time>2025-05-13T10:49:34Z</time>
      </trkpt>
      <trkpt lat="47.518" lon="-2.8376">
        <ele>61</ele>
        <time>2025-05-13T10:49:35Z</time>
      </trkpt>
      <trkpt lat="47.51802" lon="-2.83754">
        <ele>61</ele>
        <time>2025-05-13T10:49:36Z</time>
      </trkpt>
      <trkpt lat="47.51805" lon="-2.83749">
        <ele>61</ele>
        <time>2025-05-13T10:49:37Z</time>
      </trkpt>
      <trkpt lat="47.51808" lon="-2.83744">
        <ele>61</ele>
        <time>2025-05-13T10:49:38Z</time>
      </trkpt>
      <trkpt lat="47.5181" lon="-2.83739">
        <ele>61</ele>
        <time>2025-05-13T10:49:39Z</time>
      </trkpt>
      <trkpt lat="47.51813" lon="-2.83734">
        <ele>61</ele>
        <time>2025-05-13T10:49:40Z</time>
      </trkpt>
      <trkpt lat="47.51815" lon="-2.83729">
        <ele>60</ele>
        <time>2025-05-13T10:49:41Z</time>
      </trkpt>
      <trkpt lat="47.51817" lon="-2.83723">
        <ele>61</ele>
        <time>2025-05-13T10:49:42Z</time>
      </trkpt>
      <trkpt lat="47.51819" lon="-2.83718">
        <ele>61</ele>
        <time>2025-05-13T10:49:43Z</time>
      </trkpt>
      <trkpt lat="47.51821" lon="-2.83712">
        <ele>61</ele>
        <time>2025-05-13T10:49:44Z</time>
      </trkpt>
      <trkpt lat="47.51823" lon="-2.83706">
        <ele>61</ele>
        <time>2025-05-13T10:49:45Z</time>
      </trkpt>
      <trkpt lat="47.51826" lon="-2.83701">
        <ele>61</ele>
        <time>2025-05-13T10:49:46Z</time>
      </trkpt>
      <trkpt lat="47.5183" lon="-2.83697">
        <ele>62</ele>
        <time>2025-05-13T10:49:47Z</time>
      </trkpt>
      <trkpt lat="47.51833" lon="-2.83693">
        <ele>62</ele>
        <time>2025-05-13T10:49:48Z</time>
      </trkpt>
      <trkpt lat="47.51836" lon="-2.83689">
        <ele>62</ele>
        <time>2025-05-13T10:49:49Z</time>
      </trkpt>
      <trkpt lat="47.51838" lon="-2.83684">
        <ele>62</ele>
        <time>2025-05-13T10:49:50Z</time>
      </trkpt>
      <trkpt lat="47.5184" lon="-2.8368">
        <ele>62</ele>
        <time>2025-05-13T10:49:51Z</time>
      </trkpt>
      <trkpt lat="47.51843" lon="-2.83675">
        <ele>62</ele>
        <time>2025-05-13T10:49:52Z</time>
      </trkpt>
      <trkpt lat="47.51844" lon="-2.83671">
        <ele>62</ele>
        <time>2025-05-13T10:49:53Z</time>
      </trkpt>
      <trkpt lat="47.51847" lon="-2.83667">
        <ele>63</ele>
        <time>2025-05-13T10:49:54Z</time>
      </trkpt>
      <trkpt lat="47.51849" lon="-2.83663">
        <ele>63</ele>
        <time>2025-05-13T10:49:55Z</time>
      </trkpt>
      <trkpt lat="47.51852" lon="-2.83658">
        <ele>63</ele>
        <time>2025-05-13T10:49:56Z</time>
      </trkpt>
      <trkpt lat="47.51856" lon="-2.83652">
        <ele>62</ele>
        <time>2025-05-13T10:49:57Z</time>
      </trkpt>
      <trkpt lat="47.51859" lon="-2.83646">
        <ele>62</ele>
        <time>2025-05-13T10:49:58Z</time>
      </trkpt>
      <trkpt lat="47.51863" lon="-2.8364">
        <ele>62</ele>
        <time>2025-05-13T10:49:59Z</time>
      </trkpt>
      <trkpt lat="47.51866" lon="-2.83635">
        <ele>62</ele>
        <time>2025-05-13T10:50:00Z</time>
      </trkpt>
      <trkpt lat="47.51869" lon="-2.83629">
        <ele>62</ele>
        <time>2025-05-13T10:50:01Z</time>
      </trkpt>
      <trkpt lat="47.51872" lon="-2.83624">
        <ele>61</ele>
        <time>2025-05-13T10:50:02Z</time>
      </trkpt>
      <trkpt lat="47.51875" lon="-2.83619">
        <ele>60</ele>
        <time>2025-05-13T10:50:03Z</time>
      </trkpt>
      <trkpt lat="47.51879" lon="-2.83615">
        <ele>59</ele>
        <time>2025-05-13T10:50:04Z</time>
      </trkpt>
      <trkpt lat="47.51882" lon="-2.8361">
        <ele>59</ele>
        <time>2025-05-13T10:50:05Z</time>
      </trkpt>
      <trkpt lat="47.51886" lon="-2.83607">
        <ele>59</ele>
        <time>2025-05-13T10:50:06Z</time>
      </trkpt>
      <trkpt lat="47.51889" lon="-2.83603">
        <ele>59</ele>
        <time>2025-05-13T10:50:07Z</time>
      </trkpt>
      <trkpt lat="47.51893" lon="-2.83599">
        <ele>59</ele>
        <time>2025-05-13T10:50:08Z</time>
      </trkpt>
      <trkpt lat="47.51896" lon="-2.83595">
        <ele>59</ele>
        <time>2025-05-13T10:50:09Z</time>
      </trkpt>
      <trkpt lat="47.51899" lon="-2.83591">
        <ele>59</ele>
        <time>2025-05-13T10:50:10Z</time>
      </trkpt>
      <trkpt lat="47.51903" lon="-2.83587">
        <ele>59</ele>
        <time>2025-05-13T10:50:11Z</time>
      </trkpt>
      <trkpt lat="47.51906" lon="-2.83583">
        <ele>59</ele>
        <time>2025-05-13T10:50:12Z</time>
      </trkpt>
      <trkpt lat="47.51909" lon="-2.83579">
        <ele>59</ele>
        <time>2025-05-13T10:50:13Z</time>
      </trkpt>
      <trkpt lat="47.51912" lon="-2.83575">
        <ele>59</ele>
        <time>2025-05-13T10:50:14Z</time>
      </trkpt>
      <trkpt lat="47.51916" lon="-2.83571">
        <ele>59</ele>
        <time>2025-05-13T10:50:15Z</time>
      </trkpt>
      <trkpt lat="47.51919" lon="-2.83567">
        <ele>59</ele>
        <time>2025-05-13T10:50:16Z</time>
      </trkpt>
      <trkpt lat="47.51923" lon="-2.83562">
        <ele>59</ele>
        <time>2025-05-13T10:50:17Z</time>
      </trkpt>
      <trkpt lat="47.51926" lon="-2.83558">
        <ele>59</ele>
        <time>2025-05-13T10:50:18Z</time>
      </trkpt>
      <trkpt lat="47.5193" lon="-2.83554">
        <ele>59</ele>
        <time>2025-05-13T10:50:19Z</time>
      </trkpt>
      <trkpt lat="47.51934" lon="-2.8355">
        <ele>60</ele>
        <time>2025-05-13T10:50:20Z</time>
      </trkpt>
      <trkpt lat="47.51938" lon="-2.83546">
        <ele>60</ele>
        <time>2025-05-13T10:50:21Z</time>
      </trkpt>
      <trkpt lat="47.51942" lon="-2.83542">
        <ele>60</ele>
        <time>2025-05-13T10:50:22Z</time>
      </trkpt>
      <trkpt lat="47.51947" lon="-2.83538">
        <ele>60</ele>
        <time>2025-05-13T10:50:23Z</time>
      </trkpt>
      <trkpt lat="47.51951" lon="-2.83534">
        <ele>60</ele>
        <time>2025-05-13T10:50:24Z</time>
      </trkpt>
      <trkpt lat="47.51955" lon="-2.8353">
        <ele>60</ele>
        <time>2025-05-13T10:50:25Z</time>
      </trkpt>
      <trkpt lat="47.51958" lon="-2.83526">
        <ele>60</ele>
        <time>2025-05-13T10:50:26Z</time>
      </trkpt>
      <trkpt lat="47.51963" lon="-2.83522">
        <ele>59</ele>
        <time>2025-05-13T10:50:27Z</time>
      </trkpt>
      <trkpt lat="47.51967" lon="-2.83519">
        <ele>59</ele>
        <time>2025-05-13T10:50:28Z</time>
      </trkpt>
      <trkpt lat="47.51971" lon="-2.83515">
        <ele>59</ele>
        <time>2025-05-13T10:50:29Z</time>
      </trkpt>
      <trkpt lat="47.51976" lon="-2.83511">
        <ele>59</ele>
        <time>2025-05-13T10:50:30Z</time>
      </trkpt>
      <trkpt lat="47.51981" lon="-2.83507">
        <ele>58</ele>
        <time>2025-05-13T10:50:31Z</time>
      </trkpt>
      <trkpt lat="47.51986" lon="-2.83504">
        <ele>58</ele>
        <time>2025-05-13T10:50:32Z</time>
      </trkpt>
      <trkpt lat="47.5199" lon="-2.83501">
        <ele>57</ele>
        <time>2025-05-13T10:50:33Z</time>
      </trkpt>
      <trkpt lat="47.51995" lon="-2.83498">
        <ele>58</ele>
        <time>2025-05-13T10:50:34Z</time>
      </trkpt>
      <trkpt lat="47.51999" lon="-2.83495">
        <ele>58</ele>
        <time>2025-05-13T10:50:35Z</time>
      </trkpt>
      <trkpt lat="47.52003" lon="-2.83492">
        <ele>58</ele>
        <time>2025-05-13T10:50:36Z</time>
      </trkpt>
      <trkpt lat="47.52006" lon="-2.83488">
        <ele>57</ele>
        <time>2025-05-13T10:50:37Z</time>
      </trkpt>
      <trkpt lat="47.52011" lon="-2.83486">
        <ele>56</ele>
        <time>2025-05-13T10:50:38Z</time>
      </trkpt>
      <trkpt lat="47.52015" lon="-2.83484">
        <ele>56</ele>
        <time>2025-05-13T10:50:39Z</time>
      </trkpt>
      <trkpt lat="47.52019" lon="-2.83482">
        <ele>56</ele>
        <time>2025-05-13T10:50:40Z</time>
      </trkpt>
      <trkpt lat="47.52024" lon="-2.83479">
        <ele>57</ele>
        <time>2025-05-13T10:50:41Z</time>
      </trkpt>
      <trkpt lat="47.52029" lon="-2.83476">
        <ele>58</ele>
        <time>2025-05-13T10:50:42Z</time>
      </trkpt>
      <trkpt lat="47.52033" lon="-2.83473">
        <ele>58</ele>
        <time>2025-05-13T10:50:43Z</time>
      </trkpt>
      <trkpt lat="47.52037" lon="-2.83471">
        <ele>58</ele>
        <time>2025-05-13T10:50:44Z</time>
      </trkpt>
      <trkpt lat="47.52041" lon="-2.83469">
        <ele>58</ele>
        <time>2025-05-13T10:50:45Z</time>
      </trkpt>
      <trkpt lat="47.52045" lon="-2.83467">
        <ele>59</ele>
        <time>2025-05-13T10:50:46Z</time>
      </trkpt>
      <trkpt lat="47.5205" lon="-2.83465">
        <ele>60</ele>
        <time>2025-05-13T10:50:47Z</time>
      </trkpt>
      <trkpt lat="47.52055" lon="-2.83462">
        <ele>60</ele>
        <time>2025-05-13T10:50:48Z</time>
      </trkpt>
      <trkpt lat="47.5206" lon="-2.8346">
        <ele>61</ele>
        <time>2025-05-13T10:50:49Z</time>
      </trkpt>
      <trkpt lat="47.52065" lon="-2.83457">
        <ele>61</ele>
        <time>2025-05-13T10:50:50Z</time>
      </trkpt>
      <trkpt lat="47.5207" lon="-2.83454">
        <ele>60</ele>
        <time>2025-05-13T10:50:51Z</time>
      </trkpt>
      <trkpt lat="47.52075" lon="-2.83453">
        <ele>60</ele>
        <time>2025-05-13T10:50:52Z</time>
      </trkpt>
      <trkpt lat="47.5208" lon="-2.83451">
        <ele>61</ele>
        <time>2025-05-13T10:50:53Z</time>
      </trkpt>
      <trkpt lat="47.52084" lon="-2.83448">
        <ele>61</ele>
        <time>2025-05-13T10:50:54Z</time>
      </trkpt>
      <trkpt lat="47.52089" lon="-2.83447">
        <ele>61</ele>
        <time>2025-05-13T10:50:55Z</time>
      </trkpt>
      <trkpt lat="47.52093" lon="-2.83446">
        <ele>60</ele>
        <time>2025-05-13T10:50:56Z</time>
      </trkpt>
      <trkpt lat="47.52097" lon="-2.83445">
        <ele>60</ele>
        <time>2025-05-13T10:50:57Z</time>
      </trkpt>
      <trkpt lat="47.52102" lon="-2.83444">
        <ele>59</ele>
        <time>2025-05-13T10:50:58Z</time>
      </trkpt>
      <trkpt lat="47.52107" lon="-2.83443">
        <ele>59</ele>
        <time>2025-05-13T10:50:59Z</time>
      </trkpt>
      <trkpt lat="47.52112" lon="-2.83442">
        <ele>59</ele>
        <time>2025-05-13T10:51:00Z</time>
      </trkpt>
      <trkpt lat="47.52116" lon="-2.8344">
        <ele>59</ele>
        <time>2025-05-13T10:51:01Z</time>
      </trkpt>
      <trkpt lat="47.52121" lon="-2.83438">
        <ele>59</ele>
        <time>2025-05-13T10:51:02Z</time>
      </trkpt>
      <trkpt lat="47.52125" lon="-2.83437">
        <ele>59</ele>
        <time>2025-05-13T10:51:03Z</time>
      </trkpt>
      <trkpt lat="47.52129" lon="-2.83435">
        <ele>59</ele>
        <time>2025-05-13T10:51:04Z</time>
      </trkpt>
      <trkpt lat="47.52133" lon="-2.83435">
        <ele>59</ele>
        <time>2025-05-13T10:51:05Z</time>
      </trkpt>
      <trkpt lat="47.52136" lon="-2.83435">
        <ele>58</ele>
        <time>2025-05-13T10:51:06Z</time>
      </trkpt>
      <trkpt lat="47.5214" lon="-2.83435">
        <ele>58</ele>
        <time>2025-05-13T10:51:07Z</time>
      </trkpt>
      <trkpt lat="47.52144" lon="-2.83434">
        <ele>59</ele>
        <time>2025-05-13T10:51:08Z</time>
      </trkpt>
      <trkpt lat="47.52147" lon="-2.83433">
        <ele>59</ele>
        <time>2025-05-13T10:51:09Z</time>
      </trkpt>
      <trkpt lat="47.52151" lon="-2.83433">
        <ele>59</ele>
        <time>2025-05-13T10:51:10Z</time>
      </trkpt>
      <trkpt lat="47.52155" lon="-2.83432">
        <ele>59</ele>
        <time>2025-05-13T10:51:11Z</time>
      </trkpt>
      <trkpt lat="47.52159" lon="-2.83432">
        <ele>59</ele>
        <time>2025-05-13T10:51:12Z</time>
      </trkpt>
      <trkpt lat="47.52163" lon="-2.83431">
        <ele>59</ele>
        <time>2025-05-13T10:51:13Z</time>
      </trkpt>
      <trkpt lat="47.52167" lon="-2.83431">
        <ele>60</ele>
        <time>2025-05-13T10:51:14Z</time>
      </trkpt>
      <trkpt lat="47.52171" lon="-2.8343">
        <ele>60</ele>
        <time>2025-05-13T10:51:15Z</time>
      </trkpt>
      <trkpt lat="47.52175" lon="-2.8343">
        <ele>60</ele>
        <time>2025-05-13T10:51:16Z</time>
      </trkpt>
      <trkpt lat="47.52179" lon="-2.8343">
        <ele>60</ele>
        <time>2025-05-13T10:51:17Z</time>
      </trkpt>
      <trkpt lat="47.52183" lon="-2.83429">
        <ele>60</ele>
        <time>2025-05-13T10:51:18Z</time>
      </trkpt>
      <trkpt lat="47.52188" lon="-2.83429">
        <ele>60</ele>
        <time>2025-05-13T10:51:19Z</time>
      </trkpt>
      <trkpt lat="47.52192" lon="-2.83429">
        <ele>60</ele>
        <time>2025-05-13T10:51:20Z</time>
      </trkpt>
      <trkpt lat="47.52197" lon="-2.8343">
        <ele>60</ele>
        <time>2025-05-13T10:51:21Z</time>
      </trkpt>
      <trkpt lat="47.52201" lon="-2.8343">
        <ele>60</ele>
        <time>2025-05-13T10:51:22Z</time>
      </trkpt>
      <trkpt lat="47.52205" lon="-2.83431">
        <ele>60</ele>
        <time>2025-05-13T10:51:23Z</time>
      </trkpt>
      <trkpt lat="47.52209" lon="-2.83431">
        <ele>60</ele>
        <time>2025-05-13T10:51:24Z</time>
      </trkpt>
      <trkpt lat="47.52213" lon="-2.83432">
        <ele>60</ele>
        <time>2025-05-13T10:51:25Z</time>
      </trkpt>
      <trkpt lat="47.52217" lon="-2.83433">
        <ele>60</ele>
        <time>2025-05-13T10:51:26Z</time>
      </trkpt>
      <trkpt lat="47.52222" lon="-2.83433">
        <ele>61</ele>
        <time>2025-05-13T10:51:27Z</time>
      </trkpt>
      <trkpt lat="47.52226" lon="-2.83434">
        <ele>61</ele>
        <time>2025-05-13T10:51:28Z</time>
      </trkpt>
      <trkpt lat="47.5223" lon="-2.83434">
        <ele>62</ele>
        <time>2025-05-13T10:51:29Z</time>
      </trkpt>
      <trkpt lat="47.52235" lon="-2.83435">
        <ele>62</ele>
        <time>2025-05-13T10:51:30Z</time>
      </trkpt>
      <trkpt lat="47.52239" lon="-2.83435">
        <ele>61</ele>
        <time>2025-05-13T10:51:31Z</time>
      </trkpt>
      <trkpt lat="47.52243" lon="-2.83436">
        <ele>61</ele>
        <time>2025-05-13T10:51:32Z</time>
      </trkpt>
      <trkpt lat="47.52246" lon="-2.83435">
        <ele>61</ele>
        <time>2025-05-13T10:51:33Z</time>
      </trkpt>
      <trkpt lat="47.5225" lon="-2.83435">
        <ele>61</ele>
        <time>2025-05-13T10:51:34Z</time>
      </trkpt>
      <trkpt lat="47.52254" lon="-2.83436">
        <ele>61</ele>
        <time>2025-05-13T10:51:35Z</time>
      </trkpt>
      <trkpt lat="47.52258" lon="-2.83437">
        <ele>61</ele>
        <time>2025-05-13T10:51:36Z</time>
      </trkpt>
      <trkpt lat="47.52263" lon="-2.83438">
        <ele>60</ele>
        <time>2025-05-13T10:51:37Z</time>
      </trkpt>
      <trkpt lat="47.52268" lon="-2.83439">
        <ele>60</ele>
        <time>2025-05-13T10:51:38Z</time>
      </trkpt>
      <trkpt lat="47.52272" lon="-2.83441">
        <ele>60</ele>
        <time>2025-05-13T10:51:39Z</time>
      </trkpt>
      <trkpt lat="47.52277" lon="-2.83442">
        <ele>60</ele>
        <time>2025-05-13T10:51:40Z</time>
      </trkpt>
      <trkpt lat="47.52281" lon="-2.83444">
        <ele>60</ele>
        <time>2025-05-13T10:51:41Z</time>
      </trkpt>
      <trkpt lat="47.52285" lon="-2.83445">
        <ele>60</ele>
        <time>2025-05-13T10:51:42Z</time>
      </trkpt>
      <trkpt lat="47.52289" lon="-2.83447">
        <ele>60</ele>
        <time>2025-05-13T10:51:43Z</time>
      </trkpt>
      <trkpt lat="47.52293" lon="-2.83449">
        <ele>60</ele>
        <time>2025-05-13T10:51:44Z</time>
      </trkpt>
      <trkpt lat="47.52297" lon="-2.8345">
        <ele>60</ele>
        <time>2025-05-13T10:51:45Z</time>
      </trkpt>
      <trkpt lat="47.52301" lon="-2.83451">
        <ele>60</ele>
        <time>2025-05-13T10:51:46Z</time>
      </trkpt>
      <trkpt lat="47.52304" lon="-2.83452">
        <ele>60</ele>
        <time>2025-05-13T10:51:47Z</time>
      </trkpt>
      <trkpt lat="47.52308" lon="-2.83454">
        <ele>60</ele>
        <time>2025-05-13T10:51:48Z</time>
      </trkpt>
      <trkpt lat="47.52312" lon="-2.83455">
        <ele>60</ele>
        <time>2025-05-13T10:51:49Z</time>
      </trkpt>
      <trkpt lat="47.52315" lon="-2.83456">
        <ele>60</ele>
        <time>2025-05-13T10:51:50Z</time>
      </trkpt>
      <trkpt lat="47.52318" lon="-2.83458">
        <ele>60</ele>
        <time>2025-05-13T10:51:51Z</time>
      </trkpt>
      <trkpt lat="47.52322" lon="-2.83459">
        <ele>60</ele>
        <time>2025-05-13T10:51:52Z</time>
      </trkpt>
      <trkpt lat="47.52326" lon="-2.8346">
        <ele>60</ele>
        <time>2025-05-13T10:51:53Z</time>
      </trkpt>
      <trkpt lat="47.5233" lon="-2.83461">
        <ele>60</ele>
        <time>2025-05-13T10:51:54Z</time>
      </trkpt>
      <trkpt lat="47.52333" lon="-2.83463">
        <ele>60</ele>
        <time>2025-05-13T10:51:55Z</time>
      </trkpt>
      <trkpt lat="47.52337" lon="-2.83465">
        <ele>59</ele>
        <time>2025-05-13T10:51:56Z</time>
      </trkpt>
      <trkpt lat="47.5234" lon="-2.83467">
        <ele>59</ele>
        <time>2025-05-13T10:51:57Z</time>
      </trkpt>
      <trkpt lat="47.52344" lon="-2.83469">
        <ele>59</ele>
        <time>2025-05-13T10:51:58Z</time>
      </trkpt>
      <trkpt lat="47.52347" lon="-2.83472">
        <ele>59</ele>
        <time>2025-05-13T10:51:59Z</time>
      </trkpt>
      <trkpt lat="47.52351" lon="-2.83474">
        <ele>59</ele>
        <time>2025-05-13T10:52:00Z</time>
      </trkpt>
      <trkpt lat="47.52355" lon="-2.83476">
        <ele>59</ele>
        <time>2025-05-13T10:52:01Z</time>
      </trkpt>
      <trkpt lat="47.52359" lon="-2.83478">
        <ele>59</ele>
        <time>2025-05-13T10:52:02Z</time>
      </trkpt>
      <trkpt lat="47.52362" lon="-2.8348">
        <ele>59</ele>
        <time>2025-05-13T10:52:03Z</time>
      </trkpt>
      <trkpt lat="47.52366" lon="-2.83482">
        <ele>59</ele>
        <time>2025-05-13T10:52:04Z</time>
      </trkpt>
      <trkpt lat="47.52369" lon="-2.83484">
        <ele>59</ele>
        <time>2025-05-13T10:52:05Z</time>
      </trkpt>
      <trkpt lat="47.52372" lon="-2.83486">
        <ele>59</ele>
        <time>2025-05-13T10:52:06Z</time>
      </trkpt>
      <trkpt lat="47.52375" lon="-2.83488">
        <ele>59</ele>
        <time>2025-05-13T10:52:07Z</time>
      </trkpt>
      <trkpt lat="47.52378" lon="-2.8349">
        <ele>59</ele>
        <time>2025-05-13T10:52:08Z</time>
      </trkpt>
      <trkpt lat="47.52381" lon="-2.83492">
        <ele>58</ele>
        <time>2025-05-13T10:52:09Z</time>
      </trkpt>
      <trkpt lat="47.52385" lon="-2.83493">
        <ele>58</ele>
        <time>2025-05-13T10:52:10Z</time>
      </trkpt>
      <trkpt lat="47.52388" lon="-2.83496">
        <ele>58</ele>
        <time>2025-05-13T10:52:11Z</time>
      </trkpt>
      <trkpt lat="47.52391" lon="-2.83498">
        <ele>58</ele>
        <time>2025-05-13T10:52:12Z</time>
      </trkpt>
      <trkpt lat="47.52393" lon="-2.835">
        <ele>59</ele>
        <time>2025-05-13T10:52:13Z</time>
      </trkpt>
      <trkpt lat="47.52396" lon="-2.83503">
        <ele>60</ele>
        <time>2025-05-13T10:52:14Z</time>
      </trkpt>
      <trkpt lat="47.52398" lon="-2.83505">
        <ele>60</ele>
        <time>2025-05-13T10:52:15Z</time>
      </trkpt>
      <trkpt lat="47.52401" lon="-2.83507">
        <ele>60</ele>
        <time>2025-05-13T10:52:16Z</time>
      </trkpt>
      <trkpt lat="47.52404" lon="-2.83509">
        <ele>60</ele>
        <time>2025-05-13T10:52:17Z</time>
      </trkpt>
      <trkpt lat="47.52407" lon="-2.83511">
        <ele>59</ele>
        <time>2025-05-13T10:52:18Z</time>
      </trkpt>
      <trkpt lat="47.5241" lon="-2.83513">
        <ele>58</ele>
        <time>2025-05-13T10:52:19Z</time>
      </trkpt>
      <trkpt lat="47.52413" lon="-2.83515">
        <ele>58</ele>
        <time>2025-05-13T10:52:20Z</time>
      </trkpt>
      <trkpt lat="47.52416" lon="-2.83518">
        <ele>58</ele>
        <time>2025-05-13T10:52:21Z</time>
      </trkpt>
      <trkpt lat="47.52419" lon="-2.83521">
        <ele>58</ele>
        <time>2025-05-13T10:52:22Z</time>
      </trkpt>
      <trkpt lat="47.52422" lon="-2.83524">
        <ele>58</ele>
        <time>2025-05-13T10:52:23Z</time>
      </trkpt>
      <trkpt lat="47.52425" lon="-2.83527">
        <ele>58</ele>
        <time>2025-05-13T10:52:24Z</time>
      </trkpt>
      <trkpt lat="47.52428" lon="-2.8353">
        <ele>58</ele>
        <time>2025-05-13T10:52:25Z</time>
      </trkpt>
      <trkpt lat="47.52431" lon="-2.83533">
        <ele>59</ele>
        <time>2025-05-13T10:52:26Z</time>
      </trkpt>
      <trkpt lat="47.52434" lon="-2.83536">
        <ele>60</ele>
        <time>2025-05-13T10:52:27Z</time>
      </trkpt>
      <trkpt lat="47.52438" lon="-2.83538">
        <ele>60</ele>
        <time>2025-05-13T10:52:28Z</time>
      </trkpt>
      <trkpt lat="47.52441" lon="-2.83541">
        <ele>60</ele>
        <time>2025-05-13T10:52:29Z</time>
      </trkpt>
      <trkpt lat="47.52445" lon="-2.83543">
        <ele>60</ele>
        <time>2025-05-13T10:52:30Z</time>
      </trkpt>
      <trkpt lat="47.52448" lon="-2.83544">
        <ele>60</ele>
        <time>2025-05-13T10:52:31Z</time>
      </trkpt>
      <trkpt lat="47.52451" lon="-2.83547">
        <ele>61</ele>
        <time>2025-05-13T10:52:32Z</time>
      </trkpt>
      <trkpt lat="47.52454" lon="-2.83549">
        <ele>61</ele>
        <time>2025-05-13T10:52:33Z</time>
      </trkpt>
      <trkpt lat="47.52457" lon="-2.83551">
        <ele>61</ele>
        <time>2025-05-13T10:52:34Z</time>
      </trkpt>
      <trkpt lat="47.5246" lon="-2.83553">
        <ele>60</ele>
        <time>2025-05-13T10:52:35Z</time>
      </trkpt>
      <trkpt lat="47.52462" lon="-2.83555">
        <ele>59</ele>
        <time>2025-05-13T10:52:36Z</time>
      </trkpt>
      <trkpt lat="47.52465" lon="-2.83557">
        <ele>59</ele>
        <time>2025-05-13T10:52:37Z</time>
      </trkpt>
      <trkpt lat="47.52467" lon="-2.83559">
        <ele>58</ele>
        <time>2025-05-13T10:52:38Z</time>
      </trkpt>
      <trkpt lat="47.5247" lon="-2.83562">
        <ele>58</ele>
        <time>2025-05-13T10:52:39Z</time>
      </trkpt>
      <trkpt lat="47.52473" lon="-2.83564">
        <ele>58</ele>
        <time>2025-05-13T10:52:40Z</time>
      </trkpt>
      <trkpt lat="47.52476" lon="-2.83567">
        <ele>58</ele>
        <time>2025-05-13T10:52:41Z</time>
      </trkpt>
      <trkpt lat="47.52479" lon="-2.83569">
        <ele>58</ele>
        <time>2025-05-13T10:52:42Z</time>
      </trkpt>
      <trkpt lat="47.52482" lon="-2.83572">
        <ele>58</ele>
        <time>2025-05-13T10:52:43Z</time>
      </trkpt>
      <trkpt lat="47.52486" lon="-2.83575">
        <ele>59</ele>
        <time>2025-05-13T10:52:44Z</time>
      </trkpt>
      <trkpt lat="47.52489" lon="-2.83578">
        <ele>59</ele>
        <time>2025-05-13T10:52:45Z</time>
      </trkpt>
      <trkpt lat="47.52492" lon="-2.83581">
        <ele>60</ele>
        <time>2025-05-13T10:52:46Z</time>
      </trkpt>
      <trkpt lat="47.52495" lon="-2.83583">
        <ele>59</ele>
        <time>2025-05-13T10:52:47Z</time>
      </trkpt>
      <trkpt lat="47.52498" lon="-2.83586">
        <ele>59</ele>
        <time>2025-05-13T10:52:48Z</time>
      </trkpt>
      <trkpt lat="47.52502" lon="-2.83588">
        <ele>60</ele>
        <time>2025-05-13T10:52:49Z</time>
      </trkpt>
      <trkpt lat="47.52505" lon="-2.83591">
        <ele>59</ele>
        <time>2025-05-13T10:52:50Z</time>
      </trkpt>
      <trkpt lat="47.52508" lon="-2.83594">
        <ele>60</ele>
        <time>2025-05-13T10:52:51Z</time>
      </trkpt>
      <trkpt lat="47.52511" lon="-2.83597">
        <ele>60</ele>
        <time>2025-05-13T10:52:52Z</time>
      </trkpt>
      <trkpt lat="47.52514" lon="-2.836">
        <ele>61</ele>
        <time>2025-05-13T10:52:53Z</time>
      </trkpt>
      <trkpt lat="47.52517" lon="-2.83603">
        <ele>62</ele>
        <time>2025-05-13T10:52:54Z</time>
      </trkpt>
      <trkpt lat="47.5252" lon="-2.83605">
        <ele>63</ele>
        <time>2025-05-13T10:52:55Z</time>
      </trkpt>
      <trkpt lat="47.52524" lon="-2.83607">
        <ele>64</ele>
        <time>2025-05-13T10:52:56Z</time>
      </trkpt>
      <trkpt lat="47.52527" lon="-2.83608">
        <ele>65</ele>
        <time>2025-05-13T10:52:57Z</time>
      </trkpt>
      <trkpt lat="47.5253" lon="-2.83611">
        <ele>65</ele>
        <time>2025-05-13T10:52:58Z</time>
      </trkpt>
      <trkpt lat="47.52533" lon="-2.83613">
        <ele>65</ele>
        <time>2025-05-13T10:52:59Z</time>
      </trkpt>
      <trkpt lat="47.52537" lon="-2.83615">
        <ele>66</ele>
        <time>2025-05-13T10:53:00Z</time>
      </trkpt>
      <trkpt lat="47.5254" lon="-2.83618">
        <ele>66</ele>
        <time>2025-05-13T10:53:01Z</time>
      </trkpt>
      <trkpt lat="47.52544" lon="-2.83621">
        <ele>66</ele>
        <time>2025-05-13T10:53:02Z</time>
      </trkpt>
      <trkpt lat="47.52547" lon="-2.83624">
        <ele>66</ele>
        <time>2025-05-13T10:53:03Z</time>
      </trkpt>
      <trkpt lat="47.52551" lon="-2.83628">
        <ele>65</ele>
        <time>2025-05-13T10:53:04Z</time>
      </trkpt>
      <trkpt lat="47.52554" lon="-2.83631">
        <ele>65</ele>
        <time>2025-05-13T10:53:05Z</time>
      </trkpt>
      <trkpt lat="47.52557" lon="-2.83634">
        <ele>65</ele>
        <time>2025-05-13T10:53:06Z</time>
      </trkpt>
      <trkpt lat="47.52561" lon="-2.83636">
        <ele>65</ele>
        <time>2025-05-13T10:53:07Z</time>
      </trkpt>
      <trkpt lat="47.52565" lon="-2.83639">
        <ele>65</ele>
        <time>2025-05-13T10:53:08Z</time>
      </trkpt>
      <trkpt lat="47.52568" lon="-2.83641">
        <ele>65</ele>
        <time>2025-05-13T10:53:09Z</time>
      </trkpt>
      <trkpt lat="47.52572" lon="-2.83644">
        <ele>65</ele>
        <time>2025-05-13T10:53:10Z</time>
      </trkpt>
      <trkpt lat="47.52575" lon="-2.83648">
        <ele>64</ele>
        <time>2025-05-13T10:53:11Z</time>
      </trkpt>
      <trkpt lat="47.52578" lon="-2.83651">
        <ele>64</ele>
        <time>2025-05-13T10:53:12Z</time>
      </trkpt>
      <trkpt lat="47.52581" lon="-2.83654">
        <ele>64</ele>
        <time>2025-05-13T10:53:13Z</time>
      </trkpt>
      <trkpt lat="47.52585" lon="-2.83656">
        <ele>64</ele>
        <time>2025-05-13T10:53:14Z</time>
      </trkpt>
      <trkpt lat="47.52588" lon="-2.83658">
        <ele>64</ele>
        <time>2025-05-13T10:53:15Z</time>
      </trkpt>
      <trkpt lat="47.52592" lon="-2.8366">
        <ele>63</ele>
        <time>2025-05-13T10:53:16Z</time>
      </trkpt>
      <trkpt lat="47.52596" lon="-2.83663">
        <ele>63</ele>
        <time>2025-05-13T10:53:17Z</time>
      </trkpt>
      <trkpt lat="47.52599" lon="-2.83666">
        <ele>64</ele>
        <time>2025-05-13T10:53:18Z</time>
      </trkpt>
      <trkpt lat="47.52603" lon="-2.8367">
        <ele>64</ele>
        <time>2025-05-13T10:53:19Z</time>
      </trkpt>
      <trkpt lat="47.52608" lon="-2.83674">
        <ele>64</ele>
        <time>2025-05-13T10:53:20Z</time>
      </trkpt>
      <trkpt lat="47.52612" lon="-2.83678">
        <ele>64</ele>
        <time>2025-05-13T10:53:21Z</time>
      </trkpt>
      <trkpt lat="47.52616" lon="-2.83682">
        <ele>63</ele>
        <time>2025-05-13T10:53:22Z</time>
      </trkpt>
      <trkpt lat="47.5262" lon="-2.83685">
        <ele>63</ele>
        <time>2025-05-13T10:53:23Z</time>
      </trkpt>
      <trkpt lat="47.52623" lon="-2.83688">
        <ele>62</ele>
        <time>2025-05-13T10:53:24Z</time>
      </trkpt>
      <trkpt lat="47.52627" lon="-2.83692">
        <ele>61</ele>
        <time>2025-05-13T10:53:25Z</time>
      </trkpt>
      <trkpt lat="47.5263" lon="-2.83694">
        <ele>60</ele>
        <time>2025-05-13T10:53:26Z</time>
      </trkpt>
      <trkpt lat="47.52634" lon="-2.83698">
        <ele>60</ele>
        <time>2025-05-13T10:53:27Z</time>
      </trkpt>
      <trkpt lat="47.52638" lon="-2.83701">
        <ele>60</ele>
        <time>2025-05-13T10:53:28Z</time>
      </trkpt>
      <trkpt lat="47.52641" lon="-2.83704">
        <ele>60</ele>
        <time>2025-05-13T10:53:29Z</time>
      </trkpt>
      <trkpt lat="47.52645" lon="-2.83706">
        <ele>59</ele>
        <time>2025-05-13T10:53:30Z</time>
      </trkpt>
      <trkpt lat="47.52648" lon="-2.83708">
        <ele>59</ele>
        <time>2025-05-13T10:53:31Z</time>
      </trkpt>
      <trkpt lat="47.52651" lon="-2.83711">
        <ele>59</ele>
        <time>2025-05-13T10:53:32Z</time>
      </trkpt>
      <trkpt lat="47.52655" lon="-2.83714">
        <ele>59</ele>
        <time>2025-05-13T10:53:33Z</time>
      </trkpt>
      <trkpt lat="47.52659" lon="-2.83717">
        <ele>59</ele>
        <time>2025-05-13T10:53:34Z</time>
      </trkpt>
      <trkpt lat="47.52662" lon="-2.83719">
        <ele>59</ele>
        <time>2025-05-13T10:53:35Z</time>
      </trkpt>
      <trkpt lat="47.52664" lon="-2.83722">
        <ele>59</ele>
        <time>2025-05-13T10:53:36Z</time>
      </trkpt>
      <trkpt lat="47.52667" lon="-2.83725">
        <ele>59</ele>
        <time>2025-05-13T10:53:37Z</time>
      </trkpt>
      <trkpt lat="47.52671" lon="-2.83728">
        <ele>59</ele>
        <time>2025-05-13T10:53:38Z</time>
      </trkpt>
      <trkpt lat="47.52675" lon="-2.83731">
        <ele>59</ele>
        <time>2025-05-13T10:53:39Z</time>
      </trkpt>
      <trkpt lat="47.52678" lon="-2.83734">
        <ele>59</ele>
        <time>2025-05-13T10:53:40Z</time>
      </trkpt>
      <trkpt lat="47.52682" lon="-2.83736">
        <ele>59</ele>
        <time>2025-05-13T10:53:41Z</time>
      </trkpt>
      <trkpt lat="47.52685" lon="-2.83739">
        <ele>60</ele>
        <time>2025-05-13T10:53:42Z</time>
      </trkpt>
      <trkpt lat="47.52689" lon="-2.83742">
        <ele>60</ele>
        <time>2025-05-13T10:53:43Z</time>
      </trkpt>
      <trkpt lat="47.52692" lon="-2.83745">
        <ele>60</ele>
        <time>2025-05-13T10:53:44Z</time>
      </trkpt>
      <trkpt lat="47.52695" lon="-2.83748">
        <ele>59</ele>
        <time>2025-05-13T10:53:45Z</time>
      </trkpt>
      <trkpt lat="47.52699" lon="-2.83751">
        <ele>59</ele>
        <time>2025-05-13T10:53:46Z</time>
      </trkpt>
      <trkpt lat="47.52702" lon="-2.83754">
        <ele>60</ele>
        <time>2025-05-13T10:53:47Z</time>
      </trkpt>
      <trkpt lat="47.52706" lon="-2.83757">
        <ele>60</ele>
        <time>2025-05-13T10:53:48Z</time>
      </trkpt>
      <trkpt lat="47.52709" lon="-2.8376">
        <ele>60</ele>
        <time>2025-05-13T10:53:49Z</time>
      </trkpt>
      <trkpt lat="47.52713" lon="-2.83762">
        <ele>61</ele>
        <time>2025-05-13T10:53:50Z</time>
      </trkpt>
      <trkpt lat="47.52716" lon="-2.83765">
        <ele>61</ele>
        <time>2025-05-13T10:53:51Z</time>
      </trkpt>
      <trkpt lat="47.52719" lon="-2.83767">
        <ele>61</ele>
        <time>2025-05-13T10:53:52Z</time>
      </trkpt>
      <trkpt lat="47.52723" lon="-2.8377">
        <ele>61</ele>
        <time>2025-05-13T10:53:53Z</time>
      </trkpt>
      <trkpt lat="47.52726" lon="-2.83773">
        <ele>61</ele>
        <time>2025-05-13T10:53:54Z</time>
      </trkpt>
      <trkpt lat="47.52729" lon="-2.83775">
        <ele>61</ele>
        <time>2025-05-13T10:53:55Z</time>
      </trkpt>
      <trkpt lat="47.52733" lon="-2.83778">
        <ele>60</ele>
        <time>2025-05-13T10:53:56Z</time>
      </trkpt>
      <trkpt lat="47.52735" lon="-2.8378">
        <ele>61</ele>
        <time>2025-05-13T10:53:57Z</time>
      </trkpt>
      <trkpt lat="47.52738" lon="-2.83782">
        <ele>61</ele>
        <time>2025-05-13T10:53:58Z</time>
      </trkpt>
      <trkpt lat="47.52741" lon="-2.83784">
        <ele>61</ele>
        <time>2025-05-13T10:53:59Z</time>
      </trkpt>
      <trkpt lat="47.52744" lon="-2.83787">
        <ele>61</ele>
        <time>2025-05-13T10:54:00Z</time>
      </trkpt>
      <trkpt lat="47.52747" lon="-2.83789">
        <ele>61</ele>
        <time>2025-05-13T10:54:01Z</time>
      </trkpt>
      <trkpt lat="47.52749" lon="-2.83791">
        <ele>61</ele>
        <time>2025-05-13T10:54:02Z</time>
      </trkpt>
      <trkpt lat="47.52752" lon="-2.83793">
        <ele>61</ele>
        <time>2025-05-13T10:54:03Z</time>
      </trkpt>
      <trkpt lat="47.52755" lon="-2.83796">
        <ele>61</ele>
        <time>2025-05-13T10:54:04Z</time>
      </trkpt>
      <trkpt lat="47.52758" lon="-2.83798">
        <ele>61</ele>
        <time>2025-05-13T10:54:05Z</time>
      </trkpt>
      <trkpt lat="47.5276" lon="-2.83801">
        <ele>62</ele>
        <time>2025-05-13T10:54:06Z</time>
      </trkpt>
      <trkpt lat="47.52764" lon="-2.83803">
        <ele>62</ele>
        <time>2025-05-13T10:54:07Z</time>
      </trkpt>
      <trkpt lat="47.52767" lon="-2.83804">
        <ele>63</ele>
        <time>2025-05-13T10:54:08Z</time>
      </trkpt>
      <trkpt lat="47.5277" lon="-2.83807">
        <ele>63</ele>
        <time>2025-05-13T10:54:09Z</time>
      </trkpt>
      <trkpt lat="47.52773" lon="-2.8381">
        <ele>63</ele>
        <time>2025-05-13T10:54:10Z</time>
      </trkpt>
      <trkpt lat="47.52776" lon="-2.83813">
        <ele>62</ele>
        <time>2025-05-13T10:54:11Z</time>
      </trkpt>
      <trkpt lat="47.52778" lon="-2.83815">
        <ele>62</ele>
        <time>2025-05-13T10:54:12Z</time>
      </trkpt>
      <trkpt lat="47.52782" lon="-2.83818">
        <ele>62</ele>
        <time>2025-05-13T10:54:13Z</time>
      </trkpt>
      <trkpt lat="47.52784" lon="-2.83821">
        <ele>61</ele>
        <time>2025-05-13T10:54:14Z</time>
      </trkpt>
      <trkpt lat="47.52787" lon="-2.83824">
        <ele>61</ele>
        <time>2025-05-13T10:54:15Z</time>
      </trkpt>
      <trkpt lat="47.52791" lon="-2.83826">
        <ele>61</ele>
        <time>2025-05-13T10:54:16Z</time>
      </trkpt>
      <trkpt lat="47.52794" lon="-2.83829">
        <ele>61</ele>
        <time>2025-05-13T10:54:17Z</time>
      </trkpt>
      <trkpt lat="47.52797" lon="-2.83831">
        <ele>61</ele>
        <time>2025-05-13T10:54:18Z</time>
      </trkpt>
      <trkpt lat="47.528" lon="-2.83833">
        <ele>61</ele>
        <time>2025-05-13T10:54:19Z</time>
      </trkpt>
      <trkpt lat="47.52803" lon="-2.83835">
        <ele>61</ele>
        <time>2025-05-13T10:54:20Z</time>
      </trkpt>
      <trkpt lat="47.52806" lon="-2.83837">
        <ele>61</ele>
        <time>2025-05-13T10:54:21Z</time>
      </trkpt>
      <trkpt lat="47.52809" lon="-2.8384">
        <ele>62</ele>
        <time>2025-05-13T10:54:22Z</time>
      </trkpt>
      <trkpt lat="47.52813" lon="-2.83842">
        <ele>62</ele>
        <time>2025-05-13T10:54:23Z</time>
      </trkpt>
      <trkpt lat="47.52816" lon="-2.83844">
        <ele>62</ele>
        <time>2025-05-13T10:54:24Z</time>
      </trkpt>
      <trkpt lat="47.52819" lon="-2.83847">
        <ele>62</ele>
        <time>2025-05-13T10:54:25Z</time>
      </trkpt>
      <trkpt lat="47.52822" lon="-2.83849">
        <ele>62</ele>
        <time>2025-05-13T10:54:26Z</time>
      </trkpt>
      <trkpt lat="47.52825" lon="-2.83851">
        <ele>62</ele>
        <time>2025-05-13T10:54:27Z</time>
      </trkpt>
      <trkpt lat="47.52828" lon="-2.83854">
        <ele>62</ele>
        <time>2025-05-13T10:54:28Z</time>
      </trkpt>
      <trkpt lat="47.5283" lon="-2.83856">
        <ele>63</ele>
        <time>2025-05-13T10:54:29Z</time>
      </trkpt>
      <trkpt lat="47.52833" lon="-2.83859">
        <ele>63</ele>
        <time>2025-05-13T10:54:30Z</time>
      </trkpt>
      <trkpt lat="47.52836" lon="-2.8386">
        <ele>63</ele>
        <time>2025-05-13T10:54:31Z</time>
      </trkpt>
      <trkpt lat="47.52838" lon="-2.83863">
        <ele>64</ele>
        <time>2025-05-13T10:54:32Z</time>
      </trkpt>
      <trkpt lat="47.52841" lon="-2.83865">
        <ele>64</ele>
        <time>2025-05-13T10:54:33Z</time>
      </trkpt>
      <trkpt lat="47.52843" lon="-2.83867">
        <ele>64</ele>
        <time>2025-05-13T10:54:34Z</time>
      </trkpt>
      <trkpt lat="47.52846" lon="-2.83869">
        <ele>63</ele>
        <time>2025-05-13T10:54:35Z</time>
      </trkpt>
      <trkpt lat="47.52849" lon="-2.83872">
        <ele>63</ele>
        <time>2025-05-13T10:54:36Z</time>
      </trkpt>
      <trkpt lat="47.52852" lon="-2.83874">
        <ele>63</ele>
        <time>2025-05-13T10:54:37Z</time>
      </trkpt>
      <trkpt lat="47.52855" lon="-2.83878">
        <ele>62</ele>
        <time>2025-05-13T10:54:38Z</time>
      </trkpt>
      <trkpt lat="47.52858" lon="-2.8388">
        <ele>62</ele>
        <time>2025-05-13T10:54:39Z</time>
      </trkpt>
      <trkpt lat="47.52861" lon="-2.83882">
        <ele>62</ele>
        <time>2025-05-13T10:54:40Z</time>
      </trkpt>
      <trkpt lat="47.52864" lon="-2.83884">
        <ele>62</ele>
        <time>2025-05-13T10:54:41Z</time>
      </trkpt>
      <trkpt lat="47.52867" lon="-2.83886">
        <ele>62</ele>
        <time>2025-05-13T10:54:42Z</time>
      </trkpt>
      <trkpt lat="47.5287" lon="-2.83888">
        <ele>62</ele>
        <time>2025-05-13T10:54:43Z</time>
      </trkpt>
      <trkpt lat="47.52873" lon="-2.83891">
        <ele>62</ele>
        <time>2025-05-13T10:54:44Z</time>
      </trkpt>
      <trkpt lat="47.52875" lon="-2.83893">
        <ele>63</ele>
        <time>2025-05-13T10:54:45Z</time>
      </trkpt>
      <trkpt lat="47.52878" lon="-2.83895">
        <ele>62</ele>
        <time>2025-05-13T10:54:46Z</time>
      </trkpt>
      <trkpt lat="47.52881" lon="-2.83897">
        <ele>62</ele>
        <time>2025-05-13T10:54:47Z</time>
      </trkpt>
      <trkpt lat="47.52883" lon="-2.839">
        <ele>62</ele>
        <time>2025-05-13T10:54:48Z</time>
      </trkpt>
      <trkpt lat="47.52886" lon="-2.83903">
        <ele>63</ele>
        <time>2025-05-13T10:54:49Z</time>
      </trkpt>
      <trkpt lat="47.52888" lon="-2.83905">
        <ele>63</ele>
        <time>2025-05-13T10:54:50Z</time>
      </trkpt>
      <trkpt lat="47.52891" lon="-2.83907">
        <ele>63</ele>
        <time>2025-05-13T10:54:51Z</time>
      </trkpt>
      <trkpt lat="47.52893" lon="-2.83908">
        <ele>63</ele>
        <time>2025-05-13T10:54:52Z</time>
      </trkpt>
      <trkpt lat="47.52896" lon="-2.8391">
        <ele>64</ele>
        <time>2025-05-13T10:54:53Z</time>
      </trkpt>
      <trkpt lat="47.52898" lon="-2.83912">
        <ele>63</ele>
        <time>2025-05-13T10:54:54Z</time>
      </trkpt>
      <trkpt lat="47.52901" lon="-2.83914">
        <ele>63</ele>
        <time>2025-05-13T10:54:55Z</time>
      </trkpt>
      <trkpt lat="47.52904" lon="-2.83916">
        <ele>63</ele>
        <time>2025-05-13T10:54:56Z</time>
      </trkpt>
      <trkpt lat="47.52906" lon="-2.83918">
        <ele>63</ele>
        <time>2025-05-13T10:54:57Z</time>
      </trkpt>
      <trkpt lat="47.52909" lon="-2.8392">
        <ele>63</ele>
        <time>2025-05-13T10:54:58Z</time>
      </trkpt>
      <trkpt lat="47.52911" lon="-2.83923">
        <ele>64</ele>
        <time>2025-05-13T10:54:59Z</time>
      </trkpt>
      <trkpt lat="47.52914" lon="-2.83925">
        <ele>65</ele>
        <time>2025-05-13T10:55:00Z</time>
      </trkpt>
      <trkpt lat="47.52916" lon="-2.83927">
        <ele>66</ele>
        <time>2025-05-13T10:55:01Z</time>
      </trkpt>
      <trkpt lat="47.52918" lon="-2.8393">
        <ele>66</ele>
        <time>2025-05-13T10:55:02Z</time>
      </trkpt>
      <trkpt lat="47.5292" lon="-2.83932">
        <ele>66</ele>
        <time>2025-05-13T10:55:03Z</time>
      </trkpt>
      <trkpt lat="47.52921" lon="-2.83936">
        <ele>67</ele>
        <time>2025-05-13T10:55:04Z</time>
      </trkpt>
      <trkpt lat="47.52922" lon="-2.83939">
        <ele>67</ele>
        <time>2025-05-13T10:55:05Z</time>
      </trkpt>
      <trkpt lat="47.52923" lon="-2.83943">
        <ele>67</ele>
        <time>2025-05-13T10:55:06Z</time>
      </trkpt>
      <trkpt lat="47.52924" lon="-2.83947">
        <ele>67</ele>
        <time>2025-05-13T10:55:07Z</time>
      </trkpt>
      <trkpt lat="47.52926" lon="-2.83951">
        <ele>68</ele>
        <time>2025-05-13T10:55:08Z</time>
      </trkpt>
      <trkpt lat="47.52927" lon="-2.83956">
        <ele>68</ele>
        <time>2025-05-13T10:55:09Z</time>
      </trkpt>
      <trkpt lat="47.52929" lon="-2.8396">
        <ele>68</ele>
        <time>2025-05-13T10:55:10Z</time>
      </trkpt>
      <trkpt lat="47.5293" lon="-2.83964">
        <ele>68</ele>
        <time>2025-05-13T10:55:11Z</time>
      </trkpt>
      <trkpt lat="47.52931" lon="-2.83968">
        <ele>68</ele>
        <time>2025-05-13T10:55:12Z</time>
      </trkpt>
      <trkpt lat="47.52933" lon="-2.83973">
        <ele>67</ele>
        <time>2025-05-13T10:55:13Z</time>
      </trkpt>
      <trkpt lat="47.52934" lon="-2.83977">
        <ele>67</ele>
        <time>2025-05-13T10:55:14Z</time>
      </trkpt>
      <trkpt lat="47.52935" lon="-2.83981">
        <ele>67</ele>
        <time>2025-05-13T10:55:15Z</time>
      </trkpt>
      <trkpt lat="47.52937" lon="-2.83986">
        <ele>67</ele>
        <time>2025-05-13T10:55:16Z</time>
      </trkpt>
      <trkpt lat="47.52939" lon="-2.8399">
        <ele>67</ele>
        <time>2025-05-13T10:55:17Z</time>
      </trkpt>
      <trkpt lat="47.5294" lon="-2.83995">
        <ele>67</ele>
        <time>2025-05-13T10:55:18Z</time>
      </trkpt>
      <trkpt lat="47.52942" lon="-2.84">
        <ele>67</ele>
        <time>2025-05-13T10:55:19Z</time>
      </trkpt>
      <trkpt lat="47.52943" lon="-2.84004">
        <ele>67</ele>
        <time>2025-05-13T10:55:20Z</time>
      </trkpt>
      <trkpt lat="47.52945" lon="-2.84009">
        <ele>67</ele>
        <time>2025-05-13T10:55:21Z</time>
      </trkpt>
      <trkpt lat="47.52946" lon="-2.84014">
        <ele>67</ele>
        <time>2025-05-13T10:55:22Z</time>
      </trkpt>
      <trkpt lat="47.52948" lon="-2.84018">
        <ele>67</ele>
        <time>2025-05-13T10:55:23Z</time>
      </trkpt>
      <trkpt lat="47.52951" lon="-2.84023">
        <ele>68</ele>
        <time>2025-05-13T10:55:24Z</time>
      </trkpt>
      <trkpt lat="47.52953" lon="-2.84027">
        <ele>67</ele>
        <time>2025-05-13T10:55:25Z</time>
      </trkpt>
      <trkpt lat="47.52955" lon="-2.84032">
        <ele>67</ele>
        <time>2025-05-13T10:55:26Z</time>
      </trkpt>
      <trkpt lat="47.52957" lon="-2.84036">
        <ele>67</ele>
        <time>2025-05-13T10:55:27Z</time>
      </trkpt>
      <trkpt lat="47.5296" lon="-2.8404">
        <ele>67</ele>
        <time>2025-05-13T10:55:28Z</time>
      </trkpt>
      <trkpt lat="47.52962" lon="-2.84044">
        <ele>67</ele>
        <time>2025-05-13T10:55:29Z</time>
      </trkpt>
      <trkpt lat="47.52965" lon="-2.84049">
        <ele>67</ele>
        <time>2025-05-13T10:55:30Z</time>
      </trkpt>
      <trkpt lat="47.52968" lon="-2.84053">
        <ele>68</ele>
        <time>2025-05-13T10:55:31Z</time>
      </trkpt>
      <trkpt lat="47.5297" lon="-2.84058">
        <ele>68</ele>
        <time>2025-05-13T10:55:32Z</time>
      </trkpt>
      <trkpt lat="47.52973" lon="-2.84063">
        <ele>68</ele>
        <time>2025-05-13T10:55:33Z</time>
      </trkpt>
      <trkpt lat="47.52976" lon="-2.84067">
        <ele>67</ele>
        <time>2025-05-13T10:55:34Z</time>
      </trkpt>
      <trkpt lat="47.52979" lon="-2.84071">
        <ele>67</ele>
        <time>2025-05-13T10:55:35Z</time>
      </trkpt>
      <trkpt lat="47.52982" lon="-2.84075">
        <ele>66</ele>
        <time>2025-05-13T10:55:36Z</time>
      </trkpt>
      <trkpt lat="47.52985" lon="-2.8408">
        <ele>66</ele>
        <time>2025-05-13T10:55:37Z</time>
      </trkpt>
      <trkpt lat="47.52988" lon="-2.84083">
        <ele>65</ele>
        <time>2025-05-13T10:55:38Z</time>
      </trkpt>
      <trkpt lat="47.52991" lon="-2.84087">
        <ele>64</ele>
        <time>2025-05-13T10:55:39Z</time>
      </trkpt>
      <trkpt lat="47.52994" lon="-2.84091">
        <ele>64</ele>
        <time>2025-05-13T10:55:40Z</time>
      </trkpt>
      <trkpt lat="47.52997" lon="-2.84096">
        <ele>63</ele>
        <time>2025-05-13T10:55:41Z</time>
      </trkpt>
      <trkpt lat="47.53" lon="-2.84101">
        <ele>63</ele>
        <time>2025-05-13T10:55:42Z</time>
      </trkpt>
      <trkpt lat="47.53002" lon="-2.84106">
        <ele>63</ele>
        <time>2025-05-13T10:55:43Z</time>
      </trkpt>
      <trkpt lat="47.53005" lon="-2.84111">
        <ele>63</ele>
        <time>2025-05-13T10:55:44Z</time>
      </trkpt>
      <trkpt lat="47.53007" lon="-2.84115">
        <ele>64</ele>
        <time>2025-05-13T10:55:45Z</time>
      </trkpt>
      <trkpt lat="47.53011" lon="-2.8412">
        <ele>64</ele>
        <time>2025-05-13T10:55:46Z</time>
      </trkpt>
      <trkpt lat="47.53014" lon="-2.84125">
        <ele>64</ele>
        <time>2025-05-13T10:55:47Z</time>
      </trkpt>
      <trkpt lat="47.53017" lon="-2.8413">
        <ele>64</ele>
        <time>2025-05-13T10:55:48Z</time>
      </trkpt>
      <trkpt lat="47.53019" lon="-2.84135">
        <ele>65</ele>
        <time>2025-05-13T10:55:49Z</time>
      </trkpt>
      <trkpt lat="47.53022" lon="-2.84141">
        <ele>65</ele>
        <time>2025-05-13T10:55:50Z</time>
      </trkpt>
      <trkpt lat="47.53024" lon="-2.84146">
        <ele>65</ele>
        <time>2025-05-13T10:55:51Z</time>
      </trkpt>
      <trkpt lat="47.53027" lon="-2.84151">
        <ele>65</ele>
        <time>2025-05-13T10:55:52Z</time>
      </trkpt>
      <trkpt lat="47.5303" lon="-2.84157">
        <ele>65</ele>
        <time>2025-05-13T10:55:53Z</time>
      </trkpt>
      <trkpt lat="47.53032" lon="-2.84162">
        <ele>65</ele>
        <time>2025-05-13T10:55:54Z</time>
      </trkpt>
      <trkpt lat="47.53034" lon="-2.84167">
        <ele>65</ele>
        <time>2025-05-13T10:55:55Z</time>
      </trkpt>
      <trkpt lat="47.53037" lon="-2.84172">
        <ele>66</ele>
        <time>2025-05-13T10:55:56Z</time>
      </trkpt>
      <trkpt lat="47.53039" lon="-2.84176">
        <ele>66</ele>
        <time>2025-05-13T10:55:57Z</time>
      </trkpt>
      <trkpt lat="47.5304" lon="-2.84181">
        <ele>66</ele>
        <time>2025-05-13T10:55:58Z</time>
      </trkpt>
      <trkpt lat="47.53042" lon="-2.84186">
        <ele>66</ele>
        <time>2025-05-13T10:55:59Z</time>
      </trkpt>
      <trkpt lat="47.53044" lon="-2.84191">
        <ele>66</ele>
        <time>2025-05-13T10:56:00Z</time>
      </trkpt>
      <trkpt lat="47.53046" lon="-2.84196">
        <ele>66</ele>
        <time>2025-05-13T10:56:01Z</time>
      </trkpt>
      <trkpt lat="47.53048" lon="-2.842">
        <ele>65</ele>
        <time>2025-05-13T10:56:02Z</time>
      </trkpt>
      <trkpt lat="47.5305" lon="-2.84204">
        <ele>65</ele>
        <time>2025-05-13T10:56:03Z</time>
      </trkpt>
      <trkpt lat="47.53053" lon="-2.84208">
        <ele>65</ele>
        <time>2025-05-13T10:56:04Z</time>
      </trkpt>
      <trkpt lat="47.53055" lon="-2.84213">
        <ele>65</ele>
        <time>2025-05-13T10:56:05Z</time>
      </trkpt>
      <trkpt lat="47.53057" lon="-2.84217">
        <ele>65</ele>
        <time>2025-05-13T10:56:06Z</time>
      </trkpt>
      <trkpt lat="47.5306" lon="-2.84222">
        <ele>65</ele>
        <time>2025-05-13T10:56:07Z</time>
      </trkpt>
      <trkpt lat="47.53062" lon="-2.84227">
        <ele>65</ele>
        <time>2025-05-13T10:56:08Z</time>
      </trkpt>
      <trkpt lat="47.53064" lon="-2.84232">
        <ele>65</ele>
        <time>2025-05-13T10:56:09Z</time>
      </trkpt>
      <trkpt lat="47.53066" lon="-2.84237">
        <ele>65</ele>
        <time>2025-05-13T10:56:10Z</time>
      </trkpt>
      <trkpt lat="47.53068" lon="-2.84242">
        <ele>66</ele>
        <time>2025-05-13T10:56:11Z</time>
      </trkpt>
      <trkpt lat="47.5307" lon="-2.84247">
        <ele>66</ele>
        <time>2025-05-13T10:56:12Z</time>
      </trkpt>
      <trkpt lat="47.53072" lon="-2.84252">
        <ele>66</ele>
        <time>2025-05-13T10:56:13Z</time>
      </trkpt>
      <trkpt lat="47.53074" lon="-2.84257">
        <ele>66</ele>
        <time>2025-05-13T10:56:14Z</time>
      </trkpt>
      <trkpt lat="47.53076" lon="-2.84262">
        <ele>66</ele>
        <time>2025-05-13T10:56:15Z</time>
      </trkpt>
      <trkpt lat="47.53078" lon="-2.84266">
        <ele>66</ele>
        <time>2025-05-13T10:56:16Z</time>
      </trkpt>
      <trkpt lat="47.53079" lon="-2.84271">
        <ele>66</ele>
        <time>2025-05-13T10:56:17Z</time>
      </trkpt>
      <trkpt lat="47.53081" lon="-2.84276">
        <ele>66</ele>
        <time>2025-05-13T10:56:18Z</time>
      </trkpt>
      <trkpt lat="47.53083" lon="-2.8428">
        <ele>67</ele>
        <time>2025-05-13T10:56:19Z</time>
      </trkpt>
      <trkpt lat="47.53085" lon="-2.84285">
        <ele>67</ele>
        <time>2025-05-13T10:56:20Z</time>
      </trkpt>
      <trkpt lat="47.53087" lon="-2.84289">
        <ele>67</ele>
        <time>2025-05-13T10:56:21Z</time>
      </trkpt>
      <trkpt lat="47.53088" lon="-2.84294">
        <ele>67</ele>
        <time>2025-05-13T10:56:22Z</time>
      </trkpt>
      <trkpt lat="47.5309" lon="-2.84299">
        <ele>67</ele>
        <time>2025-05-13T10:56:23Z</time>
      </trkpt>
      <trkpt lat="47.53091" lon="-2.84304">
        <ele>67</ele>
        <time>2025-05-13T10:56:24Z</time>
      </trkpt>
      <trkpt lat="47.53093" lon="-2.84309">
        <ele>67</ele>
        <time>2025-05-13T10:56:25Z</time>
      </trkpt>
      <trkpt lat="47.53095" lon="-2.84314">
        <ele>67</ele>
        <time>2025-05-13T10:56:26Z</time>
      </trkpt>
      <trkpt lat="47.53097" lon="-2.84319">
        <ele>67</ele>
        <time>2025-05-13T10:56:27Z</time>
      </trkpt>
      <trkpt lat="47.53098" lon="-2.84323">
        <ele>67</ele>
        <time>2025-05-13T10:56:28Z</time>
      </trkpt>
      <trkpt lat="47.531" lon="-2.84328">
        <ele>67</ele>
        <time>2025-05-13T10:56:29Z</time>
      </trkpt>
      <trkpt lat="47.53101" lon="-2.84334">
        <ele>67</ele>
        <time>2025-05-13T10:56:30Z</time>
      </trkpt>
      <trkpt lat="47.53102" lon="-2.84339">
        <ele>67</ele>
        <time>2025-05-13T10:56:31Z</time>
      </trkpt>
      <trkpt lat="47.53104" lon="-2.84344">
        <ele>67</ele>
        <time>2025-05-13T10:56:32Z</time>
      </trkpt>
      <trkpt lat="47.53105" lon="-2.84349">
        <ele>67</ele>
        <time>2025-05-13T10:56:33Z</time>
      </trkpt>
      <trkpt lat="47.53107" lon="-2.84354">
        <ele>67</ele>
        <time>2025-05-13T10:56:34Z</time>
      </trkpt>
      <trkpt lat="47.53108" lon="-2.84359">
        <ele>67</ele>
        <time>2025-05-13T10:56:35Z</time>
      </trkpt>
      <trkpt lat="47.5311" lon="-2.84364">
        <ele>67</ele>
        <time>2025-05-13T10:56:36Z</time>
      </trkpt>
      <trkpt lat="47.53112" lon="-2.84368">
        <ele>67</ele>
        <time>2025-05-13T10:56:37Z</time>
      </trkpt>
      <trkpt lat="47.53114" lon="-2.84372">
        <ele>67</ele>
        <time>2025-05-13T10:56:38Z</time>
      </trkpt>
      <trkpt lat="47.53115" lon="-2.84377">
        <ele>67</ele>
        <time>2025-05-13T10:56:39Z</time>
      </trkpt>
      <trkpt lat="47.53117" lon="-2.84381">
        <ele>67</ele>
        <time>2025-05-13T10:56:40Z</time>
      </trkpt>
      <trkpt lat="47.53118" lon="-2.84385">
        <ele>67</ele>
        <time>2025-05-13T10:56:41Z</time>
      </trkpt>
      <trkpt lat="47.5312" lon="-2.84389">
        <ele>68</ele>
        <time>2025-05-13T10:56:42Z</time>
      </trkpt>
      <trkpt lat="47.53121" lon="-2.84394">
        <ele>67</ele>
        <time>2025-05-13T10:56:43Z</time>
      </trkpt>
      <trkpt lat="47.53123" lon="-2.84398">
        <ele>68</ele>
        <time>2025-05-13T10:56:44Z</time>
      </trkpt>
      <trkpt lat="47.53125" lon="-2.84401">
        <ele>68</ele>
        <time>2025-05-13T10:56:45Z</time>
      </trkpt>
      <trkpt lat="47.53127" lon="-2.84404">
        <ele>68</ele>
        <time>2025-05-13T10:56:46Z</time>
      </trkpt>
      <trkpt lat="47.53128" lon="-2.84408">
        <ele>68</ele>
        <time>2025-05-13T10:56:47Z</time>
      </trkpt>
      <trkpt lat="47.5313" lon="-2.84411">
        <ele>68</ele>
        <time>2025-05-13T10:56:48Z</time>
      </trkpt>
      <trkpt lat="47.53132" lon="-2.84415">
        <ele>68</ele>
        <time>2025-05-13T10:56:49Z</time>
      </trkpt>
      <trkpt lat="47.53133" lon="-2.84418">
        <ele>68</ele>
        <time>2025-05-13T10:56:50Z</time>
      </trkpt>
      <trkpt lat="47.53134" lon="-2.84421">
        <ele>68</ele>
        <time>2025-05-13T10:56:51Z</time>
      </trkpt>
      <trkpt lat="47.53136" lon="-2.84423">
        <ele>67</ele>
        <time>2025-05-13T10:56:52Z</time>
      </trkpt>
      <trkpt lat="47.53138" lon="-2.84425">
        <ele>67</ele>
        <time>2025-05-13T10:56:53Z</time>
      </trkpt>
      <trkpt lat="47.5314" lon="-2.84427">
        <ele>66</ele>
        <time>2025-05-13T10:56:54Z</time>
      </trkpt>
      <trkpt lat="47.53143" lon="-2.84428">
        <ele>66</ele>
        <time>2025-05-13T10:56:55Z</time>
      </trkpt>
      <trkpt lat="47.53145" lon="-2.84429">
        <ele>66</ele>
        <time>2025-05-13T10:56:56Z</time>
      </trkpt>
      <trkpt lat="47.53148" lon="-2.84429">
        <ele>65</ele>
        <time>2025-05-13T10:56:57Z</time>
      </trkpt>
      <trkpt lat="47.53151" lon="-2.8443">
        <ele>65</ele>
        <time>2025-05-13T10:56:58Z</time>
      </trkpt>
      <trkpt lat="47.53154" lon="-2.84431">
        <ele>65</ele>
        <time>2025-05-13T10:56:59Z</time>
      </trkpt>
      <trkpt lat="47.53157" lon="-2.84431">
        <ele>65</ele>
        <time>2025-05-13T10:57:00Z</time>
      </trkpt>
      <trkpt lat="47.53159" lon="-2.84432">
        <ele>65</ele>
        <time>2025-05-13T10:57:01Z</time>
      </trkpt>
      <trkpt lat="47.53162" lon="-2.84432">
        <ele>64</ele>
        <time>2025-05-13T10:57:02Z</time>
      </trkpt>
      <trkpt lat="47.53164" lon="-2.84433">
        <ele>64</ele>
        <time>2025-05-13T10:57:03Z</time>
      </trkpt>
      <trkpt lat="47.53166" lon="-2.84435">
        <ele>64</ele>
        <time>2025-05-13T10:57:04Z</time>
      </trkpt>
      <trkpt lat="47.53167" lon="-2.84438">
        <ele>64</ele>
        <time>2025-05-13T10:57:05Z</time>
      </trkpt>
      <trkpt lat="47.53167" lon="-2.8444">
        <ele>64</ele>
        <time>2025-05-13T10:57:06Z</time>
      </trkpt>
      <trkpt lat="47.53167" lon="-2.84443">
        <ele>64</ele>
        <time>2025-05-13T10:57:07Z</time>
      </trkpt>
      <trkpt lat="47.53167" lon="-2.84446">
        <ele>64</ele>
        <time>2025-05-13T10:57:08Z</time>
      </trkpt>
      <trkpt lat="47.53166" lon="-2.84449">
        <ele>64</ele>
        <time>2025-05-13T10:57:09Z</time>
      </trkpt>
      <trkpt lat="47.53165" lon="-2.84453">
        <ele>65</ele>
        <time>2025-05-13T10:57:10Z</time>
      </trkpt>
      <trkpt lat="47.53165" lon="-2.84456">
        <ele>65</ele>
        <time>2025-05-13T10:57:11Z</time>
      </trkpt>
      <trkpt lat="47.53164" lon="-2.84461">
        <ele>65</ele>
        <time>2025-05-13T10:57:12Z</time>
      </trkpt>
      <trkpt lat="47.53164" lon="-2.84466">
        <ele>65</ele>
        <time>2025-05-13T10:57:13Z</time>
      </trkpt>
      <trkpt lat="47.53164" lon="-2.84471">
        <ele>66</ele>
        <time>2025-05-13T10:57:14Z</time>
      </trkpt>
      <trkpt lat="47.53165" lon="-2.84475">
        <ele>66</ele>
        <time>2025-05-13T10:57:15Z</time>
      </trkpt>
      <trkpt lat="47.53165" lon="-2.8448">
        <ele>66</ele>
        <time>2025-05-13T10:57:16Z</time>
      </trkpt>
      <trkpt lat="47.53166" lon="-2.84485">
        <ele>66</ele>
        <time>2025-05-13T10:57:17Z</time>
      </trkpt>
      <trkpt lat="47.53167" lon="-2.8449">
        <ele>67</ele>
        <time>2025-05-13T10:57:18Z</time>
      </trkpt>
      <trkpt lat="47.53168" lon="-2.84493">
        <ele>67</ele>
        <time>2025-05-13T10:57:19Z</time>
      </trkpt>
      <trkpt lat="47.5317" lon="-2.84497">
        <ele>67</ele>
        <time>2025-05-13T10:57:20Z</time>
      </trkpt>
      <trkpt lat="47.53172" lon="-2.84501">
        <ele>67</ele>
        <time>2025-05-13T10:57:21Z</time>
      </trkpt>
      <trkpt lat="47.53174" lon="-2.84505">
        <ele>67</ele>
        <time>2025-05-13T10:57:22Z</time>
      </trkpt>
      <trkpt lat="47.53175" lon="-2.8451">
        <ele>67</ele>
        <time>2025-05-13T10:57:23Z</time>
      </trkpt>
      <trkpt lat="47.53176" lon="-2.84515">
        <ele>66</ele>
        <time>2025-05-13T10:57:24Z</time>
      </trkpt>
      <trkpt lat="47.53177" lon="-2.8452">
        <ele>66</ele>
        <time>2025-05-13T10:57:25Z</time>
      </trkpt>
      <trkpt lat="47.53178" lon="-2.84525">
        <ele>66</ele>
        <time>2025-05-13T10:57:26Z</time>
      </trkpt>
      <trkpt lat="47.53178" lon="-2.8453">
        <ele>66</ele>
        <time>2025-05-13T10:57:27Z</time>
      </trkpt>
      <trkpt lat="47.53178" lon="-2.84535">
        <ele>65</ele>
        <time>2025-05-13T10:57:28Z</time>
      </trkpt>
      <trkpt lat="47.53179" lon="-2.8454">
        <ele>66</ele>
        <time>2025-05-13T10:57:29Z</time>
      </trkpt>
      <trkpt lat="47.5318" lon="-2.84546">
        <ele>66</ele>
        <time>2025-05-13T10:57:30Z</time>
      </trkpt>
      <trkpt lat="47.5318" lon="-2.84551">
        <ele>66</ele>
        <time>2025-05-13T10:57:31Z</time>
      </trkpt>
      <trkpt lat="47.53181" lon="-2.84557">
        <ele>66</ele>
        <time>2025-05-13T10:57:32Z</time>
      </trkpt>
      <trkpt lat="47.53182" lon="-2.84563">
        <ele>66</ele>
        <time>2025-05-13T10:57:33Z</time>
      </trkpt>
      <trkpt lat="47.53183" lon="-2.84568">
        <ele>66</ele>
        <time>2025-05-13T10:57:34Z</time>
      </trkpt>
      <trkpt lat="47.53183" lon="-2.84574">
        <ele>66</ele>
        <time>2025-05-13T10:57:35Z</time>
      </trkpt>
      <trkpt lat="47.53184" lon="-2.84579">
        <ele>66</ele>
        <time>2025-05-13T10:57:36Z</time>
      </trkpt>
      <trkpt lat="47.53185" lon="-2.84585">
        <ele>66</ele>
        <time>2025-05-13T10:57:37Z</time>
      </trkpt>
      <trkpt lat="47.53186" lon="-2.84591">
        <ele>66</ele>
        <time>2025-05-13T10:57:38Z</time>
      </trkpt>
      <trkpt lat="47.53187" lon="-2.84596">
        <ele>66</ele>
        <time>2025-05-13T10:57:39Z</time>
      </trkpt>
      <trkpt lat="47.53187" lon="-2.84601">
        <ele>66</ele>
        <time>2025-05-13T10:57:40Z</time>
      </trkpt>
      <trkpt lat="47.53188" lon="-2.84607">
        <ele>66</ele>
        <time>2025-05-13T10:57:41Z</time>
      </trkpt>
      <trkpt lat="47.53188" lon="-2.84613">
        <ele>66</ele>
        <time>2025-05-13T10:57:42Z</time>
      </trkpt>
      <trkpt lat="47.53189" lon="-2.84618">
        <ele>65</ele>
        <time>2025-05-13T10:57:43Z</time>
      </trkpt>
      <trkpt lat="47.5319" lon="-2.84624">
        <ele>65</ele>
        <time>2025-05-13T10:57:44Z</time>
      </trkpt>
      <trkpt lat="47.53191" lon="-2.8463">
        <ele>65</ele>
        <time>2025-05-13T10:57:45Z</time>
      </trkpt>
      <trkpt lat="47.53191" lon="-2.84636">
        <ele>64</ele>
        <time>2025-05-13T10:57:46Z</time>
      </trkpt>
      <trkpt lat="47.53192" lon="-2.84642">
        <ele>64</ele>
        <time>2025-05-13T10:57:47Z</time>
      </trkpt>
      <trkpt lat="47.53193" lon="-2.84648">
        <ele>64</ele>
        <time>2025-05-13T10:57:48Z</time>
      </trkpt>
      <trkpt lat="47.53194" lon="-2.84654">
        <ele>64</ele>
        <time>2025-05-13T10:57:49Z</time>
      </trkpt>
      <trkpt lat="47.53195" lon="-2.84661">
        <ele>64</ele>
        <time>2025-05-13T10:57:50Z</time>
      </trkpt>
      <trkpt lat="47.53196" lon="-2.84667">
        <ele>64</ele>
        <time>2025-05-13T10:57:51Z</time>
      </trkpt>
      <trkpt lat="47.53197" lon="-2.84673">
        <ele>64</ele>
        <time>2025-05-13T10:57:52Z</time>
      </trkpt>
      <trkpt lat="47.53197" lon="-2.8468">
        <ele>64</ele>
        <time>2025-05-13T10:57:53Z</time>
      </trkpt>
      <trkpt lat="47.53198" lon="-2.84686">
        <ele>64</ele>
        <time>2025-05-13T10:57:54Z</time>
      </trkpt>
      <trkpt lat="47.53199" lon="-2.84693">
        <ele>64</ele>
        <time>2025-05-13T10:57:55Z</time>
      </trkpt>
      <trkpt lat="47.532" lon="-2.84699">
        <ele>64</ele>
        <time>2025-05-13T10:57:56Z</time>
      </trkpt>
      <trkpt lat="47.53201" lon="-2.84706">
        <ele>64</ele>
        <time>2025-05-13T10:57:57Z</time>
      </trkpt>
      <trkpt lat="47.53201" lon="-2.84713">
        <ele>64</ele>
        <time>2025-05-13T10:57:58Z</time>
      </trkpt>
      <trkpt lat="47.53202" lon="-2.84719">
        <ele>65</ele>
        <time>2025-05-13T10:57:59Z</time>
      </trkpt>
      <trkpt lat="47.53203" lon="-2.84725">
        <ele>65</ele>
        <time>2025-05-13T10:58:00Z</time>
      </trkpt>
      <trkpt lat="47.53204" lon="-2.84732">
        <ele>65</ele>
        <time>2025-05-13T10:58:01Z</time>
      </trkpt>
      <trkpt lat="47.53204" lon="-2.84738">
        <ele>65</ele>
        <time>2025-05-13T10:58:02Z</time>
      </trkpt>
      <trkpt lat="47.53205" lon="-2.84745">
        <ele>65</ele>
        <time>2025-05-13T10:58:03Z</time>
      </trkpt>
      <trkpt lat="47.53206" lon="-2.84751">
        <ele>66</ele>
        <time>2025-05-13T10:58:04Z</time>
      </trkpt>
      <trkpt lat="47.53207" lon="-2.84757">
        <ele>66</ele>
        <time>2025-05-13T10:58:05Z</time>
      </trkpt>
      <trkpt lat="47.53208" lon="-2.84763">
        <ele>66</ele>
        <time>2025-05-13T10:58:06Z</time>
      </trkpt>
      <trkpt lat="47.53209" lon="-2.84769">
        <ele>66</ele>
        <time>2025-05-13T10:58:07Z</time>
      </trkpt>
      <trkpt lat="47.5321" lon="-2.84775">
        <ele>65</ele>
        <time>2025-05-13T10:58:08Z</time>
      </trkpt>
      <trkpt lat="47.53211" lon="-2.84782">
        <ele>65</ele>
        <time>2025-05-13T10:58:09Z</time>
      </trkpt>
      <trkpt lat="47.53212" lon="-2.84788">
        <ele>65</ele>
        <time>2025-05-13T10:58:10Z</time>
      </trkpt>
      <trkpt lat="47.53213" lon="-2.84794">
        <ele>65</ele>
        <time>2025-05-13T10:58:11Z</time>
      </trkpt>
      <trkpt lat="47.53214" lon="-2.84801">
        <ele>65</ele>
        <time>2025-05-13T10:58:12Z</time>
      </trkpt>
      <trkpt lat="47.53215" lon="-2.84807">
        <ele>66</ele>
        <time>2025-05-13T10:58:13Z</time>
      </trkpt>
      <trkpt lat="47.53216" lon="-2.84814">
        <ele>66</ele>
        <time>2025-05-13T10:58:14Z</time>
      </trkpt>
      <trkpt lat="47.53217" lon="-2.8482">
        <ele>66</ele>
        <time>2025-05-13T10:58:15Z</time>
      </trkpt>
      <trkpt lat="47.53218" lon="-2.84827">
        <ele>66</ele>
        <time>2025-05-13T10:58:16Z</time>
      </trkpt>
      <trkpt lat="47.53219" lon="-2.84834">
        <ele>66</ele>
        <time>2025-05-13T10:58:17Z</time>
      </trkpt>
      <trkpt lat="47.5322" lon="-2.84841">
        <ele>66</ele>
        <time>2025-05-13T10:58:18Z</time>
      </trkpt>
      <trkpt lat="47.53221" lon="-2.84848">
        <ele>66</ele>
        <time>2025-05-13T10:58:19Z</time>
      </trkpt>
      <trkpt lat="47.53222" lon="-2.84855">
        <ele>65</ele>
        <time>2025-05-13T10:58:20Z</time>
      </trkpt>
      <trkpt lat="47.53222" lon="-2.84862">
        <ele>66</ele>
        <time>2025-05-13T10:58:21Z</time>
      </trkpt>
      <trkpt lat="47.53223" lon="-2.8487">
        <ele>66</ele>
        <time>2025-05-13T10:58:22Z</time>
      </trkpt>
      <trkpt lat="47.53224" lon="-2.84876">
        <ele>66</ele>
        <time>2025-05-13T10:58:23Z</time>
      </trkpt>
      <trkpt lat="47.53225" lon="-2.84884">
        <ele>65</ele>
        <time>2025-05-13T10:58:24Z</time>
      </trkpt>
      <trkpt lat="47.53226" lon="-2.84891">
        <ele>65</ele>
        <time>2025-05-13T10:58:25Z</time>
      </trkpt>
      <trkpt lat="47.53227" lon="-2.84899">
        <ele>65</ele>
        <time>2025-05-13T10:58:26Z</time>
      </trkpt>
      <trkpt lat="47.53229" lon="-2.84907">
        <ele>65</ele>
        <time>2025-05-13T10:58:27Z</time>
      </trkpt>
      <trkpt lat="47.5323" lon="-2.84915">
        <ele>65</ele>
        <time>2025-05-13T10:58:28Z</time>
      </trkpt>
      <trkpt lat="47.53231" lon="-2.84922">
        <ele>65</ele>
        <time>2025-05-13T10:58:29Z</time>
      </trkpt>
      <trkpt lat="47.53232" lon="-2.8493">
        <ele>64</ele>
        <time>2025-05-13T10:58:30Z</time>
      </trkpt>
      <trkpt lat="47.53233" lon="-2.84938">
        <ele>64</ele>
        <time>2025-05-13T10:58:31Z</time>
      </trkpt>
      <trkpt lat="47.53235" lon="-2.84947">
        <ele>63</ele>
        <time>2025-05-13T10:58:32Z</time>
      </trkpt>
      <trkpt lat="47.53236" lon="-2.84956">
        <ele>63</ele>
        <time>2025-05-13T10:58:33Z</time>
      </trkpt>
      <trkpt lat="47.53237" lon="-2.84964">
        <ele>63</ele>
        <time>2025-05-13T10:58:34Z</time>
      </trkpt>
      <trkpt lat="47.53238" lon="-2.84971">
        <ele>63</ele>
        <time>2025-05-13T10:58:35Z</time>
      </trkpt>
      <trkpt lat="47.53239" lon="-2.84978">
        <ele>63</ele>
        <time>2025-05-13T10:58:36Z</time>
      </trkpt>
      <trkpt lat="47.5324" lon="-2.84985">
        <ele>62</ele>
        <time>2025-05-13T10:58:37Z</time>
      </trkpt>
      <trkpt lat="47.53241" lon="-2.84992">
        <ele>62</ele>
        <time>2025-05-13T10:58:38Z</time>
      </trkpt>
      <trkpt lat="47.53242" lon="-2.84999">
        <ele>61</ele>
        <time>2025-05-13T10:58:39Z</time>
      </trkpt>
      <trkpt lat="47.53243" lon="-2.85006">
        <ele>61</ele>
        <time>2025-05-13T10:58:40Z</time>
      </trkpt>
      <trkpt lat="47.53244" lon="-2.85013">
        <ele>61</ele>
        <time>2025-05-13T10:58:41Z</time>
      </trkpt>
      <trkpt lat="47.53245" lon="-2.85019">
        <ele>61</ele>
        <time>2025-05-13T10:58:42Z</time>
      </trkpt>
      <trkpt lat="47.53247" lon="-2.85024">
        <ele>61</ele>
        <time>2025-05-13T10:58:43Z</time>
      </trkpt>
      <trkpt lat="47.53251" lon="-2.85027">
        <ele>61</ele>
        <time>2025-05-13T10:58:44Z</time>
      </trkpt>
      <trkpt lat="47.53255" lon="-2.85027">
        <ele>61</ele>
        <time>2025-05-13T10:58:45Z</time>
      </trkpt>
      <trkpt lat="47.53259" lon="-2.85024">
        <ele>61</ele>
        <time>2025-05-13T10:58:46Z</time>
      </trkpt>
      <trkpt lat="47.53263" lon="-2.85021">
        <ele>60</ele>
        <time>2025-05-13T10:58:47Z</time>
      </trkpt>
      <trkpt lat="47.53268" lon="-2.85018">
        <ele>60</ele>
        <time>2025-05-13T10:58:48Z</time>
      </trkpt>
      <trkpt lat="47.53273" lon="-2.85016">
        <ele>60</ele>
        <time>2025-05-13T10:58:49Z</time>
      </trkpt>
      <trkpt lat="47.53278" lon="-2.85014">
        <ele>59</ele>
        <time>2025-05-13T10:58:50Z</time>
      </trkpt>
      <trkpt lat="47.53282" lon="-2.85012">
        <ele>59</ele>
        <time>2025-05-13T10:58:51Z</time>
      </trkpt>
      <trkpt lat="47.53288" lon="-2.85013">
        <ele>58</ele>
        <time>2025-05-13T10:58:52Z</time>
      </trkpt>
      <trkpt lat="47.5329" lon="-2.85012">
        <ele>59</ele>
        <time>2025-05-13T10:58:53Z</time>
      </trkpt>
      <trkpt lat="47.53291" lon="-2.85012">
        <ele>58</ele>
        <time>2025-05-13T10:58:54Z</time>
      </trkpt>
      <trkpt lat="47.53294" lon="-2.85015">
        <ele>58</ele>
        <time>2025-05-13T10:58:55Z</time>
      </trkpt>
      <trkpt lat="47.53296" lon="-2.8502">
        <ele>58</ele>
        <time>2025-05-13T10:58:56Z</time>
      </trkpt>
      <trkpt lat="47.53298" lon="-2.85025">
        <ele>58</ele>
        <time>2025-05-13T10:58:57Z</time>
      </trkpt>
      <trkpt lat="47.533" lon="-2.8503">
        <ele>58</ele>
        <time>2025-05-13T10:58:58Z</time>
      </trkpt>
      <trkpt lat="47.53302" lon="-2.85036">
        <ele>58</ele>
        <time>2025-05-13T10:58:59Z</time>
      </trkpt>
      <trkpt lat="47.53304" lon="-2.85041">
        <ele>58</ele>
        <time>2025-05-13T10:59:00Z</time>
      </trkpt>
      <trkpt lat="47.53305" lon="-2.85046">
        <ele>58</ele>
        <time>2025-05-13T10:59:01Z</time>
      </trkpt>
      <trkpt lat="47.53307" lon="-2.85051">
        <ele>58</ele>
        <time>2025-05-13T10:59:02Z</time>
      </trkpt>
      <trkpt lat="47.53309" lon="-2.85055">
        <ele>59</ele>
        <time>2025-05-13T10:59:03Z</time>
      </trkpt>
      <trkpt lat="47.53311" lon="-2.8506">
        <ele>59</ele>
        <time>2025-05-13T10:59:04Z</time>
      </trkpt>
      <trkpt lat="47.53312" lon="-2.85065">
        <ele>59</ele>
        <time>2025-05-13T10:59:05Z</time>
      </trkpt>
      <trkpt lat="47.53314" lon="-2.8507">
        <ele>59</ele>
        <time>2025-05-13T10:59:06Z</time>
      </trkpt>
      <trkpt lat="47.53315" lon="-2.85076">
        <ele>59</ele>
        <time>2025-05-13T10:59:07Z</time>
      </trkpt>
      <trkpt lat="47.53317" lon="-2.85081">
        <ele>59</ele>
        <time>2025-05-13T10:59:08Z</time>
      </trkpt>
      <trkpt lat="47.53319" lon="-2.85086">
        <ele>59</ele>
        <time>2025-05-13T10:59:09Z</time>
      </trkpt>
      <trkpt lat="47.53321" lon="-2.85091">
        <ele>59</ele>
        <time>2025-05-13T10:59:10Z</time>
      </trkpt>
      <trkpt lat="47.53323" lon="-2.85096">
        <ele>58</ele>
        <time>2025-05-13T10:59:11Z</time>
      </trkpt>
      <trkpt lat="47.53326" lon="-2.85101">
        <ele>58</ele>
        <time>2025-05-13T10:59:12Z</time>
      </trkpt>
      <trkpt lat="47.53329" lon="-2.85106">
        <ele>57</ele>
        <time>2025-05-13T10:59:13Z</time>
      </trkpt>
      <trkpt lat="47.53332" lon="-2.85111">
        <ele>57</ele>
        <time>2025-05-13T10:59:14Z</time>
      </trkpt>
      <trkpt lat="47.53336" lon="-2.85116">
        <ele>57</ele>
        <time>2025-05-13T10:59:15Z</time>
      </trkpt>
      <trkpt lat="47.5334" lon="-2.8512">
        <ele>57</ele>
        <time>2025-05-13T10:59:16Z</time>
      </trkpt>
      <trkpt lat="47.53344" lon="-2.85124">
        <ele>56</ele>
        <time>2025-05-13T10:59:17Z</time>
      </trkpt>
      <trkpt lat="47.53348" lon="-2.85128">
        <ele>56</ele>
        <time>2025-05-13T10:59:18Z</time>
      </trkpt>
      <trkpt lat="47.53352" lon="-2.85131">
        <ele>55</ele>
        <time>2025-05-13T10:59:19Z</time>
      </trkpt>
      <trkpt lat="47.53356" lon="-2.85133">
        <ele>55</ele>
        <time>2025-05-13T10:59:20Z</time>
      </trkpt>
      <trkpt lat="47.53359" lon="-2.85137">
        <ele>54</ele>
        <time>2025-05-13T10:59:21Z</time>
      </trkpt>
      <trkpt lat="47.53363" lon="-2.8514">
        <ele>54</ele>
        <time>2025-05-13T10:59:22Z</time>
      </trkpt>
      <trkpt lat="47.53366" lon="-2.85144">
        <ele>55</ele>
        <time>2025-05-13T10:59:23Z</time>
      </trkpt>
      <trkpt lat="47.5337" lon="-2.85149">
        <ele>55</ele>
        <time>2025-05-13T10:59:24Z</time>
      </trkpt>
      <trkpt lat="47.53373" lon="-2.85154">
        <ele>56</ele>
        <time>2025-05-13T10:59:25Z</time>
      </trkpt>
      <trkpt lat="47.53376" lon="-2.8516">
        <ele>57</ele>
        <time>2025-05-13T10:59:26Z</time>
      </trkpt>
      <trkpt lat="47.53378" lon="-2.85166">
        <ele>57</ele>
        <time>2025-05-13T10:59:27Z</time>
      </trkpt>
      <trkpt lat="47.53381" lon="-2.85172">
        <ele>58</ele>
        <time>2025-05-13T10:59:28Z</time>
      </trkpt>
      <trkpt lat="47.53383" lon="-2.85178">
        <ele>58</ele>
        <time>2025-05-13T10:59:29Z</time>
      </trkpt>
      <trkpt lat="47.53385" lon="-2.85185">
        <ele>59</ele>
        <time>2025-05-13T10:59:30Z</time>
      </trkpt>
      <trkpt lat="47.53387" lon="-2.85191">
        <ele>59</ele>
        <time>2025-05-13T10:59:31Z</time>
      </trkpt>
      <trkpt lat="47.53389" lon="-2.85198">
        <ele>60</ele>
        <time>2025-05-13T10:59:32Z</time>
      </trkpt>
      <trkpt lat="47.53391" lon="-2.85203">
        <ele>60</ele>
        <time>2025-05-13T10:59:33Z</time>
      </trkpt>
      <trkpt lat="47.53392" lon="-2.85208">
        <ele>60</ele>
        <time>2025-05-13T10:59:34Z</time>
      </trkpt>
      <trkpt lat="47.53394" lon="-2.85214">
        <ele>60</ele>
        <time>2025-05-13T10:59:35Z</time>
      </trkpt>
      <trkpt lat="47.53396" lon="-2.85219">
        <ele>60</ele>
        <time>2025-05-13T10:59:36Z</time>
      </trkpt>
      <trkpt lat="47.53398" lon="-2.85223">
        <ele>59</ele>
        <time>2025-05-13T10:59:37Z</time>
      </trkpt>
      <trkpt lat="47.53399" lon="-2.85228">
        <ele>60</ele>
        <time>2025-05-13T10:59:38Z</time>
      </trkpt>
      <trkpt lat="47.534" lon="-2.85232">
        <ele>60</ele>
        <time>2025-05-13T10:59:39Z</time>
      </trkpt>
      <trkpt lat="47.53402" lon="-2.85237">
        <ele>60</ele>
        <time>2025-05-13T10:59:40Z</time>
      </trkpt>
      <trkpt lat="47.53404" lon="-2.85242">
        <ele>60</ele>
        <time>2025-05-13T10:59:41Z</time>
      </trkpt>
      <trkpt lat="47.53405" lon="-2.85247">
        <ele>60</ele>
        <time>2025-05-13T10:59:42Z</time>
      </trkpt>
      <trkpt lat="47.53407" lon="-2.85252">
        <ele>60</ele>
        <time>2025-05-13T10:59:43Z</time>
      </trkpt>
      <trkpt lat="47.53409" lon="-2.85257">
        <ele>60</ele>
        <time>2025-05-13T10:59:44Z</time>
      </trkpt>
      <trkpt lat="47.53411" lon="-2.85262">
        <ele>60</ele>
        <time>2025-05-13T10:59:45Z</time>
      </trkpt>
      <trkpt lat="47.53413" lon="-2.85268">
        <ele>60</ele>
        <time>2025-05-13T10:59:46Z</time>
      </trkpt>
      <trkpt lat="47.53414" lon="-2.85273">
        <ele>60</ele>
        <time>2025-05-13T10:59:47Z</time>
      </trkpt>
      <trkpt lat="47.53416" lon="-2.85278">
        <ele>61</ele>
        <time>2025-05-13T10:59:48Z</time>
      </trkpt>
      <trkpt lat="47.53418" lon="-2.85283">
        <ele>61</ele>
        <time>2025-05-13T10:59:49Z</time>
      </trkpt>
      <trkpt lat="47.5342" lon="-2.85287">
        <ele>61</ele>
        <time>2025-05-13T10:59:50Z</time>
      </trkpt>
      <trkpt lat="47.53423" lon="-2.8529">
        <ele>60</ele>
        <time>2025-05-13T10:59:51Z</time>
      </trkpt>
      <trkpt lat="47.53427" lon="-2.85292">
        <ele>60</ele>
        <time>2025-05-13T10:59:52Z</time>
      </trkpt>
      <trkpt lat="47.5343" lon="-2.85292">
        <ele>60</ele>
        <time>2025-05-13T10:59:53Z</time>
      </trkpt>
      <trkpt lat="47.53434" lon="-2.8529">
        <ele>60</ele>
        <time>2025-05-13T10:59:54Z</time>
      </trkpt>
      <trkpt lat="47.53438" lon="-2.85289">
        <ele>59</ele>
        <time>2025-05-13T10:59:55Z</time>
      </trkpt>
      <trkpt lat="47.53442" lon="-2.85287">
        <ele>60</ele>
        <time>2025-05-13T10:59:56Z</time>
      </trkpt>
      <trkpt lat="47.53446" lon="-2.85285">
        <ele>60</ele>
        <time>2025-05-13T10:59:57Z</time>
      </trkpt>
      <trkpt lat="47.53449" lon="-2.85283">
        <ele>61</ele>
        <time>2025-05-13T10:59:58Z</time>
      </trkpt>
      <trkpt lat="47.53452" lon="-2.8528">
        <ele>61</ele>
        <time>2025-05-13T10:59:59Z</time>
      </trkpt>
      <trkpt lat="47.53455" lon="-2.85277">
        <ele>60</ele>
        <time>2025-05-13T11:00:00Z</time>
      </trkpt>
      <trkpt lat="47.53456" lon="-2.85271">
        <ele>61</ele>
        <time>2025-05-13T11:00:01Z</time>
      </trkpt>
      <trkpt lat="47.53457" lon="-2.85266">
        <ele>60</ele>
        <time>2025-05-13T11:00:02Z</time>
      </trkpt>
      <trkpt lat="47.53458" lon="-2.85261">
        <ele>60</ele>
        <time>2025-05-13T11:00:03Z</time>
      </trkpt>
      <trkpt lat="47.53458" lon="-2.85257">
        <ele>59</ele>
        <time>2025-05-13T11:00:04Z</time>
      </trkpt>
      <trkpt lat="47.53459" lon="-2.85252">
        <ele>59</ele>
        <time>2025-05-13T11:00:05Z</time>
      </trkpt>
      <trkpt lat="47.5346" lon="-2.85247">
        <ele>59</ele>
        <time>2025-05-13T11:00:06Z</time>
      </trkpt>
      <trkpt lat="47.53461" lon="-2.85242">
        <ele>59</ele>
        <time>2025-05-13T11:00:07Z</time>
      </trkpt>
      <trkpt lat="47.53463" lon="-2.85238">
        <ele>59</ele>
        <time>2025-05-13T11:00:08Z</time>
      </trkpt>
      <trkpt lat="47.53464" lon="-2.85233">
        <ele>59</ele>
        <time>2025-05-13T11:00:09Z</time>
      </trkpt>
      <trkpt lat="47.53466" lon="-2.85229">
        <ele>59</ele>
        <time>2025-05-13T11:00:10Z</time>
      </trkpt>
      <trkpt lat="47.53468" lon="-2.85226">
        <ele>59</ele>
        <time>2025-05-13T11:00:11Z</time>
      </trkpt>
      <trkpt lat="47.53471" lon="-2.85224">
        <ele>59</ele>
        <time>2025-05-13T11:00:12Z</time>
      </trkpt>
      <trkpt lat="47.53474" lon="-2.85224">
        <ele>59</ele>
        <time>2025-05-13T11:00:13Z</time>
      </trkpt>
      <trkpt lat="47.53477" lon="-2.85223">
        <ele>59</ele>
        <time>2025-05-13T11:00:14Z</time>
      </trkpt>
      <trkpt lat="47.5348" lon="-2.85223">
        <ele>59</ele>
        <time>2025-05-13T11:00:15Z</time>
      </trkpt>
      <trkpt lat="47.53483" lon="-2.85225">
        <ele>59</ele>
        <time>2025-05-13T11:00:16Z</time>
      </trkpt>
      <trkpt lat="47.53486" lon="-2.85226">
        <ele>59</ele>
        <time>2025-05-13T11:00:17Z</time>
      </trkpt>
      <trkpt lat="47.53488" lon="-2.85227">
        <ele>60</ele>
        <time>2025-05-13T11:00:18Z</time>
      </trkpt>
      <trkpt lat="47.5349" lon="-2.85228">
        <ele>60</ele>
        <time>2025-05-13T11:00:19Z</time>
      </trkpt>
      <trkpt lat="47.53492" lon="-2.85227">
        <ele>60</ele>
        <time>2025-05-13T11:00:20Z</time>
      </trkpt>
      <trkpt lat="47.53493" lon="-2.85228">
        <ele>59</ele>
        <time>2025-05-13T11:00:21Z</time>
      </trkpt>
      <trkpt lat="47.53493" lon="-2.85228">
        <ele>59</ele>
        <time>2025-05-13T11:00:22Z</time>
      </trkpt>
      <trkpt lat="47.53494" lon="-2.85228">
        <ele>59</ele>
        <time>2025-05-13T11:00:23Z</time>
      </trkpt>
      <trkpt lat="47.53494" lon="-2.85228">
        <ele>59</ele>
        <time>2025-05-13T11:00:24Z</time>
      </trkpt>
      <trkpt lat="47.53494" lon="-2.85228">
        <ele>59</ele>
        <time>2025-05-13T11:00:25Z</time>
      </trkpt>
      <trkpt lat="47.53494" lon="-2.85228">
        <ele>59</ele>
        <time>2025-05-13T11:00:26Z</time>
      </trkpt>
      <trkpt lat="47.53494" lon="-2.85228">
        <ele>59</ele>
        <time>2025-05-13T11:00:27Z</time>
      </trkpt>
      <trkpt lat="47.53497" lon="-2.85231">
        <ele>57</ele>
        <time>2025-05-13T11:00:28Z</time>
      </trkpt>
      <trkpt lat="47.53499" lon="-2.85232">
        <ele>57</ele>
        <time>2025-05-13T11:00:29Z</time>
      </trkpt>
      <trkpt lat="47.53501" lon="-2.85233">
        <ele>58</ele>
        <time>2025-05-13T11:00:30Z</time>
      </trkpt>
      <trkpt lat="47.53504" lon="-2.85234">
        <ele>58</ele>
        <time>2025-05-13T11:00:31Z</time>
      </trkpt>
      <trkpt lat="47.53507" lon="-2.85235">
        <ele>57</ele>
        <time>2025-05-13T11:00:32Z</time>
      </trkpt>
      <trkpt lat="47.53509" lon="-2.85236">
        <ele>57</ele>
        <time>2025-05-13T11:00:33Z</time>
      </trkpt>
      <trkpt lat="47.53512" lon="-2.85238">
        <ele>57</ele>
        <time>2025-05-13T11:00:34Z</time>
      </trkpt>
      <trkpt lat="47.53514" lon="-2.85241">
        <ele>57</ele>
        <time>2025-05-13T11:00:35Z</time>
      </trkpt>
      <trkpt lat="47.53516" lon="-2.85243">
        <ele>57</ele>
        <time>2025-05-13T11:00:36Z</time>
      </trkpt>
      <trkpt lat="47.53519" lon="-2.85245">
        <ele>57</ele>
        <time>2025-05-13T11:00:37Z</time>
      </trkpt>
      <trkpt lat="47.53522" lon="-2.85248">
        <ele>57</ele>
        <time>2025-05-13T11:00:38Z</time>
      </trkpt>
      <trkpt lat="47.53524" lon="-2.85249">
        <ele>58</ele>
        <time>2025-05-13T11:00:39Z</time>
      </trkpt>
      <trkpt lat="47.53528" lon="-2.85251">
        <ele>58</ele>
        <time>2025-05-13T11:00:40Z</time>
      </trkpt>
      <trkpt lat="47.53531" lon="-2.85252">
        <ele>59</ele>
        <time>2025-05-13T11:00:41Z</time>
      </trkpt>
      <trkpt lat="47.53534" lon="-2.85253">
        <ele>59</ele>
        <time>2025-05-13T11:00:42Z</time>
      </trkpt>
      <trkpt lat="47.53537" lon="-2.85253">
        <ele>59</ele>
        <time>2025-05-13T11:00:43Z</time>
      </trkpt>
      <trkpt lat="47.5354" lon="-2.85252">
        <ele>59</ele>
        <time>2025-05-13T11:00:44Z</time>
      </trkpt>
      <trkpt lat="47.53543" lon="-2.85252">
        <ele>60</ele>
        <time>2025-05-13T11:00:45Z</time>
      </trkpt>
      <trkpt lat="47.53545" lon="-2.85252">
        <ele>61</ele>
        <time>2025-05-13T11:00:46Z</time>
      </trkpt>
      <trkpt lat="47.53548" lon="-2.85252">
        <ele>62</ele>
        <time>2025-05-13T11:00:47Z</time>
      </trkpt>
      <trkpt lat="47.53551" lon="-2.85251">
        <ele>62</ele>
        <time>2025-05-13T11:00:48Z</time>
      </trkpt>
      <trkpt lat="47.53553" lon="-2.85253">
        <ele>62</ele>
        <time>2025-05-13T11:00:49Z</time>
      </trkpt>
      <trkpt lat="47.53556" lon="-2.85256">
        <ele>61</ele>
        <time>2025-05-13T11:00:50Z</time>
      </trkpt>
      <trkpt lat="47.53558" lon="-2.85259">
        <ele>61</ele>
        <time>2025-05-13T11:00:51Z</time>
      </trkpt>
      <trkpt lat="47.5356" lon="-2.85263">
        <ele>61</ele>
        <time>2025-05-13T11:00:52Z</time>
      </trkpt>
      <trkpt lat="47.53561" lon="-2.85268">
        <ele>61</ele>
        <time>2025-05-13T11:00:53Z</time>
      </trkpt>
      <trkpt lat="47.53562" lon="-2.85272">
        <ele>61</ele>
        <time>2025-05-13T11:00:54Z</time>
      </trkpt>
      <trkpt lat="47.53562" lon="-2.85276">
        <ele>60</ele>
        <time>2025-05-13T11:00:55Z</time>
      </trkpt>
      <trkpt lat="47.53562" lon="-2.8528">
        <ele>60</ele>
        <time>2025-05-13T11:00:56Z</time>
      </trkpt>
      <trkpt lat="47.53563" lon="-2.85284">
        <ele>60</ele>
        <time>2025-05-13T11:00:57Z</time>
      </trkpt>
      <trkpt lat="47.53564" lon="-2.85289">
        <ele>59</ele>
        <time>2025-05-13T11:00:58Z</time>
      </trkpt>
      <trkpt lat="47.53565" lon="-2.85294">
        <ele>59</ele>
        <time>2025-05-13T11:00:59Z</time>
      </trkpt>
      <trkpt lat="47.53565" lon="-2.85298">
        <ele>59</ele>
        <time>2025-05-13T11:01:00Z</time>
      </trkpt>
      <trkpt lat="47.53564" lon="-2.85303">
        <ele>58</ele>
        <time>2025-05-13T11:01:01Z</time>
      </trkpt>
      <trkpt lat="47.53565" lon="-2.85307">
        <ele>57</ele>
        <time>2025-05-13T11:01:02Z</time>
      </trkpt>
      <trkpt lat="47.53565" lon="-2.85311">
        <ele>57</ele>
        <time>2025-05-13T11:01:03Z</time>
      </trkpt>
      <trkpt lat="47.53566" lon="-2.85315">
        <ele>56</ele>
        <time>2025-05-13T11:01:04Z</time>
      </trkpt>
      <trkpt lat="47.53567" lon="-2.85318">
        <ele>56</ele>
        <time>2025-05-13T11:01:05Z</time>
      </trkpt>
      <trkpt lat="47.53569" lon="-2.85321">
        <ele>56</ele>
        <time>2025-05-13T11:01:06Z</time>
      </trkpt>
      <trkpt lat="47.53571" lon="-2.85325">
        <ele>56</ele>
        <time>2025-05-13T11:01:07Z</time>
      </trkpt>
      <trkpt lat="47.53573" lon="-2.8533">
        <ele>55</ele>
        <time>2025-05-13T11:01:08Z</time>
      </trkpt>
      <trkpt lat="47.53575" lon="-2.85333">
        <ele>55</ele>
        <time>2025-05-13T11:01:09Z</time>
      </trkpt>
      <trkpt lat="47.53576" lon="-2.85335">
        <ele>54</ele>
        <time>2025-05-13T11:01:10Z</time>
      </trkpt>
      <trkpt lat="47.53577" lon="-2.85337">
        <ele>55</ele>
        <time>2025-05-13T11:01:11Z</time>
      </trkpt>
      <trkpt lat="47.53578" lon="-2.85339">
        <ele>55</ele>
        <time>2025-05-13T11:01:12Z</time>
      </trkpt>
      <trkpt lat="47.53579" lon="-2.85341">
        <ele>54</ele>
        <time>2025-05-13T11:01:13Z</time>
      </trkpt>
      <trkpt lat="47.5358" lon="-2.85343">
        <ele>55</ele>
        <time>2025-05-13T11:01:14Z</time>
      </trkpt>
      <trkpt lat="47.53582" lon="-2.85344">
        <ele>55</ele>
        <time>2025-05-13T11:01:15Z</time>
      </trkpt>
      <trkpt lat="47.53584" lon="-2.85345">
        <ele>55</ele>
        <time>2025-05-13T11:01:16Z</time>
      </trkpt>
      <trkpt lat="47.53586" lon="-2.85347">
        <ele>56</ele>
        <time>2025-05-13T11:01:17Z</time>
      </trkpt>
      <trkpt lat="47.53588" lon="-2.85349">
        <ele>56</ele>
        <time>2025-05-13T11:01:18Z</time>
      </trkpt>
      <trkpt lat="47.53592" lon="-2.8535">
        <ele>56</ele>
        <time>2025-05-13T11:01:19Z</time>
      </trkpt>
      <trkpt lat="47.53595" lon="-2.85351">
        <ele>56</ele>
        <time>2025-05-13T11:01:20Z</time>
      </trkpt>
      <trkpt lat="47.53598" lon="-2.85353">
        <ele>56</ele>
        <time>2025-05-13T11:01:21Z</time>
      </trkpt>
      <trkpt lat="47.53601" lon="-2.85355">
        <ele>56</ele>
        <time>2025-05-13T11:01:22Z</time>
      </trkpt>
      <trkpt lat="47.53603" lon="-2.85357">
        <ele>56</ele>
        <time>2025-05-13T11:01:23Z</time>
      </trkpt>
      <trkpt lat="47.53605" lon="-2.85359">
        <ele>57</ele>
        <time>2025-05-13T11:01:24Z</time>
      </trkpt>
      <trkpt lat="47.53608" lon="-2.8536">
        <ele>56</ele>
        <time>2025-05-13T11:01:25Z</time>
      </trkpt>
      <trkpt lat="47.53611" lon="-2.85362">
        <ele>56</ele>
        <time>2025-05-13T11:01:26Z</time>
      </trkpt>
      <trkpt lat="47.53614" lon="-2.85364">
        <ele>55</ele>
        <time>2025-05-13T11:01:27Z</time>
      </trkpt>
      <trkpt lat="47.53616" lon="-2.85367">
        <ele>55</ele>
        <time>2025-05-13T11:01:28Z</time>
      </trkpt>
      <trkpt lat="47.53619" lon="-2.8537">
        <ele>55</ele>
        <time>2025-05-13T11:01:29Z</time>
      </trkpt>
      <trkpt lat="47.53622" lon="-2.85372">
        <ele>54</ele>
        <time>2025-05-13T11:01:30Z</time>
      </trkpt>
      <trkpt lat="47.53625" lon="-2.85374">
        <ele>54</ele>
        <time>2025-05-13T11:01:31Z</time>
      </trkpt>
      <trkpt lat="47.53628" lon="-2.85376">
        <ele>55</ele>
        <time>2025-05-13T11:01:32Z</time>
      </trkpt>
      <trkpt lat="47.53631" lon="-2.85378">
        <ele>55</ele>
        <time>2025-05-13T11:01:33Z</time>
      </trkpt>
      <trkpt lat="47.53634" lon="-2.85379">
        <ele>56</ele>
        <time>2025-05-13T11:01:34Z</time>
      </trkpt>
      <trkpt lat="47.53636" lon="-2.8538">
        <ele>56</ele>
        <time>2025-05-13T11:01:35Z</time>
      </trkpt>
      <trkpt lat="47.53638" lon="-2.85381">
        <ele>56</ele>
        <time>2025-05-13T11:01:36Z</time>
      </trkpt>
      <trkpt lat="47.53641" lon="-2.85382">
        <ele>56</ele>
        <time>2025-05-13T11:01:37Z</time>
      </trkpt>
      <trkpt lat="47.53643" lon="-2.85383">
        <ele>56</ele>
        <time>2025-05-13T11:01:38Z</time>
      </trkpt>
      <trkpt lat="47.53645" lon="-2.85386">
        <ele>55</ele>
        <time>2025-05-13T11:01:39Z</time>
      </trkpt>
      <trkpt lat="47.53647" lon="-2.85389">
        <ele>56</ele>
        <time>2025-05-13T11:01:40Z</time>
      </trkpt>
      <trkpt lat="47.53649" lon="-2.85392">
        <ele>56</ele>
        <time>2025-05-13T11:01:41Z</time>
      </trkpt>
      <trkpt lat="47.53652" lon="-2.85395">
        <ele>56</ele>
        <time>2025-05-13T11:01:42Z</time>
      </trkpt>
      <trkpt lat="47.53654" lon="-2.85398">
        <ele>56</ele>
        <time>2025-05-13T11:01:43Z</time>
      </trkpt>
      <trkpt lat="47.53656" lon="-2.854">
        <ele>56</ele>
        <time>2025-05-13T11:01:44Z</time>
      </trkpt>
      <trkpt lat="47.53658" lon="-2.85403">
        <ele>56</ele>
        <time>2025-05-13T11:01:45Z</time>
      </trkpt>
      <trkpt lat="47.5366" lon="-2.85405">
        <ele>56</ele>
        <time>2025-05-13T11:01:46Z</time>
      </trkpt>
      <trkpt lat="47.53662" lon="-2.85408">
        <ele>56</ele>
        <time>2025-05-13T11:01:47Z</time>
      </trkpt>
      <trkpt lat="47.53664" lon="-2.85411">
        <ele>56</ele>
        <time>2025-05-13T11:01:48Z</time>
      </trkpt>
      <trkpt lat="47.53666" lon="-2.85413">
        <ele>56</ele>
        <time>2025-05-13T11:01:49Z</time>
      </trkpt>
      <trkpt lat="47.53668" lon="-2.85416">
        <ele>56</ele>
        <time>2025-05-13T11:01:50Z</time>
      </trkpt>
      <trkpt lat="47.5367" lon="-2.85417">
        <ele>56</ele>
        <time>2025-05-13T11:01:51Z</time>
      </trkpt>
      <trkpt lat="47.53672" lon="-2.85419">
        <ele>56</ele>
        <time>2025-05-13T11:01:52Z</time>
      </trkpt>
      <trkpt lat="47.53675" lon="-2.85421">
        <ele>56</ele>
        <time>2025-05-13T11:01:53Z</time>
      </trkpt>
      <trkpt lat="47.53677" lon="-2.85423">
        <ele>56</ele>
        <time>2025-05-13T11:01:54Z</time>
      </trkpt>
      <trkpt lat="47.53678" lon="-2.85425">
        <ele>56</ele>
        <time>2025-05-13T11:01:55Z</time>
      </trkpt>
      <trkpt lat="47.5368" lon="-2.85428">
        <ele>57</ele>
        <time>2025-05-13T11:01:56Z</time>
      </trkpt>
      <trkpt lat="47.53681" lon="-2.8543">
        <ele>56</ele>
        <time>2025-05-13T11:01:57Z</time>
      </trkpt>
      <trkpt lat="47.53683" lon="-2.85432">
        <ele>56</ele>
        <time>2025-05-13T11:01:58Z</time>
      </trkpt>
      <trkpt lat="47.53685" lon="-2.85433">
        <ele>56</ele>
        <time>2025-05-13T11:01:59Z</time>
      </trkpt>
      <trkpt lat="47.53687" lon="-2.85435">
        <ele>56</ele>
        <time>2025-05-13T11:02:00Z</time>
      </trkpt>
      <trkpt lat="47.53689" lon="-2.85437">
        <ele>56</ele>
        <time>2025-05-13T11:02:01Z</time>
      </trkpt>
      <trkpt lat="47.53692" lon="-2.85439">
        <ele>56</ele>
        <time>2025-05-13T11:02:02Z</time>
      </trkpt>
      <trkpt lat="47.53694" lon="-2.85441">
        <ele>56</ele>
        <time>2025-05-13T11:02:03Z</time>
      </trkpt>
      <trkpt lat="47.53697" lon="-2.85443">
        <ele>56</ele>
        <time>2025-05-13T11:02:04Z</time>
      </trkpt>
      <trkpt lat="47.537" lon="-2.85444">
        <ele>56</ele>
        <time>2025-05-13T11:02:05Z</time>
      </trkpt>
      <trkpt lat="47.53703" lon="-2.85446">
        <ele>56</ele>
        <time>2025-05-13T11:02:06Z</time>
      </trkpt>
      <trkpt lat="47.53705" lon="-2.85448">
        <ele>56</ele>
        <time>2025-05-13T11:02:07Z</time>
      </trkpt>
      <trkpt lat="47.53708" lon="-2.8545">
        <ele>56</ele>
        <time>2025-05-13T11:02:08Z</time>
      </trkpt>
      <trkpt lat="47.53711" lon="-2.85451">
        <ele>56</ele>
        <time>2025-05-13T11:02:09Z</time>
      </trkpt>
      <trkpt lat="47.53713" lon="-2.85452">
        <ele>56</ele>
        <time>2025-05-13T11:02:10Z</time>
      </trkpt>
      <trkpt lat="47.53716" lon="-2.85454">
        <ele>56</ele>
        <time>2025-05-13T11:02:11Z</time>
      </trkpt>
      <trkpt lat="47.53719" lon="-2.85456">
        <ele>56</ele>
        <time>2025-05-13T11:02:12Z</time>
      </trkpt>
      <trkpt lat="47.53721" lon="-2.85457">
        <ele>56</ele>
        <time>2025-05-13T11:02:13Z</time>
      </trkpt>
      <trkpt lat="47.53724" lon="-2.85459">
        <ele>56</ele>
        <time>2025-05-13T11:02:14Z</time>
      </trkpt>
      <trkpt lat="47.53726" lon="-2.85461">
        <ele>56</ele>
        <time>2025-05-13T11:02:15Z</time>
      </trkpt>
      <trkpt lat="47.53729" lon="-2.85463">
        <ele>56</ele>
        <time>2025-05-13T11:02:16Z</time>
      </trkpt>
      <trkpt lat="47.53732" lon="-2.85465">
        <ele>56</ele>
        <time>2025-05-13T11:02:17Z</time>
      </trkpt>
      <trkpt lat="47.53735" lon="-2.85466">
        <ele>56</ele>
        <time>2025-05-13T11:02:18Z</time>
      </trkpt>
      <trkpt lat="47.53738" lon="-2.85468">
        <ele>56</ele>
        <time>2025-05-13T11:02:19Z</time>
      </trkpt>
      <trkpt lat="47.53741" lon="-2.85469">
        <ele>55</ele>
        <time>2025-05-13T11:02:20Z</time>
      </trkpt>
      <trkpt lat="47.53744" lon="-2.85471">
        <ele>56</ele>
        <time>2025-05-13T11:02:21Z</time>
      </trkpt>
      <trkpt lat="47.53747" lon="-2.85472">
        <ele>55</ele>
        <time>2025-05-13T11:02:22Z</time>
      </trkpt>
      <trkpt lat="47.5375" lon="-2.85474">
        <ele>55</ele>
        <time>2025-05-13T11:02:23Z</time>
      </trkpt>
      <trkpt lat="47.53753" lon="-2.85476">
        <ele>55</ele>
        <time>2025-05-13T11:02:24Z</time>
      </trkpt>
      <trkpt lat="47.53756" lon="-2.85477">
        <ele>55</ele>
        <time>2025-05-13T11:02:25Z</time>
      </trkpt>
      <trkpt lat="47.5376" lon="-2.85479">
        <ele>55</ele>
        <time>2025-05-13T11:02:26Z</time>
      </trkpt>
      <trkpt lat="47.53763" lon="-2.8548">
        <ele>55</ele>
        <time>2025-05-13T11:02:27Z</time>
      </trkpt>
      <trkpt lat="47.53766" lon="-2.85481">
        <ele>56</ele>
        <time>2025-05-13T11:02:28Z</time>
      </trkpt>
      <trkpt lat="47.53768" lon="-2.85483">
        <ele>57</ele>
        <time>2025-05-13T11:02:29Z</time>
      </trkpt>
      <trkpt lat="47.53771" lon="-2.85484">
        <ele>57</ele>
        <time>2025-05-13T11:02:30Z</time>
      </trkpt>
      <trkpt lat="47.53773" lon="-2.85486">
        <ele>57</ele>
        <time>2025-05-13T11:02:31Z</time>
      </trkpt>
      <trkpt lat="47.53777" lon="-2.85487">
        <ele>57</ele>
        <time>2025-05-13T11:02:32Z</time>
      </trkpt>
      <trkpt lat="47.5378" lon="-2.85488">
        <ele>57</ele>
        <time>2025-05-13T11:02:33Z</time>
      </trkpt>
      <trkpt lat="47.53783" lon="-2.8549">
        <ele>57</ele>
        <time>2025-05-13T11:02:34Z</time>
      </trkpt>
      <trkpt lat="47.53786" lon="-2.85493">
        <ele>57</ele>
        <time>2025-05-13T11:02:35Z</time>
      </trkpt>
      <trkpt lat="47.53789" lon="-2.85495">
        <ele>57</ele>
        <time>2025-05-13T11:02:36Z</time>
      </trkpt>
      <trkpt lat="47.53792" lon="-2.85497">
        <ele>58</ele>
        <time>2025-05-13T11:02:37Z</time>
      </trkpt>
      <trkpt lat="47.53795" lon="-2.855">
        <ele>58</ele>
        <time>2025-05-13T11:02:38Z</time>
      </trkpt>
      <trkpt lat="47.53799" lon="-2.85502">
        <ele>59</ele>
        <time>2025-05-13T11:02:39Z</time>
      </trkpt>
      <trkpt lat="47.53803" lon="-2.85504">
        <ele>59</ele>
        <time>2025-05-13T11:02:40Z</time>
      </trkpt>
      <trkpt lat="47.53806" lon="-2.85506">
        <ele>59</ele>
        <time>2025-05-13T11:02:41Z</time>
      </trkpt>
      <trkpt lat="47.53809" lon="-2.85509">
        <ele>59</ele>
        <time>2025-05-13T11:02:42Z</time>
      </trkpt>
      <trkpt lat="47.53812" lon="-2.85511">
        <ele>58</ele>
        <time>2025-05-13T11:02:43Z</time>
      </trkpt>
      <trkpt lat="47.53816" lon="-2.85514">
        <ele>58</ele>
        <time>2025-05-13T11:02:44Z</time>
      </trkpt>
      <trkpt lat="47.53819" lon="-2.85517">
        <ele>58</ele>
        <time>2025-05-13T11:02:45Z</time>
      </trkpt>
      <trkpt lat="47.53822" lon="-2.85521">
        <ele>58</ele>
        <time>2025-05-13T11:02:46Z</time>
      </trkpt>
      <trkpt lat="47.53825" lon="-2.85524">
        <ele>58</ele>
        <time>2025-05-13T11:02:47Z</time>
      </trkpt>
      <trkpt lat="47.53828" lon="-2.85526">
        <ele>57</ele>
        <time>2025-05-13T11:02:48Z</time>
      </trkpt>
      <trkpt lat="47.53831" lon="-2.85528">
        <ele>57</ele>
        <time>2025-05-13T11:02:49Z</time>
      </trkpt>
      <trkpt lat="47.53834" lon="-2.85531">
        <ele>57</ele>
        <time>2025-05-13T11:02:50Z</time>
      </trkpt>
      <trkpt lat="47.53837" lon="-2.85534">
        <ele>57</ele>
        <time>2025-05-13T11:02:51Z</time>
      </trkpt>
      <trkpt lat="47.53839" lon="-2.85538">
        <ele>57</ele>
        <time>2025-05-13T11:02:52Z</time>
      </trkpt>
      <trkpt lat="47.53841" lon="-2.85541">
        <ele>57</ele>
        <time>2025-05-13T11:02:53Z</time>
      </trkpt>
      <trkpt lat="47.53844" lon="-2.85543">
        <ele>57</ele>
        <time>2025-05-13T11:02:54Z</time>
      </trkpt>
      <trkpt lat="47.53847" lon="-2.85547">
        <ele>57</ele>
        <time>2025-05-13T11:02:55Z</time>
      </trkpt>
      <trkpt lat="47.53849" lon="-2.8555">
        <ele>57</ele>
        <time>2025-05-13T11:02:56Z</time>
      </trkpt>
      <trkpt lat="47.53851" lon="-2.85553">
        <ele>57</ele>
        <time>2025-05-13T11:02:57Z</time>
      </trkpt>
      <trkpt lat="47.53854" lon="-2.85557">
        <ele>58</ele>
        <time>2025-05-13T11:02:58Z</time>
      </trkpt>
      <trkpt lat="47.53856" lon="-2.85561">
        <ele>58</ele>
        <time>2025-05-13T11:02:59Z</time>
      </trkpt>
      <trkpt lat="47.53859" lon="-2.85565">
        <ele>59</ele>
        <time>2025-05-13T11:03:00Z</time>
      </trkpt>
      <trkpt lat="47.53861" lon="-2.8557">
        <ele>59</ele>
        <time>2025-05-13T11:03:01Z</time>
      </trkpt>
      <trkpt lat="47.53863" lon="-2.85574">
        <ele>59</ele>
        <time>2025-05-13T11:03:02Z</time>
      </trkpt>
      <trkpt lat="47.53865" lon="-2.85577">
        <ele>59</ele>
        <time>2025-05-13T11:03:03Z</time>
      </trkpt>
      <trkpt lat="47.53867" lon="-2.85581">
        <ele>60</ele>
        <time>2025-05-13T11:03:04Z</time>
      </trkpt>
      <trkpt lat="47.5387" lon="-2.85585">
        <ele>60</ele>
        <time>2025-05-13T11:03:05Z</time>
      </trkpt>
      <trkpt lat="47.53872" lon="-2.85589">
        <ele>60</ele>
        <time>2025-05-13T11:03:06Z</time>
      </trkpt>
      <trkpt lat="47.53874" lon="-2.85594">
        <ele>60</ele>
        <time>2025-05-13T11:03:07Z</time>
      </trkpt>
      <trkpt lat="47.53876" lon="-2.85598">
        <ele>60</ele>
        <time>2025-05-13T11:03:08Z</time>
      </trkpt>
      <trkpt lat="47.53878" lon="-2.85602">
        <ele>60</ele>
        <time>2025-05-13T11:03:09Z</time>
      </trkpt>
      <trkpt lat="47.5388" lon="-2.85606">
        <ele>60</ele>
        <time>2025-05-13T11:03:10Z</time>
      </trkpt>
      <trkpt lat="47.53882" lon="-2.8561">
        <ele>60</ele>
        <time>2025-05-13T11:03:11Z</time>
      </trkpt>
      <trkpt lat="47.53884" lon="-2.85614">
        <ele>60</ele>
        <time>2025-05-13T11:03:12Z</time>
      </trkpt>
      <trkpt lat="47.53885" lon="-2.85617">
        <ele>60</ele>
        <time>2025-05-13T11:03:13Z</time>
      </trkpt>
      <trkpt lat="47.53886" lon="-2.85621">
        <ele>60</ele>
        <time>2025-05-13T11:03:14Z</time>
      </trkpt>
      <trkpt lat="47.53887" lon="-2.85624">
        <ele>61</ele>
        <time>2025-05-13T11:03:15Z</time>
      </trkpt>
      <trkpt lat="47.53889" lon="-2.85628">
        <ele>61</ele>
        <time>2025-05-13T11:03:16Z</time>
      </trkpt>
      <trkpt lat="47.5389" lon="-2.85632">
        <ele>61</ele>
        <time>2025-05-13T11:03:17Z</time>
      </trkpt>
      <trkpt lat="47.53891" lon="-2.85637">
        <ele>61</ele>
        <time>2025-05-13T11:03:18Z</time>
      </trkpt>
      <trkpt lat="47.53892" lon="-2.85641">
        <ele>61</ele>
        <time>2025-05-13T11:03:19Z</time>
      </trkpt>
      <trkpt lat="47.53894" lon="-2.85646">
        <ele>61</ele>
        <time>2025-05-13T11:03:20Z</time>
      </trkpt>
      <trkpt lat="47.53895" lon="-2.85651">
        <ele>61</ele>
        <time>2025-05-13T11:03:21Z</time>
      </trkpt>
      <trkpt lat="47.53897" lon="-2.85657">
        <ele>61</ele>
        <time>2025-05-13T11:03:22Z</time>
      </trkpt>
      <trkpt lat="47.53898" lon="-2.85662">
        <ele>60</ele>
        <time>2025-05-13T11:03:23Z</time>
      </trkpt>
      <trkpt lat="47.53899" lon="-2.85667">
        <ele>61</ele>
        <time>2025-05-13T11:03:24Z</time>
      </trkpt>
      <trkpt lat="47.539" lon="-2.85672">
        <ele>61</ele>
        <time>2025-05-13T11:03:25Z</time>
      </trkpt>
      <trkpt lat="47.53901" lon="-2.85677">
        <ele>61</ele>
        <time>2025-05-13T11:03:26Z</time>
      </trkpt>
      <trkpt lat="47.53902" lon="-2.85683">
        <ele>60</ele>
        <time>2025-05-13T11:03:27Z</time>
      </trkpt>
      <trkpt lat="47.53903" lon="-2.85689">
        <ele>60</ele>
        <time>2025-05-13T11:03:28Z</time>
      </trkpt>
      <trkpt lat="47.53903" lon="-2.85695">
        <ele>59</ele>
        <time>2025-05-13T11:03:29Z</time>
      </trkpt>
      <trkpt lat="47.53904" lon="-2.85703">
        <ele>60</ele>
        <time>2025-05-13T11:03:30Z</time>
      </trkpt>
      <trkpt lat="47.53905" lon="-2.85709">
        <ele>59</ele>
        <time>2025-05-13T11:03:31Z</time>
      </trkpt>
      <trkpt lat="47.53905" lon="-2.85716">
        <ele>59</ele>
        <time>2025-05-13T11:03:32Z</time>
      </trkpt>
      <trkpt lat="47.53905" lon="-2.85722">
        <ele>58</ele>
        <time>2025-05-13T11:03:33Z</time>
      </trkpt>
      <trkpt lat="47.53905" lon="-2.85728">
        <ele>58</ele>
        <time>2025-05-13T11:03:34Z</time>
      </trkpt>
      <trkpt lat="47.53906" lon="-2.85735">
        <ele>58</ele>
        <time>2025-05-13T11:03:35Z</time>
      </trkpt>
      <trkpt lat="47.53906" lon="-2.85742">
        <ele>58</ele>
        <time>2025-05-13T11:03:36Z</time>
      </trkpt>
      <trkpt lat="47.53905" lon="-2.85749">
        <ele>58</ele>
        <time>2025-05-13T11:03:37Z</time>
      </trkpt>
      <trkpt lat="47.53906" lon="-2.85755">
        <ele>58</ele>
        <time>2025-05-13T11:03:38Z</time>
      </trkpt>
      <trkpt lat="47.53905" lon="-2.85762">
        <ele>58</ele>
        <time>2025-05-13T11:03:39Z</time>
      </trkpt>
      <trkpt lat="47.53905" lon="-2.85769">
        <ele>58</ele>
        <time>2025-05-13T11:03:40Z</time>
      </trkpt>
      <trkpt lat="47.53906" lon="-2.85776">
        <ele>58</ele>
        <time>2025-05-13T11:03:41Z</time>
      </trkpt>
      <trkpt lat="47.53907" lon="-2.85783">
        <ele>58</ele>
        <time>2025-05-13T11:03:42Z</time>
      </trkpt>
      <trkpt lat="47.53907" lon="-2.85791">
        <ele>57</ele>
        <time>2025-05-13T11:03:43Z</time>
      </trkpt>
      <trkpt lat="47.53907" lon="-2.85798">
        <ele>57</ele>
        <time>2025-05-13T11:03:44Z</time>
      </trkpt>
      <trkpt lat="47.53906" lon="-2.85805">
        <ele>57</ele>
        <time>2025-05-13T11:03:45Z</time>
      </trkpt>
      <trkpt lat="47.53905" lon="-2.85812">
        <ele>57</ele>
        <time>2025-05-13T11:03:46Z</time>
      </trkpt>
      <trkpt lat="47.53905" lon="-2.85819">
        <ele>57</ele>
        <time>2025-05-13T11:03:47Z</time>
      </trkpt>
      <trkpt lat="47.53904" lon="-2.85827">
        <ele>57</ele>
        <time>2025-05-13T11:03:48Z</time>
      </trkpt>
      <trkpt lat="47.53904" lon="-2.85834">
        <ele>57</ele>
        <time>2025-05-13T11:03:49Z</time>
      </trkpt>
      <trkpt lat="47.53904" lon="-2.85841">
        <ele>57</ele>
        <time>2025-05-13T11:03:50Z</time>
      </trkpt>
      <trkpt lat="47.53904" lon="-2.85848">
        <ele>58</ele>
        <time>2025-05-13T11:03:51Z</time>
      </trkpt>
      <trkpt lat="47.53904" lon="-2.85855">
        <ele>58</ele>
        <time>2025-05-13T11:03:52Z</time>
      </trkpt>
      <trkpt lat="47.53905" lon="-2.85862">
        <ele>59</ele>
        <time>2025-05-13T11:03:53Z</time>
      </trkpt>
      <trkpt lat="47.53905" lon="-2.8587">
        <ele>59</ele>
        <time>2025-05-13T11:03:54Z</time>
      </trkpt>
      <trkpt lat="47.53905" lon="-2.85877">
        <ele>59</ele>
        <time>2025-05-13T11:03:55Z</time>
      </trkpt>
      <trkpt lat="47.53904" lon="-2.85884">
        <ele>60</ele>
        <time>2025-05-13T11:03:56Z</time>
      </trkpt>
      <trkpt lat="47.53905" lon="-2.85891">
        <ele>60</ele>
        <time>2025-05-13T11:03:57Z</time>
      </trkpt>
      <trkpt lat="47.53904" lon="-2.85897">
        <ele>60</ele>
        <time>2025-05-13T11:03:58Z</time>
      </trkpt>
      <trkpt lat="47.53904" lon="-2.85904">
        <ele>60</ele>
        <time>2025-05-13T11:03:59Z</time>
      </trkpt>
      <trkpt lat="47.53904" lon="-2.8591">
        <ele>59</ele>
        <time>2025-05-13T11:04:00Z</time>
      </trkpt>
      <trkpt lat="47.53904" lon="-2.85917">
        <ele>59</ele>
        <time>2025-05-13T11:04:01Z</time>
      </trkpt>
      <trkpt lat="47.53904" lon="-2.85923">
        <ele>58</ele>
        <time>2025-05-13T11:04:02Z</time>
      </trkpt>
      <trkpt lat="47.53905" lon="-2.8593">
        <ele>57</ele>
        <time>2025-05-13T11:04:03Z</time>
      </trkpt>
      <trkpt lat="47.53905" lon="-2.85936">
        <ele>56</ele>
        <time>2025-05-13T11:04:04Z</time>
      </trkpt>
      <trkpt lat="47.53905" lon="-2.85943">
        <ele>56</ele>
        <time>2025-05-13T11:04:05Z</time>
      </trkpt>
      <trkpt lat="47.53905" lon="-2.85951">
        <ele>55</ele>
        <time>2025-05-13T11:04:06Z</time>
      </trkpt>
      <trkpt lat="47.53906" lon="-2.85958">
        <ele>55</ele>
        <time>2025-05-13T11:04:07Z</time>
      </trkpt>
      <trkpt lat="47.53905" lon="-2.85966">
        <ele>55</ele>
        <time>2025-05-13T11:04:08Z</time>
      </trkpt>
      <trkpt lat="47.53906" lon="-2.85973">
        <ele>55</ele>
        <time>2025-05-13T11:04:09Z</time>
      </trkpt>
      <trkpt lat="47.53906" lon="-2.8598">
        <ele>55</ele>
        <time>2025-05-13T11:04:10Z</time>
      </trkpt>
      <trkpt lat="47.53906" lon="-2.85987">
        <ele>54</ele>
        <time>2025-05-13T11:04:11Z</time>
      </trkpt>
      <trkpt lat="47.53906" lon="-2.85995">
        <ele>55</ele>
        <time>2025-05-13T11:04:12Z</time>
      </trkpt>
      <trkpt lat="47.53906" lon="-2.86003">
        <ele>55</ele>
        <time>2025-05-13T11:04:13Z</time>
      </trkpt>
      <trkpt lat="47.53906" lon="-2.86011">
        <ele>56</ele>
        <time>2025-05-13T11:04:14Z</time>
      </trkpt>
      <trkpt lat="47.53906" lon="-2.86018">
        <ele>56</ele>
        <time>2025-05-13T11:04:15Z</time>
      </trkpt>
      <trkpt lat="47.53905" lon="-2.86026">
        <ele>55</ele>
        <time>2025-05-13T11:04:16Z</time>
      </trkpt>
      <trkpt lat="47.53905" lon="-2.86033">
        <ele>55</ele>
        <time>2025-05-13T11:04:17Z</time>
      </trkpt>
      <trkpt lat="47.53905" lon="-2.8604">
        <ele>54</ele>
        <time>2025-05-13T11:04:18Z</time>
      </trkpt>
      <trkpt lat="47.53906" lon="-2.86047">
        <ele>54</ele>
        <time>2025-05-13T11:04:19Z</time>
      </trkpt>
      <trkpt lat="47.53906" lon="-2.86055">
        <ele>54</ele>
        <time>2025-05-13T11:04:20Z</time>
      </trkpt>
      <trkpt lat="47.53906" lon="-2.86062">
        <ele>53</ele>
        <time>2025-05-13T11:04:21Z</time>
      </trkpt>
      <trkpt lat="47.53906" lon="-2.86069">
        <ele>54</ele>
        <time>2025-05-13T11:04:22Z</time>
      </trkpt>
      <trkpt lat="47.53906" lon="-2.86077">
        <ele>55</ele>
        <time>2025-05-13T11:04:23Z</time>
      </trkpt>
      <trkpt lat="47.53906" lon="-2.86084">
        <ele>55</ele>
        <time>2025-05-13T11:04:24Z</time>
      </trkpt>
      <trkpt lat="47.53907" lon="-2.86093">
        <ele>55</ele>
        <time>2025-05-13T11:04:25Z</time>
      </trkpt>
      <trkpt lat="47.53907" lon="-2.861">
        <ele>55</ele>
        <time>2025-05-13T11:04:26Z</time>
      </trkpt>
      <trkpt lat="47.53908" lon="-2.86107">
        <ele>55</ele>
        <time>2025-05-13T11:04:27Z</time>
      </trkpt>
      <trkpt lat="47.53908" lon="-2.86114">
        <ele>55</ele>
        <time>2025-05-13T11:04:28Z</time>
      </trkpt>
      <trkpt lat="47.53909" lon="-2.86121">
        <ele>55</ele>
        <time>2025-05-13T11:04:29Z</time>
      </trkpt>
      <trkpt lat="47.5391" lon="-2.86128">
        <ele>56</ele>
        <time>2025-05-13T11:04:30Z</time>
      </trkpt>
      <trkpt lat="47.53911" lon="-2.86135">
        <ele>56</ele>
        <time>2025-05-13T11:04:31Z</time>
      </trkpt>
      <trkpt lat="47.53913" lon="-2.86141">
        <ele>55</ele>
        <time>2025-05-13T11:04:32Z</time>
      </trkpt>
      <trkpt lat="47.53914" lon="-2.86148">
        <ele>55</ele>
        <time>2025-05-13T11:04:33Z</time>
      </trkpt>
      <trkpt lat="47.53915" lon="-2.86154">
        <ele>55</ele>
        <time>2025-05-13T11:04:34Z</time>
      </trkpt>
      <trkpt lat="47.53916" lon="-2.8616">
        <ele>55</ele>
        <time>2025-05-13T11:04:35Z</time>
      </trkpt>
      <trkpt lat="47.53917" lon="-2.86166">
        <ele>56</ele>
        <time>2025-05-13T11:04:36Z</time>
      </trkpt>
      <trkpt lat="47.53918" lon="-2.86172">
        <ele>56</ele>
        <time>2025-05-13T11:04:37Z</time>
      </trkpt>
      <trkpt lat="47.5392" lon="-2.86177">
        <ele>56</ele>
        <time>2025-05-13T11:04:38Z</time>
      </trkpt>
      <trkpt lat="47.53922" lon="-2.86183">
        <ele>57</ele>
        <time>2025-05-13T11:04:39Z</time>
      </trkpt>
      <trkpt lat="47.53923" lon="-2.86189">
        <ele>57</ele>
        <time>2025-05-13T11:04:40Z</time>
      </trkpt>
      <trkpt lat="47.53924" lon="-2.86195">
        <ele>58</ele>
        <time>2025-05-13T11:04:41Z</time>
      </trkpt>
      <trkpt lat="47.53926" lon="-2.86201">
        <ele>58</ele>
        <time>2025-05-13T11:04:42Z</time>
      </trkpt>
      <trkpt lat="47.53928" lon="-2.86207">
        <ele>58</ele>
        <time>2025-05-13T11:04:43Z</time>
      </trkpt>
      <trkpt lat="47.53929" lon="-2.86213">
        <ele>58</ele>
        <time>2025-05-13T11:04:44Z</time>
      </trkpt>
      <trkpt lat="47.53931" lon="-2.86218">
        <ele>58</ele>
        <time>2025-05-13T11:04:45Z</time>
      </trkpt>
      <trkpt lat="47.53933" lon="-2.86223">
        <ele>59</ele>
        <time>2025-05-13T11:04:46Z</time>
      </trkpt>
      <trkpt lat="47.53935" lon="-2.86228">
        <ele>59</ele>
        <time>2025-05-13T11:04:47Z</time>
      </trkpt>
      <trkpt lat="47.53937" lon="-2.86232">
        <ele>59</ele>
        <time>2025-05-13T11:04:48Z</time>
      </trkpt>
      <trkpt lat="47.53938" lon="-2.86237">
        <ele>59</ele>
        <time>2025-05-13T11:04:49Z</time>
      </trkpt>
      <trkpt lat="47.5394" lon="-2.86242">
        <ele>59</ele>
        <time>2025-05-13T11:04:50Z</time>
      </trkpt>
      <trkpt lat="47.53942" lon="-2.86247">
        <ele>59</ele>
        <time>2025-05-13T11:04:51Z</time>
      </trkpt>
      <trkpt lat="47.53944" lon="-2.86252">
        <ele>60</ele>
        <time>2025-05-13T11:04:52Z</time>
      </trkpt>
      <trkpt lat="47.53946" lon="-2.86257">
        <ele>60</ele>
        <time>2025-05-13T11:04:53Z</time>
      </trkpt>
      <trkpt lat="47.53948" lon="-2.86261">
        <ele>60</ele>
        <time>2025-05-13T11:04:54Z</time>
      </trkpt>
      <trkpt lat="47.5395" lon="-2.86266">
        <ele>60</ele>
        <time>2025-05-13T11:04:55Z</time>
      </trkpt>
      <trkpt lat="47.53952" lon="-2.86269">
        <ele>59</ele>
        <time>2025-05-13T11:04:56Z</time>
      </trkpt>
      <trkpt lat="47.53953" lon="-2.86273">
        <ele>59</ele>
        <time>2025-05-13T11:04:57Z</time>
      </trkpt>
      <trkpt lat="47.53954" lon="-2.86278">
        <ele>60</ele>
        <time>2025-05-13T11:04:58Z</time>
      </trkpt>
      <trkpt lat="47.53956" lon="-2.86282">
        <ele>59</ele>
        <time>2025-05-13T11:04:59Z</time>
      </trkpt>
      <trkpt lat="47.53957" lon="-2.86285">
        <ele>59</ele>
        <time>2025-05-13T11:05:00Z</time>
      </trkpt>
      <trkpt lat="47.53959" lon="-2.86288">
        <ele>59</ele>
        <time>2025-05-13T11:05:01Z</time>
      </trkpt>
      <trkpt lat="47.53961" lon="-2.86292">
        <ele>60</ele>
        <time>2025-05-13T11:05:02Z</time>
      </trkpt>
      <trkpt lat="47.53963" lon="-2.86295">
        <ele>60</ele>
        <time>2025-05-13T11:05:03Z</time>
      </trkpt>
      <trkpt lat="47.53964" lon="-2.86299">
        <ele>60</ele>
        <time>2025-05-13T11:05:04Z</time>
      </trkpt>
      <trkpt lat="47.53966" lon="-2.86303">
        <ele>60</ele>
        <time>2025-05-13T11:05:05Z</time>
      </trkpt>
      <trkpt lat="47.53969" lon="-2.86307">
        <ele>60</ele>
        <time>2025-05-13T11:05:06Z</time>
      </trkpt>
      <trkpt lat="47.53971" lon="-2.8631">
        <ele>61</ele>
        <time>2025-05-13T11:05:07Z</time>
      </trkpt>
      <trkpt lat="47.53973" lon="-2.86314">
        <ele>61</ele>
        <time>2025-05-13T11:05:08Z</time>
      </trkpt>
      <trkpt lat="47.53976" lon="-2.86317">
        <ele>61</ele>
        <time>2025-05-13T11:05:09Z</time>
      </trkpt>
      <trkpt lat="47.53978" lon="-2.8632">
        <ele>61</ele>
        <time>2025-05-13T11:05:10Z</time>
      </trkpt>
      <trkpt lat="47.5398" lon="-2.86324">
        <ele>60</ele>
        <time>2025-05-13T11:05:11Z</time>
      </trkpt>
      <trkpt lat="47.53982" lon="-2.86327">
        <ele>61</ele>
        <time>2025-05-13T11:05:12Z</time>
      </trkpt>
      <trkpt lat="47.53985" lon="-2.86331">
        <ele>60</ele>
        <time>2025-05-13T11:05:13Z</time>
      </trkpt>
      <trkpt lat="47.53987" lon="-2.86334">
        <ele>60</ele>
        <time>2025-05-13T11:05:14Z</time>
      </trkpt>
      <trkpt lat="47.53989" lon="-2.86337">
        <ele>60</ele>
        <time>2025-05-13T11:05:15Z</time>
      </trkpt>
      <trkpt lat="47.53991" lon="-2.8634">
        <ele>60</ele>
        <time>2025-05-13T11:05:16Z</time>
      </trkpt>
      <trkpt lat="47.53994" lon="-2.86343">
        <ele>60</ele>
        <time>2025-05-13T11:05:17Z</time>
      </trkpt>
      <trkpt lat="47.53996" lon="-2.86346">
        <ele>61</ele>
        <time>2025-05-13T11:05:18Z</time>
      </trkpt>
      <trkpt lat="47.53999" lon="-2.8635">
        <ele>61</ele>
        <time>2025-05-13T11:05:19Z</time>
      </trkpt>
      <trkpt lat="47.54002" lon="-2.86353">
        <ele>61</ele>
        <time>2025-05-13T11:05:20Z</time>
      </trkpt>
      <trkpt lat="47.54004" lon="-2.86356">
        <ele>61</ele>
        <time>2025-05-13T11:05:21Z</time>
      </trkpt>
      <trkpt lat="47.54007" lon="-2.86359">
        <ele>61</ele>
        <time>2025-05-13T11:05:22Z</time>
      </trkpt>
      <trkpt lat="47.54009" lon="-2.86362">
        <ele>60</ele>
        <time>2025-05-13T11:05:23Z</time>
      </trkpt>
      <trkpt lat="47.54011" lon="-2.86365">
        <ele>60</ele>
        <time>2025-05-13T11:05:24Z</time>
      </trkpt>
      <trkpt lat="47.54013" lon="-2.86366">
        <ele>60</ele>
        <time>2025-05-13T11:05:25Z</time>
      </trkpt>
      <trkpt lat="47.54015" lon="-2.86368">
        <ele>60</ele>
        <time>2025-05-13T11:05:26Z</time>
      </trkpt>
      <trkpt lat="47.54017" lon="-2.86371">
        <ele>60</ele>
        <time>2025-05-13T11:05:27Z</time>
      </trkpt>
      <trkpt lat="47.5402" lon="-2.86373">
        <ele>60</ele>
        <time>2025-05-13T11:05:28Z</time>
      </trkpt>
      <trkpt lat="47.54023" lon="-2.86376">
        <ele>60</ele>
        <time>2025-05-13T11:05:29Z</time>
      </trkpt>
      <trkpt lat="47.54025" lon="-2.86379">
        <ele>60</ele>
        <time>2025-05-13T11:05:30Z</time>
      </trkpt>
      <trkpt lat="47.54028" lon="-2.86382">
        <ele>60</ele>
        <time>2025-05-13T11:05:31Z</time>
      </trkpt>
      <trkpt lat="47.54031" lon="-2.86385">
        <ele>60</ele>
        <time>2025-05-13T11:05:32Z</time>
      </trkpt>
      <trkpt lat="47.54034" lon="-2.86387">
        <ele>60</ele>
        <time>2025-05-13T11:05:33Z</time>
      </trkpt>
      <trkpt lat="47.54036" lon="-2.86389">
        <ele>60</ele>
        <time>2025-05-13T11:05:34Z</time>
      </trkpt>
      <trkpt lat="47.54039" lon="-2.86392">
        <ele>60</ele>
        <time>2025-05-13T11:05:35Z</time>
      </trkpt>
      <trkpt lat="47.54041" lon="-2.86394">
        <ele>60</ele>
        <time>2025-05-13T11:05:36Z</time>
      </trkpt>
      <trkpt lat="47.54044" lon="-2.86396">
        <ele>61</ele>
        <time>2025-05-13T11:05:37Z</time>
      </trkpt>
      <trkpt lat="47.54047" lon="-2.86397">
        <ele>61</ele>
        <time>2025-05-13T11:05:38Z</time>
      </trkpt>
      <trkpt lat="47.5405" lon="-2.86399">
        <ele>61</ele>
        <time>2025-05-13T11:05:39Z</time>
      </trkpt>
      <trkpt lat="47.54052" lon="-2.864">
        <ele>61</ele>
        <time>2025-05-13T11:05:40Z</time>
      </trkpt>
      <trkpt lat="47.54054" lon="-2.86402">
        <ele>61</ele>
        <time>2025-05-13T11:05:41Z</time>
      </trkpt>
      <trkpt lat="47.54056" lon="-2.86404">
        <ele>61</ele>
        <time>2025-05-13T11:05:42Z</time>
      </trkpt>
      <trkpt lat="47.54058" lon="-2.86405">
        <ele>62</ele>
        <time>2025-05-13T11:05:43Z</time>
      </trkpt>
      <trkpt lat="47.5406" lon="-2.86406">
        <ele>62</ele>
        <time>2025-05-13T11:05:44Z</time>
      </trkpt>
      <trkpt lat="47.54063" lon="-2.86409">
        <ele>63</ele>
        <time>2025-05-13T11:05:45Z</time>
      </trkpt>
      <trkpt lat="47.54066" lon="-2.86411">
        <ele>64</ele>
        <time>2025-05-13T11:05:46Z</time>
      </trkpt>
      <trkpt lat="47.54068" lon="-2.86413">
        <ele>64</ele>
        <time>2025-05-13T11:05:47Z</time>
      </trkpt>
      <trkpt lat="47.54071" lon="-2.86414">
        <ele>64</ele>
        <time>2025-05-13T11:05:48Z</time>
      </trkpt>
      <trkpt lat="47.54074" lon="-2.86415">
        <ele>65</ele>
        <time>2025-05-13T11:05:49Z</time>
      </trkpt>
      <trkpt lat="47.54077" lon="-2.86417">
        <ele>65</ele>
        <time>2025-05-13T11:05:50Z</time>
      </trkpt>
      <trkpt lat="47.54079" lon="-2.8642">
        <ele>65</ele>
        <time>2025-05-13T11:05:51Z</time>
      </trkpt>
      <trkpt lat="47.54081" lon="-2.86422">
        <ele>65</ele>
        <time>2025-05-13T11:05:52Z</time>
      </trkpt>
      <trkpt lat="47.54084" lon="-2.86424">
        <ele>65</ele>
        <time>2025-05-13T11:05:53Z</time>
      </trkpt>
      <trkpt lat="47.54088" lon="-2.86427">
        <ele>65</ele>
        <time>2025-05-13T11:05:54Z</time>
      </trkpt>
      <trkpt lat="47.54091" lon="-2.8643">
        <ele>66</ele>
        <time>2025-05-13T11:05:55Z</time>
      </trkpt>
      <trkpt lat="47.54094" lon="-2.86432">
        <ele>66</ele>
        <time>2025-05-13T11:05:56Z</time>
      </trkpt>
      <trkpt lat="47.54098" lon="-2.86435">
        <ele>66</ele>
        <time>2025-05-13T11:05:57Z</time>
      </trkpt>
      <trkpt lat="47.541" lon="-2.86437">
        <ele>65</ele>
        <time>2025-05-13T11:05:58Z</time>
      </trkpt>
      <trkpt lat="47.54103" lon="-2.8644">
        <ele>64</ele>
        <time>2025-05-13T11:05:59Z</time>
      </trkpt>
      <trkpt lat="47.54106" lon="-2.86442">
        <ele>64</ele>
        <time>2025-05-13T11:06:00Z</time>
      </trkpt>
      <trkpt lat="47.54109" lon="-2.86445">
        <ele>64</ele>
        <time>2025-05-13T11:06:01Z</time>
      </trkpt>
      <trkpt lat="47.54113" lon="-2.86447">
        <ele>63</ele>
        <time>2025-05-13T11:06:02Z</time>
      </trkpt>
      <trkpt lat="47.54117" lon="-2.86451">
        <ele>63</ele>
        <time>2025-05-13T11:06:03Z</time>
      </trkpt>
      <trkpt lat="47.54122" lon="-2.86454">
        <ele>63</ele>
        <time>2025-05-13T11:06:04Z</time>
      </trkpt>
      <trkpt lat="47.54126" lon="-2.86458">
        <ele>62</ele>
        <time>2025-05-13T11:06:05Z</time>
      </trkpt>
      <trkpt lat="47.54129" lon="-2.86461">
        <ele>61</ele>
        <time>2025-05-13T11:06:06Z</time>
      </trkpt>
      <trkpt lat="47.54132" lon="-2.86464">
        <ele>61</ele>
        <time>2025-05-13T11:06:07Z</time>
      </trkpt>
      <trkpt lat="47.54136" lon="-2.86467">
        <ele>61</ele>
        <time>2025-05-13T11:06:08Z</time>
      </trkpt>
      <trkpt lat="47.54139" lon="-2.8647">
        <ele>61</ele>
        <time>2025-05-13T11:06:09Z</time>
      </trkpt>
      <trkpt lat="47.54143" lon="-2.86473">
        <ele>61</ele>
        <time>2025-05-13T11:06:10Z</time>
      </trkpt>
      <trkpt lat="47.54147" lon="-2.86476">
        <ele>62</ele>
        <time>2025-05-13T11:06:11Z</time>
      </trkpt>
      <trkpt lat="47.54151" lon="-2.86478">
        <ele>62</ele>
        <time>2025-05-13T11:06:12Z</time>
      </trkpt>
      <trkpt lat="47.54154" lon="-2.86481">
        <ele>62</ele>
        <time>2025-05-13T11:06:13Z</time>
      </trkpt>
      <trkpt lat="47.54158" lon="-2.86484">
        <ele>62</ele>
        <time>2025-05-13T11:06:14Z</time>
      </trkpt>
      <trkpt lat="47.54161" lon="-2.86486">
        <ele>62</ele>
        <time>2025-05-13T11:06:15Z</time>
      </trkpt>
      <trkpt lat="47.54164" lon="-2.86489">
        <ele>63</ele>
        <time>2025-05-13T11:06:16Z</time>
      </trkpt>
      <trkpt lat="47.54167" lon="-2.86492">
        <ele>63</ele>
        <time>2025-05-13T11:06:17Z</time>
      </trkpt>
      <trkpt lat="47.5417" lon="-2.86496">
        <ele>63</ele>
        <time>2025-05-13T11:06:18Z</time>
      </trkpt>
      <trkpt lat="47.54172" lon="-2.86499">
        <ele>63</ele>
        <time>2025-05-13T11:06:19Z</time>
      </trkpt>
      <trkpt lat="47.54175" lon="-2.86502">
        <ele>63</ele>
        <time>2025-05-13T11:06:20Z</time>
      </trkpt>
      <trkpt lat="47.54178" lon="-2.86505">
        <ele>63</ele>
        <time>2025-05-13T11:06:21Z</time>
      </trkpt>
      <trkpt lat="47.5418" lon="-2.86507">
        <ele>63</ele>
        <time>2025-05-13T11:06:22Z</time>
      </trkpt>
      <trkpt lat="47.54182" lon="-2.86511">
        <ele>64</ele>
        <time>2025-05-13T11:06:23Z</time>
      </trkpt>
      <trkpt lat="47.54185" lon="-2.86514">
        <ele>64</ele>
        <time>2025-05-13T11:06:24Z</time>
      </trkpt>
      <trkpt lat="47.54188" lon="-2.86517">
        <ele>64</ele>
        <time>2025-05-13T11:06:25Z</time>
      </trkpt>
      <trkpt lat="47.5419" lon="-2.8652">
        <ele>64</ele>
        <time>2025-05-13T11:06:26Z</time>
      </trkpt>
      <trkpt lat="47.54193" lon="-2.86523">
        <ele>64</ele>
        <time>2025-05-13T11:06:27Z</time>
      </trkpt>
      <trkpt lat="47.54196" lon="-2.86526">
        <ele>65</ele>
        <time>2025-05-13T11:06:28Z</time>
      </trkpt>
      <trkpt lat="47.54199" lon="-2.8653">
        <ele>64</ele>
        <time>2025-05-13T11:06:29Z</time>
      </trkpt>
      <trkpt lat="47.54202" lon="-2.86534">
        <ele>65</ele>
        <time>2025-05-13T11:06:30Z</time>
      </trkpt>
      <trkpt lat="47.54205" lon="-2.86537">
        <ele>65</ele>
        <time>2025-05-13T11:06:31Z</time>
      </trkpt>
      <trkpt lat="47.54207" lon="-2.8654">
        <ele>66</ele>
        <time>2025-05-13T11:06:32Z</time>
      </trkpt>
      <trkpt lat="47.5421" lon="-2.86544">
        <ele>66</ele>
        <time>2025-05-13T11:06:33Z</time>
      </trkpt>
      <trkpt lat="47.54211" lon="-2.86548">
        <ele>67</ele>
        <time>2025-05-13T11:06:34Z</time>
      </trkpt>
      <trkpt lat="47.54213" lon="-2.86552">
        <ele>67</ele>
        <time>2025-05-13T11:06:35Z</time>
      </trkpt>
      <trkpt lat="47.54215" lon="-2.86557">
        <ele>67</ele>
        <time>2025-05-13T11:06:36Z</time>
      </trkpt>
      <trkpt lat="47.54217" lon="-2.86561">
        <ele>67</ele>
        <time>2025-05-13T11:06:37Z</time>
      </trkpt>
      <trkpt lat="47.54219" lon="-2.86565">
        <ele>68</ele>
        <time>2025-05-13T11:06:38Z</time>
      </trkpt>
      <trkpt lat="47.54222" lon="-2.86569">
        <ele>68</ele>
        <time>2025-05-13T11:06:39Z</time>
      </trkpt>
      <trkpt lat="47.54224" lon="-2.86572">
        <ele>67</ele>
        <time>2025-05-13T11:06:40Z</time>
      </trkpt>
      <trkpt lat="47.54225" lon="-2.86575">
        <ele>67</ele>
        <time>2025-05-13T11:06:41Z</time>
      </trkpt>
      <trkpt lat="47.54227" lon="-2.86578">
        <ele>67</ele>
        <time>2025-05-13T11:06:42Z</time>
      </trkpt>
      <trkpt lat="47.54228" lon="-2.86581">
        <ele>67</ele>
        <time>2025-05-13T11:06:43Z</time>
      </trkpt>
      <trkpt lat="47.5423" lon="-2.86584">
        <ele>67</ele>
        <time>2025-05-13T11:06:44Z</time>
      </trkpt>
      <trkpt lat="47.54231" lon="-2.86586">
        <ele>67</ele>
        <time>2025-05-13T11:06:45Z</time>
      </trkpt>
      <trkpt lat="47.54232" lon="-2.86589">
        <ele>67</ele>
        <time>2025-05-13T11:06:46Z</time>
      </trkpt>
      <trkpt lat="47.54234" lon="-2.86591">
        <ele>67</ele>
        <time>2025-05-13T11:06:47Z</time>
      </trkpt>
      <trkpt lat="47.54234" lon="-2.86593">
        <ele>67</ele>
        <time>2025-05-13T11:06:48Z</time>
      </trkpt>
      <trkpt lat="47.54235" lon="-2.86595">
        <ele>66</ele>
        <time>2025-05-13T11:06:49Z</time>
      </trkpt>
      <trkpt lat="47.54236" lon="-2.86596">
        <ele>66</ele>
        <time>2025-05-13T11:06:50Z</time>
      </trkpt>
      <trkpt lat="47.54237" lon="-2.86598">
        <ele>66</ele>
        <time>2025-05-13T11:06:51Z</time>
      </trkpt>
      <trkpt lat="47.54238" lon="-2.86598">
        <ele>65</ele>
        <time>2025-05-13T11:06:52Z</time>
      </trkpt>
      <trkpt lat="47.54238" lon="-2.86598">
        <ele>65</ele>
        <time>2025-05-13T11:06:53Z</time>
      </trkpt>
      <trkpt lat="47.54238" lon="-2.86598">
        <ele>65</ele>
        <time>2025-05-13T11:06:54Z</time>
      </trkpt>
      <trkpt lat="47.54238" lon="-2.86598">
        <ele>65</ele>
        <time>2025-05-13T11:06:55Z</time>
      </trkpt>
      <trkpt lat="47.54238" lon="-2.86598">
        <ele>65</ele>
        <time>2025-05-13T11:06:56Z</time>
      </trkpt>
      <trkpt lat="47.54238" lon="-2.86598">
        <ele>65</ele>
        <time>2025-05-13T11:06:57Z</time>
      </trkpt>
      <trkpt lat="47.54238" lon="-2.86598">
        <ele>65</ele>
        <time>2025-05-13T11:06:58Z</time>
      </trkpt>
      <trkpt lat="47.54238" lon="-2.86598">
        <ele>65</ele>
        <time>2025-05-13T11:06:59Z</time>
      </trkpt>
      <trkpt lat="47.54238" lon="-2.86598">
        <ele>65</ele>
        <time>2025-05-13T11:07:00Z</time>
      </trkpt>
      <trkpt lat="47.54238" lon="-2.86598">
        <ele>65</ele>
        <time>2025-05-13T11:07:01Z</time>
      </trkpt>
      <trkpt lat="47.54238" lon="-2.86598">
        <ele>65</ele>
        <time>2025-05-13T11:07:02Z</time>
      </trkpt>
      <trkpt lat="47.54238" lon="-2.86598">
        <ele>65</ele>
        <time>2025-05-13T11:07:03Z</time>
      </trkpt>
      <trkpt lat="47.54238" lon="-2.86598">
        <ele>65</ele>
        <time>2025-05-13T11:07:04Z</time>
      </trkpt>
      <trkpt lat="47.54238" lon="-2.86598">
        <ele>65</ele>
        <time>2025-05-13T11:07:05Z</time>
      </trkpt>
      <trkpt lat="47.54238" lon="-2.86598">
        <ele>65</ele>
        <time>2025-05-13T11:07:06Z</time>
      </trkpt>
      <trkpt lat="47.54238" lon="-2.86598">
        <ele>65</ele>
        <time>2025-05-13T11:07:07Z</time>
      </trkpt>
      <trkpt lat="47.54238" lon="-2.86598">
        <ele>65</ele>
        <time>2025-05-13T11:07:08Z</time>
      </trkpt>
      <trkpt lat="47.54238" lon="-2.86598">
        <ele>65</ele>
        <time>2025-05-13T11:07:09Z</time>
      </trkpt>
      <trkpt lat="47.54238" lon="-2.86598">
        <ele>65</ele>
        <time>2025-05-13T11:07:10Z</time>
      </trkpt>
      <trkpt lat="47.54238" lon="-2.86598">
        <ele>65</ele>
        <time>2025-05-13T11:07:11Z</time>
      </trkpt>
      <trkpt lat="47.54238" lon="-2.86598">
        <ele>65</ele>
        <time>2025-05-13T11:07:12Z</time>
      </trkpt>
      <trkpt lat="47.54238" lon="-2.86598">
        <ele>65</ele>
        <time>2025-05-13T11:07:13Z</time>
      </trkpt>
      <trkpt lat="47.54238" lon="-2.86598">
        <ele>65</ele>
        <time>2025-05-13T11:07:14Z</time>
      </trkpt>
      <trkpt lat="47.54238" lon="-2.86598">
        <ele>65</ele>
        <time>2025-05-13T11:07:15Z</time>
      </trkpt>
      <trkpt lat="47.54238" lon="-2.86598">
        <ele>65</ele>
        <time>2025-05-13T11:07:16Z</time>
      </trkpt>
      <trkpt lat="47.54238" lon="-2.86598">
        <ele>65</ele>
        <time>2025-05-13T11:07:17Z</time>
      </trkpt>
      <trkpt lat="47.54238" lon="-2.86598">
        <ele>65</ele>
        <time>2025-05-13T11:07:18Z</time>
      </trkpt>
      <trkpt lat="47.54238" lon="-2.86598">
        <ele>65</ele>
        <time>2025-05-13T11:07:19Z</time>
      </trkpt>
      <trkpt lat="47.54238" lon="-2.86598">
        <ele>65</ele>
        <time>2025-05-13T11:07:20Z</time>
      </trkpt>
      <trkpt lat="47.54238" lon="-2.86598">
        <ele>65</ele>
        <time>2025-05-13T11:07:21Z</time>
      </trkpt>
      <trkpt lat="47.54238" lon="-2.86598">
        <ele>65</ele>
        <time>2025-05-13T11:07:22Z</time>
      </trkpt>
      <trkpt lat="47.54238" lon="-2.86598">
        <ele>65</ele>
        <time>2025-05-13T11:07:23Z</time>
      </trkpt>
      <trkpt lat="47.54238" lon="-2.86598">
        <ele>65</ele>
        <time>2025-05-13T11:07:24Z</time>
      </trkpt>
      <trkpt lat="47.54238" lon="-2.86598">
        <ele>65</ele>
        <time>2025-05-13T11:07:25Z</time>
      </trkpt>
      <trkpt lat="47.54238" lon="-2.86598">
        <ele>65</ele>
        <time>2025-05-13T11:07:26Z</time>
      </trkpt>
      <trkpt lat="47.54238" lon="-2.86598">
        <ele>65</ele>
        <time>2025-05-13T11:07:27Z</time>
      </trkpt>
      <trkpt lat="47.54238" lon="-2.86598">
        <ele>65</ele>
        <time>2025-05-13T11:07:28Z</time>
      </trkpt>
      <trkpt lat="47.54238" lon="-2.86598">
        <ele>65</ele>
        <time>2025-05-13T11:07:29Z</time>
      </trkpt>
      <trkpt lat="47.54238" lon="-2.86598">
        <ele>65</ele>
        <time>2025-05-13T11:07:30Z</time>
      </trkpt>
      <trkpt lat="47.54238" lon="-2.86598">
        <ele>65</ele>
        <time>2025-05-13T11:07:31Z</time>
      </trkpt>
      <trkpt lat="47.54238" lon="-2.86598">
        <ele>65</ele>
        <time>2025-05-13T11:07:32Z</time>
      </trkpt>
      <trkpt lat="47.54238" lon="-2.86598">
        <ele>65</ele>
        <time>2025-05-13T11:07:33Z</time>
      </trkpt>
      <trkpt lat="47.54238" lon="-2.86598">
        <ele>65</ele>
        <time>2025-05-13T11:07:34Z</time>
      </trkpt>
      <trkpt lat="47.54238" lon="-2.86598">
        <ele>65</ele>
        <time>2025-05-13T11:07:35Z</time>
      </trkpt>
      <trkpt lat="47.54238" lon="-2.86598">
        <ele>65</ele>
        <time>2025-05-13T11:07:36Z</time>
      </trkpt>
      <trkpt lat="47.54238" lon="-2.86598">
        <ele>65</ele>
        <time>2025-05-13T11:07:37Z</time>
      </trkpt>
      <trkpt lat="47.54238" lon="-2.86598">
        <ele>65</ele>
        <time>2025-05-13T11:07:38Z</time>
      </trkpt>
      <trkpt lat="47.54238" lon="-2.86598">
        <ele>65</ele>
        <time>2025-05-13T11:07:39Z</time>
      </trkpt>
      <trkpt lat="47.54238" lon="-2.86598">
        <ele>65</ele>
        <time>2025-05-13T11:07:40Z</time>
      </trkpt>
      <trkpt lat="47.54238" lon="-2.86598">
        <ele>65</ele>
        <time>2025-05-13T11:07:41Z</time>
      </trkpt>
      <trkpt lat="47.54238" lon="-2.86598">
        <ele>65</ele>
        <time>2025-05-13T11:07:42Z</time>
      </trkpt>
      <trkpt lat="47.54238" lon="-2.86598">
        <ele>65</ele>
        <time>2025-05-13T11:07:43Z</time>
      </trkpt>
      <trkpt lat="47.54238" lon="-2.86598">
        <ele>65</ele>
        <time>2025-05-13T11:07:44Z</time>
      </trkpt>
      <trkpt lat="47.54238" lon="-2.86598">
        <ele>65</ele>
        <time>2025-05-13T11:07:45Z</time>
      </trkpt>
      <trkpt lat="47.54238" lon="-2.86598">
        <ele>65</ele>
        <time>2025-05-13T11:07:46Z</time>
      </trkpt>
      <trkpt lat="47.54238" lon="-2.86598">
        <ele>65</ele>
        <time>2025-05-13T11:07:47Z</time>
      </trkpt>
      <trkpt lat="47.54238" lon="-2.86598">
        <ele>65</ele>
        <time>2025-05-13T11:07:48Z</time>
      </trkpt>
      <trkpt lat="47.54238" lon="-2.86598">
        <ele>65</ele>
        <time>2025-05-13T11:07:49Z</time>
      </trkpt>
      <trkpt lat="47.54238" lon="-2.86598">
        <ele>65</ele>
        <time>2025-05-13T11:07:50Z</time>
      </trkpt>
      <trkpt lat="47.54238" lon="-2.86598">
        <ele>65</ele>
        <time>2025-05-13T11:07:51Z</time>
      </trkpt>
      <trkpt lat="47.54238" lon="-2.86598">
        <ele>65</ele>
        <time>2025-05-13T11:07:52Z</time>
      </trkpt>
      <trkpt lat="47.54238" lon="-2.86598">
        <ele>65</ele>
        <time>2025-05-13T11:07:53Z</time>
      </trkpt>
      <trkpt lat="47.54238" lon="-2.86598">
        <ele>65</ele>
        <time>2025-05-13T11:07:54Z</time>
      </trkpt>
      <trkpt lat="47.54238" lon="-2.86598">
        <ele>65</ele>
        <time>2025-05-13T11:07:55Z</time>
      </trkpt>
      <trkpt lat="47.54238" lon="-2.86598">
        <ele>65</ele>
        <time>2025-05-13T11:07:56Z</time>
      </trkpt>
      <trkpt lat="47.54238" lon="-2.86598">
        <ele>65</ele>
        <time>2025-05-13T11:07:57Z</time>
      </trkpt>
      <trkpt lat="47.54241" lon="-2.8661">
        <ele>65</ele>
        <time>2025-05-13T11:07:58Z</time>
      </trkpt>
      <trkpt lat="47.54243" lon="-2.86613">
        <ele>65</ele>
        <time>2025-05-13T11:07:59Z</time>
      </trkpt>
      <trkpt lat="47.54244" lon="-2.86615">
        <ele>65</ele>
        <time>2025-05-13T11:08:00Z</time>
      </trkpt>
      <trkpt lat="47.54246" lon="-2.86618">
        <ele>65</ele>
        <time>2025-05-13T11:08:01Z</time>
      </trkpt>
      <trkpt lat="47.54247" lon="-2.86621">
        <ele>65</ele>
        <time>2025-05-13T11:08:02Z</time>
      </trkpt>
      <trkpt lat="47.54248" lon="-2.86624">
        <ele>65</ele>
        <time>2025-05-13T11:08:03Z</time>
      </trkpt>
      <trkpt lat="47.5425" lon="-2.86627">
        <ele>66</ele>
        <time>2025-05-13T11:08:04Z</time>
      </trkpt>
      <trkpt lat="47.54251" lon="-2.86631">
        <ele>66</ele>
        <time>2025-05-13T11:08:05Z</time>
      </trkpt>
      <trkpt lat="47.54252" lon="-2.86634">
        <ele>66</ele>
        <time>2025-05-13T11:08:06Z</time>
      </trkpt>
      <trkpt lat="47.54253" lon="-2.86638">
        <ele>66</ele>
        <time>2025-05-13T11:08:07Z</time>
      </trkpt>
      <trkpt lat="47.54254" lon="-2.86642">
        <ele>65</ele>
        <time>2025-05-13T11:08:08Z</time>
      </trkpt>
      <trkpt lat="47.54255" lon="-2.86646">
        <ele>65</ele>
        <time>2025-05-13T11:08:09Z</time>
      </trkpt>
      <trkpt lat="47.54256" lon="-2.8665">
        <ele>66</ele>
        <time>2025-05-13T11:08:10Z</time>
      </trkpt>
      <trkpt lat="47.54258" lon="-2.86654">
        <ele>66</ele>
        <time>2025-05-13T11:08:11Z</time>
      </trkpt>
      <trkpt lat="47.54259" lon="-2.86658">
        <ele>65</ele>
        <time>2025-05-13T11:08:12Z</time>
      </trkpt>
      <trkpt lat="47.54261" lon="-2.86662">
        <ele>65</ele>
        <time>2025-05-13T11:08:13Z</time>
      </trkpt>
      <trkpt lat="47.54262" lon="-2.86667">
        <ele>65</ele>
        <time>2025-05-13T11:08:14Z</time>
      </trkpt>
      <trkpt lat="47.54263" lon="-2.86671">
        <ele>65</ele>
        <time>2025-05-13T11:08:15Z</time>
      </trkpt>
      <trkpt lat="47.54264" lon="-2.86676">
        <ele>65</ele>
        <time>2025-05-13T11:08:16Z</time>
      </trkpt>
      <trkpt lat="47.54265" lon="-2.8668">
        <ele>64</ele>
        <time>2025-05-13T11:08:17Z</time>
      </trkpt>
      <trkpt lat="47.54266" lon="-2.86685">
        <ele>64</ele>
        <time>2025-05-13T11:08:18Z</time>
      </trkpt>
      <trkpt lat="47.54267" lon="-2.8669">
        <ele>65</ele>
        <time>2025-05-13T11:08:19Z</time>
      </trkpt>
      <trkpt lat="47.54268" lon="-2.86695">
        <ele>65</ele>
        <time>2025-05-13T11:08:20Z</time>
      </trkpt>
      <trkpt lat="47.54269" lon="-2.867">
        <ele>65</ele>
        <time>2025-05-13T11:08:21Z</time>
      </trkpt>
      <trkpt lat="47.5427" lon="-2.86705">
        <ele>65</ele>
        <time>2025-05-13T11:08:22Z</time>
      </trkpt>
      <trkpt lat="47.54271" lon="-2.8671">
        <ele>65</ele>
        <time>2025-05-13T11:08:23Z</time>
      </trkpt>
      <trkpt lat="47.54272" lon="-2.86715">
        <ele>65</ele>
        <time>2025-05-13T11:08:24Z</time>
      </trkpt>
      <trkpt lat="47.54273" lon="-2.8672">
        <ele>65</ele>
        <time>2025-05-13T11:08:25Z</time>
      </trkpt>
      <trkpt lat="47.54274" lon="-2.86725">
        <ele>65</ele>
        <time>2025-05-13T11:08:26Z</time>
      </trkpt>
      <trkpt lat="47.54275" lon="-2.86729">
        <ele>65</ele>
        <time>2025-05-13T11:08:27Z</time>
      </trkpt>
      <trkpt lat="47.54276" lon="-2.86734">
        <ele>65</ele>
        <time>2025-05-13T11:08:28Z</time>
      </trkpt>
      <trkpt lat="47.54277" lon="-2.86739">
        <ele>66</ele>
        <time>2025-05-13T11:08:29Z</time>
      </trkpt>
      <trkpt lat="47.54277" lon="-2.86744">
        <ele>66</ele>
        <time>2025-05-13T11:08:30Z</time>
      </trkpt>
      <trkpt lat="47.54277" lon="-2.86749">
        <ele>66</ele>
        <time>2025-05-13T11:08:31Z</time>
      </trkpt>
      <trkpt lat="47.54278" lon="-2.86754">
        <ele>67</ele>
        <time>2025-05-13T11:08:32Z</time>
      </trkpt>
      <trkpt lat="47.54279" lon="-2.86759">
        <ele>67</ele>
        <time>2025-05-13T11:08:33Z</time>
      </trkpt>
      <trkpt lat="47.54279" lon="-2.86764">
        <ele>67</ele>
        <time>2025-05-13T11:08:34Z</time>
      </trkpt>
      <trkpt lat="47.5428" lon="-2.86769">
        <ele>67</ele>
        <time>2025-05-13T11:08:35Z</time>
      </trkpt>
      <trkpt lat="47.54281" lon="-2.86773">
        <ele>66</ele>
        <time>2025-05-13T11:08:36Z</time>
      </trkpt>
      <trkpt lat="47.54282" lon="-2.86778">
        <ele>66</ele>
        <time>2025-05-13T11:08:37Z</time>
      </trkpt>
      <trkpt lat="47.54282" lon="-2.86782">
        <ele>66</ele>
        <time>2025-05-13T11:08:38Z</time>
      </trkpt>
      <trkpt lat="47.54283" lon="-2.86787">
        <ele>66</ele>
        <time>2025-05-13T11:08:39Z</time>
      </trkpt>
      <trkpt lat="47.54283" lon="-2.86791">
        <ele>65</ele>
        <time>2025-05-13T11:08:40Z</time>
      </trkpt>
      <trkpt lat="47.54283" lon="-2.86796">
        <ele>65</ele>
        <time>2025-05-13T11:08:41Z</time>
      </trkpt>
      <trkpt lat="47.54283" lon="-2.86802">
        <ele>64</ele>
        <time>2025-05-13T11:08:42Z</time>
      </trkpt>
      <trkpt lat="47.54282" lon="-2.86806">
        <ele>64</ele>
        <time>2025-05-13T11:08:43Z</time>
      </trkpt>
      <trkpt lat="47.54281" lon="-2.86811">
        <ele>64</ele>
        <time>2025-05-13T11:08:44Z</time>
      </trkpt>
      <trkpt lat="47.54281" lon="-2.86815">
        <ele>65</ele>
        <time>2025-05-13T11:08:45Z</time>
      </trkpt>
      <trkpt lat="47.54282" lon="-2.86819">
        <ele>65</ele>
        <time>2025-05-13T11:08:46Z</time>
      </trkpt>
      <trkpt lat="47.54281" lon="-2.86823">
        <ele>66</ele>
        <time>2025-05-13T11:08:47Z</time>
      </trkpt>
      <trkpt lat="47.54281" lon="-2.86828">
        <ele>67</ele>
        <time>2025-05-13T11:08:48Z</time>
      </trkpt>
      <trkpt lat="47.5428" lon="-2.86832">
        <ele>67</ele>
        <time>2025-05-13T11:08:49Z</time>
      </trkpt>
      <trkpt lat="47.5428" lon="-2.86837">
        <ele>67</ele>
        <time>2025-05-13T11:08:50Z</time>
      </trkpt>
      <trkpt lat="47.5428" lon="-2.86841">
        <ele>68</ele>
        <time>2025-05-13T11:08:51Z</time>
      </trkpt>
      <trkpt lat="47.54281" lon="-2.86846">
        <ele>68</ele>
        <time>2025-05-13T11:08:52Z</time>
      </trkpt>
      <trkpt lat="47.54281" lon="-2.8685">
        <ele>69</ele>
        <time>2025-05-13T11:08:53Z</time>
      </trkpt>
      <trkpt lat="47.54281" lon="-2.86855">
        <ele>69</ele>
        <time>2025-05-13T11:08:54Z</time>
      </trkpt>
      <trkpt lat="47.54281" lon="-2.86859">
        <ele>68</ele>
        <time>2025-05-13T11:08:55Z</time>
      </trkpt>
      <trkpt lat="47.54281" lon="-2.86864">
        <ele>68</ele>
        <time>2025-05-13T11:08:56Z</time>
      </trkpt>
      <trkpt lat="47.54281" lon="-2.86868">
        <ele>68</ele>
        <time>2025-05-13T11:08:57Z</time>
      </trkpt>
      <trkpt lat="47.54281" lon="-2.86873">
        <ele>68</ele>
        <time>2025-05-13T11:08:58Z</time>
      </trkpt>
      <trkpt lat="47.54281" lon="-2.86877">
        <ele>69</ele>
        <time>2025-05-13T11:08:59Z</time>
      </trkpt>
      <trkpt lat="47.54281" lon="-2.86882">
        <ele>69</ele>
        <time>2025-05-13T11:09:00Z</time>
      </trkpt>
      <trkpt lat="47.54281" lon="-2.86886">
        <ele>69</ele>
        <time>2025-05-13T11:09:01Z</time>
      </trkpt>
      <trkpt lat="47.54281" lon="-2.86891">
        <ele>69</ele>
        <time>2025-05-13T11:09:02Z</time>
      </trkpt>
      <trkpt lat="47.54281" lon="-2.86896">
        <ele>69</ele>
        <time>2025-05-13T11:09:03Z</time>
      </trkpt>
      <trkpt lat="47.5428" lon="-2.86901">
        <ele>69</ele>
        <time>2025-05-13T11:09:04Z</time>
      </trkpt>
      <trkpt lat="47.5428" lon="-2.86906">
        <ele>69</ele>
        <time>2025-05-13T11:09:05Z</time>
      </trkpt>
      <trkpt lat="47.5428" lon="-2.86911">
        <ele>68</ele>
        <time>2025-05-13T11:09:06Z</time>
      </trkpt>
      <trkpt lat="47.5428" lon="-2.86916">
        <ele>68</ele>
        <time>2025-05-13T11:09:07Z</time>
      </trkpt>
      <trkpt lat="47.5428" lon="-2.8692">
        <ele>68</ele>
        <time>2025-05-13T11:09:08Z</time>
      </trkpt>
      <trkpt lat="47.5428" lon="-2.86925">
        <ele>68</ele>
        <time>2025-05-13T11:09:09Z</time>
      </trkpt>
      <trkpt lat="47.5428" lon="-2.86929">
        <ele>68</ele>
        <time>2025-05-13T11:09:10Z</time>
      </trkpt>
      <trkpt lat="47.5428" lon="-2.86934">
        <ele>68</ele>
        <time>2025-05-13T11:09:11Z</time>
      </trkpt>
      <trkpt lat="47.5428" lon="-2.86939">
        <ele>67</ele>
        <time>2025-05-13T11:09:12Z</time>
      </trkpt>
      <trkpt lat="47.5428" lon="-2.86944">
        <ele>67</ele>
        <time>2025-05-13T11:09:13Z</time>
      </trkpt>
      <trkpt lat="47.5428" lon="-2.86948">
        <ele>67</ele>
        <time>2025-05-13T11:09:14Z</time>
      </trkpt>
      <trkpt lat="47.5428" lon="-2.86953">
        <ele>67</ele>
        <time>2025-05-13T11:09:15Z</time>
      </trkpt>
      <trkpt lat="47.5428" lon="-2.86957">
        <ele>67</ele>
        <time>2025-05-13T11:09:16Z</time>
      </trkpt>
      <trkpt lat="47.54281" lon="-2.86962">
        <ele>67</ele>
        <time>2025-05-13T11:09:17Z</time>
      </trkpt>
      <trkpt lat="47.54281" lon="-2.86967">
        <ele>67</ele>
        <time>2025-05-13T11:09:18Z</time>
      </trkpt>
      <trkpt lat="47.54281" lon="-2.86971">
        <ele>67</ele>
        <time>2025-05-13T11:09:19Z</time>
      </trkpt>
      <trkpt lat="47.54281" lon="-2.86976">
        <ele>66</ele>
        <time>2025-05-13T11:09:20Z</time>
      </trkpt>
      <trkpt lat="47.54281" lon="-2.86981">
        <ele>66</ele>
        <time>2025-05-13T11:09:21Z</time>
      </trkpt>
      <trkpt lat="47.54281" lon="-2.86986">
        <ele>66</ele>
        <time>2025-05-13T11:09:22Z</time>
      </trkpt>
      <trkpt lat="47.54281" lon="-2.86991">
        <ele>67</ele>
        <time>2025-05-13T11:09:23Z</time>
      </trkpt>
      <trkpt lat="47.54281" lon="-2.86996">
        <ele>68</ele>
        <time>2025-05-13T11:09:24Z</time>
      </trkpt>
      <trkpt lat="47.54281" lon="-2.87001">
        <ele>68</ele>
        <time>2025-05-13T11:09:25Z</time>
      </trkpt>
      <trkpt lat="47.54281" lon="-2.87006">
        <ele>68</ele>
        <time>2025-05-13T11:09:26Z</time>
      </trkpt>
      <trkpt lat="47.54281" lon="-2.87011">
        <ele>68</ele>
        <time>2025-05-13T11:09:27Z</time>
      </trkpt>
      <trkpt lat="47.54281" lon="-2.87016">
        <ele>68</ele>
        <time>2025-05-13T11:09:28Z</time>
      </trkpt>
      <trkpt lat="47.5428" lon="-2.87021">
        <ele>68</ele>
        <time>2025-05-13T11:09:29Z</time>
      </trkpt>
      <trkpt lat="47.5428" lon="-2.87025">
        <ele>68</ele>
        <time>2025-05-13T11:09:30Z</time>
      </trkpt>
      <trkpt lat="47.5428" lon="-2.87031">
        <ele>68</ele>
        <time>2025-05-13T11:09:31Z</time>
      </trkpt>
      <trkpt lat="47.54281" lon="-2.87036">
        <ele>68</ele>
        <time>2025-05-13T11:09:32Z</time>
      </trkpt>
      <trkpt lat="47.5428" lon="-2.87041">
        <ele>68</ele>
        <time>2025-05-13T11:09:33Z</time>
      </trkpt>
      <trkpt lat="47.5428" lon="-2.87046">
        <ele>68</ele>
        <time>2025-05-13T11:09:34Z</time>
      </trkpt>
      <trkpt lat="47.5428" lon="-2.87051">
        <ele>68</ele>
        <time>2025-05-13T11:09:35Z</time>
      </trkpt>
      <trkpt lat="47.5428" lon="-2.87056">
        <ele>68</ele>
        <time>2025-05-13T11:09:36Z</time>
      </trkpt>
      <trkpt lat="47.5428" lon="-2.87061">
        <ele>68</ele>
        <time>2025-05-13T11:09:37Z</time>
      </trkpt>
      <trkpt lat="47.5428" lon="-2.87066">
        <ele>68</ele>
        <time>2025-05-13T11:09:38Z</time>
      </trkpt>
      <trkpt lat="47.5428" lon="-2.87072">
        <ele>67</ele>
        <time>2025-05-13T11:09:39Z</time>
      </trkpt>
      <trkpt lat="47.5428" lon="-2.87077">
        <ele>68</ele>
        <time>2025-05-13T11:09:40Z</time>
      </trkpt>
      <trkpt lat="47.5428" lon="-2.87082">
        <ele>68</ele>
        <time>2025-05-13T11:09:41Z</time>
      </trkpt>
      <trkpt lat="47.5428" lon="-2.87087">
        <ele>67</ele>
        <time>2025-05-13T11:09:42Z</time>
      </trkpt>
      <trkpt lat="47.54281" lon="-2.87092">
        <ele>68</ele>
        <time>2025-05-13T11:09:43Z</time>
      </trkpt>
      <trkpt lat="47.54281" lon="-2.87097">
        <ele>68</ele>
        <time>2025-05-13T11:09:44Z</time>
      </trkpt>
      <trkpt lat="47.54281" lon="-2.87102">
        <ele>69</ele>
        <time>2025-05-13T11:09:45Z</time>
      </trkpt>
      <trkpt lat="47.54281" lon="-2.87107">
        <ele>69</ele>
        <time>2025-05-13T11:09:46Z</time>
      </trkpt>
      <trkpt lat="47.54281" lon="-2.87113">
        <ele>69</ele>
        <time>2025-05-13T11:09:47Z</time>
      </trkpt>
      <trkpt lat="47.54281" lon="-2.87118">
        <ele>69</ele>
        <time>2025-05-13T11:09:48Z</time>
      </trkpt>
      <trkpt lat="47.54281" lon="-2.87124">
        <ele>69</ele>
        <time>2025-05-13T11:09:49Z</time>
      </trkpt>
      <trkpt lat="47.54281" lon="-2.8713">
        <ele>69</ele>
        <time>2025-05-13T11:09:50Z</time>
      </trkpt>
      <trkpt lat="47.54281" lon="-2.87135">
        <ele>69</ele>
        <time>2025-05-13T11:09:51Z</time>
      </trkpt>
      <trkpt lat="47.54281" lon="-2.8714">
        <ele>69</ele>
        <time>2025-05-13T11:09:52Z</time>
      </trkpt>
      <trkpt lat="47.54282" lon="-2.87146">
        <ele>70</ele>
        <time>2025-05-13T11:09:53Z</time>
      </trkpt>
      <trkpt lat="47.54282" lon="-2.87151">
        <ele>69</ele>
        <time>2025-05-13T11:09:54Z</time>
      </trkpt>
      <trkpt lat="47.54282" lon="-2.87157">
        <ele>69</ele>
        <time>2025-05-13T11:09:55Z</time>
      </trkpt>
      <trkpt lat="47.54283" lon="-2.87162">
        <ele>69</ele>
        <time>2025-05-13T11:09:56Z</time>
      </trkpt>
      <trkpt lat="47.54282" lon="-2.87167">
        <ele>69</ele>
        <time>2025-05-13T11:09:57Z</time>
      </trkpt>
      <trkpt lat="47.54282" lon="-2.87173">
        <ele>69</ele>
        <time>2025-05-13T11:09:58Z</time>
      </trkpt>
      <trkpt lat="47.54282" lon="-2.87179">
        <ele>69</ele>
        <time>2025-05-13T11:09:59Z</time>
      </trkpt>
      <trkpt lat="47.54282" lon="-2.87184">
        <ele>68</ele>
        <time>2025-05-13T11:10:00Z</time>
      </trkpt>
      <trkpt lat="47.54282" lon="-2.8719">
        <ele>68</ele>
        <time>2025-05-13T11:10:01Z</time>
      </trkpt>
      <trkpt lat="47.54282" lon="-2.87195">
        <ele>67</ele>
        <time>2025-05-13T11:10:02Z</time>
      </trkpt>
      <trkpt lat="47.54282" lon="-2.87201">
        <ele>67</ele>
        <time>2025-05-13T11:10:03Z</time>
      </trkpt>
      <trkpt lat="47.54281" lon="-2.87207">
        <ele>67</ele>
        <time>2025-05-13T11:10:04Z</time>
      </trkpt>
      <trkpt lat="47.54282" lon="-2.87214">
        <ele>67</ele>
        <time>2025-05-13T11:10:05Z</time>
      </trkpt>
      <trkpt lat="47.54281" lon="-2.8722">
        <ele>67</ele>
        <time>2025-05-13T11:10:06Z</time>
      </trkpt>
      <trkpt lat="47.54281" lon="-2.87227">
        <ele>67</ele>
        <time>2025-05-13T11:10:07Z</time>
      </trkpt>
      <trkpt lat="47.54281" lon="-2.87233">
        <ele>67</ele>
        <time>2025-05-13T11:10:08Z</time>
      </trkpt>
      <trkpt lat="47.54281" lon="-2.8724">
        <ele>67</ele>
        <time>2025-05-13T11:10:09Z</time>
      </trkpt>
      <trkpt lat="47.54282" lon="-2.87247">
        <ele>67</ele>
        <time>2025-05-13T11:10:10Z</time>
      </trkpt>
      <trkpt lat="47.54282" lon="-2.87254">
        <ele>67</ele>
        <time>2025-05-13T11:10:11Z</time>
      </trkpt>
      <trkpt lat="47.54282" lon="-2.87261">
        <ele>67</ele>
        <time>2025-05-13T11:10:12Z</time>
      </trkpt>
      <trkpt lat="47.54283" lon="-2.87268">
        <ele>67</ele>
        <time>2025-05-13T11:10:13Z</time>
      </trkpt>
      <trkpt lat="47.54283" lon="-2.87275">
        <ele>67</ele>
        <time>2025-05-13T11:10:14Z</time>
      </trkpt>
      <trkpt lat="47.54283" lon="-2.87282">
        <ele>67</ele>
        <time>2025-05-13T11:10:15Z</time>
      </trkpt>
      <trkpt lat="47.54283" lon="-2.87288">
        <ele>66</ele>
        <time>2025-05-13T11:10:16Z</time>
      </trkpt>
      <trkpt lat="47.54283" lon="-2.87295">
        <ele>66</ele>
        <time>2025-05-13T11:10:17Z</time>
      </trkpt>
      <trkpt lat="47.54283" lon="-2.87301">
        <ele>66</ele>
        <time>2025-05-13T11:10:18Z</time>
      </trkpt>
      <trkpt lat="47.54284" lon="-2.87307">
        <ele>65</ele>
        <time>2025-05-13T11:10:19Z</time>
      </trkpt>
      <trkpt lat="47.54285" lon="-2.87314">
        <ele>65</ele>
        <time>2025-05-13T11:10:20Z</time>
      </trkpt>
      <trkpt lat="47.54286" lon="-2.87321">
        <ele>65</ele>
        <time>2025-05-13T11:10:21Z</time>
      </trkpt>
      <trkpt lat="47.54287" lon="-2.87328">
        <ele>65</ele>
        <time>2025-05-13T11:10:22Z</time>
      </trkpt>
      <trkpt lat="47.54288" lon="-2.87335">
        <ele>64</ele>
        <time>2025-05-13T11:10:23Z</time>
      </trkpt>
      <trkpt lat="47.54289" lon="-2.87342">
        <ele>64</ele>
        <time>2025-05-13T11:10:24Z</time>
      </trkpt>
      <trkpt lat="47.5429" lon="-2.8735">
        <ele>64</ele>
        <time>2025-05-13T11:10:25Z</time>
      </trkpt>
      <trkpt lat="47.54292" lon="-2.87356">
        <ele>64</ele>
        <time>2025-05-13T11:10:26Z</time>
      </trkpt>
      <trkpt lat="47.54293" lon="-2.87362">
        <ele>63</ele>
        <time>2025-05-13T11:10:27Z</time>
      </trkpt>
      <trkpt lat="47.54294" lon="-2.87368">
        <ele>63</ele>
        <time>2025-05-13T11:10:28Z</time>
      </trkpt>
      <trkpt lat="47.54295" lon="-2.87375">
        <ele>63</ele>
        <time>2025-05-13T11:10:29Z</time>
      </trkpt>
      <trkpt lat="47.54297" lon="-2.87383">
        <ele>63</ele>
        <time>2025-05-13T11:10:30Z</time>
      </trkpt>
      <trkpt lat="47.54298" lon="-2.87389">
        <ele>63</ele>
        <time>2025-05-13T11:10:31Z</time>
      </trkpt>
      <trkpt lat="47.543" lon="-2.87396">
        <ele>63</ele>
        <time>2025-05-13T11:10:32Z</time>
      </trkpt>
      <trkpt lat="47.54302" lon="-2.87402">
        <ele>63</ele>
        <time>2025-05-13T11:10:33Z</time>
      </trkpt>
      <trkpt lat="47.54304" lon="-2.87409">
        <ele>64</ele>
        <time>2025-05-13T11:10:34Z</time>
      </trkpt>
      <trkpt lat="47.54306" lon="-2.87415">
        <ele>64</ele>
        <time>2025-05-13T11:10:35Z</time>
      </trkpt>
      <trkpt lat="47.54308" lon="-2.87421">
        <ele>64</ele>
        <time>2025-05-13T11:10:36Z</time>
      </trkpt>
      <trkpt lat="47.5431" lon="-2.87428">
        <ele>64</ele>
        <time>2025-05-13T11:10:37Z</time>
      </trkpt>
      <trkpt lat="47.54313" lon="-2.87434">
        <ele>63</ele>
        <time>2025-05-13T11:10:38Z</time>
      </trkpt>
      <trkpt lat="47.54315" lon="-2.8744">
        <ele>63</ele>
        <time>2025-05-13T11:10:39Z</time>
      </trkpt>
      <trkpt lat="47.54317" lon="-2.87447">
        <ele>63</ele>
        <time>2025-05-13T11:10:40Z</time>
      </trkpt>
      <trkpt lat="47.54319" lon="-2.87453">
        <ele>63</ele>
        <time>2025-05-13T11:10:41Z</time>
      </trkpt>
      <trkpt lat="47.54321" lon="-2.87458">
        <ele>63</ele>
        <time>2025-05-13T11:10:42Z</time>
      </trkpt>
      <trkpt lat="47.54323" lon="-2.87464">
        <ele>63</ele>
        <time>2025-05-13T11:10:43Z</time>
      </trkpt>
      <trkpt lat="47.54325" lon="-2.8747">
        <ele>63</ele>
        <time>2025-05-13T11:10:44Z</time>
      </trkpt>
      <trkpt lat="47.54327" lon="-2.87475">
        <ele>64</ele>
        <time>2025-05-13T11:10:45Z</time>
      </trkpt>
      <trkpt lat="47.54329" lon="-2.8748">
        <ele>64</ele>
        <time>2025-05-13T11:10:46Z</time>
      </trkpt>
      <trkpt lat="47.54332" lon="-2.87485">
        <ele>65</ele>
        <time>2025-05-13T11:10:47Z</time>
      </trkpt>
      <trkpt lat="47.54334" lon="-2.8749">
        <ele>65</ele>
        <time>2025-05-13T11:10:48Z</time>
      </trkpt>
      <trkpt lat="47.54336" lon="-2.87494">
        <ele>66</ele>
        <time>2025-05-13T11:10:49Z</time>
      </trkpt>
      <trkpt lat="47.54339" lon="-2.87499">
        <ele>66</ele>
        <time>2025-05-13T11:10:50Z</time>
      </trkpt>
      <trkpt lat="47.54341" lon="-2.87504">
        <ele>66</ele>
        <time>2025-05-13T11:10:51Z</time>
      </trkpt>
      <trkpt lat="47.54344" lon="-2.87508">
        <ele>67</ele>
        <time>2025-05-13T11:10:52Z</time>
      </trkpt>
      <trkpt lat="47.54346" lon="-2.87512">
        <ele>67</ele>
        <time>2025-05-13T11:10:53Z</time>
      </trkpt>
      <trkpt lat="47.54349" lon="-2.87516">
        <ele>67</ele>
        <time>2025-05-13T11:10:54Z</time>
      </trkpt>
      <trkpt lat="47.54352" lon="-2.8752">
        <ele>67</ele>
        <time>2025-05-13T11:10:55Z</time>
      </trkpt>
      <trkpt lat="47.54354" lon="-2.87524">
        <ele>67</ele>
        <time>2025-05-13T11:10:56Z</time>
      </trkpt>
      <trkpt lat="47.54356" lon="-2.87528">
        <ele>67</ele>
        <time>2025-05-13T11:10:57Z</time>
      </trkpt>
      <trkpt lat="47.54358" lon="-2.87531">
        <ele>67</ele>
        <time>2025-05-13T11:10:58Z</time>
      </trkpt>
      <trkpt lat="47.5436" lon="-2.87535">
        <ele>67</ele>
        <time>2025-05-13T11:10:59Z</time>
      </trkpt>
      <trkpt lat="47.54363" lon="-2.87538">
        <ele>66</ele>
        <time>2025-05-13T11:11:00Z</time>
      </trkpt>
      <trkpt lat="47.54365" lon="-2.87541">
        <ele>66</ele>
        <time>2025-05-13T11:11:01Z</time>
      </trkpt>
      <trkpt lat="47.54368" lon="-2.87544">
        <ele>66</ele>
        <time>2025-05-13T11:11:02Z</time>
      </trkpt>
      <trkpt lat="47.5437" lon="-2.87547">
        <ele>66</ele>
        <time>2025-05-13T11:11:03Z</time>
      </trkpt>
      <trkpt lat="47.54371" lon="-2.87551">
        <ele>66</ele>
        <time>2025-05-13T11:11:04Z</time>
      </trkpt>
      <trkpt lat="47.54372" lon="-2.87554">
        <ele>67</ele>
        <time>2025-05-13T11:11:05Z</time>
      </trkpt>
      <trkpt lat="47.54371" lon="-2.87557">
        <ele>66</ele>
        <time>2025-05-13T11:11:06Z</time>
      </trkpt>
      <trkpt lat="47.5437" lon="-2.87561">
        <ele>67</ele>
        <time>2025-05-13T11:11:07Z</time>
      </trkpt>
      <trkpt lat="47.54369" lon="-2.87564">
        <ele>67</ele>
        <time>2025-05-13T11:11:08Z</time>
      </trkpt>
      <trkpt lat="47.54368" lon="-2.87567">
        <ele>68</ele>
        <time>2025-05-13T11:11:09Z</time>
      </trkpt>
      <trkpt lat="47.54367" lon="-2.87571">
        <ele>68</ele>
        <time>2025-05-13T11:11:10Z</time>
      </trkpt>
      <trkpt lat="47.54367" lon="-2.87574">
        <ele>68</ele>
        <time>2025-05-13T11:11:11Z</time>
      </trkpt>
      <trkpt lat="47.54366" lon="-2.87578">
        <ele>68</ele>
        <time>2025-05-13T11:11:12Z</time>
      </trkpt>
      <trkpt lat="47.54365" lon="-2.87582">
        <ele>68</ele>
        <time>2025-05-13T11:11:13Z</time>
      </trkpt>
      <trkpt lat="47.54364" lon="-2.87586">
        <ele>68</ele>
        <time>2025-05-13T11:11:14Z</time>
      </trkpt>
      <trkpt lat="47.54364" lon="-2.8759">
        <ele>67</ele>
        <time>2025-05-13T11:11:15Z</time>
      </trkpt>
      <trkpt lat="47.54363" lon="-2.87593">
        <ele>68</ele>
        <time>2025-05-13T11:11:16Z</time>
      </trkpt>
      <trkpt lat="47.54363" lon="-2.87596">
        <ele>68</ele>
        <time>2025-05-13T11:11:17Z</time>
      </trkpt>
      <trkpt lat="47.54362" lon="-2.876">
        <ele>68</ele>
        <time>2025-05-13T11:11:18Z</time>
      </trkpt>
      <trkpt lat="47.54361" lon="-2.87604">
        <ele>68</ele>
        <time>2025-05-13T11:11:19Z</time>
      </trkpt>
      <trkpt lat="47.5436" lon="-2.87609">
        <ele>68</ele>
        <time>2025-05-13T11:11:20Z</time>
      </trkpt>
      <trkpt lat="47.54359" lon="-2.87614">
        <ele>68</ele>
        <time>2025-05-13T11:11:21Z</time>
      </trkpt>
      <trkpt lat="47.54359" lon="-2.87618">
        <ele>67</ele>
        <time>2025-05-13T11:11:22Z</time>
      </trkpt>
      <trkpt lat="47.54358" lon="-2.87622">
        <ele>67</ele>
        <time>2025-05-13T11:11:23Z</time>
      </trkpt>
      <trkpt lat="47.54357" lon="-2.87626">
        <ele>67</ele>
        <time>2025-05-13T11:11:24Z</time>
      </trkpt>
      <trkpt lat="47.54357" lon="-2.87631">
        <ele>66</ele>
        <time>2025-05-13T11:11:25Z</time>
      </trkpt>
      <trkpt lat="47.54356" lon="-2.87636">
        <ele>66</ele>
        <time>2025-05-13T11:11:26Z</time>
      </trkpt>
      <trkpt lat="47.54355" lon="-2.8764">
        <ele>66</ele>
        <time>2025-05-13T11:11:27Z</time>
      </trkpt>
      <trkpt lat="47.54354" lon="-2.87645">
        <ele>66</ele>
        <time>2025-05-13T11:11:28Z</time>
      </trkpt>
      <trkpt lat="47.54354" lon="-2.87649">
        <ele>67</ele>
        <time>2025-05-13T11:11:29Z</time>
      </trkpt>
      <trkpt lat="47.54353" lon="-2.87654">
        <ele>67</ele>
        <time>2025-05-13T11:11:30Z</time>
      </trkpt>
      <trkpt lat="47.54352" lon="-2.87658">
        <ele>67</ele>
        <time>2025-05-13T11:11:31Z</time>
      </trkpt>
      <trkpt lat="47.54351" lon="-2.87663">
        <ele>67</ele>
        <time>2025-05-13T11:11:32Z</time>
      </trkpt>
      <trkpt lat="47.5435" lon="-2.87667">
        <ele>67</ele>
        <time>2025-05-13T11:11:33Z</time>
      </trkpt>
      <trkpt lat="47.54349" lon="-2.87671">
        <ele>67</ele>
        <time>2025-05-13T11:11:34Z</time>
      </trkpt>
      <trkpt lat="47.54348" lon="-2.87675">
        <ele>67</ele>
        <time>2025-05-13T11:11:35Z</time>
      </trkpt>
      <trkpt lat="47.54347" lon="-2.87678">
        <ele>67</ele>
        <time>2025-05-13T11:11:36Z</time>
      </trkpt>
      <trkpt lat="47.54347" lon="-2.87682">
        <ele>67</ele>
        <time>2025-05-13T11:11:37Z</time>
      </trkpt>
      <trkpt lat="47.54346" lon="-2.87686">
        <ele>67</ele>
        <time>2025-05-13T11:11:38Z</time>
      </trkpt>
      <trkpt lat="47.54346" lon="-2.8769">
        <ele>68</ele>
        <time>2025-05-13T11:11:39Z</time>
      </trkpt>
      <trkpt lat="47.54345" lon="-2.87694">
        <ele>68</ele>
        <time>2025-05-13T11:11:40Z</time>
      </trkpt>
      <trkpt lat="47.54345" lon="-2.87697">
        <ele>68</ele>
        <time>2025-05-13T11:11:41Z</time>
      </trkpt>
      <trkpt lat="47.54345" lon="-2.877">
        <ele>68</ele>
        <time>2025-05-13T11:11:42Z</time>
      </trkpt>
      <trkpt lat="47.54344" lon="-2.87703">
        <ele>69</ele>
        <time>2025-05-13T11:11:43Z</time>
      </trkpt>
      <trkpt lat="47.54344" lon="-2.87706">
        <ele>69</ele>
        <time>2025-05-13T11:11:44Z</time>
      </trkpt>
      <trkpt lat="47.54345" lon="-2.87708">
        <ele>68</ele>
        <time>2025-05-13T11:11:45Z</time>
      </trkpt>
      <trkpt lat="47.54345" lon="-2.8771">
        <ele>69</ele>
        <time>2025-05-13T11:11:46Z</time>
      </trkpt>
      <trkpt lat="47.54344" lon="-2.87712">
        <ele>69</ele>
        <time>2025-05-13T11:11:47Z</time>
      </trkpt>
      <trkpt lat="47.54344" lon="-2.87714">
        <ele>69</ele>
        <time>2025-05-13T11:11:48Z</time>
      </trkpt>
      <trkpt lat="47.54343" lon="-2.87716">
        <ele>69</ele>
        <time>2025-05-13T11:11:49Z</time>
      </trkpt>
      <trkpt lat="47.54341" lon="-2.87719">
        <ele>69</ele>
        <time>2025-05-13T11:11:50Z</time>
      </trkpt>
      <trkpt lat="47.54338" lon="-2.8772">
        <ele>69</ele>
        <time>2025-05-13T11:11:51Z</time>
      </trkpt>
      <trkpt lat="47.54336" lon="-2.87722">
        <ele>69</ele>
        <time>2025-05-13T11:11:52Z</time>
      </trkpt>
      <trkpt lat="47.54333" lon="-2.87723">
        <ele>70</ele>
        <time>2025-05-13T11:11:53Z</time>
      </trkpt>
      <trkpt lat="47.5433" lon="-2.87725">
        <ele>70</ele>
        <time>2025-05-13T11:11:54Z</time>
      </trkpt>
      <trkpt lat="47.54327" lon="-2.87727">
        <ele>70</ele>
        <time>2025-05-13T11:11:55Z</time>
      </trkpt>
      <trkpt lat="47.54324" lon="-2.87728">
        <ele>70</ele>
        <time>2025-05-13T11:11:56Z</time>
      </trkpt>
      <trkpt lat="47.54321" lon="-2.8773">
        <ele>70</ele>
        <time>2025-05-13T11:11:57Z</time>
      </trkpt>
      <trkpt lat="47.54318" lon="-2.87732">
        <ele>70</ele>
        <time>2025-05-13T11:11:58Z</time>
      </trkpt>
      <trkpt lat="47.54315" lon="-2.87734">
        <ele>70</ele>
        <time>2025-05-13T11:11:59Z</time>
      </trkpt>
      <trkpt lat="47.54312" lon="-2.87736">
        <ele>70</ele>
        <time>2025-05-13T11:12:00Z</time>
      </trkpt>
      <trkpt lat="47.54308" lon="-2.87737">
        <ele>70</ele>
        <time>2025-05-13T11:12:01Z</time>
      </trkpt>
      <trkpt lat="47.54305" lon="-2.87739">
        <ele>70</ele>
        <time>2025-05-13T11:12:02Z</time>
      </trkpt>
      <trkpt lat="47.54302" lon="-2.87741">
        <ele>70</ele>
        <time>2025-05-13T11:12:03Z</time>
      </trkpt>
      <trkpt lat="47.54298" lon="-2.87743">
        <ele>70</ele>
        <time>2025-05-13T11:12:04Z</time>
      </trkpt>
      <trkpt lat="47.54295" lon="-2.87744">
        <ele>70</ele>
        <time>2025-05-13T11:12:05Z</time>
      </trkpt>
      <trkpt lat="47.54292" lon="-2.87746">
        <ele>70</ele>
        <time>2025-05-13T11:12:06Z</time>
      </trkpt>
      <trkpt lat="47.54288" lon="-2.87749">
        <ele>70</ele>
        <time>2025-05-13T11:12:07Z</time>
      </trkpt>
      <trkpt lat="47.54285" lon="-2.87751">
        <ele>69</ele>
        <time>2025-05-13T11:12:08Z</time>
      </trkpt>
      <trkpt lat="47.54281" lon="-2.87753">
        <ele>69</ele>
        <time>2025-05-13T11:12:09Z</time>
      </trkpt>
      <trkpt lat="47.54278" lon="-2.87756">
        <ele>69</ele>
        <time>2025-05-13T11:12:10Z</time>
      </trkpt>
      <trkpt lat="47.54275" lon="-2.87759">
        <ele>69</ele>
        <time>2025-05-13T11:12:11Z</time>
      </trkpt>
      <trkpt lat="47.54271" lon="-2.87762">
        <ele>69</ele>
        <time>2025-05-13T11:12:12Z</time>
      </trkpt>
      <trkpt lat="47.54268" lon="-2.87764">
        <ele>69</ele>
        <time>2025-05-13T11:12:13Z</time>
      </trkpt>
      <trkpt lat="47.54265" lon="-2.87767">
        <ele>69</ele>
        <time>2025-05-13T11:12:14Z</time>
      </trkpt>
      <trkpt lat="47.54261" lon="-2.87769">
        <ele>69</ele>
        <time>2025-05-13T11:12:15Z</time>
      </trkpt>
      <trkpt lat="47.54258" lon="-2.87772">
        <ele>70</ele>
        <time>2025-05-13T11:12:16Z</time>
      </trkpt>
      <trkpt lat="47.54255" lon="-2.87775">
        <ele>70</ele>
        <time>2025-05-13T11:12:17Z</time>
      </trkpt>
      <trkpt lat="47.54252" lon="-2.87778">
        <ele>69</ele>
        <time>2025-05-13T11:12:18Z</time>
      </trkpt>
      <trkpt lat="47.5425" lon="-2.87781">
        <ele>69</ele>
        <time>2025-05-13T11:12:19Z</time>
      </trkpt>
      <trkpt lat="47.54247" lon="-2.87785">
        <ele>69</ele>
        <time>2025-05-13T11:12:20Z</time>
      </trkpt>
      <trkpt lat="47.54244" lon="-2.87788">
        <ele>69</ele>
        <time>2025-05-13T11:12:21Z</time>
      </trkpt>
      <trkpt lat="47.54241" lon="-2.87792">
        <ele>69</ele>
        <time>2025-05-13T11:12:22Z</time>
      </trkpt>
      <trkpt lat="47.54239" lon="-2.87796">
        <ele>69</ele>
        <time>2025-05-13T11:12:23Z</time>
      </trkpt>
      <trkpt lat="47.54237" lon="-2.87801">
        <ele>69</ele>
        <time>2025-05-13T11:12:24Z</time>
      </trkpt>
      <trkpt lat="47.54235" lon="-2.87805">
        <ele>69</ele>
        <time>2025-05-13T11:12:25Z</time>
      </trkpt>
      <trkpt lat="47.54233" lon="-2.87809">
        <ele>69</ele>
        <time>2025-05-13T11:12:26Z</time>
      </trkpt>
      <trkpt lat="47.54231" lon="-2.87814">
        <ele>69</ele>
        <time>2025-05-13T11:12:27Z</time>
      </trkpt>
      <trkpt lat="47.54228" lon="-2.87818">
        <ele>70</ele>
        <time>2025-05-13T11:12:28Z</time>
      </trkpt>
      <trkpt lat="47.54227" lon="-2.87822">
        <ele>70</ele>
        <time>2025-05-13T11:12:29Z</time>
      </trkpt>
      <trkpt lat="47.54225" lon="-2.87826">
        <ele>69</ele>
        <time>2025-05-13T11:12:30Z</time>
      </trkpt>
      <trkpt lat="47.54222" lon="-2.87829">
        <ele>70</ele>
        <time>2025-05-13T11:12:31Z</time>
      </trkpt>
      <trkpt lat="47.54219" lon="-2.87833">
        <ele>70</ele>
        <time>2025-05-13T11:12:32Z</time>
      </trkpt>
      <trkpt lat="47.54217" lon="-2.87836">
        <ele>70</ele>
        <time>2025-05-13T11:12:33Z</time>
      </trkpt>
      <trkpt lat="47.54214" lon="-2.87839">
        <ele>71</ele>
        <time>2025-05-13T11:12:34Z</time>
      </trkpt>
      <trkpt lat="47.54211" lon="-2.87842">
        <ele>71</ele>
        <time>2025-05-13T11:12:35Z</time>
      </trkpt>
      <trkpt lat="47.54208" lon="-2.87845">
        <ele>71</ele>
        <time>2025-05-13T11:12:36Z</time>
      </trkpt>
      <trkpt lat="47.54206" lon="-2.87847">
        <ele>71</ele>
        <time>2025-05-13T11:12:37Z</time>
      </trkpt>
      <trkpt lat="47.54203" lon="-2.87849">
        <ele>71</ele>
        <time>2025-05-13T11:12:38Z</time>
      </trkpt>
      <trkpt lat="47.542" lon="-2.87852">
        <ele>72</ele>
        <time>2025-05-13T11:12:39Z</time>
      </trkpt>
      <trkpt lat="47.54198" lon="-2.87854">
        <ele>72</ele>
        <time>2025-05-13T11:12:40Z</time>
      </trkpt>
      <trkpt lat="47.54195" lon="-2.87856">
        <ele>72</ele>
        <time>2025-05-13T11:12:41Z</time>
      </trkpt>
      <trkpt lat="47.54193" lon="-2.87858">
        <ele>72</ele>
        <time>2025-05-13T11:12:42Z</time>
      </trkpt>
      <trkpt lat="47.54191" lon="-2.8786">
        <ele>72</ele>
        <time>2025-05-13T11:12:43Z</time>
      </trkpt>
      <trkpt lat="47.54188" lon="-2.87862">
        <ele>72</ele>
        <time>2025-05-13T11:12:44Z</time>
      </trkpt>
      <trkpt lat="47.54186" lon="-2.87864">
        <ele>72</ele>
        <time>2025-05-13T11:12:45Z</time>
      </trkpt>
      <trkpt lat="47.54184" lon="-2.87866">
        <ele>72</ele>
        <time>2025-05-13T11:12:46Z</time>
      </trkpt>
      <trkpt lat="47.54181" lon="-2.87868">
        <ele>73</ele>
        <time>2025-05-13T11:12:47Z</time>
      </trkpt>
      <trkpt lat="47.54178" lon="-2.8787">
        <ele>73</ele>
        <time>2025-05-13T11:12:48Z</time>
      </trkpt>
      <trkpt lat="47.54176" lon="-2.87872">
        <ele>73</ele>
        <time>2025-05-13T11:12:49Z</time>
      </trkpt>
      <trkpt lat="47.54174" lon="-2.87874">
        <ele>73</ele>
        <time>2025-05-13T11:12:50Z</time>
      </trkpt>
      <trkpt lat="47.54171" lon="-2.87876">
        <ele>73</ele>
        <time>2025-05-13T11:12:51Z</time>
      </trkpt>
      <trkpt lat="47.54169" lon="-2.87878">
        <ele>73</ele>
        <time>2025-05-13T11:12:52Z</time>
      </trkpt>
      <trkpt lat="47.54166" lon="-2.8788">
        <ele>73</ele>
        <time>2025-05-13T11:12:53Z</time>
      </trkpt>
      <trkpt lat="47.54163" lon="-2.87882">
        <ele>72</ele>
        <time>2025-05-13T11:12:54Z</time>
      </trkpt>
      <trkpt lat="47.54161" lon="-2.87883">
        <ele>72</ele>
        <time>2025-05-13T11:12:55Z</time>
      </trkpt>
      <trkpt lat="47.54158" lon="-2.87885">
        <ele>72</ele>
        <time>2025-05-13T11:12:56Z</time>
      </trkpt>
      <trkpt lat="47.54156" lon="-2.87886">
        <ele>72</ele>
        <time>2025-05-13T11:12:57Z</time>
      </trkpt>
      <trkpt lat="47.54153" lon="-2.87887">
        <ele>73</ele>
        <time>2025-05-13T11:12:58Z</time>
      </trkpt>
      <trkpt lat="47.5415" lon="-2.87889">
        <ele>73</ele>
        <time>2025-05-13T11:12:59Z</time>
      </trkpt>
      <trkpt lat="47.54148" lon="-2.87891">
        <ele>73</ele>
        <time>2025-05-13T11:13:00Z</time>
      </trkpt>
      <trkpt lat="47.54145" lon="-2.87893">
        <ele>73</ele>
        <time>2025-05-13T11:13:01Z</time>
      </trkpt>
      <trkpt lat="47.54143" lon="-2.87894">
        <ele>73</ele>
        <time>2025-05-13T11:13:02Z</time>
      </trkpt>
      <trkpt lat="47.54141" lon="-2.87897">
        <ele>72</ele>
        <time>2025-05-13T11:13:03Z</time>
      </trkpt>
      <trkpt lat="47.54139" lon="-2.87899">
        <ele>72</ele>
        <time>2025-05-13T11:13:04Z</time>
      </trkpt>
      <trkpt lat="47.54138" lon="-2.87902">
        <ele>72</ele>
        <time>2025-05-13T11:13:05Z</time>
      </trkpt>
      <trkpt lat="47.54138" lon="-2.87906">
        <ele>72</ele>
        <time>2025-05-13T11:13:06Z</time>
      </trkpt>
      <trkpt lat="47.54137" lon="-2.87909">
        <ele>71</ele>
        <time>2025-05-13T11:13:07Z</time>
      </trkpt>
      <trkpt lat="47.54137" lon="-2.87913">
        <ele>71</ele>
        <time>2025-05-13T11:13:08Z</time>
      </trkpt>
      <trkpt lat="47.54136" lon="-2.87918">
        <ele>71</ele>
        <time>2025-05-13T11:13:09Z</time>
      </trkpt>
      <trkpt lat="47.54137" lon="-2.87922">
        <ele>71</ele>
        <time>2025-05-13T11:13:10Z</time>
      </trkpt>
      <trkpt lat="47.54137" lon="-2.87926">
        <ele>71</ele>
        <time>2025-05-13T11:13:11Z</time>
      </trkpt>
      <trkpt lat="47.54138" lon="-2.87931">
        <ele>71</ele>
        <time>2025-05-13T11:13:12Z</time>
      </trkpt>
      <trkpt lat="47.54139" lon="-2.87936">
        <ele>71</ele>
        <time>2025-05-13T11:13:13Z</time>
      </trkpt>
      <trkpt lat="47.54141" lon="-2.8794">
        <ele>71</ele>
        <time>2025-05-13T11:13:14Z</time>
      </trkpt>
      <trkpt lat="47.54142" lon="-2.87944">
        <ele>71</ele>
        <time>2025-05-13T11:13:15Z</time>
      </trkpt>
      <trkpt lat="47.54144" lon="-2.87947">
        <ele>71</ele>
        <time>2025-05-13T11:13:16Z</time>
      </trkpt>
      <trkpt lat="47.54146" lon="-2.8795">
        <ele>71</ele>
        <time>2025-05-13T11:13:17Z</time>
      </trkpt>
      <trkpt lat="47.54147" lon="-2.87953">
        <ele>72</ele>
        <time>2025-05-13T11:13:18Z</time>
      </trkpt>
      <trkpt lat="47.54148" lon="-2.87955">
        <ele>72</ele>
        <time>2025-05-13T11:13:19Z</time>
      </trkpt>
      <trkpt lat="47.5415" lon="-2.87959">
        <ele>72</ele>
        <time>2025-05-13T11:13:20Z</time>
      </trkpt>
      <trkpt lat="47.54152" lon="-2.87962">
        <ele>73</ele>
        <time>2025-05-13T11:13:21Z</time>
      </trkpt>
      <trkpt lat="47.54153" lon="-2.87965">
        <ele>73</ele>
        <time>2025-05-13T11:13:22Z</time>
      </trkpt>
      <trkpt lat="47.54154" lon="-2.87968">
        <ele>73</ele>
        <time>2025-05-13T11:13:23Z</time>
      </trkpt>
      <trkpt lat="47.54156" lon="-2.87972">
        <ele>73</ele>
        <time>2025-05-13T11:13:24Z</time>
      </trkpt>
      <trkpt lat="47.54157" lon="-2.87975">
        <ele>73</ele>
        <time>2025-05-13T11:13:25Z</time>
      </trkpt>
      <trkpt lat="47.54157" lon="-2.87978">
        <ele>73</ele>
        <time>2025-05-13T11:13:26Z</time>
      </trkpt>
      <trkpt lat="47.54157" lon="-2.87981">
        <ele>73</ele>
        <time>2025-05-13T11:13:27Z</time>
      </trkpt>
      <trkpt lat="47.54155" lon="-2.87984">
        <ele>73</ele>
        <time>2025-05-13T11:13:28Z</time>
      </trkpt>
      <trkpt lat="47.54153" lon="-2.87986">
        <ele>73</ele>
        <time>2025-05-13T11:13:29Z</time>
      </trkpt>
      <trkpt lat="47.54152" lon="-2.87989">
        <ele>73</ele>
        <time>2025-05-13T11:13:30Z</time>
      </trkpt>
      <trkpt lat="47.54152" lon="-2.87994">
        <ele>73</ele>
        <time>2025-05-13T11:13:31Z</time>
      </trkpt>
      <trkpt lat="47.54153" lon="-2.87998">
        <ele>73</ele>
        <time>2025-05-13T11:13:32Z</time>
      </trkpt>
      <trkpt lat="47.54156" lon="-2.88001">
        <ele>73</ele>
        <time>2025-05-13T11:13:33Z</time>
      </trkpt>
      <trkpt lat="47.54159" lon="-2.88004">
        <ele>74</ele>
        <time>2025-05-13T11:13:34Z</time>
      </trkpt>
      <trkpt lat="47.54162" lon="-2.88008">
        <ele>74</ele>
        <time>2025-05-13T11:13:35Z</time>
      </trkpt>
      <trkpt lat="47.54164" lon="-2.88012">
        <ele>74</ele>
        <time>2025-05-13T11:13:36Z</time>
      </trkpt>
      <trkpt lat="47.54166" lon="-2.88016">
        <ele>74</ele>
        <time>2025-05-13T11:13:37Z</time>
      </trkpt>
      <trkpt lat="47.54168" lon="-2.8802">
        <ele>74</ele>
        <time>2025-05-13T11:13:38Z</time>
      </trkpt>
      <trkpt lat="47.5417" lon="-2.88024">
        <ele>74</ele>
        <time>2025-05-13T11:13:39Z</time>
      </trkpt>
      <trkpt lat="47.54172" lon="-2.88028">
        <ele>74</ele>
        <time>2025-05-13T11:13:40Z</time>
      </trkpt>
      <trkpt lat="47.54175" lon="-2.88032">
        <ele>74</ele>
        <time>2025-05-13T11:13:41Z</time>
      </trkpt>
      <trkpt lat="47.54177" lon="-2.88037">
        <ele>74</ele>
        <time>2025-05-13T11:13:42Z</time>
      </trkpt>
      <trkpt lat="47.54179" lon="-2.88042">
        <ele>74</ele>
        <time>2025-05-13T11:13:43Z</time>
      </trkpt>
      <trkpt lat="47.54181" lon="-2.88047">
        <ele>74</ele>
        <time>2025-05-13T11:13:44Z</time>
      </trkpt>
      <trkpt lat="47.54183" lon="-2.88051">
        <ele>74</ele>
        <time>2025-05-13T11:13:45Z</time>
      </trkpt>
      <trkpt lat="47.54185" lon="-2.88055">
        <ele>74</ele>
        <time>2025-05-13T11:13:46Z</time>
      </trkpt>
      <trkpt lat="47.54187" lon="-2.8806">
        <ele>74</ele>
        <time>2025-05-13T11:13:47Z</time>
      </trkpt>
      <trkpt lat="47.5419" lon="-2.88065">
        <ele>74</ele>
        <time>2025-05-13T11:13:48Z</time>
      </trkpt>
      <trkpt lat="47.54192" lon="-2.88069">
        <ele>74</ele>
        <time>2025-05-13T11:13:49Z</time>
      </trkpt>
      <trkpt lat="47.54195" lon="-2.88074">
        <ele>74</ele>
        <time>2025-05-13T11:13:50Z</time>
      </trkpt>
      <trkpt lat="47.54197" lon="-2.88079">
        <ele>74</ele>
        <time>2025-05-13T11:13:51Z</time>
      </trkpt>
      <trkpt lat="47.542" lon="-2.88083">
        <ele>73</ele>
        <time>2025-05-13T11:13:52Z</time>
      </trkpt>
      <trkpt lat="47.54203" lon="-2.88088">
        <ele>73</ele>
        <time>2025-05-13T11:13:53Z</time>
      </trkpt>
      <trkpt lat="47.54205" lon="-2.88093">
        <ele>74</ele>
        <time>2025-05-13T11:13:54Z</time>
      </trkpt>
      <trkpt lat="47.54207" lon="-2.88098">
        <ele>73</ele>
        <time>2025-05-13T11:13:55Z</time>
      </trkpt>
      <trkpt lat="47.5421" lon="-2.88103">
        <ele>73</ele>
        <time>2025-05-13T11:13:56Z</time>
      </trkpt>
      <trkpt lat="47.54212" lon="-2.88108">
        <ele>73</ele>
        <time>2025-05-13T11:13:57Z</time>
      </trkpt>
      <trkpt lat="47.54214" lon="-2.88113">
        <ele>73</ele>
        <time>2025-05-13T11:13:58Z</time>
      </trkpt>
      <trkpt lat="47.54216" lon="-2.88118">
        <ele>73</ele>
        <time>2025-05-13T11:13:59Z</time>
      </trkpt>
      <trkpt lat="47.54219" lon="-2.88123">
        <ele>73</ele>
        <time>2025-05-13T11:14:00Z</time>
      </trkpt>
      <trkpt lat="47.54222" lon="-2.88127">
        <ele>73</ele>
        <time>2025-05-13T11:14:01Z</time>
      </trkpt>
      <trkpt lat="47.54225" lon="-2.88132">
        <ele>73</ele>
        <time>2025-05-13T11:14:02Z</time>
      </trkpt>
      <trkpt lat="47.54228" lon="-2.88138">
        <ele>73</ele>
        <time>2025-05-13T11:14:03Z</time>
      </trkpt>
      <trkpt lat="47.5423" lon="-2.88143">
        <ele>73</ele>
        <time>2025-05-13T11:14:04Z</time>
      </trkpt>
      <trkpt lat="47.54233" lon="-2.88148">
        <ele>74</ele>
        <time>2025-05-13T11:14:05Z</time>
      </trkpt>
      <trkpt lat="47.54236" lon="-2.88153">
        <ele>74</ele>
        <time>2025-05-13T11:14:06Z</time>
      </trkpt>
      <trkpt lat="47.54239" lon="-2.88157">
        <ele>74</ele>
        <time>2025-05-13T11:14:07Z</time>
      </trkpt>
      <trkpt lat="47.54241" lon="-2.88162">
        <ele>74</ele>
        <time>2025-05-13T11:14:08Z</time>
      </trkpt>
      <trkpt lat="47.54243" lon="-2.88167">
        <ele>74</ele>
        <time>2025-05-13T11:14:09Z</time>
      </trkpt>
      <trkpt lat="47.54246" lon="-2.88171">
        <ele>74</ele>
        <time>2025-05-13T11:14:10Z</time>
      </trkpt>
      <trkpt lat="47.54248" lon="-2.88176">
        <ele>74</ele>
        <time>2025-05-13T11:14:11Z</time>
      </trkpt>
      <trkpt lat="47.54251" lon="-2.88181">
        <ele>74</ele>
        <time>2025-05-13T11:14:12Z</time>
      </trkpt>
      <trkpt lat="47.54253" lon="-2.88186">
        <ele>75</ele>
        <time>2025-05-13T11:14:13Z</time>
      </trkpt>
      <trkpt lat="47.54256" lon="-2.8819">
        <ele>75</ele>
        <time>2025-05-13T11:14:14Z</time>
      </trkpt>
      <trkpt lat="47.54259" lon="-2.88195">
        <ele>74</ele>
        <time>2025-05-13T11:14:15Z</time>
      </trkpt>
      <trkpt lat="47.54261" lon="-2.882">
        <ele>74</ele>
        <time>2025-05-13T11:14:16Z</time>
      </trkpt>
      <trkpt lat="47.54263" lon="-2.88205">
        <ele>74</ele>
        <time>2025-05-13T11:14:17Z</time>
      </trkpt>
      <trkpt lat="47.54266" lon="-2.8821">
        <ele>73</ele>
        <time>2025-05-13T11:14:18Z</time>
      </trkpt>
      <trkpt lat="47.54268" lon="-2.88215">
        <ele>73</ele>
        <time>2025-05-13T11:14:19Z</time>
      </trkpt>
      <trkpt lat="47.54271" lon="-2.88221">
        <ele>73</ele>
        <time>2025-05-13T11:14:20Z</time>
      </trkpt>
      <trkpt lat="47.54274" lon="-2.88226">
        <ele>72</ele>
        <time>2025-05-13T11:14:21Z</time>
      </trkpt>
      <trkpt lat="47.54276" lon="-2.8823">
        <ele>72</ele>
        <time>2025-05-13T11:14:22Z</time>
      </trkpt>
      <trkpt lat="47.54278" lon="-2.88235">
        <ele>72</ele>
        <time>2025-05-13T11:14:23Z</time>
      </trkpt>
      <trkpt lat="47.54281" lon="-2.8824">
        <ele>72</ele>
        <time>2025-05-13T11:14:24Z</time>
      </trkpt>
      <trkpt lat="47.54283" lon="-2.88244">
        <ele>71</ele>
        <time>2025-05-13T11:14:25Z</time>
      </trkpt>
      <trkpt lat="47.54285" lon="-2.88249">
        <ele>71</ele>
        <time>2025-05-13T11:14:26Z</time>
      </trkpt>
      <trkpt lat="47.54288" lon="-2.88254">
        <ele>71</ele>
        <time>2025-05-13T11:14:27Z</time>
      </trkpt>
      <trkpt lat="47.5429" lon="-2.88259">
        <ele>71</ele>
        <time>2025-05-13T11:14:28Z</time>
      </trkpt>
      <trkpt lat="47.54293" lon="-2.88264">
        <ele>71</ele>
        <time>2025-05-13T11:14:29Z</time>
      </trkpt>
      <trkpt lat="47.54295" lon="-2.88269">
        <ele>71</ele>
        <time>2025-05-13T11:14:30Z</time>
      </trkpt>
      <trkpt lat="47.54298" lon="-2.88274">
        <ele>71</ele>
        <time>2025-05-13T11:14:31Z</time>
      </trkpt>
      <trkpt lat="47.54301" lon="-2.88279">
        <ele>71</ele>
        <time>2025-05-13T11:14:32Z</time>
      </trkpt>
      <trkpt lat="47.54304" lon="-2.88284">
        <ele>72</ele>
        <time>2025-05-13T11:14:33Z</time>
      </trkpt>
      <trkpt lat="47.54306" lon="-2.88289">
        <ele>71</ele>
        <time>2025-05-13T11:14:34Z</time>
      </trkpt>
      <trkpt lat="47.54309" lon="-2.88294">
        <ele>72</ele>
        <time>2025-05-13T11:14:35Z</time>
      </trkpt>
      <trkpt lat="47.54312" lon="-2.883">
        <ele>72</ele>
        <time>2025-05-13T11:14:36Z</time>
      </trkpt>
      <trkpt lat="47.54315" lon="-2.88305">
        <ele>71</ele>
        <time>2025-05-13T11:14:37Z</time>
      </trkpt>
      <trkpt lat="47.54317" lon="-2.88311">
        <ele>71</ele>
        <time>2025-05-13T11:14:38Z</time>
      </trkpt>
      <trkpt lat="47.54319" lon="-2.88317">
        <ele>71</ele>
        <time>2025-05-13T11:14:39Z</time>
      </trkpt>
      <trkpt lat="47.54322" lon="-2.88322">
        <ele>72</ele>
        <time>2025-05-13T11:14:40Z</time>
      </trkpt>
      <trkpt lat="47.54325" lon="-2.88326">
        <ele>72</ele>
        <time>2025-05-13T11:14:41Z</time>
      </trkpt>
      <trkpt lat="47.54328" lon="-2.88331">
        <ele>73</ele>
        <time>2025-05-13T11:14:42Z</time>
      </trkpt>
      <trkpt lat="47.54331" lon="-2.88336">
        <ele>73</ele>
        <time>2025-05-13T11:14:43Z</time>
      </trkpt>
      <trkpt lat="47.54334" lon="-2.88341">
        <ele>74</ele>
        <time>2025-05-13T11:14:44Z</time>
      </trkpt>
      <trkpt lat="47.54337" lon="-2.88347">
        <ele>74</ele>
        <time>2025-05-13T11:14:45Z</time>
      </trkpt>
      <trkpt lat="47.54339" lon="-2.88353">
        <ele>74</ele>
        <time>2025-05-13T11:14:46Z</time>
      </trkpt>
      <trkpt lat="47.54341" lon="-2.88359">
        <ele>73</ele>
        <time>2025-05-13T11:14:47Z</time>
      </trkpt>
      <trkpt lat="47.54344" lon="-2.88365">
        <ele>73</ele>
        <time>2025-05-13T11:14:48Z</time>
      </trkpt>
      <trkpt lat="47.54347" lon="-2.8837">
        <ele>73</ele>
        <time>2025-05-13T11:14:49Z</time>
      </trkpt>
      <trkpt lat="47.54349" lon="-2.88375">
        <ele>72</ele>
        <time>2025-05-13T11:14:50Z</time>
      </trkpt>
      <trkpt lat="47.54351" lon="-2.8838">
        <ele>71</ele>
        <time>2025-05-13T11:14:51Z</time>
      </trkpt>
      <trkpt lat="47.54354" lon="-2.88385">
        <ele>71</ele>
        <time>2025-05-13T11:14:52Z</time>
      </trkpt>
      <trkpt lat="47.54356" lon="-2.8839">
        <ele>71</ele>
        <time>2025-05-13T11:14:53Z</time>
      </trkpt>
      <trkpt lat="47.54359" lon="-2.88394">
        <ele>71</ele>
        <time>2025-05-13T11:14:54Z</time>
      </trkpt>
      <trkpt lat="47.54361" lon="-2.88399">
        <ele>71</ele>
        <time>2025-05-13T11:14:55Z</time>
      </trkpt>
      <trkpt lat="47.54364" lon="-2.88404">
        <ele>71</ele>
        <time>2025-05-13T11:14:56Z</time>
      </trkpt>
      <trkpt lat="47.54366" lon="-2.8841">
        <ele>70</ele>
        <time>2025-05-13T11:14:57Z</time>
      </trkpt>
      <trkpt lat="47.54369" lon="-2.88416">
        <ele>70</ele>
        <time>2025-05-13T11:14:58Z</time>
      </trkpt>
      <trkpt lat="47.54373" lon="-2.88422">
        <ele>70</ele>
        <time>2025-05-13T11:14:59Z</time>
      </trkpt>
      <trkpt lat="47.54375" lon="-2.88428">
        <ele>69</ele>
        <time>2025-05-13T11:15:00Z</time>
      </trkpt>
      <trkpt lat="47.54378" lon="-2.88435">
        <ele>69</ele>
        <time>2025-05-13T11:15:01Z</time>
      </trkpt>
      <trkpt lat="47.54381" lon="-2.88441">
        <ele>69</ele>
        <time>2025-05-13T11:15:02Z</time>
      </trkpt>
      <trkpt lat="47.54384" lon="-2.88448">
        <ele>68</ele>
        <time>2025-05-13T11:15:03Z</time>
      </trkpt>
      <trkpt lat="47.54387" lon="-2.88454">
        <ele>68</ele>
        <time>2025-05-13T11:15:04Z</time>
      </trkpt>
      <trkpt lat="47.54391" lon="-2.88461">
        <ele>68</ele>
        <time>2025-05-13T11:15:05Z</time>
      </trkpt>
      <trkpt lat="47.54394" lon="-2.88468">
        <ele>68</ele>
        <time>2025-05-13T11:15:06Z</time>
      </trkpt>
      <trkpt lat="47.54397" lon="-2.88475">
        <ele>67</ele>
        <time>2025-05-13T11:15:07Z</time>
      </trkpt>
      <trkpt lat="47.544" lon="-2.88482">
        <ele>67</ele>
        <time>2025-05-13T11:15:08Z</time>
      </trkpt>
      <trkpt lat="47.54403" lon="-2.8849">
        <ele>67</ele>
        <time>2025-05-13T11:15:09Z</time>
      </trkpt>
      <trkpt lat="47.54407" lon="-2.88497">
        <ele>67</ele>
        <time>2025-05-13T11:15:10Z</time>
      </trkpt>
      <trkpt lat="47.5441" lon="-2.88504">
        <ele>67</ele>
        <time>2025-05-13T11:15:11Z</time>
      </trkpt>
      <trkpt lat="47.54414" lon="-2.88511">
        <ele>68</ele>
        <time>2025-05-13T11:15:12Z</time>
      </trkpt>
      <trkpt lat="47.54418" lon="-2.88518">
        <ele>68</ele>
        <time>2025-05-13T11:15:13Z</time>
      </trkpt>
      <trkpt lat="47.54421" lon="-2.88526">
        <ele>67</ele>
        <time>2025-05-13T11:15:14Z</time>
      </trkpt>
      <trkpt lat="47.54425" lon="-2.88534">
        <ele>67</ele>
        <time>2025-05-13T11:15:15Z</time>
      </trkpt>
      <trkpt lat="47.54428" lon="-2.88541">
        <ele>66</ele>
        <time>2025-05-13T11:15:16Z</time>
      </trkpt>
      <trkpt lat="47.54431" lon="-2.88549">
        <ele>65</ele>
        <time>2025-05-13T11:15:17Z</time>
      </trkpt>
      <trkpt lat="47.54435" lon="-2.88556">
        <ele>65</ele>
        <time>2025-05-13T11:15:18Z</time>
      </trkpt>
      <trkpt lat="47.54439" lon="-2.88563">
        <ele>65</ele>
        <time>2025-05-13T11:15:19Z</time>
      </trkpt>
      <trkpt lat="47.54443" lon="-2.88571">
        <ele>65</ele>
        <time>2025-05-13T11:15:20Z</time>
      </trkpt>
      <trkpt lat="47.54446" lon="-2.88578">
        <ele>65</ele>
        <time>2025-05-13T11:15:21Z</time>
      </trkpt>
      <trkpt lat="47.54449" lon="-2.88586">
        <ele>65</ele>
        <time>2025-05-13T11:15:22Z</time>
      </trkpt>
      <trkpt lat="47.54453" lon="-2.88594">
        <ele>65</ele>
        <time>2025-05-13T11:15:23Z</time>
      </trkpt>
      <trkpt lat="47.54457" lon="-2.88602">
        <ele>65</ele>
        <time>2025-05-13T11:15:24Z</time>
      </trkpt>
      <trkpt lat="47.54462" lon="-2.8861">
        <ele>65</ele>
        <time>2025-05-13T11:15:25Z</time>
      </trkpt>
      <trkpt lat="47.54466" lon="-2.88618">
        <ele>64</ele>
        <time>2025-05-13T11:15:26Z</time>
      </trkpt>
      <trkpt lat="47.5447" lon="-2.88627">
        <ele>64</ele>
        <time>2025-05-13T11:15:27Z</time>
      </trkpt>
      <trkpt lat="47.54473" lon="-2.88635">
        <ele>64</ele>
        <time>2025-05-13T11:15:28Z</time>
      </trkpt>
      <trkpt lat="47.54477" lon="-2.88643">
        <ele>63</ele>
        <time>2025-05-13T11:15:29Z</time>
      </trkpt>
      <trkpt lat="47.54481" lon="-2.88652">
        <ele>63</ele>
        <time>2025-05-13T11:15:30Z</time>
      </trkpt>
      <trkpt lat="47.54484" lon="-2.8866">
        <ele>63</ele>
        <time>2025-05-13T11:15:31Z</time>
      </trkpt>
      <trkpt lat="47.54488" lon="-2.88668">
        <ele>63</ele>
        <time>2025-05-13T11:15:32Z</time>
      </trkpt>
      <trkpt lat="47.54492" lon="-2.88676">
        <ele>63</ele>
        <time>2025-05-13T11:15:33Z</time>
      </trkpt>
      <trkpt lat="47.54496" lon="-2.88685">
        <ele>62</ele>
        <time>2025-05-13T11:15:34Z</time>
      </trkpt>
      <trkpt lat="47.54501" lon="-2.88694">
        <ele>62</ele>
        <time>2025-05-13T11:15:35Z</time>
      </trkpt>
      <trkpt lat="47.54505" lon="-2.88703">
        <ele>61</ele>
        <time>2025-05-13T11:15:36Z</time>
      </trkpt>
      <trkpt lat="47.54509" lon="-2.88712">
        <ele>61</ele>
        <time>2025-05-13T11:15:37Z</time>
      </trkpt>
      <trkpt lat="47.54513" lon="-2.88721">
        <ele>61</ele>
        <time>2025-05-13T11:15:38Z</time>
      </trkpt>
      <trkpt lat="47.54517" lon="-2.8873">
        <ele>61</ele>
        <time>2025-05-13T11:15:39Z</time>
      </trkpt>
      <trkpt lat="47.54521" lon="-2.88738">
        <ele>60</ele>
        <time>2025-05-13T11:15:40Z</time>
      </trkpt>
      <trkpt lat="47.54525" lon="-2.88747">
        <ele>61</ele>
        <time>2025-05-13T11:15:41Z</time>
      </trkpt>
      <trkpt lat="47.54529" lon="-2.88755">
        <ele>61</ele>
        <time>2025-05-13T11:15:42Z</time>
      </trkpt>
      <trkpt lat="47.54533" lon="-2.88763">
        <ele>61</ele>
        <time>2025-05-13T11:15:43Z</time>
      </trkpt>
      <trkpt lat="47.54537" lon="-2.88771">
        <ele>62</ele>
        <time>2025-05-13T11:15:44Z</time>
      </trkpt>
      <trkpt lat="47.5454" lon="-2.88778">
        <ele>62</ele>
        <time>2025-05-13T11:15:45Z</time>
      </trkpt>
      <trkpt lat="47.54544" lon="-2.88786">
        <ele>63</ele>
        <time>2025-05-13T11:15:46Z</time>
      </trkpt>
      <trkpt lat="47.54547" lon="-2.88793">
        <ele>63</ele>
        <time>2025-05-13T11:15:47Z</time>
      </trkpt>
      <trkpt lat="47.5455" lon="-2.88801">
        <ele>63</ele>
        <time>2025-05-13T11:15:48Z</time>
      </trkpt>
      <trkpt lat="47.54551" lon="-2.88808">
        <ele>63</ele>
        <time>2025-05-13T11:15:49Z</time>
      </trkpt>
      <trkpt lat="47.54551" lon="-2.88815">
        <ele>63</ele>
        <time>2025-05-13T11:15:50Z</time>
      </trkpt>
      <trkpt lat="47.5455" lon="-2.8882">
        <ele>63</ele>
        <time>2025-05-13T11:15:51Z</time>
      </trkpt>
      <trkpt lat="47.54548" lon="-2.88823">
        <ele>63</ele>
        <time>2025-05-13T11:15:52Z</time>
      </trkpt>
      <trkpt lat="47.54547" lon="-2.88826">
        <ele>63</ele>
        <time>2025-05-13T11:15:53Z</time>
      </trkpt>
      <trkpt lat="47.54547" lon="-2.88829">
        <ele>63</ele>
        <time>2025-05-13T11:15:54Z</time>
      </trkpt>
      <trkpt lat="47.54548" lon="-2.88833">
        <ele>64</ele>
        <time>2025-05-13T11:15:55Z</time>
      </trkpt>
      <trkpt lat="47.5455" lon="-2.88835">
        <ele>64</ele>
        <time>2025-05-13T11:15:56Z</time>
      </trkpt>
      <trkpt lat="47.54551" lon="-2.88837">
        <ele>64</ele>
        <time>2025-05-13T11:15:57Z</time>
      </trkpt>
      <trkpt lat="47.54552" lon="-2.8884">
        <ele>64</ele>
        <time>2025-05-13T11:15:58Z</time>
      </trkpt>
      <trkpt lat="47.54554" lon="-2.88842">
        <ele>64</ele>
        <time>2025-05-13T11:15:59Z</time>
      </trkpt>
      <trkpt lat="47.54556" lon="-2.88845">
        <ele>64</ele>
        <time>2025-05-13T11:16:00Z</time>
      </trkpt>
      <trkpt lat="47.54559" lon="-2.88845">
        <ele>63</ele>
        <time>2025-05-13T11:16:01Z</time>
      </trkpt>
      <trkpt lat="47.54562" lon="-2.88847">
        <ele>62</ele>
        <time>2025-05-13T11:16:02Z</time>
      </trkpt>
      <trkpt lat="47.54565" lon="-2.88849">
        <ele>63</ele>
        <time>2025-05-13T11:16:03Z</time>
      </trkpt>
      <trkpt lat="47.54567" lon="-2.88853">
        <ele>63</ele>
        <time>2025-05-13T11:16:04Z</time>
      </trkpt>
      <trkpt lat="47.54569" lon="-2.88858">
        <ele>63</ele>
        <time>2025-05-13T11:16:05Z</time>
      </trkpt>
      <trkpt lat="47.54571" lon="-2.88863">
        <ele>63</ele>
        <time>2025-05-13T11:16:06Z</time>
      </trkpt>
      <trkpt lat="47.54573" lon="-2.88868">
        <ele>63</ele>
        <time>2025-05-13T11:16:07Z</time>
      </trkpt>
      <trkpt lat="47.54574" lon="-2.88873">
        <ele>62</ele>
        <time>2025-05-13T11:16:08Z</time>
      </trkpt>
      <trkpt lat="47.54576" lon="-2.88879">
        <ele>62</ele>
        <time>2025-05-13T11:16:09Z</time>
      </trkpt>
      <trkpt lat="47.54577" lon="-2.88885">
        <ele>62</ele>
        <time>2025-05-13T11:16:10Z</time>
      </trkpt>
      <trkpt lat="47.54578" lon="-2.88891">
        <ele>61</ele>
        <time>2025-05-13T11:16:11Z</time>
      </trkpt>
      <trkpt lat="47.54579" lon="-2.88896">
        <ele>62</ele>
        <time>2025-05-13T11:16:12Z</time>
      </trkpt>
      <trkpt lat="47.5458" lon="-2.889">
        <ele>62</ele>
        <time>2025-05-13T11:16:13Z</time>
      </trkpt>
      <trkpt lat="47.54581" lon="-2.88904">
        <ele>62</ele>
        <time>2025-05-13T11:16:14Z</time>
      </trkpt>
      <trkpt lat="47.54583" lon="-2.88908">
        <ele>62</ele>
        <time>2025-05-13T11:16:15Z</time>
      </trkpt>
      <trkpt lat="47.54584" lon="-2.88912">
        <ele>63</ele>
        <time>2025-05-13T11:16:16Z</time>
      </trkpt>
      <trkpt lat="47.54585" lon="-2.88915">
        <ele>63</ele>
        <time>2025-05-13T11:16:17Z</time>
      </trkpt>
      <trkpt lat="47.54587" lon="-2.88919">
        <ele>63</ele>
        <time>2025-05-13T11:16:18Z</time>
      </trkpt>
      <trkpt lat="47.54588" lon="-2.88923">
        <ele>63</ele>
        <time>2025-05-13T11:16:19Z</time>
      </trkpt>
      <trkpt lat="47.54589" lon="-2.88927">
        <ele>63</ele>
        <time>2025-05-13T11:16:20Z</time>
      </trkpt>
      <trkpt lat="47.54591" lon="-2.88929">
        <ele>62</ele>
        <time>2025-05-13T11:16:21Z</time>
      </trkpt>
      <trkpt lat="47.54594" lon="-2.8893">
        <ele>62</ele>
        <time>2025-05-13T11:16:22Z</time>
      </trkpt>
      <trkpt lat="47.54596" lon="-2.88931">
        <ele>62</ele>
        <time>2025-05-13T11:16:23Z</time>
      </trkpt>
      <trkpt lat="47.54598" lon="-2.88931">
        <ele>61</ele>
        <time>2025-05-13T11:16:24Z</time>
      </trkpt>
      <trkpt lat="47.546" lon="-2.88933">
        <ele>61</ele>
        <time>2025-05-13T11:16:25Z</time>
      </trkpt>
      <trkpt lat="47.54603" lon="-2.88935">
        <ele>61</ele>
        <time>2025-05-13T11:16:26Z</time>
      </trkpt>
      <trkpt lat="47.54605" lon="-2.88938">
        <ele>61</ele>
        <time>2025-05-13T11:16:27Z</time>
      </trkpt>
      <trkpt lat="47.54606" lon="-2.88942">
        <ele>61</ele>
        <time>2025-05-13T11:16:28Z</time>
      </trkpt>
      <trkpt lat="47.54608" lon="-2.88946">
        <ele>62</ele>
        <time>2025-05-13T11:16:29Z</time>
      </trkpt>
      <trkpt lat="47.5461" lon="-2.88949">
        <ele>62</ele>
        <time>2025-05-13T11:16:30Z</time>
      </trkpt>
      <trkpt lat="47.54612" lon="-2.88953">
        <ele>61</ele>
        <time>2025-05-13T11:16:31Z</time>
      </trkpt>
      <trkpt lat="47.54614" lon="-2.88956">
        <ele>62</ele>
        <time>2025-05-13T11:16:32Z</time>
      </trkpt>
      <trkpt lat="47.54616" lon="-2.88959">
        <ele>61</ele>
        <time>2025-05-13T11:16:33Z</time>
      </trkpt>
      <trkpt lat="47.54618" lon="-2.88961">
        <ele>61</ele>
        <time>2025-05-13T11:16:34Z</time>
      </trkpt>
      <trkpt lat="47.5462" lon="-2.88963">
        <ele>61</ele>
        <time>2025-05-13T11:16:35Z</time>
      </trkpt>
      <trkpt lat="47.54623" lon="-2.88964">
        <ele>61</ele>
        <time>2025-05-13T11:16:36Z</time>
      </trkpt>
      <trkpt lat="47.54626" lon="-2.88965">
        <ele>61</ele>
        <time>2025-05-13T11:16:37Z</time>
      </trkpt>
      <trkpt lat="47.5463" lon="-2.88966">
        <ele>61</ele>
        <time>2025-05-13T11:16:38Z</time>
      </trkpt>
      <trkpt lat="47.54634" lon="-2.88967">
        <ele>61</ele>
        <time>2025-05-13T11:16:39Z</time>
      </trkpt>
      <trkpt lat="47.54637" lon="-2.88968">
        <ele>61</ele>
        <time>2025-05-13T11:16:40Z</time>
      </trkpt>
      <trkpt lat="47.54641" lon="-2.88969">
        <ele>61</ele>
        <time>2025-05-13T11:16:41Z</time>
      </trkpt>
      <trkpt lat="47.54644" lon="-2.88973">
        <ele>61</ele>
        <time>2025-05-13T11:16:42Z</time>
      </trkpt>
      <trkpt lat="47.54647" lon="-2.88977">
        <ele>61</ele>
        <time>2025-05-13T11:16:43Z</time>
      </trkpt>
      <trkpt lat="47.54648" lon="-2.88983">
        <ele>61</ele>
        <time>2025-05-13T11:16:44Z</time>
      </trkpt>
      <trkpt lat="47.54649" lon="-2.88989">
        <ele>61</ele>
        <time>2025-05-13T11:16:45Z</time>
      </trkpt>
      <trkpt lat="47.54649" lon="-2.88995">
        <ele>60</ele>
        <time>2025-05-13T11:16:46Z</time>
      </trkpt>
      <trkpt lat="47.54649" lon="-2.89001">
        <ele>60</ele>
        <time>2025-05-13T11:16:47Z</time>
      </trkpt>
      <trkpt lat="47.54649" lon="-2.89007">
        <ele>60</ele>
        <time>2025-05-13T11:16:48Z</time>
      </trkpt>
      <trkpt lat="47.54649" lon="-2.89012">
        <ele>60</ele>
        <time>2025-05-13T11:16:49Z</time>
      </trkpt>
      <trkpt lat="47.5465" lon="-2.89017">
        <ele>60</ele>
        <time>2025-05-13T11:16:50Z</time>
      </trkpt>
      <trkpt lat="47.54651" lon="-2.89023">
        <ele>60</ele>
        <time>2025-05-13T11:16:51Z</time>
      </trkpt>
      <trkpt lat="47.54653" lon="-2.89027">
        <ele>60</ele>
        <time>2025-05-13T11:16:52Z</time>
      </trkpt>
      <trkpt lat="47.54655" lon="-2.89032">
        <ele>60</ele>
        <time>2025-05-13T11:16:53Z</time>
      </trkpt>
      <trkpt lat="47.54658" lon="-2.89037">
        <ele>60</ele>
        <time>2025-05-13T11:16:54Z</time>
      </trkpt>
      <trkpt lat="47.5466" lon="-2.89042">
        <ele>60</ele>
        <time>2025-05-13T11:16:55Z</time>
      </trkpt>
      <trkpt lat="47.54662" lon="-2.89047">
        <ele>60</ele>
        <time>2025-05-13T11:16:56Z</time>
      </trkpt>
      <trkpt lat="47.54664" lon="-2.89052">
        <ele>61</ele>
        <time>2025-05-13T11:16:57Z</time>
      </trkpt>
      <trkpt lat="47.54664" lon="-2.89058">
        <ele>60</ele>
        <time>2025-05-13T11:16:58Z</time>
      </trkpt>
      <trkpt lat="47.54663" lon="-2.89063">
        <ele>60</ele>
        <time>2025-05-13T11:16:59Z</time>
      </trkpt>
      <trkpt lat="47.54661" lon="-2.89067">
        <ele>60</ele>
        <time>2025-05-13T11:17:00Z</time>
      </trkpt>
      <trkpt lat="47.54659" lon="-2.89071">
        <ele>60</ele>
        <time>2025-05-13T11:17:01Z</time>
      </trkpt>
      <trkpt lat="47.54657" lon="-2.89075">
        <ele>60</ele>
        <time>2025-05-13T11:17:02Z</time>
      </trkpt>
      <trkpt lat="47.54656" lon="-2.89079">
        <ele>60</ele>
        <time>2025-05-13T11:17:03Z</time>
      </trkpt>
      <trkpt lat="47.54655" lon="-2.89085">
        <ele>59</ele>
        <time>2025-05-13T11:17:04Z</time>
      </trkpt>
      <trkpt lat="47.54655" lon="-2.8909">
        <ele>59</ele>
        <time>2025-05-13T11:17:05Z</time>
      </trkpt>
      <trkpt lat="47.54654" lon="-2.89095">
        <ele>59</ele>
        <time>2025-05-13T11:17:06Z</time>
      </trkpt>
      <trkpt lat="47.54653" lon="-2.891">
        <ele>59</ele>
        <time>2025-05-13T11:17:07Z</time>
      </trkpt>
      <trkpt lat="47.54653" lon="-2.89105">
        <ele>59</ele>
        <time>2025-05-13T11:17:08Z</time>
      </trkpt>
      <trkpt lat="47.54653" lon="-2.8911">
        <ele>59</ele>
        <time>2025-05-13T11:17:09Z</time>
      </trkpt>
      <trkpt lat="47.54654" lon="-2.89114">
        <ele>59</ele>
        <time>2025-05-13T11:17:10Z</time>
      </trkpt>
      <trkpt lat="47.54654" lon="-2.89118">
        <ele>60</ele>
        <time>2025-05-13T11:17:11Z</time>
      </trkpt>
      <trkpt lat="47.54655" lon="-2.89121">
        <ele>61</ele>
        <time>2025-05-13T11:17:12Z</time>
      </trkpt>
      <trkpt lat="47.54654" lon="-2.89124">
        <ele>61</ele>
        <time>2025-05-13T11:17:13Z</time>
      </trkpt>
      <trkpt lat="47.54655" lon="-2.89128">
        <ele>61</ele>
        <time>2025-05-13T11:17:14Z</time>
      </trkpt>
      <trkpt lat="47.54655" lon="-2.89131">
        <ele>61</ele>
        <time>2025-05-13T11:17:15Z</time>
      </trkpt>
      <trkpt lat="47.54655" lon="-2.89134">
        <ele>61</ele>
        <time>2025-05-13T11:17:16Z</time>
      </trkpt>
      <trkpt lat="47.54655" lon="-2.89137">
        <ele>62</ele>
        <time>2025-05-13T11:17:17Z</time>
      </trkpt>
      <trkpt lat="47.54656" lon="-2.89138">
        <ele>62</ele>
        <time>2025-05-13T11:17:18Z</time>
      </trkpt>
      <trkpt lat="47.54656" lon="-2.89139">
        <ele>62</ele>
        <time>2025-05-13T11:17:19Z</time>
      </trkpt>
      <trkpt lat="47.54656" lon="-2.89139">
        <ele>62</ele>
        <time>2025-05-13T11:17:20Z</time>
      </trkpt>
      <trkpt lat="47.54656" lon="-2.89139">
        <ele>62</ele>
        <time>2025-05-13T11:17:21Z</time>
      </trkpt>
      <trkpt lat="47.54656" lon="-2.89139">
        <ele>62</ele>
        <time>2025-05-13T11:17:22Z</time>
      </trkpt>
      <trkpt lat="47.54656" lon="-2.89139">
        <ele>62</ele>
        <time>2025-05-13T11:17:23Z</time>
      </trkpt>
      <trkpt lat="47.54656" lon="-2.89139">
        <ele>62</ele>
        <time>2025-05-13T11:17:24Z</time>
      </trkpt>
      <trkpt lat="47.54656" lon="-2.89139">
        <ele>62</ele>
        <time>2025-05-13T11:17:25Z</time>
      </trkpt>
      <trkpt lat="47.54656" lon="-2.89139">
        <ele>62</ele>
        <time>2025-05-13T11:17:26Z</time>
      </trkpt>
      <trkpt lat="47.54656" lon="-2.89139">
        <ele>62</ele>
        <time>2025-05-13T11:17:27Z</time>
      </trkpt>
      <trkpt lat="47.54656" lon="-2.89139">
        <ele>62</ele>
        <time>2025-05-13T11:17:28Z</time>
      </trkpt>
      <trkpt lat="47.54656" lon="-2.89139">
        <ele>62</ele>
        <time>2025-05-13T11:17:29Z</time>
      </trkpt>
      <trkpt lat="47.54656" lon="-2.89139">
        <ele>62</ele>
        <time>2025-05-13T11:17:30Z</time>
      </trkpt>
      <trkpt lat="47.54656" lon="-2.89139">
        <ele>62</ele>
        <time>2025-05-13T11:17:31Z</time>
      </trkpt>
      <trkpt lat="47.54656" lon="-2.89139">
        <ele>62</ele>
        <time>2025-05-13T11:17:32Z</time>
      </trkpt>
      <trkpt lat="47.54656" lon="-2.89139">
        <ele>62</ele>
        <time>2025-05-13T11:17:33Z</time>
      </trkpt>
      <trkpt lat="47.54656" lon="-2.89139">
        <ele>62</ele>
        <time>2025-05-13T11:17:34Z</time>
      </trkpt>
      <trkpt lat="47.54656" lon="-2.89139">
        <ele>62</ele>
        <time>2025-05-13T11:17:35Z</time>
      </trkpt>
      <trkpt lat="47.54656" lon="-2.89139">
        <ele>62</ele>
        <time>2025-05-13T11:17:36Z</time>
      </trkpt>
      <trkpt lat="47.54656" lon="-2.89139">
        <ele>62</ele>
        <time>2025-05-13T11:17:37Z</time>
      </trkpt>
      <trkpt lat="47.54656" lon="-2.89139">
        <ele>62</ele>
        <time>2025-05-13T11:17:38Z</time>
      </trkpt>
      <trkpt lat="47.54656" lon="-2.89139">
        <ele>62</ele>
        <time>2025-05-13T11:17:39Z</time>
      </trkpt>
      <trkpt lat="47.54656" lon="-2.89139">
        <ele>62</ele>
        <time>2025-05-13T11:17:40Z</time>
      </trkpt>
      <trkpt lat="47.54656" lon="-2.89139">
        <ele>62</ele>
        <time>2025-05-13T11:17:41Z</time>
      </trkpt>
      <trkpt lat="47.54656" lon="-2.89139">
        <ele>62</ele>
        <time>2025-05-13T11:17:42Z</time>
      </trkpt>
      <trkpt lat="47.54656" lon="-2.89139">
        <ele>62</ele>
        <time>2025-05-13T11:17:43Z</time>
      </trkpt>
      <trkpt lat="47.54656" lon="-2.89139">
        <ele>62</ele>
        <time>2025-05-13T11:17:44Z</time>
      </trkpt>
      <trkpt lat="47.54656" lon="-2.89139">
        <ele>62</ele>
        <time>2025-05-13T11:17:45Z</time>
      </trkpt>
      <trkpt lat="47.54656" lon="-2.89139">
        <ele>62</ele>
        <time>2025-05-13T11:17:46Z</time>
      </trkpt>
      <trkpt lat="47.54656" lon="-2.89139">
        <ele>62</ele>
        <time>2025-05-13T11:17:47Z</time>
      </trkpt>
      <trkpt lat="47.54656" lon="-2.89139">
        <ele>62</ele>
        <time>2025-05-13T11:17:48Z</time>
      </trkpt>
      <trkpt lat="47.54656" lon="-2.89139">
        <ele>62</ele>
        <time>2025-05-13T11:17:49Z</time>
      </trkpt>
      <trkpt lat="47.54656" lon="-2.89139">
        <ele>62</ele>
        <time>2025-05-13T11:17:50Z</time>
      </trkpt>
      <trkpt lat="47.54656" lon="-2.89139">
        <ele>62</ele>
        <time>2025-05-13T11:17:51Z</time>
      </trkpt>
      <trkpt lat="47.54656" lon="-2.89139">
        <ele>62</ele>
        <time>2025-05-13T11:17:52Z</time>
      </trkpt>
      <trkpt lat="47.54656" lon="-2.89139">
        <ele>62</ele>
        <time>2025-05-13T11:17:53Z</time>
      </trkpt>
      <trkpt lat="47.54656" lon="-2.89139">
        <ele>62</ele>
        <time>2025-05-13T11:17:54Z</time>
      </trkpt>
      <trkpt lat="47.54656" lon="-2.89139">
        <ele>62</ele>
        <time>2025-05-13T11:17:55Z</time>
      </trkpt>
      <trkpt lat="47.54656" lon="-2.89139">
        <ele>62</ele>
        <time>2025-05-13T11:17:56Z</time>
      </trkpt>
      <trkpt lat="47.54656" lon="-2.89139">
        <ele>62</ele>
        <time>2025-05-13T11:17:57Z</time>
      </trkpt>
      <trkpt lat="47.54656" lon="-2.89139">
        <ele>62</ele>
        <time>2025-05-13T11:17:58Z</time>
      </trkpt>
      <trkpt lat="47.54656" lon="-2.89139">
        <ele>62</ele>
        <time>2025-05-13T11:17:59Z</time>
      </trkpt>
      <trkpt lat="47.54656" lon="-2.89139">
        <ele>62</ele>
        <time>2025-05-13T11:18:00Z</time>
      </trkpt>
      <trkpt lat="47.54656" lon="-2.89139">
        <ele>62</ele>
        <time>2025-05-13T11:18:01Z</time>
      </trkpt>
      <trkpt lat="47.54656" lon="-2.89139">
        <ele>62</ele>
        <time>2025-05-13T11:18:02Z</time>
      </trkpt>
      <trkpt lat="47.54656" lon="-2.89139">
        <ele>62</ele>
        <time>2025-05-13T11:18:03Z</time>
      </trkpt>
      <trkpt lat="47.54656" lon="-2.89139">
        <ele>62</ele>
        <time>2025-05-13T11:18:04Z</time>
      </trkpt>
      <trkpt lat="47.54656" lon="-2.89139">
        <ele>62</ele>
        <time>2025-05-13T11:18:05Z</time>
      </trkpt>
      <trkpt lat="47.54656" lon="-2.89139">
        <ele>62</ele>
        <time>2025-05-13T11:18:06Z</time>
      </trkpt>
      <trkpt lat="47.54656" lon="-2.89139">
        <ele>62</ele>
        <time>2025-05-13T11:18:07Z</time>
      </trkpt>
      <trkpt lat="47.54656" lon="-2.89139">
        <ele>62</ele>
        <time>2025-05-13T11:18:08Z</time>
      </trkpt>
      <trkpt lat="47.54656" lon="-2.89139">
        <ele>62</ele>
        <time>2025-05-13T11:18:09Z</time>
      </trkpt>
      <trkpt lat="47.54656" lon="-2.89139">
        <ele>62</ele>
        <time>2025-05-13T11:18:10Z</time>
      </trkpt>
      <trkpt lat="47.54656" lon="-2.89139">
        <ele>62</ele>
        <time>2025-05-13T11:18:11Z</time>
      </trkpt>
      <trkpt lat="47.54656" lon="-2.89139">
        <ele>62</ele>
        <time>2025-05-13T11:18:12Z</time>
      </trkpt>
      <trkpt lat="47.54656" lon="-2.89139">
        <ele>62</ele>
        <time>2025-05-13T11:18:13Z</time>
      </trkpt>
      <trkpt lat="47.54656" lon="-2.89139">
        <ele>62</ele>
        <time>2025-05-13T11:18:14Z</time>
      </trkpt>
      <trkpt lat="47.54656" lon="-2.89139">
        <ele>62</ele>
        <time>2025-05-13T11:18:15Z</time>
      </trkpt>
      <trkpt lat="47.54656" lon="-2.89139">
        <ele>62</ele>
        <time>2025-05-13T11:18:16Z</time>
      </trkpt>
      <trkpt lat="47.54656" lon="-2.89139">
        <ele>62</ele>
        <time>2025-05-13T11:18:17Z</time>
      </trkpt>
      <trkpt lat="47.54656" lon="-2.89139">
        <ele>62</ele>
        <time>2025-05-13T11:18:18Z</time>
      </trkpt>
      <trkpt lat="47.54656" lon="-2.89139">
        <ele>62</ele>
        <time>2025-05-13T11:18:19Z</time>
      </trkpt>
      <trkpt lat="47.54656" lon="-2.89139">
        <ele>62</ele>
        <time>2025-05-13T11:18:20Z</time>
      </trkpt>
      <trkpt lat="47.54656" lon="-2.89139">
        <ele>62</ele>
        <time>2025-05-13T11:18:21Z</time>
      </trkpt>
      <trkpt lat="47.54656" lon="-2.89139">
        <ele>62</ele>
        <time>2025-05-13T11:18:22Z</time>
      </trkpt>
      <trkpt lat="47.54656" lon="-2.89139">
        <ele>62</ele>
        <time>2025-05-13T11:18:23Z</time>
      </trkpt>
      <trkpt lat="47.54656" lon="-2.89139">
        <ele>62</ele>
        <time>2025-05-13T11:18:24Z</time>
      </trkpt>
      <trkpt lat="47.54656" lon="-2.89139">
        <ele>62</ele>
        <time>2025-05-13T11:18:25Z</time>
      </trkpt>
      <trkpt lat="47.54656" lon="-2.89139">
        <ele>62</ele>
        <time>2025-05-13T11:18:26Z</time>
      </trkpt>
      <trkpt lat="47.54656" lon="-2.89139">
        <ele>62</ele>
        <time>2025-05-13T11:18:27Z</time>
      </trkpt>
      <trkpt lat="47.54656" lon="-2.89139">
        <ele>62</ele>
        <time>2025-05-13T11:18:28Z</time>
      </trkpt>
      <trkpt lat="47.54656" lon="-2.89139">
        <ele>62</ele>
        <time>2025-05-13T11:18:29Z</time>
      </trkpt>
      <trkpt lat="47.54656" lon="-2.89139">
        <ele>62</ele>
        <time>2025-05-13T11:18:30Z</time>
      </trkpt>
      <trkpt lat="47.54656" lon="-2.89139">
        <ele>62</ele>
        <time>2025-05-13T11:18:31Z</time>
      </trkpt>
      <trkpt lat="47.54656" lon="-2.89139">
        <ele>62</ele>
        <time>2025-05-13T11:18:32Z</time>
      </trkpt>
      <trkpt lat="47.54656" lon="-2.89139">
        <ele>62</ele>
        <time>2025-05-13T12:05:44Z</time>
      </trkpt>
      <trkpt lat="47.54656" lon="-2.89139">
        <ele>62</ele>
        <time>2025-05-13T12:05:45Z</time>
      </trkpt>
      <trkpt lat="47.54656" lon="-2.89139">
        <ele>62</ele>
        <time>2025-05-13T12:05:46Z</time>
      </trkpt>
      <trkpt lat="47.54656" lon="-2.89139">
        <ele>62</ele>
        <time>2025-05-13T12:05:47Z</time>
      </trkpt>
      <trkpt lat="47.54656" lon="-2.89139">
        <ele>62</ele>
        <time>2025-05-13T12:05:48Z</time>
      </trkpt>
      <trkpt lat="47.54656" lon="-2.89139">
        <ele>62</ele>
        <time>2025-05-13T12:05:49Z</time>
      </trkpt>
      <trkpt lat="47.54656" lon="-2.89139">
        <ele>62</ele>
        <time>2025-05-13T12:05:50Z</time>
      </trkpt>
      <trkpt lat="47.54656" lon="-2.89139">
        <ele>62</ele>
        <time>2025-05-13T12:05:51Z</time>
      </trkpt>
      <trkpt lat="47.54656" lon="-2.89139">
        <ele>62</ele>
        <time>2025-05-13T12:05:52Z</time>
      </trkpt>
      <trkpt lat="47.54656" lon="-2.89139">
        <ele>62</ele>
        <time>2025-05-13T12:05:53Z</time>
      </trkpt>
      <trkpt lat="47.54656" lon="-2.89139">
        <ele>62</ele>
        <time>2025-05-13T12:05:54Z</time>
      </trkpt>
      <trkpt lat="47.54656" lon="-2.89139">
        <ele>62</ele>
        <time>2025-05-13T12:05:55Z</time>
      </trkpt>
      <trkpt lat="47.54656" lon="-2.89139">
        <ele>62</ele>
        <time>2025-05-13T12:05:56Z</time>
      </trkpt>
      <trkpt lat="47.54656" lon="-2.89139">
        <ele>62</ele>
        <time>2025-05-13T12:05:57Z</time>
      </trkpt>
      <trkpt lat="47.54656" lon="-2.89139">
        <ele>62</ele>
        <time>2025-05-13T12:05:58Z</time>
      </trkpt>
      <trkpt lat="47.54656" lon="-2.89139">
        <ele>62</ele>
        <time>2025-05-13T12:05:59Z</time>
      </trkpt>
      <trkpt lat="47.54656" lon="-2.89139">
        <ele>62</ele>
        <time>2025-05-13T12:06:00Z</time>
      </trkpt>
      <trkpt lat="47.54656" lon="-2.89139">
        <ele>62</ele>
        <time>2025-05-13T12:06:01Z</time>
      </trkpt>
      <trkpt lat="47.54656" lon="-2.89139">
        <ele>62</ele>
        <time>2025-05-13T12:06:02Z</time>
      </trkpt>
      <trkpt lat="47.54656" lon="-2.89139">
        <ele>62</ele>
        <time>2025-05-13T12:06:03Z</time>
      </trkpt>
      <trkpt lat="47.54656" lon="-2.89139">
        <ele>62</ele>
        <time>2025-05-13T12:06:04Z</time>
      </trkpt>
      <trkpt lat="47.54654" lon="-2.89139">
        <ele>67</ele>
        <time>2025-05-13T12:06:05Z</time>
      </trkpt>
      <trkpt lat="47.54653" lon="-2.89138">
        <ele>67</ele>
        <time>2025-05-13T12:06:06Z</time>
      </trkpt>
      <trkpt lat="47.54651" lon="-2.89137">
        <ele>66</ele>
        <time>2025-05-13T12:06:07Z</time>
      </trkpt>
      <trkpt lat="47.54649" lon="-2.89137">
        <ele>66</ele>
        <time>2025-05-13T12:06:08Z</time>
      </trkpt>
      <trkpt lat="47.54647" lon="-2.89138">
        <ele>66</ele>
        <time>2025-05-13T12:06:09Z</time>
      </trkpt>
      <trkpt lat="47.54645" lon="-2.89139">
        <ele>66</ele>
        <time>2025-05-13T12:06:10Z</time>
      </trkpt>
      <trkpt lat="47.54643" lon="-2.89141">
        <ele>65</ele>
        <time>2025-05-13T12:06:11Z</time>
      </trkpt>
      <trkpt lat="47.54641" lon="-2.89142">
        <ele>65</ele>
        <time>2025-05-13T12:06:12Z</time>
      </trkpt>
      <trkpt lat="47.5464" lon="-2.89145">
        <ele>64</ele>
        <time>2025-05-13T12:06:13Z</time>
      </trkpt>
      <trkpt lat="47.5464" lon="-2.89147">
        <ele>63</ele>
        <time>2025-05-13T12:06:14Z</time>
      </trkpt>
      <trkpt lat="47.5464" lon="-2.8915">
        <ele>63</ele>
        <time>2025-05-13T12:06:15Z</time>
      </trkpt>
      <trkpt lat="47.5464" lon="-2.89153">
        <ele>62</ele>
        <time>2025-05-13T12:06:16Z</time>
      </trkpt>
      <trkpt lat="47.54639" lon="-2.89156">
        <ele>62</ele>
        <time>2025-05-13T12:06:17Z</time>
      </trkpt>
      <trkpt lat="47.54638" lon="-2.89159">
        <ele>62</ele>
        <time>2025-05-13T12:06:18Z</time>
      </trkpt>
      <trkpt lat="47.54637" lon="-2.89161">
        <ele>62</ele>
        <time>2025-05-13T12:06:19Z</time>
      </trkpt>
      <trkpt lat="47.54635" lon="-2.89162">
        <ele>62</ele>
        <time>2025-05-13T12:06:20Z</time>
      </trkpt>
      <trkpt lat="47.54633" lon="-2.89162">
        <ele>61</ele>
        <time>2025-05-13T12:06:21Z</time>
      </trkpt>
      <trkpt lat="47.54631" lon="-2.89162">
        <ele>61</ele>
        <time>2025-05-13T12:06:22Z</time>
      </trkpt>
      <trkpt lat="47.54629" lon="-2.89163">
        <ele>60</ele>
        <time>2025-05-13T12:06:23Z</time>
      </trkpt>
      <trkpt lat="47.54626" lon="-2.89163">
        <ele>60</ele>
        <time>2025-05-13T12:06:24Z</time>
      </trkpt>
      <trkpt lat="47.54624" lon="-2.89163">
        <ele>60</ele>
        <time>2025-05-13T12:06:25Z</time>
      </trkpt>
      <trkpt lat="47.54622" lon="-2.89163">
        <ele>60</ele>
        <time>2025-05-13T12:06:26Z</time>
      </trkpt>
      <trkpt lat="47.5462" lon="-2.89163">
        <ele>59</ele>
        <time>2025-05-13T12:06:27Z</time>
      </trkpt>
      <trkpt lat="47.54617" lon="-2.89164">
        <ele>59</ele>
        <time>2025-05-13T12:06:28Z</time>
      </trkpt>
      <trkpt lat="47.54615" lon="-2.89165">
        <ele>59</ele>
        <time>2025-05-13T12:06:29Z</time>
      </trkpt>
      <trkpt lat="47.54613" lon="-2.89168">
        <ele>59</ele>
        <time>2025-05-13T12:06:30Z</time>
      </trkpt>
      <trkpt lat="47.54612" lon="-2.89172">
        <ele>59</ele>
        <time>2025-05-13T12:06:31Z</time>
      </trkpt>
      <trkpt lat="47.54613" lon="-2.89176">
        <ele>59</ele>
        <time>2025-05-13T12:06:32Z</time>
      </trkpt>
      <trkpt lat="47.54613" lon="-2.8918">
        <ele>59</ele>
        <time>2025-05-13T12:06:33Z</time>
      </trkpt>
      <trkpt lat="47.54613" lon="-2.89184">
        <ele>59</ele>
        <time>2025-05-13T12:06:34Z</time>
      </trkpt>
      <trkpt lat="47.54614" lon="-2.89188">
        <ele>59</ele>
        <time>2025-05-13T12:06:35Z</time>
      </trkpt>
      <trkpt lat="47.54614" lon="-2.89191">
        <ele>59</ele>
        <time>2025-05-13T12:06:36Z</time>
      </trkpt>
      <trkpt lat="47.54615" lon="-2.89195">
        <ele>59</ele>
        <time>2025-05-13T12:06:37Z</time>
      </trkpt>
      <trkpt lat="47.54615" lon="-2.89198">
        <ele>59</ele>
        <time>2025-05-13T12:06:38Z</time>
      </trkpt>
      <trkpt lat="47.54615" lon="-2.89201">
        <ele>59</ele>
        <time>2025-05-13T12:06:39Z</time>
      </trkpt>
      <trkpt lat="47.54616" lon="-2.89203">
        <ele>59</ele>
        <time>2025-05-13T12:06:40Z</time>
      </trkpt>
      <trkpt lat="47.54616" lon="-2.89207">
        <ele>59</ele>
        <time>2025-05-13T12:06:41Z</time>
      </trkpt>
      <trkpt lat="47.54616" lon="-2.89211">
        <ele>59</ele>
        <time>2025-05-13T12:06:42Z</time>
      </trkpt>
      <trkpt lat="47.54616" lon="-2.89215">
        <ele>59</ele>
        <time>2025-05-13T12:06:43Z</time>
      </trkpt>
      <trkpt lat="47.54616" lon="-2.89219">
        <ele>58</ele>
        <time>2025-05-13T12:06:44Z</time>
      </trkpt>
      <trkpt lat="47.54616" lon="-2.89223">
        <ele>58</ele>
        <time>2025-05-13T12:06:45Z</time>
      </trkpt>
      <trkpt lat="47.54616" lon="-2.89228">
        <ele>58</ele>
        <time>2025-05-13T12:06:46Z</time>
      </trkpt>
      <trkpt lat="47.54616" lon="-2.89232">
        <ele>58</ele>
        <time>2025-05-13T12:06:47Z</time>
      </trkpt>
      <trkpt lat="47.54616" lon="-2.89236">
        <ele>58</ele>
        <time>2025-05-13T12:06:48Z</time>
      </trkpt>
      <trkpt lat="47.54617" lon="-2.89239">
        <ele>57</ele>
        <time>2025-05-13T12:06:49Z</time>
      </trkpt>
      <trkpt lat="47.54618" lon="-2.89241">
        <ele>58</ele>
        <time>2025-05-13T12:06:50Z</time>
      </trkpt>
      <trkpt lat="47.54618" lon="-2.89243">
        <ele>58</ele>
        <time>2025-05-13T12:06:51Z</time>
      </trkpt>
      <trkpt lat="47.54619" lon="-2.89245">
        <ele>58</ele>
        <time>2025-05-13T12:06:52Z</time>
      </trkpt>
      <trkpt lat="47.5462" lon="-2.89248">
        <ele>58</ele>
        <time>2025-05-13T12:06:53Z</time>
      </trkpt>
      <trkpt lat="47.54621" lon="-2.89251">
        <ele>58</ele>
        <time>2025-05-13T12:06:54Z</time>
      </trkpt>
      <trkpt lat="47.54621" lon="-2.89253">
        <ele>58</ele>
        <time>2025-05-13T12:06:55Z</time>
      </trkpt>
      <trkpt lat="47.54622" lon="-2.89257">
        <ele>58</ele>
        <time>2025-05-13T12:06:56Z</time>
      </trkpt>
      <trkpt lat="47.54623" lon="-2.8926">
        <ele>58</ele>
        <time>2025-05-13T12:06:57Z</time>
      </trkpt>
      <trkpt lat="47.54623" lon="-2.89264">
        <ele>58</ele>
        <time>2025-05-13T12:06:58Z</time>
      </trkpt>
      <trkpt lat="47.54623" lon="-2.89268">
        <ele>58</ele>
        <time>2025-05-13T12:06:59Z</time>
      </trkpt>
      <trkpt lat="47.54623" lon="-2.89271">
        <ele>58</ele>
        <time>2025-05-13T12:07:00Z</time>
      </trkpt>
      <trkpt lat="47.54623" lon="-2.89275">
        <ele>58</ele>
        <time>2025-05-13T12:07:01Z</time>
      </trkpt>
      <trkpt lat="47.54624" lon="-2.89279">
        <ele>58</ele>
        <time>2025-05-13T12:07:02Z</time>
      </trkpt>
      <trkpt lat="47.54624" lon="-2.89283">
        <ele>58</ele>
        <time>2025-05-13T12:07:03Z</time>
      </trkpt>
      <trkpt lat="47.54624" lon="-2.89287">
        <ele>58</ele>
        <time>2025-05-13T12:07:04Z</time>
      </trkpt>
      <trkpt lat="47.54624" lon="-2.89291">
        <ele>58</ele>
        <time>2025-05-13T12:07:05Z</time>
      </trkpt>
      <trkpt lat="47.54625" lon="-2.89296">
        <ele>57</ele>
        <time>2025-05-13T12:07:06Z</time>
      </trkpt>
      <trkpt lat="47.54625" lon="-2.89301">
        <ele>57</ele>
        <time>2025-05-13T12:07:07Z</time>
      </trkpt>
      <trkpt lat="47.54625" lon="-2.89305">
        <ele>57</ele>
        <time>2025-05-13T12:07:08Z</time>
      </trkpt>
      <trkpt lat="47.54625" lon="-2.8931">
        <ele>57</ele>
        <time>2025-05-13T12:07:09Z</time>
      </trkpt>
      <trkpt lat="47.54626" lon="-2.89314">
        <ele>57</ele>
        <time>2025-05-13T12:07:10Z</time>
      </trkpt>
      <trkpt lat="47.54626" lon="-2.89319">
        <ele>57</ele>
        <time>2025-05-13T12:07:11Z</time>
      </trkpt>
      <trkpt lat="47.54626" lon="-2.89324">
        <ele>57</ele>
        <time>2025-05-13T12:07:12Z</time>
      </trkpt>
      <trkpt lat="47.54626" lon="-2.8933">
        <ele>57</ele>
        <time>2025-05-13T12:07:13Z</time>
      </trkpt>
      <trkpt lat="47.54626" lon="-2.89335">
        <ele>57</ele>
        <time>2025-05-13T12:07:14Z</time>
      </trkpt>
      <trkpt lat="47.54627" lon="-2.8934">
        <ele>57</ele>
        <time>2025-05-13T12:07:15Z</time>
      </trkpt>
      <trkpt lat="47.54628" lon="-2.89346">
        <ele>57</ele>
        <time>2025-05-13T12:07:16Z</time>
      </trkpt>
      <trkpt lat="47.54628" lon="-2.89351">
        <ele>57</ele>
        <time>2025-05-13T12:07:17Z</time>
      </trkpt>
      <trkpt lat="47.54629" lon="-2.89356">
        <ele>57</ele>
        <time>2025-05-13T12:07:18Z</time>
      </trkpt>
      <trkpt lat="47.54629" lon="-2.89361">
        <ele>57</ele>
        <time>2025-05-13T12:07:19Z</time>
      </trkpt>
      <trkpt lat="47.5463" lon="-2.89366">
        <ele>57</ele>
        <time>2025-05-13T12:07:20Z</time>
      </trkpt>
      <trkpt lat="47.5463" lon="-2.89371">
        <ele>57</ele>
        <time>2025-05-13T12:07:21Z</time>
      </trkpt>
      <trkpt lat="47.5463" lon="-2.89375">
        <ele>57</ele>
        <time>2025-05-13T12:07:22Z</time>
      </trkpt>
      <trkpt lat="47.5463" lon="-2.8938">
        <ele>57</ele>
        <time>2025-05-13T12:07:23Z</time>
      </trkpt>
      <trkpt lat="47.54629" lon="-2.89385">
        <ele>57</ele>
        <time>2025-05-13T12:07:24Z</time>
      </trkpt>
      <trkpt lat="47.54629" lon="-2.89391">
        <ele>57</ele>
        <time>2025-05-13T12:07:25Z</time>
      </trkpt>
      <trkpt lat="47.5463" lon="-2.89396">
        <ele>57</ele>
        <time>2025-05-13T12:07:26Z</time>
      </trkpt>
      <trkpt lat="47.54631" lon="-2.89402">
        <ele>57</ele>
        <time>2025-05-13T12:07:27Z</time>
      </trkpt>
      <trkpt lat="47.54631" lon="-2.89407">
        <ele>57</ele>
        <time>2025-05-13T12:07:28Z</time>
      </trkpt>
      <trkpt lat="47.54631" lon="-2.89413">
        <ele>56</ele>
        <time>2025-05-13T12:07:29Z</time>
      </trkpt>
      <trkpt lat="47.54632" lon="-2.89419">
        <ele>56</ele>
        <time>2025-05-13T12:07:30Z</time>
      </trkpt>
      <trkpt lat="47.54632" lon="-2.89424">
        <ele>56</ele>
        <time>2025-05-13T12:07:31Z</time>
      </trkpt>
      <trkpt lat="47.54633" lon="-2.8943">
        <ele>56</ele>
        <time>2025-05-13T12:07:32Z</time>
      </trkpt>
      <trkpt lat="47.54633" lon="-2.89436">
        <ele>55</ele>
        <time>2025-05-13T12:07:33Z</time>
      </trkpt>
      <trkpt lat="47.54633" lon="-2.89442">
        <ele>55</ele>
        <time>2025-05-13T12:07:34Z</time>
      </trkpt>
      <trkpt lat="47.54633" lon="-2.89448">
        <ele>56</ele>
        <time>2025-05-13T12:07:35Z</time>
      </trkpt>
      <trkpt lat="47.54634" lon="-2.89454">
        <ele>56</ele>
        <time>2025-05-13T12:07:36Z</time>
      </trkpt>
      <trkpt lat="47.54634" lon="-2.89459">
        <ele>57</ele>
        <time>2025-05-13T12:07:37Z</time>
      </trkpt>
      <trkpt lat="47.54635" lon="-2.89465">
        <ele>57</ele>
        <time>2025-05-13T12:07:38Z</time>
      </trkpt>
      <trkpt lat="47.54635" lon="-2.89471">
        <ele>57</ele>
        <time>2025-05-13T12:07:39Z</time>
      </trkpt>
      <trkpt lat="47.54636" lon="-2.89476">
        <ele>57</ele>
        <time>2025-05-13T12:07:40Z</time>
      </trkpt>
      <trkpt lat="47.54636" lon="-2.89482">
        <ele>58</ele>
        <time>2025-05-13T12:07:41Z</time>
      </trkpt>
      <trkpt lat="47.54637" lon="-2.89487">
        <ele>57</ele>
        <time>2025-05-13T12:07:42Z</time>
      </trkpt>
      <trkpt lat="47.54637" lon="-2.89493">
        <ele>57</ele>
        <time>2025-05-13T12:07:43Z</time>
      </trkpt>
      <trkpt lat="47.54637" lon="-2.89499">
        <ele>57</ele>
        <time>2025-05-13T12:07:44Z</time>
      </trkpt>
      <trkpt lat="47.54637" lon="-2.89504">
        <ele>57</ele>
        <time>2025-05-13T12:07:45Z</time>
      </trkpt>
      <trkpt lat="47.54637" lon="-2.8951">
        <ele>56</ele>
        <time>2025-05-13T12:07:46Z</time>
      </trkpt>
      <trkpt lat="47.54637" lon="-2.89515">
        <ele>57</ele>
        <time>2025-05-13T12:07:47Z</time>
      </trkpt>
      <trkpt lat="47.54637" lon="-2.89521">
        <ele>57</ele>
        <time>2025-05-13T12:07:48Z</time>
      </trkpt>
      <trkpt lat="47.54637" lon="-2.89527">
        <ele>57</ele>
        <time>2025-05-13T12:07:49Z</time>
      </trkpt>
      <trkpt lat="47.54638" lon="-2.89532">
        <ele>57</ele>
        <time>2025-05-13T12:07:50Z</time>
      </trkpt>
      <trkpt lat="47.54638" lon="-2.89537">
        <ele>57</ele>
        <time>2025-05-13T12:07:51Z</time>
      </trkpt>
      <trkpt lat="47.54638" lon="-2.89543">
        <ele>58</ele>
        <time>2025-05-13T12:07:52Z</time>
      </trkpt>
      <trkpt lat="47.54638" lon="-2.89548">
        <ele>58</ele>
        <time>2025-05-13T12:07:53Z</time>
      </trkpt>
      <trkpt lat="47.54639" lon="-2.89554">
        <ele>58</ele>
        <time>2025-05-13T12:07:54Z</time>
      </trkpt>
      <trkpt lat="47.5464" lon="-2.8956">
        <ele>58</ele>
        <time>2025-05-13T12:07:55Z</time>
      </trkpt>
      <trkpt lat="47.5464" lon="-2.89566">
        <ele>58</ele>
        <time>2025-05-13T12:07:56Z</time>
      </trkpt>
      <trkpt lat="47.5464" lon="-2.89572">
        <ele>58</ele>
        <time>2025-05-13T12:07:57Z</time>
      </trkpt>
      <trkpt lat="47.54641" lon="-2.89578">
        <ele>58</ele>
        <time>2025-05-13T12:07:58Z</time>
      </trkpt>
      <trkpt lat="47.54641" lon="-2.89584">
        <ele>58</ele>
        <time>2025-05-13T12:07:59Z</time>
      </trkpt>
      <trkpt lat="47.54641" lon="-2.8959">
        <ele>58</ele>
        <time>2025-05-13T12:08:00Z</time>
      </trkpt>
      <trkpt lat="47.54641" lon="-2.89594">
        <ele>58</ele>
        <time>2025-05-13T12:08:01Z</time>
      </trkpt>
      <trkpt lat="47.54641" lon="-2.89599">
        <ele>58</ele>
        <time>2025-05-13T12:08:02Z</time>
      </trkpt>
      <trkpt lat="47.54642" lon="-2.89602">
        <ele>57</ele>
        <time>2025-05-13T12:08:03Z</time>
      </trkpt>
      <trkpt lat="47.54642" lon="-2.89605">
        <ele>57</ele>
        <time>2025-05-13T12:08:04Z</time>
      </trkpt>
      <trkpt lat="47.54644" lon="-2.89608">
        <ele>58</ele>
        <time>2025-05-13T12:08:05Z</time>
      </trkpt>
      <trkpt lat="47.54645" lon="-2.89608">
        <ele>58</ele>
        <time>2025-05-13T12:08:06Z</time>
      </trkpt>
      <trkpt lat="47.54647" lon="-2.89608">
        <ele>58</ele>
        <time>2025-05-13T12:08:07Z</time>
      </trkpt>
      <trkpt lat="47.54648" lon="-2.89607">
        <ele>58</ele>
        <time>2025-05-13T12:08:08Z</time>
      </trkpt>
      <trkpt lat="47.54649" lon="-2.89607">
        <ele>58</ele>
        <time>2025-05-13T12:08:09Z</time>
      </trkpt>
      <trkpt lat="47.54649" lon="-2.89607">
        <ele>58</ele>
        <time>2025-05-13T12:08:10Z</time>
      </trkpt>
      <trkpt lat="47.54649" lon="-2.89607">
        <ele>58</ele>
        <time>2025-05-13T12:08:11Z</time>
      </trkpt>
      <trkpt lat="47.54649" lon="-2.89607">
        <ele>58</ele>
        <time>2025-05-13T12:08:12Z</time>
      </trkpt>
      <trkpt lat="47.54649" lon="-2.89607">
        <ele>58</ele>
        <time>2025-05-13T12:08:13Z</time>
      </trkpt>
      <trkpt lat="47.54649" lon="-2.89607">
        <ele>58</ele>
        <time>2025-05-13T12:08:14Z</time>
      </trkpt>
      <trkpt lat="47.54653" lon="-2.89608">
        <ele>58</ele>
        <time>2025-05-13T12:08:15Z</time>
      </trkpt>
      <trkpt lat="47.54654" lon="-2.89609">
        <ele>58</ele>
        <time>2025-05-13T12:08:16Z</time>
      </trkpt>
      <trkpt lat="47.54656" lon="-2.89612">
        <ele>58</ele>
        <time>2025-05-13T12:08:17Z</time>
      </trkpt>
      <trkpt lat="47.54656" lon="-2.89616">
        <ele>58</ele>
        <time>2025-05-13T12:08:18Z</time>
      </trkpt>
      <trkpt lat="47.54657" lon="-2.8962">
        <ele>57</ele>
        <time>2025-05-13T12:08:19Z</time>
      </trkpt>
      <trkpt lat="47.54657" lon="-2.89624">
        <ele>57</ele>
        <time>2025-05-13T12:08:20Z</time>
      </trkpt>
      <trkpt lat="47.54658" lon="-2.89629">
        <ele>57</ele>
        <time>2025-05-13T12:08:21Z</time>
      </trkpt>
      <trkpt lat="47.54658" lon="-2.89634">
        <ele>57</ele>
        <time>2025-05-13T12:08:22Z</time>
      </trkpt>
      <trkpt lat="47.54658" lon="-2.89639">
        <ele>57</ele>
        <time>2025-05-13T12:08:23Z</time>
      </trkpt>
      <trkpt lat="47.54658" lon="-2.89644">
        <ele>57</ele>
        <time>2025-05-13T12:08:24Z</time>
      </trkpt>
      <trkpt lat="47.54659" lon="-2.89647">
        <ele>58</ele>
        <time>2025-05-13T12:08:25Z</time>
      </trkpt>
      <trkpt lat="47.5466" lon="-2.89651">
        <ele>58</ele>
        <time>2025-05-13T12:08:26Z</time>
      </trkpt>
      <trkpt lat="47.54661" lon="-2.89654">
        <ele>58</ele>
        <time>2025-05-13T12:08:27Z</time>
      </trkpt>
      <trkpt lat="47.54662" lon="-2.89658">
        <ele>59</ele>
        <time>2025-05-13T12:08:28Z</time>
      </trkpt>
      <trkpt lat="47.54662" lon="-2.89662">
        <ele>59</ele>
        <time>2025-05-13T12:08:29Z</time>
      </trkpt>
      <trkpt lat="47.54663" lon="-2.89667">
        <ele>59</ele>
        <time>2025-05-13T12:08:30Z</time>
      </trkpt>
      <trkpt lat="47.54663" lon="-2.89672">
        <ele>59</ele>
        <time>2025-05-13T12:08:31Z</time>
      </trkpt>
      <trkpt lat="47.54664" lon="-2.89677">
        <ele>59</ele>
        <time>2025-05-13T12:08:32Z</time>
      </trkpt>
      <trkpt lat="47.54664" lon="-2.89682">
        <ele>58</ele>
        <time>2025-05-13T12:08:33Z</time>
      </trkpt>
      <trkpt lat="47.54664" lon="-2.89687">
        <ele>58</ele>
        <time>2025-05-13T12:08:34Z</time>
      </trkpt>
      <trkpt lat="47.54665" lon="-2.89693">
        <ele>58</ele>
        <time>2025-05-13T12:08:35Z</time>
      </trkpt>
      <trkpt lat="47.54665" lon="-2.89698">
        <ele>58</ele>
        <time>2025-05-13T12:08:36Z</time>
      </trkpt>
      <trkpt lat="47.54665" lon="-2.89704">
        <ele>57</ele>
        <time>2025-05-13T12:08:37Z</time>
      </trkpt>
      <trkpt lat="47.54665" lon="-2.8971">
        <ele>57</ele>
        <time>2025-05-13T12:08:38Z</time>
      </trkpt>
      <trkpt lat="47.54665" lon="-2.89715">
        <ele>58</ele>
        <time>2025-05-13T12:08:39Z</time>
      </trkpt>
      <trkpt lat="47.54666" lon="-2.89721">
        <ele>58</ele>
        <time>2025-05-13T12:08:40Z</time>
      </trkpt>
      <trkpt lat="47.54667" lon="-2.89726">
        <ele>58</ele>
        <time>2025-05-13T12:08:41Z</time>
      </trkpt>
      <trkpt lat="47.54668" lon="-2.89731">
        <ele>58</ele>
        <time>2025-05-13T12:08:42Z</time>
      </trkpt>
      <trkpt lat="47.54669" lon="-2.89737">
        <ele>58</ele>
        <time>2025-05-13T12:08:43Z</time>
      </trkpt>
      <trkpt lat="47.54668" lon="-2.89744">
        <ele>58</ele>
        <time>2025-05-13T12:08:44Z</time>
      </trkpt>
      <trkpt lat="47.54669" lon="-2.8975">
        <ele>58</ele>
        <time>2025-05-13T12:08:45Z</time>
      </trkpt>
      <trkpt lat="47.54668" lon="-2.89756">
        <ele>57</ele>
        <time>2025-05-13T12:08:46Z</time>
      </trkpt>
      <trkpt lat="47.54668" lon="-2.89762">
        <ele>57</ele>
        <time>2025-05-13T12:08:47Z</time>
      </trkpt>
      <trkpt lat="47.54668" lon="-2.89768">
        <ele>57</ele>
        <time>2025-05-13T12:08:48Z</time>
      </trkpt>
      <trkpt lat="47.54669" lon="-2.89774">
        <ele>57</ele>
        <time>2025-05-13T12:08:49Z</time>
      </trkpt>
      <trkpt lat="47.5467" lon="-2.89781">
        <ele>56</ele>
        <time>2025-05-13T12:08:50Z</time>
      </trkpt>
      <trkpt lat="47.5467" lon="-2.89787">
        <ele>56</ele>
        <time>2025-05-13T12:08:51Z</time>
      </trkpt>
      <trkpt lat="47.54671" lon="-2.89794">
        <ele>56</ele>
        <time>2025-05-13T12:08:52Z</time>
      </trkpt>
      <trkpt lat="47.54671" lon="-2.898">
        <ele>56</ele>
        <time>2025-05-13T12:08:53Z</time>
      </trkpt>
      <trkpt lat="47.54671" lon="-2.89806">
        <ele>56</ele>
        <time>2025-05-13T12:08:54Z</time>
      </trkpt>
      <trkpt lat="47.54672" lon="-2.89812">
        <ele>56</ele>
        <time>2025-05-13T12:08:55Z</time>
      </trkpt>
      <trkpt lat="47.54672" lon="-2.89818">
        <ele>56</ele>
        <time>2025-05-13T12:08:56Z</time>
      </trkpt>
      <trkpt lat="47.54673" lon="-2.89824">
        <ele>56</ele>
        <time>2025-05-13T12:08:57Z</time>
      </trkpt>
      <trkpt lat="47.54673" lon="-2.8983">
        <ele>57</ele>
        <time>2025-05-13T12:08:58Z</time>
      </trkpt>
      <trkpt lat="47.54673" lon="-2.89837">
        <ele>57</ele>
        <time>2025-05-13T12:08:59Z</time>
      </trkpt>
      <trkpt lat="47.54674" lon="-2.89844">
        <ele>57</ele>
        <time>2025-05-13T12:09:00Z</time>
      </trkpt>
      <trkpt lat="47.54674" lon="-2.89849">
        <ele>58</ele>
        <time>2025-05-13T12:09:01Z</time>
      </trkpt>
      <trkpt lat="47.54674" lon="-2.89855">
        <ele>58</ele>
        <time>2025-05-13T12:09:02Z</time>
      </trkpt>
      <trkpt lat="47.54675" lon="-2.89861">
        <ele>58</ele>
        <time>2025-05-13T12:09:03Z</time>
      </trkpt>
      <trkpt lat="47.54675" lon="-2.89867">
        <ele>58</ele>
        <time>2025-05-13T12:09:04Z</time>
      </trkpt>
      <trkpt lat="47.54676" lon="-2.89873">
        <ele>58</ele>
        <time>2025-05-13T12:09:05Z</time>
      </trkpt>
      <trkpt lat="47.54676" lon="-2.89878">
        <ele>58</ele>
        <time>2025-05-13T12:09:06Z</time>
      </trkpt>
      <trkpt lat="47.54677" lon="-2.89884">
        <ele>57</ele>
        <time>2025-05-13T12:09:07Z</time>
      </trkpt>
      <trkpt lat="47.54678" lon="-2.89891">
        <ele>57</ele>
        <time>2025-05-13T12:09:08Z</time>
      </trkpt>
      <trkpt lat="47.54678" lon="-2.89897">
        <ele>57</ele>
        <time>2025-05-13T12:09:09Z</time>
      </trkpt>
      <trkpt lat="47.54679" lon="-2.89902">
        <ele>57</ele>
        <time>2025-05-13T12:09:10Z</time>
      </trkpt>
      <trkpt lat="47.54679" lon="-2.89908">
        <ele>57</ele>
        <time>2025-05-13T12:09:11Z</time>
      </trkpt>
      <trkpt lat="47.54679" lon="-2.89914">
        <ele>57</ele>
        <time>2025-05-13T12:09:12Z</time>
      </trkpt>
      <trkpt lat="47.5468" lon="-2.8992">
        <ele>57</ele>
        <time>2025-05-13T12:09:13Z</time>
      </trkpt>
      <trkpt lat="47.5468" lon="-2.89926">
        <ele>57</ele>
        <time>2025-05-13T12:09:14Z</time>
      </trkpt>
      <trkpt lat="47.54681" lon="-2.89932">
        <ele>56</ele>
        <time>2025-05-13T12:09:15Z</time>
      </trkpt>
      <trkpt lat="47.54681" lon="-2.89937">
        <ele>56</ele>
        <time>2025-05-13T12:09:16Z</time>
      </trkpt>
      <trkpt lat="47.54682" lon="-2.89944">
        <ele>56</ele>
        <time>2025-05-13T12:09:17Z</time>
      </trkpt>
      <trkpt lat="47.54682" lon="-2.8995">
        <ele>56</ele>
        <time>2025-05-13T12:09:18Z</time>
      </trkpt>
      <trkpt lat="47.54682" lon="-2.89957">
        <ele>56</ele>
        <time>2025-05-13T12:09:19Z</time>
      </trkpt>
      <trkpt lat="47.54682" lon="-2.89963">
        <ele>56</ele>
        <time>2025-05-13T12:09:20Z</time>
      </trkpt>
      <trkpt lat="47.54682" lon="-2.89969">
        <ele>57</ele>
        <time>2025-05-13T12:09:21Z</time>
      </trkpt>
      <trkpt lat="47.54683" lon="-2.89974">
        <ele>58</ele>
        <time>2025-05-13T12:09:22Z</time>
      </trkpt>
      <trkpt lat="47.54683" lon="-2.89978">
        <ele>58</ele>
        <time>2025-05-13T12:09:23Z</time>
      </trkpt>
      <trkpt lat="47.54684" lon="-2.89984">
        <ele>57</ele>
        <time>2025-05-13T12:09:24Z</time>
      </trkpt>
      <trkpt lat="47.54684" lon="-2.89989">
        <ele>58</ele>
        <time>2025-05-13T12:09:25Z</time>
      </trkpt>
      <trkpt lat="47.54684" lon="-2.89994">
        <ele>58</ele>
        <time>2025-05-13T12:09:26Z</time>
      </trkpt>
      <trkpt lat="47.54684" lon="-2.9">
        <ele>58</ele>
        <time>2025-05-13T12:09:27Z</time>
      </trkpt>
      <trkpt lat="47.54684" lon="-2.90005">
        <ele>59</ele>
        <time>2025-05-13T12:09:28Z</time>
      </trkpt>
      <trkpt lat="47.54684" lon="-2.90009">
        <ele>59</ele>
        <time>2025-05-13T12:09:29Z</time>
      </trkpt>
      <trkpt lat="47.54684" lon="-2.90014">
        <ele>59</ele>
        <time>2025-05-13T12:09:30Z</time>
      </trkpt>
      <trkpt lat="47.54684" lon="-2.90019">
        <ele>59</ele>
        <time>2025-05-13T12:09:31Z</time>
      </trkpt>
      <trkpt lat="47.54685" lon="-2.90023">
        <ele>60</ele>
        <time>2025-05-13T12:09:32Z</time>
      </trkpt>
      <trkpt lat="47.54685" lon="-2.90027">
        <ele>60</ele>
        <time>2025-05-13T12:09:33Z</time>
      </trkpt>
      <trkpt lat="47.54685" lon="-2.90032">
        <ele>60</ele>
        <time>2025-05-13T12:09:34Z</time>
      </trkpt>
      <trkpt lat="47.54686" lon="-2.90037">
        <ele>60</ele>
        <time>2025-05-13T12:09:35Z</time>
      </trkpt>
      <trkpt lat="47.54686" lon="-2.90041">
        <ele>60</ele>
        <time>2025-05-13T12:09:36Z</time>
      </trkpt>
      <trkpt lat="47.54686" lon="-2.90046">
        <ele>59</ele>
        <time>2025-05-13T12:09:37Z</time>
      </trkpt>
      <trkpt lat="47.54687" lon="-2.90051">
        <ele>60</ele>
        <time>2025-05-13T12:09:38Z</time>
      </trkpt>
      <trkpt lat="47.54686" lon="-2.90056">
        <ele>60</ele>
        <time>2025-05-13T12:09:39Z</time>
      </trkpt>
      <trkpt lat="47.54687" lon="-2.9006">
        <ele>60</ele>
        <time>2025-05-13T12:09:40Z</time>
      </trkpt>
      <trkpt lat="47.54687" lon="-2.90065">
        <ele>60</ele>
        <time>2025-05-13T12:09:41Z</time>
      </trkpt>
      <trkpt lat="47.54687" lon="-2.90069">
        <ele>60</ele>
        <time>2025-05-13T12:09:42Z</time>
      </trkpt>
      <trkpt lat="47.54687" lon="-2.90073">
        <ele>60</ele>
        <time>2025-05-13T12:09:43Z</time>
      </trkpt>
      <trkpt lat="47.54687" lon="-2.90079">
        <ele>60</ele>
        <time>2025-05-13T12:09:44Z</time>
      </trkpt>
      <trkpt lat="47.54687" lon="-2.90083">
        <ele>61</ele>
        <time>2025-05-13T12:09:45Z</time>
      </trkpt>
      <trkpt lat="47.54687" lon="-2.90088">
        <ele>61</ele>
        <time>2025-05-13T12:09:46Z</time>
      </trkpt>
      <trkpt lat="47.54687" lon="-2.90094">
        <ele>61</ele>
        <time>2025-05-13T12:09:47Z</time>
      </trkpt>
      <trkpt lat="47.54687" lon="-2.90099">
        <ele>60</ele>
        <time>2025-05-13T12:09:48Z</time>
      </trkpt>
      <trkpt lat="47.54687" lon="-2.90104">
        <ele>60</ele>
        <time>2025-05-13T12:09:49Z</time>
      </trkpt>
      <trkpt lat="47.54687" lon="-2.90109">
        <ele>60</ele>
        <time>2025-05-13T12:09:50Z</time>
      </trkpt>
      <trkpt lat="47.54687" lon="-2.90114">
        <ele>61</ele>
        <time>2025-05-13T12:09:51Z</time>
      </trkpt>
      <trkpt lat="47.54687" lon="-2.90119">
        <ele>60</ele>
        <time>2025-05-13T12:09:52Z</time>
      </trkpt>
      <trkpt lat="47.54687" lon="-2.90124">
        <ele>60</ele>
        <time>2025-05-13T12:09:53Z</time>
      </trkpt>
      <trkpt lat="47.54687" lon="-2.90129">
        <ele>61</ele>
        <time>2025-05-13T12:09:54Z</time>
      </trkpt>
      <trkpt lat="47.54687" lon="-2.90134">
        <ele>61</ele>
        <time>2025-05-13T12:09:55Z</time>
      </trkpt>
      <trkpt lat="47.54686" lon="-2.90139">
        <ele>61</ele>
        <time>2025-05-13T12:09:56Z</time>
      </trkpt>
      <trkpt lat="47.54686" lon="-2.90144">
        <ele>61</ele>
        <time>2025-05-13T12:09:57Z</time>
      </trkpt>
      <trkpt lat="47.54686" lon="-2.90149">
        <ele>61</ele>
        <time>2025-05-13T12:09:58Z</time>
      </trkpt>
      <trkpt lat="47.54686" lon="-2.90154">
        <ele>61</ele>
        <time>2025-05-13T12:09:59Z</time>
      </trkpt>
      <trkpt lat="47.54686" lon="-2.90159">
        <ele>61</ele>
        <time>2025-05-13T12:10:00Z</time>
      </trkpt>
      <trkpt lat="47.54686" lon="-2.90164">
        <ele>61</ele>
        <time>2025-05-13T12:10:01Z</time>
      </trkpt>
      <trkpt lat="47.54685" lon="-2.90169">
        <ele>61</ele>
        <time>2025-05-13T12:10:02Z</time>
      </trkpt>
      <trkpt lat="47.54686" lon="-2.90173">
        <ele>62</ele>
        <time>2025-05-13T12:10:03Z</time>
      </trkpt>
      <trkpt lat="47.54685" lon="-2.90178">
        <ele>62</ele>
        <time>2025-05-13T12:10:04Z</time>
      </trkpt>
      <trkpt lat="47.54685" lon="-2.90182">
        <ele>62</ele>
        <time>2025-05-13T12:10:05Z</time>
      </trkpt>
      <trkpt lat="47.54684" lon="-2.90186">
        <ele>62</ele>
        <time>2025-05-13T12:10:06Z</time>
      </trkpt>
      <trkpt lat="47.54683" lon="-2.90191">
        <ele>62</ele>
        <time>2025-05-13T12:10:07Z</time>
      </trkpt>
      <trkpt lat="47.54683" lon="-2.90196">
        <ele>62</ele>
        <time>2025-05-13T12:10:08Z</time>
      </trkpt>
      <trkpt lat="47.54683" lon="-2.902">
        <ele>62</ele>
        <time>2025-05-13T12:10:09Z</time>
      </trkpt>
      <trkpt lat="47.54683" lon="-2.90206">
        <ele>63</ele>
        <time>2025-05-13T12:10:10Z</time>
      </trkpt>
      <trkpt lat="47.54682" lon="-2.9021">
        <ele>63</ele>
        <time>2025-05-13T12:10:11Z</time>
      </trkpt>
      <trkpt lat="47.54681" lon="-2.90215">
        <ele>63</ele>
        <time>2025-05-13T12:10:12Z</time>
      </trkpt>
      <trkpt lat="47.5468" lon="-2.90219">
        <ele>63</ele>
        <time>2025-05-13T12:10:13Z</time>
      </trkpt>
      <trkpt lat="47.54679" lon="-2.90224">
        <ele>63</ele>
        <time>2025-05-13T12:10:14Z</time>
      </trkpt>
      <trkpt lat="47.54679" lon="-2.90228">
        <ele>63</ele>
        <time>2025-05-13T12:10:15Z</time>
      </trkpt>
      <trkpt lat="47.54678" lon="-2.90233">
        <ele>63</ele>
        <time>2025-05-13T12:10:16Z</time>
      </trkpt>
      <trkpt lat="47.54677" lon="-2.90238">
        <ele>63</ele>
        <time>2025-05-13T12:10:17Z</time>
      </trkpt>
      <trkpt lat="47.54676" lon="-2.90242">
        <ele>63</ele>
        <time>2025-05-13T12:10:18Z</time>
      </trkpt>
      <trkpt lat="47.54676" lon="-2.90246">
        <ele>63</ele>
        <time>2025-05-13T12:10:19Z</time>
      </trkpt>
      <trkpt lat="47.54675" lon="-2.90251">
        <ele>62</ele>
        <time>2025-05-13T12:10:20Z</time>
      </trkpt>
      <trkpt lat="47.54674" lon="-2.90256">
        <ele>62</ele>
        <time>2025-05-13T12:10:21Z</time>
      </trkpt>
      <trkpt lat="47.54673" lon="-2.90261">
        <ele>63</ele>
        <time>2025-05-13T12:10:22Z</time>
      </trkpt>
      <trkpt lat="47.54672" lon="-2.90266">
        <ele>62</ele>
        <time>2025-05-13T12:10:23Z</time>
      </trkpt>
      <trkpt lat="47.54671" lon="-2.9027">
        <ele>62</ele>
        <time>2025-05-13T12:10:24Z</time>
      </trkpt>
      <trkpt lat="47.54671" lon="-2.90275">
        <ele>62</ele>
        <time>2025-05-13T12:10:25Z</time>
      </trkpt>
      <trkpt lat="47.5467" lon="-2.90279">
        <ele>63</ele>
        <time>2025-05-13T12:10:26Z</time>
      </trkpt>
      <trkpt lat="47.54669" lon="-2.90283">
        <ele>63</ele>
        <time>2025-05-13T12:10:27Z</time>
      </trkpt>
      <trkpt lat="47.54668" lon="-2.90287">
        <ele>63</ele>
        <time>2025-05-13T12:10:28Z</time>
      </trkpt>
      <trkpt lat="47.54667" lon="-2.90291">
        <ele>63</ele>
        <time>2025-05-13T12:10:29Z</time>
      </trkpt>
      <trkpt lat="47.54667" lon="-2.90294">
        <ele>64</ele>
        <time>2025-05-13T12:10:30Z</time>
      </trkpt>
      <trkpt lat="47.54666" lon="-2.90298">
        <ele>64</ele>
        <time>2025-05-13T12:10:31Z</time>
      </trkpt>
      <trkpt lat="47.54665" lon="-2.90302">
        <ele>64</ele>
        <time>2025-05-13T12:10:32Z</time>
      </trkpt>
      <trkpt lat="47.54665" lon="-2.90306">
        <ele>63</ele>
        <time>2025-05-13T12:10:33Z</time>
      </trkpt>
      <trkpt lat="47.54665" lon="-2.90309">
        <ele>64</ele>
        <time>2025-05-13T12:10:34Z</time>
      </trkpt>
      <trkpt lat="47.54665" lon="-2.90314">
        <ele>63</ele>
        <time>2025-05-13T12:10:35Z</time>
      </trkpt>
      <trkpt lat="47.54666" lon="-2.90317">
        <ele>64</ele>
        <time>2025-05-13T12:10:36Z</time>
      </trkpt>
      <trkpt lat="47.54666" lon="-2.9032">
        <ele>64</ele>
        <time>2025-05-13T12:10:37Z</time>
      </trkpt>
      <trkpt lat="47.54667" lon="-2.90323">
        <ele>64</ele>
        <time>2025-05-13T12:10:38Z</time>
      </trkpt>
      <trkpt lat="47.54668" lon="-2.90326">
        <ele>65</ele>
        <time>2025-05-13T12:10:39Z</time>
      </trkpt>
      <trkpt lat="47.54669" lon="-2.90329">
        <ele>65</ele>
        <time>2025-05-13T12:10:40Z</time>
      </trkpt>
      <trkpt lat="47.5467" lon="-2.90331">
        <ele>65</ele>
        <time>2025-05-13T12:10:41Z</time>
      </trkpt>
      <trkpt lat="47.54671" lon="-2.90334">
        <ele>65</ele>
        <time>2025-05-13T12:10:42Z</time>
      </trkpt>
      <trkpt lat="47.54672" lon="-2.90336">
        <ele>65</ele>
        <time>2025-05-13T12:10:43Z</time>
      </trkpt>
      <trkpt lat="47.54673" lon="-2.90339">
        <ele>65</ele>
        <time>2025-05-13T12:10:44Z</time>
      </trkpt>
      <trkpt lat="47.54673" lon="-2.90342">
        <ele>64</ele>
        <time>2025-05-13T12:10:45Z</time>
      </trkpt>
      <trkpt lat="47.54674" lon="-2.90345">
        <ele>64</ele>
        <time>2025-05-13T12:10:46Z</time>
      </trkpt>
      <trkpt lat="47.54673" lon="-2.90349">
        <ele>64</ele>
        <time>2025-05-13T12:10:47Z</time>
      </trkpt>
      <trkpt lat="47.54672" lon="-2.90352">
        <ele>65</ele>
        <time>2025-05-13T12:10:48Z</time>
      </trkpt>
      <trkpt lat="47.54671" lon="-2.90356">
        <ele>65</ele>
        <time>2025-05-13T12:10:49Z</time>
      </trkpt>
      <trkpt lat="47.54669" lon="-2.90359">
        <ele>65</ele>
        <time>2025-05-13T12:10:50Z</time>
      </trkpt>
      <trkpt lat="47.54667" lon="-2.90362">
        <ele>65</ele>
        <time>2025-05-13T12:10:51Z</time>
      </trkpt>
      <trkpt lat="47.54665" lon="-2.90365">
        <ele>66</ele>
        <time>2025-05-13T12:10:52Z</time>
      </trkpt>
      <trkpt lat="47.54662" lon="-2.90369">
        <ele>65</ele>
        <time>2025-05-13T12:10:53Z</time>
      </trkpt>
      <trkpt lat="47.5466" lon="-2.90372">
        <ele>65</ele>
        <time>2025-05-13T12:10:54Z</time>
      </trkpt>
      <trkpt lat="47.54658" lon="-2.90375">
        <ele>65</ele>
        <time>2025-05-13T12:10:55Z</time>
      </trkpt>
      <trkpt lat="47.54655" lon="-2.90379">
        <ele>64</ele>
        <time>2025-05-13T12:10:56Z</time>
      </trkpt>
      <trkpt lat="47.54653" lon="-2.90382">
        <ele>65</ele>
        <time>2025-05-13T12:10:57Z</time>
      </trkpt>
      <trkpt lat="47.54651" lon="-2.90386">
        <ele>65</ele>
        <time>2025-05-13T12:10:58Z</time>
      </trkpt>
      <trkpt lat="47.54648" lon="-2.9039">
        <ele>64</ele>
        <time>2025-05-13T12:10:59Z</time>
      </trkpt>
      <trkpt lat="47.54646" lon="-2.90393">
        <ele>64</ele>
        <time>2025-05-13T12:11:00Z</time>
      </trkpt>
      <trkpt lat="47.54644" lon="-2.90397">
        <ele>64</ele>
        <time>2025-05-13T12:11:01Z</time>
      </trkpt>
      <trkpt lat="47.54642" lon="-2.90402">
        <ele>64</ele>
        <time>2025-05-13T12:11:02Z</time>
      </trkpt>
      <trkpt lat="47.5464" lon="-2.90406">
        <ele>64</ele>
        <time>2025-05-13T12:11:03Z</time>
      </trkpt>
      <trkpt lat="47.54638" lon="-2.90411">
        <ele>63</ele>
        <time>2025-05-13T12:11:04Z</time>
      </trkpt>
      <trkpt lat="47.54638" lon="-2.90414">
        <ele>64</ele>
        <time>2025-05-13T12:11:05Z</time>
      </trkpt>
      <trkpt lat="47.54637" lon="-2.90418">
        <ele>64</ele>
        <time>2025-05-13T12:11:06Z</time>
      </trkpt>
      <trkpt lat="47.54635" lon="-2.90422">
        <ele>64</ele>
        <time>2025-05-13T12:11:07Z</time>
      </trkpt>
      <trkpt lat="47.54634" lon="-2.90426">
        <ele>64</ele>
        <time>2025-05-13T12:11:08Z</time>
      </trkpt>
      <trkpt lat="47.54633" lon="-2.90431">
        <ele>64</ele>
        <time>2025-05-13T12:11:09Z</time>
      </trkpt>
      <trkpt lat="47.54632" lon="-2.90436">
        <ele>64</ele>
        <time>2025-05-13T12:11:10Z</time>
      </trkpt>
      <trkpt lat="47.54631" lon="-2.9044">
        <ele>64</ele>
        <time>2025-05-13T12:11:11Z</time>
      </trkpt>
      <trkpt lat="47.5463" lon="-2.90444">
        <ele>64</ele>
        <time>2025-05-13T12:11:12Z</time>
      </trkpt>
      <trkpt lat="47.54629" lon="-2.90448">
        <ele>64</ele>
        <time>2025-05-13T12:11:13Z</time>
      </trkpt>
      <trkpt lat="47.54628" lon="-2.90452">
        <ele>64</ele>
        <time>2025-05-13T12:11:14Z</time>
      </trkpt>
      <trkpt lat="47.54627" lon="-2.90457">
        <ele>64</ele>
        <time>2025-05-13T12:11:15Z</time>
      </trkpt>
      <trkpt lat="47.54627" lon="-2.90461">
        <ele>64</ele>
        <time>2025-05-13T12:11:16Z</time>
      </trkpt>
      <trkpt lat="47.54627" lon="-2.90466">
        <ele>64</ele>
        <time>2025-05-13T12:11:17Z</time>
      </trkpt>
      <trkpt lat="47.54627" lon="-2.90471">
        <ele>64</ele>
        <time>2025-05-13T12:11:18Z</time>
      </trkpt>
      <trkpt lat="47.54625" lon="-2.90475">
        <ele>64</ele>
        <time>2025-05-13T12:11:19Z</time>
      </trkpt>
      <trkpt lat="47.54624" lon="-2.9048">
        <ele>64</ele>
        <time>2025-05-13T12:11:20Z</time>
      </trkpt>
      <trkpt lat="47.54623" lon="-2.90484">
        <ele>64</ele>
        <time>2025-05-13T12:11:21Z</time>
      </trkpt>
      <trkpt lat="47.54621" lon="-2.90489">
        <ele>63</ele>
        <time>2025-05-13T12:11:22Z</time>
      </trkpt>
      <trkpt lat="47.5462" lon="-2.90495">
        <ele>63</ele>
        <time>2025-05-13T12:11:23Z</time>
      </trkpt>
      <trkpt lat="47.54619" lon="-2.90501">
        <ele>63</ele>
        <time>2025-05-13T12:11:24Z</time>
      </trkpt>
      <trkpt lat="47.54617" lon="-2.90506">
        <ele>63</ele>
        <time>2025-05-13T12:11:25Z</time>
      </trkpt>
      <trkpt lat="47.54616" lon="-2.90511">
        <ele>64</ele>
        <time>2025-05-13T12:11:26Z</time>
      </trkpt>
      <trkpt lat="47.54615" lon="-2.90516">
        <ele>64</ele>
        <time>2025-05-13T12:11:27Z</time>
      </trkpt>
      <trkpt lat="47.54614" lon="-2.90521">
        <ele>64</ele>
        <time>2025-05-13T12:11:28Z</time>
      </trkpt>
      <trkpt lat="47.54613" lon="-2.90525">
        <ele>64</ele>
        <time>2025-05-13T12:11:29Z</time>
      </trkpt>
      <trkpt lat="47.54612" lon="-2.9053">
        <ele>64</ele>
        <time>2025-05-13T12:11:30Z</time>
      </trkpt>
      <trkpt lat="47.54611" lon="-2.90535">
        <ele>63</ele>
        <time>2025-05-13T12:11:31Z</time>
      </trkpt>
      <trkpt lat="47.5461" lon="-2.90539">
        <ele>63</ele>
        <time>2025-05-13T12:11:32Z</time>
      </trkpt>
      <trkpt lat="47.54609" lon="-2.90544">
        <ele>63</ele>
        <time>2025-05-13T12:11:33Z</time>
      </trkpt>
      <trkpt lat="47.54608" lon="-2.90548">
        <ele>63</ele>
        <time>2025-05-13T12:11:34Z</time>
      </trkpt>
      <trkpt lat="47.54607" lon="-2.90554">
        <ele>63</ele>
        <time>2025-05-13T12:11:35Z</time>
      </trkpt>
      <trkpt lat="47.54607" lon="-2.90559">
        <ele>62</ele>
        <time>2025-05-13T12:11:36Z</time>
      </trkpt>
      <trkpt lat="47.54607" lon="-2.90564">
        <ele>62</ele>
        <time>2025-05-13T12:11:37Z</time>
      </trkpt>
      <trkpt lat="47.54606" lon="-2.90568">
        <ele>62</ele>
        <time>2025-05-13T12:11:38Z</time>
      </trkpt>
      <trkpt lat="47.54606" lon="-2.90573">
        <ele>62</ele>
        <time>2025-05-13T12:11:39Z</time>
      </trkpt>
      <trkpt lat="47.54604" lon="-2.90578">
        <ele>62</ele>
        <time>2025-05-13T12:11:40Z</time>
      </trkpt>
      <trkpt lat="47.54603" lon="-2.90584">
        <ele>62</ele>
        <time>2025-05-13T12:11:41Z</time>
      </trkpt>
      <trkpt lat="47.54601" lon="-2.90589">
        <ele>62</ele>
        <time>2025-05-13T12:11:42Z</time>
      </trkpt>
      <trkpt lat="47.546" lon="-2.90593">
        <ele>63</ele>
        <time>2025-05-13T12:11:43Z</time>
      </trkpt>
      <trkpt lat="47.54598" lon="-2.90598">
        <ele>63</ele>
        <time>2025-05-13T12:11:44Z</time>
      </trkpt>
      <trkpt lat="47.54597" lon="-2.90603">
        <ele>64</ele>
        <time>2025-05-13T12:11:45Z</time>
      </trkpt>
      <trkpt lat="47.54595" lon="-2.90607">
        <ele>64</ele>
        <time>2025-05-13T12:11:46Z</time>
      </trkpt>
      <trkpt lat="47.54594" lon="-2.90612">
        <ele>64</ele>
        <time>2025-05-13T12:11:47Z</time>
      </trkpt>
      <trkpt lat="47.54593" lon="-2.90617">
        <ele>64</ele>
        <time>2025-05-13T12:11:48Z</time>
      </trkpt>
      <trkpt lat="47.54592" lon="-2.90622">
        <ele>64</ele>
        <time>2025-05-13T12:11:49Z</time>
      </trkpt>
      <trkpt lat="47.5459" lon="-2.90627">
        <ele>64</ele>
        <time>2025-05-13T12:11:50Z</time>
      </trkpt>
      <trkpt lat="47.54589" lon="-2.90632">
        <ele>64</ele>
        <time>2025-05-13T12:11:51Z</time>
      </trkpt>
      <trkpt lat="47.54589" lon="-2.90638">
        <ele>64</ele>
        <time>2025-05-13T12:11:52Z</time>
      </trkpt>
      <trkpt lat="47.54588" lon="-2.90643">
        <ele>64</ele>
        <time>2025-05-13T12:11:53Z</time>
      </trkpt>
      <trkpt lat="47.54588" lon="-2.90649">
        <ele>63</ele>
        <time>2025-05-13T12:11:54Z</time>
      </trkpt>
      <trkpt lat="47.54588" lon="-2.90654">
        <ele>64</ele>
        <time>2025-05-13T12:11:55Z</time>
      </trkpt>
      <trkpt lat="47.54588" lon="-2.90659">
        <ele>64</ele>
        <time>2025-05-13T12:11:56Z</time>
      </trkpt>
      <trkpt lat="47.54587" lon="-2.90664">
        <ele>65</ele>
        <time>2025-05-13T12:11:57Z</time>
      </trkpt>
      <trkpt lat="47.54587" lon="-2.90668">
        <ele>65</ele>
        <time>2025-05-13T12:11:58Z</time>
      </trkpt>
      <trkpt lat="47.54586" lon="-2.90673">
        <ele>65</ele>
        <time>2025-05-13T12:11:59Z</time>
      </trkpt>
      <trkpt lat="47.54586" lon="-2.90677">
        <ele>65</ele>
        <time>2025-05-13T12:12:00Z</time>
      </trkpt>
      <trkpt lat="47.54585" lon="-2.90681">
        <ele>66</ele>
        <time>2025-05-13T12:12:01Z</time>
      </trkpt>
      <trkpt lat="47.54583" lon="-2.90685">
        <ele>66</ele>
        <time>2025-05-13T12:12:02Z</time>
      </trkpt>
      <trkpt lat="47.54581" lon="-2.90688">
        <ele>66</ele>
        <time>2025-05-13T12:12:03Z</time>
      </trkpt>
      <trkpt lat="47.54579" lon="-2.9069">
        <ele>67</ele>
        <time>2025-05-13T12:12:04Z</time>
      </trkpt>
      <trkpt lat="47.54577" lon="-2.90691">
        <ele>67</ele>
        <time>2025-05-13T12:12:05Z</time>
      </trkpt>
      <trkpt lat="47.54575" lon="-2.90694">
        <ele>66</ele>
        <time>2025-05-13T12:12:06Z</time>
      </trkpt>
      <trkpt lat="47.54574" lon="-2.90697">
        <ele>66</ele>
        <time>2025-05-13T12:12:07Z</time>
      </trkpt>
      <trkpt lat="47.54573" lon="-2.90701">
        <ele>66</ele>
        <time>2025-05-13T12:12:08Z</time>
      </trkpt>
      <trkpt lat="47.54572" lon="-2.90706">
        <ele>66</ele>
        <time>2025-05-13T12:12:09Z</time>
      </trkpt>
      <trkpt lat="47.54572" lon="-2.90711">
        <ele>66</ele>
        <time>2025-05-13T12:12:10Z</time>
      </trkpt>
      <trkpt lat="47.54571" lon="-2.90716">
        <ele>66</ele>
        <time>2025-05-13T12:12:11Z</time>
      </trkpt>
      <trkpt lat="47.54571" lon="-2.90722">
        <ele>66</ele>
        <time>2025-05-13T12:12:12Z</time>
      </trkpt>
      <trkpt lat="47.54571" lon="-2.90728">
        <ele>66</ele>
        <time>2025-05-13T12:12:13Z</time>
      </trkpt>
      <trkpt lat="47.5457" lon="-2.90733">
        <ele>66</ele>
        <time>2025-05-13T12:12:14Z</time>
      </trkpt>
      <trkpt lat="47.5457" lon="-2.90738">
        <ele>66</ele>
        <time>2025-05-13T12:12:15Z</time>
      </trkpt>
      <trkpt lat="47.54569" lon="-2.90743">
        <ele>66</ele>
        <time>2025-05-13T12:12:16Z</time>
      </trkpt>
      <trkpt lat="47.54569" lon="-2.90748">
        <ele>66</ele>
        <time>2025-05-13T12:12:17Z</time>
      </trkpt>
      <trkpt lat="47.54568" lon="-2.90754">
        <ele>66</ele>
        <time>2025-05-13T12:12:18Z</time>
      </trkpt>
      <trkpt lat="47.54568" lon="-2.90759">
        <ele>67</ele>
        <time>2025-05-13T12:12:19Z</time>
      </trkpt>
      <trkpt lat="47.54568" lon="-2.90764">
        <ele>67</ele>
        <time>2025-05-13T12:12:20Z</time>
      </trkpt>
      <trkpt lat="47.54568" lon="-2.90769">
        <ele>67</ele>
        <time>2025-05-13T12:12:21Z</time>
      </trkpt>
      <trkpt lat="47.54568" lon="-2.90775">
        <ele>67</ele>
        <time>2025-05-13T12:12:22Z</time>
      </trkpt>
      <trkpt lat="47.54568" lon="-2.9078">
        <ele>67</ele>
        <time>2025-05-13T12:12:23Z</time>
      </trkpt>
      <trkpt lat="47.54568" lon="-2.90786">
        <ele>67</ele>
        <time>2025-05-13T12:12:24Z</time>
      </trkpt>
      <trkpt lat="47.54568" lon="-2.90791">
        <ele>67</ele>
        <time>2025-05-13T12:12:25Z</time>
      </trkpt>
      <trkpt lat="47.54568" lon="-2.90797">
        <ele>67</ele>
        <time>2025-05-13T12:12:26Z</time>
      </trkpt>
      <trkpt lat="47.54569" lon="-2.90803">
        <ele>67</ele>
        <time>2025-05-13T12:12:27Z</time>
      </trkpt>
      <trkpt lat="47.54569" lon="-2.90808">
        <ele>68</ele>
        <time>2025-05-13T12:12:28Z</time>
      </trkpt>
      <trkpt lat="47.54569" lon="-2.90813">
        <ele>68</ele>
        <time>2025-05-13T12:12:29Z</time>
      </trkpt>
      <trkpt lat="47.5457" lon="-2.90819">
        <ele>68</ele>
        <time>2025-05-13T12:12:30Z</time>
      </trkpt>
      <trkpt lat="47.5457" lon="-2.90824">
        <ele>68</ele>
        <time>2025-05-13T12:12:31Z</time>
      </trkpt>
      <trkpt lat="47.54571" lon="-2.90829">
        <ele>68</ele>
        <time>2025-05-13T12:12:32Z</time>
      </trkpt>
      <trkpt lat="47.54571" lon="-2.90834">
        <ele>68</ele>
        <time>2025-05-13T12:12:33Z</time>
      </trkpt>
      <trkpt lat="47.54572" lon="-2.9084">
        <ele>68</ele>
        <time>2025-05-13T12:12:34Z</time>
      </trkpt>
      <trkpt lat="47.54573" lon="-2.90846">
        <ele>68</ele>
        <time>2025-05-13T12:12:35Z</time>
      </trkpt>
      <trkpt lat="47.54574" lon="-2.90852">
        <ele>69</ele>
        <time>2025-05-13T12:12:36Z</time>
      </trkpt>
      <trkpt lat="47.54574" lon="-2.90858">
        <ele>69</ele>
        <time>2025-05-13T12:12:37Z</time>
      </trkpt>
      <trkpt lat="47.54574" lon="-2.90863">
        <ele>69</ele>
        <time>2025-05-13T12:12:38Z</time>
      </trkpt>
      <trkpt lat="47.54575" lon="-2.90869">
        <ele>68</ele>
        <time>2025-05-13T12:12:39Z</time>
      </trkpt>
      <trkpt lat="47.54576" lon="-2.90875">
        <ele>68</ele>
        <time>2025-05-13T12:12:40Z</time>
      </trkpt>
      <trkpt lat="47.54577" lon="-2.9088">
        <ele>68</ele>
        <time>2025-05-13T12:12:41Z</time>
      </trkpt>
      <trkpt lat="47.54578" lon="-2.90885">
        <ele>68</ele>
        <time>2025-05-13T12:12:42Z</time>
      </trkpt>
      <trkpt lat="47.54579" lon="-2.9089">
        <ele>67</ele>
        <time>2025-05-13T12:12:43Z</time>
      </trkpt>
      <trkpt lat="47.54579" lon="-2.90896">
        <ele>67</ele>
        <time>2025-05-13T12:12:44Z</time>
      </trkpt>
      <trkpt lat="47.5458" lon="-2.90901">
        <ele>67</ele>
        <time>2025-05-13T12:12:45Z</time>
      </trkpt>
      <trkpt lat="47.54581" lon="-2.90906">
        <ele>67</ele>
        <time>2025-05-13T12:12:46Z</time>
      </trkpt>
      <trkpt lat="47.54583" lon="-2.90912">
        <ele>67</ele>
        <time>2025-05-13T12:12:47Z</time>
      </trkpt>
      <trkpt lat="47.54585" lon="-2.90916">
        <ele>67</ele>
        <time>2025-05-13T12:12:48Z</time>
      </trkpt>
      <trkpt lat="47.54586" lon="-2.90921">
        <ele>67</ele>
        <time>2025-05-13T12:12:49Z</time>
      </trkpt>
      <trkpt lat="47.54588" lon="-2.90926">
        <ele>67</ele>
        <time>2025-05-13T12:12:50Z</time>
      </trkpt>
      <trkpt lat="47.54589" lon="-2.90931">
        <ele>67</ele>
        <time>2025-05-13T12:12:51Z</time>
      </trkpt>
      <trkpt lat="47.5459" lon="-2.90936">
        <ele>68</ele>
        <time>2025-05-13T12:12:52Z</time>
      </trkpt>
      <trkpt lat="47.54592" lon="-2.90941">
        <ele>68</ele>
        <time>2025-05-13T12:12:53Z</time>
      </trkpt>
      <trkpt lat="47.54593" lon="-2.90946">
        <ele>68</ele>
        <time>2025-05-13T12:12:54Z</time>
      </trkpt>
      <trkpt lat="47.54594" lon="-2.9095">
        <ele>69</ele>
        <time>2025-05-13T12:12:55Z</time>
      </trkpt>
      <trkpt lat="47.54595" lon="-2.90956">
        <ele>69</ele>
        <time>2025-05-13T12:12:56Z</time>
      </trkpt>
      <trkpt lat="47.54597" lon="-2.90961">
        <ele>69</ele>
        <time>2025-05-13T12:12:57Z</time>
      </trkpt>
      <trkpt lat="47.54598" lon="-2.90966">
        <ele>69</ele>
        <time>2025-05-13T12:12:58Z</time>
      </trkpt>
      <trkpt lat="47.546" lon="-2.9097">
        <ele>69</ele>
        <time>2025-05-13T12:12:59Z</time>
      </trkpt>
      <trkpt lat="47.54601" lon="-2.90975">
        <ele>69</ele>
        <time>2025-05-13T12:13:00Z</time>
      </trkpt>
      <trkpt lat="47.54602" lon="-2.90979">
        <ele>69</ele>
        <time>2025-05-13T12:13:01Z</time>
      </trkpt>
      <trkpt lat="47.54603" lon="-2.90984">
        <ele>69</ele>
        <time>2025-05-13T12:13:02Z</time>
      </trkpt>
      <trkpt lat="47.54605" lon="-2.90989">
        <ele>69</ele>
        <time>2025-05-13T12:13:03Z</time>
      </trkpt>
      <trkpt lat="47.54606" lon="-2.90994">
        <ele>69</ele>
        <time>2025-05-13T12:13:04Z</time>
      </trkpt>
      <trkpt lat="47.54607" lon="-2.90999">
        <ele>69</ele>
        <time>2025-05-13T12:13:05Z</time>
      </trkpt>
      <trkpt lat="47.54608" lon="-2.91003">
        <ele>69</ele>
        <time>2025-05-13T12:13:06Z</time>
      </trkpt>
      <trkpt lat="47.54609" lon="-2.91008">
        <ele>70</ele>
        <time>2025-05-13T12:13:07Z</time>
      </trkpt>
      <trkpt lat="47.5461" lon="-2.91013">
        <ele>70</ele>
        <time>2025-05-13T12:13:08Z</time>
      </trkpt>
      <trkpt lat="47.5461" lon="-2.91017">
        <ele>70</ele>
        <time>2025-05-13T12:13:09Z</time>
      </trkpt>
      <trkpt lat="47.54611" lon="-2.91022">
        <ele>70</ele>
        <time>2025-05-13T12:13:10Z</time>
      </trkpt>
      <trkpt lat="47.54612" lon="-2.91027">
        <ele>70</ele>
        <time>2025-05-13T12:13:11Z</time>
      </trkpt>
      <trkpt lat="47.54613" lon="-2.91031">
        <ele>71</ele>
        <time>2025-05-13T12:13:12Z</time>
      </trkpt>
      <trkpt lat="47.54614" lon="-2.91036">
        <ele>71</ele>
        <time>2025-05-13T12:13:13Z</time>
      </trkpt>
      <trkpt lat="47.54615" lon="-2.9104">
        <ele>71</ele>
        <time>2025-05-13T12:13:14Z</time>
      </trkpt>
      <trkpt lat="47.54616" lon="-2.91045">
        <ele>71</ele>
        <time>2025-05-13T12:13:15Z</time>
      </trkpt>
      <trkpt lat="47.54617" lon="-2.91049">
        <ele>71</ele>
        <time>2025-05-13T12:13:16Z</time>
      </trkpt>
      <trkpt lat="47.54619" lon="-2.91053">
        <ele>71</ele>
        <time>2025-05-13T12:13:17Z</time>
      </trkpt>
      <trkpt lat="47.5462" lon="-2.91057">
        <ele>72</ele>
        <time>2025-05-13T12:13:18Z</time>
      </trkpt>
      <trkpt lat="47.54622" lon="-2.91061">
        <ele>72</ele>
        <time>2025-05-13T12:13:19Z</time>
      </trkpt>
      <trkpt lat="47.54623" lon="-2.91064">
        <ele>72</ele>
        <time>2025-05-13T12:13:20Z</time>
      </trkpt>
      <trkpt lat="47.54625" lon="-2.91068">
        <ele>71</ele>
        <time>2025-05-13T12:13:21Z</time>
      </trkpt>
      <trkpt lat="47.54625" lon="-2.91072">
        <ele>71</ele>
        <time>2025-05-13T12:13:22Z</time>
      </trkpt>
      <trkpt lat="47.54625" lon="-2.91076">
        <ele>71</ele>
        <time>2025-05-13T12:13:23Z</time>
      </trkpt>
      <trkpt lat="47.54626" lon="-2.9108">
        <ele>71</ele>
        <time>2025-05-13T12:13:24Z</time>
      </trkpt>
      <trkpt lat="47.54628" lon="-2.91085">
        <ele>71</ele>
        <time>2025-05-13T12:13:25Z</time>
      </trkpt>
      <trkpt lat="47.54631" lon="-2.91088">
        <ele>71</ele>
        <time>2025-05-13T12:13:26Z</time>
      </trkpt>
      <trkpt lat="47.54633" lon="-2.91091">
        <ele>71</ele>
        <time>2025-05-13T12:13:27Z</time>
      </trkpt>
      <trkpt lat="47.54635" lon="-2.91095">
        <ele>70</ele>
        <time>2025-05-13T12:13:28Z</time>
      </trkpt>
      <trkpt lat="47.54637" lon="-2.911">
        <ele>70</ele>
        <time>2025-05-13T12:13:29Z</time>
      </trkpt>
      <trkpt lat="47.54638" lon="-2.91105">
        <ele>71</ele>
        <time>2025-05-13T12:13:30Z</time>
      </trkpt>
      <trkpt lat="47.5464" lon="-2.91109">
        <ele>70</ele>
        <time>2025-05-13T12:13:31Z</time>
      </trkpt>
      <trkpt lat="47.54641" lon="-2.91113">
        <ele>71</ele>
        <time>2025-05-13T12:13:32Z</time>
      </trkpt>
      <trkpt lat="47.54643" lon="-2.91117">
        <ele>71</ele>
        <time>2025-05-13T12:13:33Z</time>
      </trkpt>
      <trkpt lat="47.54646" lon="-2.9112">
        <ele>71</ele>
        <time>2025-05-13T12:13:34Z</time>
      </trkpt>
      <trkpt lat="47.54648" lon="-2.91123">
        <ele>71</ele>
        <time>2025-05-13T12:13:35Z</time>
      </trkpt>
      <trkpt lat="47.5465" lon="-2.91127">
        <ele>71</ele>
        <time>2025-05-13T12:13:36Z</time>
      </trkpt>
      <trkpt lat="47.54652" lon="-2.91131">
        <ele>70</ele>
        <time>2025-05-13T12:13:37Z</time>
      </trkpt>
      <trkpt lat="47.54653" lon="-2.91134">
        <ele>70</ele>
        <time>2025-05-13T12:13:38Z</time>
      </trkpt>
      <trkpt lat="47.54655" lon="-2.91138">
        <ele>71</ele>
        <time>2025-05-13T12:13:39Z</time>
      </trkpt>
      <trkpt lat="47.54656" lon="-2.91142">
        <ele>71</ele>
        <time>2025-05-13T12:13:40Z</time>
      </trkpt>
      <trkpt lat="47.54658" lon="-2.91146">
        <ele>71</ele>
        <time>2025-05-13T12:13:41Z</time>
      </trkpt>
      <trkpt lat="47.54659" lon="-2.9115">
        <ele>72</ele>
        <time>2025-05-13T12:13:42Z</time>
      </trkpt>
      <trkpt lat="47.5466" lon="-2.91154">
        <ele>72</ele>
        <time>2025-05-13T12:13:43Z</time>
      </trkpt>
      <trkpt lat="47.54662" lon="-2.91158">
        <ele>73</ele>
        <time>2025-05-13T12:13:44Z</time>
      </trkpt>
      <trkpt lat="47.54663" lon="-2.91162">
        <ele>73</ele>
        <time>2025-05-13T12:13:45Z</time>
      </trkpt>
      <trkpt lat="47.54664" lon="-2.91166">
        <ele>73</ele>
        <time>2025-05-13T12:13:46Z</time>
      </trkpt>
      <trkpt lat="47.54665" lon="-2.9117">
        <ele>74</ele>
        <time>2025-05-13T12:13:47Z</time>
      </trkpt>
      <trkpt lat="47.54665" lon="-2.91174">
        <ele>74</ele>
        <time>2025-05-13T12:13:48Z</time>
      </trkpt>
      <trkpt lat="47.54665" lon="-2.91178">
        <ele>74</ele>
        <time>2025-05-13T12:13:49Z</time>
      </trkpt>
      <trkpt lat="47.54666" lon="-2.91183">
        <ele>74</ele>
        <time>2025-05-13T12:13:50Z</time>
      </trkpt>
      <trkpt lat="47.54667" lon="-2.91187">
        <ele>74</ele>
        <time>2025-05-13T12:13:51Z</time>
      </trkpt>
      <trkpt lat="47.54667" lon="-2.91192">
        <ele>73</ele>
        <time>2025-05-13T12:13:52Z</time>
      </trkpt>
      <trkpt lat="47.54668" lon="-2.91198">
        <ele>73</ele>
        <time>2025-05-13T12:13:53Z</time>
      </trkpt>
      <trkpt lat="47.54668" lon="-2.91203">
        <ele>73</ele>
        <time>2025-05-13T12:13:54Z</time>
      </trkpt>
      <trkpt lat="47.54668" lon="-2.91208">
        <ele>72</ele>
        <time>2025-05-13T12:13:55Z</time>
      </trkpt>
      <trkpt lat="47.54668" lon="-2.91213">
        <ele>72</ele>
        <time>2025-05-13T12:13:56Z</time>
      </trkpt>
      <trkpt lat="47.54668" lon="-2.91218">
        <ele>71</ele>
        <time>2025-05-13T12:13:57Z</time>
      </trkpt>
      <trkpt lat="47.54668" lon="-2.91223">
        <ele>71</ele>
        <time>2025-05-13T12:13:58Z</time>
      </trkpt>
      <trkpt lat="47.54668" lon="-2.91228">
        <ele>71</ele>
        <time>2025-05-13T12:13:59Z</time>
      </trkpt>
      <trkpt lat="47.54668" lon="-2.91234">
        <ele>70</ele>
        <time>2025-05-13T12:14:00Z</time>
      </trkpt>
      <trkpt lat="47.54667" lon="-2.9124">
        <ele>70</ele>
        <time>2025-05-13T12:14:01Z</time>
      </trkpt>
      <trkpt lat="47.54666" lon="-2.91244">
        <ele>69</ele>
        <time>2025-05-13T12:14:02Z</time>
      </trkpt>
      <trkpt lat="47.54666" lon="-2.91249">
        <ele>69</ele>
        <time>2025-05-13T12:14:03Z</time>
      </trkpt>
      <trkpt lat="47.54665" lon="-2.91253">
        <ele>69</ele>
        <time>2025-05-13T12:14:04Z</time>
      </trkpt>
      <trkpt lat="47.54664" lon="-2.91257">
        <ele>69</ele>
        <time>2025-05-13T12:14:05Z</time>
      </trkpt>
      <trkpt lat="47.54663" lon="-2.91261">
        <ele>69</ele>
        <time>2025-05-13T12:14:06Z</time>
      </trkpt>
      <trkpt lat="47.54662" lon="-2.91266">
        <ele>69</ele>
        <time>2025-05-13T12:14:07Z</time>
      </trkpt>
      <trkpt lat="47.5466" lon="-2.91271">
        <ele>69</ele>
        <time>2025-05-13T12:14:08Z</time>
      </trkpt>
      <trkpt lat="47.54659" lon="-2.91276">
        <ele>70</ele>
        <time>2025-05-13T12:14:09Z</time>
      </trkpt>
      <trkpt lat="47.54657" lon="-2.91281">
        <ele>69</ele>
        <time>2025-05-13T12:14:10Z</time>
      </trkpt>
      <trkpt lat="47.54656" lon="-2.91285">
        <ele>69</ele>
        <time>2025-05-13T12:14:11Z</time>
      </trkpt>
      <trkpt lat="47.54654" lon="-2.91291">
        <ele>68</ele>
        <time>2025-05-13T12:14:12Z</time>
      </trkpt>
      <trkpt lat="47.54652" lon="-2.91296">
        <ele>68</ele>
        <time>2025-05-13T12:14:13Z</time>
      </trkpt>
      <trkpt lat="47.5465" lon="-2.91301">
        <ele>68</ele>
        <time>2025-05-13T12:14:14Z</time>
      </trkpt>
      <trkpt lat="47.54649" lon="-2.91306">
        <ele>68</ele>
        <time>2025-05-13T12:14:15Z</time>
      </trkpt>
      <trkpt lat="47.54647" lon="-2.91312">
        <ele>67</ele>
        <time>2025-05-13T12:14:16Z</time>
      </trkpt>
      <trkpt lat="47.54646" lon="-2.91317">
        <ele>67</ele>
        <time>2025-05-13T12:14:17Z</time>
      </trkpt>
      <trkpt lat="47.54643" lon="-2.91323">
        <ele>67</ele>
        <time>2025-05-13T12:14:18Z</time>
      </trkpt>
      <trkpt lat="47.54641" lon="-2.91329">
        <ele>66</ele>
        <time>2025-05-13T12:14:19Z</time>
      </trkpt>
      <trkpt lat="47.54639" lon="-2.91334">
        <ele>66</ele>
        <time>2025-05-13T12:14:20Z</time>
      </trkpt>
      <trkpt lat="47.54637" lon="-2.9134">
        <ele>66</ele>
        <time>2025-05-13T12:14:21Z</time>
      </trkpt>
      <trkpt lat="47.54635" lon="-2.91346">
        <ele>65</ele>
        <time>2025-05-13T12:14:22Z</time>
      </trkpt>
      <trkpt lat="47.54633" lon="-2.91352">
        <ele>66</ele>
        <time>2025-05-13T12:14:23Z</time>
      </trkpt>
      <trkpt lat="47.54632" lon="-2.91358">
        <ele>65</ele>
        <time>2025-05-13T12:14:24Z</time>
      </trkpt>
      <trkpt lat="47.5463" lon="-2.91364">
        <ele>64</ele>
        <time>2025-05-13T12:14:25Z</time>
      </trkpt>
      <trkpt lat="47.54628" lon="-2.9137">
        <ele>64</ele>
        <time>2025-05-13T12:14:26Z</time>
      </trkpt>
      <trkpt lat="47.54627" lon="-2.91377">
        <ele>64</ele>
        <time>2025-05-13T12:14:27Z</time>
      </trkpt>
      <trkpt lat="47.54627" lon="-2.91384">
        <ele>64</ele>
        <time>2025-05-13T12:14:28Z</time>
      </trkpt>
      <trkpt lat="47.54628" lon="-2.9139">
        <ele>64</ele>
        <time>2025-05-13T12:14:29Z</time>
      </trkpt>
      <trkpt lat="47.5463" lon="-2.91397">
        <ele>64</ele>
        <time>2025-05-13T12:14:30Z</time>
      </trkpt>
      <trkpt lat="47.54632" lon="-2.91403">
        <ele>64</ele>
        <time>2025-05-13T12:14:31Z</time>
      </trkpt>
      <trkpt lat="47.54635" lon="-2.91408">
        <ele>64</ele>
        <time>2025-05-13T12:14:32Z</time>
      </trkpt>
      <trkpt lat="47.54639" lon="-2.91413">
        <ele>64</ele>
        <time>2025-05-13T12:14:33Z</time>
      </trkpt>
      <trkpt lat="47.54642" lon="-2.91418">
        <ele>64</ele>
        <time>2025-05-13T12:14:34Z</time>
      </trkpt>
      <trkpt lat="47.54645" lon="-2.91423">
        <ele>64</ele>
        <time>2025-05-13T12:14:35Z</time>
      </trkpt>
      <trkpt lat="47.54649" lon="-2.91427">
        <ele>64</ele>
        <time>2025-05-13T12:14:36Z</time>
      </trkpt>
      <trkpt lat="47.54653" lon="-2.91431">
        <ele>64</ele>
        <time>2025-05-13T12:14:37Z</time>
      </trkpt>
      <trkpt lat="47.54657" lon="-2.91433">
        <ele>65</ele>
        <time>2025-05-13T12:14:38Z</time>
      </trkpt>
      <trkpt lat="47.5466" lon="-2.91437">
        <ele>65</ele>
        <time>2025-05-13T12:14:39Z</time>
      </trkpt>
      <trkpt lat="47.54663" lon="-2.91441">
        <ele>66</ele>
        <time>2025-05-13T12:14:40Z</time>
      </trkpt>
      <trkpt lat="47.54666" lon="-2.91445">
        <ele>66</ele>
        <time>2025-05-13T12:14:41Z</time>
      </trkpt>
      <trkpt lat="47.54669" lon="-2.91449">
        <ele>66</ele>
        <time>2025-05-13T12:14:42Z</time>
      </trkpt>
      <trkpt lat="47.54672" lon="-2.91451">
        <ele>66</ele>
        <time>2025-05-13T12:14:43Z</time>
      </trkpt>
      <trkpt lat="47.54675" lon="-2.91455">
        <ele>66</ele>
        <time>2025-05-13T12:14:44Z</time>
      </trkpt>
      <trkpt lat="47.54678" lon="-2.91458">
        <ele>67</ele>
        <time>2025-05-13T12:14:45Z</time>
      </trkpt>
      <trkpt lat="47.54681" lon="-2.91461">
        <ele>66</ele>
        <time>2025-05-13T12:14:46Z</time>
      </trkpt>
      <trkpt lat="47.54683" lon="-2.91464">
        <ele>66</ele>
        <time>2025-05-13T12:14:47Z</time>
      </trkpt>
      <trkpt lat="47.54686" lon="-2.91467">
        <ele>66</ele>
        <time>2025-05-13T12:14:48Z</time>
      </trkpt>
      <trkpt lat="47.54689" lon="-2.9147">
        <ele>65</ele>
        <time>2025-05-13T12:14:49Z</time>
      </trkpt>
      <trkpt lat="47.54691" lon="-2.91473">
        <ele>65</ele>
        <time>2025-05-13T12:14:50Z</time>
      </trkpt>
      <trkpt lat="47.54693" lon="-2.91477">
        <ele>65</ele>
        <time>2025-05-13T12:14:51Z</time>
      </trkpt>
      <trkpt lat="47.54695" lon="-2.91481">
        <ele>64</ele>
        <time>2025-05-13T12:14:52Z</time>
      </trkpt>
      <trkpt lat="47.54696" lon="-2.91485">
        <ele>64</ele>
        <time>2025-05-13T12:14:53Z</time>
      </trkpt>
      <trkpt lat="47.54698" lon="-2.91489">
        <ele>64</ele>
        <time>2025-05-13T12:14:54Z</time>
      </trkpt>
      <trkpt lat="47.54701" lon="-2.91492">
        <ele>65</ele>
        <time>2025-05-13T12:14:55Z</time>
      </trkpt>
      <trkpt lat="47.54704" lon="-2.91495">
        <ele>64</ele>
        <time>2025-05-13T12:14:56Z</time>
      </trkpt>
      <trkpt lat="47.54707" lon="-2.91498">
        <ele>64</ele>
        <time>2025-05-13T12:14:57Z</time>
      </trkpt>
      <trkpt lat="47.54711" lon="-2.91502">
        <ele>64</ele>
        <time>2025-05-13T12:14:58Z</time>
      </trkpt>
      <trkpt lat="47.54715" lon="-2.91506">
        <ele>64</ele>
        <time>2025-05-13T12:14:59Z</time>
      </trkpt>
      <trkpt lat="47.54719" lon="-2.9151">
        <ele>64</ele>
        <time>2025-05-13T12:15:00Z</time>
      </trkpt>
      <trkpt lat="47.54722" lon="-2.91515">
        <ele>64</ele>
        <time>2025-05-13T12:15:01Z</time>
      </trkpt>
      <trkpt lat="47.54726" lon="-2.91519">
        <ele>63</ele>
        <time>2025-05-13T12:15:02Z</time>
      </trkpt>
      <trkpt lat="47.5473" lon="-2.91524">
        <ele>63</ele>
        <time>2025-05-13T12:15:03Z</time>
      </trkpt>
      <trkpt lat="47.54734" lon="-2.9153">
        <ele>63</ele>
        <time>2025-05-13T12:15:04Z</time>
      </trkpt>
      <trkpt lat="47.54739" lon="-2.91535">
        <ele>63</ele>
        <time>2025-05-13T12:15:05Z</time>
      </trkpt>
      <trkpt lat="47.54743" lon="-2.91541">
        <ele>63</ele>
        <time>2025-05-13T12:15:06Z</time>
      </trkpt>
      <trkpt lat="47.54748" lon="-2.91546">
        <ele>62</ele>
        <time>2025-05-13T12:15:07Z</time>
      </trkpt>
      <trkpt lat="47.54753" lon="-2.91552">
        <ele>61</ele>
        <time>2025-05-13T12:15:08Z</time>
      </trkpt>
      <trkpt lat="47.54758" lon="-2.91557">
        <ele>60</ele>
        <time>2025-05-13T12:15:09Z</time>
      </trkpt>
      <trkpt lat="47.54763" lon="-2.91563">
        <ele>60</ele>
        <time>2025-05-13T12:15:10Z</time>
      </trkpt>
      <trkpt lat="47.54769" lon="-2.91568">
        <ele>59</ele>
        <time>2025-05-13T12:15:11Z</time>
      </trkpt>
      <trkpt lat="47.54775" lon="-2.91572">
        <ele>59</ele>
        <time>2025-05-13T12:15:12Z</time>
      </trkpt>
      <trkpt lat="47.54779" lon="-2.91577">
        <ele>59</ele>
        <time>2025-05-13T12:15:13Z</time>
      </trkpt>
      <trkpt lat="47.54784" lon="-2.91582">
        <ele>59</ele>
        <time>2025-05-13T12:15:14Z</time>
      </trkpt>
      <trkpt lat="47.54789" lon="-2.91589">
        <ele>58</ele>
        <time>2025-05-13T12:15:15Z</time>
      </trkpt>
      <trkpt lat="47.54794" lon="-2.91595">
        <ele>58</ele>
        <time>2025-05-13T12:15:16Z</time>
      </trkpt>
      <trkpt lat="47.54799" lon="-2.916">
        <ele>58</ele>
        <time>2025-05-13T12:15:17Z</time>
      </trkpt>
      <trkpt lat="47.54804" lon="-2.91605">
        <ele>57</ele>
        <time>2025-05-13T12:15:18Z</time>
      </trkpt>
      <trkpt lat="47.54808" lon="-2.9161">
        <ele>57</ele>
        <time>2025-05-13T12:15:19Z</time>
      </trkpt>
      <trkpt lat="47.54813" lon="-2.91616">
        <ele>57</ele>
        <time>2025-05-13T12:15:20Z</time>
      </trkpt>
      <trkpt lat="47.54818" lon="-2.91621">
        <ele>57</ele>
        <time>2025-05-13T12:15:21Z</time>
      </trkpt>
      <trkpt lat="47.54823" lon="-2.91627">
        <ele>57</ele>
        <time>2025-05-13T12:15:22Z</time>
      </trkpt>
      <trkpt lat="47.54827" lon="-2.91632">
        <ele>57</ele>
        <time>2025-05-13T12:15:23Z</time>
      </trkpt>
      <trkpt lat="47.54832" lon="-2.91637">
        <ele>58</ele>
        <time>2025-05-13T12:15:24Z</time>
      </trkpt>
      <trkpt lat="47.54836" lon="-2.91642">
        <ele>58</ele>
        <time>2025-05-13T12:15:25Z</time>
      </trkpt>
      <trkpt lat="47.54841" lon="-2.91646">
        <ele>59</ele>
        <time>2025-05-13T12:15:26Z</time>
      </trkpt>
      <trkpt lat="47.54845" lon="-2.91651">
        <ele>59</ele>
        <time>2025-05-13T12:15:27Z</time>
      </trkpt>
      <trkpt lat="47.54849" lon="-2.91655">
        <ele>58</ele>
        <time>2025-05-13T12:15:28Z</time>
      </trkpt>
      <trkpt lat="47.54853" lon="-2.91659">
        <ele>58</ele>
        <time>2025-05-13T12:15:29Z</time>
      </trkpt>
      <trkpt lat="47.54856" lon="-2.91663">
        <ele>58</ele>
        <time>2025-05-13T12:15:30Z</time>
      </trkpt>
      <trkpt lat="47.5486" lon="-2.91666">
        <ele>57</ele>
        <time>2025-05-13T12:15:31Z</time>
      </trkpt>
      <trkpt lat="47.54863" lon="-2.9167">
        <ele>57</ele>
        <time>2025-05-13T12:15:32Z</time>
      </trkpt>
      <trkpt lat="47.54866" lon="-2.91674">
        <ele>57</ele>
        <time>2025-05-13T12:15:33Z</time>
      </trkpt>
      <trkpt lat="47.54868" lon="-2.91677">
        <ele>57</ele>
        <time>2025-05-13T12:15:34Z</time>
      </trkpt>
      <trkpt lat="47.5487" lon="-2.9168">
        <ele>57</ele>
        <time>2025-05-13T12:15:35Z</time>
      </trkpt>
      <trkpt lat="47.54872" lon="-2.91682">
        <ele>57</ele>
        <time>2025-05-13T12:15:36Z</time>
      </trkpt>
      <trkpt lat="47.54874" lon="-2.91682">
        <ele>58</ele>
        <time>2025-05-13T12:15:37Z</time>
      </trkpt>
      <trkpt lat="47.54875" lon="-2.91682">
        <ele>58</ele>
        <time>2025-05-13T12:15:38Z</time>
      </trkpt>
      <trkpt lat="47.54875" lon="-2.91681">
        <ele>58</ele>
        <time>2025-05-13T12:15:39Z</time>
      </trkpt>
      <trkpt lat="47.54876" lon="-2.9168">
        <ele>58</ele>
        <time>2025-05-13T12:15:40Z</time>
      </trkpt>
      <trkpt lat="47.54876" lon="-2.9168">
        <ele>58</ele>
        <time>2025-05-13T12:15:41Z</time>
      </trkpt>
      <trkpt lat="47.54876" lon="-2.9168">
        <ele>58</ele>
        <time>2025-05-13T12:15:42Z</time>
      </trkpt>
      <trkpt lat="47.54876" lon="-2.9168">
        <ele>58</ele>
        <time>2025-05-13T12:15:43Z</time>
      </trkpt>
      <trkpt lat="47.54876" lon="-2.9168">
        <ele>58</ele>
        <time>2025-05-13T12:15:44Z</time>
      </trkpt>
      <trkpt lat="47.54876" lon="-2.9168">
        <ele>58</ele>
        <time>2025-05-13T12:15:45Z</time>
      </trkpt>
      <trkpt lat="47.54876" lon="-2.9168">
        <ele>58</ele>
        <time>2025-05-13T12:15:46Z</time>
      </trkpt>
      <trkpt lat="47.54876" lon="-2.9168">
        <ele>58</ele>
        <time>2025-05-13T12:15:47Z</time>
      </trkpt>
      <trkpt lat="47.54876" lon="-2.9168">
        <ele>58</ele>
        <time>2025-05-13T12:15:48Z</time>
      </trkpt>
      <trkpt lat="47.54876" lon="-2.9168">
        <ele>58</ele>
        <time>2025-05-13T12:15:49Z</time>
      </trkpt>
      <trkpt lat="47.54876" lon="-2.9168">
        <ele>58</ele>
        <time>2025-05-13T12:15:50Z</time>
      </trkpt>
      <trkpt lat="47.54876" lon="-2.9168">
        <ele>58</ele>
        <time>2025-05-13T12:15:51Z</time>
      </trkpt>
      <trkpt lat="47.54876" lon="-2.9168">
        <ele>58</ele>
        <time>2025-05-13T12:15:52Z</time>
      </trkpt>
      <trkpt lat="47.54876" lon="-2.9168">
        <ele>58</ele>
        <time>2025-05-13T12:15:53Z</time>
      </trkpt>
      <trkpt lat="47.54876" lon="-2.9168">
        <ele>58</ele>
        <time>2025-05-13T12:15:54Z</time>
      </trkpt>
      <trkpt lat="47.54876" lon="-2.9168">
        <ele>58</ele>
        <time>2025-05-13T12:15:55Z</time>
      </trkpt>
      <trkpt lat="47.54876" lon="-2.9168">
        <ele>58</ele>
        <time>2025-05-13T12:15:56Z</time>
      </trkpt>
      <trkpt lat="47.54876" lon="-2.9168">
        <ele>58</ele>
        <time>2025-05-13T12:15:57Z</time>
      </trkpt>
      <trkpt lat="47.54876" lon="-2.9168">
        <ele>58</ele>
        <time>2025-05-13T12:15:58Z</time>
      </trkpt>
      <trkpt lat="47.54876" lon="-2.9168">
        <ele>58</ele>
        <time>2025-05-13T12:15:59Z</time>
      </trkpt>
      <trkpt lat="47.54876" lon="-2.9168">
        <ele>58</ele>
        <time>2025-05-13T12:16:00Z</time>
      </trkpt>
      <trkpt lat="47.54876" lon="-2.9168">
        <ele>58</ele>
        <time>2025-05-13T12:16:01Z</time>
      </trkpt>
      <trkpt lat="47.54876" lon="-2.9168">
        <ele>58</ele>
        <time>2025-05-13T12:16:02Z</time>
      </trkpt>
      <trkpt lat="47.54876" lon="-2.9168">
        <ele>58</ele>
        <time>2025-05-13T12:16:03Z</time>
      </trkpt>
      <trkpt lat="47.54876" lon="-2.9168">
        <ele>58</ele>
        <time>2025-05-13T12:16:04Z</time>
      </trkpt>
      <trkpt lat="47.54876" lon="-2.9168">
        <ele>58</ele>
        <time>2025-05-13T12:16:05Z</time>
      </trkpt>
      <trkpt lat="47.54876" lon="-2.9168">
        <ele>58</ele>
        <time>2025-05-13T12:16:06Z</time>
      </trkpt>
      <trkpt lat="47.54876" lon="-2.9168">
        <ele>58</ele>
        <time>2025-05-13T12:16:07Z</time>
      </trkpt>
      <trkpt lat="47.54876" lon="-2.9168">
        <ele>58</ele>
        <time>2025-05-13T12:16:08Z</time>
      </trkpt>
      <trkpt lat="47.54876" lon="-2.9168">
        <ele>58</ele>
        <time>2025-05-13T12:16:09Z</time>
      </trkpt>
      <trkpt lat="47.54876" lon="-2.9168">
        <ele>58</ele>
        <time>2025-05-13T12:16:10Z</time>
      </trkpt>
      <trkpt lat="47.54876" lon="-2.9168">
        <ele>58</ele>
        <time>2025-05-13T12:16:11Z</time>
      </trkpt>
      <trkpt lat="47.54876" lon="-2.9168">
        <ele>58</ele>
        <time>2025-05-13T12:16:12Z</time>
      </trkpt>
      <trkpt lat="47.54876" lon="-2.9168">
        <ele>58</ele>
        <time>2025-05-13T12:16:13Z</time>
      </trkpt>
      <trkpt lat="47.54876" lon="-2.9168">
        <ele>58</ele>
        <time>2025-05-13T12:16:14Z</time>
      </trkpt>
      <trkpt lat="47.54876" lon="-2.9168">
        <ele>58</ele>
        <time>2025-05-13T12:16:15Z</time>
      </trkpt>
      <trkpt lat="47.54876" lon="-2.9168">
        <ele>58</ele>
        <time>2025-05-13T12:16:16Z</time>
      </trkpt>
      <trkpt lat="47.54876" lon="-2.9168">
        <ele>58</ele>
        <time>2025-05-13T12:16:17Z</time>
      </trkpt>
      <trkpt lat="47.54876" lon="-2.9168">
        <ele>58</ele>
        <time>2025-05-13T12:16:18Z</time>
      </trkpt>
      <trkpt lat="47.54876" lon="-2.9168">
        <ele>58</ele>
        <time>2025-05-13T12:16:19Z</time>
      </trkpt>
      <trkpt lat="47.54876" lon="-2.9168">
        <ele>58</ele>
        <time>2025-05-13T12:16:20Z</time>
      </trkpt>
      <trkpt lat="47.54876" lon="-2.9168">
        <ele>58</ele>
        <time>2025-05-13T12:16:21Z</time>
      </trkpt>
      <trkpt lat="47.54876" lon="-2.9168">
        <ele>58</ele>
        <time>2025-05-13T12:16:22Z</time>
      </trkpt>
      <trkpt lat="47.54876" lon="-2.9168">
        <ele>58</ele>
        <time>2025-05-13T12:16:23Z</time>
      </trkpt>
      <trkpt lat="47.54876" lon="-2.9168">
        <ele>58</ele>
        <time>2025-05-13T12:16:24Z</time>
      </trkpt>
      <trkpt lat="47.54876" lon="-2.9168">
        <ele>58</ele>
        <time>2025-05-13T12:16:25Z</time>
      </trkpt>
      <trkpt lat="47.54876" lon="-2.9168">
        <ele>58</ele>
        <time>2025-05-13T12:16:26Z</time>
      </trkpt>
      <trkpt lat="47.54876" lon="-2.9168">
        <ele>58</ele>
        <time>2025-05-13T12:16:27Z</time>
      </trkpt>
      <trkpt lat="47.54876" lon="-2.9168">
        <ele>58</ele>
        <time>2025-05-13T12:16:28Z</time>
      </trkpt>
      <trkpt lat="47.54876" lon="-2.9168">
        <ele>58</ele>
        <time>2025-05-13T12:16:29Z</time>
      </trkpt>
      <trkpt lat="47.54876" lon="-2.9168">
        <ele>58</ele>
        <time>2025-05-13T12:16:30Z</time>
      </trkpt>
      <trkpt lat="47.54876" lon="-2.9168">
        <ele>58</ele>
        <time>2025-05-13T12:16:31Z</time>
      </trkpt>
      <trkpt lat="47.54876" lon="-2.9168">
        <ele>58</ele>
        <time>2025-05-13T12:16:32Z</time>
      </trkpt>
      <trkpt lat="47.54876" lon="-2.9168">
        <ele>58</ele>
        <time>2025-05-13T12:16:33Z</time>
      </trkpt>
      <trkpt lat="47.54876" lon="-2.9168">
        <ele>58</ele>
        <time>2025-05-13T12:16:34Z</time>
      </trkpt>
      <trkpt lat="47.54876" lon="-2.9168">
        <ele>58</ele>
        <time>2025-05-13T12:16:35Z</time>
      </trkpt>
      <trkpt lat="47.54876" lon="-2.9168">
        <ele>58</ele>
        <time>2025-05-13T12:16:36Z</time>
      </trkpt>
      <trkpt lat="47.54876" lon="-2.9168">
        <ele>58</ele>
        <time>2025-05-13T12:16:37Z</time>
      </trkpt>
      <trkpt lat="47.54876" lon="-2.9168">
        <ele>58</ele>
        <time>2025-05-13T12:16:38Z</time>
      </trkpt>
      <trkpt lat="47.54876" lon="-2.9168">
        <ele>58</ele>
        <time>2025-05-13T12:16:39Z</time>
      </trkpt>
      <trkpt lat="47.54876" lon="-2.9168">
        <ele>58</ele>
        <time>2025-05-13T12:16:40Z</time>
      </trkpt>
      <trkpt lat="47.54876" lon="-2.9168">
        <ele>58</ele>
        <time>2025-05-13T12:16:41Z</time>
      </trkpt>
      <trkpt lat="47.54876" lon="-2.9168">
        <ele>58</ele>
        <time>2025-05-13T12:16:42Z</time>
      </trkpt>
      <trkpt lat="47.54876" lon="-2.9168">
        <ele>58</ele>
        <time>2025-05-13T12:16:43Z</time>
      </trkpt>
      <trkpt lat="47.54876" lon="-2.9168">
        <ele>58</ele>
        <time>2025-05-13T12:16:44Z</time>
      </trkpt>
      <trkpt lat="47.54876" lon="-2.9168">
        <ele>58</ele>
        <time>2025-05-13T12:16:45Z</time>
      </trkpt>
      <trkpt lat="47.54876" lon="-2.9168">
        <ele>58</ele>
        <time>2025-05-13T12:16:46Z</time>
      </trkpt>
      <trkpt lat="47.54876" lon="-2.9168">
        <ele>58</ele>
        <time>2025-05-13T12:16:47Z</time>
      </trkpt>
      <trkpt lat="47.54876" lon="-2.9168">
        <ele>58</ele>
        <time>2025-05-13T12:16:48Z</time>
      </trkpt>
      <trkpt lat="47.54876" lon="-2.9168">
        <ele>58</ele>
        <time>2025-05-13T12:16:49Z</time>
      </trkpt>
      <trkpt lat="47.54876" lon="-2.9168">
        <ele>58</ele>
        <time>2025-05-13T12:16:50Z</time>
      </trkpt>
      <trkpt lat="47.54876" lon="-2.9168">
        <ele>58</ele>
        <time>2025-05-13T12:16:51Z</time>
      </trkpt>
      <trkpt lat="47.54876" lon="-2.9168">
        <ele>58</ele>
        <time>2025-05-13T12:16:52Z</time>
      </trkpt>
      <trkpt lat="47.54876" lon="-2.9168">
        <ele>58</ele>
        <time>2025-05-13T12:16:53Z</time>
      </trkpt>
      <trkpt lat="47.54876" lon="-2.9168">
        <ele>58</ele>
        <time>2025-05-13T12:16:54Z</time>
      </trkpt>
      <trkpt lat="47.54876" lon="-2.9168">
        <ele>58</ele>
        <time>2025-05-13T12:16:55Z</time>
      </trkpt>
      <trkpt lat="47.54876" lon="-2.9168">
        <ele>58</ele>
        <time>2025-05-13T12:16:56Z</time>
      </trkpt>
      <trkpt lat="47.54876" lon="-2.9168">
        <ele>58</ele>
        <time>2025-05-13T12:37:13Z</time>
      </trkpt>
      <trkpt lat="47.54876" lon="-2.9168">
        <ele>58</ele>
        <time>2025-05-13T12:37:14Z</time>
      </trkpt>
      <trkpt lat="47.54876" lon="-2.9168">
        <ele>58</ele>
        <time>2025-05-13T12:37:15Z</time>
      </trkpt>
      <trkpt lat="47.54876" lon="-2.9168">
        <ele>58</ele>
        <time>2025-05-13T12:37:16Z</time>
      </trkpt>
      <trkpt lat="47.54876" lon="-2.9168">
        <ele>58</ele>
        <time>2025-05-13T12:37:17Z</time>
      </trkpt>
      <trkpt lat="47.54876" lon="-2.9168">
        <ele>58</ele>
        <time>2025-05-13T12:37:18Z</time>
      </trkpt>
      <trkpt lat="47.54876" lon="-2.9168">
        <ele>58</ele>
        <time>2025-05-13T12:37:19Z</time>
      </trkpt>
      <trkpt lat="47.54876" lon="-2.9168">
        <ele>58</ele>
        <time>2025-05-13T12:37:20Z</time>
      </trkpt>
      <trkpt lat="47.54876" lon="-2.9168">
        <ele>58</ele>
        <time>2025-05-13T12:37:21Z</time>
      </trkpt>
      <trkpt lat="47.54876" lon="-2.9168">
        <ele>58</ele>
        <time>2025-05-13T12:37:22Z</time>
      </trkpt>
      <trkpt lat="47.54876" lon="-2.9168">
        <ele>58</ele>
        <time>2025-05-13T12:37:23Z</time>
      </trkpt>
      <trkpt lat="47.54876" lon="-2.9168">
        <ele>58</ele>
        <time>2025-05-13T12:37:24Z</time>
      </trkpt>
      <trkpt lat="47.54876" lon="-2.9168">
        <ele>58</ele>
        <time>2025-05-13T12:37:25Z</time>
      </trkpt>
      <trkpt lat="47.54876" lon="-2.9168">
        <ele>58</ele>
        <time>2025-05-13T12:37:26Z</time>
      </trkpt>
      <trkpt lat="47.54874" lon="-2.91675">
        <ele>64</ele>
        <time>2025-05-13T12:37:27Z</time>
      </trkpt>
      <trkpt lat="47.54873" lon="-2.91673">
        <ele>63</ele>
        <time>2025-05-13T12:37:28Z</time>
      </trkpt>
      <trkpt lat="47.54871" lon="-2.91672">
        <ele>62</ele>
        <time>2025-05-13T12:37:29Z</time>
      </trkpt>
      <trkpt lat="47.5487" lon="-2.9167">
        <ele>61</ele>
        <time>2025-05-13T12:37:30Z</time>
      </trkpt>
      <trkpt lat="47.54868" lon="-2.91668">
        <ele>61</ele>
        <time>2025-05-13T12:37:31Z</time>
      </trkpt>
      <trkpt lat="47.54866" lon="-2.91666">
        <ele>61</ele>
        <time>2025-05-13T12:37:32Z</time>
      </trkpt>
      <trkpt lat="47.54864" lon="-2.91664">
        <ele>60</ele>
        <time>2025-05-13T12:37:33Z</time>
      </trkpt>
      <trkpt lat="47.54862" lon="-2.91663">
        <ele>60</ele>
        <time>2025-05-13T12:37:34Z</time>
      </trkpt>
      <trkpt lat="47.5486" lon="-2.9166">
        <ele>60</ele>
        <time>2025-05-13T12:37:35Z</time>
      </trkpt>
      <trkpt lat="47.54859" lon="-2.91658">
        <ele>60</ele>
        <time>2025-05-13T12:37:36Z</time>
      </trkpt>
      <trkpt lat="47.54858" lon="-2.91657">
        <ele>60</ele>
        <time>2025-05-13T12:37:37Z</time>
      </trkpt>
      <trkpt lat="47.54856" lon="-2.91655">
        <ele>60</ele>
        <time>2025-05-13T12:37:38Z</time>
      </trkpt>
      <trkpt lat="47.54855" lon="-2.91653">
        <ele>60</ele>
        <time>2025-05-13T12:37:39Z</time>
      </trkpt>
      <trkpt lat="47.54853" lon="-2.91651">
        <ele>60</ele>
        <time>2025-05-13T12:37:40Z</time>
      </trkpt>
      <trkpt lat="47.54851" lon="-2.91649">
        <ele>60</ele>
        <time>2025-05-13T12:37:41Z</time>
      </trkpt>
      <trkpt lat="47.5485" lon="-2.91648">
        <ele>59</ele>
        <time>2025-05-13T12:37:42Z</time>
      </trkpt>
      <trkpt lat="47.54848" lon="-2.91646">
        <ele>59</ele>
        <time>2025-05-13T12:37:43Z</time>
      </trkpt>
      <trkpt lat="47.54846" lon="-2.91644">
        <ele>60</ele>
        <time>2025-05-13T12:37:44Z</time>
      </trkpt>
      <trkpt lat="47.54844" lon="-2.91642">
        <ele>60</ele>
        <time>2025-05-13T12:37:45Z</time>
      </trkpt>
      <trkpt lat="47.54843" lon="-2.9164">
        <ele>59</ele>
        <time>2025-05-13T12:37:46Z</time>
      </trkpt>
      <trkpt lat="47.54841" lon="-2.91638">
        <ele>59</ele>
        <time>2025-05-13T12:37:47Z</time>
      </trkpt>
      <trkpt lat="47.54839" lon="-2.91637">
        <ele>58</ele>
        <time>2025-05-13T12:37:48Z</time>
      </trkpt>
      <trkpt lat="47.54837" lon="-2.91636">
        <ele>58</ele>
        <time>2025-05-13T12:37:49Z</time>
      </trkpt>
      <trkpt lat="47.54835" lon="-2.91634">
        <ele>58</ele>
        <time>2025-05-13T12:37:50Z</time>
      </trkpt>
      <trkpt lat="47.54834" lon="-2.91633">
        <ele>58</ele>
        <time>2025-05-13T12:37:51Z</time>
      </trkpt>
      <trkpt lat="47.54832" lon="-2.91632">
        <ele>58</ele>
        <time>2025-05-13T12:37:52Z</time>
      </trkpt>
      <trkpt lat="47.54831" lon="-2.9163">
        <ele>58</ele>
        <time>2025-05-13T12:37:53Z</time>
      </trkpt>
      <trkpt lat="47.54829" lon="-2.91628">
        <ele>58</ele>
        <time>2025-05-13T12:37:54Z</time>
      </trkpt>
      <trkpt lat="47.54827" lon="-2.91626">
        <ele>57</ele>
        <time>2025-05-13T12:37:55Z</time>
      </trkpt>
      <trkpt lat="47.54825" lon="-2.91625">
        <ele>57</ele>
        <time>2025-05-13T12:37:56Z</time>
      </trkpt>
      <trkpt lat="47.54823" lon="-2.91624">
        <ele>57</ele>
        <time>2025-05-13T12:37:57Z</time>
      </trkpt>
      <trkpt lat="47.54821" lon="-2.91622">
        <ele>57</ele>
        <time>2025-05-13T12:37:58Z</time>
      </trkpt>
      <trkpt lat="47.5482" lon="-2.9162">
        <ele>57</ele>
        <time>2025-05-13T12:37:59Z</time>
      </trkpt>
      <trkpt lat="47.54818" lon="-2.91618">
        <ele>57</ele>
        <time>2025-05-13T12:38:00Z</time>
      </trkpt>
      <trkpt lat="47.54817" lon="-2.91616">
        <ele>57</ele>
        <time>2025-05-13T12:38:01Z</time>
      </trkpt>
      <trkpt lat="47.54815" lon="-2.91614">
        <ele>57</ele>
        <time>2025-05-13T12:38:02Z</time>
      </trkpt>
      <trkpt lat="47.54814" lon="-2.91612">
        <ele>57</ele>
        <time>2025-05-13T12:38:03Z</time>
      </trkpt>
      <trkpt lat="47.54812" lon="-2.9161">
        <ele>57</ele>
        <time>2025-05-13T12:38:04Z</time>
      </trkpt>
      <trkpt lat="47.5481" lon="-2.91608">
        <ele>57</ele>
        <time>2025-05-13T12:38:05Z</time>
      </trkpt>
      <trkpt lat="47.54808" lon="-2.91606">
        <ele>57</ele>
        <time>2025-05-13T12:38:06Z</time>
      </trkpt>
      <trkpt lat="47.54806" lon="-2.91604">
        <ele>57</ele>
        <time>2025-05-13T12:38:07Z</time>
      </trkpt>
      <trkpt lat="47.54804" lon="-2.91602">
        <ele>57</ele>
        <time>2025-05-13T12:38:08Z</time>
      </trkpt>
      <trkpt lat="47.54802" lon="-2.916">
        <ele>57</ele>
        <time>2025-05-13T12:38:09Z</time>
      </trkpt>
      <trkpt lat="47.548" lon="-2.91598">
        <ele>56</ele>
        <time>2025-05-13T12:38:10Z</time>
      </trkpt>
      <trkpt lat="47.54798" lon="-2.91596">
        <ele>57</ele>
        <time>2025-05-13T12:38:11Z</time>
      </trkpt>
      <trkpt lat="47.54796" lon="-2.91594">
        <ele>57</ele>
        <time>2025-05-13T12:38:12Z</time>
      </trkpt>
      <trkpt lat="47.54794" lon="-2.91592">
        <ele>58</ele>
        <time>2025-05-13T12:38:13Z</time>
      </trkpt>
      <trkpt lat="47.54791" lon="-2.9159">
        <ele>58</ele>
        <time>2025-05-13T12:38:14Z</time>
      </trkpt>
      <trkpt lat="47.54789" lon="-2.91588">
        <ele>58</ele>
        <time>2025-05-13T12:38:15Z</time>
      </trkpt>
      <trkpt lat="47.54786" lon="-2.91585">
        <ele>58</ele>
        <time>2025-05-13T12:38:16Z</time>
      </trkpt>
      <trkpt lat="47.54784" lon="-2.91583">
        <ele>59</ele>
        <time>2025-05-13T12:38:17Z</time>
      </trkpt>
      <trkpt lat="47.54782" lon="-2.91581">
        <ele>59</ele>
        <time>2025-05-13T12:38:18Z</time>
      </trkpt>
      <trkpt lat="47.5478" lon="-2.91579">
        <ele>59</ele>
        <time>2025-05-13T12:38:19Z</time>
      </trkpt>
      <trkpt lat="47.54778" lon="-2.91576">
        <ele>59</ele>
        <time>2025-05-13T12:38:20Z</time>
      </trkpt>
      <trkpt lat="47.54776" lon="-2.91574">
        <ele>59</ele>
        <time>2025-05-13T12:38:21Z</time>
      </trkpt>
      <trkpt lat="47.54774" lon="-2.91572">
        <ele>59</ele>
        <time>2025-05-13T12:38:22Z</time>
      </trkpt>
      <trkpt lat="47.54772" lon="-2.91569">
        <ele>59</ele>
        <time>2025-05-13T12:38:23Z</time>
      </trkpt>
      <trkpt lat="47.54769" lon="-2.91567">
        <ele>59</ele>
        <time>2025-05-13T12:38:24Z</time>
      </trkpt>
      <trkpt lat="47.54767" lon="-2.91566">
        <ele>60</ele>
        <time>2025-05-13T12:38:25Z</time>
      </trkpt>
      <trkpt lat="47.54765" lon="-2.91564">
        <ele>60</ele>
        <time>2025-05-13T12:38:26Z</time>
      </trkpt>
      <trkpt lat="47.54763" lon="-2.91562">
        <ele>60</ele>
        <time>2025-05-13T12:38:27Z</time>
      </trkpt>
      <trkpt lat="47.54762" lon="-2.9156">
        <ele>59</ele>
        <time>2025-05-13T12:38:28Z</time>
      </trkpt>
      <trkpt lat="47.5476" lon="-2.91558">
        <ele>59</ele>
        <time>2025-05-13T12:38:29Z</time>
      </trkpt>
      <trkpt lat="47.54758" lon="-2.91556">
        <ele>59</ele>
        <time>2025-05-13T12:38:30Z</time>
      </trkpt>
      <trkpt lat="47.54756" lon="-2.91553">
        <ele>59</ele>
        <time>2025-05-13T12:38:31Z</time>
      </trkpt>
      <trkpt lat="47.54754" lon="-2.91551">
        <ele>59</ele>
        <time>2025-05-13T12:38:32Z</time>
      </trkpt>
      <trkpt lat="47.54752" lon="-2.91549">
        <ele>59</ele>
        <time>2025-05-13T12:38:33Z</time>
      </trkpt>
      <trkpt lat="47.5475" lon="-2.91547">
        <ele>59</ele>
        <time>2025-05-13T12:38:34Z</time>
      </trkpt>
      <trkpt lat="47.54748" lon="-2.91545">
        <ele>59</ele>
        <time>2025-05-13T12:38:35Z</time>
      </trkpt>
      <trkpt lat="47.54746" lon="-2.91543">
        <ele>59</ele>
        <time>2025-05-13T12:38:36Z</time>
      </trkpt>
      <trkpt lat="47.54744" lon="-2.91541">
        <ele>59</ele>
        <time>2025-05-13T12:38:37Z</time>
      </trkpt>
      <trkpt lat="47.54743" lon="-2.91538">
        <ele>59</ele>
        <time>2025-05-13T12:38:38Z</time>
      </trkpt>
      <trkpt lat="47.54741" lon="-2.91536">
        <ele>59</ele>
        <time>2025-05-13T12:38:39Z</time>
      </trkpt>
      <trkpt lat="47.54739" lon="-2.91534">
        <ele>59</ele>
        <time>2025-05-13T12:38:40Z</time>
      </trkpt>
      <trkpt lat="47.54738" lon="-2.91532">
        <ele>59</ele>
        <time>2025-05-13T12:38:41Z</time>
      </trkpt>
      <trkpt lat="47.54736" lon="-2.91531">
        <ele>59</ele>
        <time>2025-05-13T12:38:42Z</time>
      </trkpt>
      <trkpt lat="47.54734" lon="-2.91528">
        <ele>59</ele>
        <time>2025-05-13T12:38:43Z</time>
      </trkpt>
      <trkpt lat="47.54732" lon="-2.91526">
        <ele>59</ele>
        <time>2025-05-13T12:38:44Z</time>
      </trkpt>
      <trkpt lat="47.54731" lon="-2.91524">
        <ele>59</ele>
        <time>2025-05-13T12:38:45Z</time>
      </trkpt>
      <trkpt lat="47.54729" lon="-2.91522">
        <ele>58</ele>
        <time>2025-05-13T12:38:46Z</time>
      </trkpt>
      <trkpt lat="47.54727" lon="-2.91521">
        <ele>58</ele>
        <time>2025-05-13T12:38:47Z</time>
      </trkpt>
      <trkpt lat="47.54726" lon="-2.91519">
        <ele>59</ele>
        <time>2025-05-13T12:38:48Z</time>
      </trkpt>
      <trkpt lat="47.54724" lon="-2.91516">
        <ele>59</ele>
        <time>2025-05-13T12:38:49Z</time>
      </trkpt>
      <trkpt lat="47.54722" lon="-2.91514">
        <ele>59</ele>
        <time>2025-05-13T12:38:50Z</time>
      </trkpt>
      <trkpt lat="47.5472" lon="-2.91512">
        <ele>59</ele>
        <time>2025-05-13T12:38:51Z</time>
      </trkpt>
      <trkpt lat="47.54718" lon="-2.9151">
        <ele>60</ele>
        <time>2025-05-13T12:38:52Z</time>
      </trkpt>
      <trkpt lat="47.54716" lon="-2.91508">
        <ele>60</ele>
        <time>2025-05-13T12:38:53Z</time>
      </trkpt>
      <trkpt lat="47.54714" lon="-2.91505">
        <ele>60</ele>
        <time>2025-05-13T12:38:54Z</time>
      </trkpt>
      <trkpt lat="47.54712" lon="-2.91503">
        <ele>61</ele>
        <time>2025-05-13T12:38:55Z</time>
      </trkpt>
      <trkpt lat="47.54711" lon="-2.91501">
        <ele>61</ele>
        <time>2025-05-13T12:38:56Z</time>
      </trkpt>
      <trkpt lat="47.54708" lon="-2.915">
        <ele>61</ele>
        <time>2025-05-13T12:38:57Z</time>
      </trkpt>
      <trkpt lat="47.54707" lon="-2.91498">
        <ele>61</ele>
        <time>2025-05-13T12:38:58Z</time>
      </trkpt>
      <trkpt lat="47.54705" lon="-2.91496">
        <ele>61</ele>
        <time>2025-05-13T12:38:59Z</time>
      </trkpt>
      <trkpt lat="47.54703" lon="-2.91494">
        <ele>61</ele>
        <time>2025-05-13T12:39:00Z</time>
      </trkpt>
      <trkpt lat="47.54702" lon="-2.91492">
        <ele>61</ele>
        <time>2025-05-13T12:39:01Z</time>
      </trkpt>
      <trkpt lat="47.547" lon="-2.91489">
        <ele>61</ele>
        <time>2025-05-13T12:39:02Z</time>
      </trkpt>
      <trkpt lat="47.54699" lon="-2.91487">
        <ele>61</ele>
        <time>2025-05-13T12:39:03Z</time>
      </trkpt>
      <trkpt lat="47.54697" lon="-2.91485">
        <ele>61</ele>
        <time>2025-05-13T12:39:04Z</time>
      </trkpt>
      <trkpt lat="47.54696" lon="-2.91482">
        <ele>61</ele>
        <time>2025-05-13T12:39:05Z</time>
      </trkpt>
      <trkpt lat="47.54695" lon="-2.9148">
        <ele>61</ele>
        <time>2025-05-13T12:39:06Z</time>
      </trkpt>
      <trkpt lat="47.54694" lon="-2.91476">
        <ele>61</ele>
        <time>2025-05-13T12:39:07Z</time>
      </trkpt>
      <trkpt lat="47.54693" lon="-2.91473">
        <ele>61</ele>
        <time>2025-05-13T12:39:08Z</time>
      </trkpt>
      <trkpt lat="47.54692" lon="-2.91471">
        <ele>60</ele>
        <time>2025-05-13T12:39:09Z</time>
      </trkpt>
      <trkpt lat="47.54691" lon="-2.91467">
        <ele>61</ele>
        <time>2025-05-13T12:39:10Z</time>
      </trkpt>
      <trkpt lat="47.54691" lon="-2.91464">
        <ele>61</ele>
        <time>2025-05-13T12:39:11Z</time>
      </trkpt>
      <trkpt lat="47.54691" lon="-2.9146">
        <ele>62</ele>
        <time>2025-05-13T12:39:12Z</time>
      </trkpt>
      <trkpt lat="47.54691" lon="-2.91456">
        <ele>62</ele>
        <time>2025-05-13T12:39:13Z</time>
      </trkpt>
      <trkpt lat="47.54691" lon="-2.91453">
        <ele>62</ele>
        <time>2025-05-13T12:39:14Z</time>
      </trkpt>
      <trkpt lat="47.54691" lon="-2.91448">
        <ele>62</ele>
        <time>2025-05-13T12:39:15Z</time>
      </trkpt>
      <trkpt lat="47.54692" lon="-2.91444">
        <ele>62</ele>
        <time>2025-05-13T12:39:16Z</time>
      </trkpt>
      <trkpt lat="47.54693" lon="-2.9144">
        <ele>61</ele>
        <time>2025-05-13T12:39:17Z</time>
      </trkpt>
      <trkpt lat="47.54694" lon="-2.91436">
        <ele>61</ele>
        <time>2025-05-13T12:39:18Z</time>
      </trkpt>
      <trkpt lat="47.54694" lon="-2.91432">
        <ele>61</ele>
        <time>2025-05-13T12:39:19Z</time>
      </trkpt>
      <trkpt lat="47.54695" lon="-2.91428">
        <ele>61</ele>
        <time>2025-05-13T12:39:20Z</time>
      </trkpt>
      <trkpt lat="47.54695" lon="-2.91424">
        <ele>62</ele>
        <time>2025-05-13T12:39:21Z</time>
      </trkpt>
      <trkpt lat="47.54696" lon="-2.91421">
        <ele>62</ele>
        <time>2025-05-13T12:39:22Z</time>
      </trkpt>
      <trkpt lat="47.54697" lon="-2.91418">
        <ele>62</ele>
        <time>2025-05-13T12:39:23Z</time>
      </trkpt>
      <trkpt lat="47.54698" lon="-2.91414">
        <ele>62</ele>
        <time>2025-05-13T12:39:24Z</time>
      </trkpt>
      <trkpt lat="47.54699" lon="-2.9141">
        <ele>62</ele>
        <time>2025-05-13T12:39:25Z</time>
      </trkpt>
      <trkpt lat="47.54699" lon="-2.91406">
        <ele>62</ele>
        <time>2025-05-13T12:39:26Z</time>
      </trkpt>
      <trkpt lat="47.547" lon="-2.91402">
        <ele>61</ele>
        <time>2025-05-13T12:39:27Z</time>
      </trkpt>
      <trkpt lat="47.54701" lon="-2.91398">
        <ele>61</ele>
        <time>2025-05-13T12:39:28Z</time>
      </trkpt>
      <trkpt lat="47.54703" lon="-2.91394">
        <ele>60</ele>
        <time>2025-05-13T12:39:29Z</time>
      </trkpt>
      <trkpt lat="47.54704" lon="-2.9139">
        <ele>60</ele>
        <time>2025-05-13T12:39:30Z</time>
      </trkpt>
      <trkpt lat="47.54705" lon="-2.91385">
        <ele>61</ele>
        <time>2025-05-13T12:39:31Z</time>
      </trkpt>
      <trkpt lat="47.54706" lon="-2.91381">
        <ele>61</ele>
        <time>2025-05-13T12:39:32Z</time>
      </trkpt>
      <trkpt lat="47.54707" lon="-2.91377">
        <ele>61</ele>
        <time>2025-05-13T12:39:33Z</time>
      </trkpt>
      <trkpt lat="47.54708" lon="-2.91372">
        <ele>61</ele>
        <time>2025-05-13T12:39:34Z</time>
      </trkpt>
      <trkpt lat="47.54709" lon="-2.91368">
        <ele>62</ele>
        <time>2025-05-13T12:39:35Z</time>
      </trkpt>
      <trkpt lat="47.5471" lon="-2.91363">
        <ele>62</ele>
        <time>2025-05-13T12:39:36Z</time>
      </trkpt>
      <trkpt lat="47.5471" lon="-2.91358">
        <ele>62</ele>
        <time>2025-05-13T12:39:37Z</time>
      </trkpt>
      <trkpt lat="47.54712" lon="-2.91354">
        <ele>62</ele>
        <time>2025-05-13T12:39:38Z</time>
      </trkpt>
      <trkpt lat="47.54713" lon="-2.91349">
        <ele>62</ele>
        <time>2025-05-13T12:39:39Z</time>
      </trkpt>
      <trkpt lat="47.54714" lon="-2.91345">
        <ele>62</ele>
        <time>2025-05-13T12:39:40Z</time>
      </trkpt>
      <trkpt lat="47.54715" lon="-2.9134">
        <ele>62</ele>
        <time>2025-05-13T12:39:41Z</time>
      </trkpt>
      <trkpt lat="47.54717" lon="-2.91335">
        <ele>62</ele>
        <time>2025-05-13T12:39:42Z</time>
      </trkpt>
      <trkpt lat="47.54718" lon="-2.91331">
        <ele>62</ele>
        <time>2025-05-13T12:39:43Z</time>
      </trkpt>
      <trkpt lat="47.54719" lon="-2.91326">
        <ele>62</ele>
        <time>2025-05-13T12:39:44Z</time>
      </trkpt>
      <trkpt lat="47.5472" lon="-2.91321">
        <ele>62</ele>
        <time>2025-05-13T12:39:45Z</time>
      </trkpt>
      <trkpt lat="47.54721" lon="-2.91317">
        <ele>62</ele>
        <time>2025-05-13T12:39:46Z</time>
      </trkpt>
      <trkpt lat="47.54721" lon="-2.91312">
        <ele>62</ele>
        <time>2025-05-13T12:39:47Z</time>
      </trkpt>
      <trkpt lat="47.54722" lon="-2.91307">
        <ele>62</ele>
        <time>2025-05-13T12:39:48Z</time>
      </trkpt>
      <trkpt lat="47.54723" lon="-2.91303">
        <ele>62</ele>
        <time>2025-05-13T12:39:49Z</time>
      </trkpt>
      <trkpt lat="47.54724" lon="-2.91298">
        <ele>62</ele>
        <time>2025-05-13T12:39:50Z</time>
      </trkpt>
      <trkpt lat="47.54725" lon="-2.91294">
        <ele>62</ele>
        <time>2025-05-13T12:39:51Z</time>
      </trkpt>
      <trkpt lat="47.54725" lon="-2.9129">
        <ele>62</ele>
        <time>2025-05-13T12:39:52Z</time>
      </trkpt>
      <trkpt lat="47.54726" lon="-2.91287">
        <ele>62</ele>
        <time>2025-05-13T12:39:53Z</time>
      </trkpt>
      <trkpt lat="47.54726" lon="-2.91284">
        <ele>62</ele>
        <time>2025-05-13T12:39:54Z</time>
      </trkpt>
      <trkpt lat="47.54726" lon="-2.91282">
        <ele>62</ele>
        <time>2025-05-13T12:39:55Z</time>
      </trkpt>
      <trkpt lat="47.54727" lon="-2.91282">
        <ele>62</ele>
        <time>2025-05-13T12:39:56Z</time>
      </trkpt>
      <trkpt lat="47.54727" lon="-2.91282">
        <ele>62</ele>
        <time>2025-05-13T12:39:57Z</time>
      </trkpt>
      <trkpt lat="47.54727" lon="-2.91282">
        <ele>62</ele>
        <time>2025-05-13T12:39:58Z</time>
      </trkpt>
      <trkpt lat="47.54727" lon="-2.91282">
        <ele>62</ele>
        <time>2025-05-13T12:39:59Z</time>
      </trkpt>
      <trkpt lat="47.54727" lon="-2.91282">
        <ele>62</ele>
        <time>2025-05-13T12:40:00Z</time>
      </trkpt>
      <trkpt lat="47.54727" lon="-2.91282">
        <ele>62</ele>
        <time>2025-05-13T12:40:01Z</time>
      </trkpt>
      <trkpt lat="47.54727" lon="-2.91282">
        <ele>62</ele>
        <time>2025-05-13T12:40:02Z</time>
      </trkpt>
      <trkpt lat="47.54727" lon="-2.91282">
        <ele>62</ele>
        <time>2025-05-13T12:40:03Z</time>
      </trkpt>
      <trkpt lat="47.54727" lon="-2.91282">
        <ele>62</ele>
        <time>2025-05-13T12:40:04Z</time>
      </trkpt>
      <trkpt lat="47.54727" lon="-2.91282">
        <ele>62</ele>
        <time>2025-05-13T12:40:05Z</time>
      </trkpt>
      <trkpt lat="47.54727" lon="-2.91282">
        <ele>62</ele>
        <time>2025-05-13T12:40:06Z</time>
      </trkpt>
      <trkpt lat="47.54727" lon="-2.91282">
        <ele>62</ele>
        <time>2025-05-13T12:40:07Z</time>
      </trkpt>
      <trkpt lat="47.54729" lon="-2.91279">
        <ele>62</ele>
        <time>2025-05-13T12:40:08Z</time>
      </trkpt>
      <trkpt lat="47.5473" lon="-2.91276">
        <ele>62</ele>
        <time>2025-05-13T12:40:09Z</time>
      </trkpt>
      <trkpt lat="47.54731" lon="-2.91274">
        <ele>62</ele>
        <time>2025-05-13T12:40:10Z</time>
      </trkpt>
      <trkpt lat="47.54731" lon="-2.91272">
        <ele>62</ele>
        <time>2025-05-13T12:40:11Z</time>
      </trkpt>
      <trkpt lat="47.54732" lon="-2.9127">
        <ele>62</ele>
        <time>2025-05-13T12:40:12Z</time>
      </trkpt>
      <trkpt lat="47.54732" lon="-2.91268">
        <ele>63</ele>
        <time>2025-05-13T12:40:13Z</time>
      </trkpt>
      <trkpt lat="47.54732" lon="-2.91265">
        <ele>63</ele>
        <time>2025-05-13T12:40:14Z</time>
      </trkpt>
      <trkpt lat="47.54733" lon="-2.91262">
        <ele>63</ele>
        <time>2025-05-13T12:40:15Z</time>
      </trkpt>
      <trkpt lat="47.54734" lon="-2.91259">
        <ele>64</ele>
        <time>2025-05-13T12:40:16Z</time>
      </trkpt>
      <trkpt lat="47.54735" lon="-2.91255">
        <ele>64</ele>
        <time>2025-05-13T12:40:17Z</time>
      </trkpt>
      <trkpt lat="47.54736" lon="-2.91252">
        <ele>65</ele>
        <time>2025-05-13T12:40:18Z</time>
      </trkpt>
      <trkpt lat="47.54737" lon="-2.91249">
        <ele>65</ele>
        <time>2025-05-13T12:40:19Z</time>
      </trkpt>
      <trkpt lat="47.54738" lon="-2.91245">
        <ele>65</ele>
        <time>2025-05-13T12:40:20Z</time>
      </trkpt>
      <trkpt lat="47.54739" lon="-2.91242">
        <ele>65</ele>
        <time>2025-05-13T12:40:21Z</time>
      </trkpt>
      <trkpt lat="47.5474" lon="-2.91239">
        <ele>65</ele>
        <time>2025-05-13T12:40:22Z</time>
      </trkpt>
      <trkpt lat="47.54742" lon="-2.91236">
        <ele>64</ele>
        <time>2025-05-13T12:40:23Z</time>
      </trkpt>
      <trkpt lat="47.54743" lon="-2.91233">
        <ele>64</ele>
        <time>2025-05-13T12:40:24Z</time>
      </trkpt>
      <trkpt lat="47.54744" lon="-2.91231">
        <ele>64</ele>
        <time>2025-05-13T12:40:25Z</time>
      </trkpt>
      <trkpt lat="47.54746" lon="-2.91228">
        <ele>65</ele>
        <time>2025-05-13T12:40:26Z</time>
      </trkpt>
      <trkpt lat="47.54747" lon="-2.91225">
        <ele>65</ele>
        <time>2025-05-13T12:40:27Z</time>
      </trkpt>
      <trkpt lat="47.54749" lon="-2.91222">
        <ele>65</ele>
        <time>2025-05-13T12:40:28Z</time>
      </trkpt>
      <trkpt lat="47.54751" lon="-2.9122">
        <ele>65</ele>
        <time>2025-05-13T12:40:29Z</time>
      </trkpt>
      <trkpt lat="47.54753" lon="-2.91217">
        <ele>65</ele>
        <time>2025-05-13T12:40:30Z</time>
      </trkpt>
      <trkpt lat="47.54755" lon="-2.91215">
        <ele>65</ele>
        <time>2025-05-13T12:40:31Z</time>
      </trkpt>
      <trkpt lat="47.54757" lon="-2.91212">
        <ele>66</ele>
        <time>2025-05-13T12:40:32Z</time>
      </trkpt>
      <trkpt lat="47.54759" lon="-2.9121">
        <ele>66</ele>
        <time>2025-05-13T12:40:33Z</time>
      </trkpt>
      <trkpt lat="47.54761" lon="-2.91209">
        <ele>66</ele>
        <time>2025-05-13T12:40:34Z</time>
      </trkpt>
      <trkpt lat="47.54764" lon="-2.91208">
        <ele>66</ele>
        <time>2025-05-13T12:40:35Z</time>
      </trkpt>
      <trkpt lat="47.54766" lon="-2.91207">
        <ele>66</ele>
        <time>2025-05-13T12:40:36Z</time>
      </trkpt>
      <trkpt lat="47.54769" lon="-2.91206">
        <ele>67</ele>
        <time>2025-05-13T12:40:37Z</time>
      </trkpt>
      <trkpt lat="47.54771" lon="-2.91205">
        <ele>67</ele>
        <time>2025-05-13T12:40:38Z</time>
      </trkpt>
      <trkpt lat="47.54773" lon="-2.91204">
        <ele>67</ele>
        <time>2025-05-13T12:40:39Z</time>
      </trkpt>
      <trkpt lat="47.54775" lon="-2.91202">
        <ele>67</ele>
        <time>2025-05-13T12:40:40Z</time>
      </trkpt>
      <trkpt lat="47.54777" lon="-2.91201">
        <ele>66</ele>
        <time>2025-05-13T12:40:41Z</time>
      </trkpt>
      <trkpt lat="47.54779" lon="-2.91199">
        <ele>65</ele>
        <time>2025-05-13T12:40:42Z</time>
      </trkpt>
      <trkpt lat="47.54782" lon="-2.91198">
        <ele>65</ele>
        <time>2025-05-13T12:40:43Z</time>
      </trkpt>
      <trkpt lat="47.54785" lon="-2.91196">
        <ele>65</ele>
        <time>2025-05-13T12:40:44Z</time>
      </trkpt>
      <trkpt lat="47.54788" lon="-2.91194">
        <ele>64</ele>
        <time>2025-05-13T12:40:45Z</time>
      </trkpt>
      <trkpt lat="47.54791" lon="-2.91191">
        <ele>64</ele>
        <time>2025-05-13T12:40:46Z</time>
      </trkpt>
      <trkpt lat="47.54794" lon="-2.91187">
        <ele>63</ele>
        <time>2025-05-13T12:40:47Z</time>
      </trkpt>
      <trkpt lat="47.54797" lon="-2.91182">
        <ele>62</ele>
        <time>2025-05-13T12:40:48Z</time>
      </trkpt>
      <trkpt lat="47.54799" lon="-2.91175">
        <ele>62</ele>
        <time>2025-05-13T12:40:49Z</time>
      </trkpt>
      <trkpt lat="47.54802" lon="-2.91169">
        <ele>61</ele>
        <time>2025-05-13T12:40:50Z</time>
      </trkpt>
      <trkpt lat="47.54804" lon="-2.91162">
        <ele>61</ele>
        <time>2025-05-13T12:40:51Z</time>
      </trkpt>
      <trkpt lat="47.54807" lon="-2.91156">
        <ele>61</ele>
        <time>2025-05-13T12:40:52Z</time>
      </trkpt>
      <trkpt lat="47.5481" lon="-2.91149">
        <ele>61</ele>
        <time>2025-05-13T12:40:53Z</time>
      </trkpt>
      <trkpt lat="47.54812" lon="-2.91142">
        <ele>60</ele>
        <time>2025-05-13T12:40:54Z</time>
      </trkpt>
      <trkpt lat="47.54815" lon="-2.91135">
        <ele>60</ele>
        <time>2025-05-13T12:40:55Z</time>
      </trkpt>
      <trkpt lat="47.54817" lon="-2.91127">
        <ele>60</ele>
        <time>2025-05-13T12:40:56Z</time>
      </trkpt>
      <trkpt lat="47.5482" lon="-2.91119">
        <ele>60</ele>
        <time>2025-05-13T12:40:57Z</time>
      </trkpt>
      <trkpt lat="47.54823" lon="-2.9111">
        <ele>59</ele>
        <time>2025-05-13T12:40:58Z</time>
      </trkpt>
      <trkpt lat="47.54825" lon="-2.91101">
        <ele>59</ele>
        <time>2025-05-13T12:40:59Z</time>
      </trkpt>
      <trkpt lat="47.54826" lon="-2.91092">
        <ele>59</ele>
        <time>2025-05-13T12:41:00Z</time>
      </trkpt>
      <trkpt lat="47.54826" lon="-2.91084">
        <ele>59</ele>
        <time>2025-05-13T12:41:01Z</time>
      </trkpt>
      <trkpt lat="47.54825" lon="-2.91074">
        <ele>59</ele>
        <time>2025-05-13T12:41:02Z</time>
      </trkpt>
      <trkpt lat="47.54825" lon="-2.91064">
        <ele>60</ele>
        <time>2025-05-13T12:41:03Z</time>
      </trkpt>
      <trkpt lat="47.54825" lon="-2.91055">
        <ele>60</ele>
        <time>2025-05-13T12:41:04Z</time>
      </trkpt>
      <trkpt lat="47.54823" lon="-2.91046">
        <ele>61</ele>
        <time>2025-05-13T12:41:05Z</time>
      </trkpt>
      <trkpt lat="47.54822" lon="-2.91036">
        <ele>61</ele>
        <time>2025-05-13T12:41:06Z</time>
      </trkpt>
      <trkpt lat="47.54821" lon="-2.91027">
        <ele>60</ele>
        <time>2025-05-13T12:41:07Z</time>
      </trkpt>
      <trkpt lat="47.5482" lon="-2.91018">
        <ele>60</ele>
        <time>2025-05-13T12:41:08Z</time>
      </trkpt>
      <trkpt lat="47.54821" lon="-2.91009">
        <ele>59</ele>
        <time>2025-05-13T12:41:09Z</time>
      </trkpt>
      <trkpt lat="47.54821" lon="-2.91001">
        <ele>59</ele>
        <time>2025-05-13T12:41:10Z</time>
      </trkpt>
      <trkpt lat="47.54822" lon="-2.90993">
        <ele>58</ele>
        <time>2025-05-13T12:41:11Z</time>
      </trkpt>
      <trkpt lat="47.54825" lon="-2.90986">
        <ele>58</ele>
        <time>2025-05-13T12:41:12Z</time>
      </trkpt>
      <trkpt lat="47.54827" lon="-2.90979">
        <ele>58</ele>
        <time>2025-05-13T12:41:13Z</time>
      </trkpt>
      <trkpt lat="47.5483" lon="-2.90972">
        <ele>58</ele>
        <time>2025-05-13T12:41:14Z</time>
      </trkpt>
      <trkpt lat="47.54832" lon="-2.90965">
        <ele>58</ele>
        <time>2025-05-13T12:41:15Z</time>
      </trkpt>
      <trkpt lat="47.54835" lon="-2.90959">
        <ele>57</ele>
        <time>2025-05-13T12:41:16Z</time>
      </trkpt>
      <trkpt lat="47.54838" lon="-2.90953">
        <ele>57</ele>
        <time>2025-05-13T12:41:17Z</time>
      </trkpt>
      <trkpt lat="47.54842" lon="-2.90947">
        <ele>57</ele>
        <time>2025-05-13T12:41:18Z</time>
      </trkpt>
      <trkpt lat="47.54846" lon="-2.90942">
        <ele>57</ele>
        <time>2025-05-13T12:41:19Z</time>
      </trkpt>
      <trkpt lat="47.54849" lon="-2.90936">
        <ele>57</ele>
        <time>2025-05-13T12:41:20Z</time>
      </trkpt>
      <trkpt lat="47.54852" lon="-2.90931">
        <ele>58</ele>
        <time>2025-05-13T12:41:21Z</time>
      </trkpt>
      <trkpt lat="47.54855" lon="-2.90927">
        <ele>59</ele>
        <time>2025-05-13T12:41:22Z</time>
      </trkpt>
      <trkpt lat="47.54859" lon="-2.90922">
        <ele>59</ele>
        <time>2025-05-13T12:41:23Z</time>
      </trkpt>
      <trkpt lat="47.54862" lon="-2.90918">
        <ele>59</ele>
        <time>2025-05-13T12:41:24Z</time>
      </trkpt>
      <trkpt lat="47.54866" lon="-2.90914">
        <ele>59</ele>
        <time>2025-05-13T12:41:25Z</time>
      </trkpt>
      <trkpt lat="47.5487" lon="-2.9091">
        <ele>59</ele>
        <time>2025-05-13T12:41:26Z</time>
      </trkpt>
      <trkpt lat="47.54873" lon="-2.90906">
        <ele>58</ele>
        <time>2025-05-13T12:41:27Z</time>
      </trkpt>
      <trkpt lat="47.54877" lon="-2.90903">
        <ele>58</ele>
        <time>2025-05-13T12:41:28Z</time>
      </trkpt>
      <trkpt lat="47.5488" lon="-2.90899">
        <ele>59</ele>
        <time>2025-05-13T12:41:29Z</time>
      </trkpt>
      <trkpt lat="47.54884" lon="-2.90895">
        <ele>58</ele>
        <time>2025-05-13T12:41:30Z</time>
      </trkpt>
      <trkpt lat="47.54888" lon="-2.90891">
        <ele>58</ele>
        <time>2025-05-13T12:41:31Z</time>
      </trkpt>
      <trkpt lat="47.54892" lon="-2.90887">
        <ele>58</ele>
        <time>2025-05-13T12:41:32Z</time>
      </trkpt>
      <trkpt lat="47.54896" lon="-2.90883">
        <ele>58</ele>
        <time>2025-05-13T12:41:33Z</time>
      </trkpt>
      <trkpt lat="47.549" lon="-2.9088">
        <ele>58</ele>
        <time>2025-05-13T12:41:34Z</time>
      </trkpt>
      <trkpt lat="47.54904" lon="-2.90877">
        <ele>58</ele>
        <time>2025-05-13T12:41:35Z</time>
      </trkpt>
      <trkpt lat="47.54909" lon="-2.90874">
        <ele>58</ele>
        <time>2025-05-13T12:41:36Z</time>
      </trkpt>
      <trkpt lat="47.54912" lon="-2.9087">
        <ele>57</ele>
        <time>2025-05-13T12:41:37Z</time>
      </trkpt>
      <trkpt lat="47.54916" lon="-2.90866">
        <ele>57</ele>
        <time>2025-05-13T12:41:38Z</time>
      </trkpt>
      <trkpt lat="47.5492" lon="-2.90862">
        <ele>57</ele>
        <time>2025-05-13T12:41:39Z</time>
      </trkpt>
      <trkpt lat="47.54924" lon="-2.90858">
        <ele>56</ele>
        <time>2025-05-13T12:41:40Z</time>
      </trkpt>
      <trkpt lat="47.54928" lon="-2.90855">
        <ele>56</ele>
        <time>2025-05-13T12:41:41Z</time>
      </trkpt>
      <trkpt lat="47.54932" lon="-2.90851">
        <ele>56</ele>
        <time>2025-05-13T12:41:42Z</time>
      </trkpt>
      <trkpt lat="47.54936" lon="-2.90847">
        <ele>56</ele>
        <time>2025-05-13T12:41:43Z</time>
      </trkpt>
      <trkpt lat="47.54941" lon="-2.90842">
        <ele>56</ele>
        <time>2025-05-13T12:41:44Z</time>
      </trkpt>
      <trkpt lat="47.54944" lon="-2.90837">
        <ele>56</ele>
        <time>2025-05-13T12:41:45Z</time>
      </trkpt>
      <trkpt lat="47.54946" lon="-2.9083">
        <ele>56</ele>
        <time>2025-05-13T12:41:46Z</time>
      </trkpt>
      <trkpt lat="47.54947" lon="-2.90824">
        <ele>56</ele>
        <time>2025-05-13T12:41:47Z</time>
      </trkpt>
      <trkpt lat="47.54948" lon="-2.90817">
        <ele>56</ele>
        <time>2025-05-13T12:41:48Z</time>
      </trkpt>
      <trkpt lat="47.54949" lon="-2.9081">
        <ele>56</ele>
        <time>2025-05-13T12:41:49Z</time>
      </trkpt>
      <trkpt lat="47.54951" lon="-2.90802">
        <ele>56</ele>
        <time>2025-05-13T12:41:50Z</time>
      </trkpt>
      <trkpt lat="47.54953" lon="-2.90794">
        <ele>56</ele>
        <time>2025-05-13T12:41:51Z</time>
      </trkpt>
      <trkpt lat="47.54954" lon="-2.90786">
        <ele>56</ele>
        <time>2025-05-13T12:41:52Z</time>
      </trkpt>
      <trkpt lat="47.54955" lon="-2.90778">
        <ele>56</ele>
        <time>2025-05-13T12:41:53Z</time>
      </trkpt>
      <trkpt lat="47.54957" lon="-2.9077">
        <ele>56</ele>
        <time>2025-05-13T12:41:54Z</time>
      </trkpt>
      <trkpt lat="47.54958" lon="-2.90762">
        <ele>56</ele>
        <time>2025-05-13T12:41:55Z</time>
      </trkpt>
      <trkpt lat="47.54959" lon="-2.90755">
        <ele>57</ele>
        <time>2025-05-13T12:41:56Z</time>
      </trkpt>
      <trkpt lat="47.54959" lon="-2.90747">
        <ele>57</ele>
        <time>2025-05-13T12:41:57Z</time>
      </trkpt>
      <trkpt lat="47.54958" lon="-2.9074">
        <ele>57</ele>
        <time>2025-05-13T12:41:58Z</time>
      </trkpt>
      <trkpt lat="47.54956" lon="-2.90733">
        <ele>58</ele>
        <time>2025-05-13T12:41:59Z</time>
      </trkpt>
      <trkpt lat="47.54954" lon="-2.90726">
        <ele>58</ele>
        <time>2025-05-13T12:42:00Z</time>
      </trkpt>
      <trkpt lat="47.54952" lon="-2.9072">
        <ele>59</ele>
        <time>2025-05-13T12:42:01Z</time>
      </trkpt>
      <trkpt lat="47.5495" lon="-2.90715">
        <ele>59</ele>
        <time>2025-05-13T12:42:02Z</time>
      </trkpt>
      <trkpt lat="47.54948" lon="-2.90709">
        <ele>59</ele>
        <time>2025-05-13T12:42:03Z</time>
      </trkpt>
      <trkpt lat="47.54946" lon="-2.90704">
        <ele>59</ele>
        <time>2025-05-13T12:42:04Z</time>
      </trkpt>
      <trkpt lat="47.54944" lon="-2.90698">
        <ele>59</ele>
        <time>2025-05-13T12:42:05Z</time>
      </trkpt>
      <trkpt lat="47.54942" lon="-2.90694">
        <ele>59</ele>
        <time>2025-05-13T12:42:06Z</time>
      </trkpt>
      <trkpt lat="47.54941" lon="-2.90689">
        <ele>59</ele>
        <time>2025-05-13T12:42:07Z</time>
      </trkpt>
      <trkpt lat="47.54939" lon="-2.90685">
        <ele>60</ele>
        <time>2025-05-13T12:42:08Z</time>
      </trkpt>
      <trkpt lat="47.54938" lon="-2.90681">
        <ele>61</ele>
        <time>2025-05-13T12:42:09Z</time>
      </trkpt>
      <trkpt lat="47.54936" lon="-2.90678">
        <ele>61</ele>
        <time>2025-05-13T12:42:10Z</time>
      </trkpt>
      <trkpt lat="47.54935" lon="-2.90675">
        <ele>62</ele>
        <time>2025-05-13T12:42:11Z</time>
      </trkpt>
      <trkpt lat="47.54934" lon="-2.90672">
        <ele>62</ele>
        <time>2025-05-13T12:42:12Z</time>
      </trkpt>
      <trkpt lat="47.54932" lon="-2.9067">
        <ele>61</ele>
        <time>2025-05-13T12:42:13Z</time>
      </trkpt>
      <trkpt lat="47.54931" lon="-2.90666">
        <ele>61</ele>
        <time>2025-05-13T12:42:14Z</time>
      </trkpt>
      <trkpt lat="47.54929" lon="-2.90664">
        <ele>61</ele>
        <time>2025-05-13T12:42:15Z</time>
      </trkpt>
      <trkpt lat="47.54928" lon="-2.90661">
        <ele>60</ele>
        <time>2025-05-13T12:42:16Z</time>
      </trkpt>
      <trkpt lat="47.54927" lon="-2.90659">
        <ele>60</ele>
        <time>2025-05-13T12:42:17Z</time>
      </trkpt>
      <trkpt lat="47.54925" lon="-2.90657">
        <ele>59</ele>
        <time>2025-05-13T12:42:18Z</time>
      </trkpt>
      <trkpt lat="47.54924" lon="-2.90655">
        <ele>58</ele>
        <time>2025-05-13T12:42:19Z</time>
      </trkpt>
      <trkpt lat="47.54924" lon="-2.90654">
        <ele>58</ele>
        <time>2025-05-13T12:42:20Z</time>
      </trkpt>
      <trkpt lat="47.54923" lon="-2.90654">
        <ele>58</ele>
        <time>2025-05-13T12:42:21Z</time>
      </trkpt>
      <trkpt lat="47.54923" lon="-2.90654">
        <ele>58</ele>
        <time>2025-05-13T12:42:22Z</time>
      </trkpt>
      <trkpt lat="47.54923" lon="-2.90654">
        <ele>58</ele>
        <time>2025-05-13T12:42:23Z</time>
      </trkpt>
      <trkpt lat="47.54923" lon="-2.90654">
        <ele>58</ele>
        <time>2025-05-13T12:42:24Z</time>
      </trkpt>
      <trkpt lat="47.54923" lon="-2.90654">
        <ele>58</ele>
        <time>2025-05-13T12:42:25Z</time>
      </trkpt>
      <trkpt lat="47.54923" lon="-2.90654">
        <ele>58</ele>
        <time>2025-05-13T12:42:26Z</time>
      </trkpt>
      <trkpt lat="47.54923" lon="-2.90654">
        <ele>58</ele>
        <time>2025-05-13T12:42:27Z</time>
      </trkpt>
      <trkpt lat="47.54923" lon="-2.90654">
        <ele>58</ele>
        <time>2025-05-13T12:42:28Z</time>
      </trkpt>
      <trkpt lat="47.54923" lon="-2.90654">
        <ele>58</ele>
        <time>2025-05-13T12:42:29Z</time>
      </trkpt>
      <trkpt lat="47.54923" lon="-2.90654">
        <ele>58</ele>
        <time>2025-05-13T12:42:30Z</time>
      </trkpt>
      <trkpt lat="47.54923" lon="-2.90654">
        <ele>58</ele>
        <time>2025-05-13T12:42:31Z</time>
      </trkpt>
      <trkpt lat="47.54923" lon="-2.90654">
        <ele>58</ele>
        <time>2025-05-13T12:42:32Z</time>
      </trkpt>
      <trkpt lat="47.54923" lon="-2.90654">
        <ele>58</ele>
        <time>2025-05-13T12:42:33Z</time>
      </trkpt>
      <trkpt lat="47.54923" lon="-2.90654">
        <ele>58</ele>
        <time>2025-05-13T12:42:34Z</time>
      </trkpt>
      <trkpt lat="47.54923" lon="-2.90654">
        <ele>58</ele>
        <time>2025-05-13T12:42:35Z</time>
      </trkpt>
      <trkpt lat="47.54923" lon="-2.90654">
        <ele>58</ele>
        <time>2025-05-13T12:42:36Z</time>
      </trkpt>
      <trkpt lat="47.54923" lon="-2.90654">
        <ele>58</ele>
        <time>2025-05-13T12:42:37Z</time>
      </trkpt>
      <trkpt lat="47.54923" lon="-2.90654">
        <ele>58</ele>
        <time>2025-05-13T12:42:38Z</time>
      </trkpt>
      <trkpt lat="47.54923" lon="-2.90654">
        <ele>58</ele>
        <time>2025-05-13T12:42:39Z</time>
      </trkpt>
      <trkpt lat="47.54923" lon="-2.90654">
        <ele>58</ele>
        <time>2025-05-13T12:42:40Z</time>
      </trkpt>
      <trkpt lat="47.54923" lon="-2.90654">
        <ele>58</ele>
        <time>2025-05-13T12:42:41Z</time>
      </trkpt>
      <trkpt lat="47.54923" lon="-2.90654">
        <ele>58</ele>
        <time>2025-05-13T12:42:42Z</time>
      </trkpt>
      <trkpt lat="47.54923" lon="-2.90654">
        <ele>58</ele>
        <time>2025-05-13T12:42:43Z</time>
      </trkpt>
      <trkpt lat="47.54923" lon="-2.90654">
        <ele>58</ele>
        <time>2025-05-13T12:42:44Z</time>
      </trkpt>
      <trkpt lat="47.54923" lon="-2.90654">
        <ele>58</ele>
        <time>2025-05-13T12:42:45Z</time>
      </trkpt>
      <trkpt lat="47.54923" lon="-2.90654">
        <ele>58</ele>
        <time>2025-05-13T12:42:46Z</time>
      </trkpt>
      <trkpt lat="47.54923" lon="-2.90654">
        <ele>58</ele>
        <time>2025-05-13T12:42:47Z</time>
      </trkpt>
      <trkpt lat="47.54923" lon="-2.90654">
        <ele>58</ele>
        <time>2025-05-13T12:42:48Z</time>
      </trkpt>
      <trkpt lat="47.54923" lon="-2.90654">
        <ele>58</ele>
        <time>2025-05-13T12:42:49Z</time>
      </trkpt>
      <trkpt lat="47.54923" lon="-2.90654">
        <ele>58</ele>
        <time>2025-05-13T12:42:50Z</time>
      </trkpt>
      <trkpt lat="47.54923" lon="-2.90654">
        <ele>58</ele>
        <time>2025-05-13T12:42:51Z</time>
      </trkpt>
      <trkpt lat="47.54923" lon="-2.90654">
        <ele>58</ele>
        <time>2025-05-13T12:42:52Z</time>
      </trkpt>
      <trkpt lat="47.54923" lon="-2.90654">
        <ele>58</ele>
        <time>2025-05-13T12:42:53Z</time>
      </trkpt>
      <trkpt lat="47.54923" lon="-2.90654">
        <ele>58</ele>
        <time>2025-05-13T12:42:54Z</time>
      </trkpt>
      <trkpt lat="47.54923" lon="-2.90654">
        <ele>58</ele>
        <time>2025-05-13T12:42:55Z</time>
      </trkpt>
      <trkpt lat="47.54923" lon="-2.90654">
        <ele>58</ele>
        <time>2025-05-13T12:42:56Z</time>
      </trkpt>
      <trkpt lat="47.54923" lon="-2.90654">
        <ele>58</ele>
        <time>2025-05-13T12:42:57Z</time>
      </trkpt>
      <trkpt lat="47.54923" lon="-2.90654">
        <ele>58</ele>
        <time>2025-05-13T12:42:58Z</time>
      </trkpt>
      <trkpt lat="47.54923" lon="-2.90654">
        <ele>58</ele>
        <time>2025-05-13T12:42:59Z</time>
      </trkpt>
      <trkpt lat="47.54923" lon="-2.90654">
        <ele>58</ele>
        <time>2025-05-13T12:43:00Z</time>
      </trkpt>
      <trkpt lat="47.54923" lon="-2.90654">
        <ele>58</ele>
        <time>2025-05-13T12:43:01Z</time>
      </trkpt>
      <trkpt lat="47.54923" lon="-2.90654">
        <ele>58</ele>
        <time>2025-05-13T12:43:02Z</time>
      </trkpt>
      <trkpt lat="47.54923" lon="-2.90654">
        <ele>58</ele>
        <time>2025-05-13T12:43:03Z</time>
      </trkpt>
      <trkpt lat="47.54923" lon="-2.90654">
        <ele>58</ele>
        <time>2025-05-13T12:43:04Z</time>
      </trkpt>
      <trkpt lat="47.54923" lon="-2.90654">
        <ele>58</ele>
        <time>2025-05-13T12:43:05Z</time>
      </trkpt>
      <trkpt lat="47.54923" lon="-2.90654">
        <ele>58</ele>
        <time>2025-05-13T12:43:06Z</time>
      </trkpt>
      <trkpt lat="47.54923" lon="-2.90654">
        <ele>58</ele>
        <time>2025-05-13T12:43:07Z</time>
      </trkpt>
      <trkpt lat="47.54923" lon="-2.90654">
        <ele>58</ele>
        <time>2025-05-13T12:43:08Z</time>
      </trkpt>
      <trkpt lat="47.54923" lon="-2.90654">
        <ele>58</ele>
        <time>2025-05-13T12:43:09Z</time>
      </trkpt>
      <trkpt lat="47.54923" lon="-2.90654">
        <ele>58</ele>
        <time>2025-05-13T12:43:10Z</time>
      </trkpt>
      <trkpt lat="47.54923" lon="-2.90654">
        <ele>58</ele>
        <time>2025-05-13T12:43:11Z</time>
      </trkpt>
      <trkpt lat="47.54923" lon="-2.90654">
        <ele>58</ele>
        <time>2025-05-13T12:43:12Z</time>
      </trkpt>
      <trkpt lat="47.54923" lon="-2.90654">
        <ele>58</ele>
        <time>2025-05-13T12:43:13Z</time>
      </trkpt>
      <trkpt lat="47.54923" lon="-2.90654">
        <ele>58</ele>
        <time>2025-05-13T12:43:14Z</time>
      </trkpt>
      <trkpt lat="47.54923" lon="-2.90654">
        <ele>58</ele>
        <time>2025-05-13T12:43:15Z</time>
      </trkpt>
      <trkpt lat="47.54923" lon="-2.90654">
        <ele>58</ele>
        <time>2025-05-13T12:43:16Z</time>
      </trkpt>
      <trkpt lat="47.54923" lon="-2.90654">
        <ele>58</ele>
        <time>2025-05-13T12:43:17Z</time>
      </trkpt>
      <trkpt lat="47.54923" lon="-2.90654">
        <ele>58</ele>
        <time>2025-05-13T12:43:18Z</time>
      </trkpt>
      <trkpt lat="47.54923" lon="-2.90654">
        <ele>58</ele>
        <time>2025-05-13T12:43:19Z</time>
      </trkpt>
      <trkpt lat="47.54923" lon="-2.90654">
        <ele>58</ele>
        <time>2025-05-13T12:43:20Z</time>
      </trkpt>
      <trkpt lat="47.54923" lon="-2.90654">
        <ele>58</ele>
        <time>2025-05-13T12:43:21Z</time>
      </trkpt>
      <trkpt lat="47.54923" lon="-2.90654">
        <ele>58</ele>
        <time>2025-05-13T12:43:22Z</time>
      </trkpt>
      <trkpt lat="47.54923" lon="-2.90654">
        <ele>58</ele>
        <time>2025-05-13T12:43:23Z</time>
      </trkpt>
      <trkpt lat="47.54923" lon="-2.90654">
        <ele>58</ele>
        <time>2025-05-13T12:43:24Z</time>
      </trkpt>
      <trkpt lat="47.54923" lon="-2.90654">
        <ele>58</ele>
        <time>2025-05-13T12:43:25Z</time>
      </trkpt>
      <trkpt lat="47.54923" lon="-2.90654">
        <ele>58</ele>
        <time>2025-05-13T12:43:26Z</time>
      </trkpt>
      <trkpt lat="47.54923" lon="-2.90654">
        <ele>58</ele>
        <time>2025-05-13T12:43:27Z</time>
      </trkpt>
      <trkpt lat="47.54923" lon="-2.90654">
        <ele>58</ele>
        <time>2025-05-13T12:43:28Z</time>
      </trkpt>
      <trkpt lat="47.54923" lon="-2.90654">
        <ele>58</ele>
        <time>2025-05-13T12:43:29Z</time>
      </trkpt>
      <trkpt lat="47.54923" lon="-2.90654">
        <ele>58</ele>
        <time>2025-05-13T12:43:30Z</time>
      </trkpt>
      <trkpt lat="47.54923" lon="-2.90654">
        <ele>58</ele>
        <time>2025-05-13T12:43:31Z</time>
      </trkpt>
      <trkpt lat="47.54923" lon="-2.90654">
        <ele>58</ele>
        <time>2025-05-13T12:43:32Z</time>
      </trkpt>
      <trkpt lat="47.54922" lon="-2.90651">
        <ele>58</ele>
        <time>2025-05-13T12:43:33Z</time>
      </trkpt>
      <trkpt lat="47.54921" lon="-2.90649">
        <ele>58</ele>
        <time>2025-05-13T12:43:34Z</time>
      </trkpt>
      <trkpt lat="47.54921" lon="-2.90646">
        <ele>58</ele>
        <time>2025-05-13T12:43:35Z</time>
      </trkpt>
      <trkpt lat="47.5492" lon="-2.90644">
        <ele>58</ele>
        <time>2025-05-13T12:43:36Z</time>
      </trkpt>
      <trkpt lat="47.54919" lon="-2.90642">
        <ele>59</ele>
        <time>2025-05-13T12:43:37Z</time>
      </trkpt>
      <trkpt lat="47.5491" lon="-2.90612">
        <ele>60</ele>
        <time>2025-05-13T12:43:46Z</time>
      </trkpt>
      <trkpt lat="47.54909" lon="-2.90608">
        <ele>60</ele>
        <time>2025-05-13T12:43:47Z</time>
      </trkpt>
      <trkpt lat="47.54907" lon="-2.90604">
        <ele>60</ele>
        <time>2025-05-13T12:43:48Z</time>
      </trkpt>
      <trkpt lat="47.54905" lon="-2.906">
        <ele>60</ele>
        <time>2025-05-13T12:43:49Z</time>
      </trkpt>
      <trkpt lat="47.54903" lon="-2.90596">
        <ele>60</ele>
        <time>2025-05-13T12:43:50Z</time>
      </trkpt>
      <trkpt lat="47.54902" lon="-2.90592">
        <ele>60</ele>
        <time>2025-05-13T12:43:51Z</time>
      </trkpt>
      <trkpt lat="47.549" lon="-2.90587">
        <ele>60</ele>
        <time>2025-05-13T12:43:52Z</time>
      </trkpt>
      <trkpt lat="47.54898" lon="-2.90583">
        <ele>60</ele>
        <time>2025-05-13T12:43:53Z</time>
      </trkpt>
      <trkpt lat="47.54896" lon="-2.90579">
        <ele>60</ele>
        <time>2025-05-13T12:43:54Z</time>
      </trkpt>
      <trkpt lat="47.54895" lon="-2.90575">
        <ele>60</ele>
        <time>2025-05-13T12:43:55Z</time>
      </trkpt>
      <trkpt lat="47.54893" lon="-2.90571">
        <ele>59</ele>
        <time>2025-05-13T12:43:56Z</time>
      </trkpt>
      <trkpt lat="47.54892" lon="-2.90566">
        <ele>60</ele>
        <time>2025-05-13T12:43:57Z</time>
      </trkpt>
      <trkpt lat="47.5489" lon="-2.90561">
        <ele>60</ele>
        <time>2025-05-13T12:43:58Z</time>
      </trkpt>
      <trkpt lat="47.54888" lon="-2.90557">
        <ele>60</ele>
        <time>2025-05-13T12:43:59Z</time>
      </trkpt>
      <trkpt lat="47.54887" lon="-2.90553">
        <ele>60</ele>
        <time>2025-05-13T12:44:00Z</time>
      </trkpt>
      <trkpt lat="47.54885" lon="-2.90549">
        <ele>60</ele>
        <time>2025-05-13T12:44:01Z</time>
      </trkpt>
      <trkpt lat="47.54883" lon="-2.90545">
        <ele>60</ele>
        <time>2025-05-13T12:44:02Z</time>
      </trkpt>
      <trkpt lat="47.54882" lon="-2.90541">
        <ele>60</ele>
        <time>2025-05-13T12:44:03Z</time>
      </trkpt>
      <trkpt lat="47.5488" lon="-2.90536">
        <ele>61</ele>
        <time>2025-05-13T12:44:04Z</time>
      </trkpt>
      <trkpt lat="47.54879" lon="-2.90532">
        <ele>61</ele>
        <time>2025-05-13T12:44:05Z</time>
      </trkpt>
      <trkpt lat="47.54877" lon="-2.90529">
        <ele>62</ele>
        <time>2025-05-13T12:44:06Z</time>
      </trkpt>
      <trkpt lat="47.54876" lon="-2.90526">
        <ele>62</ele>
        <time>2025-05-13T12:44:07Z</time>
      </trkpt>
      <trkpt lat="47.54875" lon="-2.90522">
        <ele>62</ele>
        <time>2025-05-13T12:44:08Z</time>
      </trkpt>
      <trkpt lat="47.54874" lon="-2.90519">
        <ele>61</ele>
        <time>2025-05-13T12:44:09Z</time>
      </trkpt>
      <trkpt lat="47.54873" lon="-2.90516">
        <ele>62</ele>
        <time>2025-05-13T12:44:10Z</time>
      </trkpt>
      <trkpt lat="47.54871" lon="-2.90513">
        <ele>62</ele>
        <time>2025-05-13T12:44:11Z</time>
      </trkpt>
      <trkpt lat="47.5487" lon="-2.90509">
        <ele>62</ele>
        <time>2025-05-13T12:44:12Z</time>
      </trkpt>
      <trkpt lat="47.54868" lon="-2.90505">
        <ele>62</ele>
        <time>2025-05-13T12:44:13Z</time>
      </trkpt>
      <trkpt lat="47.54867" lon="-2.90502">
        <ele>62</ele>
        <time>2025-05-13T12:44:14Z</time>
      </trkpt>
      <trkpt lat="47.54865" lon="-2.90499">
        <ele>63</ele>
        <time>2025-05-13T12:44:15Z</time>
      </trkpt>
      <trkpt lat="47.54864" lon="-2.90496">
        <ele>62</ele>
        <time>2025-05-13T12:44:16Z</time>
      </trkpt>
      <trkpt lat="47.54863" lon="-2.90492">
        <ele>62</ele>
        <time>2025-05-13T12:44:17Z</time>
      </trkpt>
      <trkpt lat="47.54863" lon="-2.90489">
        <ele>62</ele>
        <time>2025-05-13T12:44:18Z</time>
      </trkpt>
      <trkpt lat="47.54862" lon="-2.90486">
        <ele>62</ele>
        <time>2025-05-13T12:44:19Z</time>
      </trkpt>
      <trkpt lat="47.54861" lon="-2.90483">
        <ele>62</ele>
        <time>2025-05-13T12:44:20Z</time>
      </trkpt>
      <trkpt lat="47.54861" lon="-2.9048">
        <ele>62</ele>
        <time>2025-05-13T12:44:21Z</time>
      </trkpt>
      <trkpt lat="47.5486" lon="-2.90476">
        <ele>62</ele>
        <time>2025-05-13T12:44:22Z</time>
      </trkpt>
      <trkpt lat="47.54859" lon="-2.90472">
        <ele>62</ele>
        <time>2025-05-13T12:44:23Z</time>
      </trkpt>
      <trkpt lat="47.54858" lon="-2.90469">
        <ele>62</ele>
        <time>2025-05-13T12:44:24Z</time>
      </trkpt>
      <trkpt lat="47.54857" lon="-2.90465">
        <ele>62</ele>
        <time>2025-05-13T12:44:25Z</time>
      </trkpt>
      <trkpt lat="47.54856" lon="-2.90462">
        <ele>62</ele>
        <time>2025-05-13T12:44:26Z</time>
      </trkpt>
      <trkpt lat="47.54855" lon="-2.90458">
        <ele>62</ele>
        <time>2025-05-13T12:44:27Z</time>
      </trkpt>
      <trkpt lat="47.54855" lon="-2.90454">
        <ele>62</ele>
        <time>2025-05-13T12:44:28Z</time>
      </trkpt>
      <trkpt lat="47.54854" lon="-2.90451">
        <ele>62</ele>
        <time>2025-05-13T12:44:29Z</time>
      </trkpt>
      <trkpt lat="47.54854" lon="-2.90448">
        <ele>62</ele>
        <time>2025-05-13T12:44:30Z</time>
      </trkpt>
      <trkpt lat="47.54853" lon="-2.90444">
        <ele>62</ele>
        <time>2025-05-13T12:44:31Z</time>
      </trkpt>
      <trkpt lat="47.54852" lon="-2.90441">
        <ele>62</ele>
        <time>2025-05-13T12:44:32Z</time>
      </trkpt>
      <trkpt lat="47.54851" lon="-2.90437">
        <ele>63</ele>
        <time>2025-05-13T12:44:33Z</time>
      </trkpt>
      <trkpt lat="47.54851" lon="-2.90434">
        <ele>63</ele>
        <time>2025-05-13T12:44:34Z</time>
      </trkpt>
      <trkpt lat="47.5485" lon="-2.9043">
        <ele>63</ele>
        <time>2025-05-13T12:44:35Z</time>
      </trkpt>
      <trkpt lat="47.54849" lon="-2.90426">
        <ele>63</ele>
        <time>2025-05-13T12:44:36Z</time>
      </trkpt>
      <trkpt lat="47.54849" lon="-2.90423">
        <ele>63</ele>
        <time>2025-05-13T12:44:37Z</time>
      </trkpt>
      <trkpt lat="47.54848" lon="-2.90419">
        <ele>63</ele>
        <time>2025-05-13T12:44:38Z</time>
      </trkpt>
      <trkpt lat="47.54847" lon="-2.90415">
        <ele>64</ele>
        <time>2025-05-13T12:44:39Z</time>
      </trkpt>
      <trkpt lat="47.54846" lon="-2.90412">
        <ele>64</ele>
        <time>2025-05-13T12:44:40Z</time>
      </trkpt>
      <trkpt lat="47.54845" lon="-2.90408">
        <ele>63</ele>
        <time>2025-05-13T12:44:41Z</time>
      </trkpt>
      <trkpt lat="47.54844" lon="-2.90405">
        <ele>64</ele>
        <time>2025-05-13T12:44:42Z</time>
      </trkpt>
      <trkpt lat="47.54844" lon="-2.90401">
        <ele>64</ele>
        <time>2025-05-13T12:44:43Z</time>
      </trkpt>
      <trkpt lat="47.54844" lon="-2.90397">
        <ele>64</ele>
        <time>2025-05-13T12:44:44Z</time>
      </trkpt>
      <trkpt lat="47.54843" lon="-2.90393">
        <ele>64</ele>
        <time>2025-05-13T12:44:45Z</time>
      </trkpt>
      <trkpt lat="47.54842" lon="-2.90389">
        <ele>64</ele>
        <time>2025-05-13T12:44:46Z</time>
      </trkpt>
      <trkpt lat="47.54841" lon="-2.90386">
        <ele>64</ele>
        <time>2025-05-13T12:44:47Z</time>
      </trkpt>
      <trkpt lat="47.54841" lon="-2.90382">
        <ele>64</ele>
        <time>2025-05-13T12:44:48Z</time>
      </trkpt>
      <trkpt lat="47.5484" lon="-2.90379">
        <ele>64</ele>
        <time>2025-05-13T12:44:49Z</time>
      </trkpt>
      <trkpt lat="47.5484" lon="-2.90374">
        <ele>64</ele>
        <time>2025-05-13T12:44:50Z</time>
      </trkpt>
      <trkpt lat="47.54839" lon="-2.90371">
        <ele>64</ele>
        <time>2025-05-13T12:44:51Z</time>
      </trkpt>
      <trkpt lat="47.54838" lon="-2.90367">
        <ele>64</ele>
        <time>2025-05-13T12:44:52Z</time>
      </trkpt>
      <trkpt lat="47.54837" lon="-2.90363">
        <ele>64</ele>
        <time>2025-05-13T12:44:53Z</time>
      </trkpt>
      <trkpt lat="47.54837" lon="-2.9036">
        <ele>65</ele>
        <time>2025-05-13T12:44:54Z</time>
      </trkpt>
      <trkpt lat="47.54836" lon="-2.90356">
        <ele>65</ele>
        <time>2025-05-13T12:44:55Z</time>
      </trkpt>
      <trkpt lat="47.54835" lon="-2.90353">
        <ele>65</ele>
        <time>2025-05-13T12:44:56Z</time>
      </trkpt>
      <trkpt lat="47.54834" lon="-2.90349">
        <ele>65</ele>
        <time>2025-05-13T12:44:57Z</time>
      </trkpt>
      <trkpt lat="47.54833" lon="-2.90345">
        <ele>65</ele>
        <time>2025-05-13T12:44:58Z</time>
      </trkpt>
      <trkpt lat="47.54833" lon="-2.90341">
        <ele>64</ele>
        <time>2025-05-13T12:44:59Z</time>
      </trkpt>
      <trkpt lat="47.54832" lon="-2.90338">
        <ele>64</ele>
        <time>2025-05-13T12:45:00Z</time>
      </trkpt>
      <trkpt lat="47.54831" lon="-2.90334">
        <ele>65</ele>
        <time>2025-05-13T12:45:01Z</time>
      </trkpt>
      <trkpt lat="47.5483" lon="-2.9033">
        <ele>65</ele>
        <time>2025-05-13T12:45:02Z</time>
      </trkpt>
      <trkpt lat="47.5483" lon="-2.90326">
        <ele>65</ele>
        <time>2025-05-13T12:45:03Z</time>
      </trkpt>
      <trkpt lat="47.54829" lon="-2.90322">
        <ele>66</ele>
        <time>2025-05-13T12:45:04Z</time>
      </trkpt>
      <trkpt lat="47.54828" lon="-2.90319">
        <ele>67</ele>
        <time>2025-05-13T12:45:05Z</time>
      </trkpt>
      <trkpt lat="47.54827" lon="-2.90315">
        <ele>67</ele>
        <time>2025-05-13T12:45:06Z</time>
      </trkpt>
      <trkpt lat="47.54827" lon="-2.90311">
        <ele>68</ele>
        <time>2025-05-13T12:45:07Z</time>
      </trkpt>
      <trkpt lat="47.54827" lon="-2.90307">
        <ele>68</ele>
        <time>2025-05-13T12:45:08Z</time>
      </trkpt>
      <trkpt lat="47.54826" lon="-2.90304">
        <ele>68</ele>
        <time>2025-05-13T12:45:09Z</time>
      </trkpt>
      <trkpt lat="47.54826" lon="-2.903">
        <ele>68</ele>
        <time>2025-05-13T12:45:10Z</time>
      </trkpt>
      <trkpt lat="47.54826" lon="-2.90296">
        <ele>68</ele>
        <time>2025-05-13T12:45:11Z</time>
      </trkpt>
      <trkpt lat="47.54825" lon="-2.90292">
        <ele>68</ele>
        <time>2025-05-13T12:45:12Z</time>
      </trkpt>
      <trkpt lat="47.54825" lon="-2.90288">
        <ele>68</ele>
        <time>2025-05-13T12:45:13Z</time>
      </trkpt>
      <trkpt lat="47.54824" lon="-2.90284">
        <ele>68</ele>
        <time>2025-05-13T12:45:14Z</time>
      </trkpt>
      <trkpt lat="47.54824" lon="-2.90281">
        <ele>68</ele>
        <time>2025-05-13T12:45:15Z</time>
      </trkpt>
      <trkpt lat="47.54823" lon="-2.90277">
        <ele>68</ele>
        <time>2025-05-13T12:45:16Z</time>
      </trkpt>
      <trkpt lat="47.54823" lon="-2.90273">
        <ele>68</ele>
        <time>2025-05-13T12:45:17Z</time>
      </trkpt>
      <trkpt lat="47.54822" lon="-2.90269">
        <ele>68</ele>
        <time>2025-05-13T12:45:18Z</time>
      </trkpt>
      <trkpt lat="47.54822" lon="-2.90266">
        <ele>68</ele>
        <time>2025-05-13T12:45:19Z</time>
      </trkpt>
      <trkpt lat="47.54822" lon="-2.90262">
        <ele>67</ele>
        <time>2025-05-13T12:45:20Z</time>
      </trkpt>
      <trkpt lat="47.54823" lon="-2.90258">
        <ele>67</ele>
        <time>2025-05-13T12:45:21Z</time>
      </trkpt>
      <trkpt lat="47.54823" lon="-2.90254">
        <ele>67</ele>
        <time>2025-05-13T12:45:22Z</time>
      </trkpt>
      <trkpt lat="47.54824" lon="-2.9025">
        <ele>67</ele>
        <time>2025-05-13T12:45:23Z</time>
      </trkpt>
      <trkpt lat="47.54824" lon="-2.90246">
        <ele>67</ele>
        <time>2025-05-13T12:45:24Z</time>
      </trkpt>
      <trkpt lat="47.54824" lon="-2.90243">
        <ele>67</ele>
        <time>2025-05-13T12:45:25Z</time>
      </trkpt>
      <trkpt lat="47.54824" lon="-2.9024">
        <ele>67</ele>
        <time>2025-05-13T12:45:26Z</time>
      </trkpt>
      <trkpt lat="47.54825" lon="-2.90237">
        <ele>67</ele>
        <time>2025-05-13T12:45:27Z</time>
      </trkpt>
      <trkpt lat="47.54825" lon="-2.90233">
        <ele>67</ele>
        <time>2025-05-13T12:45:28Z</time>
      </trkpt>
      <trkpt lat="47.54825" lon="-2.9023">
        <ele>67</ele>
        <time>2025-05-13T12:45:29Z</time>
      </trkpt>
      <trkpt lat="47.54824" lon="-2.90226">
        <ele>68</ele>
        <time>2025-05-13T12:45:30Z</time>
      </trkpt>
      <trkpt lat="47.54824" lon="-2.90223">
        <ele>68</ele>
        <time>2025-05-13T12:45:31Z</time>
      </trkpt>
      <trkpt lat="47.54824" lon="-2.9022">
        <ele>68</ele>
        <time>2025-05-13T12:45:32Z</time>
      </trkpt>
      <trkpt lat="47.54823" lon="-2.90217">
        <ele>68</ele>
        <time>2025-05-13T12:45:33Z</time>
      </trkpt>
      <trkpt lat="47.54823" lon="-2.90214">
        <ele>68</ele>
        <time>2025-05-13T12:45:34Z</time>
      </trkpt>
      <trkpt lat="47.54823" lon="-2.9021">
        <ele>68</ele>
        <time>2025-05-13T12:45:35Z</time>
      </trkpt>
      <trkpt lat="47.54823" lon="-2.90207">
        <ele>68</ele>
        <time>2025-05-13T12:45:36Z</time>
      </trkpt>
      <trkpt lat="47.54823" lon="-2.90204">
        <ele>68</ele>
        <time>2025-05-13T12:45:37Z</time>
      </trkpt>
      <trkpt lat="47.54823" lon="-2.90201">
        <ele>69</ele>
        <time>2025-05-13T12:45:38Z</time>
      </trkpt>
      <trkpt lat="47.54822" lon="-2.90197">
        <ele>69</ele>
        <time>2025-05-13T12:45:39Z</time>
      </trkpt>
      <trkpt lat="47.54821" lon="-2.90194">
        <ele>70</ele>
        <time>2025-05-13T12:45:40Z</time>
      </trkpt>
      <trkpt lat="47.54819" lon="-2.9019">
        <ele>70</ele>
        <time>2025-05-13T12:45:41Z</time>
      </trkpt>
      <trkpt lat="47.54818" lon="-2.90187">
        <ele>70</ele>
        <time>2025-05-13T12:45:42Z</time>
      </trkpt>
      <trkpt lat="47.54816" lon="-2.90183">
        <ele>70</ele>
        <time>2025-05-13T12:45:43Z</time>
      </trkpt>
      <trkpt lat="47.54816" lon="-2.9018">
        <ele>70</ele>
        <time>2025-05-13T12:45:44Z</time>
      </trkpt>
      <trkpt lat="47.54816" lon="-2.90176">
        <ele>69</ele>
        <time>2025-05-13T12:45:45Z</time>
      </trkpt>
      <trkpt lat="47.54817" lon="-2.90172">
        <ele>69</ele>
        <time>2025-05-13T12:45:46Z</time>
      </trkpt>
      <trkpt lat="47.54819" lon="-2.90168">
        <ele>68</ele>
        <time>2025-05-13T12:45:47Z</time>
      </trkpt>
      <trkpt lat="47.5482" lon="-2.90165">
        <ele>68</ele>
        <time>2025-05-13T12:45:48Z</time>
      </trkpt>
      <trkpt lat="47.54822" lon="-2.90163">
        <ele>68</ele>
        <time>2025-05-13T12:45:49Z</time>
      </trkpt>
      <trkpt lat="47.54823" lon="-2.9016">
        <ele>67</ele>
        <time>2025-05-13T12:45:50Z</time>
      </trkpt>
      <trkpt lat="47.54825" lon="-2.90156">
        <ele>67</ele>
        <time>2025-05-13T12:45:51Z</time>
      </trkpt>
      <trkpt lat="47.54827" lon="-2.90152">
        <ele>67</ele>
        <time>2025-05-13T12:45:52Z</time>
      </trkpt>
      <trkpt lat="47.54828" lon="-2.90148">
        <ele>66</ele>
        <time>2025-05-13T12:45:53Z</time>
      </trkpt>
      <trkpt lat="47.5483" lon="-2.90143">
        <ele>66</ele>
        <time>2025-05-13T12:45:54Z</time>
      </trkpt>
      <trkpt lat="47.54832" lon="-2.90139">
        <ele>67</ele>
        <time>2025-05-13T12:45:55Z</time>
      </trkpt>
      <trkpt lat="47.54834" lon="-2.90135">
        <ele>67</ele>
        <time>2025-05-13T12:45:56Z</time>
      </trkpt>
      <trkpt lat="47.54835" lon="-2.90131">
        <ele>67</ele>
        <time>2025-05-13T12:45:57Z</time>
      </trkpt>
      <trkpt lat="47.54838" lon="-2.90128">
        <ele>67</ele>
        <time>2025-05-13T12:45:58Z</time>
      </trkpt>
      <trkpt lat="47.54842" lon="-2.90125">
        <ele>67</ele>
        <time>2025-05-13T12:45:59Z</time>
      </trkpt>
      <trkpt lat="47.54845" lon="-2.90123">
        <ele>67</ele>
        <time>2025-05-13T12:46:00Z</time>
      </trkpt>
      <trkpt lat="47.54848" lon="-2.9012">
        <ele>67</ele>
        <time>2025-05-13T12:46:01Z</time>
      </trkpt>
      <trkpt lat="47.54852" lon="-2.90117">
        <ele>67</ele>
        <time>2025-05-13T12:46:02Z</time>
      </trkpt>
      <trkpt lat="47.54855" lon="-2.90113">
        <ele>66</ele>
        <time>2025-05-13T12:46:03Z</time>
      </trkpt>
      <trkpt lat="47.54858" lon="-2.9011">
        <ele>66</ele>
        <time>2025-05-13T12:46:04Z</time>
      </trkpt>
      <trkpt lat="47.54861" lon="-2.90106">
        <ele>67</ele>
        <time>2025-05-13T12:46:05Z</time>
      </trkpt>
      <trkpt lat="47.54864" lon="-2.90102">
        <ele>67</ele>
        <time>2025-05-13T12:46:06Z</time>
      </trkpt>
      <trkpt lat="47.54867" lon="-2.90098">
        <ele>67</ele>
        <time>2025-05-13T12:46:07Z</time>
      </trkpt>
      <trkpt lat="47.54869" lon="-2.90095">
        <ele>67</ele>
        <time>2025-05-13T12:46:08Z</time>
      </trkpt>
      <trkpt lat="47.54872" lon="-2.90092">
        <ele>67</ele>
        <time>2025-05-13T12:46:09Z</time>
      </trkpt>
      <trkpt lat="47.54875" lon="-2.90092">
        <ele>67</ele>
        <time>2025-05-13T12:46:10Z</time>
      </trkpt>
      <trkpt lat="47.54878" lon="-2.90093">
        <ele>67</ele>
        <time>2025-05-13T12:46:11Z</time>
      </trkpt>
      <trkpt lat="47.54881" lon="-2.90093">
        <ele>66</ele>
        <time>2025-05-13T12:46:12Z</time>
      </trkpt>
      <trkpt lat="47.54883" lon="-2.9009">
        <ele>67</ele>
        <time>2025-05-13T12:46:13Z</time>
      </trkpt>
      <trkpt lat="47.54885" lon="-2.90087">
        <ele>66</ele>
        <time>2025-05-13T12:46:14Z</time>
      </trkpt>
      <trkpt lat="47.54888" lon="-2.90084">
        <ele>67</ele>
        <time>2025-05-13T12:46:15Z</time>
      </trkpt>
      <trkpt lat="47.54891" lon="-2.90081">
        <ele>67</ele>
        <time>2025-05-13T12:46:16Z</time>
      </trkpt>
      <trkpt lat="47.54893" lon="-2.90077">
        <ele>66</ele>
        <time>2025-05-13T12:46:17Z</time>
      </trkpt>
      <trkpt lat="47.54896" lon="-2.90074">
        <ele>66</ele>
        <time>2025-05-13T12:46:18Z</time>
      </trkpt>
      <trkpt lat="47.54899" lon="-2.90071">
        <ele>66</ele>
        <time>2025-05-13T12:46:19Z</time>
      </trkpt>
      <trkpt lat="47.54902" lon="-2.90067">
        <ele>65</ele>
        <time>2025-05-13T12:46:20Z</time>
      </trkpt>
      <trkpt lat="47.54904" lon="-2.90064">
        <ele>65</ele>
        <time>2025-05-13T12:46:21Z</time>
      </trkpt>
      <trkpt lat="47.54907" lon="-2.90061">
        <ele>65</ele>
        <time>2025-05-13T12:46:22Z</time>
      </trkpt>
      <trkpt lat="47.5491" lon="-2.90058">
        <ele>64</ele>
        <time>2025-05-13T12:46:23Z</time>
      </trkpt>
      <trkpt lat="47.54913" lon="-2.90054">
        <ele>65</ele>
        <time>2025-05-13T12:46:24Z</time>
      </trkpt>
      <trkpt lat="47.54916" lon="-2.90051">
        <ele>65</ele>
        <time>2025-05-13T12:46:25Z</time>
      </trkpt>
      <trkpt lat="47.54919" lon="-2.90047">
        <ele>66</ele>
        <time>2025-05-13T12:46:26Z</time>
      </trkpt>
      <trkpt lat="47.54922" lon="-2.90043">
        <ele>66</ele>
        <time>2025-05-13T12:46:27Z</time>
      </trkpt>
      <trkpt lat="47.54925" lon="-2.9004">
        <ele>66</ele>
        <time>2025-05-13T12:46:28Z</time>
      </trkpt>
      <trkpt lat="47.54928" lon="-2.90037">
        <ele>66</ele>
        <time>2025-05-13T12:46:29Z</time>
      </trkpt>
      <trkpt lat="47.54931" lon="-2.90033">
        <ele>66</ele>
        <time>2025-05-13T12:46:30Z</time>
      </trkpt>
      <trkpt lat="47.54934" lon="-2.90029">
        <ele>66</ele>
        <time>2025-05-13T12:46:31Z</time>
      </trkpt>
      <trkpt lat="47.54937" lon="-2.90025">
        <ele>66</ele>
        <time>2025-05-13T12:46:32Z</time>
      </trkpt>
      <trkpt lat="47.54939" lon="-2.90021">
        <ele>66</ele>
        <time>2025-05-13T12:46:33Z</time>
      </trkpt>
      <trkpt lat="47.54942" lon="-2.90016">
        <ele>66</ele>
        <time>2025-05-13T12:46:34Z</time>
      </trkpt>
      <trkpt lat="47.54945" lon="-2.90012">
        <ele>66</ele>
        <time>2025-05-13T12:46:35Z</time>
      </trkpt>
      <trkpt lat="47.54948" lon="-2.90009">
        <ele>66</ele>
        <time>2025-05-13T12:46:36Z</time>
      </trkpt>
      <trkpt lat="47.54951" lon="-2.90005">
        <ele>66</ele>
        <time>2025-05-13T12:46:37Z</time>
      </trkpt>
      <trkpt lat="47.54954" lon="-2.90002">
        <ele>66</ele>
        <time>2025-05-13T12:46:38Z</time>
      </trkpt>
      <trkpt lat="47.54957" lon="-2.89998">
        <ele>66</ele>
        <time>2025-05-13T12:46:39Z</time>
      </trkpt>
      <trkpt lat="47.5496" lon="-2.89994">
        <ele>66</ele>
        <time>2025-05-13T12:46:40Z</time>
      </trkpt>
      <trkpt lat="47.54962" lon="-2.89989">
        <ele>66</ele>
        <time>2025-05-13T12:46:41Z</time>
      </trkpt>
      <trkpt lat="47.54966" lon="-2.89985">
        <ele>66</ele>
        <time>2025-05-13T12:46:42Z</time>
      </trkpt>
      <trkpt lat="47.54969" lon="-2.89981">
        <ele>66</ele>
        <time>2025-05-13T12:46:43Z</time>
      </trkpt>
      <trkpt lat="47.54972" lon="-2.89978">
        <ele>66</ele>
        <time>2025-05-13T12:46:44Z</time>
      </trkpt>
      <trkpt lat="47.54975" lon="-2.89974">
        <ele>66</ele>
        <time>2025-05-13T12:46:45Z</time>
      </trkpt>
      <trkpt lat="47.54978" lon="-2.8997">
        <ele>66</ele>
        <time>2025-05-13T12:46:46Z</time>
      </trkpt>
      <trkpt lat="47.54981" lon="-2.89966">
        <ele>66</ele>
        <time>2025-05-13T12:46:47Z</time>
      </trkpt>
      <trkpt lat="47.54984" lon="-2.89962">
        <ele>65</ele>
        <time>2025-05-13T12:46:48Z</time>
      </trkpt>
      <trkpt lat="47.54987" lon="-2.89958">
        <ele>66</ele>
        <time>2025-05-13T12:46:49Z</time>
      </trkpt>
      <trkpt lat="47.5499" lon="-2.89954">
        <ele>66</ele>
        <time>2025-05-13T12:46:50Z</time>
      </trkpt>
      <trkpt lat="47.54993" lon="-2.8995">
        <ele>65</ele>
        <time>2025-05-13T12:46:51Z</time>
      </trkpt>
      <trkpt lat="47.54996" lon="-2.89946">
        <ele>65</ele>
        <time>2025-05-13T12:46:52Z</time>
      </trkpt>
      <trkpt lat="47.54998" lon="-2.89943">
        <ele>66</ele>
        <time>2025-05-13T12:46:53Z</time>
      </trkpt>
      <trkpt lat="47.55001" lon="-2.89939">
        <ele>66</ele>
        <time>2025-05-13T12:46:54Z</time>
      </trkpt>
      <trkpt lat="47.55004" lon="-2.89935">
        <ele>65</ele>
        <time>2025-05-13T12:46:55Z</time>
      </trkpt>
      <trkpt lat="47.55007" lon="-2.89932">
        <ele>65</ele>
        <time>2025-05-13T12:46:56Z</time>
      </trkpt>
      <trkpt lat="47.5501" lon="-2.89928">
        <ele>65</ele>
        <time>2025-05-13T12:46:57Z</time>
      </trkpt>
      <trkpt lat="47.55013" lon="-2.89925">
        <ele>65</ele>
        <time>2025-05-13T12:46:58Z</time>
      </trkpt>
      <trkpt lat="47.55015" lon="-2.89921">
        <ele>64</ele>
        <time>2025-05-13T12:46:59Z</time>
      </trkpt>
      <trkpt lat="47.55019" lon="-2.89917">
        <ele>64</ele>
        <time>2025-05-13T12:47:00Z</time>
      </trkpt>
      <trkpt lat="47.55021" lon="-2.89914">
        <ele>64</ele>
        <time>2025-05-13T12:47:01Z</time>
      </trkpt>
      <trkpt lat="47.55025" lon="-2.8991">
        <ele>64</ele>
        <time>2025-05-13T12:47:02Z</time>
      </trkpt>
      <trkpt lat="47.55028" lon="-2.89906">
        <ele>64</ele>
        <time>2025-05-13T12:47:03Z</time>
      </trkpt>
      <trkpt lat="47.55031" lon="-2.89902">
        <ele>64</ele>
        <time>2025-05-13T12:47:04Z</time>
      </trkpt>
      <trkpt lat="47.55035" lon="-2.89897">
        <ele>64</ele>
        <time>2025-05-13T12:47:05Z</time>
      </trkpt>
      <trkpt lat="47.55038" lon="-2.89893">
        <ele>64</ele>
        <time>2025-05-13T12:47:06Z</time>
      </trkpt>
      <trkpt lat="47.55042" lon="-2.89889">
        <ele>64</ele>
        <time>2025-05-13T12:47:07Z</time>
      </trkpt>
      <trkpt lat="47.55046" lon="-2.89885">
        <ele>64</ele>
        <time>2025-05-13T12:47:08Z</time>
      </trkpt>
      <trkpt lat="47.55049" lon="-2.8988">
        <ele>64</ele>
        <time>2025-05-13T12:47:09Z</time>
      </trkpt>
      <trkpt lat="47.55053" lon="-2.89876">
        <ele>64</ele>
        <time>2025-05-13T12:47:10Z</time>
      </trkpt>
      <trkpt lat="47.55057" lon="-2.89872">
        <ele>63</ele>
        <time>2025-05-13T12:47:11Z</time>
      </trkpt>
      <trkpt lat="47.55061" lon="-2.89867">
        <ele>63</ele>
        <time>2025-05-13T12:47:12Z</time>
      </trkpt>
      <trkpt lat="47.55064" lon="-2.89863">
        <ele>63</ele>
        <time>2025-05-13T12:47:13Z</time>
      </trkpt>
      <trkpt lat="47.55068" lon="-2.89858">
        <ele>63</ele>
        <time>2025-05-13T12:47:14Z</time>
      </trkpt>
      <trkpt lat="47.55072" lon="-2.89853">
        <ele>63</ele>
        <time>2025-05-13T12:47:15Z</time>
      </trkpt>
      <trkpt lat="47.55076" lon="-2.89848">
        <ele>63</ele>
        <time>2025-05-13T12:47:16Z</time>
      </trkpt>
      <trkpt lat="47.5508" lon="-2.89843">
        <ele>62</ele>
        <time>2025-05-13T12:47:17Z</time>
      </trkpt>
      <trkpt lat="47.55084" lon="-2.89838">
        <ele>62</ele>
        <time>2025-05-13T12:47:18Z</time>
      </trkpt>
      <trkpt lat="47.55088" lon="-2.89833">
        <ele>62</ele>
        <time>2025-05-13T12:47:19Z</time>
      </trkpt>
      <trkpt lat="47.55092" lon="-2.89829">
        <ele>62</ele>
        <time>2025-05-13T12:47:20Z</time>
      </trkpt>
      <trkpt lat="47.55096" lon="-2.89823">
        <ele>62</ele>
        <time>2025-05-13T12:47:21Z</time>
      </trkpt>
      <trkpt lat="47.551" lon="-2.89818">
        <ele>62</ele>
        <time>2025-05-13T12:47:22Z</time>
      </trkpt>
      <trkpt lat="47.55104" lon="-2.89813">
        <ele>62</ele>
        <time>2025-05-13T12:47:23Z</time>
      </trkpt>
      <trkpt lat="47.55109" lon="-2.89808">
        <ele>62</ele>
        <time>2025-05-13T12:47:24Z</time>
      </trkpt>
      <trkpt lat="47.55113" lon="-2.89803">
        <ele>62</ele>
        <time>2025-05-13T12:47:25Z</time>
      </trkpt>
      <trkpt lat="47.55118" lon="-2.89797">
        <ele>62</ele>
        <time>2025-05-13T12:47:26Z</time>
      </trkpt>
      <trkpt lat="47.55122" lon="-2.89792">
        <ele>62</ele>
        <time>2025-05-13T12:47:27Z</time>
      </trkpt>
      <trkpt lat="47.55126" lon="-2.89786">
        <ele>62</ele>
        <time>2025-05-13T12:47:28Z</time>
      </trkpt>
      <trkpt lat="47.5513" lon="-2.89781">
        <ele>62</ele>
        <time>2025-05-13T12:47:29Z</time>
      </trkpt>
      <trkpt lat="47.55135" lon="-2.89775">
        <ele>62</ele>
        <time>2025-05-13T12:47:30Z</time>
      </trkpt>
      <trkpt lat="47.5514" lon="-2.8977">
        <ele>62</ele>
        <time>2025-05-13T12:47:31Z</time>
      </trkpt>
      <trkpt lat="47.55144" lon="-2.89765">
        <ele>61</ele>
        <time>2025-05-13T12:47:32Z</time>
      </trkpt>
      <trkpt lat="47.55148" lon="-2.89759">
        <ele>61</ele>
        <time>2025-05-13T12:47:33Z</time>
      </trkpt>
      <trkpt lat="47.55153" lon="-2.89753">
        <ele>61</ele>
        <time>2025-05-13T12:47:34Z</time>
      </trkpt>
      <trkpt lat="47.55157" lon="-2.89747">
        <ele>61</ele>
        <time>2025-05-13T12:47:35Z</time>
      </trkpt>
      <trkpt lat="47.55162" lon="-2.89742">
        <ele>61</ele>
        <time>2025-05-13T12:47:36Z</time>
      </trkpt>
      <trkpt lat="47.55166" lon="-2.89736">
        <ele>62</ele>
        <time>2025-05-13T12:47:37Z</time>
      </trkpt>
      <trkpt lat="47.5517" lon="-2.8973">
        <ele>62</ele>
        <time>2025-05-13T12:47:38Z</time>
      </trkpt>
      <trkpt lat="47.55175" lon="-2.89724">
        <ele>62</ele>
        <time>2025-05-13T12:47:39Z</time>
      </trkpt>
      <trkpt lat="47.55179" lon="-2.89719">
        <ele>62</ele>
        <time>2025-05-13T12:47:40Z</time>
      </trkpt>
      <trkpt lat="47.55183" lon="-2.89712">
        <ele>62</ele>
        <time>2025-05-13T12:47:41Z</time>
      </trkpt>
      <trkpt lat="47.55186" lon="-2.89706">
        <ele>62</ele>
        <time>2025-05-13T12:47:42Z</time>
      </trkpt>
      <trkpt lat="47.5519" lon="-2.897">
        <ele>62</ele>
        <time>2025-05-13T12:47:43Z</time>
      </trkpt>
      <trkpt lat="47.55193" lon="-2.89694">
        <ele>62</ele>
        <time>2025-05-13T12:47:44Z</time>
      </trkpt>
      <trkpt lat="47.55196" lon="-2.89688">
        <ele>62</ele>
        <time>2025-05-13T12:47:45Z</time>
      </trkpt>
      <trkpt lat="47.55199" lon="-2.89682">
        <ele>62</ele>
        <time>2025-05-13T12:47:46Z</time>
      </trkpt>
      <trkpt lat="47.55202" lon="-2.89676">
        <ele>62</ele>
        <time>2025-05-13T12:47:47Z</time>
      </trkpt>
      <trkpt lat="47.55204" lon="-2.8967">
        <ele>63</ele>
        <time>2025-05-13T12:47:48Z</time>
      </trkpt>
      <trkpt lat="47.55206" lon="-2.89664">
        <ele>63</ele>
        <time>2025-05-13T12:47:49Z</time>
      </trkpt>
      <trkpt lat="47.55209" lon="-2.89659">
        <ele>63</ele>
        <time>2025-05-13T12:47:50Z</time>
      </trkpt>
      <trkpt lat="47.55211" lon="-2.89653">
        <ele>64</ele>
        <time>2025-05-13T12:47:51Z</time>
      </trkpt>
      <trkpt lat="47.55213" lon="-2.89648">
        <ele>64</ele>
        <time>2025-05-13T12:47:52Z</time>
      </trkpt>
      <trkpt lat="47.55215" lon="-2.89643">
        <ele>64</ele>
        <time>2025-05-13T12:47:53Z</time>
      </trkpt>
      <trkpt lat="47.55217" lon="-2.89637">
        <ele>64</ele>
        <time>2025-05-13T12:47:54Z</time>
      </trkpt>
      <trkpt lat="47.55218" lon="-2.89632">
        <ele>64</ele>
        <time>2025-05-13T12:47:55Z</time>
      </trkpt>
      <trkpt lat="47.55219" lon="-2.89626">
        <ele>64</ele>
        <time>2025-05-13T12:47:56Z</time>
      </trkpt>
      <trkpt lat="47.55221" lon="-2.89621">
        <ele>64</ele>
        <time>2025-05-13T12:47:57Z</time>
      </trkpt>
      <trkpt lat="47.55222" lon="-2.89615">
        <ele>64</ele>
        <time>2025-05-13T12:47:58Z</time>
      </trkpt>
      <trkpt lat="47.55224" lon="-2.8961">
        <ele>64</ele>
        <time>2025-05-13T12:47:59Z</time>
      </trkpt>
      <trkpt lat="47.55226" lon="-2.89604">
        <ele>64</ele>
        <time>2025-05-13T12:48:00Z</time>
      </trkpt>
      <trkpt lat="47.55227" lon="-2.89599">
        <ele>64</ele>
        <time>2025-05-13T12:48:01Z</time>
      </trkpt>
      <trkpt lat="47.55228" lon="-2.89594">
        <ele>64</ele>
        <time>2025-05-13T12:48:02Z</time>
      </trkpt>
      <trkpt lat="47.55229" lon="-2.89588">
        <ele>64</ele>
        <time>2025-05-13T12:48:03Z</time>
      </trkpt>
      <trkpt lat="47.5523" lon="-2.89582">
        <ele>64</ele>
        <time>2025-05-13T12:48:04Z</time>
      </trkpt>
      <trkpt lat="47.55231" lon="-2.89577">
        <ele>64</ele>
        <time>2025-05-13T12:48:05Z</time>
      </trkpt>
      <trkpt lat="47.55232" lon="-2.89571">
        <ele>64</ele>
        <time>2025-05-13T12:48:06Z</time>
      </trkpt>
      <trkpt lat="47.55233" lon="-2.89565">
        <ele>65</ele>
        <time>2025-05-13T12:48:07Z</time>
      </trkpt>
      <trkpt lat="47.55234" lon="-2.8956">
        <ele>65</ele>
        <time>2025-05-13T12:48:08Z</time>
      </trkpt>
      <trkpt lat="47.55235" lon="-2.89555">
        <ele>65</ele>
        <time>2025-05-13T12:48:09Z</time>
      </trkpt>
      <trkpt lat="47.55236" lon="-2.89549">
        <ele>65</ele>
        <time>2025-05-13T12:48:10Z</time>
      </trkpt>
      <trkpt lat="47.55236" lon="-2.89544">
        <ele>65</ele>
        <time>2025-05-13T12:48:11Z</time>
      </trkpt>
      <trkpt lat="47.55236" lon="-2.89539">
        <ele>65</ele>
        <time>2025-05-13T12:48:12Z</time>
      </trkpt>
      <trkpt lat="47.55237" lon="-2.89534">
        <ele>65</ele>
        <time>2025-05-13T12:48:13Z</time>
      </trkpt>
      <trkpt lat="47.55237" lon="-2.89529">
        <ele>65</ele>
        <time>2025-05-13T12:48:14Z</time>
      </trkpt>
      <trkpt lat="47.55238" lon="-2.89524">
        <ele>65</ele>
        <time>2025-05-13T12:48:15Z</time>
      </trkpt>
      <trkpt lat="47.55239" lon="-2.89518">
        <ele>66</ele>
        <time>2025-05-13T12:48:16Z</time>
      </trkpt>
      <trkpt lat="47.55239" lon="-2.89513">
        <ele>66</ele>
        <time>2025-05-13T12:48:17Z</time>
      </trkpt>
      <trkpt lat="47.55239" lon="-2.89508">
        <ele>66</ele>
        <time>2025-05-13T12:48:18Z</time>
      </trkpt>
      <trkpt lat="47.55239" lon="-2.89504">
        <ele>66</ele>
        <time>2025-05-13T12:48:19Z</time>
      </trkpt>
      <trkpt lat="47.55238" lon="-2.89499">
        <ele>66</ele>
        <time>2025-05-13T12:48:20Z</time>
      </trkpt>
      <trkpt lat="47.55238" lon="-2.89495">
        <ele>66</ele>
        <time>2025-05-13T12:48:21Z</time>
      </trkpt>
      <trkpt lat="47.55237" lon="-2.8949">
        <ele>66</ele>
        <time>2025-05-13T12:48:22Z</time>
      </trkpt>
      <trkpt lat="47.55238" lon="-2.89485">
        <ele>66</ele>
        <time>2025-05-13T12:48:23Z</time>
      </trkpt>
      <trkpt lat="47.55237" lon="-2.8948">
        <ele>66</ele>
        <time>2025-05-13T12:48:24Z</time>
      </trkpt>
      <trkpt lat="47.55237" lon="-2.89475">
        <ele>66</ele>
        <time>2025-05-13T12:48:25Z</time>
      </trkpt>
      <trkpt lat="47.55237" lon="-2.89469">
        <ele>66</ele>
        <time>2025-05-13T12:48:26Z</time>
      </trkpt>
      <trkpt lat="47.55237" lon="-2.89464">
        <ele>66</ele>
        <time>2025-05-13T12:48:27Z</time>
      </trkpt>
      <trkpt lat="47.55237" lon="-2.89459">
        <ele>66</ele>
        <time>2025-05-13T12:48:28Z</time>
      </trkpt>
      <trkpt lat="47.55236" lon="-2.89454">
        <ele>66</ele>
        <time>2025-05-13T12:48:29Z</time>
      </trkpt>
      <trkpt lat="47.55236" lon="-2.89448">
        <ele>66</ele>
        <time>2025-05-13T12:48:30Z</time>
      </trkpt>
      <trkpt lat="47.55235" lon="-2.89443">
        <ele>66</ele>
        <time>2025-05-13T12:48:31Z</time>
      </trkpt>
      <trkpt lat="47.55235" lon="-2.89438">
        <ele>65</ele>
        <time>2025-05-13T12:48:32Z</time>
      </trkpt>
      <trkpt lat="47.55235" lon="-2.89432">
        <ele>65</ele>
        <time>2025-05-13T12:48:33Z</time>
      </trkpt>
      <trkpt lat="47.55235" lon="-2.89427">
        <ele>65</ele>
        <time>2025-05-13T12:48:34Z</time>
      </trkpt>
      <trkpt lat="47.55234" lon="-2.89421">
        <ele>66</ele>
        <time>2025-05-13T12:48:35Z</time>
      </trkpt>
      <trkpt lat="47.55234" lon="-2.89416">
        <ele>66</ele>
        <time>2025-05-13T12:48:36Z</time>
      </trkpt>
      <trkpt lat="47.55233" lon="-2.89411">
        <ele>66</ele>
        <time>2025-05-13T12:48:37Z</time>
      </trkpt>
      <trkpt lat="47.55232" lon="-2.89406">
        <ele>67</ele>
        <time>2025-05-13T12:48:38Z</time>
      </trkpt>
      <trkpt lat="47.55231" lon="-2.89401">
        <ele>67</ele>
        <time>2025-05-13T12:48:39Z</time>
      </trkpt>
      <trkpt lat="47.55231" lon="-2.89396">
        <ele>67</ele>
        <time>2025-05-13T12:48:40Z</time>
      </trkpt>
      <trkpt lat="47.5523" lon="-2.89391">
        <ele>67</ele>
        <time>2025-05-13T12:48:41Z</time>
      </trkpt>
      <trkpt lat="47.55229" lon="-2.89385">
        <ele>67</ele>
        <time>2025-05-13T12:48:42Z</time>
      </trkpt>
      <trkpt lat="47.55229" lon="-2.8938">
        <ele>66</ele>
        <time>2025-05-13T12:48:43Z</time>
      </trkpt>
      <trkpt lat="47.55227" lon="-2.89375">
        <ele>66</ele>
        <time>2025-05-13T12:48:44Z</time>
      </trkpt>
      <trkpt lat="47.55225" lon="-2.8937">
        <ele>66</ele>
        <time>2025-05-13T12:48:45Z</time>
      </trkpt>
      <trkpt lat="47.55224" lon="-2.89365">
        <ele>66</ele>
        <time>2025-05-13T12:48:46Z</time>
      </trkpt>
      <trkpt lat="47.55222" lon="-2.89359">
        <ele>66</ele>
        <time>2025-05-13T12:48:47Z</time>
      </trkpt>
      <trkpt lat="47.55221" lon="-2.89355">
        <ele>67</ele>
        <time>2025-05-13T12:48:48Z</time>
      </trkpt>
      <trkpt lat="47.55219" lon="-2.8935">
        <ele>66</ele>
        <time>2025-05-13T12:48:49Z</time>
      </trkpt>
      <trkpt lat="47.55217" lon="-2.89345">
        <ele>67</ele>
        <time>2025-05-13T12:48:50Z</time>
      </trkpt>
      <trkpt lat="47.55215" lon="-2.89341">
        <ele>67</ele>
        <time>2025-05-13T12:48:51Z</time>
      </trkpt>
      <trkpt lat="47.55213" lon="-2.89335">
        <ele>67</ele>
        <time>2025-05-13T12:48:52Z</time>
      </trkpt>
      <trkpt lat="47.55211" lon="-2.89331">
        <ele>67</ele>
        <time>2025-05-13T12:48:53Z</time>
      </trkpt>
      <trkpt lat="47.55209" lon="-2.89326">
        <ele>67</ele>
        <time>2025-05-13T12:48:54Z</time>
      </trkpt>
      <trkpt lat="47.55207" lon="-2.89321">
        <ele>67</ele>
        <time>2025-05-13T12:48:55Z</time>
      </trkpt>
      <trkpt lat="47.55205" lon="-2.89317">
        <ele>67</ele>
        <time>2025-05-13T12:48:56Z</time>
      </trkpt>
      <trkpt lat="47.55204" lon="-2.89312">
        <ele>67</ele>
        <time>2025-05-13T12:48:57Z</time>
      </trkpt>
      <trkpt lat="47.55201" lon="-2.89308">
        <ele>66</ele>
        <time>2025-05-13T12:48:58Z</time>
      </trkpt>
      <trkpt lat="47.552" lon="-2.89304">
        <ele>66</ele>
        <time>2025-05-13T12:48:59Z</time>
      </trkpt>
      <trkpt lat="47.55198" lon="-2.893">
        <ele>66</ele>
        <time>2025-05-13T12:49:00Z</time>
      </trkpt>
      <trkpt lat="47.55196" lon="-2.89295">
        <ele>66</ele>
        <time>2025-05-13T12:49:01Z</time>
      </trkpt>
      <trkpt lat="47.55194" lon="-2.89291">
        <ele>67</ele>
        <time>2025-05-13T12:49:02Z</time>
      </trkpt>
      <trkpt lat="47.55192" lon="-2.89288">
        <ele>67</ele>
        <time>2025-05-13T12:49:03Z</time>
      </trkpt>
      <trkpt lat="47.5519" lon="-2.89284">
        <ele>67</ele>
        <time>2025-05-13T12:49:04Z</time>
      </trkpt>
      <trkpt lat="47.55188" lon="-2.89281">
        <ele>67</ele>
        <time>2025-05-13T12:49:05Z</time>
      </trkpt>
      <trkpt lat="47.55186" lon="-2.89278">
        <ele>67</ele>
        <time>2025-05-13T12:49:06Z</time>
      </trkpt>
      <trkpt lat="47.55184" lon="-2.89275">
        <ele>67</ele>
        <time>2025-05-13T12:49:07Z</time>
      </trkpt>
      <trkpt lat="47.55181" lon="-2.89272">
        <ele>67</ele>
        <time>2025-05-13T12:49:08Z</time>
      </trkpt>
      <trkpt lat="47.5518" lon="-2.89268">
        <ele>67</ele>
        <time>2025-05-13T12:49:09Z</time>
      </trkpt>
      <trkpt lat="47.55178" lon="-2.89264">
        <ele>67</ele>
        <time>2025-05-13T12:49:10Z</time>
      </trkpt>
      <trkpt lat="47.55175" lon="-2.89261">
        <ele>68</ele>
        <time>2025-05-13T12:49:11Z</time>
      </trkpt>
      <trkpt lat="47.55173" lon="-2.89258">
        <ele>67</ele>
        <time>2025-05-13T12:49:12Z</time>
      </trkpt>
      <trkpt lat="47.55171" lon="-2.89254">
        <ele>68</ele>
        <time>2025-05-13T12:49:13Z</time>
      </trkpt>
      <trkpt lat="47.55168" lon="-2.89251">
        <ele>68</ele>
        <time>2025-05-13T12:49:14Z</time>
      </trkpt>
      <trkpt lat="47.55166" lon="-2.89248">
        <ele>68</ele>
        <time>2025-05-13T12:49:15Z</time>
      </trkpt>
      <trkpt lat="47.55164" lon="-2.89245">
        <ele>68</ele>
        <time>2025-05-13T12:49:16Z</time>
      </trkpt>
      <trkpt lat="47.55162" lon="-2.89242">
        <ele>68</ele>
        <time>2025-05-13T12:49:17Z</time>
      </trkpt>
      <trkpt lat="47.5516" lon="-2.89238">
        <ele>68</ele>
        <time>2025-05-13T12:49:18Z</time>
      </trkpt>
      <trkpt lat="47.55158" lon="-2.89235">
        <ele>68</ele>
        <time>2025-05-13T12:49:19Z</time>
      </trkpt>
      <trkpt lat="47.55156" lon="-2.89232">
        <ele>68</ele>
        <time>2025-05-13T12:49:20Z</time>
      </trkpt>
      <trkpt lat="47.55154" lon="-2.89229">
        <ele>69</ele>
        <time>2025-05-13T12:49:21Z</time>
      </trkpt>
      <trkpt lat="47.55151" lon="-2.89226">
        <ele>69</ele>
        <time>2025-05-13T12:49:22Z</time>
      </trkpt>
      <trkpt lat="47.55149" lon="-2.89223">
        <ele>69</ele>
        <time>2025-05-13T12:49:23Z</time>
      </trkpt>
      <trkpt lat="47.55147" lon="-2.89221">
        <ele>69</ele>
        <time>2025-05-13T12:49:24Z</time>
      </trkpt>
      <trkpt lat="47.55144" lon="-2.89218">
        <ele>69</ele>
        <time>2025-05-13T12:49:25Z</time>
      </trkpt>
      <trkpt lat="47.55142" lon="-2.89215">
        <ele>69</ele>
        <time>2025-05-13T12:49:26Z</time>
      </trkpt>
      <trkpt lat="47.5514" lon="-2.89211">
        <ele>69</ele>
        <time>2025-05-13T12:49:27Z</time>
      </trkpt>
      <trkpt lat="47.55138" lon="-2.89207">
        <ele>70</ele>
        <time>2025-05-13T12:49:28Z</time>
      </trkpt>
      <trkpt lat="47.55135" lon="-2.89204">
        <ele>70</ele>
        <time>2025-05-13T12:49:29Z</time>
      </trkpt>
      <trkpt lat="47.55133" lon="-2.892">
        <ele>70</ele>
        <time>2025-05-13T12:49:30Z</time>
      </trkpt>
      <trkpt lat="47.55131" lon="-2.89197">
        <ele>70</ele>
        <time>2025-05-13T12:49:31Z</time>
      </trkpt>
      <trkpt lat="47.55129" lon="-2.89194">
        <ele>70</ele>
        <time>2025-05-13T12:49:32Z</time>
      </trkpt>
      <trkpt lat="47.55126" lon="-2.89191">
        <ele>69</ele>
        <time>2025-05-13T12:49:33Z</time>
      </trkpt>
      <trkpt lat="47.55124" lon="-2.89188">
        <ele>69</ele>
        <time>2025-05-13T12:49:34Z</time>
      </trkpt>
      <trkpt lat="47.55122" lon="-2.89185">
        <ele>69</ele>
        <time>2025-05-13T12:49:35Z</time>
      </trkpt>
      <trkpt lat="47.55119" lon="-2.89182">
        <ele>70</ele>
        <time>2025-05-13T12:49:36Z</time>
      </trkpt>
      <trkpt lat="47.55117" lon="-2.89179">
        <ele>70</ele>
        <time>2025-05-13T12:49:37Z</time>
      </trkpt>
      <trkpt lat="47.55115" lon="-2.89176">
        <ele>71</ele>
        <time>2025-05-13T12:49:38Z</time>
      </trkpt>
      <trkpt lat="47.55114" lon="-2.89174">
        <ele>71</ele>
        <time>2025-05-13T12:49:39Z</time>
      </trkpt>
      <trkpt lat="47.55112" lon="-2.89171">
        <ele>71</ele>
        <time>2025-05-13T12:49:40Z</time>
      </trkpt>
      <trkpt lat="47.5511" lon="-2.89168">
        <ele>71</ele>
        <time>2025-05-13T12:49:41Z</time>
      </trkpt>
      <trkpt lat="47.55108" lon="-2.89163">
        <ele>71</ele>
        <time>2025-05-13T12:49:42Z</time>
      </trkpt>
      <trkpt lat="47.55105" lon="-2.89159">
        <ele>70</ele>
        <time>2025-05-13T12:49:43Z</time>
      </trkpt>
      <trkpt lat="47.55103" lon="-2.89156">
        <ele>70</ele>
        <time>2025-05-13T12:49:44Z</time>
      </trkpt>
      <trkpt lat="47.551" lon="-2.89152">
        <ele>69</ele>
        <time>2025-05-13T12:49:45Z</time>
      </trkpt>
      <trkpt lat="47.55098" lon="-2.89148">
        <ele>69</ele>
        <time>2025-05-13T12:49:46Z</time>
      </trkpt>
      <trkpt lat="47.55096" lon="-2.89143">
        <ele>69</ele>
        <time>2025-05-13T12:49:47Z</time>
      </trkpt>
      <trkpt lat="47.55094" lon="-2.89139">
        <ele>69</ele>
        <time>2025-05-13T12:49:48Z</time>
      </trkpt>
      <trkpt lat="47.55092" lon="-2.89134">
        <ele>69</ele>
        <time>2025-05-13T12:49:49Z</time>
      </trkpt>
      <trkpt lat="47.5509" lon="-2.89131">
        <ele>69</ele>
        <time>2025-05-13T12:49:50Z</time>
      </trkpt>
      <trkpt lat="47.55088" lon="-2.89127">
        <ele>69</ele>
        <time>2025-05-13T12:49:51Z</time>
      </trkpt>
      <trkpt lat="47.55086" lon="-2.89123">
        <ele>69</ele>
        <time>2025-05-13T12:49:52Z</time>
      </trkpt>
      <trkpt lat="47.55084" lon="-2.89119">
        <ele>69</ele>
        <time>2025-05-13T12:49:53Z</time>
      </trkpt>
      <trkpt lat="47.55082" lon="-2.89115">
        <ele>69</ele>
        <time>2025-05-13T12:49:54Z</time>
      </trkpt>
      <trkpt lat="47.5508" lon="-2.8911">
        <ele>69</ele>
        <time>2025-05-13T12:49:55Z</time>
      </trkpt>
      <trkpt lat="47.55079" lon="-2.89105">
        <ele>69</ele>
        <time>2025-05-13T12:49:56Z</time>
      </trkpt>
      <trkpt lat="47.55077" lon="-2.891">
        <ele>68</ele>
        <time>2025-05-13T12:49:57Z</time>
      </trkpt>
      <trkpt lat="47.55076" lon="-2.89095">
        <ele>68</ele>
        <time>2025-05-13T12:49:58Z</time>
      </trkpt>
      <trkpt lat="47.55074" lon="-2.8909">
        <ele>68</ele>
        <time>2025-05-13T12:49:59Z</time>
      </trkpt>
      <trkpt lat="47.55072" lon="-2.89085">
        <ele>68</ele>
        <time>2025-05-13T12:50:00Z</time>
      </trkpt>
      <trkpt lat="47.5507" lon="-2.8908">
        <ele>68</ele>
        <time>2025-05-13T12:50:01Z</time>
      </trkpt>
      <trkpt lat="47.55068" lon="-2.89075">
        <ele>68</ele>
        <time>2025-05-13T12:50:02Z</time>
      </trkpt>
      <trkpt lat="47.55066" lon="-2.89069">
        <ele>68</ele>
        <time>2025-05-13T12:50:03Z</time>
      </trkpt>
      <trkpt lat="47.55064" lon="-2.89064">
        <ele>68</ele>
        <time>2025-05-13T12:50:04Z</time>
      </trkpt>
      <trkpt lat="47.55063" lon="-2.89059">
        <ele>68</ele>
        <time>2025-05-13T12:50:05Z</time>
      </trkpt>
      <trkpt lat="47.55061" lon="-2.89053">
        <ele>67</ele>
        <time>2025-05-13T12:50:06Z</time>
      </trkpt>
      <trkpt lat="47.55059" lon="-2.89047">
        <ele>67</ele>
        <time>2025-05-13T12:50:07Z</time>
      </trkpt>
      <trkpt lat="47.55058" lon="-2.89042">
        <ele>67</ele>
        <time>2025-05-13T12:50:08Z</time>
      </trkpt>
      <trkpt lat="47.55057" lon="-2.89036">
        <ele>68</ele>
        <time>2025-05-13T12:50:09Z</time>
      </trkpt>
      <trkpt lat="47.55055" lon="-2.8903">
        <ele>68</ele>
        <time>2025-05-13T12:50:10Z</time>
      </trkpt>
      <trkpt lat="47.55054" lon="-2.89025">
        <ele>69</ele>
        <time>2025-05-13T12:50:11Z</time>
      </trkpt>
      <trkpt lat="47.55053" lon="-2.8902">
        <ele>69</ele>
        <time>2025-05-13T12:50:12Z</time>
      </trkpt>
      <trkpt lat="47.55052" lon="-2.89014">
        <ele>68</ele>
        <time>2025-05-13T12:50:13Z</time>
      </trkpt>
      <trkpt lat="47.55051" lon="-2.89009">
        <ele>68</ele>
        <time>2025-05-13T12:50:14Z</time>
      </trkpt>
      <trkpt lat="47.5505" lon="-2.89003">
        <ele>67</ele>
        <time>2025-05-13T12:50:15Z</time>
      </trkpt>
      <trkpt lat="47.55049" lon="-2.88998">
        <ele>68</ele>
        <time>2025-05-13T12:50:16Z</time>
      </trkpt>
      <trkpt lat="47.55047" lon="-2.88993">
        <ele>67</ele>
        <time>2025-05-13T12:50:17Z</time>
      </trkpt>
      <trkpt lat="47.55046" lon="-2.88987">
        <ele>68</ele>
        <time>2025-05-13T12:50:18Z</time>
      </trkpt>
      <trkpt lat="47.55045" lon="-2.88981">
        <ele>67</ele>
        <time>2025-05-13T12:50:19Z</time>
      </trkpt>
      <trkpt lat="47.55043" lon="-2.88976">
        <ele>68</ele>
        <time>2025-05-13T12:50:20Z</time>
      </trkpt>
      <trkpt lat="47.55042" lon="-2.8897">
        <ele>68</ele>
        <time>2025-05-13T12:50:21Z</time>
      </trkpt>
      <trkpt lat="47.55041" lon="-2.88965">
        <ele>68</ele>
        <time>2025-05-13T12:50:22Z</time>
      </trkpt>
      <trkpt lat="47.5504" lon="-2.8896">
        <ele>69</ele>
        <time>2025-05-13T12:50:23Z</time>
      </trkpt>
      <trkpt lat="47.55039" lon="-2.88955">
        <ele>69</ele>
        <time>2025-05-13T12:50:24Z</time>
      </trkpt>
      <trkpt lat="47.55039" lon="-2.88949">
        <ele>69</ele>
        <time>2025-05-13T12:50:25Z</time>
      </trkpt>
      <trkpt lat="47.55038" lon="-2.88944">
        <ele>69</ele>
        <time>2025-05-13T12:50:26Z</time>
      </trkpt>
      <trkpt lat="47.55037" lon="-2.88939">
        <ele>69</ele>
        <time>2025-05-13T12:50:27Z</time>
      </trkpt>
      <trkpt lat="47.55037" lon="-2.88935">
        <ele>68</ele>
        <time>2025-05-13T12:50:28Z</time>
      </trkpt>
      <trkpt lat="47.55036" lon="-2.8893">
        <ele>67</ele>
        <time>2025-05-13T12:50:29Z</time>
      </trkpt>
      <trkpt lat="47.55036" lon="-2.88925">
        <ele>67</ele>
        <time>2025-05-13T12:50:30Z</time>
      </trkpt>
      <trkpt lat="47.55035" lon="-2.88921">
        <ele>67</ele>
        <time>2025-05-13T12:50:31Z</time>
      </trkpt>
      <trkpt lat="47.55035" lon="-2.88917">
        <ele>67</ele>
        <time>2025-05-13T12:50:32Z</time>
      </trkpt>
      <trkpt lat="47.55035" lon="-2.88915">
        <ele>67</ele>
        <time>2025-05-13T12:50:33Z</time>
      </trkpt>
      <trkpt lat="47.55034" lon="-2.88912">
        <ele>67</ele>
        <time>2025-05-13T12:50:34Z</time>
      </trkpt>
      <trkpt lat="47.55033" lon="-2.8891">
        <ele>67</ele>
        <time>2025-05-13T12:50:35Z</time>
      </trkpt>
      <trkpt lat="47.55032" lon="-2.88906">
        <ele>67</ele>
        <time>2025-05-13T12:50:36Z</time>
      </trkpt>
      <trkpt lat="47.55032" lon="-2.88901">
        <ele>67</ele>
        <time>2025-05-13T12:50:37Z</time>
      </trkpt>
      <trkpt lat="47.55033" lon="-2.88896">
        <ele>67</ele>
        <time>2025-05-13T12:50:38Z</time>
      </trkpt>
      <trkpt lat="47.55034" lon="-2.88891">
        <ele>67</ele>
        <time>2025-05-13T12:50:39Z</time>
      </trkpt>
      <trkpt lat="47.55036" lon="-2.88887">
        <ele>67</ele>
        <time>2025-05-13T12:50:40Z</time>
      </trkpt>
      <trkpt lat="47.55037" lon="-2.88882">
        <ele>67</ele>
        <time>2025-05-13T12:50:41Z</time>
      </trkpt>
      <trkpt lat="47.55039" lon="-2.88878">
        <ele>67</ele>
        <time>2025-05-13T12:50:42Z</time>
      </trkpt>
      <trkpt lat="47.55041" lon="-2.88874">
        <ele>66</ele>
        <time>2025-05-13T12:50:43Z</time>
      </trkpt>
      <trkpt lat="47.55042" lon="-2.8887">
        <ele>66</ele>
        <time>2025-05-13T12:50:44Z</time>
      </trkpt>
      <trkpt lat="47.55044" lon="-2.88866">
        <ele>66</ele>
        <time>2025-05-13T12:50:45Z</time>
      </trkpt>
      <trkpt lat="47.55045" lon="-2.88862">
        <ele>66</ele>
        <time>2025-05-13T12:50:46Z</time>
      </trkpt>
      <trkpt lat="47.55047" lon="-2.88858">
        <ele>67</ele>
        <time>2025-05-13T12:50:47Z</time>
      </trkpt>
      <trkpt lat="47.55049" lon="-2.88853">
        <ele>67</ele>
        <time>2025-05-13T12:50:48Z</time>
      </trkpt>
      <trkpt lat="47.5505" lon="-2.88849">
        <ele>67</ele>
        <time>2025-05-13T12:50:49Z</time>
      </trkpt>
      <trkpt lat="47.55052" lon="-2.88845">
        <ele>67</ele>
        <time>2025-05-13T12:50:50Z</time>
      </trkpt>
      <trkpt lat="47.55054" lon="-2.88841">
        <ele>67</ele>
        <time>2025-05-13T12:50:51Z</time>
      </trkpt>
      <trkpt lat="47.55055" lon="-2.88837">
        <ele>67</ele>
        <time>2025-05-13T12:50:52Z</time>
      </trkpt>
      <trkpt lat="47.55057" lon="-2.88834">
        <ele>68</ele>
        <time>2025-05-13T12:50:53Z</time>
      </trkpt>
      <trkpt lat="47.55059" lon="-2.8883">
        <ele>68</ele>
        <time>2025-05-13T12:50:54Z</time>
      </trkpt>
      <trkpt lat="47.5506" lon="-2.88826">
        <ele>68</ele>
        <time>2025-05-13T12:50:55Z</time>
      </trkpt>
      <trkpt lat="47.55061" lon="-2.88822">
        <ele>68</ele>
        <time>2025-05-13T12:50:56Z</time>
      </trkpt>
      <trkpt lat="47.55063" lon="-2.88817">
        <ele>68</ele>
        <time>2025-05-13T12:50:57Z</time>
      </trkpt>
      <trkpt lat="47.55065" lon="-2.88814">
        <ele>69</ele>
        <time>2025-05-13T12:50:58Z</time>
      </trkpt>
      <trkpt lat="47.55066" lon="-2.8881">
        <ele>69</ele>
        <time>2025-05-13T12:50:59Z</time>
      </trkpt>
      <trkpt lat="47.55068" lon="-2.88806">
        <ele>69</ele>
        <time>2025-05-13T12:51:00Z</time>
      </trkpt>
      <trkpt lat="47.55069" lon="-2.88802">
        <ele>69</ele>
        <time>2025-05-13T12:51:01Z</time>
      </trkpt>
      <trkpt lat="47.55071" lon="-2.88799">
        <ele>70</ele>
        <time>2025-05-13T12:51:02Z</time>
      </trkpt>
      <trkpt lat="47.55072" lon="-2.88795">
        <ele>69</ele>
        <time>2025-05-13T12:51:03Z</time>
      </trkpt>
      <trkpt lat="47.55074" lon="-2.88791">
        <ele>69</ele>
        <time>2025-05-13T12:51:04Z</time>
      </trkpt>
      <trkpt lat="47.55075" lon="-2.88787">
        <ele>69</ele>
        <time>2025-05-13T12:51:05Z</time>
      </trkpt>
      <trkpt lat="47.55077" lon="-2.88783">
        <ele>69</ele>
        <time>2025-05-13T12:51:06Z</time>
      </trkpt>
      <trkpt lat="47.55078" lon="-2.8878">
        <ele>69</ele>
        <time>2025-05-13T12:51:07Z</time>
      </trkpt>
      <trkpt lat="47.5508" lon="-2.88776">
        <ele>69</ele>
        <time>2025-05-13T12:51:08Z</time>
      </trkpt>
      <trkpt lat="47.55082" lon="-2.88773">
        <ele>69</ele>
        <time>2025-05-13T12:51:09Z</time>
      </trkpt>
      <trkpt lat="47.55084" lon="-2.88769">
        <ele>69</ele>
        <time>2025-05-13T12:51:10Z</time>
      </trkpt>
      <trkpt lat="47.55085" lon="-2.88765">
        <ele>69</ele>
        <time>2025-05-13T12:51:11Z</time>
      </trkpt>
      <trkpt lat="47.55087" lon="-2.88762">
        <ele>69</ele>
        <time>2025-05-13T12:51:12Z</time>
      </trkpt>
      <trkpt lat="47.55089" lon="-2.88758">
        <ele>69</ele>
        <time>2025-05-13T12:51:13Z</time>
      </trkpt>
      <trkpt lat="47.55091" lon="-2.88754">
        <ele>69</ele>
        <time>2025-05-13T12:51:14Z</time>
      </trkpt>
      <trkpt lat="47.55093" lon="-2.88751">
        <ele>69</ele>
        <time>2025-05-13T12:51:15Z</time>
      </trkpt>
      <trkpt lat="47.55095" lon="-2.88747">
        <ele>69</ele>
        <time>2025-05-13T12:51:16Z</time>
      </trkpt>
      <trkpt lat="47.55097" lon="-2.88743">
        <ele>69</ele>
        <time>2025-05-13T12:51:17Z</time>
      </trkpt>
      <trkpt lat="47.551" lon="-2.88739">
        <ele>69</ele>
        <time>2025-05-13T12:51:18Z</time>
      </trkpt>
      <trkpt lat="47.55102" lon="-2.88734">
        <ele>69</ele>
        <time>2025-05-13T12:51:19Z</time>
      </trkpt>
      <trkpt lat="47.55104" lon="-2.88729">
        <ele>69</ele>
        <time>2025-05-13T12:51:20Z</time>
      </trkpt>
      <trkpt lat="47.55107" lon="-2.88724">
        <ele>69</ele>
        <time>2025-05-13T12:51:21Z</time>
      </trkpt>
      <trkpt lat="47.55109" lon="-2.88719">
        <ele>69</ele>
        <time>2025-05-13T12:51:22Z</time>
      </trkpt>
      <trkpt lat="47.55111" lon="-2.88713">
        <ele>69</ele>
        <time>2025-05-13T12:51:23Z</time>
      </trkpt>
      <trkpt lat="47.55114" lon="-2.88707">
        <ele>69</ele>
        <time>2025-05-13T12:51:24Z</time>
      </trkpt>
      <trkpt lat="47.55116" lon="-2.88701">
        <ele>70</ele>
        <time>2025-05-13T12:51:25Z</time>
      </trkpt>
      <trkpt lat="47.55118" lon="-2.88695">
        <ele>70</ele>
        <time>2025-05-13T12:51:26Z</time>
      </trkpt>
      <trkpt lat="47.5512" lon="-2.88689">
        <ele>70</ele>
        <time>2025-05-13T12:51:27Z</time>
      </trkpt>
      <trkpt lat="47.55122" lon="-2.88683">
        <ele>69</ele>
        <time>2025-05-13T12:51:28Z</time>
      </trkpt>
      <trkpt lat="47.55124" lon="-2.88677">
        <ele>69</ele>
        <time>2025-05-13T12:51:29Z</time>
      </trkpt>
      <trkpt lat="47.55125" lon="-2.8867">
        <ele>70</ele>
        <time>2025-05-13T12:51:30Z</time>
      </trkpt>
      <trkpt lat="47.55127" lon="-2.88663">
        <ele>70</ele>
        <time>2025-05-13T12:51:31Z</time>
      </trkpt>
      <trkpt lat="47.55128" lon="-2.88656">
        <ele>69</ele>
        <time>2025-05-13T12:51:32Z</time>
      </trkpt>
      <trkpt lat="47.55129" lon="-2.88649">
        <ele>69</ele>
        <time>2025-05-13T12:51:33Z</time>
      </trkpt>
      <trkpt lat="47.55129" lon="-2.88642">
        <ele>69</ele>
        <time>2025-05-13T12:51:34Z</time>
      </trkpt>
      <trkpt lat="47.5513" lon="-2.88635">
        <ele>69</ele>
        <time>2025-05-13T12:51:35Z</time>
      </trkpt>
      <trkpt lat="47.5513" lon="-2.88628">
        <ele>69</ele>
        <time>2025-05-13T12:51:36Z</time>
      </trkpt>
      <trkpt lat="47.55131" lon="-2.88621">
        <ele>69</ele>
        <time>2025-05-13T12:51:37Z</time>
      </trkpt>
      <trkpt lat="47.55131" lon="-2.88615">
        <ele>69</ele>
        <time>2025-05-13T12:51:38Z</time>
      </trkpt>
      <trkpt lat="47.55132" lon="-2.88608">
        <ele>69</ele>
        <time>2025-05-13T12:51:39Z</time>
      </trkpt>
      <trkpt lat="47.55132" lon="-2.88601">
        <ele>69</ele>
        <time>2025-05-13T12:51:40Z</time>
      </trkpt>
      <trkpt lat="47.55132" lon="-2.88594">
        <ele>70</ele>
        <time>2025-05-13T12:51:41Z</time>
      </trkpt>
      <trkpt lat="47.55132" lon="-2.88587">
        <ele>70</ele>
        <time>2025-05-13T12:51:42Z</time>
      </trkpt>
      <trkpt lat="47.55133" lon="-2.8858">
        <ele>70</ele>
        <time>2025-05-13T12:51:43Z</time>
      </trkpt>
      <trkpt lat="47.55133" lon="-2.88573">
        <ele>69</ele>
        <time>2025-05-13T12:51:44Z</time>
      </trkpt>
      <trkpt lat="47.55134" lon="-2.88565">
        <ele>69</ele>
        <time>2025-05-13T12:51:45Z</time>
      </trkpt>
      <trkpt lat="47.55135" lon="-2.88558">
        <ele>69</ele>
        <time>2025-05-13T12:51:46Z</time>
      </trkpt>
      <trkpt lat="47.55136" lon="-2.88551">
        <ele>69</ele>
        <time>2025-05-13T12:51:47Z</time>
      </trkpt>
      <trkpt lat="47.55138" lon="-2.88545">
        <ele>69</ele>
        <time>2025-05-13T12:51:48Z</time>
      </trkpt>
      <trkpt lat="47.5514" lon="-2.88538">
        <ele>69</ele>
        <time>2025-05-13T12:51:49Z</time>
      </trkpt>
      <trkpt lat="47.55142" lon="-2.88532">
        <ele>69</ele>
        <time>2025-05-13T12:51:50Z</time>
      </trkpt>
      <trkpt lat="47.55144" lon="-2.88526">
        <ele>69</ele>
        <time>2025-05-13T12:51:51Z</time>
      </trkpt>
      <trkpt lat="47.55147" lon="-2.88521">
        <ele>69</ele>
        <time>2025-05-13T12:51:52Z</time>
      </trkpt>
      <trkpt lat="47.5515" lon="-2.88516">
        <ele>69</ele>
        <time>2025-05-13T12:51:53Z</time>
      </trkpt>
      <trkpt lat="47.55152" lon="-2.8851">
        <ele>69</ele>
        <time>2025-05-13T12:51:54Z</time>
      </trkpt>
      <trkpt lat="47.55155" lon="-2.88505">
        <ele>69</ele>
        <time>2025-05-13T12:51:55Z</time>
      </trkpt>
      <trkpt lat="47.55157" lon="-2.88501">
        <ele>69</ele>
        <time>2025-05-13T12:51:56Z</time>
      </trkpt>
      <trkpt lat="47.5516" lon="-2.88497">
        <ele>69</ele>
        <time>2025-05-13T12:51:57Z</time>
      </trkpt>
      <trkpt lat="47.55162" lon="-2.88493">
        <ele>69</ele>
        <time>2025-05-13T12:51:58Z</time>
      </trkpt>
      <trkpt lat="47.55165" lon="-2.88488">
        <ele>69</ele>
        <time>2025-05-13T12:51:59Z</time>
      </trkpt>
      <trkpt lat="47.55168" lon="-2.88483">
        <ele>69</ele>
        <time>2025-05-13T12:52:00Z</time>
      </trkpt>
      <trkpt lat="47.5517" lon="-2.88479">
        <ele>70</ele>
        <time>2025-05-13T12:52:01Z</time>
      </trkpt>
      <trkpt lat="47.55173" lon="-2.88475">
        <ele>70</ele>
        <time>2025-05-13T12:52:02Z</time>
      </trkpt>
      <trkpt lat="47.55176" lon="-2.88471">
        <ele>70</ele>
        <time>2025-05-13T12:52:03Z</time>
      </trkpt>
      <trkpt lat="47.55178" lon="-2.88466">
        <ele>70</ele>
        <time>2025-05-13T12:52:04Z</time>
      </trkpt>
      <trkpt lat="47.55181" lon="-2.88461">
        <ele>70</ele>
        <time>2025-05-13T12:52:05Z</time>
      </trkpt>
      <trkpt lat="47.55183" lon="-2.88457">
        <ele>70</ele>
        <time>2025-05-13T12:52:06Z</time>
      </trkpt>
      <trkpt lat="47.55186" lon="-2.88453">
        <ele>70</ele>
        <time>2025-05-13T12:52:07Z</time>
      </trkpt>
      <trkpt lat="47.55188" lon="-2.88449">
        <ele>70</ele>
        <time>2025-05-13T12:52:08Z</time>
      </trkpt>
      <trkpt lat="47.55191" lon="-2.88445">
        <ele>70</ele>
        <time>2025-05-13T12:52:09Z</time>
      </trkpt>
      <trkpt lat="47.55193" lon="-2.88441">
        <ele>70</ele>
        <time>2025-05-13T12:52:10Z</time>
      </trkpt>
      <trkpt lat="47.55196" lon="-2.88438">
        <ele>71</ele>
        <time>2025-05-13T12:52:11Z</time>
      </trkpt>
      <trkpt lat="47.55198" lon="-2.88434">
        <ele>71</ele>
        <time>2025-05-13T12:52:12Z</time>
      </trkpt>
      <trkpt lat="47.552" lon="-2.8843">
        <ele>71</ele>
        <time>2025-05-13T12:52:13Z</time>
      </trkpt>
      <trkpt lat="47.55202" lon="-2.88426">
        <ele>71</ele>
        <time>2025-05-13T12:52:14Z</time>
      </trkpt>
      <trkpt lat="47.55204" lon="-2.88423">
        <ele>71</ele>
        <time>2025-05-13T12:52:15Z</time>
      </trkpt>
      <trkpt lat="47.55206" lon="-2.88419">
        <ele>71</ele>
        <time>2025-05-13T12:52:16Z</time>
      </trkpt>
      <trkpt lat="47.55208" lon="-2.88415">
        <ele>71</ele>
        <time>2025-05-13T12:52:17Z</time>
      </trkpt>
      <trkpt lat="47.55211" lon="-2.88411">
        <ele>72</ele>
        <time>2025-05-13T12:52:18Z</time>
      </trkpt>
      <trkpt lat="47.55213" lon="-2.88407">
        <ele>72</ele>
        <time>2025-05-13T12:52:19Z</time>
      </trkpt>
      <trkpt lat="47.55216" lon="-2.88403">
        <ele>72</ele>
        <time>2025-05-13T12:52:20Z</time>
      </trkpt>
      <trkpt lat="47.55218" lon="-2.88398">
        <ele>72</ele>
        <time>2025-05-13T12:52:21Z</time>
      </trkpt>
      <trkpt lat="47.55221" lon="-2.88394">
        <ele>72</ele>
        <time>2025-05-13T12:52:22Z</time>
      </trkpt>
      <trkpt lat="47.55223" lon="-2.88389">
        <ele>72</ele>
        <time>2025-05-13T12:52:23Z</time>
      </trkpt>
      <trkpt lat="47.55226" lon="-2.88385">
        <ele>72</ele>
        <time>2025-05-13T12:52:24Z</time>
      </trkpt>
      <trkpt lat="47.55229" lon="-2.8838">
        <ele>72</ele>
        <time>2025-05-13T12:52:25Z</time>
      </trkpt>
      <trkpt lat="47.55232" lon="-2.88375">
        <ele>72</ele>
        <time>2025-05-13T12:52:26Z</time>
      </trkpt>
      <trkpt lat="47.55235" lon="-2.88371">
        <ele>71</ele>
        <time>2025-05-13T12:52:27Z</time>
      </trkpt>
      <trkpt lat="47.55238" lon="-2.88366">
        <ele>71</ele>
        <time>2025-05-13T12:52:28Z</time>
      </trkpt>
      <trkpt lat="47.55241" lon="-2.88361">
        <ele>71</ele>
        <time>2025-05-13T12:52:29Z</time>
      </trkpt>
      <trkpt lat="47.55244" lon="-2.88357">
        <ele>71</ele>
        <time>2025-05-13T12:52:30Z</time>
      </trkpt>
      <trkpt lat="47.55246" lon="-2.88352">
        <ele>71</ele>
        <time>2025-05-13T12:52:31Z</time>
      </trkpt>
      <trkpt lat="47.55249" lon="-2.88347">
        <ele>71</ele>
        <time>2025-05-13T12:52:32Z</time>
      </trkpt>
      <trkpt lat="47.55251" lon="-2.88341">
        <ele>71</ele>
        <time>2025-05-13T12:52:33Z</time>
      </trkpt>
      <trkpt lat="47.55254" lon="-2.88336">
        <ele>70</ele>
        <time>2025-05-13T12:52:34Z</time>
      </trkpt>
      <trkpt lat="47.55257" lon="-2.88331">
        <ele>70</ele>
        <time>2025-05-13T12:52:35Z</time>
      </trkpt>
      <trkpt lat="47.5526" lon="-2.88326">
        <ele>70</ele>
        <time>2025-05-13T12:52:36Z</time>
      </trkpt>
      <trkpt lat="47.55263" lon="-2.88321">
        <ele>70</ele>
        <time>2025-05-13T12:52:37Z</time>
      </trkpt>
      <trkpt lat="47.55266" lon="-2.88316">
        <ele>69</ele>
        <time>2025-05-13T12:52:38Z</time>
      </trkpt>
      <trkpt lat="47.55269" lon="-2.88311">
        <ele>69</ele>
        <time>2025-05-13T12:52:39Z</time>
      </trkpt>
      <trkpt lat="47.55271" lon="-2.88306">
        <ele>69</ele>
        <time>2025-05-13T12:52:40Z</time>
      </trkpt>
      <trkpt lat="47.55273" lon="-2.883">
        <ele>68</ele>
        <time>2025-05-13T12:52:41Z</time>
      </trkpt>
      <trkpt lat="47.55276" lon="-2.88294">
        <ele>69</ele>
        <time>2025-05-13T12:52:42Z</time>
      </trkpt>
      <trkpt lat="47.55278" lon="-2.88289">
        <ele>69</ele>
        <time>2025-05-13T12:52:43Z</time>
      </trkpt>
      <trkpt lat="47.55282" lon="-2.88283">
        <ele>69</ele>
        <time>2025-05-13T12:52:44Z</time>
      </trkpt>
      <trkpt lat="47.55286" lon="-2.88278">
        <ele>68</ele>
        <time>2025-05-13T12:52:45Z</time>
      </trkpt>
      <trkpt lat="47.5529" lon="-2.88272">
        <ele>68</ele>
        <time>2025-05-13T12:52:46Z</time>
      </trkpt>
      <trkpt lat="47.55294" lon="-2.88269">
        <ele>67</ele>
        <time>2025-05-13T12:52:47Z</time>
      </trkpt>
      <trkpt lat="47.55299" lon="-2.88268">
        <ele>67</ele>
        <time>2025-05-13T12:52:48Z</time>
      </trkpt>
      <trkpt lat="47.55305" lon="-2.88269">
        <ele>66</ele>
        <time>2025-05-13T12:52:49Z</time>
      </trkpt>
      <trkpt lat="47.5531" lon="-2.88271">
        <ele>66</ele>
        <time>2025-05-13T12:52:50Z</time>
      </trkpt>
      <trkpt lat="47.55316" lon="-2.88272">
        <ele>66</ele>
        <time>2025-05-13T12:52:51Z</time>
      </trkpt>
      <trkpt lat="47.55321" lon="-2.88272">
        <ele>66</ele>
        <time>2025-05-13T12:52:52Z</time>
      </trkpt>
      <trkpt lat="47.55326" lon="-2.88272">
        <ele>66</ele>
        <time>2025-05-13T12:52:53Z</time>
      </trkpt>
      <trkpt lat="47.55329" lon="-2.88271">
        <ele>66</ele>
        <time>2025-05-13T12:52:54Z</time>
      </trkpt>
      <trkpt lat="47.5533" lon="-2.88269">
        <ele>65</ele>
        <time>2025-05-13T12:52:55Z</time>
      </trkpt>
      <trkpt lat="47.5533" lon="-2.88268">
        <ele>66</ele>
        <time>2025-05-13T12:52:56Z</time>
      </trkpt>
      <trkpt lat="47.5533" lon="-2.88267">
        <ele>66</ele>
        <time>2025-05-13T12:52:57Z</time>
      </trkpt>
      <trkpt lat="47.5533" lon="-2.88267">
        <ele>66</ele>
        <time>2025-05-13T12:52:58Z</time>
      </trkpt>
      <trkpt lat="47.5533" lon="-2.88267">
        <ele>66</ele>
        <time>2025-05-13T12:52:59Z</time>
      </trkpt>
      <trkpt lat="47.5533" lon="-2.88267">
        <ele>66</ele>
        <time>2025-05-13T12:53:00Z</time>
      </trkpt>
      <trkpt lat="47.5533" lon="-2.88267">
        <ele>66</ele>
        <time>2025-05-13T12:53:01Z</time>
      </trkpt>
      <trkpt lat="47.5533" lon="-2.88267">
        <ele>66</ele>
        <time>2025-05-13T12:53:02Z</time>
      </trkpt>
      <trkpt lat="47.5533" lon="-2.88267">
        <ele>66</ele>
        <time>2025-05-13T12:53:03Z</time>
      </trkpt>
      <trkpt lat="47.55332" lon="-2.88263">
        <ele>65</ele>
        <time>2025-05-13T12:53:04Z</time>
      </trkpt>
      <trkpt lat="47.55334" lon="-2.88261">
        <ele>65</ele>
        <time>2025-05-13T12:53:05Z</time>
      </trkpt>
      <trkpt lat="47.55337" lon="-2.8826">
        <ele>65</ele>
        <time>2025-05-13T12:53:06Z</time>
      </trkpt>
      <trkpt lat="47.55341" lon="-2.88258">
        <ele>64</ele>
        <time>2025-05-13T12:53:07Z</time>
      </trkpt>
      <trkpt lat="47.55345" lon="-2.88257">
        <ele>63</ele>
        <time>2025-05-13T12:53:08Z</time>
      </trkpt>
      <trkpt lat="47.5535" lon="-2.88256">
        <ele>63</ele>
        <time>2025-05-13T12:53:09Z</time>
      </trkpt>
      <trkpt lat="47.55355" lon="-2.88255">
        <ele>62</ele>
        <time>2025-05-13T12:53:10Z</time>
      </trkpt>
      <trkpt lat="47.5536" lon="-2.88253">
        <ele>61</ele>
        <time>2025-05-13T12:53:11Z</time>
      </trkpt>
      <trkpt lat="47.55365" lon="-2.88251">
        <ele>60</ele>
        <time>2025-05-13T12:53:12Z</time>
      </trkpt>
      <trkpt lat="47.5537" lon="-2.88247">
        <ele>59</ele>
        <time>2025-05-13T12:53:13Z</time>
      </trkpt>
      <trkpt lat="47.55374" lon="-2.88241">
        <ele>58</ele>
        <time>2025-05-13T12:53:14Z</time>
      </trkpt>
      <trkpt lat="47.55378" lon="-2.88233">
        <ele>57</ele>
        <time>2025-05-13T12:53:15Z</time>
      </trkpt>
      <trkpt lat="47.55383" lon="-2.88228">
        <ele>57</ele>
        <time>2025-05-13T12:53:16Z</time>
      </trkpt>
      <trkpt lat="47.55388" lon="-2.88224">
        <ele>57</ele>
        <time>2025-05-13T12:53:17Z</time>
      </trkpt>
      <trkpt lat="47.55393" lon="-2.88221">
        <ele>57</ele>
        <time>2025-05-13T12:53:18Z</time>
      </trkpt>
      <trkpt lat="47.55398" lon="-2.88218">
        <ele>57</ele>
        <time>2025-05-13T12:53:19Z</time>
      </trkpt>
      <trkpt lat="47.55404" lon="-2.88214">
        <ele>57</ele>
        <time>2025-05-13T12:53:20Z</time>
      </trkpt>
      <trkpt lat="47.55409" lon="-2.88211">
        <ele>57</ele>
        <time>2025-05-13T12:53:21Z</time>
      </trkpt>
      <trkpt lat="47.55413" lon="-2.88205">
        <ele>57</ele>
        <time>2025-05-13T12:53:22Z</time>
      </trkpt>
      <trkpt lat="47.55417" lon="-2.88201">
        <ele>58</ele>
        <time>2025-05-13T12:53:23Z</time>
      </trkpt>
      <trkpt lat="47.55421" lon="-2.88195">
        <ele>58</ele>
        <time>2025-05-13T12:53:24Z</time>
      </trkpt>
      <trkpt lat="47.55423" lon="-2.88189">
        <ele>58</ele>
        <time>2025-05-13T12:53:25Z</time>
      </trkpt>
      <trkpt lat="47.55425" lon="-2.88184">
        <ele>58</ele>
        <time>2025-05-13T12:53:26Z</time>
      </trkpt>
      <trkpt lat="47.55428" lon="-2.88178">
        <ele>59</ele>
        <time>2025-05-13T12:53:27Z</time>
      </trkpt>
      <trkpt lat="47.5543" lon="-2.88172">
        <ele>58</ele>
        <time>2025-05-13T12:53:28Z</time>
      </trkpt>
      <trkpt lat="47.55432" lon="-2.88166">
        <ele>59</ele>
        <time>2025-05-13T12:53:29Z</time>
      </trkpt>
      <trkpt lat="47.55433" lon="-2.88159">
        <ele>59</ele>
        <time>2025-05-13T12:53:30Z</time>
      </trkpt>
      <trkpt lat="47.55434" lon="-2.88152">
        <ele>59</ele>
        <time>2025-05-13T12:53:31Z</time>
      </trkpt>
      <trkpt lat="47.55436" lon="-2.88146">
        <ele>59</ele>
        <time>2025-05-13T12:53:32Z</time>
      </trkpt>
      <trkpt lat="47.55437" lon="-2.8814">
        <ele>59</ele>
        <time>2025-05-13T12:53:33Z</time>
      </trkpt>
      <trkpt lat="47.55438" lon="-2.88136">
        <ele>59</ele>
        <time>2025-05-13T12:53:34Z</time>
      </trkpt>
      <trkpt lat="47.55439" lon="-2.88132">
        <ele>59</ele>
        <time>2025-05-13T12:53:35Z</time>
      </trkpt>
      <trkpt lat="47.5544" lon="-2.88128">
        <ele>59</ele>
        <time>2025-05-13T12:53:36Z</time>
      </trkpt>
      <trkpt lat="47.55441" lon="-2.88124">
        <ele>59</ele>
        <time>2025-05-13T12:53:37Z</time>
      </trkpt>
      <trkpt lat="47.55442" lon="-2.88121">
        <ele>59</ele>
        <time>2025-05-13T12:53:38Z</time>
      </trkpt>
      <trkpt lat="47.55443" lon="-2.88118">
        <ele>59</ele>
        <time>2025-05-13T12:53:39Z</time>
      </trkpt>
      <trkpt lat="47.55444" lon="-2.88117">
        <ele>60</ele>
        <time>2025-05-13T12:53:40Z</time>
      </trkpt>
      <trkpt lat="47.55446" lon="-2.88115">
        <ele>60</ele>
        <time>2025-05-13T12:53:41Z</time>
      </trkpt>
      <trkpt lat="47.55447" lon="-2.88112">
        <ele>61</ele>
        <time>2025-05-13T12:53:42Z</time>
      </trkpt>
      <trkpt lat="47.55447" lon="-2.88109">
        <ele>61</ele>
        <time>2025-05-13T12:53:43Z</time>
      </trkpt>
      <trkpt lat="47.55447" lon="-2.88106">
        <ele>61</ele>
        <time>2025-05-13T12:53:44Z</time>
      </trkpt>
      <trkpt lat="47.55447" lon="-2.88103">
        <ele>61</ele>
        <time>2025-05-13T12:53:45Z</time>
      </trkpt>
      <trkpt lat="47.55447" lon="-2.881">
        <ele>61</ele>
        <time>2025-05-13T12:53:46Z</time>
      </trkpt>
      <trkpt lat="47.55446" lon="-2.88097">
        <ele>61</ele>
        <time>2025-05-13T12:53:47Z</time>
      </trkpt>
      <trkpt lat="47.55445" lon="-2.88095">
        <ele>61</ele>
        <time>2025-05-13T12:53:48Z</time>
      </trkpt>
      <trkpt lat="47.55445" lon="-2.88091">
        <ele>61</ele>
        <time>2025-05-13T12:53:49Z</time>
      </trkpt>
      <trkpt lat="47.55445" lon="-2.88088">
        <ele>62</ele>
        <time>2025-05-13T12:53:50Z</time>
      </trkpt>
      <trkpt lat="47.55444" lon="-2.88085">
        <ele>62</ele>
        <time>2025-05-13T12:53:51Z</time>
      </trkpt>
      <trkpt lat="47.55444" lon="-2.88081">
        <ele>63</ele>
        <time>2025-05-13T12:53:52Z</time>
      </trkpt>
      <trkpt lat="47.55444" lon="-2.88078">
        <ele>63</ele>
        <time>2025-05-13T12:53:53Z</time>
      </trkpt>
      <trkpt lat="47.55443" lon="-2.88076">
        <ele>63</ele>
        <time>2025-05-13T12:53:54Z</time>
      </trkpt>
      <trkpt lat="47.55443" lon="-2.88073">
        <ele>63</ele>
        <time>2025-05-13T12:53:55Z</time>
      </trkpt>
      <trkpt lat="47.55442" lon="-2.88071">
        <ele>63</ele>
        <time>2025-05-13T12:53:56Z</time>
      </trkpt>
      <trkpt lat="47.55442" lon="-2.88067">
        <ele>62</ele>
        <time>2025-05-13T12:53:57Z</time>
      </trkpt>
      <trkpt lat="47.55442" lon="-2.88064">
        <ele>62</ele>
        <time>2025-05-13T12:53:58Z</time>
      </trkpt>
      <trkpt lat="47.55442" lon="-2.88061">
        <ele>63</ele>
        <time>2025-05-13T12:53:59Z</time>
      </trkpt>
      <trkpt lat="47.55443" lon="-2.88058">
        <ele>63</ele>
        <time>2025-05-13T12:54:00Z</time>
      </trkpt>
      <trkpt lat="47.55443" lon="-2.88055">
        <ele>62</ele>
        <time>2025-05-13T12:54:01Z</time>
      </trkpt>
      <trkpt lat="47.55444" lon="-2.88052">
        <ele>62</ele>
        <time>2025-05-13T12:54:02Z</time>
      </trkpt>
      <trkpt lat="47.55445" lon="-2.88049">
        <ele>62</ele>
        <time>2025-05-13T12:54:03Z</time>
      </trkpt>
      <trkpt lat="47.55445" lon="-2.88045">
        <ele>62</ele>
        <time>2025-05-13T12:54:04Z</time>
      </trkpt>
      <trkpt lat="47.55446" lon="-2.88043">
        <ele>63</ele>
        <time>2025-05-13T12:54:05Z</time>
      </trkpt>
      <trkpt lat="47.55447" lon="-2.8804">
        <ele>63</ele>
        <time>2025-05-13T12:54:06Z</time>
      </trkpt>
      <trkpt lat="47.55449" lon="-2.88037">
        <ele>64</ele>
        <time>2025-05-13T12:54:07Z</time>
      </trkpt>
      <trkpt lat="47.5545" lon="-2.88034">
        <ele>64</ele>
        <time>2025-05-13T12:54:08Z</time>
      </trkpt>
      <trkpt lat="47.5545" lon="-2.88031">
        <ele>64</ele>
        <time>2025-05-13T12:54:09Z</time>
      </trkpt>
      <trkpt lat="47.55451" lon="-2.88028">
        <ele>64</ele>
        <time>2025-05-13T12:54:10Z</time>
      </trkpt>
      <trkpt lat="47.5545" lon="-2.88024">
        <ele>64</ele>
        <time>2025-05-13T12:54:11Z</time>
      </trkpt>
      <trkpt lat="47.55451" lon="-2.88021">
        <ele>64</ele>
        <time>2025-05-13T12:54:12Z</time>
      </trkpt>
      <trkpt lat="47.55451" lon="-2.88017">
        <ele>64</ele>
        <time>2025-05-13T12:54:13Z</time>
      </trkpt>
      <trkpt lat="47.55451" lon="-2.88014">
        <ele>64</ele>
        <time>2025-05-13T12:54:14Z</time>
      </trkpt>
      <trkpt lat="47.55452" lon="-2.88011">
        <ele>64</ele>
        <time>2025-05-13T12:54:15Z</time>
      </trkpt>
      <trkpt lat="47.55452" lon="-2.88008">
        <ele>64</ele>
        <time>2025-05-13T12:54:16Z</time>
      </trkpt>
      <trkpt lat="47.55452" lon="-2.88005">
        <ele>64</ele>
        <time>2025-05-13T12:54:17Z</time>
      </trkpt>
      <trkpt lat="47.55453" lon="-2.88002">
        <ele>64</ele>
        <time>2025-05-13T12:54:18Z</time>
      </trkpt>
      <trkpt lat="47.55452" lon="-2.87999">
        <ele>65</ele>
        <time>2025-05-13T12:54:19Z</time>
      </trkpt>
      <trkpt lat="47.55452" lon="-2.87996">
        <ele>65</ele>
        <time>2025-05-13T12:54:20Z</time>
      </trkpt>
      <trkpt lat="47.55452" lon="-2.87994">
        <ele>65</ele>
        <time>2025-05-13T12:54:21Z</time>
      </trkpt>
      <trkpt lat="47.55453" lon="-2.87991">
        <ele>65</ele>
        <time>2025-05-13T12:54:22Z</time>
      </trkpt>
      <trkpt lat="47.55454" lon="-2.87989">
        <ele>65</ele>
        <time>2025-05-13T12:54:23Z</time>
      </trkpt>
      <trkpt lat="47.55455" lon="-2.87986">
        <ele>66</ele>
        <time>2025-05-13T12:54:24Z</time>
      </trkpt>
      <trkpt lat="47.55456" lon="-2.87983">
        <ele>66</ele>
        <time>2025-05-13T12:54:25Z</time>
      </trkpt>
      <trkpt lat="47.55457" lon="-2.87981">
        <ele>66</ele>
        <time>2025-05-13T12:54:26Z</time>
      </trkpt>
      <trkpt lat="47.55458" lon="-2.8798">
        <ele>66</ele>
        <time>2025-05-13T12:54:27Z</time>
      </trkpt>
      <trkpt lat="47.5546" lon="-2.87978">
        <ele>67</ele>
        <time>2025-05-13T12:54:28Z</time>
      </trkpt>
      <trkpt lat="47.55461" lon="-2.87978">
        <ele>67</ele>
        <time>2025-05-13T12:54:29Z</time>
      </trkpt>
      <trkpt lat="47.55463" lon="-2.87978">
        <ele>67</ele>
        <time>2025-05-13T12:54:30Z</time>
      </trkpt>
      <trkpt lat="47.55465" lon="-2.87977">
        <ele>67</ele>
        <time>2025-05-13T12:54:31Z</time>
      </trkpt>
      <trkpt lat="47.55468" lon="-2.87976">
        <ele>66</ele>
        <time>2025-05-13T12:54:32Z</time>
      </trkpt>
      <trkpt lat="47.55472" lon="-2.87974">
        <ele>66</ele>
        <time>2025-05-13T12:54:33Z</time>
      </trkpt>
      <trkpt lat="47.55475" lon="-2.87972">
        <ele>65</ele>
        <time>2025-05-13T12:54:34Z</time>
      </trkpt>
      <trkpt lat="47.55478" lon="-2.87972">
        <ele>65</ele>
        <time>2025-05-13T12:54:35Z</time>
      </trkpt>
      <trkpt lat="47.55481" lon="-2.8797">
        <ele>66</ele>
        <time>2025-05-13T12:54:36Z</time>
      </trkpt>
      <trkpt lat="47.55484" lon="-2.87971">
        <ele>66</ele>
        <time>2025-05-13T12:54:37Z</time>
      </trkpt>
      <trkpt lat="47.55486" lon="-2.8797">
        <ele>66</ele>
        <time>2025-05-13T12:54:38Z</time>
      </trkpt>
      <trkpt lat="47.55489" lon="-2.87971">
        <ele>66</ele>
        <time>2025-05-13T12:54:39Z</time>
      </trkpt>
      <trkpt lat="47.55491" lon="-2.87971">
        <ele>66</ele>
        <time>2025-05-13T12:54:40Z</time>
      </trkpt>
      <trkpt lat="47.55494" lon="-2.87972">
        <ele>65</ele>
        <time>2025-05-13T12:54:41Z</time>
      </trkpt>
      <trkpt lat="47.55496" lon="-2.8797">
        <ele>64</ele>
        <time>2025-05-13T12:54:42Z</time>
      </trkpt>
      <trkpt lat="47.55497" lon="-2.87966">
        <ele>64</ele>
        <time>2025-05-13T12:54:43Z</time>
      </trkpt>
      <trkpt lat="47.55497" lon="-2.87962">
        <ele>64</ele>
        <time>2025-05-13T12:54:44Z</time>
      </trkpt>
      <trkpt lat="47.55497" lon="-2.87959">
        <ele>63</ele>
        <time>2025-05-13T12:54:45Z</time>
      </trkpt>
      <trkpt lat="47.55497" lon="-2.87955">
        <ele>63</ele>
        <time>2025-05-13T12:54:46Z</time>
      </trkpt>
      <trkpt lat="47.55497" lon="-2.87952">
        <ele>63</ele>
        <time>2025-05-13T12:54:47Z</time>
      </trkpt>
      <trkpt lat="47.55497" lon="-2.87948">
        <ele>63</ele>
        <time>2025-05-13T12:54:48Z</time>
      </trkpt>
      <trkpt lat="47.55498" lon="-2.87945">
        <ele>63</ele>
        <time>2025-05-13T12:54:49Z</time>
      </trkpt>
      <trkpt lat="47.55498" lon="-2.8794">
        <ele>63</ele>
        <time>2025-05-13T12:54:50Z</time>
      </trkpt>
      <trkpt lat="47.55498" lon="-2.87935">
        <ele>63</ele>
        <time>2025-05-13T12:54:51Z</time>
      </trkpt>
      <trkpt lat="47.55498" lon="-2.8793">
        <ele>62</ele>
        <time>2025-05-13T12:54:52Z</time>
      </trkpt>
      <trkpt lat="47.55498" lon="-2.87926">
        <ele>62</ele>
        <time>2025-05-13T12:54:53Z</time>
      </trkpt>
      <trkpt lat="47.55498" lon="-2.87922">
        <ele>61</ele>
        <time>2025-05-13T12:54:54Z</time>
      </trkpt>
      <trkpt lat="47.55498" lon="-2.87918">
        <ele>61</ele>
        <time>2025-05-13T12:54:55Z</time>
      </trkpt>
      <trkpt lat="47.55497" lon="-2.87913">
        <ele>61</ele>
        <time>2025-05-13T12:54:56Z</time>
      </trkpt>
      <trkpt lat="47.55497" lon="-2.87909">
        <ele>61</ele>
        <time>2025-05-13T12:54:57Z</time>
      </trkpt>
      <trkpt lat="47.55495" lon="-2.87905">
        <ele>61</ele>
        <time>2025-05-13T12:54:58Z</time>
      </trkpt>
      <trkpt lat="47.55493" lon="-2.87901">
        <ele>61</ele>
        <time>2025-05-13T12:54:59Z</time>
      </trkpt>
      <trkpt lat="47.55491" lon="-2.87896">
        <ele>61</ele>
        <time>2025-05-13T12:55:00Z</time>
      </trkpt>
      <trkpt lat="47.55489" lon="-2.87891">
        <ele>61</ele>
        <time>2025-05-13T12:55:01Z</time>
      </trkpt>
      <trkpt lat="47.55487" lon="-2.87887">
        <ele>61</ele>
        <time>2025-05-13T12:55:02Z</time>
      </trkpt>
      <trkpt lat="47.55486" lon="-2.87882">
        <ele>61</ele>
        <time>2025-05-13T12:55:03Z</time>
      </trkpt>
      <trkpt lat="47.55483" lon="-2.87877">
        <ele>61</ele>
        <time>2025-05-13T12:55:04Z</time>
      </trkpt>
      <trkpt lat="47.55481" lon="-2.87873">
        <ele>61</ele>
        <time>2025-05-13T12:55:05Z</time>
      </trkpt>
      <trkpt lat="47.55479" lon="-2.87869">
        <ele>61</ele>
        <time>2025-05-13T12:55:06Z</time>
      </trkpt>
      <trkpt lat="47.55477" lon="-2.87866">
        <ele>60</ele>
        <time>2025-05-13T12:55:07Z</time>
      </trkpt>
      <trkpt lat="47.55475" lon="-2.87862">
        <ele>60</ele>
        <time>2025-05-13T12:55:08Z</time>
      </trkpt>
      <trkpt lat="47.55473" lon="-2.87857">
        <ele>60</ele>
        <time>2025-05-13T12:55:09Z</time>
      </trkpt>
      <trkpt lat="47.55472" lon="-2.87851">
        <ele>59</ele>
        <time>2025-05-13T12:55:10Z</time>
      </trkpt>
      <trkpt lat="47.55472" lon="-2.87845">
        <ele>59</ele>
        <time>2025-05-13T12:55:11Z</time>
      </trkpt>
      <trkpt lat="47.55472" lon="-2.8784">
        <ele>60</ele>
        <time>2025-05-13T12:55:12Z</time>
      </trkpt>
      <trkpt lat="47.55473" lon="-2.87835">
        <ele>59</ele>
        <time>2025-05-13T12:55:13Z</time>
      </trkpt>
      <trkpt lat="47.55474" lon="-2.87831">
        <ele>59</ele>
        <time>2025-05-13T12:55:14Z</time>
      </trkpt>
      <trkpt lat="47.55476" lon="-2.87826">
        <ele>58</ele>
        <time>2025-05-13T12:55:15Z</time>
      </trkpt>
      <trkpt lat="47.55477" lon="-2.87821">
        <ele>58</ele>
        <time>2025-05-13T12:55:16Z</time>
      </trkpt>
      <trkpt lat="47.55479" lon="-2.87817">
        <ele>58</ele>
        <time>2025-05-13T12:55:17Z</time>
      </trkpt>
      <trkpt lat="47.5548" lon="-2.87813">
        <ele>58</ele>
        <time>2025-05-13T12:55:18Z</time>
      </trkpt>
      <trkpt lat="47.55482" lon="-2.8781">
        <ele>58</ele>
        <time>2025-05-13T12:55:19Z</time>
      </trkpt>
      <trkpt lat="47.55484" lon="-2.87806">
        <ele>58</ele>
        <time>2025-05-13T12:55:20Z</time>
      </trkpt>
      <trkpt lat="47.55485" lon="-2.87804">
        <ele>57</ele>
        <time>2025-05-13T12:55:21Z</time>
      </trkpt>
      <trkpt lat="47.55486" lon="-2.87802">
        <ele>56</ele>
        <time>2025-05-13T12:55:22Z</time>
      </trkpt>
      <trkpt lat="47.55487" lon="-2.87799">
        <ele>56</ele>
        <time>2025-05-13T12:55:23Z</time>
      </trkpt>
      <trkpt lat="47.55488" lon="-2.87797">
        <ele>56</ele>
        <time>2025-05-13T12:55:24Z</time>
      </trkpt>
      <trkpt lat="47.55488" lon="-2.87795">
        <ele>56</ele>
        <time>2025-05-13T12:55:25Z</time>
      </trkpt>
      <trkpt lat="47.55488" lon="-2.87794">
        <ele>56</ele>
        <time>2025-05-13T12:55:26Z</time>
      </trkpt>
      <trkpt lat="47.55488" lon="-2.87794">
        <ele>56</ele>
        <time>2025-05-13T12:55:27Z</time>
      </trkpt>
      <trkpt lat="47.55488" lon="-2.87794">
        <ele>56</ele>
        <time>2025-05-13T12:55:28Z</time>
      </trkpt>
      <trkpt lat="47.55488" lon="-2.87794">
        <ele>56</ele>
        <time>2025-05-13T12:55:29Z</time>
      </trkpt>
      <trkpt lat="47.55488" lon="-2.87794">
        <ele>56</ele>
        <time>2025-05-13T12:55:30Z</time>
      </trkpt>
      <trkpt lat="47.55488" lon="-2.87794">
        <ele>56</ele>
        <time>2025-05-13T12:55:31Z</time>
      </trkpt>
      <trkpt lat="47.55488" lon="-2.87794">
        <ele>56</ele>
        <time>2025-05-13T12:55:32Z</time>
      </trkpt>
      <trkpt lat="47.55488" lon="-2.87794">
        <ele>56</ele>
        <time>2025-05-13T12:55:33Z</time>
      </trkpt>
      <trkpt lat="47.55488" lon="-2.87794">
        <ele>56</ele>
        <time>2025-05-13T12:55:34Z</time>
      </trkpt>
      <trkpt lat="47.55488" lon="-2.87794">
        <ele>56</ele>
        <time>2025-05-13T12:55:35Z</time>
      </trkpt>
      <trkpt lat="47.55488" lon="-2.87794">
        <ele>56</ele>
        <time>2025-05-13T12:55:36Z</time>
      </trkpt>
      <trkpt lat="47.55488" lon="-2.87794">
        <ele>56</ele>
        <time>2025-05-13T12:55:37Z</time>
      </trkpt>
      <trkpt lat="47.55488" lon="-2.87794">
        <ele>56</ele>
        <time>2025-05-13T12:55:38Z</time>
      </trkpt>
      <trkpt lat="47.55488" lon="-2.87794">
        <ele>56</ele>
        <time>2025-05-13T12:55:39Z</time>
      </trkpt>
      <trkpt lat="47.55488" lon="-2.87794">
        <ele>56</ele>
        <time>2025-05-13T12:55:40Z</time>
      </trkpt>
      <trkpt lat="47.55488" lon="-2.87794">
        <ele>56</ele>
        <time>2025-05-13T12:55:41Z</time>
      </trkpt>
      <trkpt lat="47.55488" lon="-2.87794">
        <ele>56</ele>
        <time>2025-05-13T12:55:42Z</time>
      </trkpt>
      <trkpt lat="47.55488" lon="-2.87794">
        <ele>56</ele>
        <time>2025-05-13T12:55:43Z</time>
      </trkpt>
      <trkpt lat="47.55488" lon="-2.87794">
        <ele>56</ele>
        <time>2025-05-13T12:55:44Z</time>
      </trkpt>
      <trkpt lat="47.55488" lon="-2.87794">
        <ele>56</ele>
        <time>2025-05-13T12:55:45Z</time>
      </trkpt>
      <trkpt lat="47.55488" lon="-2.87794">
        <ele>56</ele>
        <time>2025-05-13T12:55:46Z</time>
      </trkpt>
      <trkpt lat="47.55488" lon="-2.87794">
        <ele>56</ele>
        <time>2025-05-13T12:55:47Z</time>
      </trkpt>
      <trkpt lat="47.55488" lon="-2.87794">
        <ele>56</ele>
        <time>2025-05-13T12:55:48Z</time>
      </trkpt>
      <trkpt lat="47.55488" lon="-2.87794">
        <ele>56</ele>
        <time>2025-05-13T12:55:49Z</time>
      </trkpt>
      <trkpt lat="47.55488" lon="-2.87794">
        <ele>56</ele>
        <time>2025-05-13T12:55:50Z</time>
      </trkpt>
      <trkpt lat="47.55488" lon="-2.87794">
        <ele>56</ele>
        <time>2025-05-13T12:55:51Z</time>
      </trkpt>
      <trkpt lat="47.55488" lon="-2.87794">
        <ele>56</ele>
        <time>2025-05-13T12:55:52Z</time>
      </trkpt>
      <trkpt lat="47.55488" lon="-2.87794">
        <ele>56</ele>
        <time>2025-05-13T12:55:53Z</time>
      </trkpt>
      <trkpt lat="47.55488" lon="-2.87794">
        <ele>56</ele>
        <time>2025-05-13T12:55:54Z</time>
      </trkpt>
      <trkpt lat="47.55488" lon="-2.87794">
        <ele>56</ele>
        <time>2025-05-13T12:55:55Z</time>
      </trkpt>
      <trkpt lat="47.55488" lon="-2.87794">
        <ele>56</ele>
        <time>2025-05-13T12:55:56Z</time>
      </trkpt>
      <trkpt lat="47.55488" lon="-2.87794">
        <ele>56</ele>
        <time>2025-05-13T12:55:57Z</time>
      </trkpt>
      <trkpt lat="47.55488" lon="-2.87794">
        <ele>56</ele>
        <time>2025-05-13T12:55:58Z</time>
      </trkpt>
      <trkpt lat="47.55488" lon="-2.87794">
        <ele>56</ele>
        <time>2025-05-13T12:55:59Z</time>
      </trkpt>
      <trkpt lat="47.55488" lon="-2.87794">
        <ele>56</ele>
        <time>2025-05-13T12:56:00Z</time>
      </trkpt>
      <trkpt lat="47.55488" lon="-2.87794">
        <ele>56</ele>
        <time>2025-05-13T12:56:01Z</time>
      </trkpt>
      <trkpt lat="47.55488" lon="-2.87794">
        <ele>56</ele>
        <time>2025-05-13T12:56:02Z</time>
      </trkpt>
      <trkpt lat="47.55488" lon="-2.87794">
        <ele>56</ele>
        <time>2025-05-13T12:56:03Z</time>
      </trkpt>
      <trkpt lat="47.55488" lon="-2.87794">
        <ele>56</ele>
        <time>2025-05-13T12:56:04Z</time>
      </trkpt>
      <trkpt lat="47.55488" lon="-2.87794">
        <ele>56</ele>
        <time>2025-05-13T12:56:05Z</time>
      </trkpt>
      <trkpt lat="47.55488" lon="-2.87794">
        <ele>56</ele>
        <time>2025-05-13T12:56:06Z</time>
      </trkpt>
      <trkpt lat="47.55488" lon="-2.87794">
        <ele>56</ele>
        <time>2025-05-13T12:56:07Z</time>
      </trkpt>
      <trkpt lat="47.55488" lon="-2.87794">
        <ele>56</ele>
        <time>2025-05-13T12:56:08Z</time>
      </trkpt>
      <trkpt lat="47.55488" lon="-2.87794">
        <ele>56</ele>
        <time>2025-05-13T12:56:09Z</time>
      </trkpt>
      <trkpt lat="47.55488" lon="-2.87794">
        <ele>56</ele>
        <time>2025-05-13T12:56:10Z</time>
      </trkpt>
      <trkpt lat="47.55488" lon="-2.87794">
        <ele>56</ele>
        <time>2025-05-13T12:56:11Z</time>
      </trkpt>
      <trkpt lat="47.55488" lon="-2.87794">
        <ele>56</ele>
        <time>2025-05-13T12:56:12Z</time>
      </trkpt>
      <trkpt lat="47.55488" lon="-2.87794">
        <ele>56</ele>
        <time>2025-05-13T12:56:13Z</time>
      </trkpt>
      <trkpt lat="47.55488" lon="-2.87794">
        <ele>56</ele>
        <time>2025-05-13T12:56:14Z</time>
      </trkpt>
      <trkpt lat="47.55488" lon="-2.87794">
        <ele>56</ele>
        <time>2025-05-13T12:56:15Z</time>
      </trkpt>
      <trkpt lat="47.55488" lon="-2.87794">
        <ele>56</ele>
        <time>2025-05-13T12:56:16Z</time>
      </trkpt>
      <trkpt lat="47.55488" lon="-2.87794">
        <ele>56</ele>
        <time>2025-05-13T12:56:17Z</time>
      </trkpt>
      <trkpt lat="47.55488" lon="-2.87794">
        <ele>56</ele>
        <time>2025-05-13T12:56:18Z</time>
      </trkpt>
      <trkpt lat="47.55488" lon="-2.87794">
        <ele>56</ele>
        <time>2025-05-13T12:56:19Z</time>
      </trkpt>
      <trkpt lat="47.55488" lon="-2.87794">
        <ele>56</ele>
        <time>2025-05-13T12:56:20Z</time>
      </trkpt>
      <trkpt lat="47.55488" lon="-2.87794">
        <ele>56</ele>
        <time>2025-05-13T12:56:21Z</time>
      </trkpt>
      <trkpt lat="47.55488" lon="-2.87794">
        <ele>56</ele>
        <time>2025-05-13T12:56:22Z</time>
      </trkpt>
      <trkpt lat="47.55488" lon="-2.87794">
        <ele>56</ele>
        <time>2025-05-13T12:56:23Z</time>
      </trkpt>
      <trkpt lat="47.55487" lon="-2.87793">
        <ele>55</ele>
        <time>2025-05-13T12:56:24Z</time>
      </trkpt>
      <trkpt lat="47.55486" lon="-2.87791">
        <ele>55</ele>
        <time>2025-05-13T12:56:25Z</time>
      </trkpt>
      <trkpt lat="47.55485" lon="-2.87787">
        <ele>54</ele>
        <time>2025-05-13T12:56:26Z</time>
      </trkpt>
      <trkpt lat="47.55483" lon="-2.87784">
        <ele>54</ele>
        <time>2025-05-13T12:56:27Z</time>
      </trkpt>
      <trkpt lat="47.55482" lon="-2.87781">
        <ele>55</ele>
        <time>2025-05-13T12:56:28Z</time>
      </trkpt>
      <trkpt lat="47.55479" lon="-2.87779">
        <ele>55</ele>
        <time>2025-05-13T12:56:29Z</time>
      </trkpt>
      <trkpt lat="47.55477" lon="-2.87778">
        <ele>56</ele>
        <time>2025-05-13T12:56:30Z</time>
      </trkpt>
      <trkpt lat="47.55475" lon="-2.87776">
        <ele>56</ele>
        <time>2025-05-13T12:56:31Z</time>
      </trkpt>
      <trkpt lat="47.55473" lon="-2.87774">
        <ele>56</ele>
        <time>2025-05-13T12:56:32Z</time>
      </trkpt>
      <trkpt lat="47.55471" lon="-2.87774">
        <ele>56</ele>
        <time>2025-05-13T12:56:33Z</time>
      </trkpt>
      <trkpt lat="47.5547" lon="-2.87774">
        <ele>55</ele>
        <time>2025-05-13T12:56:34Z</time>
      </trkpt>
      <trkpt lat="47.55468" lon="-2.87774">
        <ele>55</ele>
        <time>2025-05-13T12:56:35Z</time>
      </trkpt>
      <trkpt lat="47.55465" lon="-2.87773">
        <ele>55</ele>
        <time>2025-05-13T12:56:36Z</time>
      </trkpt>
      <trkpt lat="47.55463" lon="-2.87773">
        <ele>55</ele>
        <time>2025-05-13T12:56:37Z</time>
      </trkpt>
      <trkpt lat="47.5546" lon="-2.87773">
        <ele>55</ele>
        <time>2025-05-13T12:56:38Z</time>
      </trkpt>
      <trkpt lat="47.55457" lon="-2.87773">
        <ele>55</ele>
        <time>2025-05-13T12:56:39Z</time>
      </trkpt>
      <trkpt lat="47.55454" lon="-2.87771">
        <ele>56</ele>
        <time>2025-05-13T12:56:40Z</time>
      </trkpt>
      <trkpt lat="47.55452" lon="-2.8777">
        <ele>56</ele>
        <time>2025-05-13T12:56:41Z</time>
      </trkpt>
      <trkpt lat="47.55449" lon="-2.87769">
        <ele>56</ele>
        <time>2025-05-13T12:56:42Z</time>
      </trkpt>
      <trkpt lat="47.55446" lon="-2.87768">
        <ele>56</ele>
        <time>2025-05-13T12:56:43Z</time>
      </trkpt>
      <trkpt lat="47.55442" lon="-2.87766">
        <ele>55</ele>
        <time>2025-05-13T12:56:44Z</time>
      </trkpt>
      <trkpt lat="47.55439" lon="-2.87765">
        <ele>55</ele>
        <time>2025-05-13T12:56:45Z</time>
      </trkpt>
      <trkpt lat="47.55435" lon="-2.87764">
        <ele>55</ele>
        <time>2025-05-13T12:56:46Z</time>
      </trkpt>
      <trkpt lat="47.55432" lon="-2.87762">
        <ele>54</ele>
        <time>2025-05-13T12:56:47Z</time>
      </trkpt>
      <trkpt lat="47.55428" lon="-2.8776">
        <ele>54</ele>
        <time>2025-05-13T12:56:48Z</time>
      </trkpt>
      <trkpt lat="47.55425" lon="-2.87759">
        <ele>54</ele>
        <time>2025-05-13T12:56:49Z</time>
      </trkpt>
      <trkpt lat="47.55422" lon="-2.87758">
        <ele>54</ele>
        <time>2025-05-13T12:56:50Z</time>
      </trkpt>
      <trkpt lat="47.55419" lon="-2.87758">
        <ele>54</ele>
        <time>2025-05-13T12:56:51Z</time>
      </trkpt>
      <trkpt lat="47.55416" lon="-2.87757">
        <ele>54</ele>
        <time>2025-05-13T12:56:52Z</time>
      </trkpt>
      <trkpt lat="47.55413" lon="-2.87756">
        <ele>54</ele>
        <time>2025-05-13T12:56:53Z</time>
      </trkpt>
      <trkpt lat="47.5541" lon="-2.87756">
        <ele>54</ele>
        <time>2025-05-13T12:56:54Z</time>
      </trkpt>
      <trkpt lat="47.55406" lon="-2.87757">
        <ele>53</ele>
        <time>2025-05-13T12:56:55Z</time>
      </trkpt>
      <trkpt lat="47.55403" lon="-2.87758">
        <ele>54</ele>
        <time>2025-05-13T12:56:56Z</time>
      </trkpt>
      <trkpt lat="47.554" lon="-2.87759">
        <ele>53</ele>
        <time>2025-05-13T12:56:57Z</time>
      </trkpt>
      <trkpt lat="47.55396" lon="-2.87759">
        <ele>54</ele>
        <time>2025-05-13T12:56:58Z</time>
      </trkpt>
      <trkpt lat="47.55393" lon="-2.87761">
        <ele>54</ele>
        <time>2025-05-13T12:56:59Z</time>
      </trkpt>
      <trkpt lat="47.5539" lon="-2.87762">
        <ele>54</ele>
        <time>2025-05-13T12:57:00Z</time>
      </trkpt>
      <trkpt lat="47.55387" lon="-2.87763">
        <ele>54</ele>
        <time>2025-05-13T12:57:01Z</time>
      </trkpt>
      <trkpt lat="47.55385" lon="-2.87765">
        <ele>54</ele>
        <time>2025-05-13T12:57:02Z</time>
      </trkpt>
      <trkpt lat="47.55382" lon="-2.87767">
        <ele>55</ele>
        <time>2025-05-13T12:57:03Z</time>
      </trkpt>
      <trkpt lat="47.55378" lon="-2.87769">
        <ele>55</ele>
        <time>2025-05-13T12:57:04Z</time>
      </trkpt>
      <trkpt lat="47.55375" lon="-2.87771">
        <ele>55</ele>
        <time>2025-05-13T12:57:05Z</time>
      </trkpt>
      <trkpt lat="47.55372" lon="-2.87773">
        <ele>55</ele>
        <time>2025-05-13T12:57:06Z</time>
      </trkpt>
      <trkpt lat="47.55369" lon="-2.87776">
        <ele>56</ele>
        <time>2025-05-13T12:57:07Z</time>
      </trkpt>
      <trkpt lat="47.55366" lon="-2.87779">
        <ele>56</ele>
        <time>2025-05-13T12:57:08Z</time>
      </trkpt>
      <trkpt lat="47.55363" lon="-2.87782">
        <ele>56</ele>
        <time>2025-05-13T12:57:09Z</time>
      </trkpt>
      <trkpt lat="47.5536" lon="-2.87784">
        <ele>56</ele>
        <time>2025-05-13T12:57:10Z</time>
      </trkpt>
      <trkpt lat="47.55358" lon="-2.87786">
        <ele>56</ele>
        <time>2025-05-13T12:57:11Z</time>
      </trkpt>
      <trkpt lat="47.55355" lon="-2.87789">
        <ele>56</ele>
        <time>2025-05-13T12:57:12Z</time>
      </trkpt>
      <trkpt lat="47.55353" lon="-2.87792">
        <ele>56</ele>
        <time>2025-05-13T12:57:13Z</time>
      </trkpt>
      <trkpt lat="47.5535" lon="-2.87795">
        <ele>56</ele>
        <time>2025-05-13T12:57:14Z</time>
      </trkpt>
      <trkpt lat="47.55348" lon="-2.87797">
        <ele>56</ele>
        <time>2025-05-13T12:57:15Z</time>
      </trkpt>
      <trkpt lat="47.55347" lon="-2.87798">
        <ele>56</ele>
        <time>2025-05-13T12:57:16Z</time>
      </trkpt>
      <trkpt lat="47.55345" lon="-2.87798">
        <ele>56</ele>
        <time>2025-05-13T12:57:17Z</time>
      </trkpt>
      <trkpt lat="47.55343" lon="-2.87798">
        <ele>56</ele>
        <time>2025-05-13T12:57:18Z</time>
      </trkpt>
      <trkpt lat="47.55341" lon="-2.87797">
        <ele>57</ele>
        <time>2025-05-13T12:57:19Z</time>
      </trkpt>
      <trkpt lat="47.5534" lon="-2.87794">
        <ele>57</ele>
        <time>2025-05-13T12:57:20Z</time>
      </trkpt>
      <trkpt lat="47.55339" lon="-2.87792">
        <ele>57</ele>
        <time>2025-05-13T12:57:21Z</time>
      </trkpt>
      <trkpt lat="47.55338" lon="-2.87789">
        <ele>56</ele>
        <time>2025-05-13T12:57:22Z</time>
      </trkpt>
      <trkpt lat="47.55336" lon="-2.87786">
        <ele>57</ele>
        <time>2025-05-13T12:57:23Z</time>
      </trkpt>
      <trkpt lat="47.55335" lon="-2.87783">
        <ele>56</ele>
        <time>2025-05-13T12:57:24Z</time>
      </trkpt>
      <trkpt lat="47.55333" lon="-2.87779">
        <ele>57</ele>
        <time>2025-05-13T12:57:25Z</time>
      </trkpt>
      <trkpt lat="47.55332" lon="-2.87776">
        <ele>57</ele>
        <time>2025-05-13T12:57:26Z</time>
      </trkpt>
      <trkpt lat="47.55331" lon="-2.87773">
        <ele>56</ele>
        <time>2025-05-13T12:57:27Z</time>
      </trkpt>
      <trkpt lat="47.55329" lon="-2.87769">
        <ele>56</ele>
        <time>2025-05-13T12:57:28Z</time>
      </trkpt>
      <trkpt lat="47.55328" lon="-2.87766">
        <ele>56</ele>
        <time>2025-05-13T12:57:29Z</time>
      </trkpt>
      <trkpt lat="47.55327" lon="-2.87763">
        <ele>56</ele>
        <time>2025-05-13T12:57:30Z</time>
      </trkpt>
      <trkpt lat="47.55326" lon="-2.87759">
        <ele>56</ele>
        <time>2025-05-13T12:57:31Z</time>
      </trkpt>
      <trkpt lat="47.55325" lon="-2.87755">
        <ele>57</ele>
        <time>2025-05-13T12:57:32Z</time>
      </trkpt>
      <trkpt lat="47.55323" lon="-2.87752">
        <ele>57</ele>
        <time>2025-05-13T12:57:33Z</time>
      </trkpt>
      <trkpt lat="47.55322" lon="-2.87748">
        <ele>58</ele>
        <time>2025-05-13T12:57:34Z</time>
      </trkpt>
      <trkpt lat="47.55321" lon="-2.87745">
        <ele>58</ele>
        <time>2025-05-13T12:57:35Z</time>
      </trkpt>
      <trkpt lat="47.5532" lon="-2.87741">
        <ele>58</ele>
        <time>2025-05-13T12:57:36Z</time>
      </trkpt>
      <trkpt lat="47.55319" lon="-2.87738">
        <ele>59</ele>
        <time>2025-05-13T12:57:37Z</time>
      </trkpt>
      <trkpt lat="47.55317" lon="-2.87734">
        <ele>59</ele>
        <time>2025-05-13T12:57:38Z</time>
      </trkpt>
      <trkpt lat="47.55316" lon="-2.87731">
        <ele>59</ele>
        <time>2025-05-13T12:57:39Z</time>
      </trkpt>
      <trkpt lat="47.55315" lon="-2.87727">
        <ele>59</ele>
        <time>2025-05-13T12:57:40Z</time>
      </trkpt>
      <trkpt lat="47.55313" lon="-2.87724">
        <ele>59</ele>
        <time>2025-05-13T12:57:41Z</time>
      </trkpt>
      <trkpt lat="47.55312" lon="-2.8772">
        <ele>60</ele>
        <time>2025-05-13T12:57:42Z</time>
      </trkpt>
      <trkpt lat="47.55311" lon="-2.87717">
        <ele>59</ele>
        <time>2025-05-13T12:57:43Z</time>
      </trkpt>
      <trkpt lat="47.55309" lon="-2.87714">
        <ele>59</ele>
        <time>2025-05-13T12:57:44Z</time>
      </trkpt>
      <trkpt lat="47.55308" lon="-2.8771">
        <ele>59</ele>
        <time>2025-05-13T12:57:45Z</time>
      </trkpt>
      <trkpt lat="47.55307" lon="-2.87706">
        <ele>60</ele>
        <time>2025-05-13T12:57:46Z</time>
      </trkpt>
      <trkpt lat="47.55306" lon="-2.87703">
        <ele>60</ele>
        <time>2025-05-13T12:57:47Z</time>
      </trkpt>
      <trkpt lat="47.55305" lon="-2.87699">
        <ele>60</ele>
        <time>2025-05-13T12:57:48Z</time>
      </trkpt>
      <trkpt lat="47.55303" lon="-2.87696">
        <ele>60</ele>
        <time>2025-05-13T12:57:49Z</time>
      </trkpt>
      <trkpt lat="47.55302" lon="-2.87692">
        <ele>60</ele>
        <time>2025-05-13T12:57:50Z</time>
      </trkpt>
      <trkpt lat="47.55301" lon="-2.87689">
        <ele>60</ele>
        <time>2025-05-13T12:57:51Z</time>
      </trkpt>
      <trkpt lat="47.55299" lon="-2.87685">
        <ele>60</ele>
        <time>2025-05-13T12:57:52Z</time>
      </trkpt>
      <trkpt lat="47.55298" lon="-2.87681">
        <ele>60</ele>
        <time>2025-05-13T12:57:53Z</time>
      </trkpt>
      <trkpt lat="47.55297" lon="-2.87678">
        <ele>61</ele>
        <time>2025-05-13T12:57:54Z</time>
      </trkpt>
      <trkpt lat="47.55296" lon="-2.87674">
        <ele>61</ele>
        <time>2025-05-13T12:57:55Z</time>
      </trkpt>
      <trkpt lat="47.55294" lon="-2.87671">
        <ele>61</ele>
        <time>2025-05-13T12:57:56Z</time>
      </trkpt>
      <trkpt lat="47.55293" lon="-2.87667">
        <ele>61</ele>
        <time>2025-05-13T12:57:57Z</time>
      </trkpt>
      <trkpt lat="47.55292" lon="-2.87664">
        <ele>62</ele>
        <time>2025-05-13T12:57:58Z</time>
      </trkpt>
      <trkpt lat="47.55291" lon="-2.87661">
        <ele>62</ele>
        <time>2025-05-13T12:57:59Z</time>
      </trkpt>
      <trkpt lat="47.55289" lon="-2.87658">
        <ele>62</ele>
        <time>2025-05-13T12:58:00Z</time>
      </trkpt>
      <trkpt lat="47.55287" lon="-2.87655">
        <ele>63</ele>
        <time>2025-05-13T12:58:01Z</time>
      </trkpt>
      <trkpt lat="47.55286" lon="-2.87653">
        <ele>63</ele>
        <time>2025-05-13T12:58:02Z</time>
      </trkpt>
      <trkpt lat="47.55285" lon="-2.8765">
        <ele>63</ele>
        <time>2025-05-13T12:58:03Z</time>
      </trkpt>
      <trkpt lat="47.55284" lon="-2.87647">
        <ele>63</ele>
        <time>2025-05-13T12:58:04Z</time>
      </trkpt>
      <trkpt lat="47.55283" lon="-2.87645">
        <ele>63</ele>
        <time>2025-05-13T12:58:05Z</time>
      </trkpt>
      <trkpt lat="47.55282" lon="-2.87642">
        <ele>63</ele>
        <time>2025-05-13T12:58:06Z</time>
      </trkpt>
      <trkpt lat="47.55281" lon="-2.87639">
        <ele>63</ele>
        <time>2025-05-13T12:58:07Z</time>
      </trkpt>
      <trkpt lat="47.5528" lon="-2.87636">
        <ele>63</ele>
        <time>2025-05-13T12:58:08Z</time>
      </trkpt>
      <trkpt lat="47.55278" lon="-2.87633">
        <ele>63</ele>
        <time>2025-05-13T12:58:09Z</time>
      </trkpt>
      <trkpt lat="47.55277" lon="-2.87632">
        <ele>63</ele>
        <time>2025-05-13T12:58:10Z</time>
      </trkpt>
      <trkpt lat="47.55276" lon="-2.87629">
        <ele>63</ele>
        <time>2025-05-13T12:58:11Z</time>
      </trkpt>
      <trkpt lat="47.55275" lon="-2.87627">
        <ele>63</ele>
        <time>2025-05-13T12:58:12Z</time>
      </trkpt>
      <trkpt lat="47.55274" lon="-2.87624">
        <ele>64</ele>
        <time>2025-05-13T12:58:13Z</time>
      </trkpt>
      <trkpt lat="47.55273" lon="-2.87621">
        <ele>64</ele>
        <time>2025-05-13T12:58:14Z</time>
      </trkpt>
      <trkpt lat="47.55272" lon="-2.87619">
        <ele>64</ele>
        <time>2025-05-13T12:58:15Z</time>
      </trkpt>
      <trkpt lat="47.55271" lon="-2.87616">
        <ele>64</ele>
        <time>2025-05-13T12:58:16Z</time>
      </trkpt>
      <trkpt lat="47.5527" lon="-2.87613">
        <ele>64</ele>
        <time>2025-05-13T12:58:17Z</time>
      </trkpt>
      <trkpt lat="47.55268" lon="-2.8761">
        <ele>64</ele>
        <time>2025-05-13T12:58:18Z</time>
      </trkpt>
      <trkpt lat="47.55268" lon="-2.87607">
        <ele>63</ele>
        <time>2025-05-13T12:58:19Z</time>
      </trkpt>
      <trkpt lat="47.55267" lon="-2.87604">
        <ele>63</ele>
        <time>2025-05-13T12:58:20Z</time>
      </trkpt>
      <trkpt lat="47.55266" lon="-2.87601">
        <ele>63</ele>
        <time>2025-05-13T12:58:21Z</time>
      </trkpt>
      <trkpt lat="47.55265" lon="-2.87597">
        <ele>63</ele>
        <time>2025-05-13T12:58:22Z</time>
      </trkpt>
      <trkpt lat="47.55264" lon="-2.87594">
        <ele>63</ele>
        <time>2025-05-13T12:58:23Z</time>
      </trkpt>
      <trkpt lat="47.55263" lon="-2.8759">
        <ele>64</ele>
        <time>2025-05-13T12:58:24Z</time>
      </trkpt>
      <trkpt lat="47.55262" lon="-2.87586">
        <ele>64</ele>
        <time>2025-05-13T12:58:25Z</time>
      </trkpt>
      <trkpt lat="47.5526" lon="-2.87582">
        <ele>65</ele>
        <time>2025-05-13T12:58:26Z</time>
      </trkpt>
      <trkpt lat="47.55259" lon="-2.87579">
        <ele>64</ele>
        <time>2025-05-13T12:58:27Z</time>
      </trkpt>
      <trkpt lat="47.55258" lon="-2.87575">
        <ele>64</ele>
        <time>2025-05-13T12:58:28Z</time>
      </trkpt>
      <trkpt lat="47.55257" lon="-2.87572">
        <ele>63</ele>
        <time>2025-05-13T12:58:29Z</time>
      </trkpt>
      <trkpt lat="47.55256" lon="-2.87567">
        <ele>63</ele>
        <time>2025-05-13T12:58:30Z</time>
      </trkpt>
      <trkpt lat="47.55254" lon="-2.87563">
        <ele>63</ele>
        <time>2025-05-13T12:58:31Z</time>
      </trkpt>
      <trkpt lat="47.55253" lon="-2.87558">
        <ele>63</ele>
        <time>2025-05-13T12:58:32Z</time>
      </trkpt>
      <trkpt lat="47.55252" lon="-2.87553">
        <ele>63</ele>
        <time>2025-05-13T12:58:33Z</time>
      </trkpt>
      <trkpt lat="47.55251" lon="-2.87549">
        <ele>63</ele>
        <time>2025-05-13T12:58:34Z</time>
      </trkpt>
      <trkpt lat="47.5525" lon="-2.87543">
        <ele>63</ele>
        <time>2025-05-13T12:58:35Z</time>
      </trkpt>
      <trkpt lat="47.55249" lon="-2.87538">
        <ele>63</ele>
        <time>2025-05-13T12:58:36Z</time>
      </trkpt>
      <trkpt lat="47.55248" lon="-2.87533">
        <ele>63</ele>
        <time>2025-05-13T12:58:37Z</time>
      </trkpt>
      <trkpt lat="47.55247" lon="-2.87528">
        <ele>62</ele>
        <time>2025-05-13T12:58:38Z</time>
      </trkpt>
      <trkpt lat="47.55247" lon="-2.87522">
        <ele>62</ele>
        <time>2025-05-13T12:58:39Z</time>
      </trkpt>
      <trkpt lat="47.55248" lon="-2.87516">
        <ele>62</ele>
        <time>2025-05-13T12:58:40Z</time>
      </trkpt>
      <trkpt lat="47.55248" lon="-2.8751">
        <ele>62</ele>
        <time>2025-05-13T12:58:41Z</time>
      </trkpt>
      <trkpt lat="47.55248" lon="-2.87503">
        <ele>62</ele>
        <time>2025-05-13T12:58:42Z</time>
      </trkpt>
      <trkpt lat="47.55249" lon="-2.87497">
        <ele>62</ele>
        <time>2025-05-13T12:58:43Z</time>
      </trkpt>
      <trkpt lat="47.5525" lon="-2.87491">
        <ele>62</ele>
        <time>2025-05-13T12:58:44Z</time>
      </trkpt>
      <trkpt lat="47.55252" lon="-2.87484">
        <ele>62</ele>
        <time>2025-05-13T12:58:45Z</time>
      </trkpt>
      <trkpt lat="47.55254" lon="-2.87478">
        <ele>62</ele>
        <time>2025-05-13T12:58:46Z</time>
      </trkpt>
      <trkpt lat="47.55256" lon="-2.87471">
        <ele>61</ele>
        <time>2025-05-13T12:58:47Z</time>
      </trkpt>
      <trkpt lat="47.55257" lon="-2.87465">
        <ele>60</ele>
        <time>2025-05-13T12:58:48Z</time>
      </trkpt>
      <trkpt lat="47.55259" lon="-2.87458">
        <ele>60</ele>
        <time>2025-05-13T12:58:49Z</time>
      </trkpt>
      <trkpt lat="47.55262" lon="-2.87451">
        <ele>59</ele>
        <time>2025-05-13T12:58:50Z</time>
      </trkpt>
      <trkpt lat="47.55264" lon="-2.87444">
        <ele>59</ele>
        <time>2025-05-13T12:58:51Z</time>
      </trkpt>
      <trkpt lat="47.55267" lon="-2.87438">
        <ele>58</ele>
        <time>2025-05-13T12:58:52Z</time>
      </trkpt>
      <trkpt lat="47.55269" lon="-2.8743">
        <ele>58</ele>
        <time>2025-05-13T12:58:53Z</time>
      </trkpt>
      <trkpt lat="47.55271" lon="-2.87423">
        <ele>58</ele>
        <time>2025-05-13T12:58:54Z</time>
      </trkpt>
      <trkpt lat="47.55273" lon="-2.87415">
        <ele>58</ele>
        <time>2025-05-13T12:58:55Z</time>
      </trkpt>
      <trkpt lat="47.55275" lon="-2.87408">
        <ele>58</ele>
        <time>2025-05-13T12:58:56Z</time>
      </trkpt>
      <trkpt lat="47.55277" lon="-2.874">
        <ele>58</ele>
        <time>2025-05-13T12:58:57Z</time>
      </trkpt>
      <trkpt lat="47.55279" lon="-2.87392">
        <ele>58</ele>
        <time>2025-05-13T12:58:58Z</time>
      </trkpt>
      <trkpt lat="47.5528" lon="-2.87384">
        <ele>58</ele>
        <time>2025-05-13T12:58:59Z</time>
      </trkpt>
      <trkpt lat="47.55282" lon="-2.87376">
        <ele>59</ele>
        <time>2025-05-13T12:59:00Z</time>
      </trkpt>
      <trkpt lat="47.55283" lon="-2.87368">
        <ele>59</ele>
        <time>2025-05-13T12:59:01Z</time>
      </trkpt>
      <trkpt lat="47.55284" lon="-2.87359">
        <ele>59</ele>
        <time>2025-05-13T12:59:02Z</time>
      </trkpt>
      <trkpt lat="47.55284" lon="-2.87351">
        <ele>59</ele>
        <time>2025-05-13T12:59:03Z</time>
      </trkpt>
      <trkpt lat="47.55283" lon="-2.87344">
        <ele>59</ele>
        <time>2025-05-13T12:59:04Z</time>
      </trkpt>
      <trkpt lat="47.55282" lon="-2.87336">
        <ele>58</ele>
        <time>2025-05-13T12:59:05Z</time>
      </trkpt>
      <trkpt lat="47.55281" lon="-2.87328">
        <ele>58</ele>
        <time>2025-05-13T12:59:06Z</time>
      </trkpt>
      <trkpt lat="47.5528" lon="-2.87321">
        <ele>58</ele>
        <time>2025-05-13T12:59:07Z</time>
      </trkpt>
      <trkpt lat="47.55279" lon="-2.87313">
        <ele>58</ele>
        <time>2025-05-13T12:59:08Z</time>
      </trkpt>
      <trkpt lat="47.55278" lon="-2.87306">
        <ele>59</ele>
        <time>2025-05-13T12:59:09Z</time>
      </trkpt>
      <trkpt lat="47.55278" lon="-2.87299">
        <ele>59</ele>
        <time>2025-05-13T12:59:10Z</time>
      </trkpt>
      <trkpt lat="47.55277" lon="-2.87292">
        <ele>59</ele>
        <time>2025-05-13T12:59:11Z</time>
      </trkpt>
      <trkpt lat="47.55276" lon="-2.87285">
        <ele>60</ele>
        <time>2025-05-13T12:59:12Z</time>
      </trkpt>
      <trkpt lat="47.55274" lon="-2.87278">
        <ele>60</ele>
        <time>2025-05-13T12:59:13Z</time>
      </trkpt>
      <trkpt lat="47.55273" lon="-2.87272">
        <ele>61</ele>
        <time>2025-05-13T12:59:14Z</time>
      </trkpt>
      <trkpt lat="47.55272" lon="-2.87266">
        <ele>61</ele>
        <time>2025-05-13T12:59:15Z</time>
      </trkpt>
      <trkpt lat="47.55271" lon="-2.8726">
        <ele>61</ele>
        <time>2025-05-13T12:59:16Z</time>
      </trkpt>
      <trkpt lat="47.5527" lon="-2.87254">
        <ele>61</ele>
        <time>2025-05-13T12:59:17Z</time>
      </trkpt>
      <trkpt lat="47.55269" lon="-2.87249">
        <ele>61</ele>
        <time>2025-05-13T12:59:18Z</time>
      </trkpt>
      <trkpt lat="47.55268" lon="-2.87243">
        <ele>61</ele>
        <time>2025-05-13T12:59:19Z</time>
      </trkpt>
      <trkpt lat="47.55268" lon="-2.87237">
        <ele>61</ele>
        <time>2025-05-13T12:59:20Z</time>
      </trkpt>
      <trkpt lat="47.55267" lon="-2.87232">
        <ele>61</ele>
        <time>2025-05-13T12:59:21Z</time>
      </trkpt>
      <trkpt lat="47.55265" lon="-2.87226">
        <ele>61</ele>
        <time>2025-05-13T12:59:22Z</time>
      </trkpt>
      <trkpt lat="47.55264" lon="-2.87221">
        <ele>60</ele>
        <time>2025-05-13T12:59:23Z</time>
      </trkpt>
      <trkpt lat="47.55264" lon="-2.87215">
        <ele>60</ele>
        <time>2025-05-13T12:59:24Z</time>
      </trkpt>
      <trkpt lat="47.55263" lon="-2.87209">
        <ele>60</ele>
        <time>2025-05-13T12:59:25Z</time>
      </trkpt>
      <trkpt lat="47.55263" lon="-2.87203">
        <ele>60</ele>
        <time>2025-05-13T12:59:26Z</time>
      </trkpt>
      <trkpt lat="47.55263" lon="-2.87196">
        <ele>60</ele>
        <time>2025-05-13T12:59:27Z</time>
      </trkpt>
      <trkpt lat="47.55262" lon="-2.8719">
        <ele>59</ele>
        <time>2025-05-13T12:59:28Z</time>
      </trkpt>
      <trkpt lat="47.55262" lon="-2.87183">
        <ele>59</ele>
        <time>2025-05-13T12:59:29Z</time>
      </trkpt>
      <trkpt lat="47.55262" lon="-2.87177">
        <ele>59</ele>
        <time>2025-05-13T12:59:30Z</time>
      </trkpt>
      <trkpt lat="47.55262" lon="-2.8717">
        <ele>58</ele>
        <time>2025-05-13T12:59:31Z</time>
      </trkpt>
      <trkpt lat="47.55262" lon="-2.87163">
        <ele>58</ele>
        <time>2025-05-13T12:59:32Z</time>
      </trkpt>
      <trkpt lat="47.55262" lon="-2.87156">
        <ele>58</ele>
        <time>2025-05-13T12:59:33Z</time>
      </trkpt>
      <trkpt lat="47.55261" lon="-2.87149">
        <ele>57</ele>
        <time>2025-05-13T12:59:34Z</time>
      </trkpt>
      <trkpt lat="47.55261" lon="-2.87141">
        <ele>57</ele>
        <time>2025-05-13T12:59:35Z</time>
      </trkpt>
      <trkpt lat="47.55261" lon="-2.87133">
        <ele>56</ele>
        <time>2025-05-13T12:59:36Z</time>
      </trkpt>
      <trkpt lat="47.55261" lon="-2.87125">
        <ele>55</ele>
        <time>2025-05-13T12:59:37Z</time>
      </trkpt>
      <trkpt lat="47.55261" lon="-2.87117">
        <ele>55</ele>
        <time>2025-05-13T12:59:38Z</time>
      </trkpt>
      <trkpt lat="47.55261" lon="-2.87108">
        <ele>55</ele>
        <time>2025-05-13T12:59:39Z</time>
      </trkpt>
      <trkpt lat="47.5526" lon="-2.87099">
        <ele>55</ele>
        <time>2025-05-13T12:59:40Z</time>
      </trkpt>
      <trkpt lat="47.5526" lon="-2.8709">
        <ele>55</ele>
        <time>2025-05-13T12:59:41Z</time>
      </trkpt>
      <trkpt lat="47.5526" lon="-2.87082">
        <ele>55</ele>
        <time>2025-05-13T12:59:42Z</time>
      </trkpt>
      <trkpt lat="47.55259" lon="-2.87074">
        <ele>55</ele>
        <time>2025-05-13T12:59:43Z</time>
      </trkpt>
      <trkpt lat="47.55258" lon="-2.87067">
        <ele>54</ele>
        <time>2025-05-13T12:59:44Z</time>
      </trkpt>
      <trkpt lat="47.55257" lon="-2.87059">
        <ele>54</ele>
        <time>2025-05-13T12:59:45Z</time>
      </trkpt>
      <trkpt lat="47.55256" lon="-2.87051">
        <ele>54</ele>
        <time>2025-05-13T12:59:46Z</time>
      </trkpt>
      <trkpt lat="47.55254" lon="-2.87044">
        <ele>53</ele>
        <time>2025-05-13T12:59:47Z</time>
      </trkpt>
      <trkpt lat="47.55251" lon="-2.8704">
        <ele>52</ele>
        <time>2025-05-13T12:59:48Z</time>
      </trkpt>
      <trkpt lat="47.55248" lon="-2.87034">
        <ele>51</ele>
        <time>2025-05-13T12:59:49Z</time>
      </trkpt>
      <trkpt lat="47.55245" lon="-2.87028">
        <ele>51</ele>
        <time>2025-05-13T12:59:50Z</time>
      </trkpt>
      <trkpt lat="47.55241" lon="-2.87024">
        <ele>51</ele>
        <time>2025-05-13T12:59:51Z</time>
      </trkpt>
      <trkpt lat="47.55238" lon="-2.87019">
        <ele>51</ele>
        <time>2025-05-13T12:59:52Z</time>
      </trkpt>
      <trkpt lat="47.55235" lon="-2.87016">
        <ele>51</ele>
        <time>2025-05-13T12:59:53Z</time>
      </trkpt>
      <trkpt lat="47.55231" lon="-2.87012">
        <ele>52</ele>
        <time>2025-05-13T12:59:54Z</time>
      </trkpt>
      <trkpt lat="47.55228" lon="-2.87009">
        <ele>52</ele>
        <time>2025-05-13T12:59:55Z</time>
      </trkpt>
      <trkpt lat="47.55225" lon="-2.87005">
        <ele>53</ele>
        <time>2025-05-13T12:59:56Z</time>
      </trkpt>
      <trkpt lat="47.55222" lon="-2.87002">
        <ele>53</ele>
        <time>2025-05-13T12:59:57Z</time>
      </trkpt>
      <trkpt lat="47.5522" lon="-2.87">
        <ele>53</ele>
        <time>2025-05-13T12:59:58Z</time>
      </trkpt>
      <trkpt lat="47.55217" lon="-2.86998">
        <ele>53</ele>
        <time>2025-05-13T12:59:59Z</time>
      </trkpt>
      <trkpt lat="47.55216" lon="-2.86996">
        <ele>54</ele>
        <time>2025-05-13T13:00:00Z</time>
      </trkpt>
      <trkpt lat="47.55214" lon="-2.86995">
        <ele>55</ele>
        <time>2025-05-13T13:00:01Z</time>
      </trkpt>
      <trkpt lat="47.55214" lon="-2.86994">
        <ele>55</ele>
        <time>2025-05-13T13:00:02Z</time>
      </trkpt>
      <trkpt lat="47.55214" lon="-2.86994">
        <ele>55</ele>
        <time>2025-05-13T13:00:03Z</time>
      </trkpt>
      <trkpt lat="47.55214" lon="-2.86994">
        <ele>55</ele>
        <time>2025-05-13T13:00:04Z</time>
      </trkpt>
      <trkpt lat="47.55214" lon="-2.86994">
        <ele>55</ele>
        <time>2025-05-13T13:00:05Z</time>
      </trkpt>
      <trkpt lat="47.55214" lon="-2.86994">
        <ele>55</ele>
        <time>2025-05-13T13:00:06Z</time>
      </trkpt>
      <trkpt lat="47.55214" lon="-2.86994">
        <ele>55</ele>
        <time>2025-05-13T13:00:07Z</time>
      </trkpt>
      <trkpt lat="47.55214" lon="-2.86994">
        <ele>55</ele>
        <time>2025-05-13T13:00:08Z</time>
      </trkpt>
      <trkpt lat="47.55214" lon="-2.86994">
        <ele>55</ele>
        <time>2025-05-13T13:00:09Z</time>
      </trkpt>
      <trkpt lat="47.55214" lon="-2.86994">
        <ele>55</ele>
        <time>2025-05-13T13:00:10Z</time>
      </trkpt>
      <trkpt lat="47.55214" lon="-2.86994">
        <ele>55</ele>
        <time>2025-05-13T13:00:11Z</time>
      </trkpt>
      <trkpt lat="47.55214" lon="-2.86994">
        <ele>55</ele>
        <time>2025-05-13T13:00:12Z</time>
      </trkpt>
      <trkpt lat="47.55214" lon="-2.86994">
        <ele>55</ele>
        <time>2025-05-13T13:00:13Z</time>
      </trkpt>
      <trkpt lat="47.55214" lon="-2.86994">
        <ele>55</ele>
        <time>2025-05-13T13:00:14Z</time>
      </trkpt>
      <trkpt lat="47.55214" lon="-2.86994">
        <ele>55</ele>
        <time>2025-05-13T13:00:15Z</time>
      </trkpt>
      <trkpt lat="47.55214" lon="-2.86994">
        <ele>55</ele>
        <time>2025-05-13T13:00:16Z</time>
      </trkpt>
      <trkpt lat="47.55214" lon="-2.86994">
        <ele>55</ele>
        <time>2025-05-13T13:00:17Z</time>
      </trkpt>
      <trkpt lat="47.55214" lon="-2.86994">
        <ele>55</ele>
        <time>2025-05-13T13:00:18Z</time>
      </trkpt>
      <trkpt lat="47.55214" lon="-2.86994">
        <ele>55</ele>
        <time>2025-05-13T13:00:19Z</time>
      </trkpt>
      <trkpt lat="47.55214" lon="-2.86994">
        <ele>55</ele>
        <time>2025-05-13T13:00:20Z</time>
      </trkpt>
      <trkpt lat="47.55214" lon="-2.86994">
        <ele>55</ele>
        <time>2025-05-13T13:00:21Z</time>
      </trkpt>
      <trkpt lat="47.55214" lon="-2.86994">
        <ele>55</ele>
        <time>2025-05-13T13:00:22Z</time>
      </trkpt>
      <trkpt lat="47.55214" lon="-2.86994">
        <ele>55</ele>
        <time>2025-05-13T13:00:23Z</time>
      </trkpt>
      <trkpt lat="47.55214" lon="-2.86994">
        <ele>55</ele>
        <time>2025-05-13T13:00:24Z</time>
      </trkpt>
      <trkpt lat="47.55213" lon="-2.86993">
        <ele>55</ele>
        <time>2025-05-13T13:00:25Z</time>
      </trkpt>
      <trkpt lat="47.55212" lon="-2.86991">
        <ele>56</ele>
        <time>2025-05-13T13:00:26Z</time>
      </trkpt>
      <trkpt lat="47.55211" lon="-2.86988">
        <ele>56</ele>
        <time>2025-05-13T13:00:27Z</time>
      </trkpt>
      <trkpt lat="47.5521" lon="-2.86986">
        <ele>56</ele>
        <time>2025-05-13T13:00:28Z</time>
      </trkpt>
      <trkpt lat="47.55209" lon="-2.86984">
        <ele>56</ele>
        <time>2025-05-13T13:00:29Z</time>
      </trkpt>
      <trkpt lat="47.55207" lon="-2.86982">
        <ele>57</ele>
        <time>2025-05-13T13:00:30Z</time>
      </trkpt>
      <trkpt lat="47.55205" lon="-2.8698">
        <ele>57</ele>
        <time>2025-05-13T13:00:31Z</time>
      </trkpt>
      <trkpt lat="47.55203" lon="-2.86978">
        <ele>57</ele>
        <time>2025-05-13T13:00:32Z</time>
      </trkpt>
      <trkpt lat="47.55201" lon="-2.86975">
        <ele>57</ele>
        <time>2025-05-13T13:00:33Z</time>
      </trkpt>
      <trkpt lat="47.55198" lon="-2.86973">
        <ele>57</ele>
        <time>2025-05-13T13:00:34Z</time>
      </trkpt>
      <trkpt lat="47.55195" lon="-2.86971">
        <ele>57</ele>
        <time>2025-05-13T13:00:35Z</time>
      </trkpt>
      <trkpt lat="47.55193" lon="-2.86969">
        <ele>57</ele>
        <time>2025-05-13T13:00:36Z</time>
      </trkpt>
      <trkpt lat="47.5519" lon="-2.86967">
        <ele>57</ele>
        <time>2025-05-13T13:00:37Z</time>
      </trkpt>
      <trkpt lat="47.55187" lon="-2.86965">
        <ele>56</ele>
        <time>2025-05-13T13:00:38Z</time>
      </trkpt>
      <trkpt lat="47.55184" lon="-2.86962">
        <ele>56</ele>
        <time>2025-05-13T13:00:39Z</time>
      </trkpt>
      <trkpt lat="47.55181" lon="-2.8696">
        <ele>57</ele>
        <time>2025-05-13T13:00:40Z</time>
      </trkpt>
      <trkpt lat="47.55178" lon="-2.86957">
        <ele>57</ele>
        <time>2025-05-13T13:00:41Z</time>
      </trkpt>
      <trkpt lat="47.55176" lon="-2.86954">
        <ele>57</ele>
        <time>2025-05-13T13:00:42Z</time>
      </trkpt>
      <trkpt lat="47.55174" lon="-2.8695">
        <ele>57</ele>
        <time>2025-05-13T13:00:43Z</time>
      </trkpt>
      <trkpt lat="47.55171" lon="-2.86947">
        <ele>58</ele>
        <time>2025-05-13T13:00:44Z</time>
      </trkpt>
      <trkpt lat="47.55169" lon="-2.86944">
        <ele>58</ele>
        <time>2025-05-13T13:00:45Z</time>
      </trkpt>
      <trkpt lat="47.55167" lon="-2.8694">
        <ele>58</ele>
        <time>2025-05-13T13:00:46Z</time>
      </trkpt>
      <trkpt lat="47.55164" lon="-2.86937">
        <ele>58</ele>
        <time>2025-05-13T13:00:47Z</time>
      </trkpt>
      <trkpt lat="47.55162" lon="-2.86933">
        <ele>58</ele>
        <time>2025-05-13T13:00:48Z</time>
      </trkpt>
      <trkpt lat="47.5516" lon="-2.8693">
        <ele>57</ele>
        <time>2025-05-13T13:00:49Z</time>
      </trkpt>
      <trkpt lat="47.55157" lon="-2.86926">
        <ele>57</ele>
        <time>2025-05-13T13:00:50Z</time>
      </trkpt>
      <trkpt lat="47.55155" lon="-2.86923">
        <ele>57</ele>
        <time>2025-05-13T13:00:51Z</time>
      </trkpt>
      <trkpt lat="47.55153" lon="-2.86919">
        <ele>57</ele>
        <time>2025-05-13T13:00:52Z</time>
      </trkpt>
      <trkpt lat="47.55151" lon="-2.86916">
        <ele>57</ele>
        <time>2025-05-13T13:00:53Z</time>
      </trkpt>
      <trkpt lat="47.55149" lon="-2.86913">
        <ele>58</ele>
        <time>2025-05-13T13:00:54Z</time>
      </trkpt>
      <trkpt lat="47.55147" lon="-2.8691">
        <ele>58</ele>
        <time>2025-05-13T13:00:55Z</time>
      </trkpt>
      <trkpt lat="47.55146" lon="-2.86909">
        <ele>57</ele>
        <time>2025-05-13T13:00:56Z</time>
      </trkpt>
      <trkpt lat="47.55145" lon="-2.86908">
        <ele>57</ele>
        <time>2025-05-13T13:00:57Z</time>
      </trkpt>
      <trkpt lat="47.55145" lon="-2.86907">
        <ele>58</ele>
        <time>2025-05-13T13:00:58Z</time>
      </trkpt>
      <trkpt lat="47.55145" lon="-2.86907">
        <ele>58</ele>
        <time>2025-05-13T13:00:59Z</time>
      </trkpt>
      <trkpt lat="47.55145" lon="-2.86907">
        <ele>58</ele>
        <time>2025-05-13T13:01:00Z</time>
      </trkpt>
      <trkpt lat="47.55145" lon="-2.86907">
        <ele>58</ele>
        <time>2025-05-13T13:01:01Z</time>
      </trkpt>
      <trkpt lat="47.55145" lon="-2.86907">
        <ele>58</ele>
        <time>2025-05-13T13:01:02Z</time>
      </trkpt>
      <trkpt lat="47.55145" lon="-2.86907">
        <ele>58</ele>
        <time>2025-05-13T13:01:03Z</time>
      </trkpt>
      <trkpt lat="47.55145" lon="-2.86907">
        <ele>58</ele>
        <time>2025-05-13T13:01:04Z</time>
      </trkpt>
      <trkpt lat="47.55145" lon="-2.86907">
        <ele>58</ele>
        <time>2025-05-13T13:01:05Z</time>
      </trkpt>
      <trkpt lat="47.55145" lon="-2.86907">
        <ele>58</ele>
        <time>2025-05-13T13:01:06Z</time>
      </trkpt>
      <trkpt lat="47.55145" lon="-2.86907">
        <ele>58</ele>
        <time>2025-05-13T13:01:07Z</time>
      </trkpt>
      <trkpt lat="47.55145" lon="-2.86907">
        <ele>58</ele>
        <time>2025-05-13T13:01:08Z</time>
      </trkpt>
      <trkpt lat="47.55145" lon="-2.86898">
        <ele>67</ele>
        <time>2025-05-13T13:09:09Z</time>
      </trkpt>
      <trkpt lat="47.55145" lon="-2.86904">
        <ele>53</ele>
        <time>2025-05-13T13:09:12Z</time>
      </trkpt>
      <trkpt lat="47.55145" lon="-2.86902">
        <ele>54</ele>
        <time>2025-05-13T13:09:13Z</time>
      </trkpt>
      <trkpt lat="47.55144" lon="-2.86899">
        <ele>55</ele>
        <time>2025-05-13T13:09:14Z</time>
      </trkpt>
      <trkpt lat="47.55142" lon="-2.86897">
        <ele>57</ele>
        <time>2025-05-13T13:09:15Z</time>
      </trkpt>
      <trkpt lat="47.55141" lon="-2.86895">
        <ele>57</ele>
        <time>2025-05-13T13:09:16Z</time>
      </trkpt>
      <trkpt lat="47.5514" lon="-2.86893">
        <ele>58</ele>
        <time>2025-05-13T13:09:17Z</time>
      </trkpt>
      <trkpt lat="47.55138" lon="-2.86891">
        <ele>57</ele>
        <time>2025-05-13T13:09:18Z</time>
      </trkpt>
      <trkpt lat="47.55137" lon="-2.86888">
        <ele>58</ele>
        <time>2025-05-13T13:09:19Z</time>
      </trkpt>
      <trkpt lat="47.55135" lon="-2.86886">
        <ele>58</ele>
        <time>2025-05-13T13:09:20Z</time>
      </trkpt>
      <trkpt lat="47.55134" lon="-2.86884">
        <ele>58</ele>
        <time>2025-05-13T13:09:21Z</time>
      </trkpt>
      <trkpt lat="47.55133" lon="-2.86882">
        <ele>58</ele>
        <time>2025-05-13T13:09:22Z</time>
      </trkpt>
      <trkpt lat="47.55131" lon="-2.8688">
        <ele>58</ele>
        <time>2025-05-13T13:09:23Z</time>
      </trkpt>
      <trkpt lat="47.55129" lon="-2.86878">
        <ele>58</ele>
        <time>2025-05-13T13:09:24Z</time>
      </trkpt>
      <trkpt lat="47.55128" lon="-2.86875">
        <ele>59</ele>
        <time>2025-05-13T13:09:25Z</time>
      </trkpt>
      <trkpt lat="47.55127" lon="-2.86871">
        <ele>59</ele>
        <time>2025-05-13T13:09:26Z</time>
      </trkpt>
      <trkpt lat="47.55125" lon="-2.86869">
        <ele>59</ele>
        <time>2025-05-13T13:09:27Z</time>
      </trkpt>
      <trkpt lat="47.55123" lon="-2.86866">
        <ele>58</ele>
        <time>2025-05-13T13:09:28Z</time>
      </trkpt>
      <trkpt lat="47.5512" lon="-2.86863">
        <ele>58</ele>
        <time>2025-05-13T13:09:29Z</time>
      </trkpt>
      <trkpt lat="47.55118" lon="-2.8686">
        <ele>58</ele>
        <time>2025-05-13T13:09:30Z</time>
      </trkpt>
      <trkpt lat="47.55116" lon="-2.86857">
        <ele>58</ele>
        <time>2025-05-13T13:09:31Z</time>
      </trkpt>
      <trkpt lat="47.55113" lon="-2.86854">
        <ele>58</ele>
        <time>2025-05-13T13:09:32Z</time>
      </trkpt>
      <trkpt lat="47.55111" lon="-2.86852">
        <ele>58</ele>
        <time>2025-05-13T13:09:33Z</time>
      </trkpt>
      <trkpt lat="47.5511" lon="-2.86848">
        <ele>58</ele>
        <time>2025-05-13T13:09:34Z</time>
      </trkpt>
      <trkpt lat="47.55108" lon="-2.86845">
        <ele>58</ele>
        <time>2025-05-13T13:09:35Z</time>
      </trkpt>
      <trkpt lat="47.55107" lon="-2.86843">
        <ele>57</ele>
        <time>2025-05-13T13:09:36Z</time>
      </trkpt>
      <trkpt lat="47.55105" lon="-2.8684">
        <ele>57</ele>
        <time>2025-05-13T13:09:37Z</time>
      </trkpt>
      <trkpt lat="47.55103" lon="-2.86837">
        <ele>57</ele>
        <time>2025-05-13T13:09:38Z</time>
      </trkpt>
      <trkpt lat="47.55101" lon="-2.86834">
        <ele>56</ele>
        <time>2025-05-13T13:09:39Z</time>
      </trkpt>
      <trkpt lat="47.55099" lon="-2.86831">
        <ele>56</ele>
        <time>2025-05-13T13:09:40Z</time>
      </trkpt>
      <trkpt lat="47.55097" lon="-2.86828">
        <ele>56</ele>
        <time>2025-05-13T13:09:41Z</time>
      </trkpt>
      <trkpt lat="47.55096" lon="-2.86827">
        <ele>55</ele>
        <time>2025-05-13T13:09:42Z</time>
      </trkpt>
      <trkpt lat="47.55094" lon="-2.86825">
        <ele>55</ele>
        <time>2025-05-13T13:09:43Z</time>
      </trkpt>
      <trkpt lat="47.55092" lon="-2.86822">
        <ele>55</ele>
        <time>2025-05-13T13:09:44Z</time>
      </trkpt>
      <trkpt lat="47.55091" lon="-2.8682">
        <ele>55</ele>
        <time>2025-05-13T13:09:45Z</time>
      </trkpt>
      <trkpt lat="47.55089" lon="-2.86816">
        <ele>56</ele>
        <time>2025-05-13T13:09:46Z</time>
      </trkpt>
      <trkpt lat="47.55087" lon="-2.86814">
        <ele>56</ele>
        <time>2025-05-13T13:09:47Z</time>
      </trkpt>
      <trkpt lat="47.55086" lon="-2.86811">
        <ele>57</ele>
        <time>2025-05-13T13:09:48Z</time>
      </trkpt>
      <trkpt lat="47.55085" lon="-2.86809">
        <ele>57</ele>
        <time>2025-05-13T13:09:49Z</time>
      </trkpt>
      <trkpt lat="47.55083" lon="-2.86807">
        <ele>57</ele>
        <time>2025-05-13T13:09:50Z</time>
      </trkpt>
      <trkpt lat="47.55081" lon="-2.86806">
        <ele>57</ele>
        <time>2025-05-13T13:09:51Z</time>
      </trkpt>
      <trkpt lat="47.5508" lon="-2.86804">
        <ele>57</ele>
        <time>2025-05-13T13:09:52Z</time>
      </trkpt>
      <trkpt lat="47.55077" lon="-2.86802">
        <ele>57</ele>
        <time>2025-05-13T13:09:53Z</time>
      </trkpt>
      <trkpt lat="47.55075" lon="-2.868">
        <ele>57</ele>
        <time>2025-05-13T13:09:54Z</time>
      </trkpt>
      <trkpt lat="47.55073" lon="-2.86798">
        <ele>57</ele>
        <time>2025-05-13T13:09:55Z</time>
      </trkpt>
      <trkpt lat="47.55072" lon="-2.86796">
        <ele>57</ele>
        <time>2025-05-13T13:09:56Z</time>
      </trkpt>
      <trkpt lat="47.5507" lon="-2.86794">
        <ele>57</ele>
        <time>2025-05-13T13:09:57Z</time>
      </trkpt>
      <trkpt lat="47.55068" lon="-2.86792">
        <ele>58</ele>
        <time>2025-05-13T13:09:58Z</time>
      </trkpt>
      <trkpt lat="47.55066" lon="-2.86789">
        <ele>58</ele>
        <time>2025-05-13T13:09:59Z</time>
      </trkpt>
      <trkpt lat="47.55065" lon="-2.86786">
        <ele>59</ele>
        <time>2025-05-13T13:10:00Z</time>
      </trkpt>
      <trkpt lat="47.55063" lon="-2.86784">
        <ele>59</ele>
        <time>2025-05-13T13:10:01Z</time>
      </trkpt>
      <trkpt lat="47.55062" lon="-2.86782">
        <ele>59</ele>
        <time>2025-05-13T13:10:02Z</time>
      </trkpt>
      <trkpt lat="47.5506" lon="-2.86779">
        <ele>59</ele>
        <time>2025-05-13T13:10:03Z</time>
      </trkpt>
      <trkpt lat="47.55058" lon="-2.86777">
        <ele>60</ele>
        <time>2025-05-13T13:10:04Z</time>
      </trkpt>
      <trkpt lat="47.55057" lon="-2.86775">
        <ele>60</ele>
        <time>2025-05-13T13:10:05Z</time>
      </trkpt>
      <trkpt lat="47.55056" lon="-2.86774">
        <ele>60</ele>
        <time>2025-05-13T13:10:06Z</time>
      </trkpt>
      <trkpt lat="47.55054" lon="-2.86772">
        <ele>60</ele>
        <time>2025-05-13T13:10:07Z</time>
      </trkpt>
      <trkpt lat="47.55053" lon="-2.8677">
        <ele>60</ele>
        <time>2025-05-13T13:10:08Z</time>
      </trkpt>
      <trkpt lat="47.55051" lon="-2.86768">
        <ele>60</ele>
        <time>2025-05-13T13:10:09Z</time>
      </trkpt>
      <trkpt lat="47.55049" lon="-2.86766">
        <ele>61</ele>
        <time>2025-05-13T13:10:10Z</time>
      </trkpt>
      <trkpt lat="47.55048" lon="-2.86764">
        <ele>61</ele>
        <time>2025-05-13T13:10:11Z</time>
      </trkpt>
      <trkpt lat="47.55046" lon="-2.86762">
        <ele>61</ele>
        <time>2025-05-13T13:10:12Z</time>
      </trkpt>
      <trkpt lat="47.55044" lon="-2.8676">
        <ele>61</ele>
        <time>2025-05-13T13:10:13Z</time>
      </trkpt>
      <trkpt lat="47.55042" lon="-2.86758">
        <ele>61</ele>
        <time>2025-05-13T13:10:14Z</time>
      </trkpt>
      <trkpt lat="47.5504" lon="-2.86756">
        <ele>61</ele>
        <time>2025-05-13T13:10:15Z</time>
      </trkpt>
      <trkpt lat="47.55039" lon="-2.86754">
        <ele>61</ele>
        <time>2025-05-13T13:10:16Z</time>
      </trkpt>
      <trkpt lat="47.55037" lon="-2.86751">
        <ele>61</ele>
        <time>2025-05-13T13:10:17Z</time>
      </trkpt>
      <trkpt lat="47.55035" lon="-2.86749">
        <ele>60</ele>
        <time>2025-05-13T13:10:18Z</time>
      </trkpt>
      <trkpt lat="47.55033" lon="-2.86747">
        <ele>60</ele>
        <time>2025-05-13T13:10:19Z</time>
      </trkpt>
      <trkpt lat="47.55032" lon="-2.86745">
        <ele>60</ele>
        <time>2025-05-13T13:10:20Z</time>
      </trkpt>
      <trkpt lat="47.5503" lon="-2.86743">
        <ele>61</ele>
        <time>2025-05-13T13:10:21Z</time>
      </trkpt>
      <trkpt lat="47.55028" lon="-2.86741">
        <ele>61</ele>
        <time>2025-05-13T13:10:22Z</time>
      </trkpt>
      <trkpt lat="47.55027" lon="-2.86739">
        <ele>61</ele>
        <time>2025-05-13T13:10:23Z</time>
      </trkpt>
      <trkpt lat="47.55025" lon="-2.86737">
        <ele>62</ele>
        <time>2025-05-13T13:10:24Z</time>
      </trkpt>
      <trkpt lat="47.55023" lon="-2.86736">
        <ele>62</ele>
        <time>2025-05-13T13:10:25Z</time>
      </trkpt>
      <trkpt lat="47.55022" lon="-2.86734">
        <ele>62</ele>
        <time>2025-05-13T13:10:26Z</time>
      </trkpt>
      <trkpt lat="47.5502" lon="-2.86733">
        <ele>62</ele>
        <time>2025-05-13T13:10:27Z</time>
      </trkpt>
      <trkpt lat="47.55018" lon="-2.86731">
        <ele>61</ele>
        <time>2025-05-13T13:10:28Z</time>
      </trkpt>
      <trkpt lat="47.55016" lon="-2.86729">
        <ele>61</ele>
        <time>2025-05-13T13:10:29Z</time>
      </trkpt>
      <trkpt lat="47.55015" lon="-2.86728">
        <ele>62</ele>
        <time>2025-05-13T13:10:30Z</time>
      </trkpt>
      <trkpt lat="47.55013" lon="-2.86726">
        <ele>62</ele>
        <time>2025-05-13T13:10:31Z</time>
      </trkpt>
      <trkpt lat="47.55011" lon="-2.86725">
        <ele>62</ele>
        <time>2025-05-13T13:10:32Z</time>
      </trkpt>
      <trkpt lat="47.55009" lon="-2.86723">
        <ele>62</ele>
        <time>2025-05-13T13:10:33Z</time>
      </trkpt>
      <trkpt lat="47.55007" lon="-2.86722">
        <ele>62</ele>
        <time>2025-05-13T13:10:34Z</time>
      </trkpt>
      <trkpt lat="47.55005" lon="-2.8672">
        <ele>62</ele>
        <time>2025-05-13T13:10:35Z</time>
      </trkpt>
      <trkpt lat="47.55003" lon="-2.86718">
        <ele>62</ele>
        <time>2025-05-13T13:10:36Z</time>
      </trkpt>
      <trkpt lat="47.55001" lon="-2.86717">
        <ele>62</ele>
        <time>2025-05-13T13:10:37Z</time>
      </trkpt>
      <trkpt lat="47.54999" lon="-2.86716">
        <ele>61</ele>
        <time>2025-05-13T13:10:38Z</time>
      </trkpt>
      <trkpt lat="47.54998" lon="-2.86715">
        <ele>61</ele>
        <time>2025-05-13T13:10:39Z</time>
      </trkpt>
      <trkpt lat="47.54996" lon="-2.86714">
        <ele>61</ele>
        <time>2025-05-13T13:10:40Z</time>
      </trkpt>
      <trkpt lat="47.54994" lon="-2.86713">
        <ele>61</ele>
        <time>2025-05-13T13:10:41Z</time>
      </trkpt>
      <trkpt lat="47.54992" lon="-2.86712">
        <ele>61</ele>
        <time>2025-05-13T13:10:42Z</time>
      </trkpt>
      <trkpt lat="47.5499" lon="-2.86711">
        <ele>60</ele>
        <time>2025-05-13T13:10:43Z</time>
      </trkpt>
      <trkpt lat="47.54988" lon="-2.86711">
        <ele>60</ele>
        <time>2025-05-13T13:10:44Z</time>
      </trkpt>
      <trkpt lat="47.54985" lon="-2.8671">
        <ele>60</ele>
        <time>2025-05-13T13:10:45Z</time>
      </trkpt>
      <trkpt lat="47.54983" lon="-2.86709">
        <ele>61</ele>
        <time>2025-05-13T13:10:46Z</time>
      </trkpt>
      <trkpt lat="47.5498" lon="-2.86709">
        <ele>61</ele>
        <time>2025-05-13T13:10:47Z</time>
      </trkpt>
      <trkpt lat="47.54978" lon="-2.86708">
        <ele>61</ele>
        <time>2025-05-13T13:10:48Z</time>
      </trkpt>
      <trkpt lat="47.54976" lon="-2.86706">
        <ele>62</ele>
        <time>2025-05-13T13:10:49Z</time>
      </trkpt>
      <trkpt lat="47.54974" lon="-2.86705">
        <ele>63</ele>
        <time>2025-05-13T13:10:50Z</time>
      </trkpt>
      <trkpt lat="47.54972" lon="-2.86704">
        <ele>62</ele>
        <time>2025-05-13T13:10:51Z</time>
      </trkpt>
      <trkpt lat="47.5497" lon="-2.86704">
        <ele>62</ele>
        <time>2025-05-13T13:10:52Z</time>
      </trkpt>
      <trkpt lat="47.54968" lon="-2.86704">
        <ele>61</ele>
        <time>2025-05-13T13:10:53Z</time>
      </trkpt>
      <trkpt lat="47.54966" lon="-2.86703">
        <ele>61</ele>
        <time>2025-05-13T13:10:54Z</time>
      </trkpt>
      <trkpt lat="47.54964" lon="-2.86702">
        <ele>61</ele>
        <time>2025-05-13T13:10:55Z</time>
      </trkpt>
      <trkpt lat="47.54962" lon="-2.86702">
        <ele>61</ele>
        <time>2025-05-13T13:10:56Z</time>
      </trkpt>
      <trkpt lat="47.5496" lon="-2.86701">
        <ele>61</ele>
        <time>2025-05-13T13:10:57Z</time>
      </trkpt>
      <trkpt lat="47.54958" lon="-2.867">
        <ele>61</ele>
        <time>2025-05-13T13:10:58Z</time>
      </trkpt>
      <trkpt lat="47.54956" lon="-2.867">
        <ele>61</ele>
        <time>2025-05-13T13:10:59Z</time>
      </trkpt>
      <trkpt lat="47.54953" lon="-2.86699">
        <ele>62</ele>
        <time>2025-05-13T13:11:00Z</time>
      </trkpt>
      <trkpt lat="47.54951" lon="-2.86699">
        <ele>62</ele>
        <time>2025-05-13T13:11:01Z</time>
      </trkpt>
      <trkpt lat="47.54949" lon="-2.86699">
        <ele>62</ele>
        <time>2025-05-13T13:11:02Z</time>
      </trkpt>
      <trkpt lat="47.54946" lon="-2.86699">
        <ele>63</ele>
        <time>2025-05-13T13:11:03Z</time>
      </trkpt>
      <trkpt lat="47.54944" lon="-2.86699">
        <ele>63</ele>
        <time>2025-05-13T13:11:04Z</time>
      </trkpt>
      <trkpt lat="47.54942" lon="-2.86697">
        <ele>64</ele>
        <time>2025-05-13T13:11:05Z</time>
      </trkpt>
      <trkpt lat="47.5494" lon="-2.86696">
        <ele>64</ele>
        <time>2025-05-13T13:11:06Z</time>
      </trkpt>
      <trkpt lat="47.54938" lon="-2.86696">
        <ele>65</ele>
        <time>2025-05-13T13:11:07Z</time>
      </trkpt>
      <trkpt lat="47.54936" lon="-2.86695">
        <ele>65</ele>
        <time>2025-05-13T13:11:08Z</time>
      </trkpt>
      <trkpt lat="47.54933" lon="-2.86695">
        <ele>65</ele>
        <time>2025-05-13T13:11:09Z</time>
      </trkpt>
      <trkpt lat="47.54931" lon="-2.86694">
        <ele>65</ele>
        <time>2025-05-13T13:11:10Z</time>
      </trkpt>
      <trkpt lat="47.54929" lon="-2.86693">
        <ele>65</ele>
        <time>2025-05-13T13:11:11Z</time>
      </trkpt>
      <trkpt lat="47.54926" lon="-2.86693">
        <ele>65</ele>
        <time>2025-05-13T13:11:12Z</time>
      </trkpt>
      <trkpt lat="47.54924" lon="-2.86693">
        <ele>65</ele>
        <time>2025-05-13T13:11:13Z</time>
      </trkpt>
      <trkpt lat="47.54922" lon="-2.86692">
        <ele>65</ele>
        <time>2025-05-13T13:11:14Z</time>
      </trkpt>
      <trkpt lat="47.5492" lon="-2.86691">
        <ele>65</ele>
        <time>2025-05-13T13:11:15Z</time>
      </trkpt>
      <trkpt lat="47.54918" lon="-2.86691">
        <ele>65</ele>
        <time>2025-05-13T13:11:16Z</time>
      </trkpt>
      <trkpt lat="47.54916" lon="-2.8669">
        <ele>64</ele>
        <time>2025-05-13T13:11:17Z</time>
      </trkpt>
      <trkpt lat="47.54913" lon="-2.86689">
        <ele>64</ele>
        <time>2025-05-13T13:11:18Z</time>
      </trkpt>
      <trkpt lat="47.54911" lon="-2.86688">
        <ele>64</ele>
        <time>2025-05-13T13:11:19Z</time>
      </trkpt>
      <trkpt lat="47.54908" lon="-2.86687">
        <ele>64</ele>
        <time>2025-05-13T13:11:20Z</time>
      </trkpt>
      <trkpt lat="47.54906" lon="-2.86687">
        <ele>64</ele>
        <time>2025-05-13T13:11:21Z</time>
      </trkpt>
      <trkpt lat="47.54903" lon="-2.86686">
        <ele>64</ele>
        <time>2025-05-13T13:11:22Z</time>
      </trkpt>
      <trkpt lat="47.549" lon="-2.86686">
        <ele>64</ele>
        <time>2025-05-13T13:11:23Z</time>
      </trkpt>
      <trkpt lat="47.54897" lon="-2.86685">
        <ele>64</ele>
        <time>2025-05-13T13:11:24Z</time>
      </trkpt>
      <trkpt lat="47.54894" lon="-2.86683">
        <ele>63</ele>
        <time>2025-05-13T13:11:25Z</time>
      </trkpt>
      <trkpt lat="47.54891" lon="-2.86682">
        <ele>63</ele>
        <time>2025-05-13T13:11:26Z</time>
      </trkpt>
      <trkpt lat="47.54888" lon="-2.86681">
        <ele>63</ele>
        <time>2025-05-13T13:11:27Z</time>
      </trkpt>
      <trkpt lat="47.54884" lon="-2.86679">
        <ele>62</ele>
        <time>2025-05-13T13:11:28Z</time>
      </trkpt>
      <trkpt lat="47.54881" lon="-2.86677">
        <ele>62</ele>
        <time>2025-05-13T13:11:29Z</time>
      </trkpt>
      <trkpt lat="47.54878" lon="-2.86676">
        <ele>62</ele>
        <time>2025-05-13T13:11:30Z</time>
      </trkpt>
      <trkpt lat="47.54874" lon="-2.86673">
        <ele>62</ele>
        <time>2025-05-13T13:11:31Z</time>
      </trkpt>
      <trkpt lat="47.5487" lon="-2.86671">
        <ele>62</ele>
        <time>2025-05-13T13:11:32Z</time>
      </trkpt>
      <trkpt lat="47.54866" lon="-2.86669">
        <ele>62</ele>
        <time>2025-05-13T13:11:33Z</time>
      </trkpt>
      <trkpt lat="47.54861" lon="-2.86667">
        <ele>62</ele>
        <time>2025-05-13T13:11:34Z</time>
      </trkpt>
      <trkpt lat="47.54857" lon="-2.86664">
        <ele>62</ele>
        <time>2025-05-13T13:11:35Z</time>
      </trkpt>
      <trkpt lat="47.54854" lon="-2.86661">
        <ele>62</ele>
        <time>2025-05-13T13:11:36Z</time>
      </trkpt>
      <trkpt lat="47.5485" lon="-2.86658">
        <ele>62</ele>
        <time>2025-05-13T13:11:37Z</time>
      </trkpt>
      <trkpt lat="47.54846" lon="-2.86656">
        <ele>62</ele>
        <time>2025-05-13T13:11:38Z</time>
      </trkpt>
      <trkpt lat="47.54842" lon="-2.86654">
        <ele>62</ele>
        <time>2025-05-13T13:11:39Z</time>
      </trkpt>
      <trkpt lat="47.54838" lon="-2.86652">
        <ele>62</ele>
        <time>2025-05-13T13:11:40Z</time>
      </trkpt>
      <trkpt lat="47.54835" lon="-2.86651">
        <ele>61</ele>
        <time>2025-05-13T13:11:41Z</time>
      </trkpt>
      <trkpt lat="47.54832" lon="-2.86649">
        <ele>61</ele>
        <time>2025-05-13T13:11:42Z</time>
      </trkpt>
      <trkpt lat="47.54829" lon="-2.86647">
        <ele>60</ele>
        <time>2025-05-13T13:11:43Z</time>
      </trkpt>
      <trkpt lat="47.54825" lon="-2.86646">
        <ele>59</ele>
        <time>2025-05-13T13:11:44Z</time>
      </trkpt>
      <trkpt lat="47.54822" lon="-2.86645">
        <ele>58</ele>
        <time>2025-05-13T13:11:45Z</time>
      </trkpt>
      <trkpt lat="47.54818" lon="-2.86643">
        <ele>58</ele>
        <time>2025-05-13T13:11:46Z</time>
      </trkpt>
      <trkpt lat="47.54814" lon="-2.86643">
        <ele>59</ele>
        <time>2025-05-13T13:11:47Z</time>
      </trkpt>
      <trkpt lat="47.5481" lon="-2.86642">
        <ele>59</ele>
        <time>2025-05-13T13:11:48Z</time>
      </trkpt>
      <trkpt lat="47.54807" lon="-2.86642">
        <ele>59</ele>
        <time>2025-05-13T13:11:49Z</time>
      </trkpt>
      <trkpt lat="47.54802" lon="-2.86641">
        <ele>59</ele>
        <time>2025-05-13T13:11:50Z</time>
      </trkpt>
      <trkpt lat="47.54798" lon="-2.86641">
        <ele>60</ele>
        <time>2025-05-13T13:11:51Z</time>
      </trkpt>
      <trkpt lat="47.54795" lon="-2.86641">
        <ele>60</ele>
        <time>2025-05-13T13:11:52Z</time>
      </trkpt>
      <trkpt lat="47.54791" lon="-2.8664">
        <ele>60</ele>
        <time>2025-05-13T13:11:53Z</time>
      </trkpt>
      <trkpt lat="47.54788" lon="-2.86641">
        <ele>60</ele>
        <time>2025-05-13T13:11:54Z</time>
      </trkpt>
      <trkpt lat="47.54785" lon="-2.86641">
        <ele>60</ele>
        <time>2025-05-13T13:11:55Z</time>
      </trkpt>
      <trkpt lat="47.54781" lon="-2.86642">
        <ele>60</ele>
        <time>2025-05-13T13:11:56Z</time>
      </trkpt>
      <trkpt lat="47.54778" lon="-2.86642">
        <ele>60</ele>
        <time>2025-05-13T13:11:57Z</time>
      </trkpt>
      <trkpt lat="47.54775" lon="-2.86641">
        <ele>60</ele>
        <time>2025-05-13T13:11:58Z</time>
      </trkpt>
      <trkpt lat="47.54772" lon="-2.86641">
        <ele>60</ele>
        <time>2025-05-13T13:11:59Z</time>
      </trkpt>
      <trkpt lat="47.54769" lon="-2.8664">
        <ele>60</ele>
        <time>2025-05-13T13:12:00Z</time>
      </trkpt>
      <trkpt lat="47.54766" lon="-2.8664">
        <ele>60</ele>
        <time>2025-05-13T13:12:01Z</time>
      </trkpt>
      <trkpt lat="47.54763" lon="-2.8664">
        <ele>60</ele>
        <time>2025-05-13T13:12:02Z</time>
      </trkpt>
      <trkpt lat="47.5476" lon="-2.8664">
        <ele>61</ele>
        <time>2025-05-13T13:12:03Z</time>
      </trkpt>
      <trkpt lat="47.54757" lon="-2.86639">
        <ele>61</ele>
        <time>2025-05-13T13:12:04Z</time>
      </trkpt>
      <trkpt lat="47.54753" lon="-2.86639">
        <ele>62</ele>
        <time>2025-05-13T13:12:05Z</time>
      </trkpt>
      <trkpt lat="47.5475" lon="-2.86639">
        <ele>62</ele>
        <time>2025-05-13T13:12:06Z</time>
      </trkpt>
      <trkpt lat="47.54747" lon="-2.86639">
        <ele>62</ele>
        <time>2025-05-13T13:12:07Z</time>
      </trkpt>
      <trkpt lat="47.54745" lon="-2.86638">
        <ele>62</ele>
        <time>2025-05-13T13:12:08Z</time>
      </trkpt>
      <trkpt lat="47.54741" lon="-2.86638">
        <ele>62</ele>
        <time>2025-05-13T13:12:09Z</time>
      </trkpt>
      <trkpt lat="47.54738" lon="-2.86637">
        <ele>62</ele>
        <time>2025-05-13T13:12:10Z</time>
      </trkpt>
      <trkpt lat="47.54735" lon="-2.86637">
        <ele>63</ele>
        <time>2025-05-13T13:12:11Z</time>
      </trkpt>
      <trkpt lat="47.54731" lon="-2.86636">
        <ele>64</ele>
        <time>2025-05-13T13:12:12Z</time>
      </trkpt>
      <trkpt lat="47.54728" lon="-2.86636">
        <ele>64</ele>
        <time>2025-05-13T13:12:13Z</time>
      </trkpt>
      <trkpt lat="47.54725" lon="-2.86636">
        <ele>65</ele>
        <time>2025-05-13T13:12:14Z</time>
      </trkpt>
      <trkpt lat="47.54722" lon="-2.86635">
        <ele>65</ele>
        <time>2025-05-13T13:12:15Z</time>
      </trkpt>
      <trkpt lat="47.54719" lon="-2.86634">
        <ele>66</ele>
        <time>2025-05-13T13:12:16Z</time>
      </trkpt>
      <trkpt lat="47.54716" lon="-2.86634">
        <ele>67</ele>
        <time>2025-05-13T13:12:17Z</time>
      </trkpt>
      <trkpt lat="47.54714" lon="-2.86635">
        <ele>67</ele>
        <time>2025-05-13T13:12:18Z</time>
      </trkpt>
      <trkpt lat="47.54712" lon="-2.86635">
        <ele>68</ele>
        <time>2025-05-13T13:12:19Z</time>
      </trkpt>
      <trkpt lat="47.5471" lon="-2.86636">
        <ele>68</ele>
        <time>2025-05-13T13:12:20Z</time>
      </trkpt>
      <trkpt lat="47.54708" lon="-2.86637">
        <ele>68</ele>
        <time>2025-05-13T13:12:21Z</time>
      </trkpt>
      <trkpt lat="47.54705" lon="-2.86637">
        <ele>69</ele>
        <time>2025-05-13T13:12:22Z</time>
      </trkpt>
      <trkpt lat="47.54703" lon="-2.86637">
        <ele>69</ele>
        <time>2025-05-13T13:12:23Z</time>
      </trkpt>
      <trkpt lat="47.547" lon="-2.86636">
        <ele>69</ele>
        <time>2025-05-13T13:12:24Z</time>
      </trkpt>
      <trkpt lat="47.54698" lon="-2.86636">
        <ele>68</ele>
        <time>2025-05-13T13:12:25Z</time>
      </trkpt>
      <trkpt lat="47.54696" lon="-2.86636">
        <ele>69</ele>
        <time>2025-05-13T13:12:26Z</time>
      </trkpt>
      <trkpt lat="47.54694" lon="-2.86636">
        <ele>69</ele>
        <time>2025-05-13T13:12:27Z</time>
      </trkpt>
      <trkpt lat="47.54691" lon="-2.86636">
        <ele>69</ele>
        <time>2025-05-13T13:12:28Z</time>
      </trkpt>
      <trkpt lat="47.54689" lon="-2.86636">
        <ele>70</ele>
        <time>2025-05-13T13:12:29Z</time>
      </trkpt>
      <trkpt lat="47.54687" lon="-2.86636">
        <ele>70</ele>
        <time>2025-05-13T13:12:30Z</time>
      </trkpt>
      <trkpt lat="47.54685" lon="-2.86635">
        <ele>70</ele>
        <time>2025-05-13T13:12:31Z</time>
      </trkpt>
      <trkpt lat="47.54683" lon="-2.86635">
        <ele>70</ele>
        <time>2025-05-13T13:12:32Z</time>
      </trkpt>
      <trkpt lat="47.54681" lon="-2.86634">
        <ele>71</ele>
        <time>2025-05-13T13:12:33Z</time>
      </trkpt>
      <trkpt lat="47.5468" lon="-2.86635">
        <ele>71</ele>
        <time>2025-05-13T13:12:34Z</time>
      </trkpt>
      <trkpt lat="47.54678" lon="-2.86635">
        <ele>72</ele>
        <time>2025-05-13T13:12:35Z</time>
      </trkpt>
      <trkpt lat="47.54676" lon="-2.86635">
        <ele>72</ele>
        <time>2025-05-13T13:12:36Z</time>
      </trkpt>
      <trkpt lat="47.54674" lon="-2.86636">
        <ele>72</ele>
        <time>2025-05-13T13:12:37Z</time>
      </trkpt>
      <trkpt lat="47.54673" lon="-2.86635">
        <ele>72</ele>
        <time>2025-05-13T13:12:38Z</time>
      </trkpt>
      <trkpt lat="47.54671" lon="-2.86635">
        <ele>73</ele>
        <time>2025-05-13T13:12:39Z</time>
      </trkpt>
      <trkpt lat="47.5467" lon="-2.86636">
        <ele>73</ele>
        <time>2025-05-13T13:12:40Z</time>
      </trkpt>
      <trkpt lat="47.54667" lon="-2.86636">
        <ele>73</ele>
        <time>2025-05-13T13:12:41Z</time>
      </trkpt>
      <trkpt lat="47.54665" lon="-2.86636">
        <ele>72</ele>
        <time>2025-05-13T13:12:42Z</time>
      </trkpt>
      <trkpt lat="47.54664" lon="-2.86637">
        <ele>72</ele>
        <time>2025-05-13T13:12:43Z</time>
      </trkpt>
      <trkpt lat="47.54661" lon="-2.86637">
        <ele>72</ele>
        <time>2025-05-13T13:12:44Z</time>
      </trkpt>
      <trkpt lat="47.54659" lon="-2.86638">
        <ele>71</ele>
        <time>2025-05-13T13:12:45Z</time>
      </trkpt>
      <trkpt lat="47.54657" lon="-2.86639">
        <ele>71</ele>
        <time>2025-05-13T13:12:46Z</time>
      </trkpt>
      <trkpt lat="47.54655" lon="-2.86639">
        <ele>70</ele>
        <time>2025-05-13T13:12:47Z</time>
      </trkpt>
      <trkpt lat="47.54652" lon="-2.8664">
        <ele>70</ele>
        <time>2025-05-13T13:12:48Z</time>
      </trkpt>
      <trkpt lat="47.5465" lon="-2.8664">
        <ele>70</ele>
        <time>2025-05-13T13:12:49Z</time>
      </trkpt>
      <trkpt lat="47.54647" lon="-2.8664">
        <ele>70</ele>
        <time>2025-05-13T13:12:50Z</time>
      </trkpt>
      <trkpt lat="47.54644" lon="-2.86641">
        <ele>70</ele>
        <time>2025-05-13T13:12:51Z</time>
      </trkpt>
      <trkpt lat="47.54642" lon="-2.86641">
        <ele>70</ele>
        <time>2025-05-13T13:12:52Z</time>
      </trkpt>
      <trkpt lat="47.54639" lon="-2.86641">
        <ele>70</ele>
        <time>2025-05-13T13:12:53Z</time>
      </trkpt>
      <trkpt lat="47.54636" lon="-2.86641">
        <ele>70</ele>
        <time>2025-05-13T13:12:54Z</time>
      </trkpt>
      <trkpt lat="47.54633" lon="-2.86642">
        <ele>70</ele>
        <time>2025-05-13T13:12:55Z</time>
      </trkpt>
      <trkpt lat="47.5463" lon="-2.86641">
        <ele>70</ele>
        <time>2025-05-13T13:12:56Z</time>
      </trkpt>
      <trkpt lat="47.54628" lon="-2.86641">
        <ele>70</ele>
        <time>2025-05-13T13:12:57Z</time>
      </trkpt>
      <trkpt lat="47.54624" lon="-2.86642">
        <ele>70</ele>
        <time>2025-05-13T13:12:58Z</time>
      </trkpt>
      <trkpt lat="47.54621" lon="-2.86642">
        <ele>70</ele>
        <time>2025-05-13T13:12:59Z</time>
      </trkpt>
      <trkpt lat="47.54618" lon="-2.86642">
        <ele>70</ele>
        <time>2025-05-13T13:13:00Z</time>
      </trkpt>
      <trkpt lat="47.54614" lon="-2.86642">
        <ele>70</ele>
        <time>2025-05-13T13:13:01Z</time>
      </trkpt>
      <trkpt lat="47.54611" lon="-2.86642">
        <ele>70</ele>
        <time>2025-05-13T13:13:02Z</time>
      </trkpt>
      <trkpt lat="47.54607" lon="-2.86642">
        <ele>70</ele>
        <time>2025-05-13T13:13:03Z</time>
      </trkpt>
      <trkpt lat="47.54604" lon="-2.86642">
        <ele>70</ele>
        <time>2025-05-13T13:13:04Z</time>
      </trkpt>
      <trkpt lat="47.546" lon="-2.86641">
        <ele>69</ele>
        <time>2025-05-13T13:13:05Z</time>
      </trkpt>
      <trkpt lat="47.54597" lon="-2.86641">
        <ele>69</ele>
        <time>2025-05-13T13:13:06Z</time>
      </trkpt>
      <trkpt lat="47.54593" lon="-2.8664">
        <ele>69</ele>
        <time>2025-05-13T13:13:07Z</time>
      </trkpt>
      <trkpt lat="47.5459" lon="-2.8664">
        <ele>69</ele>
        <time>2025-05-13T13:13:08Z</time>
      </trkpt>
      <trkpt lat="47.54586" lon="-2.8664">
        <ele>68</ele>
        <time>2025-05-13T13:13:09Z</time>
      </trkpt>
      <trkpt lat="47.54581" lon="-2.8664">
        <ele>68</ele>
        <time>2025-05-13T13:13:10Z</time>
      </trkpt>
      <trkpt lat="47.54577" lon="-2.8664">
        <ele>68</ele>
        <time>2025-05-13T13:13:11Z</time>
      </trkpt>
      <trkpt lat="47.54573" lon="-2.8664">
        <ele>67</ele>
        <time>2025-05-13T13:13:12Z</time>
      </trkpt>
      <trkpt lat="47.54569" lon="-2.8664">
        <ele>67</ele>
        <time>2025-05-13T13:13:13Z</time>
      </trkpt>
      <trkpt lat="47.54564" lon="-2.8664">
        <ele>67</ele>
        <time>2025-05-13T13:13:14Z</time>
      </trkpt>
      <trkpt lat="47.54559" lon="-2.8664">
        <ele>67</ele>
        <time>2025-05-13T13:13:15Z</time>
      </trkpt>
      <trkpt lat="47.54555" lon="-2.8664">
        <ele>66</ele>
        <time>2025-05-13T13:13:16Z</time>
      </trkpt>
      <trkpt lat="47.5455" lon="-2.86639">
        <ele>66</ele>
        <time>2025-05-13T13:13:17Z</time>
      </trkpt>
      <trkpt lat="47.54545" lon="-2.86639">
        <ele>66</ele>
        <time>2025-05-13T13:13:18Z</time>
      </trkpt>
      <trkpt lat="47.5454" lon="-2.86639">
        <ele>66</ele>
        <time>2025-05-13T13:13:19Z</time>
      </trkpt>
      <trkpt lat="47.54535" lon="-2.86639">
        <ele>65</ele>
        <time>2025-05-13T13:13:20Z</time>
      </trkpt>
      <trkpt lat="47.5453" lon="-2.86639">
        <ele>65</ele>
        <time>2025-05-13T13:13:21Z</time>
      </trkpt>
      <trkpt lat="47.54525" lon="-2.8664">
        <ele>65</ele>
        <time>2025-05-13T13:13:22Z</time>
      </trkpt>
      <trkpt lat="47.5452" lon="-2.86639">
        <ele>65</ele>
        <time>2025-05-13T13:13:23Z</time>
      </trkpt>
      <trkpt lat="47.54515" lon="-2.86639">
        <ele>64</ele>
        <time>2025-05-13T13:13:24Z</time>
      </trkpt>
      <trkpt lat="47.54509" lon="-2.86639">
        <ele>64</ele>
        <time>2025-05-13T13:13:25Z</time>
      </trkpt>
      <trkpt lat="47.54504" lon="-2.86638">
        <ele>64</ele>
        <time>2025-05-13T13:13:26Z</time>
      </trkpt>
      <trkpt lat="47.54499" lon="-2.86637">
        <ele>63</ele>
        <time>2025-05-13T13:13:27Z</time>
      </trkpt>
      <trkpt lat="47.54493" lon="-2.86637">
        <ele>63</ele>
        <time>2025-05-13T13:13:28Z</time>
      </trkpt>
      <trkpt lat="47.54488" lon="-2.86637">
        <ele>63</ele>
        <time>2025-05-13T13:13:29Z</time>
      </trkpt>
      <trkpt lat="47.54483" lon="-2.86636">
        <ele>63</ele>
        <time>2025-05-13T13:13:30Z</time>
      </trkpt>
      <trkpt lat="47.54477" lon="-2.86636">
        <ele>63</ele>
        <time>2025-05-13T13:13:31Z</time>
      </trkpt>
      <trkpt lat="47.54471" lon="-2.86637">
        <ele>63</ele>
        <time>2025-05-13T13:13:32Z</time>
      </trkpt>
      <trkpt lat="47.54466" lon="-2.86638">
        <ele>63</ele>
        <time>2025-05-13T13:13:33Z</time>
      </trkpt>
      <trkpt lat="47.5446" lon="-2.8664">
        <ele>63</ele>
        <time>2025-05-13T13:13:34Z</time>
      </trkpt>
      <trkpt lat="47.54454" lon="-2.86641">
        <ele>63</ele>
        <time>2025-05-13T13:13:35Z</time>
      </trkpt>
      <trkpt lat="47.54449" lon="-2.86643">
        <ele>63</ele>
        <time>2025-05-13T13:13:36Z</time>
      </trkpt>
      <trkpt lat="47.54443" lon="-2.86645">
        <ele>63</ele>
        <time>2025-05-13T13:13:37Z</time>
      </trkpt>
      <trkpt lat="47.54438" lon="-2.86647">
        <ele>63</ele>
        <time>2025-05-13T13:13:38Z</time>
      </trkpt>
      <trkpt lat="47.54433" lon="-2.86649">
        <ele>63</ele>
        <time>2025-05-13T13:13:39Z</time>
      </trkpt>
      <trkpt lat="47.54428" lon="-2.86651">
        <ele>63</ele>
        <time>2025-05-13T13:13:40Z</time>
      </trkpt>
      <trkpt lat="47.54424" lon="-2.86653">
        <ele>63</ele>
        <time>2025-05-13T13:13:41Z</time>
      </trkpt>
      <trkpt lat="47.54419" lon="-2.86656">
        <ele>63</ele>
        <time>2025-05-13T13:13:42Z</time>
      </trkpt>
      <trkpt lat="47.54415" lon="-2.86659">
        <ele>63</ele>
        <time>2025-05-13T13:13:43Z</time>
      </trkpt>
      <trkpt lat="47.54411" lon="-2.86662">
        <ele>63</ele>
        <time>2025-05-13T13:13:44Z</time>
      </trkpt>
      <trkpt lat="47.54407" lon="-2.86666">
        <ele>63</ele>
        <time>2025-05-13T13:13:45Z</time>
      </trkpt>
      <trkpt lat="47.54404" lon="-2.8667">
        <ele>64</ele>
        <time>2025-05-13T13:13:46Z</time>
      </trkpt>
      <trkpt lat="47.544" lon="-2.86673">
        <ele>64</ele>
        <time>2025-05-13T13:13:47Z</time>
      </trkpt>
      <trkpt lat="47.54397" lon="-2.86677">
        <ele>65</ele>
        <time>2025-05-13T13:13:48Z</time>
      </trkpt>
      <trkpt lat="47.54393" lon="-2.86681">
        <ele>65</ele>
        <time>2025-05-13T13:13:49Z</time>
      </trkpt>
      <trkpt lat="47.5439" lon="-2.86684">
        <ele>65</ele>
        <time>2025-05-13T13:13:50Z</time>
      </trkpt>
      <trkpt lat="47.54386" lon="-2.86685">
        <ele>65</ele>
        <time>2025-05-13T13:13:51Z</time>
      </trkpt>
      <trkpt lat="47.54382" lon="-2.86686">
        <ele>65</ele>
        <time>2025-05-13T13:13:52Z</time>
      </trkpt>
      <trkpt lat="47.54379" lon="-2.86686">
        <ele>65</ele>
        <time>2025-05-13T13:13:53Z</time>
      </trkpt>
      <trkpt lat="47.54375" lon="-2.86687">
        <ele>65</ele>
        <time>2025-05-13T13:13:54Z</time>
      </trkpt>
      <trkpt lat="47.54372" lon="-2.86687">
        <ele>65</ele>
        <time>2025-05-13T13:13:55Z</time>
      </trkpt>
      <trkpt lat="47.54368" lon="-2.86688">
        <ele>65</ele>
        <time>2025-05-13T13:13:56Z</time>
      </trkpt>
      <trkpt lat="47.54365" lon="-2.86689">
        <ele>65</ele>
        <time>2025-05-13T13:13:57Z</time>
      </trkpt>
      <trkpt lat="47.54362" lon="-2.86691">
        <ele>66</ele>
        <time>2025-05-13T13:13:58Z</time>
      </trkpt>
      <trkpt lat="47.5436" lon="-2.86691">
        <ele>66</ele>
        <time>2025-05-13T13:13:59Z</time>
      </trkpt>
      <trkpt lat="47.54358" lon="-2.86691">
        <ele>66</ele>
        <time>2025-05-13T13:14:00Z</time>
      </trkpt>
      <trkpt lat="47.54356" lon="-2.86691">
        <ele>66</ele>
        <time>2025-05-13T13:14:01Z</time>
      </trkpt>
      <trkpt lat="47.54354" lon="-2.86691">
        <ele>66</ele>
        <time>2025-05-13T13:14:02Z</time>
      </trkpt>
      <trkpt lat="47.54352" lon="-2.86691">
        <ele>66</ele>
        <time>2025-05-13T13:14:03Z</time>
      </trkpt>
      <trkpt lat="47.54351" lon="-2.86691">
        <ele>66</ele>
        <time>2025-05-13T13:14:04Z</time>
      </trkpt>
      <trkpt lat="47.5435" lon="-2.8669">
        <ele>66</ele>
        <time>2025-05-13T13:14:05Z</time>
      </trkpt>
      <trkpt lat="47.54348" lon="-2.8669">
        <ele>66</ele>
        <time>2025-05-13T13:14:06Z</time>
      </trkpt>
      <trkpt lat="47.54347" lon="-2.8669">
        <ele>66</ele>
        <time>2025-05-13T13:14:07Z</time>
      </trkpt>
      <trkpt lat="47.54346" lon="-2.86689">
        <ele>66</ele>
        <time>2025-05-13T13:14:08Z</time>
      </trkpt>
      <trkpt lat="47.54344" lon="-2.86689">
        <ele>66</ele>
        <time>2025-05-13T13:14:09Z</time>
      </trkpt>
      <trkpt lat="47.54343" lon="-2.86689">
        <ele>66</ele>
        <time>2025-05-13T13:14:10Z</time>
      </trkpt>
      <trkpt lat="47.54342" lon="-2.86689">
        <ele>66</ele>
        <time>2025-05-13T13:14:11Z</time>
      </trkpt>
      <trkpt lat="47.5434" lon="-2.86689">
        <ele>66</ele>
        <time>2025-05-13T13:14:12Z</time>
      </trkpt>
      <trkpt lat="47.54339" lon="-2.86689">
        <ele>66</ele>
        <time>2025-05-13T13:14:13Z</time>
      </trkpt>
      <trkpt lat="47.54338" lon="-2.86689">
        <ele>66</ele>
        <time>2025-05-13T13:14:14Z</time>
      </trkpt>
      <trkpt lat="47.54337" lon="-2.86688">
        <ele>66</ele>
        <time>2025-05-13T13:14:15Z</time>
      </trkpt>
      <trkpt lat="47.54336" lon="-2.86688">
        <ele>66</ele>
        <time>2025-05-13T13:14:16Z</time>
      </trkpt>
      <trkpt lat="47.54334" lon="-2.86687">
        <ele>66</ele>
        <time>2025-05-13T13:14:17Z</time>
      </trkpt>
      <trkpt lat="47.54333" lon="-2.86686">
        <ele>66</ele>
        <time>2025-05-13T13:14:18Z</time>
      </trkpt>
      <trkpt lat="47.54333" lon="-2.86685">
        <ele>66</ele>
        <time>2025-05-13T13:14:19Z</time>
      </trkpt>
      <trkpt lat="47.54332" lon="-2.86684">
        <ele>66</ele>
        <time>2025-05-13T13:14:20Z</time>
      </trkpt>
      <trkpt lat="47.54331" lon="-2.86683">
        <ele>66</ele>
        <time>2025-05-13T13:14:21Z</time>
      </trkpt>
      <trkpt lat="47.5433" lon="-2.86682">
        <ele>66</ele>
        <time>2025-05-13T13:14:22Z</time>
      </trkpt>
      <trkpt lat="47.54328" lon="-2.86682">
        <ele>66</ele>
        <time>2025-05-13T13:14:23Z</time>
      </trkpt>
      <trkpt lat="47.54326" lon="-2.86681">
        <ele>67</ele>
        <time>2025-05-13T13:14:24Z</time>
      </trkpt>
      <trkpt lat="47.54324" lon="-2.86681">
        <ele>67</ele>
        <time>2025-05-13T13:14:25Z</time>
      </trkpt>
      <trkpt lat="47.54322" lon="-2.86679">
        <ele>66</ele>
        <time>2025-05-13T13:14:26Z</time>
      </trkpt>
      <trkpt lat="47.54319" lon="-2.86678">
        <ele>66</ele>
        <time>2025-05-13T13:14:27Z</time>
      </trkpt>
      <trkpt lat="47.54316" lon="-2.86676">
        <ele>66</ele>
        <time>2025-05-13T13:14:28Z</time>
      </trkpt>
      <trkpt lat="47.54313" lon="-2.86673">
        <ele>66</ele>
        <time>2025-05-13T13:14:29Z</time>
      </trkpt>
      <trkpt lat="47.5431" lon="-2.86669">
        <ele>66</ele>
        <time>2025-05-13T13:14:30Z</time>
      </trkpt>
      <trkpt lat="47.54307" lon="-2.86665">
        <ele>65</ele>
        <time>2025-05-13T13:14:31Z</time>
      </trkpt>
      <trkpt lat="47.54304" lon="-2.86661">
        <ele>65</ele>
        <time>2025-05-13T13:14:32Z</time>
      </trkpt>
      <trkpt lat="47.54302" lon="-2.86655">
        <ele>64</ele>
        <time>2025-05-13T13:14:33Z</time>
      </trkpt>
      <trkpt lat="47.54299" lon="-2.86651">
        <ele>64</ele>
        <time>2025-05-13T13:14:34Z</time>
      </trkpt>
      <trkpt lat="47.54296" lon="-2.86646">
        <ele>63</ele>
        <time>2025-05-13T13:14:35Z</time>
      </trkpt>
      <trkpt lat="47.54294" lon="-2.86641">
        <ele>63</ele>
        <time>2025-05-13T13:14:36Z</time>
      </trkpt>
      <trkpt lat="47.54291" lon="-2.86636">
        <ele>63</ele>
        <time>2025-05-13T13:14:37Z</time>
      </trkpt>
      <trkpt lat="47.54289" lon="-2.86631">
        <ele>62</ele>
        <time>2025-05-13T13:14:38Z</time>
      </trkpt>
      <trkpt lat="47.54286" lon="-2.86626">
        <ele>62</ele>
        <time>2025-05-13T13:14:39Z</time>
      </trkpt>
      <trkpt lat="47.54282" lon="-2.86621">
        <ele>62</ele>
        <time>2025-05-13T13:14:40Z</time>
      </trkpt>
      <trkpt lat="47.54278" lon="-2.86618">
        <ele>61</ele>
        <time>2025-05-13T13:14:41Z</time>
      </trkpt>
      <trkpt lat="47.54274" lon="-2.86615">
        <ele>61</ele>
        <time>2025-05-13T13:14:42Z</time>
      </trkpt>
      <trkpt lat="47.54269" lon="-2.86614">
        <ele>61</ele>
        <time>2025-05-13T13:14:43Z</time>
      </trkpt>
      <trkpt lat="47.54265" lon="-2.86612">
        <ele>60</ele>
        <time>2025-05-13T13:14:44Z</time>
      </trkpt>
      <trkpt lat="47.54262" lon="-2.86611">
        <ele>60</ele>
        <time>2025-05-13T13:14:45Z</time>
      </trkpt>
      <trkpt lat="47.54259" lon="-2.8661">
        <ele>60</ele>
        <time>2025-05-13T13:14:46Z</time>
      </trkpt>
      <trkpt lat="47.54256" lon="-2.86609">
        <ele>59</ele>
        <time>2025-05-13T13:14:47Z</time>
      </trkpt>
      <trkpt lat="47.54253" lon="-2.86608">
        <ele>59</ele>
        <time>2025-05-13T13:14:48Z</time>
      </trkpt>
      <trkpt lat="47.54251" lon="-2.86606">
        <ele>59</ele>
        <time>2025-05-13T13:14:49Z</time>
      </trkpt>
      <trkpt lat="47.54248" lon="-2.86606">
        <ele>60</ele>
        <time>2025-05-13T13:14:50Z</time>
      </trkpt>
      <trkpt lat="47.54245" lon="-2.86605">
        <ele>60</ele>
        <time>2025-05-13T13:14:51Z</time>
      </trkpt>
      <trkpt lat="47.54243" lon="-2.86604">
        <ele>60</ele>
        <time>2025-05-13T13:14:52Z</time>
      </trkpt>
      <trkpt lat="47.54241" lon="-2.86603">
        <ele>60</ele>
        <time>2025-05-13T13:14:53Z</time>
      </trkpt>
      <trkpt lat="47.5424" lon="-2.86601">
        <ele>60</ele>
        <time>2025-05-13T13:14:54Z</time>
      </trkpt>
      <trkpt lat="47.54238" lon="-2.86599">
        <ele>60</ele>
        <time>2025-05-13T13:14:55Z</time>
      </trkpt>
      <trkpt lat="47.54237" lon="-2.86597">
        <ele>61</ele>
        <time>2025-05-13T13:14:56Z</time>
      </trkpt>
      <trkpt lat="47.54236" lon="-2.86594">
        <ele>61</ele>
        <time>2025-05-13T13:14:57Z</time>
      </trkpt>
      <trkpt lat="47.54234" lon="-2.86591">
        <ele>61</ele>
        <time>2025-05-13T13:14:58Z</time>
      </trkpt>
      <trkpt lat="47.54233" lon="-2.86587">
        <ele>61</ele>
        <time>2025-05-13T13:14:59Z</time>
      </trkpt>
      <trkpt lat="47.54231" lon="-2.86584">
        <ele>61</ele>
        <time>2025-05-13T13:15:00Z</time>
      </trkpt>
      <trkpt lat="47.54229" lon="-2.8658">
        <ele>62</ele>
        <time>2025-05-13T13:15:01Z</time>
      </trkpt>
      <trkpt lat="47.54227" lon="-2.86577">
        <ele>62</ele>
        <time>2025-05-13T13:15:02Z</time>
      </trkpt>
      <trkpt lat="47.54225" lon="-2.86573">
        <ele>61</ele>
        <time>2025-05-13T13:15:03Z</time>
      </trkpt>
      <trkpt lat="47.54223" lon="-2.86568">
        <ele>61</ele>
        <time>2025-05-13T13:15:04Z</time>
      </trkpt>
      <trkpt lat="47.54221" lon="-2.86563">
        <ele>61</ele>
        <time>2025-05-13T13:15:05Z</time>
      </trkpt>
      <trkpt lat="47.54219" lon="-2.86559">
        <ele>61</ele>
        <time>2025-05-13T13:15:06Z</time>
      </trkpt>
      <trkpt lat="47.54216" lon="-2.86555">
        <ele>60</ele>
        <time>2025-05-13T13:15:07Z</time>
      </trkpt>
      <trkpt lat="47.54213" lon="-2.86551">
        <ele>60</ele>
        <time>2025-05-13T13:15:08Z</time>
      </trkpt>
      <trkpt lat="47.54211" lon="-2.86546">
        <ele>60</ele>
        <time>2025-05-13T13:15:09Z</time>
      </trkpt>
      <trkpt lat="47.54208" lon="-2.86542">
        <ele>60</ele>
        <time>2025-05-13T13:15:10Z</time>
      </trkpt>
      <trkpt lat="47.54206" lon="-2.86539">
        <ele>60</ele>
        <time>2025-05-13T13:15:11Z</time>
      </trkpt>
      <trkpt lat="47.54203" lon="-2.86535">
        <ele>59</ele>
        <time>2025-05-13T13:15:12Z</time>
      </trkpt>
      <trkpt lat="47.54201" lon="-2.86531">
        <ele>59</ele>
        <time>2025-05-13T13:15:13Z</time>
      </trkpt>
      <trkpt lat="47.54198" lon="-2.86527">
        <ele>58</ele>
        <time>2025-05-13T13:15:14Z</time>
      </trkpt>
      <trkpt lat="47.54195" lon="-2.86524">
        <ele>58</ele>
        <time>2025-05-13T13:15:15Z</time>
      </trkpt>
      <trkpt lat="47.54192" lon="-2.8652">
        <ele>57</ele>
        <time>2025-05-13T13:15:16Z</time>
      </trkpt>
      <trkpt lat="47.54189" lon="-2.86516">
        <ele>57</ele>
        <time>2025-05-13T13:15:17Z</time>
      </trkpt>
      <trkpt lat="47.54186" lon="-2.86512">
        <ele>56</ele>
        <time>2025-05-13T13:15:18Z</time>
      </trkpt>
      <trkpt lat="47.54182" lon="-2.86507">
        <ele>56</ele>
        <time>2025-05-13T13:15:19Z</time>
      </trkpt>
      <trkpt lat="47.54176" lon="-2.86502">
        <ele>55</ele>
        <time>2025-05-13T13:15:20Z</time>
      </trkpt>
      <trkpt lat="47.54171" lon="-2.86498">
        <ele>54</ele>
        <time>2025-05-13T13:15:21Z</time>
      </trkpt>
      <trkpt lat="47.54166" lon="-2.86494">
        <ele>54</ele>
        <time>2025-05-13T13:15:22Z</time>
      </trkpt>
      <trkpt lat="47.54161" lon="-2.86489">
        <ele>54</ele>
        <time>2025-05-13T13:15:23Z</time>
      </trkpt>
      <trkpt lat="47.54157" lon="-2.86485">
        <ele>54</ele>
        <time>2025-05-13T13:15:24Z</time>
      </trkpt>
      <trkpt lat="47.54152" lon="-2.8648">
        <ele>54</ele>
        <time>2025-05-13T13:15:25Z</time>
      </trkpt>
      <trkpt lat="47.54148" lon="-2.86476">
        <ele>54</ele>
        <time>2025-05-13T13:15:26Z</time>
      </trkpt>
      <trkpt lat="47.54144" lon="-2.86472">
        <ele>55</ele>
        <time>2025-05-13T13:15:27Z</time>
      </trkpt>
      <trkpt lat="47.5414" lon="-2.86468">
        <ele>55</ele>
        <time>2025-05-13T13:15:28Z</time>
      </trkpt>
      <trkpt lat="47.54135" lon="-2.86465">
        <ele>56</ele>
        <time>2025-05-13T13:15:29Z</time>
      </trkpt>
      <trkpt lat="47.54131" lon="-2.86461">
        <ele>56</ele>
        <time>2025-05-13T13:15:30Z</time>
      </trkpt>
      <trkpt lat="47.54127" lon="-2.86457">
        <ele>57</ele>
        <time>2025-05-13T13:15:31Z</time>
      </trkpt>
      <trkpt lat="47.54123" lon="-2.86454">
        <ele>57</ele>
        <time>2025-05-13T13:15:32Z</time>
      </trkpt>
      <trkpt lat="47.54119" lon="-2.86451">
        <ele>57</ele>
        <time>2025-05-13T13:15:33Z</time>
      </trkpt>
      <trkpt lat="47.54115" lon="-2.86448">
        <ele>57</ele>
        <time>2025-05-13T13:15:34Z</time>
      </trkpt>
      <trkpt lat="47.54112" lon="-2.86445">
        <ele>57</ele>
        <time>2025-05-13T13:15:35Z</time>
      </trkpt>
      <trkpt lat="47.54108" lon="-2.86442">
        <ele>56</ele>
        <time>2025-05-13T13:15:36Z</time>
      </trkpt>
      <trkpt lat="47.54105" lon="-2.8644">
        <ele>56</ele>
        <time>2025-05-13T13:15:37Z</time>
      </trkpt>
      <trkpt lat="47.54101" lon="-2.86438">
        <ele>56</ele>
        <time>2025-05-13T13:15:38Z</time>
      </trkpt>
      <trkpt lat="47.54097" lon="-2.86435">
        <ele>55</ele>
        <time>2025-05-13T13:15:39Z</time>
      </trkpt>
      <trkpt lat="47.54094" lon="-2.86433">
        <ele>56</ele>
        <time>2025-05-13T13:15:40Z</time>
      </trkpt>
      <trkpt lat="47.54091" lon="-2.86431">
        <ele>56</ele>
        <time>2025-05-13T13:15:41Z</time>
      </trkpt>
      <trkpt lat="47.54088" lon="-2.86428">
        <ele>55</ele>
        <time>2025-05-13T13:15:42Z</time>
      </trkpt>
      <trkpt lat="47.54086" lon="-2.86426">
        <ele>55</ele>
        <time>2025-05-13T13:15:43Z</time>
      </trkpt>
      <trkpt lat="47.54083" lon="-2.86423">
        <ele>55</ele>
        <time>2025-05-13T13:15:44Z</time>
      </trkpt>
      <trkpt lat="47.5408" lon="-2.86421">
        <ele>55</ele>
        <time>2025-05-13T13:15:45Z</time>
      </trkpt>
      <trkpt lat="47.54077" lon="-2.86417">
        <ele>55</ele>
        <time>2025-05-13T13:15:46Z</time>
      </trkpt>
      <trkpt lat="47.54074" lon="-2.86415">
        <ele>55</ele>
        <time>2025-05-13T13:15:47Z</time>
      </trkpt>
      <trkpt lat="47.5407" lon="-2.86413">
        <ele>55</ele>
        <time>2025-05-13T13:15:48Z</time>
      </trkpt>
      <trkpt lat="47.54066" lon="-2.86412">
        <ele>54</ele>
        <time>2025-05-13T13:15:49Z</time>
      </trkpt>
      <trkpt lat="47.54063" lon="-2.8641">
        <ele>53</ele>
        <time>2025-05-13T13:15:50Z</time>
      </trkpt>
      <trkpt lat="47.54059" lon="-2.86408">
        <ele>52</ele>
        <time>2025-05-13T13:15:51Z</time>
      </trkpt>
      <trkpt lat="47.54055" lon="-2.86405">
        <ele>53</ele>
        <time>2025-05-13T13:15:52Z</time>
      </trkpt>
      <trkpt lat="47.54051" lon="-2.86403">
        <ele>53</ele>
        <time>2025-05-13T13:15:53Z</time>
      </trkpt>
      <trkpt lat="47.54047" lon="-2.86399">
        <ele>53</ele>
        <time>2025-05-13T13:15:54Z</time>
      </trkpt>
      <trkpt lat="47.54043" lon="-2.86395">
        <ele>52</ele>
        <time>2025-05-13T13:15:55Z</time>
      </trkpt>
      <trkpt lat="47.5404" lon="-2.86391">
        <ele>52</ele>
        <time>2025-05-13T13:15:56Z</time>
      </trkpt>
      <trkpt lat="47.54036" lon="-2.86387">
        <ele>52</ele>
        <time>2025-05-13T13:15:57Z</time>
      </trkpt>
      <trkpt lat="47.54033" lon="-2.86384">
        <ele>52</ele>
        <time>2025-05-13T13:15:58Z</time>
      </trkpt>
      <trkpt lat="47.54029" lon="-2.8638">
        <ele>51</ele>
        <time>2025-05-13T13:15:59Z</time>
      </trkpt>
      <trkpt lat="47.54026" lon="-2.86377">
        <ele>50</ele>
        <time>2025-05-13T13:16:00Z</time>
      </trkpt>
      <trkpt lat="47.54022" lon="-2.86373">
        <ele>51</ele>
        <time>2025-05-13T13:16:01Z</time>
      </trkpt>
      <trkpt lat="47.54019" lon="-2.8637">
        <ele>51</ele>
        <time>2025-05-13T13:16:02Z</time>
      </trkpt>
      <trkpt lat="47.54015" lon="-2.86365">
        <ele>51</ele>
        <time>2025-05-13T13:16:03Z</time>
      </trkpt>
      <trkpt lat="47.54011" lon="-2.86361">
        <ele>51</ele>
        <time>2025-05-13T13:16:04Z</time>
      </trkpt>
      <trkpt lat="47.54007" lon="-2.86356">
        <ele>51</ele>
        <time>2025-05-13T13:16:05Z</time>
      </trkpt>
      <trkpt lat="47.54004" lon="-2.86352">
        <ele>51</ele>
        <time>2025-05-13T13:16:06Z</time>
      </trkpt>
      <trkpt lat="47.54" lon="-2.86347">
        <ele>51</ele>
        <time>2025-05-13T13:16:07Z</time>
      </trkpt>
      <trkpt lat="47.53996" lon="-2.86343">
        <ele>51</ele>
        <time>2025-05-13T13:16:08Z</time>
      </trkpt>
      <trkpt lat="47.53993" lon="-2.86338">
        <ele>52</ele>
        <time>2025-05-13T13:16:09Z</time>
      </trkpt>
      <trkpt lat="47.53989" lon="-2.86333">
        <ele>52</ele>
        <time>2025-05-13T13:16:10Z</time>
      </trkpt>
      <trkpt lat="47.53985" lon="-2.86329">
        <ele>52</ele>
        <time>2025-05-13T13:16:11Z</time>
      </trkpt>
      <trkpt lat="47.53982" lon="-2.86323">
        <ele>52</ele>
        <time>2025-05-13T13:16:12Z</time>
      </trkpt>
      <trkpt lat="47.53978" lon="-2.86318">
        <ele>52</ele>
        <time>2025-05-13T13:16:13Z</time>
      </trkpt>
      <trkpt lat="47.53975" lon="-2.86313">
        <ele>51</ele>
        <time>2025-05-13T13:16:14Z</time>
      </trkpt>
      <trkpt lat="47.53971" lon="-2.86308">
        <ele>51</ele>
        <time>2025-05-13T13:16:15Z</time>
      </trkpt>
      <trkpt lat="47.53968" lon="-2.86302">
        <ele>51</ele>
        <time>2025-05-13T13:16:16Z</time>
      </trkpt>
      <trkpt lat="47.53964" lon="-2.86296">
        <ele>52</ele>
        <time>2025-05-13T13:16:17Z</time>
      </trkpt>
      <trkpt lat="47.53961" lon="-2.8629">
        <ele>52</ele>
        <time>2025-05-13T13:16:18Z</time>
      </trkpt>
      <trkpt lat="47.53958" lon="-2.86284">
        <ele>52</ele>
        <time>2025-05-13T13:16:19Z</time>
      </trkpt>
      <trkpt lat="47.53954" lon="-2.86278">
        <ele>51</ele>
        <time>2025-05-13T13:16:20Z</time>
      </trkpt>
      <trkpt lat="47.53951" lon="-2.86271">
        <ele>52</ele>
        <time>2025-05-13T13:16:21Z</time>
      </trkpt>
      <trkpt lat="47.53948" lon="-2.86264">
        <ele>52</ele>
        <time>2025-05-13T13:16:22Z</time>
      </trkpt>
      <trkpt lat="47.53945" lon="-2.86257">
        <ele>51</ele>
        <time>2025-05-13T13:16:23Z</time>
      </trkpt>
      <trkpt lat="47.53943" lon="-2.86251">
        <ele>51</ele>
        <time>2025-05-13T13:16:24Z</time>
      </trkpt>
      <trkpt lat="47.53941" lon="-2.86244">
        <ele>52</ele>
        <time>2025-05-13T13:16:25Z</time>
      </trkpt>
      <trkpt lat="47.53938" lon="-2.86238">
        <ele>52</ele>
        <time>2025-05-13T13:16:26Z</time>
      </trkpt>
      <trkpt lat="47.53936" lon="-2.86232">
        <ele>52</ele>
        <time>2025-05-13T13:16:27Z</time>
      </trkpt>
      <trkpt lat="47.53933" lon="-2.86225">
        <ele>52</ele>
        <time>2025-05-13T13:16:28Z</time>
      </trkpt>
      <trkpt lat="47.53931" lon="-2.86219">
        <ele>52</ele>
        <time>2025-05-13T13:16:29Z</time>
      </trkpt>
      <trkpt lat="47.53929" lon="-2.86212">
        <ele>52</ele>
        <time>2025-05-13T13:16:30Z</time>
      </trkpt>
      <trkpt lat="47.53927" lon="-2.86206">
        <ele>52</ele>
        <time>2025-05-13T13:16:31Z</time>
      </trkpt>
      <trkpt lat="47.53925" lon="-2.86199">
        <ele>52</ele>
        <time>2025-05-13T13:16:32Z</time>
      </trkpt>
      <trkpt lat="47.53924" lon="-2.86192">
        <ele>52</ele>
        <time>2025-05-13T13:16:33Z</time>
      </trkpt>
      <trkpt lat="47.53922" lon="-2.86184">
        <ele>52</ele>
        <time>2025-05-13T13:16:34Z</time>
      </trkpt>
      <trkpt lat="47.5392" lon="-2.86177">
        <ele>52</ele>
        <time>2025-05-13T13:16:35Z</time>
      </trkpt>
      <trkpt lat="47.53918" lon="-2.8617">
        <ele>52</ele>
        <time>2025-05-13T13:16:36Z</time>
      </trkpt>
      <trkpt lat="47.53916" lon="-2.86163">
        <ele>53</ele>
        <time>2025-05-13T13:16:37Z</time>
      </trkpt>
      <trkpt lat="47.53915" lon="-2.86157">
        <ele>53</ele>
        <time>2025-05-13T13:16:38Z</time>
      </trkpt>
      <trkpt lat="47.53913" lon="-2.8615">
        <ele>53</ele>
        <time>2025-05-13T13:16:39Z</time>
      </trkpt>
      <trkpt lat="47.53913" lon="-2.86144">
        <ele>53</ele>
        <time>2025-05-13T13:16:40Z</time>
      </trkpt>
      <trkpt lat="47.53912" lon="-2.86138">
        <ele>53</ele>
        <time>2025-05-13T13:16:41Z</time>
      </trkpt>
      <trkpt lat="47.53911" lon="-2.86132">
        <ele>53</ele>
        <time>2025-05-13T13:16:42Z</time>
      </trkpt>
      <trkpt lat="47.5391" lon="-2.86126">
        <ele>53</ele>
        <time>2025-05-13T13:16:43Z</time>
      </trkpt>
      <trkpt lat="47.53909" lon="-2.86121">
        <ele>53</ele>
        <time>2025-05-13T13:16:44Z</time>
      </trkpt>
      <trkpt lat="47.53909" lon="-2.86116">
        <ele>53</ele>
        <time>2025-05-13T13:16:45Z</time>
      </trkpt>
      <trkpt lat="47.53908" lon="-2.8611">
        <ele>53</ele>
        <time>2025-05-13T13:16:46Z</time>
      </trkpt>
      <trkpt lat="47.53907" lon="-2.86105">
        <ele>54</ele>
        <time>2025-05-13T13:16:47Z</time>
      </trkpt>
      <trkpt lat="47.53907" lon="-2.86101">
        <ele>54</ele>
        <time>2025-05-13T13:16:48Z</time>
      </trkpt>
      <trkpt lat="47.53907" lon="-2.86096">
        <ele>54</ele>
        <time>2025-05-13T13:16:49Z</time>
      </trkpt>
      <trkpt lat="47.53906" lon="-2.86091">
        <ele>54</ele>
        <time>2025-05-13T13:16:50Z</time>
      </trkpt>
      <trkpt lat="47.53906" lon="-2.86087">
        <ele>54</ele>
        <time>2025-05-13T13:16:51Z</time>
      </trkpt>
      <trkpt lat="47.53906" lon="-2.86082">
        <ele>54</ele>
        <time>2025-05-13T13:16:52Z</time>
      </trkpt>
      <trkpt lat="47.53905" lon="-2.86078">
        <ele>53</ele>
        <time>2025-05-13T13:16:53Z</time>
      </trkpt>
      <trkpt lat="47.53905" lon="-2.86072">
        <ele>53</ele>
        <time>2025-05-13T13:16:54Z</time>
      </trkpt>
      <trkpt lat="47.53904" lon="-2.86067">
        <ele>53</ele>
        <time>2025-05-13T13:16:55Z</time>
      </trkpt>
      <trkpt lat="47.53904" lon="-2.86061">
        <ele>53</ele>
        <time>2025-05-13T13:16:56Z</time>
      </trkpt>
      <trkpt lat="47.53903" lon="-2.86055">
        <ele>53</ele>
        <time>2025-05-13T13:16:57Z</time>
      </trkpt>
      <trkpt lat="47.53903" lon="-2.86049">
        <ele>53</ele>
        <time>2025-05-13T13:16:58Z</time>
      </trkpt>
      <trkpt lat="47.53903" lon="-2.86044">
        <ele>53</ele>
        <time>2025-05-13T13:16:59Z</time>
      </trkpt>
      <trkpt lat="47.53903" lon="-2.86038">
        <ele>53</ele>
        <time>2025-05-13T13:17:00Z</time>
      </trkpt>
      <trkpt lat="47.53904" lon="-2.86032">
        <ele>53</ele>
        <time>2025-05-13T13:17:01Z</time>
      </trkpt>
      <trkpt lat="47.53903" lon="-2.86026">
        <ele>53</ele>
        <time>2025-05-13T13:17:02Z</time>
      </trkpt>
      <trkpt lat="47.53903" lon="-2.8602">
        <ele>53</ele>
        <time>2025-05-13T13:17:03Z</time>
      </trkpt>
      <trkpt lat="47.53903" lon="-2.86014">
        <ele>53</ele>
        <time>2025-05-13T13:17:04Z</time>
      </trkpt>
      <trkpt lat="47.53903" lon="-2.86008">
        <ele>53</ele>
        <time>2025-05-13T13:17:05Z</time>
      </trkpt>
      <trkpt lat="47.53903" lon="-2.86003">
        <ele>53</ele>
        <time>2025-05-13T13:17:06Z</time>
      </trkpt>
      <trkpt lat="47.53903" lon="-2.85997">
        <ele>53</ele>
        <time>2025-05-13T13:17:07Z</time>
      </trkpt>
      <trkpt lat="47.53903" lon="-2.85992">
        <ele>53</ele>
        <time>2025-05-13T13:17:08Z</time>
      </trkpt>
      <trkpt lat="47.53903" lon="-2.85986">
        <ele>53</ele>
        <time>2025-05-13T13:17:09Z</time>
      </trkpt>
      <trkpt lat="47.53903" lon="-2.85981">
        <ele>53</ele>
        <time>2025-05-13T13:17:10Z</time>
      </trkpt>
      <trkpt lat="47.53903" lon="-2.85976">
        <ele>53</ele>
        <time>2025-05-13T13:17:11Z</time>
      </trkpt>
      <trkpt lat="47.53904" lon="-2.85971">
        <ele>53</ele>
        <time>2025-05-13T13:17:12Z</time>
      </trkpt>
      <trkpt lat="47.53904" lon="-2.85967">
        <ele>53</ele>
        <time>2025-05-13T13:17:13Z</time>
      </trkpt>
      <trkpt lat="47.53904" lon="-2.85962">
        <ele>53</ele>
        <time>2025-05-13T13:17:14Z</time>
      </trkpt>
      <trkpt lat="47.53904" lon="-2.85958">
        <ele>53</ele>
        <time>2025-05-13T13:17:15Z</time>
      </trkpt>
      <trkpt lat="47.53904" lon="-2.85953">
        <ele>54</ele>
        <time>2025-05-13T13:17:16Z</time>
      </trkpt>
      <trkpt lat="47.53904" lon="-2.85949">
        <ele>54</ele>
        <time>2025-05-13T13:17:17Z</time>
      </trkpt>
      <trkpt lat="47.53904" lon="-2.85945">
        <ele>54</ele>
        <time>2025-05-13T13:17:18Z</time>
      </trkpt>
      <trkpt lat="47.53903" lon="-2.8594">
        <ele>54</ele>
        <time>2025-05-13T13:17:19Z</time>
      </trkpt>
      <trkpt lat="47.53903" lon="-2.85936">
        <ele>54</ele>
        <time>2025-05-13T13:17:20Z</time>
      </trkpt>
      <trkpt lat="47.53903" lon="-2.85931">
        <ele>54</ele>
        <time>2025-05-13T13:17:21Z</time>
      </trkpt>
      <trkpt lat="47.53903" lon="-2.85927">
        <ele>54</ele>
        <time>2025-05-13T13:17:22Z</time>
      </trkpt>
      <trkpt lat="47.53903" lon="-2.85923">
        <ele>55</ele>
        <time>2025-05-13T13:17:23Z</time>
      </trkpt>
      <trkpt lat="47.53903" lon="-2.85918">
        <ele>55</ele>
        <time>2025-05-13T13:17:24Z</time>
      </trkpt>
      <trkpt lat="47.53902" lon="-2.85914">
        <ele>54</ele>
        <time>2025-05-13T13:17:25Z</time>
      </trkpt>
      <trkpt lat="47.53902" lon="-2.8591">
        <ele>54</ele>
        <time>2025-05-13T13:17:26Z</time>
      </trkpt>
      <trkpt lat="47.53902" lon="-2.85906">
        <ele>55</ele>
        <time>2025-05-13T13:17:27Z</time>
      </trkpt>
      <trkpt lat="47.53902" lon="-2.85903">
        <ele>54</ele>
        <time>2025-05-13T13:17:28Z</time>
      </trkpt>
      <trkpt lat="47.53902" lon="-2.85899">
        <ele>54</ele>
        <time>2025-05-13T13:17:29Z</time>
      </trkpt>
      <trkpt lat="47.53902" lon="-2.85895">
        <ele>54</ele>
        <time>2025-05-13T13:17:30Z</time>
      </trkpt>
      <trkpt lat="47.53902" lon="-2.85891">
        <ele>54</ele>
        <time>2025-05-13T13:17:31Z</time>
      </trkpt>
      <trkpt lat="47.53902" lon="-2.85887">
        <ele>54</ele>
        <time>2025-05-13T13:17:32Z</time>
      </trkpt>
      <trkpt lat="47.53902" lon="-2.85883">
        <ele>53</ele>
        <time>2025-05-13T13:17:33Z</time>
      </trkpt>
      <trkpt lat="47.53902" lon="-2.85879">
        <ele>53</ele>
        <time>2025-05-13T13:17:34Z</time>
      </trkpt>
      <trkpt lat="47.53902" lon="-2.85875">
        <ele>53</ele>
        <time>2025-05-13T13:17:35Z</time>
      </trkpt>
      <trkpt lat="47.53903" lon="-2.85871">
        <ele>53</ele>
        <time>2025-05-13T13:17:36Z</time>
      </trkpt>
      <trkpt lat="47.53903" lon="-2.85867">
        <ele>53</ele>
        <time>2025-05-13T13:17:37Z</time>
      </trkpt>
      <trkpt lat="47.53903" lon="-2.85862">
        <ele>53</ele>
        <time>2025-05-13T13:17:38Z</time>
      </trkpt>
      <trkpt lat="47.53903" lon="-2.85857">
        <ele>53</ele>
        <time>2025-05-13T13:17:39Z</time>
      </trkpt>
      <trkpt lat="47.53903" lon="-2.85853">
        <ele>53</ele>
        <time>2025-05-13T13:17:40Z</time>
      </trkpt>
      <trkpt lat="47.53903" lon="-2.85848">
        <ele>53</ele>
        <time>2025-05-13T13:17:41Z</time>
      </trkpt>
      <trkpt lat="47.53903" lon="-2.85844">
        <ele>53</ele>
        <time>2025-05-13T13:17:42Z</time>
      </trkpt>
      <trkpt lat="47.53903" lon="-2.8584">
        <ele>53</ele>
        <time>2025-05-13T13:17:43Z</time>
      </trkpt>
      <trkpt lat="47.53903" lon="-2.85836">
        <ele>53</ele>
        <time>2025-05-13T13:17:44Z</time>
      </trkpt>
      <trkpt lat="47.53903" lon="-2.85832">
        <ele>54</ele>
        <time>2025-05-13T13:17:45Z</time>
      </trkpt>
      <trkpt lat="47.53903" lon="-2.85828">
        <ele>54</ele>
        <time>2025-05-13T13:17:46Z</time>
      </trkpt>
      <trkpt lat="47.53903" lon="-2.85824">
        <ele>54</ele>
        <time>2025-05-13T13:17:47Z</time>
      </trkpt>
      <trkpt lat="47.53903" lon="-2.8582">
        <ele>54</ele>
        <time>2025-05-13T13:17:48Z</time>
      </trkpt>
      <trkpt lat="47.53903" lon="-2.85816">
        <ele>55</ele>
        <time>2025-05-13T13:17:49Z</time>
      </trkpt>
      <trkpt lat="47.53903" lon="-2.85811">
        <ele>55</ele>
        <time>2025-05-13T13:17:50Z</time>
      </trkpt>
      <trkpt lat="47.53903" lon="-2.85807">
        <ele>55</ele>
        <time>2025-05-13T13:17:51Z</time>
      </trkpt>
      <trkpt lat="47.53902" lon="-2.85803">
        <ele>55</ele>
        <time>2025-05-13T13:17:52Z</time>
      </trkpt>
      <trkpt lat="47.53902" lon="-2.85799">
        <ele>56</ele>
        <time>2025-05-13T13:17:53Z</time>
      </trkpt>
      <trkpt lat="47.53902" lon="-2.85796">
        <ele>56</ele>
        <time>2025-05-13T13:17:54Z</time>
      </trkpt>
      <trkpt lat="47.53902" lon="-2.85792">
        <ele>57</ele>
        <time>2025-05-13T13:17:55Z</time>
      </trkpt>
      <trkpt lat="47.53902" lon="-2.85789">
        <ele>57</ele>
        <time>2025-05-13T13:17:56Z</time>
      </trkpt>
      <trkpt lat="47.53901" lon="-2.85785">
        <ele>57</ele>
        <time>2025-05-13T13:17:57Z</time>
      </trkpt>
      <trkpt lat="47.53901" lon="-2.85781">
        <ele>57</ele>
        <time>2025-05-13T13:17:58Z</time>
      </trkpt>
      <trkpt lat="47.53902" lon="-2.85778">
        <ele>57</ele>
        <time>2025-05-13T13:17:59Z</time>
      </trkpt>
      <trkpt lat="47.53902" lon="-2.85775">
        <ele>57</ele>
        <time>2025-05-13T13:18:00Z</time>
      </trkpt>
      <trkpt lat="47.53901" lon="-2.85771">
        <ele>57</ele>
        <time>2025-05-13T13:18:01Z</time>
      </trkpt>
      <trkpt lat="47.53901" lon="-2.85767">
        <ele>58</ele>
        <time>2025-05-13T13:18:02Z</time>
      </trkpt>
      <trkpt lat="47.53901" lon="-2.85763">
        <ele>58</ele>
        <time>2025-05-13T13:18:03Z</time>
      </trkpt>
      <trkpt lat="47.53901" lon="-2.85759">
        <ele>58</ele>
        <time>2025-05-13T13:18:04Z</time>
      </trkpt>
      <trkpt lat="47.53901" lon="-2.85754">
        <ele>59</ele>
        <time>2025-05-13T13:18:05Z</time>
      </trkpt>
      <trkpt lat="47.53901" lon="-2.8575">
        <ele>59</ele>
        <time>2025-05-13T13:18:06Z</time>
      </trkpt>
      <trkpt lat="47.53901" lon="-2.85746">
        <ele>59</ele>
        <time>2025-05-13T13:18:07Z</time>
      </trkpt>
      <trkpt lat="47.53901" lon="-2.85742">
        <ele>59</ele>
        <time>2025-05-13T13:18:08Z</time>
      </trkpt>
      <trkpt lat="47.53901" lon="-2.85738">
        <ele>59</ele>
        <time>2025-05-13T13:18:09Z</time>
      </trkpt>
      <trkpt lat="47.53901" lon="-2.85734">
        <ele>59</ele>
        <time>2025-05-13T13:18:10Z</time>
      </trkpt>
      <trkpt lat="47.53901" lon="-2.8573">
        <ele>59</ele>
        <time>2025-05-13T13:18:11Z</time>
      </trkpt>
      <trkpt lat="47.53901" lon="-2.85726">
        <ele>59</ele>
        <time>2025-05-13T13:18:12Z</time>
      </trkpt>
      <trkpt lat="47.53901" lon="-2.85722">
        <ele>59</ele>
        <time>2025-05-13T13:18:13Z</time>
      </trkpt>
      <trkpt lat="47.53901" lon="-2.85717">
        <ele>59</ele>
        <time>2025-05-13T13:18:14Z</time>
      </trkpt>
      <trkpt lat="47.53901" lon="-2.85713">
        <ele>59</ele>
        <time>2025-05-13T13:18:15Z</time>
      </trkpt>
      <trkpt lat="47.53901" lon="-2.85709">
        <ele>59</ele>
        <time>2025-05-13T13:18:16Z</time>
      </trkpt>
      <trkpt lat="47.53901" lon="-2.85704">
        <ele>59</ele>
        <time>2025-05-13T13:18:17Z</time>
      </trkpt>
      <trkpt lat="47.539" lon="-2.857">
        <ele>60</ele>
        <time>2025-05-13T13:18:18Z</time>
      </trkpt>
      <trkpt lat="47.539" lon="-2.85696">
        <ele>60</ele>
        <time>2025-05-13T13:18:19Z</time>
      </trkpt>
      <trkpt lat="47.539" lon="-2.85692">
        <ele>60</ele>
        <time>2025-05-13T13:18:20Z</time>
      </trkpt>
      <trkpt lat="47.53899" lon="-2.85688">
        <ele>60</ele>
        <time>2025-05-13T13:18:21Z</time>
      </trkpt>
      <trkpt lat="47.53898" lon="-2.85684">
        <ele>60</ele>
        <time>2025-05-13T13:18:22Z</time>
      </trkpt>
      <trkpt lat="47.53898" lon="-2.8568">
        <ele>60</ele>
        <time>2025-05-13T13:18:23Z</time>
      </trkpt>
      <trkpt lat="47.53897" lon="-2.85675">
        <ele>60</ele>
        <time>2025-05-13T13:18:24Z</time>
      </trkpt>
      <trkpt lat="47.53896" lon="-2.85671">
        <ele>61</ele>
        <time>2025-05-13T13:18:25Z</time>
      </trkpt>
      <trkpt lat="47.53895" lon="-2.85667">
        <ele>61</ele>
        <time>2025-05-13T13:18:26Z</time>
      </trkpt>
      <trkpt lat="47.53895" lon="-2.85662">
        <ele>60</ele>
        <time>2025-05-13T13:18:27Z</time>
      </trkpt>
      <trkpt lat="47.53894" lon="-2.85657">
        <ele>60</ele>
        <time>2025-05-13T13:18:28Z</time>
      </trkpt>
      <trkpt lat="47.53892" lon="-2.85652">
        <ele>60</ele>
        <time>2025-05-13T13:18:29Z</time>
      </trkpt>
      <trkpt lat="47.53891" lon="-2.85646">
        <ele>60</ele>
        <time>2025-05-13T13:18:30Z</time>
      </trkpt>
      <trkpt lat="47.5389" lon="-2.85642">
        <ele>60</ele>
        <time>2025-05-13T13:18:31Z</time>
      </trkpt>
      <trkpt lat="47.53888" lon="-2.85637">
        <ele>60</ele>
        <time>2025-05-13T13:18:32Z</time>
      </trkpt>
      <trkpt lat="47.53886" lon="-2.85631">
        <ele>61</ele>
        <time>2025-05-13T13:18:33Z</time>
      </trkpt>
      <trkpt lat="47.53884" lon="-2.85626">
        <ele>60</ele>
        <time>2025-05-13T13:18:34Z</time>
      </trkpt>
      <trkpt lat="47.53882" lon="-2.8562">
        <ele>60</ele>
        <time>2025-05-13T13:18:35Z</time>
      </trkpt>
      <trkpt lat="47.5388" lon="-2.85615">
        <ele>60</ele>
        <time>2025-05-13T13:18:36Z</time>
      </trkpt>
      <trkpt lat="47.53878" lon="-2.85609">
        <ele>60</ele>
        <time>2025-05-13T13:18:37Z</time>
      </trkpt>
      <trkpt lat="47.53876" lon="-2.85603">
        <ele>60</ele>
        <time>2025-05-13T13:18:38Z</time>
      </trkpt>
      <trkpt lat="47.53874" lon="-2.85598">
        <ele>60</ele>
        <time>2025-05-13T13:18:39Z</time>
      </trkpt>
      <trkpt lat="47.53872" lon="-2.85594">
        <ele>59</ele>
        <time>2025-05-13T13:18:40Z</time>
      </trkpt>
      <trkpt lat="47.53871" lon="-2.85589">
        <ele>58</ele>
        <time>2025-05-13T13:18:41Z</time>
      </trkpt>
      <trkpt lat="47.53869" lon="-2.85584">
        <ele>58</ele>
        <time>2025-05-13T13:18:42Z</time>
      </trkpt>
      <trkpt lat="47.53867" lon="-2.85579">
        <ele>58</ele>
        <time>2025-05-13T13:18:43Z</time>
      </trkpt>
      <trkpt lat="47.53865" lon="-2.85574">
        <ele>58</ele>
        <time>2025-05-13T13:18:44Z</time>
      </trkpt>
      <trkpt lat="47.53862" lon="-2.85569">
        <ele>58</ele>
        <time>2025-05-13T13:18:45Z</time>
      </trkpt>
      <trkpt lat="47.53859" lon="-2.85565">
        <ele>57</ele>
        <time>2025-05-13T13:18:46Z</time>
      </trkpt>
      <trkpt lat="47.53856" lon="-2.8556">
        <ele>57</ele>
        <time>2025-05-13T13:18:47Z</time>
      </trkpt>
      <trkpt lat="47.53854" lon="-2.85555">
        <ele>56</ele>
        <time>2025-05-13T13:18:48Z</time>
      </trkpt>
      <trkpt lat="47.5385" lon="-2.8555">
        <ele>56</ele>
        <time>2025-05-13T13:18:49Z</time>
      </trkpt>
      <trkpt lat="47.53847" lon="-2.85545">
        <ele>57</ele>
        <time>2025-05-13T13:18:50Z</time>
      </trkpt>
      <trkpt lat="47.53843" lon="-2.85542">
        <ele>57</ele>
        <time>2025-05-13T13:18:51Z</time>
      </trkpt>
      <trkpt lat="47.53838" lon="-2.85538">
        <ele>57</ele>
        <time>2025-05-13T13:18:52Z</time>
      </trkpt>
      <trkpt lat="47.53834" lon="-2.85533">
        <ele>57</ele>
        <time>2025-05-13T13:18:53Z</time>
      </trkpt>
      <trkpt lat="47.5383" lon="-2.85529">
        <ele>57</ele>
        <time>2025-05-13T13:18:54Z</time>
      </trkpt>
      <trkpt lat="47.53826" lon="-2.85526">
        <ele>57</ele>
        <time>2025-05-13T13:18:55Z</time>
      </trkpt>
      <trkpt lat="47.53821" lon="-2.85522">
        <ele>57</ele>
        <time>2025-05-13T13:18:56Z</time>
      </trkpt>
      <trkpt lat="47.53816" lon="-2.85518">
        <ele>57</ele>
        <time>2025-05-13T13:18:57Z</time>
      </trkpt>
      <trkpt lat="47.53812" lon="-2.85514">
        <ele>57</ele>
        <time>2025-05-13T13:18:58Z</time>
      </trkpt>
      <trkpt lat="47.53807" lon="-2.8551">
        <ele>57</ele>
        <time>2025-05-13T13:18:59Z</time>
      </trkpt>
      <trkpt lat="47.53803" lon="-2.85506">
        <ele>56</ele>
        <time>2025-05-13T13:19:00Z</time>
      </trkpt>
      <trkpt lat="47.53798" lon="-2.85502">
        <ele>56</ele>
        <time>2025-05-13T13:19:01Z</time>
      </trkpt>
      <trkpt lat="47.53793" lon="-2.85499">
        <ele>56</ele>
        <time>2025-05-13T13:19:02Z</time>
      </trkpt>
      <trkpt lat="47.53789" lon="-2.85496">
        <ele>56</ele>
        <time>2025-05-13T13:19:03Z</time>
      </trkpt>
      <trkpt lat="47.53784" lon="-2.85492">
        <ele>55</ele>
        <time>2025-05-13T13:19:04Z</time>
      </trkpt>
      <trkpt lat="47.5378" lon="-2.8549">
        <ele>56</ele>
        <time>2025-05-13T13:19:05Z</time>
      </trkpt>
      <trkpt lat="47.53776" lon="-2.85486">
        <ele>55</ele>
        <time>2025-05-13T13:19:06Z</time>
      </trkpt>
      <trkpt lat="47.53771" lon="-2.85484">
        <ele>55</ele>
        <time>2025-05-13T13:19:07Z</time>
      </trkpt>
      <trkpt lat="47.53766" lon="-2.85482">
        <ele>55</ele>
        <time>2025-05-13T13:19:08Z</time>
      </trkpt>
      <trkpt lat="47.53761" lon="-2.8548">
        <ele>55</ele>
        <time>2025-05-13T13:19:09Z</time>
      </trkpt>
      <trkpt lat="47.53757" lon="-2.85477">
        <ele>53</ele>
        <time>2025-05-13T13:19:10Z</time>
      </trkpt>
      <trkpt lat="47.53752" lon="-2.85475">
        <ele>54</ele>
        <time>2025-05-13T13:19:11Z</time>
      </trkpt>
      <trkpt lat="47.53746" lon="-2.85473">
        <ele>54</ele>
        <time>2025-05-13T13:19:12Z</time>
      </trkpt>
      <trkpt lat="47.53741" lon="-2.85471">
        <ele>54</ele>
        <time>2025-05-13T13:19:13Z</time>
      </trkpt>
      <trkpt lat="47.53735" lon="-2.85468">
        <ele>54</ele>
        <time>2025-05-13T13:19:14Z</time>
      </trkpt>
      <trkpt lat="47.5373" lon="-2.85465">
        <ele>55</ele>
        <time>2025-05-13T13:19:15Z</time>
      </trkpt>
      <trkpt lat="47.53724" lon="-2.85462">
        <ele>55</ele>
        <time>2025-05-13T13:19:16Z</time>
      </trkpt>
      <trkpt lat="47.53719" lon="-2.85459">
        <ele>55</ele>
        <time>2025-05-13T13:19:17Z</time>
      </trkpt>
      <trkpt lat="47.53713" lon="-2.85455">
        <ele>56</ele>
        <time>2025-05-13T13:19:18Z</time>
      </trkpt>
      <trkpt lat="47.53707" lon="-2.85451">
        <ele>56</ele>
        <time>2025-05-13T13:19:19Z</time>
      </trkpt>
      <trkpt lat="47.53702" lon="-2.85447">
        <ele>56</ele>
        <time>2025-05-13T13:19:20Z</time>
      </trkpt>
      <trkpt lat="47.53696" lon="-2.85443">
        <ele>56</ele>
        <time>2025-05-13T13:19:21Z</time>
      </trkpt>
      <trkpt lat="47.53691" lon="-2.85439">
        <ele>55</ele>
        <time>2025-05-13T13:19:22Z</time>
      </trkpt>
      <trkpt lat="47.53687" lon="-2.85434">
        <ele>55</ele>
        <time>2025-05-13T13:19:23Z</time>
      </trkpt>
      <trkpt lat="47.53682" lon="-2.8543">
        <ele>55</ele>
        <time>2025-05-13T13:19:24Z</time>
      </trkpt>
      <trkpt lat="47.53677" lon="-2.85426">
        <ele>55</ele>
        <time>2025-05-13T13:19:25Z</time>
      </trkpt>
      <trkpt lat="47.53673" lon="-2.85421">
        <ele>56</ele>
        <time>2025-05-13T13:19:26Z</time>
      </trkpt>
      <trkpt lat="47.53668" lon="-2.85417">
        <ele>55</ele>
        <time>2025-05-13T13:19:27Z</time>
      </trkpt>
      <trkpt lat="47.53664" lon="-2.85413">
        <ele>55</ele>
        <time>2025-05-13T13:19:28Z</time>
      </trkpt>
      <trkpt lat="47.53661" lon="-2.85408">
        <ele>55</ele>
        <time>2025-05-13T13:19:29Z</time>
      </trkpt>
      <trkpt lat="47.53657" lon="-2.85404">
        <ele>55</ele>
        <time>2025-05-13T13:19:30Z</time>
      </trkpt>
      <trkpt lat="47.53654" lon="-2.854">
        <ele>56</ele>
        <time>2025-05-13T13:19:31Z</time>
      </trkpt>
      <trkpt lat="47.5365" lon="-2.85397">
        <ele>56</ele>
        <time>2025-05-13T13:19:32Z</time>
      </trkpt>
      <trkpt lat="47.53648" lon="-2.85393">
        <ele>56</ele>
        <time>2025-05-13T13:19:33Z</time>
      </trkpt>
      <trkpt lat="47.53645" lon="-2.85389">
        <ele>56</ele>
        <time>2025-05-13T13:19:34Z</time>
      </trkpt>
      <trkpt lat="47.53642" lon="-2.85386">
        <ele>57</ele>
        <time>2025-05-13T13:19:35Z</time>
      </trkpt>
      <trkpt lat="47.53639" lon="-2.85384">
        <ele>57</ele>
        <time>2025-05-13T13:19:36Z</time>
      </trkpt>
      <trkpt lat="47.53636" lon="-2.85382">
        <ele>57</ele>
        <time>2025-05-13T13:19:37Z</time>
      </trkpt>
      <trkpt lat="47.53633" lon="-2.85382">
        <ele>57</ele>
        <time>2025-05-13T13:19:38Z</time>
      </trkpt>
      <trkpt lat="47.5363" lon="-2.8538">
        <ele>56</ele>
        <time>2025-05-13T13:19:39Z</time>
      </trkpt>
      <trkpt lat="47.53626" lon="-2.85378">
        <ele>56</ele>
        <time>2025-05-13T13:19:40Z</time>
      </trkpt>
      <trkpt lat="47.53623" lon="-2.85375">
        <ele>56</ele>
        <time>2025-05-13T13:19:41Z</time>
      </trkpt>
      <trkpt lat="47.5362" lon="-2.85373">
        <ele>56</ele>
        <time>2025-05-13T13:19:42Z</time>
      </trkpt>
      <trkpt lat="47.53617" lon="-2.85371">
        <ele>56</ele>
        <time>2025-05-13T13:19:43Z</time>
      </trkpt>
      <trkpt lat="47.53615" lon="-2.85369">
        <ele>56</ele>
        <time>2025-05-13T13:19:44Z</time>
      </trkpt>
      <trkpt lat="47.53612" lon="-2.85367">
        <ele>55</ele>
        <time>2025-05-13T13:19:45Z</time>
      </trkpt>
      <trkpt lat="47.53609" lon="-2.85365">
        <ele>55</ele>
        <time>2025-05-13T13:19:46Z</time>
      </trkpt>
      <trkpt lat="47.53607" lon="-2.85363">
        <ele>55</ele>
        <time>2025-05-13T13:19:47Z</time>
      </trkpt>
      <trkpt lat="47.53605" lon="-2.85361">
        <ele>55</ele>
        <time>2025-05-13T13:19:48Z</time>
      </trkpt>
      <trkpt lat="47.53602" lon="-2.85359">
        <ele>56</ele>
        <time>2025-05-13T13:19:49Z</time>
      </trkpt>
      <trkpt lat="47.536" lon="-2.85357">
        <ele>57</ele>
        <time>2025-05-13T13:19:50Z</time>
      </trkpt>
      <trkpt lat="47.53598" lon="-2.85356">
        <ele>57</ele>
        <time>2025-05-13T13:19:51Z</time>
      </trkpt>
      <trkpt lat="47.53596" lon="-2.85355">
        <ele>57</ele>
        <time>2025-05-13T13:19:52Z</time>
      </trkpt>
      <trkpt lat="47.53593" lon="-2.85354">
        <ele>57</ele>
        <time>2025-05-13T13:19:53Z</time>
      </trkpt>
      <trkpt lat="47.53591" lon="-2.85353">
        <ele>57</ele>
        <time>2025-05-13T13:19:54Z</time>
      </trkpt>
      <trkpt lat="47.53589" lon="-2.85351">
        <ele>58</ele>
        <time>2025-05-13T13:19:55Z</time>
      </trkpt>
      <trkpt lat="47.53587" lon="-2.85349">
        <ele>58</ele>
        <time>2025-05-13T13:19:56Z</time>
      </trkpt>
      <trkpt lat="47.53585" lon="-2.85347">
        <ele>58</ele>
        <time>2025-05-13T13:19:57Z</time>
      </trkpt>
      <trkpt lat="47.53582" lon="-2.85346">
        <ele>58</ele>
        <time>2025-05-13T13:19:58Z</time>
      </trkpt>
      <trkpt lat="47.5358" lon="-2.85345">
        <ele>58</ele>
        <time>2025-05-13T13:19:59Z</time>
      </trkpt>
      <trkpt lat="47.53577" lon="-2.85343">
        <ele>59</ele>
        <time>2025-05-13T13:20:00Z</time>
      </trkpt>
      <trkpt lat="47.53575" lon="-2.85341">
        <ele>59</ele>
        <time>2025-05-13T13:20:01Z</time>
      </trkpt>
      <trkpt lat="47.53573" lon="-2.85338">
        <ele>59</ele>
        <time>2025-05-13T13:20:02Z</time>
      </trkpt>
      <trkpt lat="47.53571" lon="-2.85335">
        <ele>60</ele>
        <time>2025-05-13T13:20:03Z</time>
      </trkpt>
      <trkpt lat="47.53569" lon="-2.85332">
        <ele>60</ele>
        <time>2025-05-13T13:20:04Z</time>
      </trkpt>
      <trkpt lat="47.53568" lon="-2.85329">
        <ele>60</ele>
        <time>2025-05-13T13:20:05Z</time>
      </trkpt>
      <trkpt lat="47.53567" lon="-2.85325">
        <ele>60</ele>
        <time>2025-05-13T13:20:06Z</time>
      </trkpt>
      <trkpt lat="47.53567" lon="-2.85321">
        <ele>59</ele>
        <time>2025-05-13T13:20:07Z</time>
      </trkpt>
      <trkpt lat="47.53566" lon="-2.85318">
        <ele>59</ele>
        <time>2025-05-13T13:20:08Z</time>
      </trkpt>
      <trkpt lat="47.53566" lon="-2.85314">
        <ele>59</ele>
        <time>2025-05-13T13:20:09Z</time>
      </trkpt>
      <trkpt lat="47.53565" lon="-2.8531">
        <ele>58</ele>
        <time>2025-05-13T13:20:10Z</time>
      </trkpt>
      <trkpt lat="47.53565" lon="-2.85307">
        <ele>58</ele>
        <time>2025-05-13T13:20:11Z</time>
      </trkpt>
      <trkpt lat="47.53565" lon="-2.85303">
        <ele>58</ele>
        <time>2025-05-13T13:20:12Z</time>
      </trkpt>
      <trkpt lat="47.53565" lon="-2.85299">
        <ele>57</ele>
        <time>2025-05-13T13:20:13Z</time>
      </trkpt>
      <trkpt lat="47.53565" lon="-2.85294">
        <ele>57</ele>
        <time>2025-05-13T13:20:14Z</time>
      </trkpt>
      <trkpt lat="47.53564" lon="-2.8529">
        <ele>57</ele>
        <time>2025-05-13T13:20:15Z</time>
      </trkpt>
      <trkpt lat="47.53564" lon="-2.85286">
        <ele>56</ele>
        <time>2025-05-13T13:20:16Z</time>
      </trkpt>
      <trkpt lat="47.53563" lon="-2.85281">
        <ele>56</ele>
        <time>2025-05-13T13:20:17Z</time>
      </trkpt>
      <trkpt lat="47.53562" lon="-2.85277">
        <ele>56</ele>
        <time>2025-05-13T13:20:18Z</time>
      </trkpt>
      <trkpt lat="47.53561" lon="-2.85272">
        <ele>56</ele>
        <time>2025-05-13T13:20:19Z</time>
      </trkpt>
      <trkpt lat="47.5356" lon="-2.85268">
        <ele>55</ele>
        <time>2025-05-13T13:20:20Z</time>
      </trkpt>
      <trkpt lat="47.5356" lon="-2.85264">
        <ele>54</ele>
        <time>2025-05-13T13:20:21Z</time>
      </trkpt>
      <trkpt lat="47.53559" lon="-2.85261">
        <ele>55</ele>
        <time>2025-05-13T13:20:22Z</time>
      </trkpt>
      <trkpt lat="47.53557" lon="-2.85258">
        <ele>56</ele>
        <time>2025-05-13T13:20:23Z</time>
      </trkpt>
      <trkpt lat="47.53554" lon="-2.85257">
        <ele>56</ele>
        <time>2025-05-13T13:20:24Z</time>
      </trkpt>
      <trkpt lat="47.53551" lon="-2.85258">
        <ele>56</ele>
        <time>2025-05-13T13:20:25Z</time>
      </trkpt>
      <trkpt lat="47.53547" lon="-2.85258">
        <ele>57</ele>
        <time>2025-05-13T13:20:26Z</time>
      </trkpt>
      <trkpt lat="47.53544" lon="-2.85258">
        <ele>57</ele>
        <time>2025-05-13T13:20:27Z</time>
      </trkpt>
      <trkpt lat="47.53541" lon="-2.85259">
        <ele>56</ele>
        <time>2025-05-13T13:20:28Z</time>
      </trkpt>
      <trkpt lat="47.53537" lon="-2.85257">
        <ele>56</ele>
        <time>2025-05-13T13:20:29Z</time>
      </trkpt>
      <trkpt lat="47.53534" lon="-2.85256">
        <ele>56</ele>
        <time>2025-05-13T13:20:30Z</time>
      </trkpt>
      <trkpt lat="47.53531" lon="-2.85256">
        <ele>55</ele>
        <time>2025-05-13T13:20:31Z</time>
      </trkpt>
      <trkpt lat="47.53528" lon="-2.85254">
        <ele>56</ele>
        <time>2025-05-13T13:20:32Z</time>
      </trkpt>
      <trkpt lat="47.53525" lon="-2.85251">
        <ele>56</ele>
        <time>2025-05-13T13:20:33Z</time>
      </trkpt>
      <trkpt lat="47.53522" lon="-2.8525">
        <ele>56</ele>
        <time>2025-05-13T13:20:34Z</time>
      </trkpt>
      <trkpt lat="47.53518" lon="-2.85248">
        <ele>56</ele>
        <time>2025-05-13T13:20:35Z</time>
      </trkpt>
      <trkpt lat="47.53515" lon="-2.85246">
        <ele>56</ele>
        <time>2025-05-13T13:20:36Z</time>
      </trkpt>
      <trkpt lat="47.53512" lon="-2.85243">
        <ele>56</ele>
        <time>2025-05-13T13:20:37Z</time>
      </trkpt>
      <trkpt lat="47.53509" lon="-2.85241">
        <ele>56</ele>
        <time>2025-05-13T13:20:38Z</time>
      </trkpt>
      <trkpt lat="47.53506" lon="-2.85238">
        <ele>56</ele>
        <time>2025-05-13T13:20:39Z</time>
      </trkpt>
      <trkpt lat="47.53503" lon="-2.85237">
        <ele>56</ele>
        <time>2025-05-13T13:20:40Z</time>
      </trkpt>
      <trkpt lat="47.535" lon="-2.85235">
        <ele>56</ele>
        <time>2025-05-13T13:20:41Z</time>
      </trkpt>
      <trkpt lat="47.53497" lon="-2.85234">
        <ele>56</ele>
        <time>2025-05-13T13:20:42Z</time>
      </trkpt>
      <trkpt lat="47.53495" lon="-2.85232">
        <ele>55</ele>
        <time>2025-05-13T13:20:43Z</time>
      </trkpt>
      <trkpt lat="47.53492" lon="-2.85231">
        <ele>55</ele>
        <time>2025-05-13T13:20:44Z</time>
      </trkpt>
      <trkpt lat="47.53489" lon="-2.85229">
        <ele>56</ele>
        <time>2025-05-13T13:20:45Z</time>
      </trkpt>
      <trkpt lat="47.53486" lon="-2.85228">
        <ele>56</ele>
        <time>2025-05-13T13:20:46Z</time>
      </trkpt>
      <trkpt lat="47.53483" lon="-2.85227">
        <ele>56</ele>
        <time>2025-05-13T13:20:47Z</time>
      </trkpt>
      <trkpt lat="47.5348" lon="-2.85226">
        <ele>56</ele>
        <time>2025-05-13T13:20:48Z</time>
      </trkpt>
      <trkpt lat="47.53477" lon="-2.85226">
        <ele>56</ele>
        <time>2025-05-13T13:20:49Z</time>
      </trkpt>
      <trkpt lat="47.53474" lon="-2.85227">
        <ele>56</ele>
        <time>2025-05-13T13:20:50Z</time>
      </trkpt>
      <trkpt lat="47.53472" lon="-2.85229">
        <ele>56</ele>
        <time>2025-05-13T13:20:51Z</time>
      </trkpt>
      <trkpt lat="47.5347" lon="-2.85233">
        <ele>56</ele>
        <time>2025-05-13T13:20:52Z</time>
      </trkpt>
      <trkpt lat="47.53468" lon="-2.85236">
        <ele>56</ele>
        <time>2025-05-13T13:20:53Z</time>
      </trkpt>
      <trkpt lat="47.53466" lon="-2.8524">
        <ele>56</ele>
        <time>2025-05-13T13:20:54Z</time>
      </trkpt>
      <trkpt lat="47.53465" lon="-2.85244">
        <ele>56</ele>
        <time>2025-05-13T13:20:55Z</time>
      </trkpt>
      <trkpt lat="47.53463" lon="-2.85249">
        <ele>55</ele>
        <time>2025-05-13T13:20:56Z</time>
      </trkpt>
      <trkpt lat="47.53462" lon="-2.85253">
        <ele>56</ele>
        <time>2025-05-13T13:20:57Z</time>
      </trkpt>
      <trkpt lat="47.53461" lon="-2.85258">
        <ele>56</ele>
        <time>2025-05-13T13:20:58Z</time>
      </trkpt>
      <trkpt lat="47.5346" lon="-2.85263">
        <ele>56</ele>
        <time>2025-05-13T13:20:59Z</time>
      </trkpt>
      <trkpt lat="47.53458" lon="-2.85268">
        <ele>56</ele>
        <time>2025-05-13T13:21:00Z</time>
      </trkpt>
      <trkpt lat="47.53457" lon="-2.85272">
        <ele>56</ele>
        <time>2025-05-13T13:21:01Z</time>
      </trkpt>
      <trkpt lat="47.53455" lon="-2.85276">
        <ele>56</ele>
        <time>2025-05-13T13:21:02Z</time>
      </trkpt>
      <trkpt lat="47.53454" lon="-2.8528">
        <ele>55</ele>
        <time>2025-05-13T13:21:03Z</time>
      </trkpt>
      <trkpt lat="47.53452" lon="-2.85284">
        <ele>56</ele>
        <time>2025-05-13T13:21:04Z</time>
      </trkpt>
      <trkpt lat="47.5345" lon="-2.85287">
        <ele>56</ele>
        <time>2025-05-13T13:21:05Z</time>
      </trkpt>
      <trkpt lat="47.53447" lon="-2.8529">
        <ele>56</ele>
        <time>2025-05-13T13:21:06Z</time>
      </trkpt>
      <trkpt lat="47.53444" lon="-2.85292">
        <ele>56</ele>
        <time>2025-05-13T13:21:07Z</time>
      </trkpt>
      <trkpt lat="47.53442" lon="-2.85293">
        <ele>55</ele>
        <time>2025-05-13T13:21:08Z</time>
      </trkpt>
      <trkpt lat="47.53439" lon="-2.85294">
        <ele>55</ele>
        <time>2025-05-13T13:21:09Z</time>
      </trkpt>
      <trkpt lat="47.53436" lon="-2.85294">
        <ele>55</ele>
        <time>2025-05-13T13:21:10Z</time>
      </trkpt>
      <trkpt lat="47.53433" lon="-2.85293">
        <ele>55</ele>
        <time>2025-05-13T13:21:11Z</time>
      </trkpt>
      <trkpt lat="47.5343" lon="-2.85294">
        <ele>55</ele>
        <time>2025-05-13T13:21:12Z</time>
      </trkpt>
      <trkpt lat="47.53427" lon="-2.85294">
        <ele>54</ele>
        <time>2025-05-13T13:21:13Z</time>
      </trkpt>
      <trkpt lat="47.53425" lon="-2.85295">
        <ele>55</ele>
        <time>2025-05-13T13:21:14Z</time>
      </trkpt>
      <trkpt lat="47.53424" lon="-2.85294">
        <ele>54</ele>
        <time>2025-05-13T13:21:15Z</time>
      </trkpt>
      <trkpt lat="47.53423" lon="-2.85294">
        <ele>54</ele>
        <time>2025-05-13T13:21:16Z</time>
      </trkpt>
      <trkpt lat="47.53422" lon="-2.85294">
        <ele>55</ele>
        <time>2025-05-13T13:21:17Z</time>
      </trkpt>
      <trkpt lat="47.53421" lon="-2.85294">
        <ele>55</ele>
        <time>2025-05-13T13:21:18Z</time>
      </trkpt>
      <trkpt lat="47.53419" lon="-2.85294">
        <ele>55</ele>
        <time>2025-05-13T13:21:19Z</time>
      </trkpt>
      <trkpt lat="47.53418" lon="-2.85293">
        <ele>56</ele>
        <time>2025-05-13T13:21:20Z</time>
      </trkpt>
      <trkpt lat="47.53417" lon="-2.85292">
        <ele>56</ele>
        <time>2025-05-13T13:21:21Z</time>
      </trkpt>
      <trkpt lat="47.53417" lon="-2.85291">
        <ele>56</ele>
        <time>2025-05-13T13:21:22Z</time>
      </trkpt>
      <trkpt lat="47.53417" lon="-2.8529">
        <ele>56</ele>
        <time>2025-05-13T13:21:23Z</time>
      </trkpt>
      <trkpt lat="47.53417" lon="-2.8529">
        <ele>56</ele>
        <time>2025-05-13T13:21:24Z</time>
      </trkpt>
      <trkpt lat="47.53417" lon="-2.8529">
        <ele>56</ele>
        <time>2025-05-13T13:21:25Z</time>
      </trkpt>
      <trkpt lat="47.53416" lon="-2.8529">
        <ele>56</ele>
        <time>2025-05-13T13:21:26Z</time>
      </trkpt>
      <trkpt lat="47.53416" lon="-2.8529">
        <ele>57</ele>
        <time>2025-05-13T13:21:27Z</time>
      </trkpt>
      <trkpt lat="47.53417" lon="-2.8529">
        <ele>57</ele>
        <time>2025-05-13T13:21:28Z</time>
      </trkpt>
      <trkpt lat="47.53417" lon="-2.8529">
        <ele>57</ele>
        <time>2025-05-13T13:21:29Z</time>
      </trkpt>
      <trkpt lat="47.53417" lon="-2.8529">
        <ele>57</ele>
        <time>2025-05-13T13:21:30Z</time>
      </trkpt>
      <trkpt lat="47.53417" lon="-2.8529">
        <ele>58</ele>
        <time>2025-05-13T13:21:31Z</time>
      </trkpt>
      <trkpt lat="47.53417" lon="-2.8529">
        <ele>58</ele>
        <time>2025-05-13T13:21:32Z</time>
      </trkpt>
      <trkpt lat="47.53417" lon="-2.8529">
        <ele>58</ele>
        <time>2025-05-13T13:21:33Z</time>
      </trkpt>
      <trkpt lat="47.53417" lon="-2.8529">
        <ele>58</ele>
        <time>2025-05-13T13:21:34Z</time>
      </trkpt>
      <trkpt lat="47.53417" lon="-2.8529">
        <ele>58</ele>
        <time>2025-05-13T13:21:35Z</time>
      </trkpt>
      <trkpt lat="47.53417" lon="-2.8529">
        <ele>58</ele>
        <time>2025-05-13T13:21:36Z</time>
      </trkpt>
      <trkpt lat="47.53417" lon="-2.8529">
        <ele>58</ele>
        <time>2025-05-13T13:21:37Z</time>
      </trkpt>
      <trkpt lat="47.53417" lon="-2.8529">
        <ele>58</ele>
        <time>2025-05-13T13:21:38Z</time>
      </trkpt>
      <trkpt lat="47.53417" lon="-2.8529">
        <ele>58</ele>
        <time>2025-05-13T13:21:39Z</time>
      </trkpt>
      <trkpt lat="47.53417" lon="-2.8529">
        <ele>58</ele>
        <time>2025-05-13T13:21:40Z</time>
      </trkpt>
      <trkpt lat="47.53417" lon="-2.8529">
        <ele>58</ele>
        <time>2025-05-13T13:21:41Z</time>
      </trkpt>
      <trkpt lat="47.53417" lon="-2.8529">
        <ele>58</ele>
        <time>2025-05-13T13:21:42Z</time>
      </trkpt>
      <trkpt lat="47.53417" lon="-2.8529">
        <ele>58</ele>
        <time>2025-05-13T13:21:43Z</time>
      </trkpt>
      <trkpt lat="47.53417" lon="-2.85287">
        <ele>59</ele>
        <time>2025-05-13T13:21:44Z</time>
      </trkpt>
      <trkpt lat="47.53417" lon="-2.85284">
        <ele>59</ele>
        <time>2025-05-13T13:21:45Z</time>
      </trkpt>
      <trkpt lat="47.53416" lon="-2.85282">
        <ele>59</ele>
        <time>2025-05-13T13:21:46Z</time>
      </trkpt>
      <trkpt lat="47.53416" lon="-2.85279">
        <ele>59</ele>
        <time>2025-05-13T13:21:47Z</time>
      </trkpt>
      <trkpt lat="47.53414" lon="-2.85277">
        <ele>58</ele>
        <time>2025-05-13T13:21:48Z</time>
      </trkpt>
      <trkpt lat="47.53413" lon="-2.85274">
        <ele>58</ele>
        <time>2025-05-13T13:21:49Z</time>
      </trkpt>
      <trkpt lat="47.53412" lon="-2.8527">
        <ele>58</ele>
        <time>2025-05-13T13:21:50Z</time>
      </trkpt>
      <trkpt lat="47.53411" lon="-2.85267">
        <ele>58</ele>
        <time>2025-05-13T13:21:51Z</time>
      </trkpt>
      <trkpt lat="47.5341" lon="-2.85263">
        <ele>58</ele>
        <time>2025-05-13T13:21:52Z</time>
      </trkpt>
      <trkpt lat="47.53409" lon="-2.85259">
        <ele>58</ele>
        <time>2025-05-13T13:21:53Z</time>
      </trkpt>
      <trkpt lat="47.53408" lon="-2.85256">
        <ele>58</ele>
        <time>2025-05-13T13:21:54Z</time>
      </trkpt>
      <trkpt lat="47.53406" lon="-2.85252">
        <ele>58</ele>
        <time>2025-05-13T13:21:55Z</time>
      </trkpt>
      <trkpt lat="47.53405" lon="-2.85249">
        <ele>58</ele>
        <time>2025-05-13T13:21:56Z</time>
      </trkpt>
      <trkpt lat="47.53403" lon="-2.85245">
        <ele>58</ele>
        <time>2025-05-13T13:21:57Z</time>
      </trkpt>
      <trkpt lat="47.53401" lon="-2.85241">
        <ele>58</ele>
        <time>2025-05-13T13:21:58Z</time>
      </trkpt>
      <trkpt lat="47.534" lon="-2.85237">
        <ele>59</ele>
        <time>2025-05-13T13:21:59Z</time>
      </trkpt>
      <trkpt lat="47.53398" lon="-2.85233">
        <ele>59</ele>
        <time>2025-05-13T13:22:00Z</time>
      </trkpt>
      <trkpt lat="47.53397" lon="-2.85229">
        <ele>58</ele>
        <time>2025-05-13T13:22:01Z</time>
      </trkpt>
      <trkpt lat="47.53395" lon="-2.85225">
        <ele>59</ele>
        <time>2025-05-13T13:22:02Z</time>
      </trkpt>
      <trkpt lat="47.53393" lon="-2.8522">
        <ele>58</ele>
        <time>2025-05-13T13:22:03Z</time>
      </trkpt>
      <trkpt lat="47.53392" lon="-2.85215">
        <ele>58</ele>
        <time>2025-05-13T13:22:04Z</time>
      </trkpt>
      <trkpt lat="47.53391" lon="-2.8521">
        <ele>57</ele>
        <time>2025-05-13T13:22:05Z</time>
      </trkpt>
      <trkpt lat="47.53389" lon="-2.85206">
        <ele>57</ele>
        <time>2025-05-13T13:22:06Z</time>
      </trkpt>
      <trkpt lat="47.53388" lon="-2.85201">
        <ele>57</ele>
        <time>2025-05-13T13:22:07Z</time>
      </trkpt>
      <trkpt lat="47.53387" lon="-2.85197">
        <ele>57</ele>
        <time>2025-05-13T13:22:08Z</time>
      </trkpt>
      <trkpt lat="47.53386" lon="-2.85193">
        <ele>58</ele>
        <time>2025-05-13T13:22:09Z</time>
      </trkpt>
      <trkpt lat="47.53385" lon="-2.85188">
        <ele>58</ele>
        <time>2025-05-13T13:22:10Z</time>
      </trkpt>
      <trkpt lat="47.53384" lon="-2.85183">
        <ele>58</ele>
        <time>2025-05-13T13:22:11Z</time>
      </trkpt>
      <trkpt lat="47.53383" lon="-2.85179">
        <ele>58</ele>
        <time>2025-05-13T13:22:12Z</time>
      </trkpt>
      <trkpt lat="47.53381" lon="-2.85175">
        <ele>58</ele>
        <time>2025-05-13T13:22:13Z</time>
      </trkpt>
      <trkpt lat="47.53379" lon="-2.85171">
        <ele>58</ele>
        <time>2025-05-13T13:22:14Z</time>
      </trkpt>
      <trkpt lat="47.53376" lon="-2.85167">
        <ele>57</ele>
        <time>2025-05-13T13:22:15Z</time>
      </trkpt>
      <trkpt lat="47.53374" lon="-2.85163">
        <ele>58</ele>
        <time>2025-05-13T13:22:16Z</time>
      </trkpt>
      <trkpt lat="47.53372" lon="-2.85158">
        <ele>58</ele>
        <time>2025-05-13T13:22:17Z</time>
      </trkpt>
      <trkpt lat="47.53371" lon="-2.85154">
        <ele>58</ele>
        <time>2025-05-13T13:22:18Z</time>
      </trkpt>
      <trkpt lat="47.53369" lon="-2.8515">
        <ele>58</ele>
        <time>2025-05-13T13:22:19Z</time>
      </trkpt>
      <trkpt lat="47.53367" lon="-2.85147">
        <ele>58</ele>
        <time>2025-05-13T13:22:20Z</time>
      </trkpt>
      <trkpt lat="47.53365" lon="-2.85144">
        <ele>58</ele>
        <time>2025-05-13T13:22:21Z</time>
      </trkpt>
      <trkpt lat="47.53363" lon="-2.85141">
        <ele>58</ele>
        <time>2025-05-13T13:22:22Z</time>
      </trkpt>
      <trkpt lat="47.5336" lon="-2.85139">
        <ele>58</ele>
        <time>2025-05-13T13:22:23Z</time>
      </trkpt>
      <trkpt lat="47.53357" lon="-2.85136">
        <ele>58</ele>
        <time>2025-05-13T13:22:24Z</time>
      </trkpt>
      <trkpt lat="47.53354" lon="-2.85134">
        <ele>59</ele>
        <time>2025-05-13T13:22:25Z</time>
      </trkpt>
      <trkpt lat="47.53351" lon="-2.85131">
        <ele>59</ele>
        <time>2025-05-13T13:22:26Z</time>
      </trkpt>
      <trkpt lat="47.53347" lon="-2.85129">
        <ele>59</ele>
        <time>2025-05-13T13:22:27Z</time>
      </trkpt>
      <trkpt lat="47.53344" lon="-2.85125">
        <ele>59</ele>
        <time>2025-05-13T13:22:28Z</time>
      </trkpt>
      <trkpt lat="47.53341" lon="-2.85122">
        <ele>59</ele>
        <time>2025-05-13T13:22:29Z</time>
      </trkpt>
      <trkpt lat="47.53338" lon="-2.85119">
        <ele>59</ele>
        <time>2025-05-13T13:22:30Z</time>
      </trkpt>
      <trkpt lat="47.53335" lon="-2.85116">
        <ele>59</ele>
        <time>2025-05-13T13:22:31Z</time>
      </trkpt>
      <trkpt lat="47.53332" lon="-2.85113">
        <ele>59</ele>
        <time>2025-05-13T13:22:32Z</time>
      </trkpt>
      <trkpt lat="47.5333" lon="-2.85109">
        <ele>59</ele>
        <time>2025-05-13T13:22:33Z</time>
      </trkpt>
      <trkpt lat="47.53327" lon="-2.85105">
        <ele>59</ele>
        <time>2025-05-13T13:22:34Z</time>
      </trkpt>
      <trkpt lat="47.53325" lon="-2.85101">
        <ele>59</ele>
        <time>2025-05-13T13:22:35Z</time>
      </trkpt>
      <trkpt lat="47.53323" lon="-2.85097">
        <ele>59</ele>
        <time>2025-05-13T13:22:36Z</time>
      </trkpt>
      <trkpt lat="47.53321" lon="-2.85094">
        <ele>58</ele>
        <time>2025-05-13T13:22:37Z</time>
      </trkpt>
      <trkpt lat="47.53319" lon="-2.8509">
        <ele>59</ele>
        <time>2025-05-13T13:22:38Z</time>
      </trkpt>
      <trkpt lat="47.53317" lon="-2.85085">
        <ele>59</ele>
        <time>2025-05-13T13:22:39Z</time>
      </trkpt>
      <trkpt lat="47.53316" lon="-2.85081">
        <ele>59</ele>
        <time>2025-05-13T13:22:40Z</time>
      </trkpt>
      <trkpt lat="47.53314" lon="-2.85077">
        <ele>59</ele>
        <time>2025-05-13T13:22:41Z</time>
      </trkpt>
      <trkpt lat="47.53312" lon="-2.85072">
        <ele>59</ele>
        <time>2025-05-13T13:22:42Z</time>
      </trkpt>
      <trkpt lat="47.53311" lon="-2.85067">
        <ele>59</ele>
        <time>2025-05-13T13:22:43Z</time>
      </trkpt>
      <trkpt lat="47.5331" lon="-2.85063">
        <ele>59</ele>
        <time>2025-05-13T13:22:44Z</time>
      </trkpt>
      <trkpt lat="47.53309" lon="-2.85059">
        <ele>59</ele>
        <time>2025-05-13T13:22:45Z</time>
      </trkpt>
      <trkpt lat="47.53307" lon="-2.85055">
        <ele>59</ele>
        <time>2025-05-13T13:22:46Z</time>
      </trkpt>
      <trkpt lat="47.53306" lon="-2.8505">
        <ele>59</ele>
        <time>2025-05-13T13:22:47Z</time>
      </trkpt>
      <trkpt lat="47.53305" lon="-2.85046">
        <ele>60</ele>
        <time>2025-05-13T13:22:48Z</time>
      </trkpt>
      <trkpt lat="47.53304" lon="-2.85042">
        <ele>60</ele>
        <time>2025-05-13T13:22:49Z</time>
      </trkpt>
      <trkpt lat="47.53302" lon="-2.85037">
        <ele>60</ele>
        <time>2025-05-13T13:22:50Z</time>
      </trkpt>
      <trkpt lat="47.53301" lon="-2.85033">
        <ele>61</ele>
        <time>2025-05-13T13:22:51Z</time>
      </trkpt>
      <trkpt lat="47.533" lon="-2.85029">
        <ele>61</ele>
        <time>2025-05-13T13:22:52Z</time>
      </trkpt>
      <trkpt lat="47.53299" lon="-2.85026">
        <ele>61</ele>
        <time>2025-05-13T13:22:53Z</time>
      </trkpt>
      <trkpt lat="47.53297" lon="-2.85023">
        <ele>61</ele>
        <time>2025-05-13T13:22:54Z</time>
      </trkpt>
      <trkpt lat="47.53296" lon="-2.85019">
        <ele>60</ele>
        <time>2025-05-13T13:22:55Z</time>
      </trkpt>
      <trkpt lat="47.53294" lon="-2.85016">
        <ele>60</ele>
        <time>2025-05-13T13:22:56Z</time>
      </trkpt>
      <trkpt lat="47.53291" lon="-2.85013">
        <ele>59</ele>
        <time>2025-05-13T13:22:57Z</time>
      </trkpt>
      <trkpt lat="47.53288" lon="-2.85012">
        <ele>59</ele>
        <time>2025-05-13T13:22:58Z</time>
      </trkpt>
      <trkpt lat="47.53285" lon="-2.85011">
        <ele>59</ele>
        <time>2025-05-13T13:22:59Z</time>
      </trkpt>
      <trkpt lat="47.53282" lon="-2.85011">
        <ele>59</ele>
        <time>2025-05-13T13:23:00Z</time>
      </trkpt>
      <trkpt lat="47.53279" lon="-2.8501">
        <ele>58</ele>
        <time>2025-05-13T13:23:01Z</time>
      </trkpt>
      <trkpt lat="47.53275" lon="-2.8501">
        <ele>58</ele>
        <time>2025-05-13T13:23:02Z</time>
      </trkpt>
      <trkpt lat="47.53271" lon="-2.8501">
        <ele>58</ele>
        <time>2025-05-13T13:23:03Z</time>
      </trkpt>
      <trkpt lat="47.53268" lon="-2.85012">
        <ele>58</ele>
        <time>2025-05-13T13:23:04Z</time>
      </trkpt>
      <trkpt lat="47.53265" lon="-2.85015">
        <ele>59</ele>
        <time>2025-05-13T13:23:05Z</time>
      </trkpt>
      <trkpt lat="47.53262" lon="-2.85017">
        <ele>59</ele>
        <time>2025-05-13T13:23:06Z</time>
      </trkpt>
      <trkpt lat="47.5326" lon="-2.8502">
        <ele>58</ele>
        <time>2025-05-13T13:23:07Z</time>
      </trkpt>
      <trkpt lat="47.53257" lon="-2.85022">
        <ele>58</ele>
        <time>2025-05-13T13:23:08Z</time>
      </trkpt>
      <trkpt lat="47.53254" lon="-2.85025">
        <ele>58</ele>
        <time>2025-05-13T13:23:09Z</time>
      </trkpt>
      <trkpt lat="47.53252" lon="-2.85026">
        <ele>58</ele>
        <time>2025-05-13T13:23:10Z</time>
      </trkpt>
      <trkpt lat="47.53249" lon="-2.85026">
        <ele>58</ele>
        <time>2025-05-13T13:23:11Z</time>
      </trkpt>
      <trkpt lat="47.53247" lon="-2.85025">
        <ele>59</ele>
        <time>2025-05-13T13:23:12Z</time>
      </trkpt>
      <trkpt lat="47.53245" lon="-2.85024">
        <ele>58</ele>
        <time>2025-05-13T13:23:13Z</time>
      </trkpt>
      <trkpt lat="47.53244" lon="-2.85021">
        <ele>58</ele>
        <time>2025-05-13T13:23:14Z</time>
      </trkpt>
      <trkpt lat="47.53244" lon="-2.85018">
        <ele>58</ele>
        <time>2025-05-13T13:23:15Z</time>
      </trkpt>
      <trkpt lat="47.53243" lon="-2.85014">
        <ele>58</ele>
        <time>2025-05-13T13:23:16Z</time>
      </trkpt>
      <trkpt lat="47.53243" lon="-2.85011">
        <ele>58</ele>
        <time>2025-05-13T13:23:17Z</time>
      </trkpt>
      <trkpt lat="47.53242" lon="-2.85007">
        <ele>58</ele>
        <time>2025-05-13T13:23:18Z</time>
      </trkpt>
      <trkpt lat="47.53241" lon="-2.85003">
        <ele>58</ele>
        <time>2025-05-13T13:23:19Z</time>
      </trkpt>
      <trkpt lat="47.53241" lon="-2.85">
        <ele>58</ele>
        <time>2025-05-13T13:23:20Z</time>
      </trkpt>
      <trkpt lat="47.5324" lon="-2.84996">
        <ele>59</ele>
        <time>2025-05-13T13:23:21Z</time>
      </trkpt>
      <trkpt lat="47.53239" lon="-2.84993">
        <ele>59</ele>
        <time>2025-05-13T13:23:22Z</time>
      </trkpt>
      <trkpt lat="47.53238" lon="-2.84989">
        <ele>59</ele>
        <time>2025-05-13T13:23:23Z</time>
      </trkpt>
      <trkpt lat="47.53238" lon="-2.84986">
        <ele>59</ele>
        <time>2025-05-13T13:23:24Z</time>
      </trkpt>
      <trkpt lat="47.53238" lon="-2.84982">
        <ele>59</ele>
        <time>2025-05-13T13:23:25Z</time>
      </trkpt>
      <trkpt lat="47.53238" lon="-2.84979">
        <ele>60</ele>
        <time>2025-05-13T13:23:26Z</time>
      </trkpt>
      <trkpt lat="47.53237" lon="-2.84975">
        <ele>60</ele>
        <time>2025-05-13T13:23:27Z</time>
      </trkpt>
      <trkpt lat="47.53237" lon="-2.84971">
        <ele>60</ele>
        <time>2025-05-13T13:23:28Z</time>
      </trkpt>
      <trkpt lat="47.53237" lon="-2.84968">
        <ele>60</ele>
        <time>2025-05-13T13:23:29Z</time>
      </trkpt>
      <trkpt lat="47.53236" lon="-2.84965">
        <ele>60</ele>
        <time>2025-05-13T13:23:30Z</time>
      </trkpt>
      <trkpt lat="47.53236" lon="-2.84961">
        <ele>61</ele>
        <time>2025-05-13T13:23:31Z</time>
      </trkpt>
      <trkpt lat="47.53235" lon="-2.84957">
        <ele>61</ele>
        <time>2025-05-13T13:23:32Z</time>
      </trkpt>
      <trkpt lat="47.53234" lon="-2.84954">
        <ele>61</ele>
        <time>2025-05-13T13:23:33Z</time>
      </trkpt>
      <trkpt lat="47.53233" lon="-2.8495">
        <ele>61</ele>
        <time>2025-05-13T13:23:34Z</time>
      </trkpt>
      <trkpt lat="47.53233" lon="-2.84946">
        <ele>60</ele>
        <time>2025-05-13T13:23:35Z</time>
      </trkpt>
      <trkpt lat="47.53233" lon="-2.84942">
        <ele>60</ele>
        <time>2025-05-13T13:23:36Z</time>
      </trkpt>
      <trkpt lat="47.53232" lon="-2.84938">
        <ele>60</ele>
        <time>2025-05-13T13:23:37Z</time>
      </trkpt>
      <trkpt lat="47.53232" lon="-2.84934">
        <ele>61</ele>
        <time>2025-05-13T13:23:38Z</time>
      </trkpt>
      <trkpt lat="47.53231" lon="-2.8493">
        <ele>61</ele>
        <time>2025-05-13T13:23:39Z</time>
      </trkpt>
      <trkpt lat="47.53231" lon="-2.84926">
        <ele>61</ele>
        <time>2025-05-13T13:23:40Z</time>
      </trkpt>
      <trkpt lat="47.5323" lon="-2.84923">
        <ele>61</ele>
        <time>2025-05-13T13:23:41Z</time>
      </trkpt>
      <trkpt lat="47.5323" lon="-2.84919">
        <ele>61</ele>
        <time>2025-05-13T13:23:42Z</time>
      </trkpt>
      <trkpt lat="47.53229" lon="-2.84915">
        <ele>61</ele>
        <time>2025-05-13T13:23:43Z</time>
      </trkpt>
      <trkpt lat="47.53229" lon="-2.84912">
        <ele>61</ele>
        <time>2025-05-13T13:23:44Z</time>
      </trkpt>
      <trkpt lat="47.53228" lon="-2.84908">
        <ele>61</ele>
        <time>2025-05-13T13:23:45Z</time>
      </trkpt>
      <trkpt lat="47.53228" lon="-2.84905">
        <ele>61</ele>
        <time>2025-05-13T13:23:46Z</time>
      </trkpt>
      <trkpt lat="47.53227" lon="-2.84901">
        <ele>61</ele>
        <time>2025-05-13T13:23:47Z</time>
      </trkpt>
      <trkpt lat="47.53227" lon="-2.84897">
        <ele>61</ele>
        <time>2025-05-13T13:23:48Z</time>
      </trkpt>
      <trkpt lat="47.53226" lon="-2.84893">
        <ele>61</ele>
        <time>2025-05-13T13:23:49Z</time>
      </trkpt>
      <trkpt lat="47.53226" lon="-2.8489">
        <ele>62</ele>
        <time>2025-05-13T13:23:50Z</time>
      </trkpt>
      <trkpt lat="47.53225" lon="-2.84886">
        <ele>62</ele>
        <time>2025-05-13T13:23:51Z</time>
      </trkpt>
      <trkpt lat="47.53225" lon="-2.84882">
        <ele>61</ele>
        <time>2025-05-13T13:23:52Z</time>
      </trkpt>
      <trkpt lat="47.53224" lon="-2.84878">
        <ele>62</ele>
        <time>2025-05-13T13:23:53Z</time>
      </trkpt>
      <trkpt lat="47.53224" lon="-2.84875">
        <ele>62</ele>
        <time>2025-05-13T13:23:54Z</time>
      </trkpt>
      <trkpt lat="47.53223" lon="-2.84871">
        <ele>62</ele>
        <time>2025-05-13T13:23:55Z</time>
      </trkpt>
      <trkpt lat="47.53223" lon="-2.84867">
        <ele>62</ele>
        <time>2025-05-13T13:23:56Z</time>
      </trkpt>
      <trkpt lat="47.53222" lon="-2.84863">
        <ele>62</ele>
        <time>2025-05-13T13:23:57Z</time>
      </trkpt>
      <trkpt lat="47.53221" lon="-2.8486">
        <ele>62</ele>
        <time>2025-05-13T13:23:58Z</time>
      </trkpt>
      <trkpt lat="47.53221" lon="-2.84856">
        <ele>62</ele>
        <time>2025-05-13T13:23:59Z</time>
      </trkpt>
      <trkpt lat="47.5322" lon="-2.84853">
        <ele>62</ele>
        <time>2025-05-13T13:24:00Z</time>
      </trkpt>
      <trkpt lat="47.5322" lon="-2.84849">
        <ele>62</ele>
        <time>2025-05-13T13:24:01Z</time>
      </trkpt>
      <trkpt lat="47.53219" lon="-2.84845">
        <ele>62</ele>
        <time>2025-05-13T13:24:02Z</time>
      </trkpt>
      <trkpt lat="47.53218" lon="-2.84841">
        <ele>62</ele>
        <time>2025-05-13T13:24:03Z</time>
      </trkpt>
      <trkpt lat="47.53218" lon="-2.84837">
        <ele>62</ele>
        <time>2025-05-13T13:24:04Z</time>
      </trkpt>
      <trkpt lat="47.53217" lon="-2.84833">
        <ele>62</ele>
        <time>2025-05-13T13:24:05Z</time>
      </trkpt>
      <trkpt lat="47.53217" lon="-2.84829">
        <ele>62</ele>
        <time>2025-05-13T13:24:06Z</time>
      </trkpt>
      <trkpt lat="47.53216" lon="-2.84825">
        <ele>62</ele>
        <time>2025-05-13T13:24:07Z</time>
      </trkpt>
      <trkpt lat="47.53215" lon="-2.84821">
        <ele>62</ele>
        <time>2025-05-13T13:24:08Z</time>
      </trkpt>
      <trkpt lat="47.53215" lon="-2.84817">
        <ele>62</ele>
        <time>2025-05-13T13:24:09Z</time>
      </trkpt>
      <trkpt lat="47.53214" lon="-2.84813">
        <ele>62</ele>
        <time>2025-05-13T13:24:10Z</time>
      </trkpt>
      <trkpt lat="47.53214" lon="-2.84809">
        <ele>63</ele>
        <time>2025-05-13T13:24:11Z</time>
      </trkpt>
      <trkpt lat="47.53214" lon="-2.84806">
        <ele>63</ele>
        <time>2025-05-13T13:24:12Z</time>
      </trkpt>
      <trkpt lat="47.53213" lon="-2.84802">
        <ele>63</ele>
        <time>2025-05-13T13:24:13Z</time>
      </trkpt>
      <trkpt lat="47.53213" lon="-2.84798">
        <ele>63</ele>
        <time>2025-05-13T13:24:14Z</time>
      </trkpt>
      <trkpt lat="47.53212" lon="-2.84794">
        <ele>64</ele>
        <time>2025-05-13T13:24:15Z</time>
      </trkpt>
      <trkpt lat="47.53212" lon="-2.8479">
        <ele>64</ele>
        <time>2025-05-13T13:24:16Z</time>
      </trkpt>
      <trkpt lat="47.53211" lon="-2.84786">
        <ele>63</ele>
        <time>2025-05-13T13:24:17Z</time>
      </trkpt>
      <trkpt lat="47.53211" lon="-2.84783">
        <ele>63</ele>
        <time>2025-05-13T13:24:18Z</time>
      </trkpt>
      <trkpt lat="47.5321" lon="-2.84779">
        <ele>63</ele>
        <time>2025-05-13T13:24:19Z</time>
      </trkpt>
      <trkpt lat="47.5321" lon="-2.84776">
        <ele>64</ele>
        <time>2025-05-13T13:24:20Z</time>
      </trkpt>
      <trkpt lat="47.53209" lon="-2.84772">
        <ele>63</ele>
        <time>2025-05-13T13:24:21Z</time>
      </trkpt>
      <trkpt lat="47.53208" lon="-2.84768">
        <ele>63</ele>
        <time>2025-05-13T13:24:22Z</time>
      </trkpt>
      <trkpt lat="47.53208" lon="-2.84764">
        <ele>64</ele>
        <time>2025-05-13T13:24:23Z</time>
      </trkpt>
      <trkpt lat="47.53207" lon="-2.8476">
        <ele>64</ele>
        <time>2025-05-13T13:24:24Z</time>
      </trkpt>
      <trkpt lat="47.53206" lon="-2.84757">
        <ele>64</ele>
        <time>2025-05-13T13:24:25Z</time>
      </trkpt>
      <trkpt lat="47.53205" lon="-2.84753">
        <ele>64</ele>
        <time>2025-05-13T13:24:26Z</time>
      </trkpt>
      <trkpt lat="47.53205" lon="-2.84749">
        <ele>64</ele>
        <time>2025-05-13T13:24:27Z</time>
      </trkpt>
      <trkpt lat="47.53205" lon="-2.84745">
        <ele>64</ele>
        <time>2025-05-13T13:24:28Z</time>
      </trkpt>
      <trkpt lat="47.53204" lon="-2.84741">
        <ele>64</ele>
        <time>2025-05-13T13:24:29Z</time>
      </trkpt>
      <trkpt lat="47.53204" lon="-2.84737">
        <ele>64</ele>
        <time>2025-05-13T13:24:30Z</time>
      </trkpt>
      <trkpt lat="47.53204" lon="-2.84733">
        <ele>64</ele>
        <time>2025-05-13T13:24:31Z</time>
      </trkpt>
      <trkpt lat="47.53204" lon="-2.8473">
        <ele>64</ele>
        <time>2025-05-13T13:24:32Z</time>
      </trkpt>
      <trkpt lat="47.53204" lon="-2.84726">
        <ele>64</ele>
        <time>2025-05-13T13:24:33Z</time>
      </trkpt>
      <trkpt lat="47.53203" lon="-2.84723">
        <ele>64</ele>
        <time>2025-05-13T13:24:34Z</time>
      </trkpt>
      <trkpt lat="47.53203" lon="-2.8472">
        <ele>63</ele>
        <time>2025-05-13T13:24:35Z</time>
      </trkpt>
      <trkpt lat="47.53202" lon="-2.84716">
        <ele>63</ele>
        <time>2025-05-13T13:24:36Z</time>
      </trkpt>
      <trkpt lat="47.53202" lon="-2.84713">
        <ele>63</ele>
        <time>2025-05-13T13:24:37Z</time>
      </trkpt>
      <trkpt lat="47.53201" lon="-2.84709">
        <ele>63</ele>
        <time>2025-05-13T13:24:38Z</time>
      </trkpt>
      <trkpt lat="47.53201" lon="-2.84706">
        <ele>64</ele>
        <time>2025-05-13T13:24:39Z</time>
      </trkpt>
      <trkpt lat="47.532" lon="-2.84703">
        <ele>63</ele>
        <time>2025-05-13T13:24:40Z</time>
      </trkpt>
      <trkpt lat="47.532" lon="-2.84699">
        <ele>63</ele>
        <time>2025-05-13T13:24:41Z</time>
      </trkpt>
      <trkpt lat="47.53199" lon="-2.84695">
        <ele>64</ele>
        <time>2025-05-13T13:24:42Z</time>
      </trkpt>
      <trkpt lat="47.53199" lon="-2.84692">
        <ele>64</ele>
        <time>2025-05-13T13:24:43Z</time>
      </trkpt>
      <trkpt lat="47.53199" lon="-2.84688">
        <ele>64</ele>
        <time>2025-05-13T13:24:44Z</time>
      </trkpt>
      <trkpt lat="47.53198" lon="-2.84685">
        <ele>64</ele>
        <time>2025-05-13T13:24:45Z</time>
      </trkpt>
      <trkpt lat="47.53197" lon="-2.84682">
        <ele>64</ele>
        <time>2025-05-13T13:24:46Z</time>
      </trkpt>
      <trkpt lat="47.53197" lon="-2.84678">
        <ele>64</ele>
        <time>2025-05-13T13:24:47Z</time>
      </trkpt>
      <trkpt lat="47.53197" lon="-2.84674">
        <ele>63</ele>
        <time>2025-05-13T13:24:48Z</time>
      </trkpt>
      <trkpt lat="47.53196" lon="-2.8467">
        <ele>64</ele>
        <time>2025-05-13T13:24:49Z</time>
      </trkpt>
      <trkpt lat="47.53195" lon="-2.84666">
        <ele>64</ele>
        <time>2025-05-13T13:24:50Z</time>
      </trkpt>
      <trkpt lat="47.53195" lon="-2.84661">
        <ele>64</ele>
        <time>2025-05-13T13:24:51Z</time>
      </trkpt>
      <trkpt lat="47.53194" lon="-2.84657">
        <ele>64</ele>
        <time>2025-05-13T13:24:52Z</time>
      </trkpt>
      <trkpt lat="47.53193" lon="-2.84652">
        <ele>64</ele>
        <time>2025-05-13T13:24:53Z</time>
      </trkpt>
      <trkpt lat="47.53193" lon="-2.84648">
        <ele>64</ele>
        <time>2025-05-13T13:24:54Z</time>
      </trkpt>
      <trkpt lat="47.53192" lon="-2.84643">
        <ele>64</ele>
        <time>2025-05-13T13:24:55Z</time>
      </trkpt>
      <trkpt lat="47.53192" lon="-2.84638">
        <ele>64</ele>
        <time>2025-05-13T13:24:56Z</time>
      </trkpt>
      <trkpt lat="47.53191" lon="-2.84634">
        <ele>64</ele>
        <time>2025-05-13T13:24:57Z</time>
      </trkpt>
      <trkpt lat="47.5319" lon="-2.84629">
        <ele>64</ele>
        <time>2025-05-13T13:24:58Z</time>
      </trkpt>
      <trkpt lat="47.5319" lon="-2.84624">
        <ele>64</ele>
        <time>2025-05-13T13:24:59Z</time>
      </trkpt>
      <trkpt lat="47.53189" lon="-2.8462">
        <ele>64</ele>
        <time>2025-05-13T13:25:00Z</time>
      </trkpt>
      <trkpt lat="47.53188" lon="-2.84616">
        <ele>64</ele>
        <time>2025-05-13T13:25:01Z</time>
      </trkpt>
      <trkpt lat="47.53188" lon="-2.84611">
        <ele>64</ele>
        <time>2025-05-13T13:25:02Z</time>
      </trkpt>
      <trkpt lat="47.53187" lon="-2.84607">
        <ele>65</ele>
        <time>2025-05-13T13:25:03Z</time>
      </trkpt>
      <trkpt lat="47.53187" lon="-2.84602">
        <ele>65</ele>
        <time>2025-05-13T13:25:04Z</time>
      </trkpt>
      <trkpt lat="47.53186" lon="-2.84598">
        <ele>65</ele>
        <time>2025-05-13T13:25:05Z</time>
      </trkpt>
      <trkpt lat="47.53185" lon="-2.84593">
        <ele>65</ele>
        <time>2025-05-13T13:25:06Z</time>
      </trkpt>
      <trkpt lat="47.53185" lon="-2.84589">
        <ele>65</ele>
        <time>2025-05-13T13:25:07Z</time>
      </trkpt>
      <trkpt lat="47.53184" lon="-2.84584">
        <ele>65</ele>
        <time>2025-05-13T13:25:08Z</time>
      </trkpt>
      <trkpt lat="47.53183" lon="-2.8458">
        <ele>65</ele>
        <time>2025-05-13T13:25:09Z</time>
      </trkpt>
      <trkpt lat="47.53182" lon="-2.84575">
        <ele>65</ele>
        <time>2025-05-13T13:25:10Z</time>
      </trkpt>
      <trkpt lat="47.53182" lon="-2.8457">
        <ele>65</ele>
        <time>2025-05-13T13:25:11Z</time>
      </trkpt>
      <trkpt lat="47.53181" lon="-2.84565">
        <ele>65</ele>
        <time>2025-05-13T13:25:12Z</time>
      </trkpt>
      <trkpt lat="47.53181" lon="-2.84561">
        <ele>65</ele>
        <time>2025-05-13T13:25:13Z</time>
      </trkpt>
      <trkpt lat="47.5318" lon="-2.84556">
        <ele>65</ele>
        <time>2025-05-13T13:25:14Z</time>
      </trkpt>
      <trkpt lat="47.5318" lon="-2.84552">
        <ele>65</ele>
        <time>2025-05-13T13:25:15Z</time>
      </trkpt>
      <trkpt lat="47.53179" lon="-2.84547">
        <ele>65</ele>
        <time>2025-05-13T13:25:16Z</time>
      </trkpt>
      <trkpt lat="47.53179" lon="-2.84543">
        <ele>65</ele>
        <time>2025-05-13T13:25:17Z</time>
      </trkpt>
      <trkpt lat="47.53178" lon="-2.84539">
        <ele>66</ele>
        <time>2025-05-13T13:25:18Z</time>
      </trkpt>
      <trkpt lat="47.53178" lon="-2.84535">
        <ele>66</ele>
        <time>2025-05-13T13:25:19Z</time>
      </trkpt>
      <trkpt lat="47.53177" lon="-2.84531">
        <ele>66</ele>
        <time>2025-05-13T13:25:20Z</time>
      </trkpt>
      <trkpt lat="47.53177" lon="-2.84528">
        <ele>65</ele>
        <time>2025-05-13T13:25:21Z</time>
      </trkpt>
      <trkpt lat="47.53176" lon="-2.84525">
        <ele>65</ele>
        <time>2025-05-13T13:25:22Z</time>
      </trkpt>
      <trkpt lat="47.53175" lon="-2.84521">
        <ele>64</ele>
        <time>2025-05-13T13:25:23Z</time>
      </trkpt>
      <trkpt lat="47.53175" lon="-2.84517">
        <ele>64</ele>
        <time>2025-05-13T13:25:24Z</time>
      </trkpt>
      <trkpt lat="47.53175" lon="-2.84514">
        <ele>64</ele>
        <time>2025-05-13T13:25:25Z</time>
      </trkpt>
      <trkpt lat="47.53174" lon="-2.8451">
        <ele>64</ele>
        <time>2025-05-13T13:25:26Z</time>
      </trkpt>
      <trkpt lat="47.53173" lon="-2.84506">
        <ele>63</ele>
        <time>2025-05-13T13:25:27Z</time>
      </trkpt>
      <trkpt lat="47.53172" lon="-2.84502">
        <ele>64</ele>
        <time>2025-05-13T13:25:28Z</time>
      </trkpt>
      <trkpt lat="47.5317" lon="-2.84499">
        <ele>64</ele>
        <time>2025-05-13T13:25:29Z</time>
      </trkpt>
      <trkpt lat="47.53168" lon="-2.84496">
        <ele>64</ele>
        <time>2025-05-13T13:25:30Z</time>
      </trkpt>
      <trkpt lat="47.53166" lon="-2.84492">
        <ele>64</ele>
        <time>2025-05-13T13:25:31Z</time>
      </trkpt>
      <trkpt lat="47.53165" lon="-2.84488">
        <ele>64</ele>
        <time>2025-05-13T13:25:32Z</time>
      </trkpt>
      <trkpt lat="47.53164" lon="-2.84484">
        <ele>64</ele>
        <time>2025-05-13T13:25:33Z</time>
      </trkpt>
      <trkpt lat="47.53164" lon="-2.8448">
        <ele>64</ele>
        <time>2025-05-13T13:25:34Z</time>
      </trkpt>
      <trkpt lat="47.53163" lon="-2.84476">
        <ele>64</ele>
        <time>2025-05-13T13:25:35Z</time>
      </trkpt>
      <trkpt lat="47.53163" lon="-2.84472">
        <ele>64</ele>
        <time>2025-05-13T13:25:36Z</time>
      </trkpt>
      <trkpt lat="47.53163" lon="-2.84468">
        <ele>64</ele>
        <time>2025-05-13T13:25:37Z</time>
      </trkpt>
      <trkpt lat="47.53163" lon="-2.84465">
        <ele>64</ele>
        <time>2025-05-13T13:25:38Z</time>
      </trkpt>
      <trkpt lat="47.53163" lon="-2.84463">
        <ele>64</ele>
        <time>2025-05-13T13:25:39Z</time>
      </trkpt>
      <trkpt lat="47.53163" lon="-2.84461">
        <ele>64</ele>
        <time>2025-05-13T13:25:40Z</time>
      </trkpt>
      <trkpt lat="47.53163" lon="-2.84461">
        <ele>64</ele>
        <time>2025-05-13T13:25:41Z</time>
      </trkpt>
      <trkpt lat="47.53163" lon="-2.84461">
        <ele>64</ele>
        <time>2025-05-13T13:25:42Z</time>
      </trkpt>
      <trkpt lat="47.53163" lon="-2.84461">
        <ele>64</ele>
        <time>2025-05-13T13:25:43Z</time>
      </trkpt>
      <trkpt lat="47.53163" lon="-2.8446">
        <ele>64</ele>
        <time>2025-05-13T13:25:44Z</time>
      </trkpt>
      <trkpt lat="47.53163" lon="-2.84459">
        <ele>64</ele>
        <time>2025-05-13T13:25:45Z</time>
      </trkpt>
      <trkpt lat="47.53164" lon="-2.84457">
        <ele>64</ele>
        <time>2025-05-13T13:25:46Z</time>
      </trkpt>
      <trkpt lat="47.53165" lon="-2.84455">
        <ele>64</ele>
        <time>2025-05-13T13:25:47Z</time>
      </trkpt>
      <trkpt lat="47.53166" lon="-2.84452">
        <ele>64</ele>
        <time>2025-05-13T13:25:48Z</time>
      </trkpt>
      <trkpt lat="47.53167" lon="-2.84448">
        <ele>64</ele>
        <time>2025-05-13T13:25:49Z</time>
      </trkpt>
      <trkpt lat="47.53167" lon="-2.84445">
        <ele>64</ele>
        <time>2025-05-13T13:25:50Z</time>
      </trkpt>
      <trkpt lat="47.53167" lon="-2.8444">
        <ele>65</ele>
        <time>2025-05-13T13:25:51Z</time>
      </trkpt>
      <trkpt lat="47.53167" lon="-2.84437">
        <ele>64</ele>
        <time>2025-05-13T13:25:52Z</time>
      </trkpt>
      <trkpt lat="47.53166" lon="-2.84433">
        <ele>65</ele>
        <time>2025-05-13T13:25:53Z</time>
      </trkpt>
      <trkpt lat="47.53163" lon="-2.84432">
        <ele>64</ele>
        <time>2025-05-13T13:25:54Z</time>
      </trkpt>
      <trkpt lat="47.53161" lon="-2.84431">
        <ele>65</ele>
        <time>2025-05-13T13:25:55Z</time>
      </trkpt>
      <trkpt lat="47.53158" lon="-2.84431">
        <ele>65</ele>
        <time>2025-05-13T13:25:56Z</time>
      </trkpt>
      <trkpt lat="47.53155" lon="-2.84431">
        <ele>65</ele>
        <time>2025-05-13T13:25:57Z</time>
      </trkpt>
      <trkpt lat="47.53152" lon="-2.84431">
        <ele>65</ele>
        <time>2025-05-13T13:25:58Z</time>
      </trkpt>
      <trkpt lat="47.53149" lon="-2.8443">
        <ele>65</ele>
        <time>2025-05-13T13:25:59Z</time>
      </trkpt>
      <trkpt lat="47.53146" lon="-2.8443">
        <ele>66</ele>
        <time>2025-05-13T13:26:00Z</time>
      </trkpt>
      <trkpt lat="47.53143" lon="-2.84429">
        <ele>65</ele>
        <time>2025-05-13T13:26:01Z</time>
      </trkpt>
      <trkpt lat="47.53141" lon="-2.84428">
        <ele>66</ele>
        <time>2025-05-13T13:26:02Z</time>
      </trkpt>
      <trkpt lat="47.53138" lon="-2.84426">
        <ele>66</ele>
        <time>2025-05-13T13:26:03Z</time>
      </trkpt>
      <trkpt lat="47.53135" lon="-2.84424">
        <ele>66</ele>
        <time>2025-05-13T13:26:04Z</time>
      </trkpt>
      <trkpt lat="47.53133" lon="-2.84421">
        <ele>66</ele>
        <time>2025-05-13T13:26:05Z</time>
      </trkpt>
      <trkpt lat="47.53131" lon="-2.84418">
        <ele>66</ele>
        <time>2025-05-13T13:26:06Z</time>
      </trkpt>
      <trkpt lat="47.5313" lon="-2.84415">
        <ele>66</ele>
        <time>2025-05-13T13:26:07Z</time>
      </trkpt>
      <trkpt lat="47.53128" lon="-2.84411">
        <ele>66</ele>
        <time>2025-05-13T13:26:08Z</time>
      </trkpt>
      <trkpt lat="47.53126" lon="-2.84406">
        <ele>66</ele>
        <time>2025-05-13T13:26:09Z</time>
      </trkpt>
      <trkpt lat="47.53124" lon="-2.84402">
        <ele>66</ele>
        <time>2025-05-13T13:26:10Z</time>
      </trkpt>
      <trkpt lat="47.53123" lon="-2.84398">
        <ele>66</ele>
        <time>2025-05-13T13:26:11Z</time>
      </trkpt>
      <trkpt lat="47.53121" lon="-2.84394">
        <ele>66</ele>
        <time>2025-05-13T13:26:12Z</time>
      </trkpt>
      <trkpt lat="47.5312" lon="-2.84391">
        <ele>66</ele>
        <time>2025-05-13T13:26:13Z</time>
      </trkpt>
      <trkpt lat="47.53118" lon="-2.84387">
        <ele>66</ele>
        <time>2025-05-13T13:26:14Z</time>
      </trkpt>
      <trkpt lat="47.53116" lon="-2.84382">
        <ele>66</ele>
        <time>2025-05-13T13:26:15Z</time>
      </trkpt>
      <trkpt lat="47.53115" lon="-2.84378">
        <ele>65</ele>
        <time>2025-05-13T13:26:16Z</time>
      </trkpt>
      <trkpt lat="47.53113" lon="-2.84373">
        <ele>65</ele>
        <time>2025-05-13T13:26:17Z</time>
      </trkpt>
      <trkpt lat="47.53111" lon="-2.84368">
        <ele>65</ele>
        <time>2025-05-13T13:26:18Z</time>
      </trkpt>
      <trkpt lat="47.53109" lon="-2.84363">
        <ele>65</ele>
        <time>2025-05-13T13:26:19Z</time>
      </trkpt>
      <trkpt lat="47.53107" lon="-2.84359">
        <ele>65</ele>
        <time>2025-05-13T13:26:20Z</time>
      </trkpt>
      <trkpt lat="47.53106" lon="-2.84354">
        <ele>64</ele>
        <time>2025-05-13T13:26:21Z</time>
      </trkpt>
      <trkpt lat="47.53104" lon="-2.84349">
        <ele>64</ele>
        <time>2025-05-13T13:26:22Z</time>
      </trkpt>
      <trkpt lat="47.53103" lon="-2.84343">
        <ele>64</ele>
        <time>2025-05-13T13:26:23Z</time>
      </trkpt>
      <trkpt lat="47.53101" lon="-2.84338">
        <ele>64</ele>
        <time>2025-05-13T13:26:24Z</time>
      </trkpt>
      <trkpt lat="47.531" lon="-2.84333">
        <ele>64</ele>
        <time>2025-05-13T13:26:25Z</time>
      </trkpt>
      <trkpt lat="47.53098" lon="-2.84327">
        <ele>64</ele>
        <time>2025-05-13T13:26:26Z</time>
      </trkpt>
      <trkpt lat="47.53097" lon="-2.84322">
        <ele>65</ele>
        <time>2025-05-13T13:26:27Z</time>
      </trkpt>
      <trkpt lat="47.53095" lon="-2.84317">
        <ele>65</ele>
        <time>2025-05-13T13:26:28Z</time>
      </trkpt>
      <trkpt lat="47.53093" lon="-2.84312">
        <ele>65</ele>
        <time>2025-05-13T13:26:29Z</time>
      </trkpt>
      <trkpt lat="47.53092" lon="-2.84307">
        <ele>65</ele>
        <time>2025-05-13T13:26:30Z</time>
      </trkpt>
      <trkpt lat="47.5309" lon="-2.84302">
        <ele>65</ele>
        <time>2025-05-13T13:26:31Z</time>
      </trkpt>
      <trkpt lat="47.53088" lon="-2.84297">
        <ele>65</ele>
        <time>2025-05-13T13:26:32Z</time>
      </trkpt>
      <trkpt lat="47.53086" lon="-2.84292">
        <ele>65</ele>
        <time>2025-05-13T13:26:33Z</time>
      </trkpt>
      <trkpt lat="47.53085" lon="-2.84287">
        <ele>65</ele>
        <time>2025-05-13T13:26:34Z</time>
      </trkpt>
      <trkpt lat="47.53083" lon="-2.84281">
        <ele>64</ele>
        <time>2025-05-13T13:26:35Z</time>
      </trkpt>
      <trkpt lat="47.53081" lon="-2.84276">
        <ele>64</ele>
        <time>2025-05-13T13:26:36Z</time>
      </trkpt>
      <trkpt lat="47.53079" lon="-2.8427">
        <ele>64</ele>
        <time>2025-05-13T13:26:37Z</time>
      </trkpt>
      <trkpt lat="47.53077" lon="-2.84265">
        <ele>64</ele>
        <time>2025-05-13T13:26:38Z</time>
      </trkpt>
      <trkpt lat="47.53075" lon="-2.8426">
        <ele>64</ele>
        <time>2025-05-13T13:26:39Z</time>
      </trkpt>
      <trkpt lat="47.53073" lon="-2.84254">
        <ele>64</ele>
        <time>2025-05-13T13:26:40Z</time>
      </trkpt>
      <trkpt lat="47.5307" lon="-2.84248">
        <ele>63</ele>
        <time>2025-05-13T13:26:41Z</time>
      </trkpt>
      <trkpt lat="47.53068" lon="-2.84242">
        <ele>63</ele>
        <time>2025-05-13T13:26:42Z</time>
      </trkpt>
      <trkpt lat="47.53065" lon="-2.84236">
        <ele>63</ele>
        <time>2025-05-13T13:26:43Z</time>
      </trkpt>
      <trkpt lat="47.53063" lon="-2.8423">
        <ele>63</ele>
        <time>2025-05-13T13:26:44Z</time>
      </trkpt>
      <trkpt lat="47.53061" lon="-2.84225">
        <ele>63</ele>
        <time>2025-05-13T13:26:45Z</time>
      </trkpt>
      <trkpt lat="47.53059" lon="-2.84219">
        <ele>63</ele>
        <time>2025-05-13T13:26:46Z</time>
      </trkpt>
      <trkpt lat="47.53056" lon="-2.84214">
        <ele>63</ele>
        <time>2025-05-13T13:26:47Z</time>
      </trkpt>
      <trkpt lat="47.53053" lon="-2.84209">
        <ele>63</ele>
        <time>2025-05-13T13:26:48Z</time>
      </trkpt>
      <trkpt lat="47.53051" lon="-2.84205">
        <ele>63</ele>
        <time>2025-05-13T13:26:49Z</time>
      </trkpt>
      <trkpt lat="47.53048" lon="-2.84199">
        <ele>63</ele>
        <time>2025-05-13T13:26:50Z</time>
      </trkpt>
      <trkpt lat="47.53046" lon="-2.84194">
        <ele>64</ele>
        <time>2025-05-13T13:26:51Z</time>
      </trkpt>
      <trkpt lat="47.53043" lon="-2.84189">
        <ele>64</ele>
        <time>2025-05-13T13:26:52Z</time>
      </trkpt>
      <trkpt lat="47.53041" lon="-2.84184">
        <ele>64</ele>
        <time>2025-05-13T13:26:53Z</time>
      </trkpt>
      <trkpt lat="47.53038" lon="-2.84179">
        <ele>64</ele>
        <time>2025-05-13T13:26:54Z</time>
      </trkpt>
      <trkpt lat="47.53036" lon="-2.84174">
        <ele>64</ele>
        <time>2025-05-13T13:26:55Z</time>
      </trkpt>
      <trkpt lat="47.53034" lon="-2.84168">
        <ele>64</ele>
        <time>2025-05-13T13:26:56Z</time>
      </trkpt>
      <trkpt lat="47.53031" lon="-2.84163">
        <ele>64</ele>
        <time>2025-05-13T13:26:57Z</time>
      </trkpt>
      <trkpt lat="47.53029" lon="-2.84157">
        <ele>64</ele>
        <time>2025-05-13T13:26:58Z</time>
      </trkpt>
      <trkpt lat="47.53027" lon="-2.84151">
        <ele>64</ele>
        <time>2025-05-13T13:26:59Z</time>
      </trkpt>
      <trkpt lat="47.53024" lon="-2.84146">
        <ele>64</ele>
        <time>2025-05-13T13:27:00Z</time>
      </trkpt>
      <trkpt lat="47.53021" lon="-2.84141">
        <ele>63</ele>
        <time>2025-05-13T13:27:01Z</time>
      </trkpt>
      <trkpt lat="47.53019" lon="-2.84136">
        <ele>63</ele>
        <time>2025-05-13T13:27:02Z</time>
      </trkpt>
      <trkpt lat="47.53016" lon="-2.84131">
        <ele>63</ele>
        <time>2025-05-13T13:27:03Z</time>
      </trkpt>
      <trkpt lat="47.53014" lon="-2.84126">
        <ele>63</ele>
        <time>2025-05-13T13:27:04Z</time>
      </trkpt>
      <trkpt lat="47.53011" lon="-2.84122">
        <ele>63</ele>
        <time>2025-05-13T13:27:05Z</time>
      </trkpt>
      <trkpt lat="47.53008" lon="-2.84118">
        <ele>63</ele>
        <time>2025-05-13T13:27:06Z</time>
      </trkpt>
      <trkpt lat="47.53005" lon="-2.84113">
        <ele>64</ele>
        <time>2025-05-13T13:27:07Z</time>
      </trkpt>
      <trkpt lat="47.53002" lon="-2.84109">
        <ele>64</ele>
        <time>2025-05-13T13:27:08Z</time>
      </trkpt>
      <trkpt lat="47.53" lon="-2.84104">
        <ele>64</ele>
        <time>2025-05-13T13:27:09Z</time>
      </trkpt>
      <trkpt lat="47.52997" lon="-2.84101">
        <ele>64</ele>
        <time>2025-05-13T13:27:10Z</time>
      </trkpt>
      <trkpt lat="47.52995" lon="-2.84097">
        <ele>64</ele>
        <time>2025-05-13T13:27:11Z</time>
      </trkpt>
      <trkpt lat="47.52992" lon="-2.84093">
        <ele>64</ele>
        <time>2025-05-13T13:27:12Z</time>
      </trkpt>
      <trkpt lat="47.5299" lon="-2.84089">
        <ele>64</ele>
        <time>2025-05-13T13:27:13Z</time>
      </trkpt>
      <trkpt lat="47.52987" lon="-2.84086">
        <ele>64</ele>
        <time>2025-05-13T13:27:14Z</time>
      </trkpt>
      <trkpt lat="47.52984" lon="-2.84082">
        <ele>63</ele>
        <time>2025-05-13T13:27:15Z</time>
      </trkpt>
      <trkpt lat="47.52982" lon="-2.84078">
        <ele>63</ele>
        <time>2025-05-13T13:27:16Z</time>
      </trkpt>
      <trkpt lat="47.52979" lon="-2.84073">
        <ele>63</ele>
        <time>2025-05-13T13:27:17Z</time>
      </trkpt>
      <trkpt lat="47.52976" lon="-2.84069">
        <ele>63</ele>
        <time>2025-05-13T13:27:18Z</time>
      </trkpt>
      <trkpt lat="47.52974" lon="-2.84065">
        <ele>63</ele>
        <time>2025-05-13T13:27:19Z</time>
      </trkpt>
      <trkpt lat="47.52971" lon="-2.8406">
        <ele>63</ele>
        <time>2025-05-13T13:27:20Z</time>
      </trkpt>
      <trkpt lat="47.52969" lon="-2.84056">
        <ele>63</ele>
        <time>2025-05-13T13:27:21Z</time>
      </trkpt>
      <trkpt lat="47.52966" lon="-2.84052">
        <ele>62</ele>
        <time>2025-05-13T13:27:22Z</time>
      </trkpt>
      <trkpt lat="47.52964" lon="-2.84047">
        <ele>62</ele>
        <time>2025-05-13T13:27:23Z</time>
      </trkpt>
      <trkpt lat="47.52961" lon="-2.84043">
        <ele>62</ele>
        <time>2025-05-13T13:27:24Z</time>
      </trkpt>
      <trkpt lat="47.52959" lon="-2.84039">
        <ele>62</ele>
        <time>2025-05-13T13:27:25Z</time>
      </trkpt>
      <trkpt lat="47.52956" lon="-2.84034">
        <ele>62</ele>
        <time>2025-05-13T13:27:26Z</time>
      </trkpt>
      <trkpt lat="47.52954" lon="-2.8403">
        <ele>63</ele>
        <time>2025-05-13T13:27:27Z</time>
      </trkpt>
      <trkpt lat="47.52951" lon="-2.84025">
        <ele>63</ele>
        <time>2025-05-13T13:27:28Z</time>
      </trkpt>
      <trkpt lat="47.52949" lon="-2.84021">
        <ele>63</ele>
        <time>2025-05-13T13:27:29Z</time>
      </trkpt>
      <trkpt lat="47.52947" lon="-2.84016">
        <ele>63</ele>
        <time>2025-05-13T13:27:30Z</time>
      </trkpt>
      <trkpt lat="47.52945" lon="-2.84011">
        <ele>64</ele>
        <time>2025-05-13T13:27:31Z</time>
      </trkpt>
      <trkpt lat="47.52943" lon="-2.84006">
        <ele>64</ele>
        <time>2025-05-13T13:27:32Z</time>
      </trkpt>
      <trkpt lat="47.52941" lon="-2.84001">
        <ele>64</ele>
        <time>2025-05-13T13:27:33Z</time>
      </trkpt>
      <trkpt lat="47.52939" lon="-2.83997">
        <ele>64</ele>
        <time>2025-05-13T13:27:34Z</time>
      </trkpt>
      <trkpt lat="47.52937" lon="-2.83992">
        <ele>64</ele>
        <time>2025-05-13T13:27:35Z</time>
      </trkpt>
      <trkpt lat="47.52936" lon="-2.83987">
        <ele>64</ele>
        <time>2025-05-13T13:27:36Z</time>
      </trkpt>
      <trkpt lat="47.52934" lon="-2.83982">
        <ele>64</ele>
        <time>2025-05-13T13:27:37Z</time>
      </trkpt>
      <trkpt lat="47.52932" lon="-2.83977">
        <ele>64</ele>
        <time>2025-05-13T13:27:38Z</time>
      </trkpt>
      <trkpt lat="47.52931" lon="-2.83972">
        <ele>63</ele>
        <time>2025-05-13T13:27:39Z</time>
      </trkpt>
      <trkpt lat="47.5293" lon="-2.83967">
        <ele>63</ele>
        <time>2025-05-13T13:27:40Z</time>
      </trkpt>
      <trkpt lat="47.52928" lon="-2.83963">
        <ele>62</ele>
        <time>2025-05-13T13:27:41Z</time>
      </trkpt>
      <trkpt lat="47.52927" lon="-2.83958">
        <ele>62</ele>
        <time>2025-05-13T13:27:42Z</time>
      </trkpt>
      <trkpt lat="47.52925" lon="-2.83953">
        <ele>61</ele>
        <time>2025-05-13T13:27:43Z</time>
      </trkpt>
      <trkpt lat="47.52924" lon="-2.83948">
        <ele>61</ele>
        <time>2025-05-13T13:27:44Z</time>
      </trkpt>
      <trkpt lat="47.52923" lon="-2.83943">
        <ele>61</ele>
        <time>2025-05-13T13:27:45Z</time>
      </trkpt>
      <trkpt lat="47.52921" lon="-2.83938">
        <ele>61</ele>
        <time>2025-05-13T13:27:46Z</time>
      </trkpt>
      <trkpt lat="47.52919" lon="-2.83934">
        <ele>62</ele>
        <time>2025-05-13T13:27:47Z</time>
      </trkpt>
      <trkpt lat="47.52917" lon="-2.8393">
        <ele>62</ele>
        <time>2025-05-13T13:27:48Z</time>
      </trkpt>
      <trkpt lat="47.52914" lon="-2.83926">
        <ele>62</ele>
        <time>2025-05-13T13:27:49Z</time>
      </trkpt>
      <trkpt lat="47.52912" lon="-2.83923">
        <ele>61</ele>
        <time>2025-05-13T13:27:50Z</time>
      </trkpt>
      <trkpt lat="47.52909" lon="-2.8392">
        <ele>61</ele>
        <time>2025-05-13T13:27:51Z</time>
      </trkpt>
      <trkpt lat="47.52906" lon="-2.83918">
        <ele>61</ele>
        <time>2025-05-13T13:27:52Z</time>
      </trkpt>
      <trkpt lat="47.52903" lon="-2.83915">
        <ele>61</ele>
        <time>2025-05-13T13:27:53Z</time>
      </trkpt>
      <trkpt lat="47.52899" lon="-2.83913">
        <ele>62</ele>
        <time>2025-05-13T13:27:54Z</time>
      </trkpt>
      <trkpt lat="47.52897" lon="-2.83911">
        <ele>61</ele>
        <time>2025-05-13T13:27:55Z</time>
      </trkpt>
      <trkpt lat="47.52894" lon="-2.83909">
        <ele>61</ele>
        <time>2025-05-13T13:27:56Z</time>
      </trkpt>
      <trkpt lat="47.52891" lon="-2.83907">
        <ele>60</ele>
        <time>2025-05-13T13:27:57Z</time>
      </trkpt>
      <trkpt lat="47.52888" lon="-2.83905">
        <ele>60</ele>
        <time>2025-05-13T13:27:58Z</time>
      </trkpt>
      <trkpt lat="47.52885" lon="-2.83901">
        <ele>60</ele>
        <time>2025-05-13T13:27:59Z</time>
      </trkpt>
      <trkpt lat="47.52881" lon="-2.83898">
        <ele>60</ele>
        <time>2025-05-13T13:28:00Z</time>
      </trkpt>
      <trkpt lat="47.52877" lon="-2.83895">
        <ele>60</ele>
        <time>2025-05-13T13:28:01Z</time>
      </trkpt>
      <trkpt lat="47.52874" lon="-2.83892">
        <ele>60</ele>
        <time>2025-05-13T13:28:02Z</time>
      </trkpt>
      <trkpt lat="47.5287" lon="-2.83889">
        <ele>60</ele>
        <time>2025-05-13T13:28:03Z</time>
      </trkpt>
      <trkpt lat="47.52867" lon="-2.83886">
        <ele>60</ele>
        <time>2025-05-13T13:28:04Z</time>
      </trkpt>
      <trkpt lat="47.52863" lon="-2.83882">
        <ele>59</ele>
        <time>2025-05-13T13:28:05Z</time>
      </trkpt>
      <trkpt lat="47.52859" lon="-2.83879">
        <ele>59</ele>
        <time>2025-05-13T13:28:06Z</time>
      </trkpt>
      <trkpt lat="47.52855" lon="-2.83876">
        <ele>59</ele>
        <time>2025-05-13T13:28:07Z</time>
      </trkpt>
      <trkpt lat="47.52852" lon="-2.83874">
        <ele>59</ele>
        <time>2025-05-13T13:28:08Z</time>
      </trkpt>
      <trkpt lat="47.52847" lon="-2.83871">
        <ele>59</ele>
        <time>2025-05-13T13:28:09Z</time>
      </trkpt>
      <trkpt lat="47.52843" lon="-2.83868">
        <ele>58</ele>
        <time>2025-05-13T13:28:10Z</time>
      </trkpt>
      <trkpt lat="47.52839" lon="-2.83865">
        <ele>58</ele>
        <time>2025-05-13T13:28:11Z</time>
      </trkpt>
      <trkpt lat="47.52835" lon="-2.83861">
        <ele>58</ele>
        <time>2025-05-13T13:28:12Z</time>
      </trkpt>
      <trkpt lat="47.52831" lon="-2.83858">
        <ele>58</ele>
        <time>2025-05-13T13:28:13Z</time>
      </trkpt>
      <trkpt lat="47.52827" lon="-2.83855">
        <ele>58</ele>
        <time>2025-05-13T13:28:14Z</time>
      </trkpt>
      <trkpt lat="47.52823" lon="-2.83852">
        <ele>58</ele>
        <time>2025-05-13T13:28:15Z</time>
      </trkpt>
      <trkpt lat="47.5282" lon="-2.83849">
        <ele>58</ele>
        <time>2025-05-13T13:28:16Z</time>
      </trkpt>
      <trkpt lat="47.52816" lon="-2.83846">
        <ele>58</ele>
        <time>2025-05-13T13:28:17Z</time>
      </trkpt>
      <trkpt lat="47.52811" lon="-2.83843">
        <ele>58</ele>
        <time>2025-05-13T13:28:18Z</time>
      </trkpt>
      <trkpt lat="47.52807" lon="-2.8384">
        <ele>58</ele>
        <time>2025-05-13T13:28:19Z</time>
      </trkpt>
      <trkpt lat="47.52803" lon="-2.83836">
        <ele>58</ele>
        <time>2025-05-13T13:28:20Z</time>
      </trkpt>
      <trkpt lat="47.52799" lon="-2.83833">
        <ele>59</ele>
        <time>2025-05-13T13:28:21Z</time>
      </trkpt>
      <trkpt lat="47.52794" lon="-2.83829">
        <ele>59</ele>
        <time>2025-05-13T13:28:22Z</time>
      </trkpt>
      <trkpt lat="47.5279" lon="-2.83825">
        <ele>60</ele>
        <time>2025-05-13T13:28:23Z</time>
      </trkpt>
      <trkpt lat="47.52786" lon="-2.83821">
        <ele>59</ele>
        <time>2025-05-13T13:28:24Z</time>
      </trkpt>
      <trkpt lat="47.52782" lon="-2.83818">
        <ele>60</ele>
        <time>2025-05-13T13:28:25Z</time>
      </trkpt>
      <trkpt lat="47.52778" lon="-2.83814">
        <ele>60</ele>
        <time>2025-05-13T13:28:26Z</time>
      </trkpt>
      <trkpt lat="47.52774" lon="-2.83811">
        <ele>60</ele>
        <time>2025-05-13T13:28:27Z</time>
      </trkpt>
      <trkpt lat="47.5277" lon="-2.83807">
        <ele>60</ele>
        <time>2025-05-13T13:28:28Z</time>
      </trkpt>
      <trkpt lat="47.52766" lon="-2.83804">
        <ele>60</ele>
        <time>2025-05-13T13:28:29Z</time>
      </trkpt>
      <trkpt lat="47.52762" lon="-2.83801">
        <ele>60</ele>
        <time>2025-05-13T13:28:30Z</time>
      </trkpt>
      <trkpt lat="47.52758" lon="-2.83797">
        <ele>60</ele>
        <time>2025-05-13T13:28:31Z</time>
      </trkpt>
      <trkpt lat="47.52754" lon="-2.83794">
        <ele>60</ele>
        <time>2025-05-13T13:28:32Z</time>
      </trkpt>
      <trkpt lat="47.5275" lon="-2.83792">
        <ele>59</ele>
        <time>2025-05-13T13:28:33Z</time>
      </trkpt>
      <trkpt lat="47.52747" lon="-2.83789">
        <ele>59</ele>
        <time>2025-05-13T13:28:34Z</time>
      </trkpt>
      <trkpt lat="47.52743" lon="-2.83786">
        <ele>59</ele>
        <time>2025-05-13T13:28:35Z</time>
      </trkpt>
      <trkpt lat="47.5274" lon="-2.83782">
        <ele>58</ele>
        <time>2025-05-13T13:28:36Z</time>
      </trkpt>
      <trkpt lat="47.52736" lon="-2.83779">
        <ele>58</ele>
        <time>2025-05-13T13:28:37Z</time>
      </trkpt>
      <trkpt lat="47.52731" lon="-2.83775">
        <ele>57</ele>
        <time>2025-05-13T13:28:38Z</time>
      </trkpt>
      <trkpt lat="47.52726" lon="-2.83772">
        <ele>58</ele>
        <time>2025-05-13T13:28:39Z</time>
      </trkpt>
      <trkpt lat="47.52722" lon="-2.83768">
        <ele>58</ele>
        <time>2025-05-13T13:28:40Z</time>
      </trkpt>
      <trkpt lat="47.52717" lon="-2.83764">
        <ele>58</ele>
        <time>2025-05-13T13:28:41Z</time>
      </trkpt>
      <trkpt lat="47.52712" lon="-2.8376">
        <ele>58</ele>
        <time>2025-05-13T13:28:42Z</time>
      </trkpt>
      <trkpt lat="47.52707" lon="-2.83757">
        <ele>57</ele>
        <time>2025-05-13T13:28:43Z</time>
      </trkpt>
      <trkpt lat="47.52703" lon="-2.83753">
        <ele>57</ele>
        <time>2025-05-13T13:28:44Z</time>
      </trkpt>
      <trkpt lat="47.52699" lon="-2.8375">
        <ele>57</ele>
        <time>2025-05-13T13:28:45Z</time>
      </trkpt>
      <trkpt lat="47.52694" lon="-2.83747">
        <ele>57</ele>
        <time>2025-05-13T13:28:46Z</time>
      </trkpt>
      <trkpt lat="47.5269" lon="-2.83744">
        <ele>57</ele>
        <time>2025-05-13T13:28:47Z</time>
      </trkpt>
      <trkpt lat="47.52686" lon="-2.83741">
        <ele>57</ele>
        <time>2025-05-13T13:28:48Z</time>
      </trkpt>
      <trkpt lat="47.52682" lon="-2.83737">
        <ele>57</ele>
        <time>2025-05-13T13:28:49Z</time>
      </trkpt>
      <trkpt lat="47.52678" lon="-2.83734">
        <ele>57</ele>
        <time>2025-05-13T13:28:50Z</time>
      </trkpt>
      <trkpt lat="47.52674" lon="-2.83731">
        <ele>58</ele>
        <time>2025-05-13T13:28:51Z</time>
      </trkpt>
      <trkpt lat="47.5267" lon="-2.83727">
        <ele>58</ele>
        <time>2025-05-13T13:28:52Z</time>
      </trkpt>
      <trkpt lat="47.52666" lon="-2.83724">
        <ele>58</ele>
        <time>2025-05-13T13:28:53Z</time>
      </trkpt>
      <trkpt lat="47.52662" lon="-2.8372">
        <ele>58</ele>
        <time>2025-05-13T13:28:54Z</time>
      </trkpt>
      <trkpt lat="47.52659" lon="-2.83718">
        <ele>57</ele>
        <time>2025-05-13T13:28:55Z</time>
      </trkpt>
      <trkpt lat="47.52655" lon="-2.83714">
        <ele>56</ele>
        <time>2025-05-13T13:28:56Z</time>
      </trkpt>
      <trkpt lat="47.52652" lon="-2.83712">
        <ele>56</ele>
        <time>2025-05-13T13:28:57Z</time>
      </trkpt>
      <trkpt lat="47.52647" lon="-2.83709">
        <ele>56</ele>
        <time>2025-05-13T13:28:58Z</time>
      </trkpt>
      <trkpt lat="47.52643" lon="-2.83705">
        <ele>56</ele>
        <time>2025-05-13T13:28:59Z</time>
      </trkpt>
      <trkpt lat="47.52639" lon="-2.83702">
        <ele>56</ele>
        <time>2025-05-13T13:29:00Z</time>
      </trkpt>
      <trkpt lat="47.52634" lon="-2.83698">
        <ele>56</ele>
        <time>2025-05-13T13:29:01Z</time>
      </trkpt>
      <trkpt lat="47.52631" lon="-2.83694">
        <ele>56</ele>
        <time>2025-05-13T13:29:02Z</time>
      </trkpt>
      <trkpt lat="47.52627" lon="-2.8369">
        <ele>57</ele>
        <time>2025-05-13T13:29:03Z</time>
      </trkpt>
      <trkpt lat="47.52626" lon="-2.8369">
        <ele>57</ele>
        <time>2025-05-13T13:29:05Z</time>
      </trkpt>
      <trkpt lat="47.52624" lon="-2.83687">
        <ele>58</ele>
        <time>2025-05-13T13:29:06Z</time>
      </trkpt>
      <trkpt lat="47.52619" lon="-2.83682">
        <ele>58</ele>
        <time>2025-05-13T13:29:07Z</time>
      </trkpt>
      <trkpt lat="47.52611" lon="-2.83674">
        <ele>58</ele>
        <time>2025-05-13T13:29:08Z</time>
      </trkpt>
      <trkpt lat="47.52607" lon="-2.83671">
        <ele>58</ele>
        <time>2025-05-13T13:29:09Z</time>
      </trkpt>
      <trkpt lat="47.52603" lon="-2.83669">
        <ele>58</ele>
        <time>2025-05-13T13:29:10Z</time>
      </trkpt>
      <trkpt lat="47.526" lon="-2.83667">
        <ele>58</ele>
        <time>2025-05-13T13:29:11Z</time>
      </trkpt>
      <trkpt lat="47.52597" lon="-2.83665">
        <ele>58</ele>
        <time>2025-05-13T13:29:12Z</time>
      </trkpt>
      <trkpt lat="47.52595" lon="-2.83663">
        <ele>58</ele>
        <time>2025-05-13T13:29:13Z</time>
      </trkpt>
      <trkpt lat="47.52593" lon="-2.83663">
        <ele>58</ele>
        <time>2025-05-13T13:29:14Z</time>
      </trkpt>
      <trkpt lat="47.52592" lon="-2.83662">
        <ele>58</ele>
        <time>2025-05-13T13:29:15Z</time>
      </trkpt>
      <trkpt lat="47.52592" lon="-2.83662">
        <ele>59</ele>
        <time>2025-05-13T13:29:16Z</time>
      </trkpt>
      <trkpt lat="47.52591" lon="-2.83662">
        <ele>59</ele>
        <time>2025-05-13T13:29:17Z</time>
      </trkpt>
      <trkpt lat="47.52591" lon="-2.83661">
        <ele>59</ele>
        <time>2025-05-13T13:29:18Z</time>
      </trkpt>
      <trkpt lat="47.52591" lon="-2.83661">
        <ele>59</ele>
        <time>2025-05-13T13:29:19Z</time>
      </trkpt>
      <trkpt lat="47.52591" lon="-2.83661">
        <ele>59</ele>
        <time>2025-05-13T13:29:20Z</time>
      </trkpt>
      <trkpt lat="47.52591" lon="-2.83661">
        <ele>59</ele>
        <time>2025-05-13T13:29:21Z</time>
      </trkpt>
      <trkpt lat="47.52591" lon="-2.83662">
        <ele>59</ele>
        <time>2025-05-13T13:29:22Z</time>
      </trkpt>
      <trkpt lat="47.52591" lon="-2.83662">
        <ele>59</ele>
        <time>2025-05-13T13:29:23Z</time>
      </trkpt>
      <trkpt lat="47.52591" lon="-2.83662">
        <ele>59</ele>
        <time>2025-05-13T13:29:24Z</time>
      </trkpt>
      <trkpt lat="47.52591" lon="-2.83662">
        <ele>59</ele>
        <time>2025-05-13T13:29:25Z</time>
      </trkpt>
      <trkpt lat="47.52591" lon="-2.83663">
        <ele>59</ele>
        <time>2025-05-13T13:29:26Z</time>
      </trkpt>
      <trkpt lat="47.52591" lon="-2.83663">
        <ele>59</ele>
        <time>2025-05-13T13:29:27Z</time>
      </trkpt>
      <trkpt lat="47.52591" lon="-2.83663">
        <ele>59</ele>
        <time>2025-05-13T13:29:28Z</time>
      </trkpt>
      <trkpt lat="47.52591" lon="-2.83663">
        <ele>59</ele>
        <time>2025-05-13T13:29:29Z</time>
      </trkpt>
      <trkpt lat="47.52591" lon="-2.83663">
        <ele>59</ele>
        <time>2025-05-13T13:29:30Z</time>
      </trkpt>
      <trkpt lat="47.52591" lon="-2.83663">
        <ele>59</ele>
        <time>2025-05-13T13:29:31Z</time>
      </trkpt>
      <trkpt lat="47.5259" lon="-2.83663">
        <ele>59</ele>
        <time>2025-05-13T13:29:32Z</time>
      </trkpt>
      <trkpt lat="47.5259" lon="-2.83663">
        <ele>59</ele>
        <time>2025-05-13T13:29:33Z</time>
      </trkpt>
      <trkpt lat="47.5259" lon="-2.83663">
        <ele>60</ele>
        <time>2025-05-13T13:29:34Z</time>
      </trkpt>
      <trkpt lat="47.5259" lon="-2.83663">
        <ele>60</ele>
        <time>2025-05-13T13:29:35Z</time>
      </trkpt>
      <trkpt lat="47.5259" lon="-2.83662">
        <ele>60</ele>
        <time>2025-05-13T13:29:36Z</time>
      </trkpt>
      <trkpt lat="47.52589" lon="-2.83662">
        <ele>60</ele>
        <time>2025-05-13T13:29:37Z</time>
      </trkpt>
      <trkpt lat="47.52589" lon="-2.83662">
        <ele>60</ele>
        <time>2025-05-13T13:29:38Z</time>
      </trkpt>
      <trkpt lat="47.52589" lon="-2.83662">
        <ele>60</ele>
        <time>2025-05-13T13:29:39Z</time>
      </trkpt>
      <trkpt lat="47.52589" lon="-2.83662">
        <ele>60</ele>
        <time>2025-05-13T13:29:40Z</time>
      </trkpt>
      <trkpt lat="47.52589" lon="-2.83662">
        <ele>60</ele>
        <time>2025-05-13T13:29:41Z</time>
      </trkpt>
      <trkpt lat="47.52589" lon="-2.83662">
        <ele>60</ele>
        <time>2025-05-13T13:29:42Z</time>
      </trkpt>
      <trkpt lat="47.52589" lon="-2.83662">
        <ele>60</ele>
        <time>2025-05-13T13:29:43Z</time>
      </trkpt>
      <trkpt lat="47.52589" lon="-2.83662">
        <ele>60</ele>
        <time>2025-05-13T13:29:44Z</time>
      </trkpt>
      <trkpt lat="47.52589" lon="-2.83662">
        <ele>60</ele>
        <time>2025-05-13T13:29:45Z</time>
      </trkpt>
      <trkpt lat="47.52589" lon="-2.83662">
        <ele>60</ele>
        <time>2025-05-13T13:29:46Z</time>
      </trkpt>
      <trkpt lat="47.52589" lon="-2.83662">
        <ele>60</ele>
        <time>2025-05-13T13:29:47Z</time>
      </trkpt>
      <trkpt lat="47.52589" lon="-2.83662">
        <ele>60</ele>
        <time>2025-05-13T13:29:48Z</time>
      </trkpt>
      <trkpt lat="47.52589" lon="-2.83662">
        <ele>60</ele>
        <time>2025-05-13T13:29:49Z</time>
      </trkpt>
      <trkpt lat="47.52589" lon="-2.83662">
        <ele>60</ele>
        <time>2025-05-13T13:29:50Z</time>
      </trkpt>
      <trkpt lat="47.52586" lon="-2.8366">
        <ele>62</ele>
        <time>2025-05-13T13:29:51Z</time>
      </trkpt>
      <trkpt lat="47.52585" lon="-2.83659">
        <ele>62</ele>
        <time>2025-05-13T13:29:52Z</time>
      </trkpt>
      <trkpt lat="47.52583" lon="-2.83657">
        <ele>62</ele>
        <time>2025-05-13T13:29:53Z</time>
      </trkpt>
      <trkpt lat="47.52581" lon="-2.83655">
        <ele>62</ele>
        <time>2025-05-13T13:29:54Z</time>
      </trkpt>
      <trkpt lat="47.52579" lon="-2.83653">
        <ele>62</ele>
        <time>2025-05-13T13:29:55Z</time>
      </trkpt>
      <trkpt lat="47.52576" lon="-2.83651">
        <ele>61</ele>
        <time>2025-05-13T13:29:56Z</time>
      </trkpt>
      <trkpt lat="47.52574" lon="-2.83649">
        <ele>61</ele>
        <time>2025-05-13T13:29:57Z</time>
      </trkpt>
      <trkpt lat="47.52571" lon="-2.83647">
        <ele>61</ele>
        <time>2025-05-13T13:29:58Z</time>
      </trkpt>
      <trkpt lat="47.52569" lon="-2.83646">
        <ele>61</ele>
        <time>2025-05-13T13:29:59Z</time>
      </trkpt>
      <trkpt lat="47.52567" lon="-2.83644">
        <ele>61</ele>
        <time>2025-05-13T13:30:00Z</time>
      </trkpt>
      <trkpt lat="47.52565" lon="-2.83643">
        <ele>60</ele>
        <time>2025-05-13T13:30:01Z</time>
      </trkpt>
      <trkpt lat="47.52563" lon="-2.83642">
        <ele>61</ele>
        <time>2025-05-13T13:30:02Z</time>
      </trkpt>
      <trkpt lat="47.52561" lon="-2.8364">
        <ele>61</ele>
        <time>2025-05-13T13:30:03Z</time>
      </trkpt>
      <trkpt lat="47.52559" lon="-2.83637">
        <ele>61</ele>
        <time>2025-05-13T13:30:04Z</time>
      </trkpt>
      <trkpt lat="47.52556" lon="-2.83635">
        <ele>61</ele>
        <time>2025-05-13T13:30:05Z</time>
      </trkpt>
      <trkpt lat="47.52554" lon="-2.83633">
        <ele>60</ele>
        <time>2025-05-13T13:30:06Z</time>
      </trkpt>
      <trkpt lat="47.52551" lon="-2.8363">
        <ele>60</ele>
        <time>2025-05-13T13:30:07Z</time>
      </trkpt>
      <trkpt lat="47.52549" lon="-2.83627">
        <ele>60</ele>
        <time>2025-05-13T13:30:08Z</time>
      </trkpt>
      <trkpt lat="47.52546" lon="-2.83625">
        <ele>60</ele>
        <time>2025-05-13T13:30:09Z</time>
      </trkpt>
      <trkpt lat="47.52543" lon="-2.83623">
        <ele>60</ele>
        <time>2025-05-13T13:30:10Z</time>
      </trkpt>
      <trkpt lat="47.5254" lon="-2.83621">
        <ele>60</ele>
        <time>2025-05-13T13:30:11Z</time>
      </trkpt>
      <trkpt lat="47.52537" lon="-2.83618">
        <ele>59</ele>
        <time>2025-05-13T13:30:12Z</time>
      </trkpt>
      <trkpt lat="47.52533" lon="-2.83615">
        <ele>60</ele>
        <time>2025-05-13T13:30:13Z</time>
      </trkpt>
      <trkpt lat="47.52529" lon="-2.83612">
        <ele>60</ele>
        <time>2025-05-13T13:30:14Z</time>
      </trkpt>
      <trkpt lat="47.52527" lon="-2.8361">
        <ele>60</ele>
        <time>2025-05-13T13:30:15Z</time>
      </trkpt>
      <trkpt lat="47.52525" lon="-2.83608">
        <ele>59</ele>
        <time>2025-05-13T13:30:16Z</time>
      </trkpt>
      <trkpt lat="47.52522" lon="-2.83606">
        <ele>59</ele>
        <time>2025-05-13T13:30:17Z</time>
      </trkpt>
      <trkpt lat="47.52518" lon="-2.83604">
        <ele>58</ele>
        <time>2025-05-13T13:30:18Z</time>
      </trkpt>
      <trkpt lat="47.52514" lon="-2.83601">
        <ele>59</ele>
        <time>2025-05-13T13:30:19Z</time>
      </trkpt>
      <trkpt lat="47.5251" lon="-2.83598">
        <ele>59</ele>
        <time>2025-05-13T13:30:20Z</time>
      </trkpt>
      <trkpt lat="47.52506" lon="-2.83595">
        <ele>59</ele>
        <time>2025-05-13T13:30:21Z</time>
      </trkpt>
      <trkpt lat="47.52503" lon="-2.83592">
        <ele>59</ele>
        <time>2025-05-13T13:30:22Z</time>
      </trkpt>
      <trkpt lat="47.525" lon="-2.8359">
        <ele>58</ele>
        <time>2025-05-13T13:30:23Z</time>
      </trkpt>
      <trkpt lat="47.52497" lon="-2.83588">
        <ele>58</ele>
        <time>2025-05-13T13:30:24Z</time>
      </trkpt>
      <trkpt lat="47.52493" lon="-2.83585">
        <ele>57</ele>
        <time>2025-05-13T13:30:25Z</time>
      </trkpt>
      <trkpt lat="47.5249" lon="-2.83582">
        <ele>57</ele>
        <time>2025-05-13T13:30:26Z</time>
      </trkpt>
      <trkpt lat="47.52485" lon="-2.83578">
        <ele>57</ele>
        <time>2025-05-13T13:30:27Z</time>
      </trkpt>
      <trkpt lat="47.52482" lon="-2.83575">
        <ele>57</ele>
        <time>2025-05-13T13:30:28Z</time>
      </trkpt>
      <trkpt lat="47.52478" lon="-2.83571">
        <ele>57</ele>
        <time>2025-05-13T13:30:29Z</time>
      </trkpt>
      <trkpt lat="47.52475" lon="-2.83568">
        <ele>57</ele>
        <time>2025-05-13T13:30:30Z</time>
      </trkpt>
      <trkpt lat="47.52472" lon="-2.83565">
        <ele>58</ele>
        <time>2025-05-13T13:30:31Z</time>
      </trkpt>
      <trkpt lat="47.52468" lon="-2.83562">
        <ele>58</ele>
        <time>2025-05-13T13:30:32Z</time>
      </trkpt>
      <trkpt lat="47.52465" lon="-2.83558">
        <ele>58</ele>
        <time>2025-05-13T13:30:33Z</time>
      </trkpt>
      <trkpt lat="47.52462" lon="-2.83555">
        <ele>58</ele>
        <time>2025-05-13T13:30:34Z</time>
      </trkpt>
      <trkpt lat="47.52458" lon="-2.83553">
        <ele>59</ele>
        <time>2025-05-13T13:30:35Z</time>
      </trkpt>
      <trkpt lat="47.52455" lon="-2.8355">
        <ele>59</ele>
        <time>2025-05-13T13:30:36Z</time>
      </trkpt>
      <trkpt lat="47.52452" lon="-2.83547">
        <ele>59</ele>
        <time>2025-05-13T13:30:37Z</time>
      </trkpt>
      <trkpt lat="47.52449" lon="-2.83544">
        <ele>59</ele>
        <time>2025-05-13T13:30:38Z</time>
      </trkpt>
      <trkpt lat="47.52446" lon="-2.83542">
        <ele>59</ele>
        <time>2025-05-13T13:30:39Z</time>
      </trkpt>
      <trkpt lat="47.52443" lon="-2.83539">
        <ele>59</ele>
        <time>2025-05-13T13:30:40Z</time>
      </trkpt>
      <trkpt lat="47.5244" lon="-2.83537">
        <ele>59</ele>
        <time>2025-05-13T13:30:41Z</time>
      </trkpt>
      <trkpt lat="47.52436" lon="-2.83535">
        <ele>59</ele>
        <time>2025-05-13T13:30:42Z</time>
      </trkpt>
      <trkpt lat="47.52433" lon="-2.83532">
        <ele>58</ele>
        <time>2025-05-13T13:30:43Z</time>
      </trkpt>
      <trkpt lat="47.52429" lon="-2.8353">
        <ele>57</ele>
        <time>2025-05-13T13:30:44Z</time>
      </trkpt>
      <trkpt lat="47.52426" lon="-2.83526">
        <ele>57</ele>
        <time>2025-05-13T13:30:45Z</time>
      </trkpt>
      <trkpt lat="47.52422" lon="-2.83524">
        <ele>56</ele>
        <time>2025-05-13T13:30:46Z</time>
      </trkpt>
      <trkpt lat="47.5242" lon="-2.83522">
        <ele>56</ele>
        <time>2025-05-13T13:30:47Z</time>
      </trkpt>
      <trkpt lat="47.52417" lon="-2.83519">
        <ele>56</ele>
        <time>2025-05-13T13:30:48Z</time>
      </trkpt>
      <trkpt lat="47.52414" lon="-2.83517">
        <ele>56</ele>
        <time>2025-05-13T13:30:49Z</time>
      </trkpt>
      <trkpt lat="47.52411" lon="-2.83515">
        <ele>56</ele>
        <time>2025-05-13T13:30:50Z</time>
      </trkpt>
      <trkpt lat="47.52408" lon="-2.83513">
        <ele>56</ele>
        <time>2025-05-13T13:30:51Z</time>
      </trkpt>
      <trkpt lat="47.52406" lon="-2.83511">
        <ele>56</ele>
        <time>2025-05-13T13:30:52Z</time>
      </trkpt>
      <trkpt lat="47.52403" lon="-2.83508">
        <ele>56</ele>
        <time>2025-05-13T13:30:53Z</time>
      </trkpt>
      <trkpt lat="47.52401" lon="-2.83506">
        <ele>56</ele>
        <time>2025-05-13T13:30:54Z</time>
      </trkpt>
      <trkpt lat="47.52399" lon="-2.83504">
        <ele>56</ele>
        <time>2025-05-13T13:30:55Z</time>
      </trkpt>
      <trkpt lat="47.52398" lon="-2.83502">
        <ele>56</ele>
        <time>2025-05-13T13:30:56Z</time>
      </trkpt>
      <trkpt lat="47.52397" lon="-2.83499">
        <ele>56</ele>
        <time>2025-05-13T13:30:57Z</time>
      </trkpt>
      <trkpt lat="47.52395" lon="-2.83497">
        <ele>56</ele>
        <time>2025-05-13T13:30:58Z</time>
      </trkpt>
      <trkpt lat="47.52394" lon="-2.83494">
        <ele>56</ele>
        <time>2025-05-13T13:30:59Z</time>
      </trkpt>
      <trkpt lat="47.52393" lon="-2.8349">
        <ele>56</ele>
        <time>2025-05-13T13:31:00Z</time>
      </trkpt>
      <trkpt lat="47.52392" lon="-2.83486">
        <ele>56</ele>
        <time>2025-05-13T13:31:01Z</time>
      </trkpt>
      <trkpt lat="47.5239" lon="-2.83482">
        <ele>56</ele>
        <time>2025-05-13T13:31:02Z</time>
      </trkpt>
      <trkpt lat="47.52389" lon="-2.83479">
        <ele>56</ele>
        <time>2025-05-13T13:31:03Z</time>
      </trkpt>
      <trkpt lat="47.52388" lon="-2.83474">
        <ele>55</ele>
        <time>2025-05-13T13:31:04Z</time>
      </trkpt>
      <trkpt lat="47.52387" lon="-2.8347">
        <ele>56</ele>
        <time>2025-05-13T13:31:05Z</time>
      </trkpt>
      <trkpt lat="47.52385" lon="-2.83465">
        <ele>56</ele>
        <time>2025-05-13T13:31:06Z</time>
      </trkpt>
      <trkpt lat="47.52384" lon="-2.83461">
        <ele>56</ele>
        <time>2025-05-13T13:31:07Z</time>
      </trkpt>
      <trkpt lat="47.52382" lon="-2.83456">
        <ele>56</ele>
        <time>2025-05-13T13:31:08Z</time>
      </trkpt>
      <trkpt lat="47.5238" lon="-2.83451">
        <ele>56</ele>
        <time>2025-05-13T13:31:09Z</time>
      </trkpt>
      <trkpt lat="47.52378" lon="-2.83446">
        <ele>57</ele>
        <time>2025-05-13T13:31:10Z</time>
      </trkpt>
      <trkpt lat="47.52376" lon="-2.8344">
        <ele>57</ele>
        <time>2025-05-13T13:31:11Z</time>
      </trkpt>
      <trkpt lat="47.52374" lon="-2.83434">
        <ele>57</ele>
        <time>2025-05-13T13:31:12Z</time>
      </trkpt>
      <trkpt lat="47.52372" lon="-2.83428">
        <ele>57</ele>
        <time>2025-05-13T13:31:13Z</time>
      </trkpt>
      <trkpt lat="47.5237" lon="-2.83422">
        <ele>56</ele>
        <time>2025-05-13T13:31:14Z</time>
      </trkpt>
      <trkpt lat="47.52368" lon="-2.83416">
        <ele>56</ele>
        <time>2025-05-13T13:31:15Z</time>
      </trkpt>
      <trkpt lat="47.52366" lon="-2.8341">
        <ele>56</ele>
        <time>2025-05-13T13:31:16Z</time>
      </trkpt>
      <trkpt lat="47.52363" lon="-2.83403">
        <ele>56</ele>
        <time>2025-05-13T13:31:17Z</time>
      </trkpt>
      <trkpt lat="47.52361" lon="-2.83397">
        <ele>56</ele>
        <time>2025-05-13T13:31:18Z</time>
      </trkpt>
      <trkpt lat="47.52357" lon="-2.83391">
        <ele>56</ele>
        <time>2025-05-13T13:31:19Z</time>
      </trkpt>
      <trkpt lat="47.52354" lon="-2.83386">
        <ele>56</ele>
        <time>2025-05-13T13:31:20Z</time>
      </trkpt>
      <trkpt lat="47.5235" lon="-2.83381">
        <ele>56</ele>
        <time>2025-05-13T13:31:21Z</time>
      </trkpt>
      <trkpt lat="47.52347" lon="-2.83376">
        <ele>56</ele>
        <time>2025-05-13T13:31:22Z</time>
      </trkpt>
      <trkpt lat="47.52343" lon="-2.83371">
        <ele>56</ele>
        <time>2025-05-13T13:31:23Z</time>
      </trkpt>
      <trkpt lat="47.5234" lon="-2.83366">
        <ele>56</ele>
        <time>2025-05-13T13:31:24Z</time>
      </trkpt>
      <trkpt lat="47.52336" lon="-2.83361">
        <ele>56</ele>
        <time>2025-05-13T13:31:25Z</time>
      </trkpt>
      <trkpt lat="47.52333" lon="-2.83356">
        <ele>56</ele>
        <time>2025-05-13T13:31:26Z</time>
      </trkpt>
      <trkpt lat="47.5233" lon="-2.83352">
        <ele>56</ele>
        <time>2025-05-13T13:31:27Z</time>
      </trkpt>
      <trkpt lat="47.52327" lon="-2.83347">
        <ele>56</ele>
        <time>2025-05-13T13:31:28Z</time>
      </trkpt>
      <trkpt lat="47.52324" lon="-2.83342">
        <ele>56</ele>
        <time>2025-05-13T13:31:29Z</time>
      </trkpt>
      <trkpt lat="47.52321" lon="-2.83337">
        <ele>55</ele>
        <time>2025-05-13T13:31:30Z</time>
      </trkpt>
      <trkpt lat="47.52318" lon="-2.83332">
        <ele>55</ele>
        <time>2025-05-13T13:31:31Z</time>
      </trkpt>
      <trkpt lat="47.52316" lon="-2.83326">
        <ele>55</ele>
        <time>2025-05-13T13:31:32Z</time>
      </trkpt>
      <trkpt lat="47.52314" lon="-2.83321">
        <ele>55</ele>
        <time>2025-05-13T13:31:33Z</time>
      </trkpt>
      <trkpt lat="47.52312" lon="-2.83315">
        <ele>54</ele>
        <time>2025-05-13T13:31:34Z</time>
      </trkpt>
      <trkpt lat="47.5231" lon="-2.83309">
        <ele>54</ele>
        <time>2025-05-13T13:31:35Z</time>
      </trkpt>
      <trkpt lat="47.52309" lon="-2.83303">
        <ele>54</ele>
        <time>2025-05-13T13:31:36Z</time>
      </trkpt>
      <trkpt lat="47.52308" lon="-2.83298">
        <ele>54</ele>
        <time>2025-05-13T13:31:37Z</time>
      </trkpt>
      <trkpt lat="47.52307" lon="-2.83292">
        <ele>53</ele>
        <time>2025-05-13T13:31:38Z</time>
      </trkpt>
      <trkpt lat="47.52306" lon="-2.83287">
        <ele>53</ele>
        <time>2025-05-13T13:31:39Z</time>
      </trkpt>
      <trkpt lat="47.52305" lon="-2.83281">
        <ele>53</ele>
        <time>2025-05-13T13:31:40Z</time>
      </trkpt>
      <trkpt lat="47.52304" lon="-2.83275">
        <ele>53</ele>
        <time>2025-05-13T13:31:41Z</time>
      </trkpt>
      <trkpt lat="47.52303" lon="-2.83268">
        <ele>53</ele>
        <time>2025-05-13T13:31:42Z</time>
      </trkpt>
      <trkpt lat="47.52303" lon="-2.83262">
        <ele>53</ele>
        <time>2025-05-13T13:31:43Z</time>
      </trkpt>
      <trkpt lat="47.52302" lon="-2.83255">
        <ele>52</ele>
        <time>2025-05-13T13:31:44Z</time>
      </trkpt>
      <trkpt lat="47.52301" lon="-2.83248">
        <ele>51</ele>
        <time>2025-05-13T13:31:45Z</time>
      </trkpt>
      <trkpt lat="47.523" lon="-2.8324">
        <ele>52</ele>
        <time>2025-05-13T13:31:46Z</time>
      </trkpt>
      <trkpt lat="47.523" lon="-2.83233">
        <ele>51</ele>
        <time>2025-05-13T13:31:47Z</time>
      </trkpt>
      <trkpt lat="47.52299" lon="-2.83226">
        <ele>51</ele>
        <time>2025-05-13T13:31:48Z</time>
      </trkpt>
      <trkpt lat="47.52298" lon="-2.8322">
        <ele>50</ele>
        <time>2025-05-13T13:31:49Z</time>
      </trkpt>
      <trkpt lat="47.52297" lon="-2.83214">
        <ele>49</ele>
        <time>2025-05-13T13:31:50Z</time>
      </trkpt>
      <trkpt lat="47.52297" lon="-2.83206">
        <ele>49</ele>
        <time>2025-05-13T13:31:51Z</time>
      </trkpt>
      <trkpt lat="47.52296" lon="-2.83198">
        <ele>50</ele>
        <time>2025-05-13T13:31:52Z</time>
      </trkpt>
      <trkpt lat="47.52295" lon="-2.8319">
        <ele>50</ele>
        <time>2025-05-13T13:31:53Z</time>
      </trkpt>
      <trkpt lat="47.52294" lon="-2.83183">
        <ele>51</ele>
        <time>2025-05-13T13:31:54Z</time>
      </trkpt>
      <trkpt lat="47.52292" lon="-2.83175">
        <ele>52</ele>
        <time>2025-05-13T13:31:55Z</time>
      </trkpt>
      <trkpt lat="47.52291" lon="-2.83168">
        <ele>52</ele>
        <time>2025-05-13T13:31:56Z</time>
      </trkpt>
      <trkpt lat="47.5229" lon="-2.8316">
        <ele>53</ele>
        <time>2025-05-13T13:31:57Z</time>
      </trkpt>
      <trkpt lat="47.52289" lon="-2.83153">
        <ele>54</ele>
        <time>2025-05-13T13:31:58Z</time>
      </trkpt>
      <trkpt lat="47.52288" lon="-2.83145">
        <ele>55</ele>
        <time>2025-05-13T13:31:59Z</time>
      </trkpt>
      <trkpt lat="47.52287" lon="-2.83139">
        <ele>55</ele>
        <time>2025-05-13T13:32:00Z</time>
      </trkpt>
      <trkpt lat="47.52286" lon="-2.83133">
        <ele>54</ele>
        <time>2025-05-13T13:32:01Z</time>
      </trkpt>
      <trkpt lat="47.52285" lon="-2.83127">
        <ele>54</ele>
        <time>2025-05-13T13:32:02Z</time>
      </trkpt>
      <trkpt lat="47.52284" lon="-2.83121">
        <ele>54</ele>
        <time>2025-05-13T13:32:03Z</time>
      </trkpt>
      <trkpt lat="47.52283" lon="-2.83115">
        <ele>54</ele>
        <time>2025-05-13T13:32:04Z</time>
      </trkpt>
      <trkpt lat="47.52283" lon="-2.83108">
        <ele>53</ele>
        <time>2025-05-13T13:32:05Z</time>
      </trkpt>
      <trkpt lat="47.52282" lon="-2.83102">
        <ele>53</ele>
        <time>2025-05-13T13:32:06Z</time>
      </trkpt>
      <trkpt lat="47.52281" lon="-2.83095">
        <ele>53</ele>
        <time>2025-05-13T13:32:07Z</time>
      </trkpt>
      <trkpt lat="47.5228" lon="-2.83089">
        <ele>53</ele>
        <time>2025-05-13T13:32:08Z</time>
      </trkpt>
      <trkpt lat="47.5228" lon="-2.83083">
        <ele>53</ele>
        <time>2025-05-13T13:32:09Z</time>
      </trkpt>
      <trkpt lat="47.5228" lon="-2.83077">
        <ele>53</ele>
        <time>2025-05-13T13:32:10Z</time>
      </trkpt>
      <trkpt lat="47.52279" lon="-2.83071">
        <ele>54</ele>
        <time>2025-05-13T13:32:11Z</time>
      </trkpt>
      <trkpt lat="47.52279" lon="-2.83065">
        <ele>54</ele>
        <time>2025-05-13T13:32:12Z</time>
      </trkpt>
      <trkpt lat="47.52278" lon="-2.8306">
        <ele>54</ele>
        <time>2025-05-13T13:32:13Z</time>
      </trkpt>
      <trkpt lat="47.52277" lon="-2.83054">
        <ele>54</ele>
        <time>2025-05-13T13:32:14Z</time>
      </trkpt>
      <trkpt lat="47.52276" lon="-2.83049">
        <ele>55</ele>
        <time>2025-05-13T13:32:15Z</time>
      </trkpt>
      <trkpt lat="47.52275" lon="-2.83044">
        <ele>55</ele>
        <time>2025-05-13T13:32:16Z</time>
      </trkpt>
      <trkpt lat="47.52274" lon="-2.8304">
        <ele>55</ele>
        <time>2025-05-13T13:32:17Z</time>
      </trkpt>
      <trkpt lat="47.52272" lon="-2.83035">
        <ele>55</ele>
        <time>2025-05-13T13:32:18Z</time>
      </trkpt>
      <trkpt lat="47.52271" lon="-2.83032">
        <ele>54</ele>
        <time>2025-05-13T13:32:19Z</time>
      </trkpt>
      <trkpt lat="47.52269" lon="-2.83029">
        <ele>54</ele>
        <time>2025-05-13T13:32:20Z</time>
      </trkpt>
      <trkpt lat="47.52267" lon="-2.83025">
        <ele>54</ele>
        <time>2025-05-13T13:32:21Z</time>
      </trkpt>
      <trkpt lat="47.52265" lon="-2.83022">
        <ele>54</ele>
        <time>2025-05-13T13:32:22Z</time>
      </trkpt>
      <trkpt lat="47.52263" lon="-2.8302">
        <ele>54</ele>
        <time>2025-05-13T13:32:23Z</time>
      </trkpt>
      <trkpt lat="47.5226" lon="-2.83017">
        <ele>54</ele>
        <time>2025-05-13T13:32:24Z</time>
      </trkpt>
      <trkpt lat="47.52257" lon="-2.83014">
        <ele>54</ele>
        <time>2025-05-13T13:32:25Z</time>
      </trkpt>
      <trkpt lat="47.52255" lon="-2.83012">
        <ele>54</ele>
        <time>2025-05-13T13:32:26Z</time>
      </trkpt>
      <trkpt lat="47.52252" lon="-2.8301">
        <ele>55</ele>
        <time>2025-05-13T13:32:27Z</time>
      </trkpt>
      <trkpt lat="47.52249" lon="-2.83007">
        <ele>55</ele>
        <time>2025-05-13T13:32:28Z</time>
      </trkpt>
      <trkpt lat="47.52247" lon="-2.83005">
        <ele>55</ele>
        <time>2025-05-13T13:32:29Z</time>
      </trkpt>
      <trkpt lat="47.52244" lon="-2.83003">
        <ele>55</ele>
        <time>2025-05-13T13:32:30Z</time>
      </trkpt>
      <trkpt lat="47.52241" lon="-2.83">
        <ele>55</ele>
        <time>2025-05-13T13:32:31Z</time>
      </trkpt>
      <trkpt lat="47.52239" lon="-2.82997">
        <ele>56</ele>
        <time>2025-05-13T13:32:32Z</time>
      </trkpt>
      <trkpt lat="47.52236" lon="-2.82995">
        <ele>56</ele>
        <time>2025-05-13T13:32:33Z</time>
      </trkpt>
      <trkpt lat="47.52233" lon="-2.82992">
        <ele>56</ele>
        <time>2025-05-13T13:32:34Z</time>
      </trkpt>
      <trkpt lat="47.5223" lon="-2.82989">
        <ele>57</ele>
        <time>2025-05-13T13:32:35Z</time>
      </trkpt>
      <trkpt lat="47.52227" lon="-2.82987">
        <ele>57</ele>
        <time>2025-05-13T13:32:36Z</time>
      </trkpt>
      <trkpt lat="47.52225" lon="-2.82984">
        <ele>58</ele>
        <time>2025-05-13T13:32:37Z</time>
      </trkpt>
      <trkpt lat="47.52222" lon="-2.82981">
        <ele>58</ele>
        <time>2025-05-13T13:32:38Z</time>
      </trkpt>
      <trkpt lat="47.52219" lon="-2.82978">
        <ele>58</ele>
        <time>2025-05-13T13:32:39Z</time>
      </trkpt>
      <trkpt lat="47.52217" lon="-2.82975">
        <ele>58</ele>
        <time>2025-05-13T13:32:40Z</time>
      </trkpt>
      <trkpt lat="47.52214" lon="-2.82973">
        <ele>58</ele>
        <time>2025-05-13T13:32:41Z</time>
      </trkpt>
      <trkpt lat="47.52212" lon="-2.82971">
        <ele>58</ele>
        <time>2025-05-13T13:32:42Z</time>
      </trkpt>
      <trkpt lat="47.52209" lon="-2.82968">
        <ele>58</ele>
        <time>2025-05-13T13:32:43Z</time>
      </trkpt>
      <trkpt lat="47.52207" lon="-2.82966">
        <ele>59</ele>
        <time>2025-05-13T13:32:44Z</time>
      </trkpt>
      <trkpt lat="47.52204" lon="-2.82962">
        <ele>59</ele>
        <time>2025-05-13T13:32:45Z</time>
      </trkpt>
      <trkpt lat="47.52201" lon="-2.8296">
        <ele>59</ele>
        <time>2025-05-13T13:32:46Z</time>
      </trkpt>
      <trkpt lat="47.52199" lon="-2.82957">
        <ele>59</ele>
        <time>2025-05-13T13:32:47Z</time>
      </trkpt>
      <trkpt lat="47.52196" lon="-2.82955">
        <ele>59</ele>
        <time>2025-05-13T13:32:48Z</time>
      </trkpt>
      <trkpt lat="47.52193" lon="-2.82952">
        <ele>59</ele>
        <time>2025-05-13T13:32:49Z</time>
      </trkpt>
      <trkpt lat="47.52191" lon="-2.82949">
        <ele>60</ele>
        <time>2025-05-13T13:32:50Z</time>
      </trkpt>
      <trkpt lat="47.52188" lon="-2.82946">
        <ele>60</ele>
        <time>2025-05-13T13:32:51Z</time>
      </trkpt>
      <trkpt lat="47.52185" lon="-2.82944">
        <ele>61</ele>
        <time>2025-05-13T13:32:52Z</time>
      </trkpt>
      <trkpt lat="47.52182" lon="-2.82941">
        <ele>61</ele>
        <time>2025-05-13T13:32:53Z</time>
      </trkpt>
      <trkpt lat="47.5218" lon="-2.82939">
        <ele>62</ele>
        <time>2025-05-13T13:32:54Z</time>
      </trkpt>
      <trkpt lat="47.52176" lon="-2.82938">
        <ele>62</ele>
        <time>2025-05-13T13:32:55Z</time>
      </trkpt>
      <trkpt lat="47.52173" lon="-2.82937">
        <ele>62</ele>
        <time>2025-05-13T13:32:56Z</time>
      </trkpt>
      <trkpt lat="47.5217" lon="-2.82935">
        <ele>62</ele>
        <time>2025-05-13T13:32:57Z</time>
      </trkpt>
      <trkpt lat="47.52167" lon="-2.82934">
        <ele>62</ele>
        <time>2025-05-13T13:32:58Z</time>
      </trkpt>
      <trkpt lat="47.52164" lon="-2.82932">
        <ele>62</ele>
        <time>2025-05-13T13:32:59Z</time>
      </trkpt>
      <trkpt lat="47.52161" lon="-2.82931">
        <ele>62</ele>
        <time>2025-05-13T13:33:00Z</time>
      </trkpt>
      <trkpt lat="47.52158" lon="-2.8293">
        <ele>62</ele>
        <time>2025-05-13T13:33:01Z</time>
      </trkpt>
      <trkpt lat="47.52155" lon="-2.82928">
        <ele>62</ele>
        <time>2025-05-13T13:33:02Z</time>
      </trkpt>
      <trkpt lat="47.52153" lon="-2.82927">
        <ele>62</ele>
        <time>2025-05-13T13:33:03Z</time>
      </trkpt>
      <trkpt lat="47.5215" lon="-2.82926">
        <ele>62</ele>
        <time>2025-05-13T13:33:04Z</time>
      </trkpt>
      <trkpt lat="47.52148" lon="-2.82924">
        <ele>63</ele>
        <time>2025-05-13T13:33:05Z</time>
      </trkpt>
      <trkpt lat="47.52145" lon="-2.82922">
        <ele>63</ele>
        <time>2025-05-13T13:33:06Z</time>
      </trkpt>
      <trkpt lat="47.52143" lon="-2.8292">
        <ele>63</ele>
        <time>2025-05-13T13:33:07Z</time>
      </trkpt>
      <trkpt lat="47.5214" lon="-2.82919">
        <ele>63</ele>
        <time>2025-05-13T13:33:08Z</time>
      </trkpt>
      <trkpt lat="47.52138" lon="-2.82918">
        <ele>63</ele>
        <time>2025-05-13T13:33:09Z</time>
      </trkpt>
      <trkpt lat="47.52136" lon="-2.82916">
        <ele>64</ele>
        <time>2025-05-13T13:33:10Z</time>
      </trkpt>
      <trkpt lat="47.52133" lon="-2.82915">
        <ele>64</ele>
        <time>2025-05-13T13:33:11Z</time>
      </trkpt>
      <trkpt lat="47.52131" lon="-2.82914">
        <ele>64</ele>
        <time>2025-05-13T13:33:12Z</time>
      </trkpt>
      <trkpt lat="47.52129" lon="-2.82913">
        <ele>64</ele>
        <time>2025-05-13T13:33:13Z</time>
      </trkpt>
      <trkpt lat="47.52127" lon="-2.82912">
        <ele>64</ele>
        <time>2025-05-13T13:33:14Z</time>
      </trkpt>
      <trkpt lat="47.52125" lon="-2.8291">
        <ele>64</ele>
        <time>2025-05-13T13:33:15Z</time>
      </trkpt>
      <trkpt lat="47.52123" lon="-2.82909">
        <ele>65</ele>
        <time>2025-05-13T13:33:16Z</time>
      </trkpt>
      <trkpt lat="47.52121" lon="-2.82907">
        <ele>65</ele>
        <time>2025-05-13T13:33:17Z</time>
      </trkpt>
      <trkpt lat="47.5212" lon="-2.82905">
        <ele>65</ele>
        <time>2025-05-13T13:33:18Z</time>
      </trkpt>
      <trkpt lat="47.52118" lon="-2.82903">
        <ele>65</ele>
        <time>2025-05-13T13:33:19Z</time>
      </trkpt>
      <trkpt lat="47.52116" lon="-2.82902">
        <ele>65</ele>
        <time>2025-05-13T13:33:20Z</time>
      </trkpt>
      <trkpt lat="47.52114" lon="-2.82899">
        <ele>65</ele>
        <time>2025-05-13T13:33:21Z</time>
      </trkpt>
      <trkpt lat="47.52113" lon="-2.82897">
        <ele>65</ele>
        <time>2025-05-13T13:33:22Z</time>
      </trkpt>
      <trkpt lat="47.52111" lon="-2.82895">
        <ele>65</ele>
        <time>2025-05-13T13:33:23Z</time>
      </trkpt>
      <trkpt lat="47.52109" lon="-2.82892">
        <ele>65</ele>
        <time>2025-05-13T13:33:24Z</time>
      </trkpt>
      <trkpt lat="47.52108" lon="-2.8289">
        <ele>65</ele>
        <time>2025-05-13T13:33:25Z</time>
      </trkpt>
      <trkpt lat="47.52106" lon="-2.82887">
        <ele>65</ele>
        <time>2025-05-13T13:33:26Z</time>
      </trkpt>
      <trkpt lat="47.52105" lon="-2.82885">
        <ele>65</ele>
        <time>2025-05-13T13:33:27Z</time>
      </trkpt>
      <trkpt lat="47.52104" lon="-2.82882">
        <ele>65</ele>
        <time>2025-05-13T13:33:28Z</time>
      </trkpt>
      <trkpt lat="47.52103" lon="-2.82879">
        <ele>66</ele>
        <time>2025-05-13T13:33:29Z</time>
      </trkpt>
      <trkpt lat="47.52101" lon="-2.82876">
        <ele>66</ele>
        <time>2025-05-13T13:33:30Z</time>
      </trkpt>
      <trkpt lat="47.521" lon="-2.82874">
        <ele>67</ele>
        <time>2025-05-13T13:33:31Z</time>
      </trkpt>
      <trkpt lat="47.52098" lon="-2.82871">
        <ele>67</ele>
        <time>2025-05-13T13:33:32Z</time>
      </trkpt>
      <trkpt lat="47.52097" lon="-2.82868">
        <ele>67</ele>
        <time>2025-05-13T13:33:33Z</time>
      </trkpt>
      <trkpt lat="47.52096" lon="-2.82865">
        <ele>67</ele>
        <time>2025-05-13T13:33:34Z</time>
      </trkpt>
      <trkpt lat="47.52095" lon="-2.82863">
        <ele>67</ele>
        <time>2025-05-13T13:33:35Z</time>
      </trkpt>
      <trkpt lat="47.52093" lon="-2.8286">
        <ele>67</ele>
        <time>2025-05-13T13:33:36Z</time>
      </trkpt>
      <trkpt lat="47.52092" lon="-2.82858">
        <ele>67</ele>
        <time>2025-05-13T13:33:37Z</time>
      </trkpt>
      <trkpt lat="47.5209" lon="-2.82855">
        <ele>66</ele>
        <time>2025-05-13T13:33:38Z</time>
      </trkpt>
      <trkpt lat="47.52088" lon="-2.82853">
        <ele>67</ele>
        <time>2025-05-13T13:33:39Z</time>
      </trkpt>
      <trkpt lat="47.52087" lon="-2.8285">
        <ele>67</ele>
        <time>2025-05-13T13:33:40Z</time>
      </trkpt>
      <trkpt lat="47.52086" lon="-2.82847">
        <ele>67</ele>
        <time>2025-05-13T13:33:41Z</time>
      </trkpt>
      <trkpt lat="47.52085" lon="-2.82844">
        <ele>67</ele>
        <time>2025-05-13T13:33:42Z</time>
      </trkpt>
      <trkpt lat="47.52084" lon="-2.82841">
        <ele>67</ele>
        <time>2025-05-13T13:33:43Z</time>
      </trkpt>
      <trkpt lat="47.52083" lon="-2.82838">
        <ele>67</ele>
        <time>2025-05-13T13:33:44Z</time>
      </trkpt>
      <trkpt lat="47.52081" lon="-2.82834">
        <ele>67</ele>
        <time>2025-05-13T13:33:45Z</time>
      </trkpt>
      <trkpt lat="47.5208" lon="-2.82831">
        <ele>67</ele>
        <time>2025-05-13T13:33:46Z</time>
      </trkpt>
      <trkpt lat="47.52079" lon="-2.82828">
        <ele>67</ele>
        <time>2025-05-13T13:33:47Z</time>
      </trkpt>
      <trkpt lat="47.52078" lon="-2.82825">
        <ele>67</ele>
        <time>2025-05-13T13:33:48Z</time>
      </trkpt>
      <trkpt lat="47.52077" lon="-2.82823">
        <ele>67</ele>
        <time>2025-05-13T13:33:49Z</time>
      </trkpt>
      <trkpt lat="47.52075" lon="-2.8282">
        <ele>68</ele>
        <time>2025-05-13T13:33:50Z</time>
      </trkpt>
      <trkpt lat="47.52073" lon="-2.82817">
        <ele>68</ele>
        <time>2025-05-13T13:33:51Z</time>
      </trkpt>
      <trkpt lat="47.52072" lon="-2.82814">
        <ele>67</ele>
        <time>2025-05-13T13:33:52Z</time>
      </trkpt>
      <trkpt lat="47.5207" lon="-2.82812">
        <ele>67</ele>
        <time>2025-05-13T13:33:53Z</time>
      </trkpt>
      <trkpt lat="47.52069" lon="-2.82809">
        <ele>67</ele>
        <time>2025-05-13T13:33:54Z</time>
      </trkpt>
      <trkpt lat="47.52068" lon="-2.82806">
        <ele>67</ele>
        <time>2025-05-13T13:33:55Z</time>
      </trkpt>
      <trkpt lat="47.52067" lon="-2.82804">
        <ele>67</ele>
        <time>2025-05-13T13:33:56Z</time>
      </trkpt>
      <trkpt lat="47.52066" lon="-2.828">
        <ele>67</ele>
        <time>2025-05-13T13:33:57Z</time>
      </trkpt>
      <trkpt lat="47.52065" lon="-2.82798">
        <ele>67</ele>
        <time>2025-05-13T13:33:58Z</time>
      </trkpt>
      <trkpt lat="47.52064" lon="-2.82795">
        <ele>67</ele>
        <time>2025-05-13T13:33:59Z</time>
      </trkpt>
      <trkpt lat="47.52063" lon="-2.82792">
        <ele>67</ele>
        <time>2025-05-13T13:34:00Z</time>
      </trkpt>
      <trkpt lat="47.52061" lon="-2.82789">
        <ele>67</ele>
        <time>2025-05-13T13:34:01Z</time>
      </trkpt>
      <trkpt lat="47.5206" lon="-2.82786">
        <ele>67</ele>
        <time>2025-05-13T13:34:02Z</time>
      </trkpt>
      <trkpt lat="47.52058" lon="-2.82783">
        <ele>67</ele>
        <time>2025-05-13T13:34:03Z</time>
      </trkpt>
      <trkpt lat="47.52057" lon="-2.8278">
        <ele>68</ele>
        <time>2025-05-13T13:34:04Z</time>
      </trkpt>
      <trkpt lat="47.52056" lon="-2.82777">
        <ele>68</ele>
        <time>2025-05-13T13:34:05Z</time>
      </trkpt>
      <trkpt lat="47.52054" lon="-2.82775">
        <ele>69</ele>
        <time>2025-05-13T13:34:06Z</time>
      </trkpt>
      <trkpt lat="47.52053" lon="-2.82772">
        <ele>69</ele>
        <time>2025-05-13T13:34:07Z</time>
      </trkpt>
      <trkpt lat="47.52051" lon="-2.82769">
        <ele>69</ele>
        <time>2025-05-13T13:34:08Z</time>
      </trkpt>
      <trkpt lat="47.5205" lon="-2.82766">
        <ele>69</ele>
        <time>2025-05-13T13:34:09Z</time>
      </trkpt>
      <trkpt lat="47.52049" lon="-2.82763">
        <ele>70</ele>
        <time>2025-05-13T13:34:10Z</time>
      </trkpt>
      <trkpt lat="47.52047" lon="-2.8276">
        <ele>70</ele>
        <time>2025-05-13T13:34:11Z</time>
      </trkpt>
      <trkpt lat="47.52046" lon="-2.82757">
        <ele>70</ele>
        <time>2025-05-13T13:34:12Z</time>
      </trkpt>
      <trkpt lat="47.52045" lon="-2.82755">
        <ele>70</ele>
        <time>2025-05-13T13:34:13Z</time>
      </trkpt>
      <trkpt lat="47.52044" lon="-2.82752">
        <ele>70</ele>
        <time>2025-05-13T13:34:14Z</time>
      </trkpt>
      <trkpt lat="47.52043" lon="-2.82749">
        <ele>70</ele>
        <time>2025-05-13T13:34:15Z</time>
      </trkpt>
      <trkpt lat="47.52042" lon="-2.82746">
        <ele>70</ele>
        <time>2025-05-13T13:34:16Z</time>
      </trkpt>
      <trkpt lat="47.52041" lon="-2.82743">
        <ele>70</ele>
        <time>2025-05-13T13:34:17Z</time>
      </trkpt>
      <trkpt lat="47.5204" lon="-2.8274">
        <ele>71</ele>
        <time>2025-05-13T13:34:18Z</time>
      </trkpt>
      <trkpt lat="47.52038" lon="-2.82738">
        <ele>71</ele>
        <time>2025-05-13T13:34:19Z</time>
      </trkpt>
      <trkpt lat="47.52037" lon="-2.82736">
        <ele>71</ele>
        <time>2025-05-13T13:34:20Z</time>
      </trkpt>
      <trkpt lat="47.52035" lon="-2.82733">
        <ele>71</ele>
        <time>2025-05-13T13:34:21Z</time>
      </trkpt>
      <trkpt lat="47.52034" lon="-2.82731">
        <ele>71</ele>
        <time>2025-05-13T13:34:22Z</time>
      </trkpt>
      <trkpt lat="47.52033" lon="-2.82727">
        <ele>71</ele>
        <time>2025-05-13T13:34:23Z</time>
      </trkpt>
      <trkpt lat="47.52032" lon="-2.82724">
        <ele>71</ele>
        <time>2025-05-13T13:34:24Z</time>
      </trkpt>
      <trkpt lat="47.52031" lon="-2.82721">
        <ele>71</ele>
        <time>2025-05-13T13:34:25Z</time>
      </trkpt>
      <trkpt lat="47.5203" lon="-2.82718">
        <ele>71</ele>
        <time>2025-05-13T13:34:26Z</time>
      </trkpt>
      <trkpt lat="47.52029" lon="-2.82715">
        <ele>71</ele>
        <time>2025-05-13T13:34:27Z</time>
      </trkpt>
      <trkpt lat="47.52028" lon="-2.82712">
        <ele>71</ele>
        <time>2025-05-13T13:34:28Z</time>
      </trkpt>
      <trkpt lat="47.52027" lon="-2.82709">
        <ele>71</ele>
        <time>2025-05-13T13:34:29Z</time>
      </trkpt>
      <trkpt lat="47.52027" lon="-2.82706">
        <ele>71</ele>
        <time>2025-05-13T13:34:30Z</time>
      </trkpt>
      <trkpt lat="47.52026" lon="-2.82702">
        <ele>71</ele>
        <time>2025-05-13T13:34:31Z</time>
      </trkpt>
      <trkpt lat="47.52026" lon="-2.82699">
        <ele>71</ele>
        <time>2025-05-13T13:34:32Z</time>
      </trkpt>
      <trkpt lat="47.52026" lon="-2.82695">
        <ele>71</ele>
        <time>2025-05-13T13:34:33Z</time>
      </trkpt>
      <trkpt lat="47.52025" lon="-2.82692">
        <ele>71</ele>
        <time>2025-05-13T13:34:34Z</time>
      </trkpt>
      <trkpt lat="47.52025" lon="-2.82689">
        <ele>71</ele>
        <time>2025-05-13T13:34:35Z</time>
      </trkpt>
      <trkpt lat="47.52024" lon="-2.82686">
        <ele>71</ele>
        <time>2025-05-13T13:34:36Z</time>
      </trkpt>
      <trkpt lat="47.52023" lon="-2.82683">
        <ele>72</ele>
        <time>2025-05-13T13:34:37Z</time>
      </trkpt>
      <trkpt lat="47.52023" lon="-2.82679">
        <ele>72</ele>
        <time>2025-05-13T13:34:38Z</time>
      </trkpt>
      <trkpt lat="47.52022" lon="-2.82676">
        <ele>72</ele>
        <time>2025-05-13T13:34:39Z</time>
      </trkpt>
      <trkpt lat="47.52022" lon="-2.82672">
        <ele>72</ele>
        <time>2025-05-13T13:34:40Z</time>
      </trkpt>
      <trkpt lat="47.52022" lon="-2.82669">
        <ele>72</ele>
        <time>2025-05-13T13:34:41Z</time>
      </trkpt>
      <trkpt lat="47.52021" lon="-2.82666">
        <ele>72</ele>
        <time>2025-05-13T13:34:42Z</time>
      </trkpt>
      <trkpt lat="47.52021" lon="-2.82663">
        <ele>72</ele>
        <time>2025-05-13T13:34:43Z</time>
      </trkpt>
      <trkpt lat="47.5202" lon="-2.8266">
        <ele>72</ele>
        <time>2025-05-13T13:34:44Z</time>
      </trkpt>
      <trkpt lat="47.5202" lon="-2.82656">
        <ele>73</ele>
        <time>2025-05-13T13:34:45Z</time>
      </trkpt>
      <trkpt lat="47.52019" lon="-2.82653">
        <ele>73</ele>
        <time>2025-05-13T13:34:46Z</time>
      </trkpt>
      <trkpt lat="47.52018" lon="-2.8265">
        <ele>73</ele>
        <time>2025-05-13T13:34:47Z</time>
      </trkpt>
      <trkpt lat="47.52018" lon="-2.82647">
        <ele>73</ele>
        <time>2025-05-13T13:34:48Z</time>
      </trkpt>
      <trkpt lat="47.52017" lon="-2.82644">
        <ele>73</ele>
        <time>2025-05-13T13:34:49Z</time>
      </trkpt>
      <trkpt lat="47.52016" lon="-2.82641">
        <ele>74</ele>
        <time>2025-05-13T13:34:50Z</time>
      </trkpt>
      <trkpt lat="47.52015" lon="-2.82638">
        <ele>74</ele>
        <time>2025-05-13T13:34:51Z</time>
      </trkpt>
      <trkpt lat="47.52013" lon="-2.82636">
        <ele>74</ele>
        <time>2025-05-13T13:34:52Z</time>
      </trkpt>
      <trkpt lat="47.52012" lon="-2.82633">
        <ele>73</ele>
        <time>2025-05-13T13:34:53Z</time>
      </trkpt>
      <trkpt lat="47.52011" lon="-2.8263">
        <ele>73</ele>
        <time>2025-05-13T13:34:54Z</time>
      </trkpt>
      <trkpt lat="47.5201" lon="-2.82627">
        <ele>73</ele>
        <time>2025-05-13T13:34:55Z</time>
      </trkpt>
      <trkpt lat="47.52009" lon="-2.82625">
        <ele>74</ele>
        <time>2025-05-13T13:34:56Z</time>
      </trkpt>
      <trkpt lat="47.52008" lon="-2.82622">
        <ele>74</ele>
        <time>2025-05-13T13:34:57Z</time>
      </trkpt>
      <trkpt lat="47.52007" lon="-2.82619">
        <ele>74</ele>
        <time>2025-05-13T13:34:58Z</time>
      </trkpt>
      <trkpt lat="47.52006" lon="-2.82616">
        <ele>74</ele>
        <time>2025-05-13T13:34:59Z</time>
      </trkpt>
      <trkpt lat="47.52005" lon="-2.82612">
        <ele>74</ele>
        <time>2025-05-13T13:35:00Z</time>
      </trkpt>
      <trkpt lat="47.52004" lon="-2.82609">
        <ele>74</ele>
        <time>2025-05-13T13:35:01Z</time>
      </trkpt>
      <trkpt lat="47.52002" lon="-2.82606">
        <ele>74</ele>
        <time>2025-05-13T13:35:02Z</time>
      </trkpt>
      <trkpt lat="47.52001" lon="-2.82604">
        <ele>74</ele>
        <time>2025-05-13T13:35:03Z</time>
      </trkpt>
      <trkpt lat="47.52" lon="-2.82601">
        <ele>74</ele>
        <time>2025-05-13T13:35:04Z</time>
      </trkpt>
      <trkpt lat="47.51998" lon="-2.82599">
        <ele>74</ele>
        <time>2025-05-13T13:35:05Z</time>
      </trkpt>
      <trkpt lat="47.51997" lon="-2.82597">
        <ele>75</ele>
        <time>2025-05-13T13:35:06Z</time>
      </trkpt>
      <trkpt lat="47.51996" lon="-2.82594">
        <ele>75</ele>
        <time>2025-05-13T13:35:07Z</time>
      </trkpt>
      <trkpt lat="47.51994" lon="-2.82591">
        <ele>75</ele>
        <time>2025-05-13T13:35:08Z</time>
      </trkpt>
      <trkpt lat="47.51993" lon="-2.82588">
        <ele>75</ele>
        <time>2025-05-13T13:35:09Z</time>
      </trkpt>
      <trkpt lat="47.51992" lon="-2.82586">
        <ele>75</ele>
        <time>2025-05-13T13:35:10Z</time>
      </trkpt>
      <trkpt lat="47.51991" lon="-2.82583">
        <ele>74</ele>
        <time>2025-05-13T13:35:11Z</time>
      </trkpt>
      <trkpt lat="47.51989" lon="-2.8258">
        <ele>74</ele>
        <time>2025-05-13T13:35:12Z</time>
      </trkpt>
      <trkpt lat="47.51988" lon="-2.82577">
        <ele>74</ele>
        <time>2025-05-13T13:35:13Z</time>
      </trkpt>
      <trkpt lat="47.51987" lon="-2.82574">
        <ele>73</ele>
        <time>2025-05-13T13:35:14Z</time>
      </trkpt>
      <trkpt lat="47.51986" lon="-2.82571">
        <ele>73</ele>
        <time>2025-05-13T13:35:15Z</time>
      </trkpt>
      <trkpt lat="47.51984" lon="-2.82568">
        <ele>73</ele>
        <time>2025-05-13T13:35:16Z</time>
      </trkpt>
      <trkpt lat="47.51983" lon="-2.82565">
        <ele>73</ele>
        <time>2025-05-13T13:35:17Z</time>
      </trkpt>
      <trkpt lat="47.51982" lon="-2.82562">
        <ele>73</ele>
        <time>2025-05-13T13:35:18Z</time>
      </trkpt>
      <trkpt lat="47.51981" lon="-2.82558">
        <ele>73</ele>
        <time>2025-05-13T13:35:19Z</time>
      </trkpt>
      <trkpt lat="47.51979" lon="-2.82555">
        <ele>73</ele>
        <time>2025-05-13T13:35:20Z</time>
      </trkpt>
      <trkpt lat="47.51978" lon="-2.8255">
        <ele>73</ele>
        <time>2025-05-13T13:35:21Z</time>
      </trkpt>
      <trkpt lat="47.51977" lon="-2.82546">
        <ele>73</ele>
        <time>2025-05-13T13:35:22Z</time>
      </trkpt>
      <trkpt lat="47.51976" lon="-2.82542">
        <ele>73</ele>
        <time>2025-05-13T13:35:23Z</time>
      </trkpt>
      <trkpt lat="47.51974" lon="-2.82538">
        <ele>74</ele>
        <time>2025-05-13T13:35:24Z</time>
      </trkpt>
      <trkpt lat="47.51974" lon="-2.82534">
        <ele>74</ele>
        <time>2025-05-13T13:35:25Z</time>
      </trkpt>
      <trkpt lat="47.51973" lon="-2.8253">
        <ele>73</ele>
        <time>2025-05-13T13:35:26Z</time>
      </trkpt>
      <trkpt lat="47.51973" lon="-2.82526">
        <ele>74</ele>
        <time>2025-05-13T13:35:27Z</time>
      </trkpt>
      <trkpt lat="47.51971" lon="-2.82521">
        <ele>74</ele>
        <time>2025-05-13T13:35:28Z</time>
      </trkpt>
      <trkpt lat="47.51971" lon="-2.82517">
        <ele>74</ele>
        <time>2025-05-13T13:35:29Z</time>
      </trkpt>
      <trkpt lat="47.5197" lon="-2.82512">
        <ele>74</ele>
        <time>2025-05-13T13:35:30Z</time>
      </trkpt>
      <trkpt lat="47.51969" lon="-2.82508">
        <ele>74</ele>
        <time>2025-05-13T13:35:31Z</time>
      </trkpt>
      <trkpt lat="47.51968" lon="-2.82504">
        <ele>74</ele>
        <time>2025-05-13T13:35:32Z</time>
      </trkpt>
      <trkpt lat="47.51967" lon="-2.82499">
        <ele>74</ele>
        <time>2025-05-13T13:35:33Z</time>
      </trkpt>
      <trkpt lat="47.51966" lon="-2.82495">
        <ele>75</ele>
        <time>2025-05-13T13:35:34Z</time>
      </trkpt>
      <trkpt lat="47.51964" lon="-2.8249">
        <ele>75</ele>
        <time>2025-05-13T13:35:35Z</time>
      </trkpt>
      <trkpt lat="47.51964" lon="-2.82486">
        <ele>75</ele>
        <time>2025-05-13T13:35:36Z</time>
      </trkpt>
      <trkpt lat="47.51963" lon="-2.82481">
        <ele>75</ele>
        <time>2025-05-13T13:35:37Z</time>
      </trkpt>
      <trkpt lat="47.51962" lon="-2.82476">
        <ele>75</ele>
        <time>2025-05-13T13:35:38Z</time>
      </trkpt>
      <trkpt lat="47.51961" lon="-2.82472">
        <ele>75</ele>
        <time>2025-05-13T13:35:39Z</time>
      </trkpt>
      <trkpt lat="47.51961" lon="-2.82467">
        <ele>74</ele>
        <time>2025-05-13T13:35:40Z</time>
      </trkpt>
      <trkpt lat="47.5196" lon="-2.82463">
        <ele>74</ele>
        <time>2025-05-13T13:35:41Z</time>
      </trkpt>
      <trkpt lat="47.51959" lon="-2.82458">
        <ele>74</ele>
        <time>2025-05-13T13:35:42Z</time>
      </trkpt>
      <trkpt lat="47.51959" lon="-2.82454">
        <ele>74</ele>
        <time>2025-05-13T13:35:43Z</time>
      </trkpt>
      <trkpt lat="47.51958" lon="-2.82449">
        <ele>74</ele>
        <time>2025-05-13T13:35:44Z</time>
      </trkpt>
      <trkpt lat="47.51957" lon="-2.82444">
        <ele>74</ele>
        <time>2025-05-13T13:35:45Z</time>
      </trkpt>
      <trkpt lat="47.51957" lon="-2.8244">
        <ele>74</ele>
        <time>2025-05-13T13:35:46Z</time>
      </trkpt>
      <trkpt lat="47.51956" lon="-2.82436">
        <ele>74</ele>
        <time>2025-05-13T13:35:47Z</time>
      </trkpt>
      <trkpt lat="47.51955" lon="-2.82431">
        <ele>74</ele>
        <time>2025-05-13T13:35:48Z</time>
      </trkpt>
      <trkpt lat="47.51954" lon="-2.82427">
        <ele>74</ele>
        <time>2025-05-13T13:35:49Z</time>
      </trkpt>
      <trkpt lat="47.51953" lon="-2.82422">
        <ele>74</ele>
        <time>2025-05-13T13:35:50Z</time>
      </trkpt>
      <trkpt lat="47.51952" lon="-2.82418">
        <ele>73</ele>
        <time>2025-05-13T13:35:51Z</time>
      </trkpt>
      <trkpt lat="47.51951" lon="-2.82414">
        <ele>73</ele>
        <time>2025-05-13T13:35:52Z</time>
      </trkpt>
      <trkpt lat="47.5195" lon="-2.8241">
        <ele>72</ele>
        <time>2025-05-13T13:35:53Z</time>
      </trkpt>
      <trkpt lat="47.51949" lon="-2.82406">
        <ele>72</ele>
        <time>2025-05-13T13:35:54Z</time>
      </trkpt>
      <trkpt lat="47.51949" lon="-2.82401">
        <ele>71</ele>
        <time>2025-05-13T13:35:55Z</time>
      </trkpt>
      <trkpt lat="47.51949" lon="-2.82397">
        <ele>71</ele>
        <time>2025-05-13T13:35:56Z</time>
      </trkpt>
      <trkpt lat="47.51948" lon="-2.82394">
        <ele>70</ele>
        <time>2025-05-13T13:35:57Z</time>
      </trkpt>
      <trkpt lat="47.51946" lon="-2.8239">
        <ele>70</ele>
        <time>2025-05-13T13:35:58Z</time>
      </trkpt>
      <trkpt lat="47.51945" lon="-2.82386">
        <ele>70</ele>
        <time>2025-05-13T13:35:59Z</time>
      </trkpt>
      <trkpt lat="47.51945" lon="-2.82382">
        <ele>69</ele>
        <time>2025-05-13T13:36:00Z</time>
      </trkpt>
      <trkpt lat="47.51944" lon="-2.82378">
        <ele>69</ele>
        <time>2025-05-13T13:36:01Z</time>
      </trkpt>
      <trkpt lat="47.51943" lon="-2.82373">
        <ele>69</ele>
        <time>2025-05-13T13:36:02Z</time>
      </trkpt>
      <trkpt lat="47.51942" lon="-2.82368">
        <ele>68</ele>
        <time>2025-05-13T13:36:03Z</time>
      </trkpt>
      <trkpt lat="47.51941" lon="-2.82362">
        <ele>69</ele>
        <time>2025-05-13T13:36:04Z</time>
      </trkpt>
      <trkpt lat="47.5194" lon="-2.82357">
        <ele>69</ele>
        <time>2025-05-13T13:36:05Z</time>
      </trkpt>
      <trkpt lat="47.51939" lon="-2.82354">
        <ele>68</ele>
        <time>2025-05-13T13:36:06Z</time>
      </trkpt>
      <trkpt lat="47.51939" lon="-2.82349">
        <ele>68</ele>
        <time>2025-05-13T13:36:07Z</time>
      </trkpt>
      <trkpt lat="47.51938" lon="-2.82345">
        <ele>68</ele>
        <time>2025-05-13T13:36:08Z</time>
      </trkpt>
      <trkpt lat="47.51938" lon="-2.82341">
        <ele>68</ele>
        <time>2025-05-13T13:36:09Z</time>
      </trkpt>
      <trkpt lat="47.51937" lon="-2.82336">
        <ele>69</ele>
        <time>2025-05-13T13:36:10Z</time>
      </trkpt>
      <trkpt lat="47.51936" lon="-2.82332">
        <ele>69</ele>
        <time>2025-05-13T13:36:11Z</time>
      </trkpt>
      <trkpt lat="47.51936" lon="-2.82326">
        <ele>71</ele>
        <time>2025-05-13T13:36:12Z</time>
      </trkpt>
      <trkpt lat="47.51936" lon="-2.82321">
        <ele>72</ele>
        <time>2025-05-13T13:36:13Z</time>
      </trkpt>
      <trkpt lat="47.51936" lon="-2.82317">
        <ele>72</ele>
        <time>2025-05-13T13:36:14Z</time>
      </trkpt>
      <trkpt lat="47.51935" lon="-2.82313">
        <ele>73</ele>
        <time>2025-05-13T13:36:15Z</time>
      </trkpt>
      <trkpt lat="47.51934" lon="-2.8231">
        <ele>73</ele>
        <time>2025-05-13T13:36:16Z</time>
      </trkpt>
      <trkpt lat="47.51933" lon="-2.82306">
        <ele>72</ele>
        <time>2025-05-13T13:36:17Z</time>
      </trkpt>
      <trkpt lat="47.51932" lon="-2.82302">
        <ele>72</ele>
        <time>2025-05-13T13:36:18Z</time>
      </trkpt>
      <trkpt lat="47.51932" lon="-2.82298">
        <ele>73</ele>
        <time>2025-05-13T13:36:19Z</time>
      </trkpt>
      <trkpt lat="47.51931" lon="-2.82294">
        <ele>72</ele>
        <time>2025-05-13T13:36:20Z</time>
      </trkpt>
      <trkpt lat="47.5193" lon="-2.82289">
        <ele>72</ele>
        <time>2025-05-13T13:36:21Z</time>
      </trkpt>
      <trkpt lat="47.51929" lon="-2.82285">
        <ele>72</ele>
        <time>2025-05-13T13:36:22Z</time>
      </trkpt>
      <trkpt lat="47.51929" lon="-2.8228">
        <ele>72</ele>
        <time>2025-05-13T13:36:23Z</time>
      </trkpt>
      <trkpt lat="47.51928" lon="-2.82276">
        <ele>72</ele>
        <time>2025-05-13T13:36:24Z</time>
      </trkpt>
      <trkpt lat="47.51927" lon="-2.82271">
        <ele>72</ele>
        <time>2025-05-13T13:36:25Z</time>
      </trkpt>
      <trkpt lat="47.51927" lon="-2.82266">
        <ele>72</ele>
        <time>2025-05-13T13:36:26Z</time>
      </trkpt>
      <trkpt lat="47.51926" lon="-2.82262">
        <ele>73</ele>
        <time>2025-05-13T13:36:27Z</time>
      </trkpt>
      <trkpt lat="47.51926" lon="-2.82257">
        <ele>73</ele>
        <time>2025-05-13T13:36:28Z</time>
      </trkpt>
      <trkpt lat="47.51925" lon="-2.82252">
        <ele>73</ele>
        <time>2025-05-13T13:36:29Z</time>
      </trkpt>
      <trkpt lat="47.51924" lon="-2.82248">
        <ele>73</ele>
        <time>2025-05-13T13:36:30Z</time>
      </trkpt>
      <trkpt lat="47.51923" lon="-2.82243">
        <ele>73</ele>
        <time>2025-05-13T13:36:31Z</time>
      </trkpt>
      <trkpt lat="47.51921" lon="-2.82238">
        <ele>73</ele>
        <time>2025-05-13T13:36:32Z</time>
      </trkpt>
      <trkpt lat="47.51921" lon="-2.82233">
        <ele>73</ele>
        <time>2025-05-13T13:36:33Z</time>
      </trkpt>
      <trkpt lat="47.5192" lon="-2.82228">
        <ele>73</ele>
        <time>2025-05-13T13:36:34Z</time>
      </trkpt>
      <trkpt lat="47.51919" lon="-2.82222">
        <ele>73</ele>
        <time>2025-05-13T13:36:35Z</time>
      </trkpt>
      <trkpt lat="47.51918" lon="-2.82217">
        <ele>73</ele>
        <time>2025-05-13T13:36:36Z</time>
      </trkpt>
      <trkpt lat="47.51917" lon="-2.82211">
        <ele>73</ele>
        <time>2025-05-13T13:36:37Z</time>
      </trkpt>
      <trkpt lat="47.51915" lon="-2.82205">
        <ele>73</ele>
        <time>2025-05-13T13:36:38Z</time>
      </trkpt>
      <trkpt lat="47.51914" lon="-2.822">
        <ele>73</ele>
        <time>2025-05-13T13:36:39Z</time>
      </trkpt>
      <trkpt lat="47.51913" lon="-2.82194">
        <ele>74</ele>
        <time>2025-05-13T13:36:40Z</time>
      </trkpt>
      <trkpt lat="47.51912" lon="-2.82189">
        <ele>74</ele>
        <time>2025-05-13T13:36:41Z</time>
      </trkpt>
      <trkpt lat="47.51911" lon="-2.82184">
        <ele>73</ele>
        <time>2025-05-13T13:36:42Z</time>
      </trkpt>
      <trkpt lat="47.51911" lon="-2.82179">
        <ele>73</ele>
        <time>2025-05-13T13:36:43Z</time>
      </trkpt>
      <trkpt lat="47.51911" lon="-2.82175">
        <ele>73</ele>
        <time>2025-05-13T13:36:44Z</time>
      </trkpt>
      <trkpt lat="47.51912" lon="-2.8217">
        <ele>73</ele>
        <time>2025-05-13T13:36:45Z</time>
      </trkpt>
      <trkpt lat="47.51914" lon="-2.82166">
        <ele>73</ele>
        <time>2025-05-13T13:36:46Z</time>
      </trkpt>
      <trkpt lat="47.51915" lon="-2.82162">
        <ele>74</ele>
        <time>2025-05-13T13:36:47Z</time>
      </trkpt>
      <trkpt lat="47.51918" lon="-2.82158">
        <ele>74</ele>
        <time>2025-05-13T13:36:48Z</time>
      </trkpt>
      <trkpt lat="47.51921" lon="-2.82156">
        <ele>74</ele>
        <time>2025-05-13T13:36:49Z</time>
      </trkpt>
      <trkpt lat="47.51924" lon="-2.82156">
        <ele>74</ele>
        <time>2025-05-13T13:36:50Z</time>
      </trkpt>
      <trkpt lat="47.51927" lon="-2.82156">
        <ele>75</ele>
        <time>2025-05-13T13:36:51Z</time>
      </trkpt>
      <trkpt lat="47.5193" lon="-2.82155">
        <ele>75</ele>
        <time>2025-05-13T13:36:52Z</time>
      </trkpt>
      <trkpt lat="47.51933" lon="-2.82155">
        <ele>76</ele>
        <time>2025-05-13T13:36:53Z</time>
      </trkpt>
      <trkpt lat="47.51935" lon="-2.82154">
        <ele>77</ele>
        <time>2025-05-13T13:36:54Z</time>
      </trkpt>
      <trkpt lat="47.51937" lon="-2.82153">
        <ele>78</ele>
        <time>2025-05-13T13:36:55Z</time>
      </trkpt>
      <trkpt lat="47.5194" lon="-2.82154">
        <ele>78</ele>
        <time>2025-05-13T13:36:56Z</time>
      </trkpt>
      <trkpt lat="47.51943" lon="-2.82153">
        <ele>78</ele>
        <time>2025-05-13T13:36:57Z</time>
      </trkpt>
      <trkpt lat="47.51946" lon="-2.82152">
        <ele>78</ele>
        <time>2025-05-13T13:36:58Z</time>
      </trkpt>
      <trkpt lat="47.51949" lon="-2.82153">
        <ele>78</ele>
        <time>2025-05-13T13:36:59Z</time>
      </trkpt>
      <trkpt lat="47.51951" lon="-2.82152">
        <ele>77</ele>
        <time>2025-05-13T13:37:00Z</time>
      </trkpt>
      <trkpt lat="47.51954" lon="-2.82152">
        <ele>77</ele>
        <time>2025-05-13T13:37:01Z</time>
      </trkpt>
      <trkpt lat="47.51957" lon="-2.82151">
        <ele>77</ele>
        <time>2025-05-13T13:37:02Z</time>
      </trkpt>
      <trkpt lat="47.5196" lon="-2.82151">
        <ele>77</ele>
        <time>2025-05-13T13:37:03Z</time>
      </trkpt>
      <trkpt lat="47.51963" lon="-2.8215">
        <ele>77</ele>
        <time>2025-05-13T13:37:04Z</time>
      </trkpt>
      <trkpt lat="47.51966" lon="-2.82149">
        <ele>77</ele>
        <time>2025-05-13T13:37:05Z</time>
      </trkpt>
      <trkpt lat="47.51969" lon="-2.82149">
        <ele>78</ele>
        <time>2025-05-13T13:37:06Z</time>
      </trkpt>
      <trkpt lat="47.51973" lon="-2.82147">
        <ele>78</ele>
        <time>2025-05-13T13:37:07Z</time>
      </trkpt>
      <trkpt lat="47.51975" lon="-2.82145">
        <ele>78</ele>
        <time>2025-05-13T13:37:08Z</time>
      </trkpt>
      <trkpt lat="47.51977" lon="-2.82141">
        <ele>78</ele>
        <time>2025-05-13T13:37:09Z</time>
      </trkpt>
      <trkpt lat="47.51979" lon="-2.82137">
        <ele>78</ele>
        <time>2025-05-13T13:37:10Z</time>
      </trkpt>
      <trkpt lat="47.51981" lon="-2.82133">
        <ele>78</ele>
        <time>2025-05-13T13:37:11Z</time>
      </trkpt>
      <trkpt lat="47.51983" lon="-2.8213">
        <ele>79</ele>
        <time>2025-05-13T13:37:12Z</time>
      </trkpt>
      <trkpt lat="47.51985" lon="-2.82126">
        <ele>78</ele>
        <time>2025-05-13T13:37:13Z</time>
      </trkpt>
      <trkpt lat="47.51987" lon="-2.82122">
        <ele>78</ele>
        <time>2025-05-13T13:37:14Z</time>
      </trkpt>
      <trkpt lat="47.51989" lon="-2.82119">
        <ele>78</ele>
        <time>2025-05-13T13:37:15Z</time>
      </trkpt>
      <trkpt lat="47.51991" lon="-2.82116">
        <ele>78</ele>
        <time>2025-05-13T13:37:16Z</time>
      </trkpt>
      <trkpt lat="47.51993" lon="-2.82113">
        <ele>78</ele>
        <time>2025-05-13T13:37:17Z</time>
      </trkpt>
      <trkpt lat="47.51996" lon="-2.8211">
        <ele>78</ele>
        <time>2025-05-13T13:37:18Z</time>
      </trkpt>
      <trkpt lat="47.51999" lon="-2.82107">
        <ele>78</ele>
        <time>2025-05-13T13:37:19Z</time>
      </trkpt>
      <trkpt lat="47.52002" lon="-2.82105">
        <ele>79</ele>
        <time>2025-05-13T13:37:20Z</time>
      </trkpt>
      <trkpt lat="47.52005" lon="-2.82103">
        <ele>79</ele>
        <time>2025-05-13T13:37:21Z</time>
      </trkpt>
      <trkpt lat="47.52008" lon="-2.82101">
        <ele>79</ele>
        <time>2025-05-13T13:37:22Z</time>
      </trkpt>
      <trkpt lat="47.5201" lon="-2.82099">
        <ele>79</ele>
        <time>2025-05-13T13:37:23Z</time>
      </trkpt>
      <trkpt lat="47.52013" lon="-2.82097">
        <ele>80</ele>
        <time>2025-05-13T13:37:24Z</time>
      </trkpt>
      <trkpt lat="47.52016" lon="-2.82095">
        <ele>80</ele>
        <time>2025-05-13T13:37:25Z</time>
      </trkpt>
      <trkpt lat="47.52018" lon="-2.82093">
        <ele>80</ele>
        <time>2025-05-13T13:37:26Z</time>
      </trkpt>
      <trkpt lat="47.52021" lon="-2.8209">
        <ele>80</ele>
        <time>2025-05-13T13:37:27Z</time>
      </trkpt>
      <trkpt lat="47.52023" lon="-2.82088">
        <ele>80</ele>
        <time>2025-05-13T13:37:28Z</time>
      </trkpt>
      <trkpt lat="47.52025" lon="-2.82086">
        <ele>80</ele>
        <time>2025-05-13T13:37:29Z</time>
      </trkpt>
      <trkpt lat="47.52029" lon="-2.82083">
        <ele>80</ele>
        <time>2025-05-13T13:37:30Z</time>
      </trkpt>
      <trkpt lat="47.52032" lon="-2.82082">
        <ele>80</ele>
        <time>2025-05-13T13:37:31Z</time>
      </trkpt>
      <trkpt lat="47.52034" lon="-2.8208">
        <ele>80</ele>
        <time>2025-05-13T13:37:32Z</time>
      </trkpt>
      <trkpt lat="47.52037" lon="-2.82077">
        <ele>80</ele>
        <time>2025-05-13T13:37:33Z</time>
      </trkpt>
      <trkpt lat="47.5204" lon="-2.82074">
        <ele>80</ele>
        <time>2025-05-13T13:37:34Z</time>
      </trkpt>
      <trkpt lat="47.52043" lon="-2.82071">
        <ele>80</ele>
        <time>2025-05-13T13:37:35Z</time>
      </trkpt>
      <trkpt lat="47.52046" lon="-2.82068">
        <ele>80</ele>
        <time>2025-05-13T13:37:36Z</time>
      </trkpt>
      <trkpt lat="47.52049" lon="-2.82065">
        <ele>80</ele>
        <time>2025-05-13T13:37:37Z</time>
      </trkpt>
      <trkpt lat="47.52051" lon="-2.82063">
        <ele>79</ele>
        <time>2025-05-13T13:37:38Z</time>
      </trkpt>
      <trkpt lat="47.52053" lon="-2.8206">
        <ele>79</ele>
        <time>2025-05-13T13:37:39Z</time>
      </trkpt>
      <trkpt lat="47.52056" lon="-2.82057">
        <ele>79</ele>
        <time>2025-05-13T13:37:40Z</time>
      </trkpt>
      <trkpt lat="47.52058" lon="-2.82054">
        <ele>79</ele>
        <time>2025-05-13T13:37:41Z</time>
      </trkpt>
      <trkpt lat="47.52061" lon="-2.82051">
        <ele>79</ele>
        <time>2025-05-13T13:37:42Z</time>
      </trkpt>
      <trkpt lat="47.52063" lon="-2.82048">
        <ele>79</ele>
        <time>2025-05-13T13:37:43Z</time>
      </trkpt>
      <trkpt lat="47.52066" lon="-2.82045">
        <ele>79</ele>
        <time>2025-05-13T13:37:44Z</time>
      </trkpt>
      <trkpt lat="47.52068" lon="-2.82041">
        <ele>80</ele>
        <time>2025-05-13T13:37:45Z</time>
      </trkpt>
      <trkpt lat="47.52071" lon="-2.82038">
        <ele>80</ele>
        <time>2025-05-13T13:37:46Z</time>
      </trkpt>
      <trkpt lat="47.52073" lon="-2.82036">
        <ele>80</ele>
        <time>2025-05-13T13:37:47Z</time>
      </trkpt>
      <trkpt lat="47.52075" lon="-2.82032">
        <ele>80</ele>
        <time>2025-05-13T13:37:48Z</time>
      </trkpt>
      <trkpt lat="47.52078" lon="-2.82029">
        <ele>81</ele>
        <time>2025-05-13T13:37:49Z</time>
      </trkpt>
      <trkpt lat="47.5208" lon="-2.82026">
        <ele>81</ele>
        <time>2025-05-13T13:37:50Z</time>
      </trkpt>
      <trkpt lat="47.52082" lon="-2.82024">
        <ele>80</ele>
        <time>2025-05-13T13:37:51Z</time>
      </trkpt>
      <trkpt lat="47.52084" lon="-2.8202">
        <ele>80</ele>
        <time>2025-05-13T13:37:52Z</time>
      </trkpt>
      <trkpt lat="47.52086" lon="-2.82017">
        <ele>80</ele>
        <time>2025-05-13T13:37:53Z</time>
      </trkpt>
      <trkpt lat="47.52089" lon="-2.82013">
        <ele>80</ele>
        <time>2025-05-13T13:37:54Z</time>
      </trkpt>
      <trkpt lat="47.52091" lon="-2.8201">
        <ele>80</ele>
        <time>2025-05-13T13:37:55Z</time>
      </trkpt>
      <trkpt lat="47.52094" lon="-2.82007">
        <ele>80</ele>
        <time>2025-05-13T13:37:56Z</time>
      </trkpt>
      <trkpt lat="47.52096" lon="-2.82004">
        <ele>80</ele>
        <time>2025-05-13T13:37:57Z</time>
      </trkpt>
      <trkpt lat="47.52098" lon="-2.82001">
        <ele>80</ele>
        <time>2025-05-13T13:37:58Z</time>
      </trkpt>
      <trkpt lat="47.521" lon="-2.81997">
        <ele>80</ele>
        <time>2025-05-13T13:37:59Z</time>
      </trkpt>
      <trkpt lat="47.52103" lon="-2.81994">
        <ele>80</ele>
        <time>2025-05-13T13:38:00Z</time>
      </trkpt>
      <trkpt lat="47.52105" lon="-2.81991">
        <ele>80</ele>
        <time>2025-05-13T13:38:01Z</time>
      </trkpt>
      <trkpt lat="47.52107" lon="-2.81987">
        <ele>80</ele>
        <time>2025-05-13T13:38:02Z</time>
      </trkpt>
      <trkpt lat="47.52109" lon="-2.81984">
        <ele>80</ele>
        <time>2025-05-13T13:38:03Z</time>
      </trkpt>
      <trkpt lat="47.52112" lon="-2.81981">
        <ele>80</ele>
        <time>2025-05-13T13:38:04Z</time>
      </trkpt>
      <trkpt lat="47.52114" lon="-2.81978">
        <ele>80</ele>
        <time>2025-05-13T13:38:05Z</time>
      </trkpt>
      <trkpt lat="47.52116" lon="-2.81975">
        <ele>80</ele>
        <time>2025-05-13T13:38:06Z</time>
      </trkpt>
      <trkpt lat="47.52118" lon="-2.81971">
        <ele>80</ele>
        <time>2025-05-13T13:38:07Z</time>
      </trkpt>
      <trkpt lat="47.5212" lon="-2.81968">
        <ele>81</ele>
        <time>2025-05-13T13:38:08Z</time>
      </trkpt>
      <trkpt lat="47.52122" lon="-2.81964">
        <ele>81</ele>
        <time>2025-05-13T13:38:09Z</time>
      </trkpt>
      <trkpt lat="47.52125" lon="-2.81961">
        <ele>81</ele>
        <time>2025-05-13T13:38:10Z</time>
      </trkpt>
      <trkpt lat="47.52127" lon="-2.81958">
        <ele>81</ele>
        <time>2025-05-13T13:38:11Z</time>
      </trkpt>
      <trkpt lat="47.5213" lon="-2.81954">
        <ele>81</ele>
        <time>2025-05-13T13:38:12Z</time>
      </trkpt>
      <trkpt lat="47.52132" lon="-2.81951">
        <ele>82</ele>
        <time>2025-05-13T13:38:13Z</time>
      </trkpt>
      <trkpt lat="47.52134" lon="-2.81948">
        <ele>82</ele>
        <time>2025-05-13T13:38:14Z</time>
      </trkpt>
      <trkpt lat="47.52136" lon="-2.81945">
        <ele>82</ele>
        <time>2025-05-13T13:38:15Z</time>
      </trkpt>
      <trkpt lat="47.52139" lon="-2.81942">
        <ele>82</ele>
        <time>2025-05-13T13:38:16Z</time>
      </trkpt>
      <trkpt lat="47.52141" lon="-2.81938">
        <ele>82</ele>
        <time>2025-05-13T13:38:17Z</time>
      </trkpt>
      <trkpt lat="47.52144" lon="-2.81935">
        <ele>82</ele>
        <time>2025-05-13T13:38:18Z</time>
      </trkpt>
      <trkpt lat="47.52146" lon="-2.81931">
        <ele>82</ele>
        <time>2025-05-13T13:38:19Z</time>
      </trkpt>
      <trkpt lat="47.52149" lon="-2.81928">
        <ele>81</ele>
        <time>2025-05-13T13:38:20Z</time>
      </trkpt>
      <trkpt lat="47.52151" lon="-2.81923">
        <ele>81</ele>
        <time>2025-05-13T13:38:21Z</time>
      </trkpt>
      <trkpt lat="47.52154" lon="-2.81919">
        <ele>81</ele>
        <time>2025-05-13T13:38:22Z</time>
      </trkpt>
      <trkpt lat="47.52156" lon="-2.81915">
        <ele>81</ele>
        <time>2025-05-13T13:38:23Z</time>
      </trkpt>
      <trkpt lat="47.52158" lon="-2.8191">
        <ele>81</ele>
        <time>2025-05-13T13:38:24Z</time>
      </trkpt>
      <trkpt lat="47.5216" lon="-2.81906">
        <ele>81</ele>
        <time>2025-05-13T13:38:25Z</time>
      </trkpt>
      <trkpt lat="47.52162" lon="-2.81901">
        <ele>81</ele>
        <time>2025-05-13T13:38:26Z</time>
      </trkpt>
      <trkpt lat="47.52162" lon="-2.81896">
        <ele>81</ele>
        <time>2025-05-13T13:38:27Z</time>
      </trkpt>
      <trkpt lat="47.52163" lon="-2.81891">
        <ele>81</ele>
        <time>2025-05-13T13:38:28Z</time>
      </trkpt>
      <trkpt lat="47.52163" lon="-2.81886">
        <ele>81</ele>
        <time>2025-05-13T13:38:29Z</time>
      </trkpt>
      <trkpt lat="47.52163" lon="-2.8188">
        <ele>81</ele>
        <time>2025-05-13T13:38:30Z</time>
      </trkpt>
      <trkpt lat="47.52163" lon="-2.81875">
        <ele>81</ele>
        <time>2025-05-13T13:38:31Z</time>
      </trkpt>
      <trkpt lat="47.52163" lon="-2.8187">
        <ele>81</ele>
        <time>2025-05-13T13:38:32Z</time>
      </trkpt>
      <trkpt lat="47.52163" lon="-2.81865">
        <ele>81</ele>
        <time>2025-05-13T13:38:33Z</time>
      </trkpt>
      <trkpt lat="47.52162" lon="-2.81861">
        <ele>81</ele>
        <time>2025-05-13T13:38:34Z</time>
      </trkpt>
      <trkpt lat="47.52162" lon="-2.81856">
        <ele>81</ele>
        <time>2025-05-13T13:38:35Z</time>
      </trkpt>
      <trkpt lat="47.52161" lon="-2.81852">
        <ele>80</ele>
        <time>2025-05-13T13:38:36Z</time>
      </trkpt>
      <trkpt lat="47.5216" lon="-2.81848">
        <ele>80</ele>
        <time>2025-05-13T13:38:37Z</time>
      </trkpt>
      <trkpt lat="47.5216" lon="-2.81843">
        <ele>80</ele>
        <time>2025-05-13T13:38:38Z</time>
      </trkpt>
      <trkpt lat="47.5216" lon="-2.81839">
        <ele>80</ele>
        <time>2025-05-13T13:38:39Z</time>
      </trkpt>
      <trkpt lat="47.52159" lon="-2.81835">
        <ele>79</ele>
        <time>2025-05-13T13:38:40Z</time>
      </trkpt>
      <trkpt lat="47.52158" lon="-2.8183">
        <ele>79</ele>
        <time>2025-05-13T13:38:41Z</time>
      </trkpt>
      <trkpt lat="47.52158" lon="-2.81826">
        <ele>80</ele>
        <time>2025-05-13T13:38:42Z</time>
      </trkpt>
      <trkpt lat="47.52157" lon="-2.81821">
        <ele>80</ele>
        <time>2025-05-13T13:38:43Z</time>
      </trkpt>
      <trkpt lat="47.52157" lon="-2.81816">
        <ele>80</ele>
        <time>2025-05-13T13:38:44Z</time>
      </trkpt>
      <trkpt lat="47.52156" lon="-2.81812">
        <ele>81</ele>
        <time>2025-05-13T13:38:45Z</time>
      </trkpt>
      <trkpt lat="47.52156" lon="-2.81807">
        <ele>81</ele>
        <time>2025-05-13T13:38:46Z</time>
      </trkpt>
      <trkpt lat="47.52155" lon="-2.81803">
        <ele>81</ele>
        <time>2025-05-13T13:38:47Z</time>
      </trkpt>
      <trkpt lat="47.52155" lon="-2.81799">
        <ele>81</ele>
        <time>2025-05-13T13:38:48Z</time>
      </trkpt>
      <trkpt lat="47.52154" lon="-2.81794">
        <ele>82</ele>
        <time>2025-05-13T13:38:49Z</time>
      </trkpt>
      <trkpt lat="47.52154" lon="-2.8179">
        <ele>82</ele>
        <time>2025-05-13T13:38:50Z</time>
      </trkpt>
      <trkpt lat="47.52153" lon="-2.81786">
        <ele>82</ele>
        <time>2025-05-13T13:38:51Z</time>
      </trkpt>
      <trkpt lat="47.52153" lon="-2.81782">
        <ele>82</ele>
        <time>2025-05-13T13:38:52Z</time>
      </trkpt>
      <trkpt lat="47.52152" lon="-2.81778">
        <ele>82</ele>
        <time>2025-05-13T13:38:53Z</time>
      </trkpt>
      <trkpt lat="47.52152" lon="-2.81774">
        <ele>82</ele>
        <time>2025-05-13T13:38:54Z</time>
      </trkpt>
      <trkpt lat="47.52152" lon="-2.81769">
        <ele>82</ele>
        <time>2025-05-13T13:38:55Z</time>
      </trkpt>
      <trkpt lat="47.52151" lon="-2.81765">
        <ele>82</ele>
        <time>2025-05-13T13:38:56Z</time>
      </trkpt>
      <trkpt lat="47.52151" lon="-2.8176">
        <ele>83</ele>
        <time>2025-05-13T13:38:57Z</time>
      </trkpt>
      <trkpt lat="47.5215" lon="-2.81756">
        <ele>83</ele>
        <time>2025-05-13T13:38:58Z</time>
      </trkpt>
      <trkpt lat="47.52149" lon="-2.81751">
        <ele>83</ele>
        <time>2025-05-13T13:38:59Z</time>
      </trkpt>
      <trkpt lat="47.52148" lon="-2.81747">
        <ele>83</ele>
        <time>2025-05-13T13:39:00Z</time>
      </trkpt>
      <trkpt lat="47.52148" lon="-2.81743">
        <ele>83</ele>
        <time>2025-05-13T13:39:01Z</time>
      </trkpt>
      <trkpt lat="47.52147" lon="-2.81739">
        <ele>83</ele>
        <time>2025-05-13T13:39:02Z</time>
      </trkpt>
      <trkpt lat="47.52147" lon="-2.81734">
        <ele>83</ele>
        <time>2025-05-13T13:39:03Z</time>
      </trkpt>
      <trkpt lat="47.52147" lon="-2.8173">
        <ele>83</ele>
        <time>2025-05-13T13:39:04Z</time>
      </trkpt>
      <trkpt lat="47.52146" lon="-2.81725">
        <ele>83</ele>
        <time>2025-05-13T13:39:05Z</time>
      </trkpt>
      <trkpt lat="47.52146" lon="-2.81721">
        <ele>84</ele>
        <time>2025-05-13T13:39:06Z</time>
      </trkpt>
      <trkpt lat="47.52146" lon="-2.81716">
        <ele>84</ele>
        <time>2025-05-13T13:39:07Z</time>
      </trkpt>
      <trkpt lat="47.52146" lon="-2.81711">
        <ele>84</ele>
        <time>2025-05-13T13:39:08Z</time>
      </trkpt>
      <trkpt lat="47.52145" lon="-2.81706">
        <ele>84</ele>
        <time>2025-05-13T13:39:09Z</time>
      </trkpt>
      <trkpt lat="47.52144" lon="-2.81702">
        <ele>84</ele>
        <time>2025-05-13T13:39:10Z</time>
      </trkpt>
      <trkpt lat="47.52143" lon="-2.81698">
        <ele>84</ele>
        <time>2025-05-13T13:39:11Z</time>
      </trkpt>
      <trkpt lat="47.52143" lon="-2.81692">
        <ele>84</ele>
        <time>2025-05-13T13:39:12Z</time>
      </trkpt>
      <trkpt lat="47.52142" lon="-2.81687">
        <ele>83</ele>
        <time>2025-05-13T13:39:13Z</time>
      </trkpt>
      <trkpt lat="47.52142" lon="-2.81683">
        <ele>83</ele>
        <time>2025-05-13T13:39:14Z</time>
      </trkpt>
      <trkpt lat="47.52142" lon="-2.81678">
        <ele>83</ele>
        <time>2025-05-13T13:39:15Z</time>
      </trkpt>
      <trkpt lat="47.52141" lon="-2.81673">
        <ele>83</ele>
        <time>2025-05-13T13:39:16Z</time>
      </trkpt>
      <trkpt lat="47.52141" lon="-2.81669">
        <ele>83</ele>
        <time>2025-05-13T13:39:17Z</time>
      </trkpt>
      <trkpt lat="47.5214" lon="-2.81664">
        <ele>83</ele>
        <time>2025-05-13T13:39:18Z</time>
      </trkpt>
      <trkpt lat="47.5214" lon="-2.81659">
        <ele>84</ele>
        <time>2025-05-13T13:39:19Z</time>
      </trkpt>
      <trkpt lat="47.52139" lon="-2.81654">
        <ele>84</ele>
        <time>2025-05-13T13:39:20Z</time>
      </trkpt>
      <trkpt lat="47.52139" lon="-2.81649">
        <ele>85</ele>
        <time>2025-05-13T13:39:21Z</time>
      </trkpt>
      <trkpt lat="47.52138" lon="-2.81644">
        <ele>85</ele>
        <time>2025-05-13T13:39:22Z</time>
      </trkpt>
      <trkpt lat="47.52138" lon="-2.81639">
        <ele>85</ele>
        <time>2025-05-13T13:39:23Z</time>
      </trkpt>
      <trkpt lat="47.52137" lon="-2.81635">
        <ele>85</ele>
        <time>2025-05-13T13:39:24Z</time>
      </trkpt>
      <trkpt lat="47.52136" lon="-2.8163">
        <ele>86</ele>
        <time>2025-05-13T13:39:25Z</time>
      </trkpt>
      <trkpt lat="47.52136" lon="-2.81626">
        <ele>86</ele>
        <time>2025-05-13T13:39:26Z</time>
      </trkpt>
      <trkpt lat="47.52135" lon="-2.81621">
        <ele>86</ele>
        <time>2025-05-13T13:39:27Z</time>
      </trkpt>
      <trkpt lat="47.52135" lon="-2.81617">
        <ele>86</ele>
        <time>2025-05-13T13:39:28Z</time>
      </trkpt>
      <trkpt lat="47.52134" lon="-2.81612">
        <ele>86</ele>
        <time>2025-05-13T13:39:29Z</time>
      </trkpt>
      <trkpt lat="47.52134" lon="-2.81608">
        <ele>86</ele>
        <time>2025-05-13T13:39:30Z</time>
      </trkpt>
      <trkpt lat="47.52134" lon="-2.81603">
        <ele>86</ele>
        <time>2025-05-13T13:39:31Z</time>
      </trkpt>
      <trkpt lat="47.52134" lon="-2.81598">
        <ele>86</ele>
        <time>2025-05-13T13:39:32Z</time>
      </trkpt>
      <trkpt lat="47.52133" lon="-2.81594">
        <ele>86</ele>
        <time>2025-05-13T13:39:33Z</time>
      </trkpt>
      <trkpt lat="47.52133" lon="-2.81589">
        <ele>86</ele>
        <time>2025-05-13T13:39:34Z</time>
      </trkpt>
      <trkpt lat="47.52133" lon="-2.81585">
        <ele>86</ele>
        <time>2025-05-13T13:39:35Z</time>
      </trkpt>
      <trkpt lat="47.52132" lon="-2.81581">
        <ele>86</ele>
        <time>2025-05-13T13:39:36Z</time>
      </trkpt>
      <trkpt lat="47.52131" lon="-2.81576">
        <ele>86</ele>
        <time>2025-05-13T13:39:37Z</time>
      </trkpt>
      <trkpt lat="47.52131" lon="-2.81572">
        <ele>87</ele>
        <time>2025-05-13T13:39:38Z</time>
      </trkpt>
      <trkpt lat="47.52131" lon="-2.81568">
        <ele>87</ele>
        <time>2025-05-13T13:39:39Z</time>
      </trkpt>
      <trkpt lat="47.52131" lon="-2.81563">
        <ele>86</ele>
        <time>2025-05-13T13:39:40Z</time>
      </trkpt>
      <trkpt lat="47.52131" lon="-2.81559">
        <ele>85</ele>
        <time>2025-05-13T13:39:41Z</time>
      </trkpt>
      <trkpt lat="47.52132" lon="-2.81555">
        <ele>85</ele>
        <time>2025-05-13T13:39:42Z</time>
      </trkpt>
      <trkpt lat="47.52132" lon="-2.81551">
        <ele>85</ele>
        <time>2025-05-13T13:39:43Z</time>
      </trkpt>
      <trkpt lat="47.52133" lon="-2.81547">
        <ele>85</ele>
        <time>2025-05-13T13:39:44Z</time>
      </trkpt>
      <trkpt lat="47.52134" lon="-2.81543">
        <ele>85</ele>
        <time>2025-05-13T13:39:45Z</time>
      </trkpt>
      <trkpt lat="47.52136" lon="-2.81539">
        <ele>85</ele>
        <time>2025-05-13T13:39:46Z</time>
      </trkpt>
      <trkpt lat="47.52138" lon="-2.81535">
        <ele>85</ele>
        <time>2025-05-13T13:39:47Z</time>
      </trkpt>
      <trkpt lat="47.5214" lon="-2.81531">
        <ele>85</ele>
        <time>2025-05-13T13:39:48Z</time>
      </trkpt>
      <trkpt lat="47.52142" lon="-2.81528">
        <ele>85</ele>
        <time>2025-05-13T13:39:49Z</time>
      </trkpt>
      <trkpt lat="47.52144" lon="-2.81525">
        <ele>85</ele>
        <time>2025-05-13T13:39:50Z</time>
      </trkpt>
      <trkpt lat="47.52147" lon="-2.81523">
        <ele>85</ele>
        <time>2025-05-13T13:39:51Z</time>
      </trkpt>
      <trkpt lat="47.5215" lon="-2.81521">
        <ele>85</ele>
        <time>2025-05-13T13:39:52Z</time>
      </trkpt>
      <trkpt lat="47.52153" lon="-2.8152">
        <ele>85</ele>
        <time>2025-05-13T13:39:53Z</time>
      </trkpt>
      <trkpt lat="47.52156" lon="-2.81518">
        <ele>85</ele>
        <time>2025-05-13T13:39:54Z</time>
      </trkpt>
      <trkpt lat="47.52159" lon="-2.81517">
        <ele>85</ele>
        <time>2025-05-13T13:39:55Z</time>
      </trkpt>
      <trkpt lat="47.52163" lon="-2.81515">
        <ele>84</ele>
        <time>2025-05-13T13:39:56Z</time>
      </trkpt>
      <trkpt lat="47.52166" lon="-2.81514">
        <ele>85</ele>
        <time>2025-05-13T13:39:57Z</time>
      </trkpt>
      <trkpt lat="47.52169" lon="-2.81512">
        <ele>85</ele>
        <time>2025-05-13T13:39:58Z</time>
      </trkpt>
      <trkpt lat="47.52173" lon="-2.81511">
        <ele>85</ele>
        <time>2025-05-13T13:39:59Z</time>
      </trkpt>
      <trkpt lat="47.52176" lon="-2.81509">
        <ele>85</ele>
        <time>2025-05-13T13:40:00Z</time>
      </trkpt>
      <trkpt lat="47.5218" lon="-2.81508">
        <ele>85</ele>
        <time>2025-05-13T13:40:01Z</time>
      </trkpt>
      <trkpt lat="47.52183" lon="-2.81507">
        <ele>85</ele>
        <time>2025-05-13T13:40:02Z</time>
      </trkpt>
      <trkpt lat="47.52187" lon="-2.81506">
        <ele>85</ele>
        <time>2025-05-13T13:40:03Z</time>
      </trkpt>
      <trkpt lat="47.5219" lon="-2.81505">
        <ele>85</ele>
        <time>2025-05-13T13:40:04Z</time>
      </trkpt>
      <trkpt lat="47.52194" lon="-2.81504">
        <ele>85</ele>
        <time>2025-05-13T13:40:05Z</time>
      </trkpt>
      <trkpt lat="47.52198" lon="-2.81503">
        <ele>85</ele>
        <time>2025-05-13T13:40:06Z</time>
      </trkpt>
      <trkpt lat="47.52201" lon="-2.81501">
        <ele>84</ele>
        <time>2025-05-13T13:40:07Z</time>
      </trkpt>
      <trkpt lat="47.52205" lon="-2.815">
        <ele>84</ele>
        <time>2025-05-13T13:40:08Z</time>
      </trkpt>
      <trkpt lat="47.52209" lon="-2.81499">
        <ele>84</ele>
        <time>2025-05-13T13:40:09Z</time>
      </trkpt>
      <trkpt lat="47.52213" lon="-2.81498">
        <ele>84</ele>
        <time>2025-05-13T13:40:10Z</time>
      </trkpt>
      <trkpt lat="47.52217" lon="-2.81496">
        <ele>84</ele>
        <time>2025-05-13T13:40:11Z</time>
      </trkpt>
      <trkpt lat="47.5222" lon="-2.81493">
        <ele>84</ele>
        <time>2025-05-13T13:40:12Z</time>
      </trkpt>
      <trkpt lat="47.52223" lon="-2.8149">
        <ele>84</ele>
        <time>2025-05-13T13:40:13Z</time>
      </trkpt>
      <trkpt lat="47.52226" lon="-2.81486">
        <ele>83</ele>
        <time>2025-05-13T13:40:14Z</time>
      </trkpt>
      <trkpt lat="47.52227" lon="-2.81481">
        <ele>83</ele>
        <time>2025-05-13T13:40:15Z</time>
      </trkpt>
      <trkpt lat="47.52228" lon="-2.81475">
        <ele>83</ele>
        <time>2025-05-13T13:40:16Z</time>
      </trkpt>
      <trkpt lat="47.52227" lon="-2.8147">
        <ele>83</ele>
        <time>2025-05-13T13:40:17Z</time>
      </trkpt>
      <trkpt lat="47.52225" lon="-2.81465">
        <ele>84</ele>
        <time>2025-05-13T13:40:18Z</time>
      </trkpt>
      <trkpt lat="47.52224" lon="-2.81461">
        <ele>84</ele>
        <time>2025-05-13T13:40:19Z</time>
      </trkpt>
      <trkpt lat="47.52222" lon="-2.81457">
        <ele>84</ele>
        <time>2025-05-13T13:40:20Z</time>
      </trkpt>
      <trkpt lat="47.52221" lon="-2.81453">
        <ele>84</ele>
        <time>2025-05-13T13:40:21Z</time>
      </trkpt>
      <trkpt lat="47.5222" lon="-2.8145">
        <ele>84</ele>
        <time>2025-05-13T13:40:22Z</time>
      </trkpt>
      <trkpt lat="47.52218" lon="-2.81446">
        <ele>84</ele>
        <time>2025-05-13T13:40:23Z</time>
      </trkpt>
      <trkpt lat="47.52217" lon="-2.81443">
        <ele>84</ele>
        <time>2025-05-13T13:40:24Z</time>
      </trkpt>
      <trkpt lat="47.52216" lon="-2.81439">
        <ele>84</ele>
        <time>2025-05-13T13:40:25Z</time>
      </trkpt>
      <trkpt lat="47.52216" lon="-2.81435">
        <ele>84</ele>
        <time>2025-05-13T13:40:26Z</time>
      </trkpt>
      <trkpt lat="47.52216" lon="-2.81431">
        <ele>83</ele>
        <time>2025-05-13T13:40:27Z</time>
      </trkpt>
      <trkpt lat="47.52216" lon="-2.81427">
        <ele>83</ele>
        <time>2025-05-13T13:40:28Z</time>
      </trkpt>
      <trkpt lat="47.52217" lon="-2.81423">
        <ele>83</ele>
        <time>2025-05-13T13:40:29Z</time>
      </trkpt>
      <trkpt lat="47.52218" lon="-2.81419">
        <ele>83</ele>
        <time>2025-05-13T13:40:30Z</time>
      </trkpt>
      <trkpt lat="47.5222" lon="-2.81416">
        <ele>84</ele>
        <time>2025-05-13T13:40:31Z</time>
      </trkpt>
      <trkpt lat="47.52222" lon="-2.81413">
        <ele>84</ele>
        <time>2025-05-13T13:40:32Z</time>
      </trkpt>
      <trkpt lat="47.52224" lon="-2.8141">
        <ele>84</ele>
        <time>2025-05-13T13:40:33Z</time>
      </trkpt>
      <trkpt lat="47.52226" lon="-2.81406">
        <ele>85</ele>
        <time>2025-05-13T13:40:34Z</time>
      </trkpt>
      <trkpt lat="47.52228" lon="-2.81403">
        <ele>85</ele>
        <time>2025-05-13T13:40:35Z</time>
      </trkpt>
      <trkpt lat="47.5223" lon="-2.814">
        <ele>84</ele>
        <time>2025-05-13T13:40:36Z</time>
      </trkpt>
      <trkpt lat="47.52232" lon="-2.81396">
        <ele>84</ele>
        <time>2025-05-13T13:40:37Z</time>
      </trkpt>
      <trkpt lat="47.52234" lon="-2.81393">
        <ele>83</ele>
        <time>2025-05-13T13:40:38Z</time>
      </trkpt>
      <trkpt lat="47.52236" lon="-2.81389">
        <ele>83</ele>
        <time>2025-05-13T13:40:39Z</time>
      </trkpt>
      <trkpt lat="47.52237" lon="-2.81386">
        <ele>82</ele>
        <time>2025-05-13T13:40:40Z</time>
      </trkpt>
      <trkpt lat="47.52238" lon="-2.81382">
        <ele>81</ele>
        <time>2025-05-13T13:40:41Z</time>
      </trkpt>
      <trkpt lat="47.52237" lon="-2.81378">
        <ele>81</ele>
        <time>2025-05-13T13:40:42Z</time>
      </trkpt>
      <trkpt lat="47.52235" lon="-2.81375">
        <ele>81</ele>
        <time>2025-05-13T13:40:43Z</time>
      </trkpt>
      <trkpt lat="47.52233" lon="-2.81374">
        <ele>80</ele>
        <time>2025-05-13T13:40:44Z</time>
      </trkpt>
      <trkpt lat="47.52229" lon="-2.81372">
        <ele>81</ele>
        <time>2025-05-13T13:40:45Z</time>
      </trkpt>
      <trkpt lat="47.52227" lon="-2.8137">
        <ele>82</ele>
        <time>2025-05-13T13:40:46Z</time>
      </trkpt>
      <trkpt lat="47.52224" lon="-2.81368">
        <ele>82</ele>
        <time>2025-05-13T13:40:47Z</time>
      </trkpt>
      <trkpt lat="47.52221" lon="-2.81366">
        <ele>82</ele>
        <time>2025-05-13T13:40:48Z</time>
      </trkpt>
      <trkpt lat="47.52219" lon="-2.81364">
        <ele>82</ele>
        <time>2025-05-13T13:40:49Z</time>
      </trkpt>
      <trkpt lat="47.52216" lon="-2.81361">
        <ele>82</ele>
        <time>2025-05-13T13:40:50Z</time>
      </trkpt>
      <trkpt lat="47.52214" lon="-2.8136">
        <ele>82</ele>
        <time>2025-05-13T13:40:51Z</time>
      </trkpt>
      <trkpt lat="47.52211" lon="-2.81358">
        <ele>83</ele>
        <time>2025-05-13T13:40:52Z</time>
      </trkpt>
      <trkpt lat="47.52209" lon="-2.81356">
        <ele>84</ele>
        <time>2025-05-13T13:40:53Z</time>
      </trkpt>
      <trkpt lat="47.52206" lon="-2.81354">
        <ele>85</ele>
        <time>2025-05-13T13:40:54Z</time>
      </trkpt>
      <trkpt lat="47.52203" lon="-2.81352">
        <ele>85</ele>
        <time>2025-05-13T13:40:55Z</time>
      </trkpt>
      <trkpt lat="47.52201" lon="-2.8135">
        <ele>85</ele>
        <time>2025-05-13T13:40:56Z</time>
      </trkpt>
      <trkpt lat="47.52198" lon="-2.81349">
        <ele>85</ele>
        <time>2025-05-13T13:40:57Z</time>
      </trkpt>
      <trkpt lat="47.52196" lon="-2.81348">
        <ele>84</ele>
        <time>2025-05-13T13:40:58Z</time>
      </trkpt>
      <trkpt lat="47.52194" lon="-2.81346">
        <ele>85</ele>
        <time>2025-05-13T13:40:59Z</time>
      </trkpt>
      <trkpt lat="47.52192" lon="-2.81344">
        <ele>84</ele>
        <time>2025-05-13T13:41:00Z</time>
      </trkpt>
      <trkpt lat="47.52189" lon="-2.81342">
        <ele>84</ele>
        <time>2025-05-13T13:41:01Z</time>
      </trkpt>
      <trkpt lat="47.52186" lon="-2.8134">
        <ele>83</ele>
        <time>2025-05-13T13:41:02Z</time>
      </trkpt>
      <trkpt lat="47.52184" lon="-2.81338">
        <ele>83</ele>
        <time>2025-05-13T13:41:03Z</time>
      </trkpt>
      <trkpt lat="47.52181" lon="-2.81336">
        <ele>83</ele>
        <time>2025-05-13T13:41:04Z</time>
      </trkpt>
      <trkpt lat="47.52178" lon="-2.81334">
        <ele>83</ele>
        <time>2025-05-13T13:41:05Z</time>
      </trkpt>
      <trkpt lat="47.52175" lon="-2.81332">
        <ele>83</ele>
        <time>2025-05-13T13:41:06Z</time>
      </trkpt>
      <trkpt lat="47.52172" lon="-2.8133">
        <ele>82</ele>
        <time>2025-05-13T13:41:07Z</time>
      </trkpt>
      <trkpt lat="47.5217" lon="-2.81327">
        <ele>82</ele>
        <time>2025-05-13T13:41:08Z</time>
      </trkpt>
      <trkpt lat="47.52167" lon="-2.81325">
        <ele>82</ele>
        <time>2025-05-13T13:41:09Z</time>
      </trkpt>
      <trkpt lat="47.52165" lon="-2.81321">
        <ele>82</ele>
        <time>2025-05-13T13:41:10Z</time>
      </trkpt>
      <trkpt lat="47.52163" lon="-2.81318">
        <ele>82</ele>
        <time>2025-05-13T13:41:11Z</time>
      </trkpt>
      <trkpt lat="47.5216" lon="-2.81315">
        <ele>82</ele>
        <time>2025-05-13T13:41:12Z</time>
      </trkpt>
      <trkpt lat="47.52158" lon="-2.81311">
        <ele>81</ele>
        <time>2025-05-13T13:41:13Z</time>
      </trkpt>
      <trkpt lat="47.52156" lon="-2.81308">
        <ele>82</ele>
        <time>2025-05-13T13:41:14Z</time>
      </trkpt>
      <trkpt lat="47.52155" lon="-2.81304">
        <ele>81</ele>
        <time>2025-05-13T13:41:15Z</time>
      </trkpt>
      <trkpt lat="47.52153" lon="-2.813">
        <ele>81</ele>
        <time>2025-05-13T13:41:16Z</time>
      </trkpt>
      <trkpt lat="47.52151" lon="-2.81297">
        <ele>81</ele>
        <time>2025-05-13T13:41:17Z</time>
      </trkpt>
      <trkpt lat="47.52149" lon="-2.81294">
        <ele>81</ele>
        <time>2025-05-13T13:41:18Z</time>
      </trkpt>
      <trkpt lat="47.52147" lon="-2.81291">
        <ele>83</ele>
        <time>2025-05-13T13:41:19Z</time>
      </trkpt>
      <trkpt lat="47.52145" lon="-2.81287">
        <ele>84</ele>
        <time>2025-05-13T13:41:20Z</time>
      </trkpt>
      <trkpt lat="47.52143" lon="-2.81284">
        <ele>85</ele>
        <time>2025-05-13T13:41:21Z</time>
      </trkpt>
      <trkpt lat="47.52141" lon="-2.81282">
        <ele>86</ele>
        <time>2025-05-13T13:41:22Z</time>
      </trkpt>
      <trkpt lat="47.5214" lon="-2.81279">
        <ele>86</ele>
        <time>2025-05-13T13:41:23Z</time>
      </trkpt>
      <trkpt lat="47.52137" lon="-2.81275">
        <ele>85</ele>
        <time>2025-05-13T13:41:24Z</time>
      </trkpt>
      <trkpt lat="47.52136" lon="-2.81273">
        <ele>85</ele>
        <time>2025-05-13T13:41:25Z</time>
      </trkpt>
      <trkpt lat="47.52134" lon="-2.8127">
        <ele>86</ele>
        <time>2025-05-13T13:41:26Z</time>
      </trkpt>
      <trkpt lat="47.52132" lon="-2.81267">
        <ele>87</ele>
        <time>2025-05-13T13:41:27Z</time>
      </trkpt>
      <trkpt lat="47.5213" lon="-2.81264">
        <ele>87</ele>
        <time>2025-05-13T13:41:28Z</time>
      </trkpt>
      <trkpt lat="47.52129" lon="-2.8126">
        <ele>88</ele>
        <time>2025-05-13T13:41:29Z</time>
      </trkpt>
      <trkpt lat="47.52127" lon="-2.81257">
        <ele>88</ele>
        <time>2025-05-13T13:41:30Z</time>
      </trkpt>
      <trkpt lat="47.52126" lon="-2.81254">
        <ele>88</ele>
        <time>2025-05-13T13:41:31Z</time>
      </trkpt>
      <trkpt lat="47.52124" lon="-2.81251">
        <ele>88</ele>
        <time>2025-05-13T13:41:32Z</time>
      </trkpt>
      <trkpt lat="47.52122" lon="-2.81249">
        <ele>89</ele>
        <time>2025-05-13T13:41:33Z</time>
      </trkpt>
      <trkpt lat="47.52121" lon="-2.81246">
        <ele>88</ele>
        <time>2025-05-13T13:41:34Z</time>
      </trkpt>
      <trkpt lat="47.52119" lon="-2.81242">
        <ele>88</ele>
        <time>2025-05-13T13:41:35Z</time>
      </trkpt>
      <trkpt lat="47.52118" lon="-2.81239">
        <ele>88</ele>
        <time>2025-05-13T13:41:36Z</time>
      </trkpt>
      <trkpt lat="47.52117" lon="-2.81235">
        <ele>87</ele>
        <time>2025-05-13T13:41:37Z</time>
      </trkpt>
      <trkpt lat="47.52116" lon="-2.81231">
        <ele>87</ele>
        <time>2025-05-13T13:41:38Z</time>
      </trkpt>
      <trkpt lat="47.52115" lon="-2.81227">
        <ele>87</ele>
        <time>2025-05-13T13:41:39Z</time>
      </trkpt>
      <trkpt lat="47.52114" lon="-2.81223">
        <ele>87</ele>
        <time>2025-05-13T13:41:40Z</time>
      </trkpt>
      <trkpt lat="47.52113" lon="-2.8122">
        <ele>87</ele>
        <time>2025-05-13T13:41:41Z</time>
      </trkpt>
      <trkpt lat="47.52112" lon="-2.81216">
        <ele>87</ele>
        <time>2025-05-13T13:41:42Z</time>
      </trkpt>
      <trkpt lat="47.52111" lon="-2.81212">
        <ele>87</ele>
        <time>2025-05-13T13:41:43Z</time>
      </trkpt>
      <trkpt lat="47.5211" lon="-2.81209">
        <ele>87</ele>
        <time>2025-05-13T13:41:44Z</time>
      </trkpt>
      <trkpt lat="47.52109" lon="-2.81206">
        <ele>87</ele>
        <time>2025-05-13T13:41:45Z</time>
      </trkpt>
      <trkpt lat="47.52109" lon="-2.81203">
        <ele>86</ele>
        <time>2025-05-13T13:41:46Z</time>
      </trkpt>
      <trkpt lat="47.52108" lon="-2.81199">
        <ele>86</ele>
        <time>2025-05-13T13:41:47Z</time>
      </trkpt>
      <trkpt lat="47.52107" lon="-2.81196">
        <ele>86</ele>
        <time>2025-05-13T13:41:48Z</time>
      </trkpt>
      <trkpt lat="47.52106" lon="-2.81192">
        <ele>86</ele>
        <time>2025-05-13T13:41:49Z</time>
      </trkpt>
      <trkpt lat="47.52105" lon="-2.81188">
        <ele>86</ele>
        <time>2025-05-13T13:41:50Z</time>
      </trkpt>
      <trkpt lat="47.52104" lon="-2.81184">
        <ele>87</ele>
        <time>2025-05-13T13:41:51Z</time>
      </trkpt>
      <trkpt lat="47.52103" lon="-2.8118">
        <ele>87</ele>
        <time>2025-05-13T13:41:52Z</time>
      </trkpt>
      <trkpt lat="47.52102" lon="-2.81176">
        <ele>87</ele>
        <time>2025-05-13T13:41:53Z</time>
      </trkpt>
      <trkpt lat="47.52102" lon="-2.81172">
        <ele>88</ele>
        <time>2025-05-13T13:41:54Z</time>
      </trkpt>
      <trkpt lat="47.52101" lon="-2.81168">
        <ele>88</ele>
        <time>2025-05-13T13:41:55Z</time>
      </trkpt>
      <trkpt lat="47.521" lon="-2.81164">
        <ele>88</ele>
        <time>2025-05-13T13:41:56Z</time>
      </trkpt>
      <trkpt lat="47.521" lon="-2.8116">
        <ele>88</ele>
        <time>2025-05-13T13:41:57Z</time>
      </trkpt>
      <trkpt lat="47.52099" lon="-2.81156">
        <ele>89</ele>
        <time>2025-05-13T13:41:58Z</time>
      </trkpt>
      <trkpt lat="47.52098" lon="-2.81153">
        <ele>89</ele>
        <time>2025-05-13T13:41:59Z</time>
      </trkpt>
      <trkpt lat="47.52098" lon="-2.81149">
        <ele>89</ele>
        <time>2025-05-13T13:42:00Z</time>
      </trkpt>
      <trkpt lat="47.52097" lon="-2.81144">
        <ele>89</ele>
        <time>2025-05-13T13:42:01Z</time>
      </trkpt>
      <trkpt lat="47.52097" lon="-2.8114">
        <ele>89</ele>
        <time>2025-05-13T13:42:02Z</time>
      </trkpt>
      <trkpt lat="47.52096" lon="-2.81136">
        <ele>89</ele>
        <time>2025-05-13T13:42:03Z</time>
      </trkpt>
      <trkpt lat="47.52096" lon="-2.81132">
        <ele>89</ele>
        <time>2025-05-13T13:42:04Z</time>
      </trkpt>
      <trkpt lat="47.52096" lon="-2.81128">
        <ele>89</ele>
        <time>2025-05-13T13:42:05Z</time>
      </trkpt>
      <trkpt lat="47.52096" lon="-2.81125">
        <ele>89</ele>
        <time>2025-05-13T13:42:06Z</time>
      </trkpt>
      <trkpt lat="47.52096" lon="-2.81121">
        <ele>89</ele>
        <time>2025-05-13T13:42:07Z</time>
      </trkpt>
      <trkpt lat="47.52096" lon="-2.81117">
        <ele>89</ele>
        <time>2025-05-13T13:42:08Z</time>
      </trkpt>
      <trkpt lat="47.52095" lon="-2.81113">
        <ele>89</ele>
        <time>2025-05-13T13:42:09Z</time>
      </trkpt>
      <trkpt lat="47.52095" lon="-2.81109">
        <ele>88</ele>
        <time>2025-05-13T13:42:10Z</time>
      </trkpt>
      <trkpt lat="47.52095" lon="-2.81104">
        <ele>88</ele>
        <time>2025-05-13T13:42:11Z</time>
      </trkpt>
      <trkpt lat="47.52094" lon="-2.811">
        <ele>88</ele>
        <time>2025-05-13T13:42:12Z</time>
      </trkpt>
      <trkpt lat="47.52094" lon="-2.81096">
        <ele>88</ele>
        <time>2025-05-13T13:42:13Z</time>
      </trkpt>
      <trkpt lat="47.52094" lon="-2.81091">
        <ele>88</ele>
        <time>2025-05-13T13:42:14Z</time>
      </trkpt>
      <trkpt lat="47.52094" lon="-2.81087">
        <ele>88</ele>
        <time>2025-05-13T13:42:15Z</time>
      </trkpt>
      <trkpt lat="47.52094" lon="-2.81083">
        <ele>88</ele>
        <time>2025-05-13T13:42:16Z</time>
      </trkpt>
      <trkpt lat="47.52094" lon="-2.81078">
        <ele>88</ele>
        <time>2025-05-13T13:42:17Z</time>
      </trkpt>
      <trkpt lat="47.52094" lon="-2.81073">
        <ele>88</ele>
        <time>2025-05-13T13:42:18Z</time>
      </trkpt>
      <trkpt lat="47.52094" lon="-2.81068">
        <ele>87</ele>
        <time>2025-05-13T13:42:19Z</time>
      </trkpt>
      <trkpt lat="47.52093" lon="-2.81063">
        <ele>87</ele>
        <time>2025-05-13T13:42:20Z</time>
      </trkpt>
      <trkpt lat="47.52093" lon="-2.81058">
        <ele>87</ele>
        <time>2025-05-13T13:42:21Z</time>
      </trkpt>
      <trkpt lat="47.52093" lon="-2.81053">
        <ele>88</ele>
        <time>2025-05-13T13:42:22Z</time>
      </trkpt>
      <trkpt lat="47.52093" lon="-2.81048">
        <ele>88</ele>
        <time>2025-05-13T13:42:23Z</time>
      </trkpt>
      <trkpt lat="47.52092" lon="-2.81043">
        <ele>88</ele>
        <time>2025-05-13T13:42:24Z</time>
      </trkpt>
      <trkpt lat="47.52092" lon="-2.81039">
        <ele>88</ele>
        <time>2025-05-13T13:42:25Z</time>
      </trkpt>
      <trkpt lat="47.52092" lon="-2.81034">
        <ele>88</ele>
        <time>2025-05-13T13:42:26Z</time>
      </trkpt>
      <trkpt lat="47.52091" lon="-2.81029">
        <ele>88</ele>
        <time>2025-05-13T13:42:27Z</time>
      </trkpt>
      <trkpt lat="47.52091" lon="-2.81025">
        <ele>88</ele>
        <time>2025-05-13T13:42:28Z</time>
      </trkpt>
      <trkpt lat="47.52091" lon="-2.8102">
        <ele>88</ele>
        <time>2025-05-13T13:42:29Z</time>
      </trkpt>
      <trkpt lat="47.52091" lon="-2.81015">
        <ele>88</ele>
        <time>2025-05-13T13:42:30Z</time>
      </trkpt>
      <trkpt lat="47.52091" lon="-2.8101">
        <ele>88</ele>
        <time>2025-05-13T13:42:31Z</time>
      </trkpt>
      <trkpt lat="47.52091" lon="-2.81004">
        <ele>88</ele>
        <time>2025-05-13T13:42:32Z</time>
      </trkpt>
      <trkpt lat="47.5209" lon="-2.80999">
        <ele>88</ele>
        <time>2025-05-13T13:42:33Z</time>
      </trkpt>
      <trkpt lat="47.5209" lon="-2.80994">
        <ele>87</ele>
        <time>2025-05-13T13:42:34Z</time>
      </trkpt>
      <trkpt lat="47.5209" lon="-2.80988">
        <ele>87</ele>
        <time>2025-05-13T13:42:35Z</time>
      </trkpt>
      <trkpt lat="47.5209" lon="-2.80982">
        <ele>87</ele>
        <time>2025-05-13T13:42:36Z</time>
      </trkpt>
      <trkpt lat="47.5209" lon="-2.80977">
        <ele>87</ele>
        <time>2025-05-13T13:42:37Z</time>
      </trkpt>
      <trkpt lat="47.5209" lon="-2.80971">
        <ele>87</ele>
        <time>2025-05-13T13:42:38Z</time>
      </trkpt>
      <trkpt lat="47.5209" lon="-2.80966">
        <ele>87</ele>
        <time>2025-05-13T13:42:39Z</time>
      </trkpt>
      <trkpt lat="47.5209" lon="-2.8096">
        <ele>87</ele>
        <time>2025-05-13T13:42:40Z</time>
      </trkpt>
      <trkpt lat="47.5209" lon="-2.80954">
        <ele>87</ele>
        <time>2025-05-13T13:42:41Z</time>
      </trkpt>
      <trkpt lat="47.52091" lon="-2.80947">
        <ele>87</ele>
        <time>2025-05-13T13:42:42Z</time>
      </trkpt>
      <trkpt lat="47.52091" lon="-2.80941">
        <ele>87</ele>
        <time>2025-05-13T13:42:43Z</time>
      </trkpt>
      <trkpt lat="47.52091" lon="-2.80935">
        <ele>87</ele>
        <time>2025-05-13T13:42:44Z</time>
      </trkpt>
      <trkpt lat="47.52092" lon="-2.80929">
        <ele>87</ele>
        <time>2025-05-13T13:42:45Z</time>
      </trkpt>
      <trkpt lat="47.52092" lon="-2.80922">
        <ele>87</ele>
        <time>2025-05-13T13:42:46Z</time>
      </trkpt>
      <trkpt lat="47.52092" lon="-2.80916">
        <ele>87</ele>
        <time>2025-05-13T13:42:47Z</time>
      </trkpt>
      <trkpt lat="47.52092" lon="-2.80909">
        <ele>87</ele>
        <time>2025-05-13T13:42:48Z</time>
      </trkpt>
      <trkpt lat="47.52093" lon="-2.80903">
        <ele>87</ele>
        <time>2025-05-13T13:42:49Z</time>
      </trkpt>
      <trkpt lat="47.52094" lon="-2.80896">
        <ele>87</ele>
        <time>2025-05-13T13:42:50Z</time>
      </trkpt>
      <trkpt lat="47.52094" lon="-2.8089">
        <ele>87</ele>
        <time>2025-05-13T13:42:51Z</time>
      </trkpt>
      <trkpt lat="47.52094" lon="-2.80883">
        <ele>87</ele>
        <time>2025-05-13T13:42:52Z</time>
      </trkpt>
      <trkpt lat="47.52094" lon="-2.80877">
        <ele>87</ele>
        <time>2025-05-13T13:42:53Z</time>
      </trkpt>
      <trkpt lat="47.52094" lon="-2.80871">
        <ele>87</ele>
        <time>2025-05-13T13:42:54Z</time>
      </trkpt>
      <trkpt lat="47.52095" lon="-2.80865">
        <ele>87</ele>
        <time>2025-05-13T13:42:55Z</time>
      </trkpt>
      <trkpt lat="47.52095" lon="-2.80858">
        <ele>87</ele>
        <time>2025-05-13T13:42:56Z</time>
      </trkpt>
      <trkpt lat="47.52095" lon="-2.80852">
        <ele>87</ele>
        <time>2025-05-13T13:42:57Z</time>
      </trkpt>
      <trkpt lat="47.52095" lon="-2.80845">
        <ele>87</ele>
        <time>2025-05-13T13:42:58Z</time>
      </trkpt>
      <trkpt lat="47.52095" lon="-2.80839">
        <ele>87</ele>
        <time>2025-05-13T13:42:59Z</time>
      </trkpt>
      <trkpt lat="47.52095" lon="-2.80832">
        <ele>87</ele>
        <time>2025-05-13T13:43:00Z</time>
      </trkpt>
      <trkpt lat="47.52096" lon="-2.80826">
        <ele>87</ele>
        <time>2025-05-13T13:43:01Z</time>
      </trkpt>
      <trkpt lat="47.52096" lon="-2.80819">
        <ele>87</ele>
        <time>2025-05-13T13:43:02Z</time>
      </trkpt>
      <trkpt lat="47.52096" lon="-2.80813">
        <ele>87</ele>
        <time>2025-05-13T13:43:03Z</time>
      </trkpt>
      <trkpt lat="47.52095" lon="-2.80806">
        <ele>88</ele>
        <time>2025-05-13T13:43:04Z</time>
      </trkpt>
      <trkpt lat="47.52095" lon="-2.808">
        <ele>88</ele>
        <time>2025-05-13T13:43:05Z</time>
      </trkpt>
      <trkpt lat="47.52095" lon="-2.80794">
        <ele>88</ele>
        <time>2025-05-13T13:43:06Z</time>
      </trkpt>
      <trkpt lat="47.52095" lon="-2.80787">
        <ele>88</ele>
        <time>2025-05-13T13:43:07Z</time>
      </trkpt>
      <trkpt lat="47.52095" lon="-2.80781">
        <ele>87</ele>
        <time>2025-05-13T13:43:08Z</time>
      </trkpt>
      <trkpt lat="47.52095" lon="-2.80775">
        <ele>87</ele>
        <time>2025-05-13T13:43:09Z</time>
      </trkpt>
      <trkpt lat="47.52094" lon="-2.80769">
        <ele>87</ele>
        <time>2025-05-13T13:43:10Z</time>
      </trkpt>
      <trkpt lat="47.52094" lon="-2.80763">
        <ele>87</ele>
        <time>2025-05-13T13:43:11Z</time>
      </trkpt>
      <trkpt lat="47.52094" lon="-2.80756">
        <ele>87</ele>
        <time>2025-05-13T13:43:12Z</time>
      </trkpt>
      <trkpt lat="47.52094" lon="-2.8075">
        <ele>87</ele>
        <time>2025-05-13T13:43:13Z</time>
      </trkpt>
      <trkpt lat="47.52094" lon="-2.80744">
        <ele>87</ele>
        <time>2025-05-13T13:43:14Z</time>
      </trkpt>
      <trkpt lat="47.52094" lon="-2.80737">
        <ele>87</ele>
        <time>2025-05-13T13:43:15Z</time>
      </trkpt>
      <trkpt lat="47.52094" lon="-2.80731">
        <ele>87</ele>
        <time>2025-05-13T13:43:16Z</time>
      </trkpt>
      <trkpt lat="47.52094" lon="-2.80726">
        <ele>87</ele>
        <time>2025-05-13T13:43:17Z</time>
      </trkpt>
      <trkpt lat="47.52094" lon="-2.8072">
        <ele>87</ele>
        <time>2025-05-13T13:43:18Z</time>
      </trkpt>
      <trkpt lat="47.52095" lon="-2.80714">
        <ele>87</ele>
        <time>2025-05-13T13:43:19Z</time>
      </trkpt>
      <trkpt lat="47.52095" lon="-2.80708">
        <ele>87</ele>
        <time>2025-05-13T13:43:20Z</time>
      </trkpt>
      <trkpt lat="47.52095" lon="-2.80702">
        <ele>87</ele>
        <time>2025-05-13T13:43:21Z</time>
      </trkpt>
      <trkpt lat="47.52096" lon="-2.80696">
        <ele>87</ele>
        <time>2025-05-13T13:43:22Z</time>
      </trkpt>
      <trkpt lat="47.52096" lon="-2.8069">
        <ele>87</ele>
        <time>2025-05-13T13:43:23Z</time>
      </trkpt>
      <trkpt lat="47.52097" lon="-2.80684">
        <ele>87</ele>
        <time>2025-05-13T13:43:24Z</time>
      </trkpt>
      <trkpt lat="47.52097" lon="-2.80679">
        <ele>87</ele>
        <time>2025-05-13T13:43:25Z</time>
      </trkpt>
      <trkpt lat="47.52098" lon="-2.80673">
        <ele>88</ele>
        <time>2025-05-13T13:43:26Z</time>
      </trkpt>
      <trkpt lat="47.52098" lon="-2.80668">
        <ele>88</ele>
        <time>2025-05-13T13:43:27Z</time>
      </trkpt>
      <trkpt lat="47.52099" lon="-2.80663">
        <ele>88</ele>
        <time>2025-05-13T13:43:28Z</time>
      </trkpt>
      <trkpt lat="47.521" lon="-2.80658">
        <ele>88</ele>
        <time>2025-05-13T13:43:29Z</time>
      </trkpt>
      <trkpt lat="47.52102" lon="-2.80654">
        <ele>88</ele>
        <time>2025-05-13T13:43:30Z</time>
      </trkpt>
      <trkpt lat="47.52103" lon="-2.80649">
        <ele>88</ele>
        <time>2025-05-13T13:43:31Z</time>
      </trkpt>
      <trkpt lat="47.52103" lon="-2.80644">
        <ele>88</ele>
        <time>2025-05-13T13:43:32Z</time>
      </trkpt>
      <trkpt lat="47.52104" lon="-2.80639">
        <ele>88</ele>
        <time>2025-05-13T13:43:33Z</time>
      </trkpt>
      <trkpt lat="47.52104" lon="-2.80634">
        <ele>88</ele>
        <time>2025-05-13T13:43:34Z</time>
      </trkpt>
      <trkpt lat="47.52105" lon="-2.80629">
        <ele>88</ele>
        <time>2025-05-13T13:43:35Z</time>
      </trkpt>
      <trkpt lat="47.52107" lon="-2.80625">
        <ele>88</ele>
        <time>2025-05-13T13:43:36Z</time>
      </trkpt>
      <trkpt lat="47.52108" lon="-2.8062">
        <ele>88</ele>
        <time>2025-05-13T13:43:37Z</time>
      </trkpt>
      <trkpt lat="47.52109" lon="-2.80616">
        <ele>88</ele>
        <time>2025-05-13T13:43:38Z</time>
      </trkpt>
      <trkpt lat="47.5211" lon="-2.80611">
        <ele>88</ele>
        <time>2025-05-13T13:43:39Z</time>
      </trkpt>
      <trkpt lat="47.52112" lon="-2.80607">
        <ele>89</ele>
        <time>2025-05-13T13:43:40Z</time>
      </trkpt>
      <trkpt lat="47.52113" lon="-2.80602">
        <ele>88</ele>
        <time>2025-05-13T13:43:41Z</time>
      </trkpt>
      <trkpt lat="47.52115" lon="-2.80598">
        <ele>88</ele>
        <time>2025-05-13T13:43:42Z</time>
      </trkpt>
      <trkpt lat="47.52116" lon="-2.80594">
        <ele>88</ele>
        <time>2025-05-13T13:43:43Z</time>
      </trkpt>
      <trkpt lat="47.52117" lon="-2.80591">
        <ele>88</ele>
        <time>2025-05-13T13:43:44Z</time>
      </trkpt>
      <trkpt lat="47.52118" lon="-2.80588">
        <ele>88</ele>
        <time>2025-05-13T13:43:45Z</time>
      </trkpt>
      <trkpt lat="47.52119" lon="-2.80587">
        <ele>88</ele>
        <time>2025-05-13T13:43:46Z</time>
      </trkpt>
      <trkpt lat="47.5212" lon="-2.80587">
        <ele>89</ele>
        <time>2025-05-13T13:43:47Z</time>
      </trkpt>
      <trkpt lat="47.52121" lon="-2.80587">
        <ele>89</ele>
        <time>2025-05-13T13:43:48Z</time>
      </trkpt>
      <trkpt lat="47.52121" lon="-2.80587">
        <ele>89</ele>
        <time>2025-05-13T13:43:49Z</time>
      </trkpt>
      <trkpt lat="47.52121" lon="-2.80587">
        <ele>89</ele>
        <time>2025-05-13T13:43:50Z</time>
      </trkpt>
      <trkpt lat="47.52121" lon="-2.80587">
        <ele>89</ele>
        <time>2025-05-13T13:43:51Z</time>
      </trkpt>
      <trkpt lat="47.5212" lon="-2.80587">
        <ele>89</ele>
        <time>2025-05-13T13:43:52Z</time>
      </trkpt>
      <trkpt lat="47.5212" lon="-2.80586">
        <ele>88</ele>
        <time>2025-05-13T13:43:53Z</time>
      </trkpt>
      <trkpt lat="47.5212" lon="-2.80586">
        <ele>88</ele>
        <time>2025-05-13T13:43:54Z</time>
      </trkpt>
      <trkpt lat="47.5212" lon="-2.80586">
        <ele>88</ele>
        <time>2025-05-13T13:43:55Z</time>
      </trkpt>
      <trkpt lat="47.5212" lon="-2.80586">
        <ele>88</ele>
        <time>2025-05-13T13:43:56Z</time>
      </trkpt>
      <trkpt lat="47.5212" lon="-2.80586">
        <ele>88</ele>
        <time>2025-05-13T13:43:57Z</time>
      </trkpt>
      <trkpt lat="47.5212" lon="-2.80586">
        <ele>88</ele>
        <time>2025-05-13T13:43:58Z</time>
      </trkpt>
      <trkpt lat="47.5212" lon="-2.80586">
        <ele>88</ele>
        <time>2025-05-13T13:43:59Z</time>
      </trkpt>
      <trkpt lat="47.5212" lon="-2.80586">
        <ele>88</ele>
        <time>2025-05-13T13:44:00Z</time>
      </trkpt>
      <trkpt lat="47.5212" lon="-2.80586">
        <ele>88</ele>
        <time>2025-05-13T13:44:01Z</time>
      </trkpt>
      <trkpt lat="47.5212" lon="-2.80586">
        <ele>88</ele>
        <time>2025-05-13T13:44:02Z</time>
      </trkpt>
      <trkpt lat="47.5212" lon="-2.80586">
        <ele>88</ele>
        <time>2025-05-13T13:44:03Z</time>
      </trkpt>
      <trkpt lat="47.5212" lon="-2.80586">
        <ele>88</ele>
        <time>2025-05-13T13:44:04Z</time>
      </trkpt>
      <trkpt lat="47.5212" lon="-2.80586">
        <ele>88</ele>
        <time>2025-05-13T13:44:05Z</time>
      </trkpt>
      <trkpt lat="47.5212" lon="-2.80586">
        <ele>88</ele>
        <time>2025-05-13T13:44:06Z</time>
      </trkpt>
      <trkpt lat="47.5212" lon="-2.80586">
        <ele>88</ele>
        <time>2025-05-13T13:44:07Z</time>
      </trkpt>
      <trkpt lat="47.5212" lon="-2.80586">
        <ele>88</ele>
        <time>2025-05-13T13:44:08Z</time>
      </trkpt>
      <trkpt lat="47.5212" lon="-2.80586">
        <ele>88</ele>
        <time>2025-05-13T13:44:09Z</time>
      </trkpt>
      <trkpt lat="47.5212" lon="-2.80586">
        <ele>88</ele>
        <time>2025-05-13T13:44:10Z</time>
      </trkpt>
      <trkpt lat="47.5212" lon="-2.80586">
        <ele>88</ele>
        <time>2025-05-13T13:44:11Z</time>
      </trkpt>
      <trkpt lat="47.5212" lon="-2.80586">
        <ele>88</ele>
        <time>2025-05-13T13:44:12Z</time>
      </trkpt>
      <trkpt lat="47.5212" lon="-2.80586">
        <ele>88</ele>
        <time>2025-05-13T13:44:13Z</time>
      </trkpt>
      <trkpt lat="47.5212" lon="-2.80586">
        <ele>88</ele>
        <time>2025-05-13T13:44:14Z</time>
      </trkpt>
      <trkpt lat="47.5212" lon="-2.80586">
        <ele>88</ele>
        <time>2025-05-13T13:44:15Z</time>
      </trkpt>
      <trkpt lat="47.5212" lon="-2.80586">
        <ele>88</ele>
        <time>2025-05-13T13:44:16Z</time>
      </trkpt>
      <trkpt lat="47.5212" lon="-2.80586">
        <ele>88</ele>
        <time>2025-05-13T13:44:17Z</time>
      </trkpt>
      <trkpt lat="47.5212" lon="-2.80586">
        <ele>88</ele>
        <time>2025-05-13T13:44:18Z</time>
      </trkpt>
      <trkpt lat="47.5212" lon="-2.80586">
        <ele>88</ele>
        <time>2025-05-13T13:44:19Z</time>
      </trkpt>
      <trkpt lat="47.5212" lon="-2.80586">
        <ele>88</ele>
        <time>2025-05-13T13:44:20Z</time>
      </trkpt>
      <trkpt lat="47.5212" lon="-2.80586">
        <ele>88</ele>
        <time>2025-05-13T13:44:21Z</time>
      </trkpt>
      <trkpt lat="47.5212" lon="-2.80586">
        <ele>88</ele>
        <time>2025-05-13T13:44:22Z</time>
      </trkpt>
      <trkpt lat="47.5212" lon="-2.80586">
        <ele>88</ele>
        <time>2025-05-13T13:44:23Z</time>
      </trkpt>
      <trkpt lat="47.5212" lon="-2.80586">
        <ele>88</ele>
        <time>2025-05-13T13:44:24Z</time>
      </trkpt>
      <trkpt lat="47.5212" lon="-2.80586">
        <ele>88</ele>
        <time>2025-05-13T13:44:25Z</time>
      </trkpt>
      <trkpt lat="47.5212" lon="-2.80586">
        <ele>88</ele>
        <time>2025-05-13T13:44:26Z</time>
      </trkpt>
      <trkpt lat="47.5212" lon="-2.80586">
        <ele>88</ele>
        <time>2025-05-13T13:44:27Z</time>
      </trkpt>
      <trkpt lat="47.5212" lon="-2.80586">
        <ele>88</ele>
        <time>2025-05-13T13:44:28Z</time>
      </trkpt>
      <trkpt lat="47.5212" lon="-2.80586">
        <ele>88</ele>
        <time>2025-05-13T13:44:29Z</time>
      </trkpt>
      <trkpt lat="47.5212" lon="-2.80586">
        <ele>88</ele>
        <time>2025-05-13T13:44:30Z</time>
      </trkpt>
      <trkpt lat="47.5212" lon="-2.80586">
        <ele>88</ele>
        <time>2025-05-13T13:44:31Z</time>
      </trkpt>
      <trkpt lat="47.5212" lon="-2.80586">
        <ele>88</ele>
        <time>2025-05-13T13:44:32Z</time>
      </trkpt>
      <trkpt lat="47.5212" lon="-2.80586">
        <ele>88</ele>
        <time>2025-05-13T13:44:33Z</time>
      </trkpt>
      <trkpt lat="47.5212" lon="-2.80586">
        <ele>88</ele>
        <time>2025-05-13T13:44:34Z</time>
      </trkpt>
      <trkpt lat="47.5212" lon="-2.80586">
        <ele>88</ele>
        <time>2025-05-13T13:44:35Z</time>
      </trkpt>
      <trkpt lat="47.5212" lon="-2.80586">
        <ele>88</ele>
        <time>2025-05-13T13:44:36Z</time>
      </trkpt>
      <trkpt lat="47.5212" lon="-2.80586">
        <ele>88</ele>
        <time>2025-05-13T13:44:37Z</time>
      </trkpt>
      <trkpt lat="47.5212" lon="-2.80586">
        <ele>88</ele>
        <time>2025-05-13T13:44:38Z</time>
      </trkpt>
      <trkpt lat="47.5212" lon="-2.80586">
        <ele>88</ele>
        <time>2025-05-13T13:44:39Z</time>
      </trkpt>
      <trkpt lat="47.5212" lon="-2.80586">
        <ele>88</ele>
        <time>2025-05-13T13:44:40Z</time>
      </trkpt>
      <trkpt lat="47.5212" lon="-2.80586">
        <ele>88</ele>
        <time>2025-05-13T13:44:41Z</time>
      </trkpt>
      <trkpt lat="47.5212" lon="-2.80586">
        <ele>88</ele>
        <time>2025-05-13T13:44:42Z</time>
      </trkpt>
      <trkpt lat="47.5212" lon="-2.80586">
        <ele>88</ele>
        <time>2025-05-13T13:44:43Z</time>
      </trkpt>
      <trkpt lat="47.5212" lon="-2.80586">
        <ele>88</ele>
        <time>2025-05-13T13:44:44Z</time>
      </trkpt>
      <trkpt lat="47.5212" lon="-2.80586">
        <ele>88</ele>
        <time>2025-05-13T13:44:45Z</time>
      </trkpt>
      <trkpt lat="47.5212" lon="-2.80586">
        <ele>88</ele>
        <time>2025-05-13T13:44:46Z</time>
      </trkpt>
      <trkpt lat="47.5212" lon="-2.80586">
        <ele>88</ele>
        <time>2025-05-13T13:44:47Z</time>
      </trkpt>
      <trkpt lat="47.5212" lon="-2.80586">
        <ele>88</ele>
        <time>2025-05-13T13:44:48Z</time>
      </trkpt>
      <trkpt lat="47.5212" lon="-2.80586">
        <ele>88</ele>
        <time>2025-05-13T13:44:49Z</time>
      </trkpt>
      <trkpt lat="47.5212" lon="-2.80586">
        <ele>88</ele>
        <time>2025-05-13T13:44:50Z</time>
      </trkpt>
      <trkpt lat="47.5212" lon="-2.80586">
        <ele>88</ele>
        <time>2025-05-13T13:44:51Z</time>
      </trkpt>
      <trkpt lat="47.5212" lon="-2.80586">
        <ele>88</ele>
        <time>2025-05-13T13:44:52Z</time>
      </trkpt>
      <trkpt lat="47.5212" lon="-2.80586">
        <ele>88</ele>
        <time>2025-05-13T13:44:53Z</time>
      </trkpt>
      <trkpt lat="47.5212" lon="-2.80586">
        <ele>88</ele>
        <time>2025-05-13T13:44:54Z</time>
      </trkpt>
      <trkpt lat="47.5212" lon="-2.80586">
        <ele>88</ele>
        <time>2025-05-13T13:44:55Z</time>
      </trkpt>
      <trkpt lat="47.5212" lon="-2.80586">
        <ele>88</ele>
        <time>2025-05-13T13:44:56Z</time>
      </trkpt>
      <trkpt lat="47.5212" lon="-2.80586">
        <ele>88</ele>
        <time>2025-05-13T13:44:57Z</time>
      </trkpt>
      <trkpt lat="47.5212" lon="-2.80586">
        <ele>88</ele>
        <time>2025-05-13T13:44:58Z</time>
      </trkpt>
      <trkpt lat="47.5212" lon="-2.80586">
        <ele>88</ele>
        <time>2025-05-13T13:44:59Z</time>
      </trkpt>
      <trkpt lat="47.5212" lon="-2.80586">
        <ele>88</ele>
        <time>2025-05-13T13:45:00Z</time>
      </trkpt>
      <trkpt lat="47.5212" lon="-2.80586">
        <ele>88</ele>
        <time>2025-05-13T13:45:01Z</time>
      </trkpt>
      <trkpt lat="47.5212" lon="-2.80586">
        <ele>88</ele>
        <time>2025-05-13T13:45:02Z</time>
      </trkpt>
      <trkpt lat="47.5212" lon="-2.80586">
        <ele>88</ele>
        <time>2025-05-13T13:53:40Z</time>
      </trkpt>
      <trkpt lat="47.5212" lon="-2.80586">
        <ele>88</ele>
        <time>2025-05-13T13:53:41Z</time>
      </trkpt>
      <trkpt lat="47.5212" lon="-2.80586">
        <ele>88</ele>
        <time>2025-05-13T13:53:42Z</time>
      </trkpt>
      <trkpt lat="47.5212" lon="-2.80586">
        <ele>88</ele>
        <time>2025-05-13T13:53:43Z</time>
      </trkpt>
      <trkpt lat="47.5212" lon="-2.80586">
        <ele>88</ele>
        <time>2025-05-13T13:53:44Z</time>
      </trkpt>
      <trkpt lat="47.5212" lon="-2.80586">
        <ele>88</ele>
        <time>2025-05-13T13:53:45Z</time>
      </trkpt>
      <trkpt lat="47.5212" lon="-2.80586">
        <ele>88</ele>
        <time>2025-05-13T13:53:46Z</time>
      </trkpt>
      <trkpt lat="47.52121" lon="-2.80579">
        <ele>91</ele>
        <time>2025-05-13T13:53:47Z</time>
      </trkpt>
      <trkpt lat="47.52121" lon="-2.80577">
        <ele>92</ele>
        <time>2025-05-13T13:53:48Z</time>
      </trkpt>
      <trkpt lat="47.52122" lon="-2.80574">
        <ele>92</ele>
        <time>2025-05-13T13:53:49Z</time>
      </trkpt>
      <trkpt lat="47.52122" lon="-2.80571">
        <ele>92</ele>
        <time>2025-05-13T13:53:50Z</time>
      </trkpt>
      <trkpt lat="47.52123" lon="-2.80567">
        <ele>93</ele>
        <time>2025-05-13T13:53:51Z</time>
      </trkpt>
      <trkpt lat="47.52123" lon="-2.80564">
        <ele>92</ele>
        <time>2025-05-13T13:53:52Z</time>
      </trkpt>
      <trkpt lat="47.52124" lon="-2.80561">
        <ele>92</ele>
        <time>2025-05-13T13:53:53Z</time>
      </trkpt>
      <trkpt lat="47.52125" lon="-2.80557">
        <ele>91</ele>
        <time>2025-05-13T13:53:54Z</time>
      </trkpt>
      <trkpt lat="47.52125" lon="-2.80553">
        <ele>91</ele>
        <time>2025-05-13T13:53:55Z</time>
      </trkpt>
      <trkpt lat="47.52126" lon="-2.80549">
        <ele>91</ele>
        <time>2025-05-13T13:53:56Z</time>
      </trkpt>
      <trkpt lat="47.52126" lon="-2.80545">
        <ele>91</ele>
        <time>2025-05-13T13:53:57Z</time>
      </trkpt>
      <trkpt lat="47.52127" lon="-2.80541">
        <ele>91</ele>
        <time>2025-05-13T13:53:58Z</time>
      </trkpt>
      <trkpt lat="47.52128" lon="-2.80536">
        <ele>91</ele>
        <time>2025-05-13T13:53:59Z</time>
      </trkpt>
      <trkpt lat="47.52128" lon="-2.80532">
        <ele>91</ele>
        <time>2025-05-13T13:54:00Z</time>
      </trkpt>
      <trkpt lat="47.52128" lon="-2.80527">
        <ele>91</ele>
        <time>2025-05-13T13:54:01Z</time>
      </trkpt>
      <trkpt lat="47.52129" lon="-2.80522">
        <ele>92</ele>
        <time>2025-05-13T13:54:02Z</time>
      </trkpt>
      <trkpt lat="47.52129" lon="-2.80518">
        <ele>92</ele>
        <time>2025-05-13T13:54:03Z</time>
      </trkpt>
      <trkpt lat="47.52129" lon="-2.80513">
        <ele>92</ele>
        <time>2025-05-13T13:54:04Z</time>
      </trkpt>
      <trkpt lat="47.5213" lon="-2.80508">
        <ele>92</ele>
        <time>2025-05-13T13:54:05Z</time>
      </trkpt>
      <trkpt lat="47.52131" lon="-2.80504">
        <ele>92</ele>
        <time>2025-05-13T13:54:06Z</time>
      </trkpt>
      <trkpt lat="47.52131" lon="-2.80499">
        <ele>92</ele>
        <time>2025-05-13T13:54:07Z</time>
      </trkpt>
      <trkpt lat="47.52132" lon="-2.80494">
        <ele>92</ele>
        <time>2025-05-13T13:54:08Z</time>
      </trkpt>
      <trkpt lat="47.52132" lon="-2.80489">
        <ele>91</ele>
        <time>2025-05-13T13:54:09Z</time>
      </trkpt>
      <trkpt lat="47.52132" lon="-2.80484">
        <ele>92</ele>
        <time>2025-05-13T13:54:10Z</time>
      </trkpt>
      <trkpt lat="47.52133" lon="-2.80479">
        <ele>92</ele>
        <time>2025-05-13T13:54:11Z</time>
      </trkpt>
      <trkpt lat="47.52134" lon="-2.80474">
        <ele>92</ele>
        <time>2025-05-13T13:54:12Z</time>
      </trkpt>
      <trkpt lat="47.52135" lon="-2.80469">
        <ele>92</ele>
        <time>2025-05-13T13:54:13Z</time>
      </trkpt>
      <trkpt lat="47.52136" lon="-2.80464">
        <ele>91</ele>
        <time>2025-05-13T13:54:14Z</time>
      </trkpt>
      <trkpt lat="47.52136" lon="-2.80459">
        <ele>91</ele>
        <time>2025-05-13T13:54:15Z</time>
      </trkpt>
      <trkpt lat="47.52137" lon="-2.80453">
        <ele>90</ele>
        <time>2025-05-13T13:54:16Z</time>
      </trkpt>
      <trkpt lat="47.52137" lon="-2.80448">
        <ele>90</ele>
        <time>2025-05-13T13:54:17Z</time>
      </trkpt>
      <trkpt lat="47.52138" lon="-2.80443">
        <ele>90</ele>
        <time>2025-05-13T13:54:18Z</time>
      </trkpt>
      <trkpt lat="47.52138" lon="-2.80438">
        <ele>90</ele>
        <time>2025-05-13T13:54:19Z</time>
      </trkpt>
      <trkpt lat="47.52139" lon="-2.80433">
        <ele>90</ele>
        <time>2025-05-13T13:54:20Z</time>
      </trkpt>
      <trkpt lat="47.5214" lon="-2.80428">
        <ele>90</ele>
        <time>2025-05-13T13:54:21Z</time>
      </trkpt>
      <trkpt lat="47.52142" lon="-2.80423">
        <ele>89</ele>
        <time>2025-05-13T13:54:22Z</time>
      </trkpt>
      <trkpt lat="47.52143" lon="-2.80417">
        <ele>89</ele>
        <time>2025-05-13T13:54:23Z</time>
      </trkpt>
      <trkpt lat="47.52143" lon="-2.80412">
        <ele>89</ele>
        <time>2025-05-13T13:54:24Z</time>
      </trkpt>
      <trkpt lat="47.52144" lon="-2.80405">
        <ele>89</ele>
        <time>2025-05-13T13:54:25Z</time>
      </trkpt>
      <trkpt lat="47.52146" lon="-2.80399">
        <ele>89</ele>
        <time>2025-05-13T13:54:26Z</time>
      </trkpt>
      <trkpt lat="47.52147" lon="-2.80392">
        <ele>89</ele>
        <time>2025-05-13T13:54:27Z</time>
      </trkpt>
      <trkpt lat="47.52148" lon="-2.80386">
        <ele>89</ele>
        <time>2025-05-13T13:54:28Z</time>
      </trkpt>
      <trkpt lat="47.5215" lon="-2.8038">
        <ele>88</ele>
        <time>2025-05-13T13:54:29Z</time>
      </trkpt>
      <trkpt lat="47.52151" lon="-2.80373">
        <ele>89</ele>
        <time>2025-05-13T13:54:30Z</time>
      </trkpt>
      <trkpt lat="47.52152" lon="-2.80367">
        <ele>88</ele>
        <time>2025-05-13T13:54:31Z</time>
      </trkpt>
      <trkpt lat="47.52153" lon="-2.80361">
        <ele>88</ele>
        <time>2025-05-13T13:54:32Z</time>
      </trkpt>
      <trkpt lat="47.52153" lon="-2.80354">
        <ele>88</ele>
        <time>2025-05-13T13:54:33Z</time>
      </trkpt>
      <trkpt lat="47.52154" lon="-2.80347">
        <ele>89</ele>
        <time>2025-05-13T13:54:34Z</time>
      </trkpt>
      <trkpt lat="47.52155" lon="-2.80341">
        <ele>89</ele>
        <time>2025-05-13T13:54:35Z</time>
      </trkpt>
      <trkpt lat="47.52156" lon="-2.80335">
        <ele>89</ele>
        <time>2025-05-13T13:54:36Z</time>
      </trkpt>
      <trkpt lat="47.52156" lon="-2.80331">
        <ele>89</ele>
        <time>2025-05-13T13:54:37Z</time>
      </trkpt>
      <trkpt lat="47.52157" lon="-2.80325">
        <ele>90</ele>
        <time>2025-05-13T13:54:38Z</time>
      </trkpt>
      <trkpt lat="47.52157" lon="-2.80318">
        <ele>90</ele>
        <time>2025-05-13T13:54:39Z</time>
      </trkpt>
      <trkpt lat="47.52157" lon="-2.80312">
        <ele>90</ele>
        <time>2025-05-13T13:54:40Z</time>
      </trkpt>
      <trkpt lat="47.52156" lon="-2.80306">
        <ele>91</ele>
        <time>2025-05-13T13:54:41Z</time>
      </trkpt>
      <trkpt lat="47.52156" lon="-2.80299">
        <ele>91</ele>
        <time>2025-05-13T13:54:42Z</time>
      </trkpt>
      <trkpt lat="47.52156" lon="-2.80293">
        <ele>91</ele>
        <time>2025-05-13T13:54:43Z</time>
      </trkpt>
      <trkpt lat="47.52156" lon="-2.80287">
        <ele>91</ele>
        <time>2025-05-13T13:54:44Z</time>
      </trkpt>
      <trkpt lat="47.52157" lon="-2.80281">
        <ele>91</ele>
        <time>2025-05-13T13:54:45Z</time>
      </trkpt>
      <trkpt lat="47.52157" lon="-2.80275">
        <ele>91</ele>
        <time>2025-05-13T13:54:46Z</time>
      </trkpt>
      <trkpt lat="47.52157" lon="-2.80269">
        <ele>90</ele>
        <time>2025-05-13T13:54:47Z</time>
      </trkpt>
      <trkpt lat="47.52156" lon="-2.80263">
        <ele>90</ele>
        <time>2025-05-13T13:54:48Z</time>
      </trkpt>
      <trkpt lat="47.52156" lon="-2.80256">
        <ele>90</ele>
        <time>2025-05-13T13:54:49Z</time>
      </trkpt>
      <trkpt lat="47.52155" lon="-2.8025">
        <ele>90</ele>
        <time>2025-05-13T13:54:50Z</time>
      </trkpt>
      <trkpt lat="47.52155" lon="-2.80244">
        <ele>90</ele>
        <time>2025-05-13T13:54:51Z</time>
      </trkpt>
      <trkpt lat="47.52155" lon="-2.80238">
        <ele>90</ele>
        <time>2025-05-13T13:54:52Z</time>
      </trkpt>
      <trkpt lat="47.52155" lon="-2.80233">
        <ele>90</ele>
        <time>2025-05-13T13:54:53Z</time>
      </trkpt>
      <trkpt lat="47.52155" lon="-2.80228">
        <ele>90</ele>
        <time>2025-05-13T13:54:54Z</time>
      </trkpt>
      <trkpt lat="47.52154" lon="-2.80223">
        <ele>90</ele>
        <time>2025-05-13T13:54:55Z</time>
      </trkpt>
      <trkpt lat="47.52154" lon="-2.80217">
        <ele>89</ele>
        <time>2025-05-13T13:54:56Z</time>
      </trkpt>
      <trkpt lat="47.52154" lon="-2.80211">
        <ele>89</ele>
        <time>2025-05-13T13:54:57Z</time>
      </trkpt>
      <trkpt lat="47.52154" lon="-2.80206">
        <ele>89</ele>
        <time>2025-05-13T13:54:58Z</time>
      </trkpt>
      <trkpt lat="47.52154" lon="-2.802">
        <ele>89</ele>
        <time>2025-05-13T13:54:59Z</time>
      </trkpt>
      <trkpt lat="47.52155" lon="-2.80195">
        <ele>89</ele>
        <time>2025-05-13T13:55:00Z</time>
      </trkpt>
      <trkpt lat="47.52155" lon="-2.8019">
        <ele>89</ele>
        <time>2025-05-13T13:55:01Z</time>
      </trkpt>
      <trkpt lat="47.52156" lon="-2.80184">
        <ele>89</ele>
        <time>2025-05-13T13:55:02Z</time>
      </trkpt>
      <trkpt lat="47.52156" lon="-2.80178">
        <ele>89</ele>
        <time>2025-05-13T13:55:03Z</time>
      </trkpt>
      <trkpt lat="47.52157" lon="-2.80172">
        <ele>89</ele>
        <time>2025-05-13T13:55:04Z</time>
      </trkpt>
      <trkpt lat="47.52157" lon="-2.80166">
        <ele>89</ele>
        <time>2025-05-13T13:55:05Z</time>
      </trkpt>
      <trkpt lat="47.52157" lon="-2.80161">
        <ele>89</ele>
        <time>2025-05-13T13:55:06Z</time>
      </trkpt>
      <trkpt lat="47.52156" lon="-2.80155">
        <ele>89</ele>
        <time>2025-05-13T13:55:07Z</time>
      </trkpt>
      <trkpt lat="47.52156" lon="-2.80148">
        <ele>89</ele>
        <time>2025-05-13T13:55:08Z</time>
      </trkpt>
      <trkpt lat="47.52156" lon="-2.80142">
        <ele>89</ele>
        <time>2025-05-13T13:55:09Z</time>
      </trkpt>
      <trkpt lat="47.52156" lon="-2.80136">
        <ele>89</ele>
        <time>2025-05-13T13:55:10Z</time>
      </trkpt>
      <trkpt lat="47.52157" lon="-2.8013">
        <ele>89</ele>
        <time>2025-05-13T13:55:11Z</time>
      </trkpt>
      <trkpt lat="47.52157" lon="-2.80124">
        <ele>88</ele>
        <time>2025-05-13T13:55:12Z</time>
      </trkpt>
      <trkpt lat="47.52157" lon="-2.80117">
        <ele>88</ele>
        <time>2025-05-13T13:55:13Z</time>
      </trkpt>
      <trkpt lat="47.52157" lon="-2.80111">
        <ele>88</ele>
        <time>2025-05-13T13:55:14Z</time>
      </trkpt>
      <trkpt lat="47.52158" lon="-2.80105">
        <ele>88</ele>
        <time>2025-05-13T13:55:15Z</time>
      </trkpt>
      <trkpt lat="47.52158" lon="-2.80099">
        <ele>88</ele>
        <time>2025-05-13T13:55:16Z</time>
      </trkpt>
      <trkpt lat="47.52159" lon="-2.80092">
        <ele>88</ele>
        <time>2025-05-13T13:55:17Z</time>
      </trkpt>
      <trkpt lat="47.52159" lon="-2.80086">
        <ele>88</ele>
        <time>2025-05-13T13:55:18Z</time>
      </trkpt>
      <trkpt lat="47.52159" lon="-2.8008">
        <ele>88</ele>
        <time>2025-05-13T13:55:19Z</time>
      </trkpt>
      <trkpt lat="47.52159" lon="-2.80073">
        <ele>88</ele>
        <time>2025-05-13T13:55:20Z</time>
      </trkpt>
      <trkpt lat="47.52159" lon="-2.80066">
        <ele>88</ele>
        <time>2025-05-13T13:55:21Z</time>
      </trkpt>
      <trkpt lat="47.52159" lon="-2.8006">
        <ele>88</ele>
        <time>2025-05-13T13:55:22Z</time>
      </trkpt>
      <trkpt lat="47.52159" lon="-2.80054">
        <ele>88</ele>
        <time>2025-05-13T13:55:23Z</time>
      </trkpt>
      <trkpt lat="47.52159" lon="-2.80048">
        <ele>88</ele>
        <time>2025-05-13T13:55:24Z</time>
      </trkpt>
      <trkpt lat="47.52159" lon="-2.80042">
        <ele>88</ele>
        <time>2025-05-13T13:55:25Z</time>
      </trkpt>
      <trkpt lat="47.52159" lon="-2.80036">
        <ele>89</ele>
        <time>2025-05-13T13:55:26Z</time>
      </trkpt>
      <trkpt lat="47.52159" lon="-2.8003">
        <ele>89</ele>
        <time>2025-05-13T13:55:27Z</time>
      </trkpt>
      <trkpt lat="47.52159" lon="-2.80024">
        <ele>89</ele>
        <time>2025-05-13T13:55:28Z</time>
      </trkpt>
      <trkpt lat="47.52158" lon="-2.80017">
        <ele>89</ele>
        <time>2025-05-13T13:55:29Z</time>
      </trkpt>
      <trkpt lat="47.52157" lon="-2.80011">
        <ele>89</ele>
        <time>2025-05-13T13:55:30Z</time>
      </trkpt>
      <trkpt lat="47.52156" lon="-2.80005">
        <ele>89</ele>
        <time>2025-05-13T13:55:31Z</time>
      </trkpt>
      <trkpt lat="47.52155" lon="-2.79999">
        <ele>89</ele>
        <time>2025-05-13T13:55:32Z</time>
      </trkpt>
      <trkpt lat="47.52154" lon="-2.79992">
        <ele>89</ele>
        <time>2025-05-13T13:55:33Z</time>
      </trkpt>
      <trkpt lat="47.52153" lon="-2.79986">
        <ele>89</ele>
        <time>2025-05-13T13:55:34Z</time>
      </trkpt>
      <trkpt lat="47.52152" lon="-2.7998">
        <ele>89</ele>
        <time>2025-05-13T13:55:35Z</time>
      </trkpt>
      <trkpt lat="47.52151" lon="-2.79972">
        <ele>89</ele>
        <time>2025-05-13T13:55:36Z</time>
      </trkpt>
      <trkpt lat="47.5215" lon="-2.79965">
        <ele>88</ele>
        <time>2025-05-13T13:55:37Z</time>
      </trkpt>
      <trkpt lat="47.52149" lon="-2.79959">
        <ele>88</ele>
        <time>2025-05-13T13:55:38Z</time>
      </trkpt>
      <trkpt lat="47.52148" lon="-2.79952">
        <ele>88</ele>
        <time>2025-05-13T13:55:39Z</time>
      </trkpt>
      <trkpt lat="47.52147" lon="-2.79946">
        <ele>88</ele>
        <time>2025-05-13T13:55:40Z</time>
      </trkpt>
      <trkpt lat="47.52146" lon="-2.79939">
        <ele>88</ele>
        <time>2025-05-13T13:55:41Z</time>
      </trkpt>
      <trkpt lat="47.52145" lon="-2.79934">
        <ele>88</ele>
        <time>2025-05-13T13:55:42Z</time>
      </trkpt>
      <trkpt lat="47.52144" lon="-2.79929">
        <ele>88</ele>
        <time>2025-05-13T13:55:43Z</time>
      </trkpt>
      <trkpt lat="47.52143" lon="-2.79925">
        <ele>88</ele>
        <time>2025-05-13T13:55:44Z</time>
      </trkpt>
      <trkpt lat="47.52143" lon="-2.79921">
        <ele>88</ele>
        <time>2025-05-13T13:55:45Z</time>
      </trkpt>
      <trkpt lat="47.52142" lon="-2.79918">
        <ele>87</ele>
        <time>2025-05-13T13:55:46Z</time>
      </trkpt>
      <trkpt lat="47.52142" lon="-2.79914">
        <ele>87</ele>
        <time>2025-05-13T13:55:47Z</time>
      </trkpt>
      <trkpt lat="47.52142" lon="-2.79911">
        <ele>86</ele>
        <time>2025-05-13T13:55:48Z</time>
      </trkpt>
      <trkpt lat="47.52142" lon="-2.7991">
        <ele>86</ele>
        <time>2025-05-13T13:55:49Z</time>
      </trkpt>
      <trkpt lat="47.52141" lon="-2.7991">
        <ele>86</ele>
        <time>2025-05-13T13:55:50Z</time>
      </trkpt>
      <trkpt lat="47.52141" lon="-2.7991">
        <ele>87</ele>
        <time>2025-05-13T13:55:51Z</time>
      </trkpt>
      <trkpt lat="47.52141" lon="-2.79909">
        <ele>87</ele>
        <time>2025-05-13T13:55:52Z</time>
      </trkpt>
      <trkpt lat="47.52141" lon="-2.79909">
        <ele>87</ele>
        <time>2025-05-13T13:55:53Z</time>
      </trkpt>
      <trkpt lat="47.52141" lon="-2.79909">
        <ele>87</ele>
        <time>2025-05-13T13:55:54Z</time>
      </trkpt>
      <trkpt lat="47.52141" lon="-2.79908">
        <ele>87</ele>
        <time>2025-05-13T13:55:55Z</time>
      </trkpt>
      <trkpt lat="47.52141" lon="-2.79908">
        <ele>87</ele>
        <time>2025-05-13T13:55:56Z</time>
      </trkpt>
      <trkpt lat="47.52141" lon="-2.79908">
        <ele>87</ele>
        <time>2025-05-13T13:55:57Z</time>
      </trkpt>
      <trkpt lat="47.52141" lon="-2.79907">
        <ele>87</ele>
        <time>2025-05-13T13:55:58Z</time>
      </trkpt>
      <trkpt lat="47.52141" lon="-2.79907">
        <ele>87</ele>
        <time>2025-05-13T13:55:59Z</time>
      </trkpt>
      <trkpt lat="47.52141" lon="-2.79907">
        <ele>87</ele>
        <time>2025-05-13T13:56:00Z</time>
      </trkpt>
      <trkpt lat="47.52141" lon="-2.79907">
        <ele>87</ele>
        <time>2025-05-13T13:56:01Z</time>
      </trkpt>
      <trkpt lat="47.52141" lon="-2.79907">
        <ele>87</ele>
        <time>2025-05-13T13:56:02Z</time>
      </trkpt>
      <trkpt lat="47.52141" lon="-2.79907">
        <ele>87</ele>
        <time>2025-05-13T13:56:03Z</time>
      </trkpt>
      <trkpt lat="47.52141" lon="-2.79907">
        <ele>87</ele>
        <time>2025-05-13T13:56:04Z</time>
      </trkpt>
      <trkpt lat="47.52141" lon="-2.79907">
        <ele>87</ele>
        <time>2025-05-13T13:56:05Z</time>
      </trkpt>
      <trkpt lat="47.52141" lon="-2.79907">
        <ele>87</ele>
        <time>2025-05-13T13:56:06Z</time>
      </trkpt>
      <trkpt lat="47.52141" lon="-2.79907">
        <ele>87</ele>
        <time>2025-05-13T13:56:07Z</time>
      </trkpt>
      <trkpt lat="47.52141" lon="-2.79907">
        <ele>87</ele>
        <time>2025-05-13T13:56:08Z</time>
      </trkpt>
      <trkpt lat="47.52141" lon="-2.79907">
        <ele>87</ele>
        <time>2025-05-13T13:56:09Z</time>
      </trkpt>
      <trkpt lat="47.52141" lon="-2.79907">
        <ele>87</ele>
        <time>2025-05-13T13:56:10Z</time>
      </trkpt>
      <trkpt lat="47.52141" lon="-2.79907">
        <ele>87</ele>
        <time>2025-05-13T13:56:11Z</time>
      </trkpt>
      <trkpt lat="47.52141" lon="-2.79907">
        <ele>87</ele>
        <time>2025-05-13T13:56:12Z</time>
      </trkpt>
      <trkpt lat="47.52141" lon="-2.79907">
        <ele>87</ele>
        <time>2025-05-13T13:56:13Z</time>
      </trkpt>
      <trkpt lat="47.52141" lon="-2.79907">
        <ele>87</ele>
        <time>2025-05-13T13:56:14Z</time>
      </trkpt>
      <trkpt lat="47.52141" lon="-2.79907">
        <ele>87</ele>
        <time>2025-05-13T13:56:15Z</time>
      </trkpt>
      <trkpt lat="47.52141" lon="-2.79907">
        <ele>87</ele>
        <time>2025-05-13T13:56:16Z</time>
      </trkpt>
      <trkpt lat="47.52141" lon="-2.79907">
        <ele>87</ele>
        <time>2025-05-13T13:56:17Z</time>
      </trkpt>
      <trkpt lat="47.52141" lon="-2.79907">
        <ele>87</ele>
        <time>2025-05-13T13:56:18Z</time>
      </trkpt>
      <trkpt lat="47.52141" lon="-2.79907">
        <ele>87</ele>
        <time>2025-05-13T13:56:19Z</time>
      </trkpt>
      <trkpt lat="47.52141" lon="-2.79907">
        <ele>87</ele>
        <time>2025-05-13T13:56:20Z</time>
      </trkpt>
      <trkpt lat="47.52141" lon="-2.79907">
        <ele>87</ele>
        <time>2025-05-13T13:56:21Z</time>
      </trkpt>
      <trkpt lat="47.52141" lon="-2.79907">
        <ele>87</ele>
        <time>2025-05-13T13:56:22Z</time>
      </trkpt>
      <trkpt lat="47.52141" lon="-2.79907">
        <ele>87</ele>
        <time>2025-05-13T13:56:23Z</time>
      </trkpt>
      <trkpt lat="47.52141" lon="-2.79907">
        <ele>87</ele>
        <time>2025-05-13T13:56:24Z</time>
      </trkpt>
      <trkpt lat="47.52141" lon="-2.79907">
        <ele>87</ele>
        <time>2025-05-13T13:56:25Z</time>
      </trkpt>
      <trkpt lat="47.52141" lon="-2.79907">
        <ele>87</ele>
        <time>2025-05-13T13:56:26Z</time>
      </trkpt>
      <trkpt lat="47.52141" lon="-2.79907">
        <ele>87</ele>
        <time>2025-05-13T13:56:27Z</time>
      </trkpt>
      <trkpt lat="47.52141" lon="-2.79907">
        <ele>87</ele>
        <time>2025-05-13T13:56:28Z</time>
      </trkpt>
      <trkpt lat="47.52141" lon="-2.79907">
        <ele>87</ele>
        <time>2025-05-13T13:56:29Z</time>
      </trkpt>
      <trkpt lat="47.52141" lon="-2.79907">
        <ele>87</ele>
        <time>2025-05-13T13:56:30Z</time>
      </trkpt>
      <trkpt lat="47.52141" lon="-2.79907">
        <ele>87</ele>
        <time>2025-05-13T13:56:31Z</time>
      </trkpt>
      <trkpt lat="47.52141" lon="-2.79907">
        <ele>87</ele>
        <time>2025-05-13T13:56:32Z</time>
      </trkpt>
      <trkpt lat="47.52141" lon="-2.79907">
        <ele>87</ele>
        <time>2025-05-13T13:56:33Z</time>
      </trkpt>
      <trkpt lat="47.52141" lon="-2.79907">
        <ele>87</ele>
        <time>2025-05-13T13:56:34Z</time>
      </trkpt>
      <trkpt lat="47.52141" lon="-2.79907">
        <ele>87</ele>
        <time>2025-05-13T13:56:35Z</time>
      </trkpt>
      <trkpt lat="47.52141" lon="-2.79907">
        <ele>87</ele>
        <time>2025-05-13T13:56:36Z</time>
      </trkpt>
      <trkpt lat="47.52141" lon="-2.79907">
        <ele>87</ele>
        <time>2025-05-13T13:56:37Z</time>
      </trkpt>
      <trkpt lat="47.52141" lon="-2.79907">
        <ele>87</ele>
        <time>2025-05-13T13:56:38Z</time>
      </trkpt>
      <trkpt lat="47.52141" lon="-2.79907">
        <ele>87</ele>
        <time>2025-05-13T13:56:39Z</time>
      </trkpt>
      <trkpt lat="47.52141" lon="-2.79907">
        <ele>87</ele>
        <time>2025-05-13T13:56:40Z</time>
      </trkpt>
      <trkpt lat="47.52141" lon="-2.79907">
        <ele>87</ele>
        <time>2025-05-13T13:56:41Z</time>
      </trkpt>
      <trkpt lat="47.52141" lon="-2.79907">
        <ele>87</ele>
        <time>2025-05-13T13:56:42Z</time>
      </trkpt>
      <trkpt lat="47.52141" lon="-2.79907">
        <ele>87</ele>
        <time>2025-05-13T13:56:43Z</time>
      </trkpt>
      <trkpt lat="47.52141" lon="-2.79907">
        <ele>87</ele>
        <time>2025-05-13T13:56:44Z</time>
      </trkpt>
      <trkpt lat="47.52141" lon="-2.79907">
        <ele>87</ele>
        <time>2025-05-13T13:56:45Z</time>
      </trkpt>
      <trkpt lat="47.52141" lon="-2.79907">
        <ele>87</ele>
        <time>2025-05-13T13:56:46Z</time>
      </trkpt>
      <trkpt lat="47.52141" lon="-2.79907">
        <ele>87</ele>
        <time>2025-05-13T13:56:47Z</time>
      </trkpt>
      <trkpt lat="47.52141" lon="-2.79907">
        <ele>87</ele>
        <time>2025-05-13T13:56:48Z</time>
      </trkpt>
      <trkpt lat="47.52141" lon="-2.79907">
        <ele>87</ele>
        <time>2025-05-13T13:56:49Z</time>
      </trkpt>
      <trkpt lat="47.52141" lon="-2.79907">
        <ele>87</ele>
        <time>2025-05-13T13:56:50Z</time>
      </trkpt>
      <trkpt lat="47.52141" lon="-2.79907">
        <ele>87</ele>
        <time>2025-05-13T13:56:51Z</time>
      </trkpt>
      <trkpt lat="47.52141" lon="-2.79907">
        <ele>87</ele>
        <time>2025-05-13T13:56:52Z</time>
      </trkpt>
      <trkpt lat="47.52141" lon="-2.79907">
        <ele>87</ele>
        <time>2025-05-13T13:56:53Z</time>
      </trkpt>
      <trkpt lat="47.52141" lon="-2.79907">
        <ele>87</ele>
        <time>2025-05-13T13:56:54Z</time>
      </trkpt>
      <trkpt lat="47.52141" lon="-2.79907">
        <ele>87</ele>
        <time>2025-05-13T13:56:55Z</time>
      </trkpt>
      <trkpt lat="47.52141" lon="-2.79907">
        <ele>87</ele>
        <time>2025-05-13T13:56:56Z</time>
      </trkpt>
      <trkpt lat="47.52141" lon="-2.79907">
        <ele>87</ele>
        <time>2025-05-13T13:56:57Z</time>
      </trkpt>
      <trkpt lat="47.52141" lon="-2.79907">
        <ele>87</ele>
        <time>2025-05-13T13:56:58Z</time>
      </trkpt>
      <trkpt lat="47.52141" lon="-2.79907">
        <ele>87</ele>
        <time>2025-05-13T13:56:59Z</time>
      </trkpt>
      <trkpt lat="47.52141" lon="-2.79907">
        <ele>87</ele>
        <time>2025-05-13T13:57:00Z</time>
      </trkpt>
      <trkpt lat="47.52141" lon="-2.79907">
        <ele>87</ele>
        <time>2025-05-13T13:57:01Z</time>
      </trkpt>
      <trkpt lat="47.52141" lon="-2.79907">
        <ele>87</ele>
        <time>2025-05-13T13:57:02Z</time>
      </trkpt>
      <trkpt lat="47.52141" lon="-2.79907">
        <ele>87</ele>
        <time>2025-05-13T13:57:03Z</time>
      </trkpt>
      <trkpt lat="47.52141" lon="-2.79907">
        <ele>87</ele>
        <time>2025-05-13T13:57:04Z</time>
      </trkpt>
      <trkpt lat="47.52141" lon="-2.79907">
        <ele>87</ele>
        <time>2025-05-13T13:57:05Z</time>
      </trkpt>
      <trkpt lat="47.52141" lon="-2.79907">
        <ele>87</ele>
        <time>2025-05-13T13:57:06Z</time>
      </trkpt>
      <trkpt lat="47.52141" lon="-2.79907">
        <ele>87</ele>
        <time>2025-05-13T13:57:07Z</time>
      </trkpt>
      <trkpt lat="47.52141" lon="-2.79907">
        <ele>87</ele>
        <time>2025-05-13T13:58:00Z</time>
      </trkpt>
      <trkpt lat="47.52141" lon="-2.79907">
        <ele>87</ele>
        <time>2025-05-13T13:58:01Z</time>
      </trkpt>
      <trkpt lat="47.52141" lon="-2.79907">
        <ele>87</ele>
        <time>2025-05-13T13:58:02Z</time>
      </trkpt>
      <trkpt lat="47.52141" lon="-2.79907">
        <ele>87</ele>
        <time>2025-05-13T13:58:03Z</time>
      </trkpt>
      <trkpt lat="47.52141" lon="-2.79907">
        <ele>87</ele>
        <time>2025-05-13T13:58:04Z</time>
      </trkpt>
      <trkpt lat="47.52141" lon="-2.79907">
        <ele>87</ele>
        <time>2025-05-13T13:58:05Z</time>
      </trkpt>
      <trkpt lat="47.52141" lon="-2.79907">
        <ele>87</ele>
        <time>2025-05-13T13:58:06Z</time>
      </trkpt>
      <trkpt lat="47.52141" lon="-2.79907">
        <ele>87</ele>
        <time>2025-05-13T13:58:07Z</time>
      </trkpt>
      <trkpt lat="47.52141" lon="-2.79907">
        <ele>87</ele>
        <time>2025-05-13T13:58:08Z</time>
      </trkpt>
      <trkpt lat="47.52141" lon="-2.79907">
        <ele>87</ele>
        <time>2025-05-13T13:58:09Z</time>
      </trkpt>
      <trkpt lat="47.52141" lon="-2.79907">
        <ele>87</ele>
        <time>2025-05-13T13:58:10Z</time>
      </trkpt>
      <trkpt lat="47.52141" lon="-2.79907">
        <ele>87</ele>
        <time>2025-05-13T13:58:11Z</time>
      </trkpt>
      <trkpt lat="47.52141" lon="-2.79907">
        <ele>87</ele>
        <time>2025-05-13T13:58:12Z</time>
      </trkpt>
      <trkpt lat="47.52141" lon="-2.79907">
        <ele>87</ele>
        <time>2025-05-13T13:58:13Z</time>
      </trkpt>
      <trkpt lat="47.52145" lon="-2.79904">
        <ele>94</ele>
        <time>2025-05-13T13:58:14Z</time>
      </trkpt>
      <trkpt lat="47.52145" lon="-2.79901">
        <ele>94</ele>
        <time>2025-05-13T13:58:15Z</time>
      </trkpt>
      <trkpt lat="47.52145" lon="-2.79898">
        <ele>94</ele>
        <time>2025-05-13T13:58:16Z</time>
      </trkpt>
      <trkpt lat="47.52144" lon="-2.79895">
        <ele>94</ele>
        <time>2025-05-13T13:58:17Z</time>
      </trkpt>
      <trkpt lat="47.52144" lon="-2.79892">
        <ele>94</ele>
        <time>2025-05-13T13:58:18Z</time>
      </trkpt>
      <trkpt lat="47.52143" lon="-2.79889">
        <ele>94</ele>
        <time>2025-05-13T13:58:19Z</time>
      </trkpt>
      <trkpt lat="47.52142" lon="-2.79886">
        <ele>93</ele>
        <time>2025-05-13T13:58:20Z</time>
      </trkpt>
      <trkpt lat="47.52141" lon="-2.79882">
        <ele>93</ele>
        <time>2025-05-13T13:58:21Z</time>
      </trkpt>
      <trkpt lat="47.5214" lon="-2.79878">
        <ele>93</ele>
        <time>2025-05-13T13:58:22Z</time>
      </trkpt>
      <trkpt lat="47.5214" lon="-2.79873">
        <ele>92</ele>
        <time>2025-05-13T13:58:23Z</time>
      </trkpt>
      <trkpt lat="47.52139" lon="-2.79869">
        <ele>92</ele>
        <time>2025-05-13T13:58:24Z</time>
      </trkpt>
      <trkpt lat="47.52139" lon="-2.79864">
        <ele>91</ele>
        <time>2025-05-13T13:58:25Z</time>
      </trkpt>
      <trkpt lat="47.52139" lon="-2.7986">
        <ele>91</ele>
        <time>2025-05-13T13:58:26Z</time>
      </trkpt>
      <trkpt lat="47.5214" lon="-2.79856">
        <ele>90</ele>
        <time>2025-05-13T13:58:27Z</time>
      </trkpt>
      <trkpt lat="47.5214" lon="-2.79851">
        <ele>90</ele>
        <time>2025-05-13T13:58:28Z</time>
      </trkpt>
      <trkpt lat="47.5214" lon="-2.79845">
        <ele>89</ele>
        <time>2025-05-13T13:58:29Z</time>
      </trkpt>
      <trkpt lat="47.5214" lon="-2.79841">
        <ele>88</ele>
        <time>2025-05-13T13:58:30Z</time>
      </trkpt>
      <trkpt lat="47.5214" lon="-2.79836">
        <ele>88</ele>
        <time>2025-05-13T13:58:31Z</time>
      </trkpt>
      <trkpt lat="47.5214" lon="-2.79831">
        <ele>87</ele>
        <time>2025-05-13T13:58:32Z</time>
      </trkpt>
      <trkpt lat="47.5214" lon="-2.79826">
        <ele>87</ele>
        <time>2025-05-13T13:58:33Z</time>
      </trkpt>
      <trkpt lat="47.52139" lon="-2.79821">
        <ele>86</ele>
        <time>2025-05-13T13:58:34Z</time>
      </trkpt>
      <trkpt lat="47.52139" lon="-2.79816">
        <ele>86</ele>
        <time>2025-05-13T13:58:35Z</time>
      </trkpt>
      <trkpt lat="47.52138" lon="-2.79809">
        <ele>85</ele>
        <time>2025-05-13T13:58:36Z</time>
      </trkpt>
      <trkpt lat="47.52138" lon="-2.79805">
        <ele>85</ele>
        <time>2025-05-13T13:58:37Z</time>
      </trkpt>
      <trkpt lat="47.52137" lon="-2.79801">
        <ele>83</ele>
        <time>2025-05-13T13:58:38Z</time>
      </trkpt>
      <trkpt lat="47.52137" lon="-2.79796">
        <ele>83</ele>
        <time>2025-05-13T13:58:39Z</time>
      </trkpt>
      <trkpt lat="47.52136" lon="-2.79792">
        <ele>82</ele>
        <time>2025-05-13T13:58:40Z</time>
      </trkpt>
      <trkpt lat="47.52135" lon="-2.79788">
        <ele>81</ele>
        <time>2025-05-13T13:58:41Z</time>
      </trkpt>
      <trkpt lat="47.52134" lon="-2.79783">
        <ele>81</ele>
        <time>2025-05-13T13:58:42Z</time>
      </trkpt>
      <trkpt lat="47.52132" lon="-2.79778">
        <ele>81</ele>
        <time>2025-05-13T13:58:43Z</time>
      </trkpt>
      <trkpt lat="47.52131" lon="-2.79774">
        <ele>81</ele>
        <time>2025-05-13T13:58:44Z</time>
      </trkpt>
      <trkpt lat="47.52131" lon="-2.79769">
        <ele>80</ele>
        <time>2025-05-13T13:58:45Z</time>
      </trkpt>
      <trkpt lat="47.5213" lon="-2.79764">
        <ele>79</ele>
        <time>2025-05-13T13:58:46Z</time>
      </trkpt>
      <trkpt lat="47.5213" lon="-2.79758">
        <ele>80</ele>
        <time>2025-05-13T13:58:47Z</time>
      </trkpt>
      <trkpt lat="47.52129" lon="-2.79751">
        <ele>80</ele>
        <time>2025-05-13T13:58:48Z</time>
      </trkpt>
      <trkpt lat="47.52128" lon="-2.79745">
        <ele>80</ele>
        <time>2025-05-13T13:58:49Z</time>
      </trkpt>
      <trkpt lat="47.52128" lon="-2.79739">
        <ele>80</ele>
        <time>2025-05-13T13:58:50Z</time>
      </trkpt>
      <trkpt lat="47.52128" lon="-2.79733">
        <ele>80</ele>
        <time>2025-05-13T13:58:51Z</time>
      </trkpt>
      <trkpt lat="47.52129" lon="-2.79727">
        <ele>80</ele>
        <time>2025-05-13T13:58:52Z</time>
      </trkpt>
      <trkpt lat="47.52129" lon="-2.79721">
        <ele>80</ele>
        <time>2025-05-13T13:58:53Z</time>
      </trkpt>
      <trkpt lat="47.5213" lon="-2.79715">
        <ele>81</ele>
        <time>2025-05-13T13:58:54Z</time>
      </trkpt>
      <trkpt lat="47.52131" lon="-2.7971">
        <ele>81</ele>
        <time>2025-05-13T13:58:55Z</time>
      </trkpt>
      <trkpt lat="47.52132" lon="-2.79705">
        <ele>81</ele>
        <time>2025-05-13T13:58:56Z</time>
      </trkpt>
      <trkpt lat="47.52133" lon="-2.79699">
        <ele>81</ele>
        <time>2025-05-13T13:58:57Z</time>
      </trkpt>
      <trkpt lat="47.52134" lon="-2.79694">
        <ele>82</ele>
        <time>2025-05-13T13:58:58Z</time>
      </trkpt>
      <trkpt lat="47.52134" lon="-2.7969">
        <ele>82</ele>
        <time>2025-05-13T13:58:59Z</time>
      </trkpt>
      <trkpt lat="47.52135" lon="-2.79685">
        <ele>82</ele>
        <time>2025-05-13T13:59:00Z</time>
      </trkpt>
      <trkpt lat="47.52136" lon="-2.79681">
        <ele>83</ele>
        <time>2025-05-13T13:59:01Z</time>
      </trkpt>
      <trkpt lat="47.52138" lon="-2.79677">
        <ele>84</ele>
        <time>2025-05-13T13:59:02Z</time>
      </trkpt>
      <trkpt lat="47.5214" lon="-2.79673">
        <ele>84</ele>
        <time>2025-05-13T13:59:03Z</time>
      </trkpt>
      <trkpt lat="47.52143" lon="-2.7967">
        <ele>84</ele>
        <time>2025-05-13T13:59:04Z</time>
      </trkpt>
      <trkpt lat="47.52146" lon="-2.79667">
        <ele>84</ele>
        <time>2025-05-13T13:59:05Z</time>
      </trkpt>
      <trkpt lat="47.5215" lon="-2.79664">
        <ele>84</ele>
        <time>2025-05-13T13:59:06Z</time>
      </trkpt>
      <trkpt lat="47.52154" lon="-2.79661">
        <ele>84</ele>
        <time>2025-05-13T13:59:07Z</time>
      </trkpt>
      <trkpt lat="47.52158" lon="-2.79658">
        <ele>84</ele>
        <time>2025-05-13T13:59:08Z</time>
      </trkpt>
      <trkpt lat="47.52161" lon="-2.79655">
        <ele>84</ele>
        <time>2025-05-13T13:59:09Z</time>
      </trkpt>
      <trkpt lat="47.52165" lon="-2.79651">
        <ele>84</ele>
        <time>2025-05-13T13:59:10Z</time>
      </trkpt>
      <trkpt lat="47.52169" lon="-2.79649">
        <ele>83</ele>
        <time>2025-05-13T13:59:11Z</time>
      </trkpt>
      <trkpt lat="47.52173" lon="-2.79646">
        <ele>83</ele>
        <time>2025-05-13T13:59:12Z</time>
      </trkpt>
      <trkpt lat="47.52178" lon="-2.79642">
        <ele>83</ele>
        <time>2025-05-13T13:59:13Z</time>
      </trkpt>
      <trkpt lat="47.52182" lon="-2.79637">
        <ele>83</ele>
        <time>2025-05-13T13:59:14Z</time>
      </trkpt>
      <trkpt lat="47.52187" lon="-2.79633">
        <ele>82</ele>
        <time>2025-05-13T13:59:15Z</time>
      </trkpt>
      <trkpt lat="47.52192" lon="-2.79629">
        <ele>83</ele>
        <time>2025-05-13T13:59:16Z</time>
      </trkpt>
      <trkpt lat="47.52196" lon="-2.79624">
        <ele>82</ele>
        <time>2025-05-13T13:59:17Z</time>
      </trkpt>
      <trkpt lat="47.52201" lon="-2.79619">
        <ele>83</ele>
        <time>2025-05-13T13:59:18Z</time>
      </trkpt>
      <trkpt lat="47.52205" lon="-2.79615">
        <ele>83</ele>
        <time>2025-05-13T13:59:19Z</time>
      </trkpt>
      <trkpt lat="47.52209" lon="-2.7961">
        <ele>82</ele>
        <time>2025-05-13T13:59:20Z</time>
      </trkpt>
      <trkpt lat="47.52213" lon="-2.79605">
        <ele>82</ele>
        <time>2025-05-13T13:59:21Z</time>
      </trkpt>
      <trkpt lat="47.52218" lon="-2.796">
        <ele>83</ele>
        <time>2025-05-13T13:59:22Z</time>
      </trkpt>
      <trkpt lat="47.52222" lon="-2.79596">
        <ele>83</ele>
        <time>2025-05-13T13:59:23Z</time>
      </trkpt>
      <trkpt lat="47.52227" lon="-2.79591">
        <ele>83</ele>
        <time>2025-05-13T13:59:24Z</time>
      </trkpt>
      <trkpt lat="47.52231" lon="-2.79586">
        <ele>83</ele>
        <time>2025-05-13T13:59:25Z</time>
      </trkpt>
      <trkpt lat="47.52236" lon="-2.79581">
        <ele>83</ele>
        <time>2025-05-13T13:59:26Z</time>
      </trkpt>
      <trkpt lat="47.5224" lon="-2.79577">
        <ele>83</ele>
        <time>2025-05-13T13:59:27Z</time>
      </trkpt>
      <trkpt lat="47.52245" lon="-2.79572">
        <ele>83</ele>
        <time>2025-05-13T13:59:28Z</time>
      </trkpt>
      <trkpt lat="47.5225" lon="-2.79567">
        <ele>82</ele>
        <time>2025-05-13T13:59:29Z</time>
      </trkpt>
      <trkpt lat="47.52254" lon="-2.79562">
        <ele>82</ele>
        <time>2025-05-13T13:59:30Z</time>
      </trkpt>
      <trkpt lat="47.52259" lon="-2.79557">
        <ele>82</ele>
        <time>2025-05-13T13:59:31Z</time>
      </trkpt>
      <trkpt lat="47.52264" lon="-2.79551">
        <ele>82</ele>
        <time>2025-05-13T13:59:32Z</time>
      </trkpt>
      <trkpt lat="47.52269" lon="-2.79546">
        <ele>82</ele>
        <time>2025-05-13T13:59:33Z</time>
      </trkpt>
      <trkpt lat="47.52274" lon="-2.79539">
        <ele>81</ele>
        <time>2025-05-13T13:59:34Z</time>
      </trkpt>
      <trkpt lat="47.5228" lon="-2.79533">
        <ele>81</ele>
        <time>2025-05-13T13:59:35Z</time>
      </trkpt>
      <trkpt lat="47.52286" lon="-2.79527">
        <ele>81</ele>
        <time>2025-05-13T13:59:36Z</time>
      </trkpt>
      <trkpt lat="47.52291" lon="-2.7952">
        <ele>81</ele>
        <time>2025-05-13T13:59:37Z</time>
      </trkpt>
      <trkpt lat="47.52297" lon="-2.79514">
        <ele>80</ele>
        <time>2025-05-13T13:59:38Z</time>
      </trkpt>
      <trkpt lat="47.52303" lon="-2.79507">
        <ele>80</ele>
        <time>2025-05-13T13:59:39Z</time>
      </trkpt>
      <trkpt lat="47.52308" lon="-2.795">
        <ele>79</ele>
        <time>2025-05-13T13:59:40Z</time>
      </trkpt>
      <trkpt lat="47.52313" lon="-2.79492">
        <ele>79</ele>
        <time>2025-05-13T13:59:41Z</time>
      </trkpt>
      <trkpt lat="47.52319" lon="-2.79484">
        <ele>78</ele>
        <time>2025-05-13T13:59:42Z</time>
      </trkpt>
      <trkpt lat="47.52325" lon="-2.79476">
        <ele>78</ele>
        <time>2025-05-13T13:59:43Z</time>
      </trkpt>
      <trkpt lat="47.52332" lon="-2.79468">
        <ele>78</ele>
        <time>2025-05-13T13:59:44Z</time>
      </trkpt>
      <trkpt lat="47.52338" lon="-2.79461">
        <ele>77</ele>
        <time>2025-05-13T13:59:45Z</time>
      </trkpt>
      <trkpt lat="47.52345" lon="-2.79453">
        <ele>77</ele>
        <time>2025-05-13T13:59:46Z</time>
      </trkpt>
      <trkpt lat="47.52351" lon="-2.79446">
        <ele>77</ele>
        <time>2025-05-13T13:59:47Z</time>
      </trkpt>
      <trkpt lat="47.52357" lon="-2.79437">
        <ele>77</ele>
        <time>2025-05-13T13:59:48Z</time>
      </trkpt>
      <trkpt lat="47.52364" lon="-2.7943">
        <ele>77</ele>
        <time>2025-05-13T13:59:49Z</time>
      </trkpt>
      <trkpt lat="47.5237" lon="-2.79423">
        <ele>78</ele>
        <time>2025-05-13T13:59:50Z</time>
      </trkpt>
      <trkpt lat="47.52376" lon="-2.79417">
        <ele>78</ele>
        <time>2025-05-13T13:59:51Z</time>
      </trkpt>
      <trkpt lat="47.52383" lon="-2.79413">
        <ele>78</ele>
        <time>2025-05-13T13:59:52Z</time>
      </trkpt>
      <trkpt lat="47.52389" lon="-2.79409">
        <ele>78</ele>
        <time>2025-05-13T13:59:53Z</time>
      </trkpt>
      <trkpt lat="47.52395" lon="-2.79407">
        <ele>79</ele>
        <time>2025-05-13T13:59:54Z</time>
      </trkpt>
      <trkpt lat="47.524" lon="-2.79404">
        <ele>80</ele>
        <time>2025-05-13T13:59:55Z</time>
      </trkpt>
      <trkpt lat="47.52404" lon="-2.79403">
        <ele>80</ele>
        <time>2025-05-13T13:59:56Z</time>
      </trkpt>
      <trkpt lat="47.52408" lon="-2.79402">
        <ele>80</ele>
        <time>2025-05-13T13:59:57Z</time>
      </trkpt>
      <trkpt lat="47.52411" lon="-2.79399">
        <ele>80</ele>
        <time>2025-05-13T13:59:58Z</time>
      </trkpt>
      <trkpt lat="47.52414" lon="-2.79395">
        <ele>80</ele>
        <time>2025-05-13T13:59:59Z</time>
      </trkpt>
      <trkpt lat="47.52415" lon="-2.7939">
        <ele>79</ele>
        <time>2025-05-13T14:00:00Z</time>
      </trkpt>
      <trkpt lat="47.52415" lon="-2.79385">
        <ele>79</ele>
        <time>2025-05-13T14:00:01Z</time>
      </trkpt>
      <trkpt lat="47.52414" lon="-2.7938">
        <ele>79</ele>
        <time>2025-05-13T14:00:02Z</time>
      </trkpt>
      <trkpt lat="47.52413" lon="-2.79375">
        <ele>79</ele>
        <time>2025-05-13T14:00:03Z</time>
      </trkpt>
      <trkpt lat="47.52413" lon="-2.79371">
        <ele>79</ele>
        <time>2025-05-13T14:00:04Z</time>
      </trkpt>
      <trkpt lat="47.52414" lon="-2.79366">
        <ele>79</ele>
        <time>2025-05-13T14:00:05Z</time>
      </trkpt>
      <trkpt lat="47.52414" lon="-2.79362">
        <ele>79</ele>
        <time>2025-05-13T14:00:06Z</time>
      </trkpt>
      <trkpt lat="47.52413" lon="-2.79358">
        <ele>80</ele>
        <time>2025-05-13T14:00:07Z</time>
      </trkpt>
      <trkpt lat="47.52413" lon="-2.79355">
        <ele>80</ele>
        <time>2025-05-13T14:00:08Z</time>
      </trkpt>
      <trkpt lat="47.52413" lon="-2.79351">
        <ele>80</ele>
        <time>2025-05-13T14:00:09Z</time>
      </trkpt>
      <trkpt lat="47.52413" lon="-2.79347">
        <ele>80</ele>
        <time>2025-05-13T14:00:10Z</time>
      </trkpt>
      <trkpt lat="47.52412" lon="-2.79344">
        <ele>81</ele>
        <time>2025-05-13T14:00:11Z</time>
      </trkpt>
      <trkpt lat="47.52412" lon="-2.7934">
        <ele>81</ele>
        <time>2025-05-13T14:00:12Z</time>
      </trkpt>
      <trkpt lat="47.52412" lon="-2.79336">
        <ele>81</ele>
        <time>2025-05-13T14:00:13Z</time>
      </trkpt>
      <trkpt lat="47.52412" lon="-2.79333">
        <ele>82</ele>
        <time>2025-05-13T14:00:14Z</time>
      </trkpt>
      <trkpt lat="47.52412" lon="-2.79329">
        <ele>82</ele>
        <time>2025-05-13T14:00:15Z</time>
      </trkpt>
      <trkpt lat="47.52411" lon="-2.79325">
        <ele>82</ele>
        <time>2025-05-13T14:00:16Z</time>
      </trkpt>
      <trkpt lat="47.52411" lon="-2.79321">
        <ele>82</ele>
        <time>2025-05-13T14:00:17Z</time>
      </trkpt>
      <trkpt lat="47.5241" lon="-2.79317">
        <ele>82</ele>
        <time>2025-05-13T14:00:18Z</time>
      </trkpt>
      <trkpt lat="47.52409" lon="-2.79314">
        <ele>82</ele>
        <time>2025-05-13T14:00:19Z</time>
      </trkpt>
      <trkpt lat="47.52409" lon="-2.7931">
        <ele>82</ele>
        <time>2025-05-13T14:00:20Z</time>
      </trkpt>
      <trkpt lat="47.52409" lon="-2.79306">
        <ele>82</ele>
        <time>2025-05-13T14:00:21Z</time>
      </trkpt>
      <trkpt lat="47.52408" lon="-2.79302">
        <ele>82</ele>
        <time>2025-05-13T14:00:22Z</time>
      </trkpt>
      <trkpt lat="47.52407" lon="-2.79298">
        <ele>82</ele>
        <time>2025-05-13T14:00:23Z</time>
      </trkpt>
      <trkpt lat="47.52407" lon="-2.79293">
        <ele>82</ele>
        <time>2025-05-13T14:00:24Z</time>
      </trkpt>
      <trkpt lat="47.52406" lon="-2.79289">
        <ele>82</ele>
        <time>2025-05-13T14:00:25Z</time>
      </trkpt>
      <trkpt lat="47.52406" lon="-2.79285">
        <ele>82</ele>
        <time>2025-05-13T14:00:26Z</time>
      </trkpt>
      <trkpt lat="47.52405" lon="-2.7928">
        <ele>82</ele>
        <time>2025-05-13T14:00:27Z</time>
      </trkpt>
      <trkpt lat="47.52404" lon="-2.79276">
        <ele>83</ele>
        <time>2025-05-13T14:00:28Z</time>
      </trkpt>
      <trkpt lat="47.52404" lon="-2.79272">
        <ele>83</ele>
        <time>2025-05-13T14:00:29Z</time>
      </trkpt>
      <trkpt lat="47.52403" lon="-2.79268">
        <ele>83</ele>
        <time>2025-05-13T14:00:30Z</time>
      </trkpt>
      <trkpt lat="47.52403" lon="-2.79264">
        <ele>83</ele>
        <time>2025-05-13T14:00:31Z</time>
      </trkpt>
      <trkpt lat="47.52402" lon="-2.7926">
        <ele>83</ele>
        <time>2025-05-13T14:00:32Z</time>
      </trkpt>
      <trkpt lat="47.52401" lon="-2.79256">
        <ele>83</ele>
        <time>2025-05-13T14:00:33Z</time>
      </trkpt>
      <trkpt lat="47.524" lon="-2.79253">
        <ele>82</ele>
        <time>2025-05-13T14:00:34Z</time>
      </trkpt>
      <trkpt lat="47.52398" lon="-2.79249">
        <ele>82</ele>
        <time>2025-05-13T14:00:35Z</time>
      </trkpt>
      <trkpt lat="47.52396" lon="-2.79245">
        <ele>82</ele>
        <time>2025-05-13T14:00:36Z</time>
      </trkpt>
      <trkpt lat="47.52395" lon="-2.79241">
        <ele>82</ele>
        <time>2025-05-13T14:00:37Z</time>
      </trkpt>
      <trkpt lat="47.52393" lon="-2.79237">
        <ele>83</ele>
        <time>2025-05-13T14:00:38Z</time>
      </trkpt>
      <trkpt lat="47.52393" lon="-2.79233">
        <ele>83</ele>
        <time>2025-05-13T14:00:39Z</time>
      </trkpt>
      <trkpt lat="47.52392" lon="-2.79228">
        <ele>83</ele>
        <time>2025-05-13T14:00:40Z</time>
      </trkpt>
      <trkpt lat="47.52392" lon="-2.79224">
        <ele>82</ele>
        <time>2025-05-13T14:00:41Z</time>
      </trkpt>
      <trkpt lat="47.52391" lon="-2.7922">
        <ele>82</ele>
        <time>2025-05-13T14:00:42Z</time>
      </trkpt>
      <trkpt lat="47.52391" lon="-2.79216">
        <ele>82</ele>
        <time>2025-05-13T14:00:43Z</time>
      </trkpt>
      <trkpt lat="47.5239" lon="-2.79212">
        <ele>83</ele>
        <time>2025-05-13T14:00:44Z</time>
      </trkpt>
      <trkpt lat="47.5239" lon="-2.79207">
        <ele>83</ele>
        <time>2025-05-13T14:00:45Z</time>
      </trkpt>
      <trkpt lat="47.52389" lon="-2.79203">
        <ele>83</ele>
        <time>2025-05-13T14:00:46Z</time>
      </trkpt>
      <trkpt lat="47.52389" lon="-2.792">
        <ele>83</ele>
        <time>2025-05-13T14:00:47Z</time>
      </trkpt>
      <trkpt lat="47.52388" lon="-2.79196">
        <ele>83</ele>
        <time>2025-05-13T14:00:48Z</time>
      </trkpt>
      <trkpt lat="47.52388" lon="-2.79191">
        <ele>83</ele>
        <time>2025-05-13T14:00:49Z</time>
      </trkpt>
      <trkpt lat="47.52388" lon="-2.79187">
        <ele>84</ele>
        <time>2025-05-13T14:00:50Z</time>
      </trkpt>
      <trkpt lat="47.52387" lon="-2.79183">
        <ele>84</ele>
        <time>2025-05-13T14:00:51Z</time>
      </trkpt>
      <trkpt lat="47.52387" lon="-2.79179">
        <ele>84</ele>
        <time>2025-05-13T14:00:52Z</time>
      </trkpt>
      <trkpt lat="47.52387" lon="-2.79175">
        <ele>84</ele>
        <time>2025-05-13T14:00:53Z</time>
      </trkpt>
      <trkpt lat="47.52386" lon="-2.7917">
        <ele>85</ele>
        <time>2025-05-13T14:00:54Z</time>
      </trkpt>
      <trkpt lat="47.52386" lon="-2.79166">
        <ele>85</ele>
        <time>2025-05-13T14:00:55Z</time>
      </trkpt>
      <trkpt lat="47.52385" lon="-2.79162">
        <ele>85</ele>
        <time>2025-05-13T14:00:56Z</time>
      </trkpt>
      <trkpt lat="47.52384" lon="-2.79158">
        <ele>85</ele>
        <time>2025-05-13T14:00:57Z</time>
      </trkpt>
      <trkpt lat="47.52384" lon="-2.79154">
        <ele>84</ele>
        <time>2025-05-13T14:00:58Z</time>
      </trkpt>
      <trkpt lat="47.52382" lon="-2.7915">
        <ele>84</ele>
        <time>2025-05-13T14:00:59Z</time>
      </trkpt>
      <trkpt lat="47.52382" lon="-2.79145">
        <ele>85</ele>
        <time>2025-05-13T14:01:00Z</time>
      </trkpt>
      <trkpt lat="47.52381" lon="-2.79141">
        <ele>85</ele>
        <time>2025-05-13T14:01:01Z</time>
      </trkpt>
      <trkpt lat="47.52381" lon="-2.79137">
        <ele>84</ele>
        <time>2025-05-13T14:01:02Z</time>
      </trkpt>
      <trkpt lat="47.5238" lon="-2.79133">
        <ele>84</ele>
        <time>2025-05-13T14:01:03Z</time>
      </trkpt>
      <trkpt lat="47.5238" lon="-2.79128">
        <ele>84</ele>
        <time>2025-05-13T14:01:04Z</time>
      </trkpt>
      <trkpt lat="47.52379" lon="-2.79124">
        <ele>84</ele>
        <time>2025-05-13T14:01:05Z</time>
      </trkpt>
      <trkpt lat="47.52378" lon="-2.7912">
        <ele>84</ele>
        <time>2025-05-13T14:01:06Z</time>
      </trkpt>
      <trkpt lat="47.52378" lon="-2.79115">
        <ele>84</ele>
        <time>2025-05-13T14:01:07Z</time>
      </trkpt>
      <trkpt lat="47.52377" lon="-2.79111">
        <ele>84</ele>
        <time>2025-05-13T14:01:08Z</time>
      </trkpt>
      <trkpt lat="47.52376" lon="-2.79107">
        <ele>85</ele>
        <time>2025-05-13T14:01:09Z</time>
      </trkpt>
      <trkpt lat="47.52376" lon="-2.79103">
        <ele>86</ele>
        <time>2025-05-13T14:01:10Z</time>
      </trkpt>
      <trkpt lat="47.52375" lon="-2.79099">
        <ele>86</ele>
        <time>2025-05-13T14:01:11Z</time>
      </trkpt>
      <trkpt lat="47.52374" lon="-2.79095">
        <ele>86</ele>
        <time>2025-05-13T14:01:12Z</time>
      </trkpt>
      <trkpt lat="47.52373" lon="-2.79091">
        <ele>86</ele>
        <time>2025-05-13T14:01:13Z</time>
      </trkpt>
      <trkpt lat="47.52373" lon="-2.79087">
        <ele>85</ele>
        <time>2025-05-13T14:01:14Z</time>
      </trkpt>
      <trkpt lat="47.52372" lon="-2.79083">
        <ele>85</ele>
        <time>2025-05-13T14:01:15Z</time>
      </trkpt>
      <trkpt lat="47.52371" lon="-2.79078">
        <ele>85</ele>
        <time>2025-05-13T14:01:16Z</time>
      </trkpt>
      <trkpt lat="47.5237" lon="-2.79074">
        <ele>85</ele>
        <time>2025-05-13T14:01:17Z</time>
      </trkpt>
      <trkpt lat="47.52369" lon="-2.7907">
        <ele>84</ele>
        <time>2025-05-13T14:01:18Z</time>
      </trkpt>
      <trkpt lat="47.52368" lon="-2.79066">
        <ele>85</ele>
        <time>2025-05-13T14:01:19Z</time>
      </trkpt>
      <trkpt lat="47.52368" lon="-2.79062">
        <ele>85</ele>
        <time>2025-05-13T14:01:20Z</time>
      </trkpt>
      <trkpt lat="47.52367" lon="-2.79057">
        <ele>85</ele>
        <time>2025-05-13T14:01:21Z</time>
      </trkpt>
      <trkpt lat="47.52367" lon="-2.79053">
        <ele>85</ele>
        <time>2025-05-13T14:01:22Z</time>
      </trkpt>
      <trkpt lat="47.52366" lon="-2.79048">
        <ele>85</ele>
        <time>2025-05-13T14:01:23Z</time>
      </trkpt>
      <trkpt lat="47.52366" lon="-2.79044">
        <ele>85</ele>
        <time>2025-05-13T14:01:24Z</time>
      </trkpt>
      <trkpt lat="47.52366" lon="-2.7904">
        <ele>85</ele>
        <time>2025-05-13T14:01:25Z</time>
      </trkpt>
      <trkpt lat="47.52365" lon="-2.79035">
        <ele>86</ele>
        <time>2025-05-13T14:01:26Z</time>
      </trkpt>
      <trkpt lat="47.52365" lon="-2.79031">
        <ele>86</ele>
        <time>2025-05-13T14:01:27Z</time>
      </trkpt>
      <trkpt lat="47.52364" lon="-2.79026">
        <ele>86</ele>
        <time>2025-05-13T14:01:28Z</time>
      </trkpt>
      <trkpt lat="47.52364" lon="-2.79022">
        <ele>86</ele>
        <time>2025-05-13T14:01:29Z</time>
      </trkpt>
      <trkpt lat="47.52364" lon="-2.79017">
        <ele>86</ele>
        <time>2025-05-13T14:01:30Z</time>
      </trkpt>
      <trkpt lat="47.52364" lon="-2.79013">
        <ele>86</ele>
        <time>2025-05-13T14:01:31Z</time>
      </trkpt>
      <trkpt lat="47.52364" lon="-2.79009">
        <ele>87</ele>
        <time>2025-05-13T14:01:32Z</time>
      </trkpt>
      <trkpt lat="47.52364" lon="-2.79004">
        <ele>87</ele>
        <time>2025-05-13T14:01:33Z</time>
      </trkpt>
      <trkpt lat="47.52363" lon="-2.79">
        <ele>87</ele>
        <time>2025-05-13T14:01:34Z</time>
      </trkpt>
      <trkpt lat="47.52363" lon="-2.78994">
        <ele>87</ele>
        <time>2025-05-13T14:01:35Z</time>
      </trkpt>
      <trkpt lat="47.52363" lon="-2.7899">
        <ele>87</ele>
        <time>2025-05-13T14:01:36Z</time>
      </trkpt>
      <trkpt lat="47.52363" lon="-2.78985">
        <ele>86</ele>
        <time>2025-05-13T14:01:37Z</time>
      </trkpt>
      <trkpt lat="47.52364" lon="-2.7898">
        <ele>86</ele>
        <time>2025-05-13T14:01:38Z</time>
      </trkpt>
      <trkpt lat="47.52365" lon="-2.78976">
        <ele>86</ele>
        <time>2025-05-13T14:01:39Z</time>
      </trkpt>
      <trkpt lat="47.52367" lon="-2.78971">
        <ele>86</ele>
        <time>2025-05-13T14:01:40Z</time>
      </trkpt>
      <trkpt lat="47.52368" lon="-2.78967">
        <ele>86</ele>
        <time>2025-05-13T14:01:41Z</time>
      </trkpt>
      <trkpt lat="47.52369" lon="-2.78962">
        <ele>86</ele>
        <time>2025-05-13T14:01:42Z</time>
      </trkpt>
      <trkpt lat="47.5237" lon="-2.78957">
        <ele>87</ele>
        <time>2025-05-13T14:01:43Z</time>
      </trkpt>
      <trkpt lat="47.52372" lon="-2.78952">
        <ele>87</ele>
        <time>2025-05-13T14:01:44Z</time>
      </trkpt>
      <trkpt lat="47.52373" lon="-2.78948">
        <ele>87</ele>
        <time>2025-05-13T14:01:45Z</time>
      </trkpt>
      <trkpt lat="47.52375" lon="-2.78944">
        <ele>87</ele>
        <time>2025-05-13T14:01:46Z</time>
      </trkpt>
      <trkpt lat="47.52377" lon="-2.7894">
        <ele>87</ele>
        <time>2025-05-13T14:01:47Z</time>
      </trkpt>
      <trkpt lat="47.52379" lon="-2.78937">
        <ele>87</ele>
        <time>2025-05-13T14:01:48Z</time>
      </trkpt>
      <trkpt lat="47.52382" lon="-2.78934">
        <ele>87</ele>
        <time>2025-05-13T14:01:49Z</time>
      </trkpt>
      <trkpt lat="47.52384" lon="-2.7893">
        <ele>87</ele>
        <time>2025-05-13T14:01:50Z</time>
      </trkpt>
      <trkpt lat="47.52386" lon="-2.78927">
        <ele>88</ele>
        <time>2025-05-13T14:01:51Z</time>
      </trkpt>
      <trkpt lat="47.52388" lon="-2.78923">
        <ele>88</ele>
        <time>2025-05-13T14:01:52Z</time>
      </trkpt>
      <trkpt lat="47.52391" lon="-2.78919">
        <ele>88</ele>
        <time>2025-05-13T14:01:53Z</time>
      </trkpt>
      <trkpt lat="47.52393" lon="-2.78915">
        <ele>88</ele>
        <time>2025-05-13T14:01:54Z</time>
      </trkpt>
      <trkpt lat="47.52396" lon="-2.78912">
        <ele>89</ele>
        <time>2025-05-13T14:01:55Z</time>
      </trkpt>
      <trkpt lat="47.52398" lon="-2.78908">
        <ele>89</ele>
        <time>2025-05-13T14:01:56Z</time>
      </trkpt>
      <trkpt lat="47.524" lon="-2.78904">
        <ele>88</ele>
        <time>2025-05-13T14:01:57Z</time>
      </trkpt>
      <trkpt lat="47.52403" lon="-2.78901">
        <ele>88</ele>
        <time>2025-05-13T14:01:58Z</time>
      </trkpt>
      <trkpt lat="47.52405" lon="-2.78898">
        <ele>88</ele>
        <time>2025-05-13T14:01:59Z</time>
      </trkpt>
      <trkpt lat="47.52406" lon="-2.78895">
        <ele>87</ele>
        <time>2025-05-13T14:02:00Z</time>
      </trkpt>
      <trkpt lat="47.52408" lon="-2.78892">
        <ele>87</ele>
        <time>2025-05-13T14:02:01Z</time>
      </trkpt>
      <trkpt lat="47.5241" lon="-2.7889">
        <ele>86</ele>
        <time>2025-05-13T14:02:02Z</time>
      </trkpt>
      <trkpt lat="47.52412" lon="-2.78886">
        <ele>86</ele>
        <time>2025-05-13T14:02:03Z</time>
      </trkpt>
      <trkpt lat="47.52413" lon="-2.78882">
        <ele>86</ele>
        <time>2025-05-13T14:02:04Z</time>
      </trkpt>
      <trkpt lat="47.52415" lon="-2.78878">
        <ele>87</ele>
        <time>2025-05-13T14:02:05Z</time>
      </trkpt>
      <trkpt lat="47.52416" lon="-2.78873">
        <ele>87</ele>
        <time>2025-05-13T14:02:06Z</time>
      </trkpt>
      <trkpt lat="47.52417" lon="-2.78867">
        <ele>86</ele>
        <time>2025-05-13T14:02:07Z</time>
      </trkpt>
      <trkpt lat="47.52418" lon="-2.78861">
        <ele>86</ele>
        <time>2025-05-13T14:02:08Z</time>
      </trkpt>
      <trkpt lat="47.52418" lon="-2.78854">
        <ele>85</ele>
        <time>2025-05-13T14:02:09Z</time>
      </trkpt>
      <trkpt lat="47.52417" lon="-2.78847">
        <ele>85</ele>
        <time>2025-05-13T14:02:10Z</time>
      </trkpt>
      <trkpt lat="47.52417" lon="-2.7884">
        <ele>84</ele>
        <time>2025-05-13T14:02:11Z</time>
      </trkpt>
      <trkpt lat="47.52417" lon="-2.78833">
        <ele>83</ele>
        <time>2025-05-13T14:02:12Z</time>
      </trkpt>
      <trkpt lat="47.52417" lon="-2.78825">
        <ele>83</ele>
        <time>2025-05-13T14:02:13Z</time>
      </trkpt>
      <trkpt lat="47.52418" lon="-2.78818">
        <ele>82</ele>
        <time>2025-05-13T14:02:14Z</time>
      </trkpt>
      <trkpt lat="47.52418" lon="-2.78813">
        <ele>83</ele>
        <time>2025-05-13T14:02:15Z</time>
      </trkpt>
      <trkpt lat="47.52419" lon="-2.78806">
        <ele>83</ele>
        <time>2025-05-13T14:02:16Z</time>
      </trkpt>
      <trkpt lat="47.5242" lon="-2.78798">
        <ele>83</ele>
        <time>2025-05-13T14:02:17Z</time>
      </trkpt>
      <trkpt lat="47.52421" lon="-2.7879">
        <ele>83</ele>
        <time>2025-05-13T14:02:18Z</time>
      </trkpt>
      <trkpt lat="47.52419" lon="-2.78779">
        <ele>85</ele>
        <time>2025-05-13T14:02:19Z</time>
      </trkpt>
      <trkpt lat="47.52421" lon="-2.78773">
        <ele>85</ele>
        <time>2025-05-13T14:02:20Z</time>
      </trkpt>
      <trkpt lat="47.52424" lon="-2.78767">
        <ele>87</ele>
        <time>2025-05-13T14:02:21Z</time>
      </trkpt>
      <trkpt lat="47.52426" lon="-2.78762">
        <ele>87</ele>
        <time>2025-05-13T14:02:22Z</time>
      </trkpt>
      <trkpt lat="47.52428" lon="-2.78757">
        <ele>87</ele>
        <time>2025-05-13T14:02:23Z</time>
      </trkpt>
      <trkpt lat="47.52431" lon="-2.78751">
        <ele>87</ele>
        <time>2025-05-13T14:02:24Z</time>
      </trkpt>
      <trkpt lat="47.52433" lon="-2.78747">
        <ele>87</ele>
        <time>2025-05-13T14:02:25Z</time>
      </trkpt>
      <trkpt lat="47.52435" lon="-2.78743">
        <ele>87</ele>
        <time>2025-05-13T14:02:26Z</time>
      </trkpt>
      <trkpt lat="47.52436" lon="-2.7874">
        <ele>87</ele>
        <time>2025-05-13T14:02:27Z</time>
      </trkpt>
      <trkpt lat="47.52437" lon="-2.78737">
        <ele>88</ele>
        <time>2025-05-13T14:02:28Z</time>
      </trkpt>
      <trkpt lat="47.52439" lon="-2.78733">
        <ele>88</ele>
        <time>2025-05-13T14:02:29Z</time>
      </trkpt>
      <trkpt lat="47.5244" lon="-2.7873">
        <ele>87</ele>
        <time>2025-05-13T14:02:30Z</time>
      </trkpt>
      <trkpt lat="47.52441" lon="-2.78727">
        <ele>88</ele>
        <time>2025-05-13T14:02:31Z</time>
      </trkpt>
      <trkpt lat="47.52442" lon="-2.78724">
        <ele>88</ele>
        <time>2025-05-13T14:02:32Z</time>
      </trkpt>
      <trkpt lat="47.52443" lon="-2.78722">
        <ele>88</ele>
        <time>2025-05-13T14:02:33Z</time>
      </trkpt>
      <trkpt lat="47.52443" lon="-2.78718">
        <ele>88</ele>
        <time>2025-05-13T14:02:34Z</time>
      </trkpt>
      <trkpt lat="47.52444" lon="-2.78715">
        <ele>89</ele>
        <time>2025-05-13T14:02:35Z</time>
      </trkpt>
      <trkpt lat="47.52444" lon="-2.78711">
        <ele>89</ele>
        <time>2025-05-13T14:02:36Z</time>
      </trkpt>
      <trkpt lat="47.52445" lon="-2.78707">
        <ele>90</ele>
        <time>2025-05-13T14:02:37Z</time>
      </trkpt>
      <trkpt lat="47.52445" lon="-2.78704">
        <ele>90</ele>
        <time>2025-05-13T14:02:38Z</time>
      </trkpt>
      <trkpt lat="47.52446" lon="-2.787">
        <ele>90</ele>
        <time>2025-05-13T14:02:39Z</time>
      </trkpt>
      <trkpt lat="47.52446" lon="-2.78696">
        <ele>91</ele>
        <time>2025-05-13T14:02:40Z</time>
      </trkpt>
      <trkpt lat="47.52446" lon="-2.78692">
        <ele>90</ele>
        <time>2025-05-13T14:02:41Z</time>
      </trkpt>
      <trkpt lat="47.52446" lon="-2.78688">
        <ele>90</ele>
        <time>2025-05-13T14:02:42Z</time>
      </trkpt>
      <trkpt lat="47.52446" lon="-2.78685">
        <ele>90</ele>
        <time>2025-05-13T14:02:43Z</time>
      </trkpt>
      <trkpt lat="47.52446" lon="-2.78681">
        <ele>90</ele>
        <time>2025-05-13T14:02:44Z</time>
      </trkpt>
      <trkpt lat="47.52446" lon="-2.78677">
        <ele>91</ele>
        <time>2025-05-13T14:02:45Z</time>
      </trkpt>
      <trkpt lat="47.52447" lon="-2.78673">
        <ele>90</ele>
        <time>2025-05-13T14:02:46Z</time>
      </trkpt>
      <trkpt lat="47.52447" lon="-2.78669">
        <ele>91</ele>
        <time>2025-05-13T14:02:47Z</time>
      </trkpt>
      <trkpt lat="47.52447" lon="-2.78665">
        <ele>91</ele>
        <time>2025-05-13T14:02:48Z</time>
      </trkpt>
      <trkpt lat="47.52447" lon="-2.78661">
        <ele>91</ele>
        <time>2025-05-13T14:02:49Z</time>
      </trkpt>
      <trkpt lat="47.52447" lon="-2.78657">
        <ele>91</ele>
        <time>2025-05-13T14:02:50Z</time>
      </trkpt>
      <trkpt lat="47.52447" lon="-2.78653">
        <ele>92</ele>
        <time>2025-05-13T14:02:51Z</time>
      </trkpt>
      <trkpt lat="47.52447" lon="-2.78649">
        <ele>91</ele>
        <time>2025-05-13T14:02:52Z</time>
      </trkpt>
      <trkpt lat="47.52448" lon="-2.78645">
        <ele>91</ele>
        <time>2025-05-13T14:02:53Z</time>
      </trkpt>
      <trkpt lat="47.52449" lon="-2.78641">
        <ele>91</ele>
        <time>2025-05-13T14:02:54Z</time>
      </trkpt>
      <trkpt lat="47.52449" lon="-2.78637">
        <ele>91</ele>
        <time>2025-05-13T14:02:55Z</time>
      </trkpt>
      <trkpt lat="47.5245" lon="-2.78633">
        <ele>92</ele>
        <time>2025-05-13T14:02:56Z</time>
      </trkpt>
      <trkpt lat="47.52451" lon="-2.78628">
        <ele>92</ele>
        <time>2025-05-13T14:02:57Z</time>
      </trkpt>
      <trkpt lat="47.52451" lon="-2.78624">
        <ele>91</ele>
        <time>2025-05-13T14:02:58Z</time>
      </trkpt>
      <trkpt lat="47.52451" lon="-2.78619">
        <ele>91</ele>
        <time>2025-05-13T14:02:59Z</time>
      </trkpt>
      <trkpt lat="47.52451" lon="-2.78615">
        <ele>91</ele>
        <time>2025-05-13T14:03:00Z</time>
      </trkpt>
      <trkpt lat="47.52451" lon="-2.7861">
        <ele>90</ele>
        <time>2025-05-13T14:03:01Z</time>
      </trkpt>
      <trkpt lat="47.52451" lon="-2.78605">
        <ele>91</ele>
        <time>2025-05-13T14:03:02Z</time>
      </trkpt>
      <trkpt lat="47.52451" lon="-2.786">
        <ele>91</ele>
        <time>2025-05-13T14:03:03Z</time>
      </trkpt>
      <trkpt lat="47.52451" lon="-2.78596">
        <ele>91</ele>
        <time>2025-05-13T14:03:04Z</time>
      </trkpt>
      <trkpt lat="47.52452" lon="-2.78591">
        <ele>91</ele>
        <time>2025-05-13T14:03:05Z</time>
      </trkpt>
      <trkpt lat="47.52453" lon="-2.78586">
        <ele>90</ele>
        <time>2025-05-13T14:03:06Z</time>
      </trkpt>
      <trkpt lat="47.52453" lon="-2.78581">
        <ele>90</ele>
        <time>2025-05-13T14:03:07Z</time>
      </trkpt>
      <trkpt lat="47.52454" lon="-2.78577">
        <ele>90</ele>
        <time>2025-05-13T14:03:08Z</time>
      </trkpt>
      <trkpt lat="47.52454" lon="-2.78572">
        <ele>90</ele>
        <time>2025-05-13T14:03:09Z</time>
      </trkpt>
      <trkpt lat="47.52455" lon="-2.78568">
        <ele>91</ele>
        <time>2025-05-13T14:03:10Z</time>
      </trkpt>
      <trkpt lat="47.52457" lon="-2.78563">
        <ele>91</ele>
        <time>2025-05-13T14:03:11Z</time>
      </trkpt>
      <trkpt lat="47.52458" lon="-2.78559">
        <ele>91</ele>
        <time>2025-05-13T14:03:12Z</time>
      </trkpt>
      <trkpt lat="47.52459" lon="-2.78554">
        <ele>91</ele>
        <time>2025-05-13T14:03:13Z</time>
      </trkpt>
      <trkpt lat="47.5246" lon="-2.78549">
        <ele>90</ele>
        <time>2025-05-13T14:03:14Z</time>
      </trkpt>
      <trkpt lat="47.52461" lon="-2.78545">
        <ele>90</ele>
        <time>2025-05-13T14:03:15Z</time>
      </trkpt>
      <trkpt lat="47.52462" lon="-2.7854">
        <ele>90</ele>
        <time>2025-05-13T14:03:16Z</time>
      </trkpt>
      <trkpt lat="47.52462" lon="-2.78535">
        <ele>89</ele>
        <time>2025-05-13T14:03:17Z</time>
      </trkpt>
      <trkpt lat="47.52463" lon="-2.7853">
        <ele>89</ele>
        <time>2025-05-13T14:03:18Z</time>
      </trkpt>
      <trkpt lat="47.52463" lon="-2.78525">
        <ele>89</ele>
        <time>2025-05-13T14:03:19Z</time>
      </trkpt>
      <trkpt lat="47.52463" lon="-2.7852">
        <ele>89</ele>
        <time>2025-05-13T14:03:20Z</time>
      </trkpt>
      <trkpt lat="47.52464" lon="-2.78515">
        <ele>89</ele>
        <time>2025-05-13T14:03:21Z</time>
      </trkpt>
      <trkpt lat="47.52465" lon="-2.78511">
        <ele>89</ele>
        <time>2025-05-13T14:03:22Z</time>
      </trkpt>
      <trkpt lat="47.52466" lon="-2.78506">
        <ele>89</ele>
        <time>2025-05-13T14:03:23Z</time>
      </trkpt>
      <trkpt lat="47.52467" lon="-2.78501">
        <ele>90</ele>
        <time>2025-05-13T14:03:24Z</time>
      </trkpt>
      <trkpt lat="47.52468" lon="-2.78496">
        <ele>90</ele>
        <time>2025-05-13T14:03:25Z</time>
      </trkpt>
      <trkpt lat="47.52469" lon="-2.78492">
        <ele>90</ele>
        <time>2025-05-13T14:03:26Z</time>
      </trkpt>
      <trkpt lat="47.5247" lon="-2.78487">
        <ele>90</ele>
        <time>2025-05-13T14:03:27Z</time>
      </trkpt>
      <trkpt lat="47.52471" lon="-2.78482">
        <ele>90</ele>
        <time>2025-05-13T14:03:28Z</time>
      </trkpt>
      <trkpt lat="47.52473" lon="-2.78477">
        <ele>90</ele>
        <time>2025-05-13T14:03:29Z</time>
      </trkpt>
      <trkpt lat="47.52474" lon="-2.78472">
        <ele>91</ele>
        <time>2025-05-13T14:03:30Z</time>
      </trkpt>
      <trkpt lat="47.52475" lon="-2.78467">
        <ele>91</ele>
        <time>2025-05-13T14:03:31Z</time>
      </trkpt>
      <trkpt lat="47.52477" lon="-2.78463">
        <ele>91</ele>
        <time>2025-05-13T14:03:32Z</time>
      </trkpt>
      <trkpt lat="47.52478" lon="-2.78458">
        <ele>91</ele>
        <time>2025-05-13T14:03:33Z</time>
      </trkpt>
      <trkpt lat="47.5248" lon="-2.78454">
        <ele>91</ele>
        <time>2025-05-13T14:03:34Z</time>
      </trkpt>
      <trkpt lat="47.52482" lon="-2.78449">
        <ele>91</ele>
        <time>2025-05-13T14:03:35Z</time>
      </trkpt>
      <trkpt lat="47.52484" lon="-2.78445">
        <ele>91</ele>
        <time>2025-05-13T14:03:36Z</time>
      </trkpt>
      <trkpt lat="47.52486" lon="-2.78441">
        <ele>91</ele>
        <time>2025-05-13T14:03:37Z</time>
      </trkpt>
      <trkpt lat="47.52488" lon="-2.78437">
        <ele>91</ele>
        <time>2025-05-13T14:03:38Z</time>
      </trkpt>
      <trkpt lat="47.52491" lon="-2.78432">
        <ele>91</ele>
        <time>2025-05-13T14:03:39Z</time>
      </trkpt>
      <trkpt lat="47.52493" lon="-2.78429">
        <ele>91</ele>
        <time>2025-05-13T14:03:40Z</time>
      </trkpt>
      <trkpt lat="47.52495" lon="-2.78425">
        <ele>91</ele>
        <time>2025-05-13T14:03:41Z</time>
      </trkpt>
      <trkpt lat="47.52498" lon="-2.78421">
        <ele>92</ele>
        <time>2025-05-13T14:03:42Z</time>
      </trkpt>
      <trkpt lat="47.525" lon="-2.78417">
        <ele>92</ele>
        <time>2025-05-13T14:03:43Z</time>
      </trkpt>
      <trkpt lat="47.52502" lon="-2.78414">
        <ele>92</ele>
        <time>2025-05-13T14:03:44Z</time>
      </trkpt>
      <trkpt lat="47.52504" lon="-2.7841">
        <ele>92</ele>
        <time>2025-05-13T14:03:45Z</time>
      </trkpt>
      <trkpt lat="47.52507" lon="-2.78407">
        <ele>92</ele>
        <time>2025-05-13T14:03:46Z</time>
      </trkpt>
      <trkpt lat="47.52509" lon="-2.78403">
        <ele>92</ele>
        <time>2025-05-13T14:03:47Z</time>
      </trkpt>
      <trkpt lat="47.52512" lon="-2.78399">
        <ele>93</ele>
        <time>2025-05-13T14:03:48Z</time>
      </trkpt>
      <trkpt lat="47.52514" lon="-2.78395">
        <ele>93</ele>
        <time>2025-05-13T14:03:49Z</time>
      </trkpt>
      <trkpt lat="47.52516" lon="-2.78392">
        <ele>93</ele>
        <time>2025-05-13T14:03:50Z</time>
      </trkpt>
      <trkpt lat="47.52519" lon="-2.78389">
        <ele>93</ele>
        <time>2025-05-13T14:03:51Z</time>
      </trkpt>
      <trkpt lat="47.52522" lon="-2.78385">
        <ele>93</ele>
        <time>2025-05-13T14:03:52Z</time>
      </trkpt>
      <trkpt lat="47.52524" lon="-2.78382">
        <ele>93</ele>
        <time>2025-05-13T14:03:53Z</time>
      </trkpt>
      <trkpt lat="47.52527" lon="-2.78379">
        <ele>92</ele>
        <time>2025-05-13T14:03:54Z</time>
      </trkpt>
      <trkpt lat="47.5253" lon="-2.78376">
        <ele>92</ele>
        <time>2025-05-13T14:03:55Z</time>
      </trkpt>
      <trkpt lat="47.52532" lon="-2.78373">
        <ele>92</ele>
        <time>2025-05-13T14:03:56Z</time>
      </trkpt>
      <trkpt lat="47.52535" lon="-2.78369">
        <ele>92</ele>
        <time>2025-05-13T14:03:57Z</time>
      </trkpt>
      <trkpt lat="47.52538" lon="-2.78366">
        <ele>91</ele>
        <time>2025-05-13T14:03:58Z</time>
      </trkpt>
      <trkpt lat="47.52541" lon="-2.78363">
        <ele>91</ele>
        <time>2025-05-13T14:03:59Z</time>
      </trkpt>
      <trkpt lat="47.52544" lon="-2.78359">
        <ele>91</ele>
        <time>2025-05-13T14:04:00Z</time>
      </trkpt>
      <trkpt lat="47.52546" lon="-2.78354">
        <ele>91</ele>
        <time>2025-05-13T14:04:01Z</time>
      </trkpt>
      <trkpt lat="47.52549" lon="-2.7835">
        <ele>91</ele>
        <time>2025-05-13T14:04:02Z</time>
      </trkpt>
      <trkpt lat="47.52551" lon="-2.78345">
        <ele>91</ele>
        <time>2025-05-13T14:04:03Z</time>
      </trkpt>
      <trkpt lat="47.52553" lon="-2.7834">
        <ele>91</ele>
        <time>2025-05-13T14:04:04Z</time>
      </trkpt>
      <trkpt lat="47.52555" lon="-2.78335">
        <ele>90</ele>
        <time>2025-05-13T14:04:05Z</time>
      </trkpt>
      <trkpt lat="47.52556" lon="-2.7833">
        <ele>90</ele>
        <time>2025-05-13T14:04:06Z</time>
      </trkpt>
      <trkpt lat="47.52558" lon="-2.78325">
        <ele>89</ele>
        <time>2025-05-13T14:04:07Z</time>
      </trkpt>
      <trkpt lat="47.52559" lon="-2.7832">
        <ele>89</ele>
        <time>2025-05-13T14:04:08Z</time>
      </trkpt>
      <trkpt lat="47.5256" lon="-2.78314">
        <ele>89</ele>
        <time>2025-05-13T14:04:09Z</time>
      </trkpt>
      <trkpt lat="47.52561" lon="-2.78309">
        <ele>88</ele>
        <time>2025-05-13T14:04:10Z</time>
      </trkpt>
      <trkpt lat="47.5256" lon="-2.78303">
        <ele>88</ele>
        <time>2025-05-13T14:04:11Z</time>
      </trkpt>
      <trkpt lat="47.5256" lon="-2.78298">
        <ele>89</ele>
        <time>2025-05-13T14:04:12Z</time>
      </trkpt>
      <trkpt lat="47.5256" lon="-2.78293">
        <ele>89</ele>
        <time>2025-05-13T14:04:13Z</time>
      </trkpt>
      <trkpt lat="47.52559" lon="-2.78288">
        <ele>90</ele>
        <time>2025-05-13T14:04:14Z</time>
      </trkpt>
      <trkpt lat="47.52558" lon="-2.78282">
        <ele>90</ele>
        <time>2025-05-13T14:04:15Z</time>
      </trkpt>
      <trkpt lat="47.52558" lon="-2.78277">
        <ele>89</ele>
        <time>2025-05-13T14:04:16Z</time>
      </trkpt>
      <trkpt lat="47.52557" lon="-2.78271">
        <ele>90</ele>
        <time>2025-05-13T14:04:17Z</time>
      </trkpt>
      <trkpt lat="47.52557" lon="-2.78265">
        <ele>90</ele>
        <time>2025-05-13T14:04:18Z</time>
      </trkpt>
      <trkpt lat="47.52556" lon="-2.78259">
        <ele>90</ele>
        <time>2025-05-13T14:04:19Z</time>
      </trkpt>
      <trkpt lat="47.52556" lon="-2.78254">
        <ele>90</ele>
        <time>2025-05-13T14:04:20Z</time>
      </trkpt>
      <trkpt lat="47.52556" lon="-2.78249">
        <ele>90</ele>
        <time>2025-05-13T14:04:21Z</time>
      </trkpt>
      <trkpt lat="47.52556" lon="-2.78244">
        <ele>90</ele>
        <time>2025-05-13T14:04:22Z</time>
      </trkpt>
      <trkpt lat="47.52556" lon="-2.78239">
        <ele>90</ele>
        <time>2025-05-13T14:04:23Z</time>
      </trkpt>
      <trkpt lat="47.52555" lon="-2.78235">
        <ele>90</ele>
        <time>2025-05-13T14:04:24Z</time>
      </trkpt>
      <trkpt lat="47.52554" lon="-2.7823">
        <ele>90</ele>
        <time>2025-05-13T14:04:25Z</time>
      </trkpt>
      <trkpt lat="47.52554" lon="-2.78225">
        <ele>90</ele>
        <time>2025-05-13T14:04:26Z</time>
      </trkpt>
      <trkpt lat="47.52554" lon="-2.7822">
        <ele>90</ele>
        <time>2025-05-13T14:04:27Z</time>
      </trkpt>
      <trkpt lat="47.52553" lon="-2.78215">
        <ele>90</ele>
        <time>2025-05-13T14:04:28Z</time>
      </trkpt>
      <trkpt lat="47.52553" lon="-2.78211">
        <ele>90</ele>
        <time>2025-05-13T14:04:29Z</time>
      </trkpt>
      <trkpt lat="47.52553" lon="-2.78205">
        <ele>90</ele>
        <time>2025-05-13T14:04:30Z</time>
      </trkpt>
      <trkpt lat="47.52553" lon="-2.78201">
        <ele>91</ele>
        <time>2025-05-13T14:04:31Z</time>
      </trkpt>
      <trkpt lat="47.52552" lon="-2.78196">
        <ele>92</ele>
        <time>2025-05-13T14:04:32Z</time>
      </trkpt>
      <trkpt lat="47.52552" lon="-2.7819">
        <ele>93</ele>
        <time>2025-05-13T14:04:33Z</time>
      </trkpt>
      <trkpt lat="47.52552" lon="-2.78185">
        <ele>93</ele>
        <time>2025-05-13T14:04:34Z</time>
      </trkpt>
      <trkpt lat="47.52551" lon="-2.7818">
        <ele>93</ele>
        <time>2025-05-13T14:04:35Z</time>
      </trkpt>
      <trkpt lat="47.52551" lon="-2.78174">
        <ele>93</ele>
        <time>2025-05-13T14:04:36Z</time>
      </trkpt>
      <trkpt lat="47.52551" lon="-2.78169">
        <ele>93</ele>
        <time>2025-05-13T14:04:37Z</time>
      </trkpt>
      <trkpt lat="47.5255" lon="-2.78164">
        <ele>93</ele>
        <time>2025-05-13T14:04:38Z</time>
      </trkpt>
      <trkpt lat="47.5255" lon="-2.78158">
        <ele>93</ele>
        <time>2025-05-13T14:04:39Z</time>
      </trkpt>
      <trkpt lat="47.52549" lon="-2.78153">
        <ele>93</ele>
        <time>2025-05-13T14:04:40Z</time>
      </trkpt>
      <trkpt lat="47.52549" lon="-2.78148">
        <ele>92</ele>
        <time>2025-05-13T14:04:41Z</time>
      </trkpt>
      <trkpt lat="47.52548" lon="-2.78143">
        <ele>92</ele>
        <time>2025-05-13T14:04:42Z</time>
      </trkpt>
      <trkpt lat="47.52548" lon="-2.78138">
        <ele>92</ele>
        <time>2025-05-13T14:04:43Z</time>
      </trkpt>
      <trkpt lat="47.52548" lon="-2.78132">
        <ele>92</ele>
        <time>2025-05-13T14:04:44Z</time>
      </trkpt>
      <trkpt lat="47.52548" lon="-2.78127">
        <ele>92</ele>
        <time>2025-05-13T14:04:45Z</time>
      </trkpt>
      <trkpt lat="47.52548" lon="-2.78121">
        <ele>92</ele>
        <time>2025-05-13T14:04:46Z</time>
      </trkpt>
      <trkpt lat="47.52548" lon="-2.78116">
        <ele>93</ele>
        <time>2025-05-13T14:04:47Z</time>
      </trkpt>
      <trkpt lat="47.52548" lon="-2.7811">
        <ele>93</ele>
        <time>2025-05-13T14:04:48Z</time>
      </trkpt>
      <trkpt lat="47.52548" lon="-2.78105">
        <ele>93</ele>
        <time>2025-05-13T14:04:49Z</time>
      </trkpt>
      <trkpt lat="47.52548" lon="-2.78099">
        <ele>92</ele>
        <time>2025-05-13T14:04:50Z</time>
      </trkpt>
      <trkpt lat="47.52548" lon="-2.78094">
        <ele>93</ele>
        <time>2025-05-13T14:04:51Z</time>
      </trkpt>
      <trkpt lat="47.52548" lon="-2.78089">
        <ele>92</ele>
        <time>2025-05-13T14:04:52Z</time>
      </trkpt>
      <trkpt lat="47.52547" lon="-2.78083">
        <ele>93</ele>
        <time>2025-05-13T14:04:53Z</time>
      </trkpt>
      <trkpt lat="47.52547" lon="-2.78078">
        <ele>92</ele>
        <time>2025-05-13T14:04:54Z</time>
      </trkpt>
      <trkpt lat="47.52546" lon="-2.78073">
        <ele>92</ele>
        <time>2025-05-13T14:04:55Z</time>
      </trkpt>
      <trkpt lat="47.52546" lon="-2.78067">
        <ele>92</ele>
        <time>2025-05-13T14:04:56Z</time>
      </trkpt>
      <trkpt lat="47.52546" lon="-2.78062">
        <ele>92</ele>
        <time>2025-05-13T14:04:57Z</time>
      </trkpt>
      <trkpt lat="47.52546" lon="-2.78056">
        <ele>92</ele>
        <time>2025-05-13T14:04:58Z</time>
      </trkpt>
      <trkpt lat="47.52546" lon="-2.78051">
        <ele>92</ele>
        <time>2025-05-13T14:04:59Z</time>
      </trkpt>
      <trkpt lat="47.52546" lon="-2.78045">
        <ele>92</ele>
        <time>2025-05-13T14:05:00Z</time>
      </trkpt>
      <trkpt lat="47.52546" lon="-2.7804">
        <ele>92</ele>
        <time>2025-05-13T14:05:01Z</time>
      </trkpt>
      <trkpt lat="47.52546" lon="-2.78034">
        <ele>92</ele>
        <time>2025-05-13T14:05:02Z</time>
      </trkpt>
      <trkpt lat="47.52546" lon="-2.78029">
        <ele>92</ele>
        <time>2025-05-13T14:05:03Z</time>
      </trkpt>
      <trkpt lat="47.52545" lon="-2.78024">
        <ele>92</ele>
        <time>2025-05-13T14:05:04Z</time>
      </trkpt>
      <trkpt lat="47.52545" lon="-2.78018">
        <ele>92</ele>
        <time>2025-05-13T14:05:05Z</time>
      </trkpt>
      <trkpt lat="47.52545" lon="-2.78013">
        <ele>93</ele>
        <time>2025-05-13T14:05:06Z</time>
      </trkpt>
      <trkpt lat="47.52545" lon="-2.78007">
        <ele>93</ele>
        <time>2025-05-13T14:05:07Z</time>
      </trkpt>
      <trkpt lat="47.52545" lon="-2.78001">
        <ele>94</ele>
        <time>2025-05-13T14:05:08Z</time>
      </trkpt>
      <trkpt lat="47.52546" lon="-2.77996">
        <ele>94</ele>
        <time>2025-05-13T14:05:09Z</time>
      </trkpt>
      <trkpt lat="47.52546" lon="-2.77991">
        <ele>95</ele>
        <time>2025-05-13T14:05:10Z</time>
      </trkpt>
      <trkpt lat="47.52545" lon="-2.77986">
        <ele>95</ele>
        <time>2025-05-13T14:05:11Z</time>
      </trkpt>
      <trkpt lat="47.52545" lon="-2.7798">
        <ele>95</ele>
        <time>2025-05-13T14:05:12Z</time>
      </trkpt>
      <trkpt lat="47.52545" lon="-2.77975">
        <ele>95</ele>
        <time>2025-05-13T14:05:13Z</time>
      </trkpt>
      <trkpt lat="47.52544" lon="-2.7797">
        <ele>95</ele>
        <time>2025-05-13T14:05:14Z</time>
      </trkpt>
      <trkpt lat="47.52544" lon="-2.77965">
        <ele>96</ele>
        <time>2025-05-13T14:05:15Z</time>
      </trkpt>
      <trkpt lat="47.52544" lon="-2.77959">
        <ele>96</ele>
        <time>2025-05-13T14:05:16Z</time>
      </trkpt>
      <trkpt lat="47.52544" lon="-2.77954">
        <ele>96</ele>
        <time>2025-05-13T14:05:17Z</time>
      </trkpt>
      <trkpt lat="47.52544" lon="-2.77949">
        <ele>96</ele>
        <time>2025-05-13T14:05:18Z</time>
      </trkpt>
      <trkpt lat="47.52544" lon="-2.77943">
        <ele>96</ele>
        <time>2025-05-13T14:05:19Z</time>
      </trkpt>
      <trkpt lat="47.52544" lon="-2.77938">
        <ele>96</ele>
        <time>2025-05-13T14:05:20Z</time>
      </trkpt>
      <trkpt lat="47.52544" lon="-2.77932">
        <ele>96</ele>
        <time>2025-05-13T14:05:21Z</time>
      </trkpt>
      <trkpt lat="47.52544" lon="-2.77927">
        <ele>96</ele>
        <time>2025-05-13T14:05:22Z</time>
      </trkpt>
      <trkpt lat="47.52544" lon="-2.77922">
        <ele>96</ele>
        <time>2025-05-13T14:05:23Z</time>
      </trkpt>
      <trkpt lat="47.52544" lon="-2.77918">
        <ele>96</ele>
        <time>2025-05-13T14:05:24Z</time>
      </trkpt>
      <trkpt lat="47.52544" lon="-2.77913">
        <ele>96</ele>
        <time>2025-05-13T14:05:25Z</time>
      </trkpt>
      <trkpt lat="47.52544" lon="-2.77908">
        <ele>96</ele>
        <time>2025-05-13T14:05:26Z</time>
      </trkpt>
      <trkpt lat="47.52544" lon="-2.77902">
        <ele>95</ele>
        <time>2025-05-13T14:05:27Z</time>
      </trkpt>
      <trkpt lat="47.52543" lon="-2.77897">
        <ele>95</ele>
        <time>2025-05-13T14:05:28Z</time>
      </trkpt>
      <trkpt lat="47.52543" lon="-2.77891">
        <ele>95</ele>
        <time>2025-05-13T14:05:29Z</time>
      </trkpt>
      <trkpt lat="47.52542" lon="-2.77886">
        <ele>95</ele>
        <time>2025-05-13T14:05:30Z</time>
      </trkpt>
      <trkpt lat="47.52541" lon="-2.7788">
        <ele>95</ele>
        <time>2025-05-13T14:05:31Z</time>
      </trkpt>
      <trkpt lat="47.52541" lon="-2.77874">
        <ele>95</ele>
        <time>2025-05-13T14:05:32Z</time>
      </trkpt>
      <trkpt lat="47.52541" lon="-2.77869">
        <ele>94</ele>
        <time>2025-05-13T14:05:33Z</time>
      </trkpt>
      <trkpt lat="47.5254" lon="-2.77864">
        <ele>93</ele>
        <time>2025-05-13T14:05:34Z</time>
      </trkpt>
      <trkpt lat="47.5254" lon="-2.77859">
        <ele>93</ele>
        <time>2025-05-13T14:05:35Z</time>
      </trkpt>
      <trkpt lat="47.52539" lon="-2.77853">
        <ele>93</ele>
        <time>2025-05-13T14:05:36Z</time>
      </trkpt>
      <trkpt lat="47.52539" lon="-2.77848">
        <ele>94</ele>
        <time>2025-05-13T14:05:37Z</time>
      </trkpt>
      <trkpt lat="47.52539" lon="-2.77843">
        <ele>94</ele>
        <time>2025-05-13T14:05:38Z</time>
      </trkpt>
      <trkpt lat="47.52539" lon="-2.77838">
        <ele>94</ele>
        <time>2025-05-13T14:05:39Z</time>
      </trkpt>
      <trkpt lat="47.52539" lon="-2.77834">
        <ele>94</ele>
        <time>2025-05-13T14:05:40Z</time>
      </trkpt>
      <trkpt lat="47.52539" lon="-2.77829">
        <ele>93</ele>
        <time>2025-05-13T14:05:41Z</time>
      </trkpt>
      <trkpt lat="47.52538" lon="-2.77824">
        <ele>92</ele>
        <time>2025-05-13T14:05:42Z</time>
      </trkpt>
      <trkpt lat="47.52538" lon="-2.7782">
        <ele>92</ele>
        <time>2025-05-13T14:05:43Z</time>
      </trkpt>
      <trkpt lat="47.52537" lon="-2.77815">
        <ele>92</ele>
        <time>2025-05-13T14:05:44Z</time>
      </trkpt>
      <trkpt lat="47.52537" lon="-2.77811">
        <ele>91</ele>
        <time>2025-05-13T14:05:45Z</time>
      </trkpt>
      <trkpt lat="47.52537" lon="-2.77806">
        <ele>91</ele>
        <time>2025-05-13T14:05:46Z</time>
      </trkpt>
      <trkpt lat="47.52537" lon="-2.77801">
        <ele>91</ele>
        <time>2025-05-13T14:05:47Z</time>
      </trkpt>
      <trkpt lat="47.52537" lon="-2.77796">
        <ele>91</ele>
        <time>2025-05-13T14:05:48Z</time>
      </trkpt>
      <trkpt lat="47.52537" lon="-2.77791">
        <ele>91</ele>
        <time>2025-05-13T14:05:49Z</time>
      </trkpt>
      <trkpt lat="47.52536" lon="-2.77786">
        <ele>91</ele>
        <time>2025-05-13T14:05:50Z</time>
      </trkpt>
      <trkpt lat="47.52536" lon="-2.77781">
        <ele>91</ele>
        <time>2025-05-13T14:05:51Z</time>
      </trkpt>
      <trkpt lat="47.52536" lon="-2.77776">
        <ele>90</ele>
        <time>2025-05-13T14:05:52Z</time>
      </trkpt>
      <trkpt lat="47.52535" lon="-2.77771">
        <ele>90</ele>
        <time>2025-05-13T14:05:53Z</time>
      </trkpt>
      <trkpt lat="47.52535" lon="-2.77766">
        <ele>90</ele>
        <time>2025-05-13T14:05:54Z</time>
      </trkpt>
      <trkpt lat="47.52535" lon="-2.77761">
        <ele>90</ele>
        <time>2025-05-13T14:05:55Z</time>
      </trkpt>
      <trkpt lat="47.52535" lon="-2.77756">
        <ele>91</ele>
        <time>2025-05-13T14:05:56Z</time>
      </trkpt>
      <trkpt lat="47.52536" lon="-2.77751">
        <ele>91</ele>
        <time>2025-05-13T14:05:57Z</time>
      </trkpt>
      <trkpt lat="47.52536" lon="-2.77746">
        <ele>91</ele>
        <time>2025-05-13T14:05:58Z</time>
      </trkpt>
      <trkpt lat="47.52537" lon="-2.7774">
        <ele>91</ele>
        <time>2025-05-13T14:05:59Z</time>
      </trkpt>
      <trkpt lat="47.52538" lon="-2.77733">
        <ele>91</ele>
        <time>2025-05-13T14:06:00Z</time>
      </trkpt>
      <trkpt lat="47.52539" lon="-2.77727">
        <ele>91</ele>
        <time>2025-05-13T14:06:01Z</time>
      </trkpt>
      <trkpt lat="47.5254" lon="-2.77721">
        <ele>92</ele>
        <time>2025-05-13T14:06:02Z</time>
      </trkpt>
      <trkpt lat="47.52541" lon="-2.77714">
        <ele>93</ele>
        <time>2025-05-13T14:06:03Z</time>
      </trkpt>
      <trkpt lat="47.52543" lon="-2.77706">
        <ele>93</ele>
        <time>2025-05-13T14:06:04Z</time>
      </trkpt>
      <trkpt lat="47.52544" lon="-2.77698">
        <ele>92</ele>
        <time>2025-05-13T14:06:05Z</time>
      </trkpt>
      <trkpt lat="47.52545" lon="-2.77691">
        <ele>92</ele>
        <time>2025-05-13T14:06:06Z</time>
      </trkpt>
      <trkpt lat="47.52546" lon="-2.77683">
        <ele>91</ele>
        <time>2025-05-13T14:06:07Z</time>
      </trkpt>
      <trkpt lat="47.52548" lon="-2.77675">
        <ele>91</ele>
        <time>2025-05-13T14:06:08Z</time>
      </trkpt>
      <trkpt lat="47.52549" lon="-2.77667">
        <ele>91</ele>
        <time>2025-05-13T14:06:09Z</time>
      </trkpt>
      <trkpt lat="47.52551" lon="-2.77658">
        <ele>90</ele>
        <time>2025-05-13T14:06:10Z</time>
      </trkpt>
      <trkpt lat="47.52553" lon="-2.77649">
        <ele>89</ele>
        <time>2025-05-13T14:06:11Z</time>
      </trkpt>
      <trkpt lat="47.52554" lon="-2.7764">
        <ele>88</ele>
        <time>2025-05-13T14:06:12Z</time>
      </trkpt>
      <trkpt lat="47.52556" lon="-2.77631">
        <ele>88</ele>
        <time>2025-05-13T14:06:13Z</time>
      </trkpt>
      <trkpt lat="47.52557" lon="-2.77621">
        <ele>88</ele>
        <time>2025-05-13T14:06:14Z</time>
      </trkpt>
      <trkpt lat="47.52558" lon="-2.77611">
        <ele>88</ele>
        <time>2025-05-13T14:06:15Z</time>
      </trkpt>
      <trkpt lat="47.5256" lon="-2.77601">
        <ele>87</ele>
        <time>2025-05-13T14:06:16Z</time>
      </trkpt>
      <trkpt lat="47.52561" lon="-2.77592">
        <ele>87</ele>
        <time>2025-05-13T14:06:17Z</time>
      </trkpt>
      <trkpt lat="47.52563" lon="-2.77581">
        <ele>86</ele>
        <time>2025-05-13T14:06:18Z</time>
      </trkpt>
      <trkpt lat="47.52565" lon="-2.77571">
        <ele>86</ele>
        <time>2025-05-13T14:06:19Z</time>
      </trkpt>
      <trkpt lat="47.52566" lon="-2.77561">
        <ele>85</ele>
        <time>2025-05-13T14:06:20Z</time>
      </trkpt>
      <trkpt lat="47.52567" lon="-2.7755">
        <ele>85</ele>
        <time>2025-05-13T14:06:21Z</time>
      </trkpt>
      <trkpt lat="47.52569" lon="-2.7754">
        <ele>84</ele>
        <time>2025-05-13T14:06:22Z</time>
      </trkpt>
      <trkpt lat="47.5257" lon="-2.77531">
        <ele>84</ele>
        <time>2025-05-13T14:06:23Z</time>
      </trkpt>
      <trkpt lat="47.52572" lon="-2.77522">
        <ele>83</ele>
        <time>2025-05-13T14:06:24Z</time>
      </trkpt>
      <trkpt lat="47.52573" lon="-2.77513">
        <ele>83</ele>
        <time>2025-05-13T14:06:25Z</time>
      </trkpt>
      <trkpt lat="47.52573" lon="-2.77505">
        <ele>82</ele>
        <time>2025-05-13T14:06:26Z</time>
      </trkpt>
      <trkpt lat="47.52574" lon="-2.77497">
        <ele>82</ele>
        <time>2025-05-13T14:06:27Z</time>
      </trkpt>
      <trkpt lat="47.52575" lon="-2.77489">
        <ele>82</ele>
        <time>2025-05-13T14:06:28Z</time>
      </trkpt>
      <trkpt lat="47.52576" lon="-2.77481">
        <ele>82</ele>
        <time>2025-05-13T14:06:29Z</time>
      </trkpt>
      <trkpt lat="47.52577" lon="-2.77473">
        <ele>82</ele>
        <time>2025-05-13T14:06:30Z</time>
      </trkpt>
      <trkpt lat="47.52578" lon="-2.77465">
        <ele>81</ele>
        <time>2025-05-13T14:06:31Z</time>
      </trkpt>
      <trkpt lat="47.52579" lon="-2.77457">
        <ele>81</ele>
        <time>2025-05-13T14:06:32Z</time>
      </trkpt>
      <trkpt lat="47.5258" lon="-2.77449">
        <ele>82</ele>
        <time>2025-05-13T14:06:33Z</time>
      </trkpt>
      <trkpt lat="47.52582" lon="-2.77441">
        <ele>83</ele>
        <time>2025-05-13T14:06:34Z</time>
      </trkpt>
      <trkpt lat="47.52584" lon="-2.77433">
        <ele>83</ele>
        <time>2025-05-13T14:06:35Z</time>
      </trkpt>
      <trkpt lat="47.52585" lon="-2.77425">
        <ele>83</ele>
        <time>2025-05-13T14:06:36Z</time>
      </trkpt>
      <trkpt lat="47.52587" lon="-2.77417">
        <ele>84</ele>
        <time>2025-05-13T14:06:37Z</time>
      </trkpt>
      <trkpt lat="47.52589" lon="-2.77409">
        <ele>84</ele>
        <time>2025-05-13T14:06:38Z</time>
      </trkpt>
      <trkpt lat="47.5259" lon="-2.774">
        <ele>84</ele>
        <time>2025-05-13T14:06:39Z</time>
      </trkpt>
      <trkpt lat="47.52591" lon="-2.77393">
        <ele>83</ele>
        <time>2025-05-13T14:06:40Z</time>
      </trkpt>
      <trkpt lat="47.52593" lon="-2.77385">
        <ele>83</ele>
        <time>2025-05-13T14:06:41Z</time>
      </trkpt>
      <trkpt lat="47.52595" lon="-2.77377">
        <ele>83</ele>
        <time>2025-05-13T14:06:42Z</time>
      </trkpt>
      <trkpt lat="47.52596" lon="-2.77369">
        <ele>83</ele>
        <time>2025-05-13T14:06:43Z</time>
      </trkpt>
      <trkpt lat="47.52597" lon="-2.77361">
        <ele>82</ele>
        <time>2025-05-13T14:06:44Z</time>
      </trkpt>
      <trkpt lat="47.52598" lon="-2.77354">
        <ele>81</ele>
        <time>2025-05-13T14:06:45Z</time>
      </trkpt>
      <trkpt lat="47.52599" lon="-2.77347">
        <ele>81</ele>
        <time>2025-05-13T14:06:46Z</time>
      </trkpt>
      <trkpt lat="47.52601" lon="-2.7734">
        <ele>81</ele>
        <time>2025-05-13T14:06:47Z</time>
      </trkpt>
      <trkpt lat="47.52602" lon="-2.77334">
        <ele>81</ele>
        <time>2025-05-13T14:06:48Z</time>
      </trkpt>
      <trkpt lat="47.52603" lon="-2.77329">
        <ele>82</ele>
        <time>2025-05-13T14:06:49Z</time>
      </trkpt>
      <trkpt lat="47.52603" lon="-2.77323">
        <ele>81</ele>
        <time>2025-05-13T14:06:50Z</time>
      </trkpt>
      <trkpt lat="47.52605" lon="-2.77318">
        <ele>81</ele>
        <time>2025-05-13T14:06:51Z</time>
      </trkpt>
      <trkpt lat="47.52606" lon="-2.77314">
        <ele>82</ele>
        <time>2025-05-13T14:06:52Z</time>
      </trkpt>
      <trkpt lat="47.52607" lon="-2.7731">
        <ele>83</ele>
        <time>2025-05-13T14:06:53Z</time>
      </trkpt>
      <trkpt lat="47.52608" lon="-2.77305">
        <ele>83</ele>
        <time>2025-05-13T14:06:54Z</time>
      </trkpt>
      <trkpt lat="47.52608" lon="-2.77301">
        <ele>83</ele>
        <time>2025-05-13T14:06:55Z</time>
      </trkpt>
      <trkpt lat="47.52607" lon="-2.77296">
        <ele>83</ele>
        <time>2025-05-13T14:06:56Z</time>
      </trkpt>
      <trkpt lat="47.52604" lon="-2.77293">
        <ele>83</ele>
        <time>2025-05-13T14:06:57Z</time>
      </trkpt>
      <trkpt lat="47.52602" lon="-2.77289">
        <ele>84</ele>
        <time>2025-05-13T14:06:58Z</time>
      </trkpt>
      <trkpt lat="47.52602" lon="-2.77284">
        <ele>84</ele>
        <time>2025-05-13T14:06:59Z</time>
      </trkpt>
      <trkpt lat="47.52603" lon="-2.77279">
        <ele>84</ele>
        <time>2025-05-13T14:07:00Z</time>
      </trkpt>
      <trkpt lat="47.52605" lon="-2.77274">
        <ele>84</ele>
        <time>2025-05-13T14:07:01Z</time>
      </trkpt>
      <trkpt lat="47.52607" lon="-2.7727">
        <ele>85</ele>
        <time>2025-05-13T14:07:02Z</time>
      </trkpt>
      <trkpt lat="47.52609" lon="-2.77265">
        <ele>85</ele>
        <time>2025-05-13T14:07:03Z</time>
      </trkpt>
      <trkpt lat="47.52611" lon="-2.7726">
        <ele>84</ele>
        <time>2025-05-13T14:07:04Z</time>
      </trkpt>
      <trkpt lat="47.52612" lon="-2.77256">
        <ele>84</ele>
        <time>2025-05-13T14:07:05Z</time>
      </trkpt>
      <trkpt lat="47.52613" lon="-2.77252">
        <ele>84</ele>
        <time>2025-05-13T14:07:06Z</time>
      </trkpt>
      <trkpt lat="47.52615" lon="-2.77247">
        <ele>84</ele>
        <time>2025-05-13T14:07:07Z</time>
      </trkpt>
      <trkpt lat="47.52616" lon="-2.77242">
        <ele>84</ele>
        <time>2025-05-13T14:07:08Z</time>
      </trkpt>
      <trkpt lat="47.52617" lon="-2.77238">
        <ele>84</ele>
        <time>2025-05-13T14:07:09Z</time>
      </trkpt>
      <trkpt lat="47.52619" lon="-2.77233">
        <ele>84</ele>
        <time>2025-05-13T14:07:10Z</time>
      </trkpt>
      <trkpt lat="47.5262" lon="-2.77229">
        <ele>84</ele>
        <time>2025-05-13T14:07:11Z</time>
      </trkpt>
      <trkpt lat="47.52621" lon="-2.77225">
        <ele>84</ele>
        <time>2025-05-13T14:07:12Z</time>
      </trkpt>
      <trkpt lat="47.52623" lon="-2.77221">
        <ele>85</ele>
        <time>2025-05-13T14:07:13Z</time>
      </trkpt>
      <trkpt lat="47.52624" lon="-2.77216">
        <ele>85</ele>
        <time>2025-05-13T14:07:14Z</time>
      </trkpt>
      <trkpt lat="47.52625" lon="-2.77212">
        <ele>85</ele>
        <time>2025-05-13T14:07:15Z</time>
      </trkpt>
      <trkpt lat="47.52626" lon="-2.77207">
        <ele>85</ele>
        <time>2025-05-13T14:07:16Z</time>
      </trkpt>
      <trkpt lat="47.52627" lon="-2.77203">
        <ele>85</ele>
        <time>2025-05-13T14:07:17Z</time>
      </trkpt>
      <trkpt lat="47.52628" lon="-2.77198">
        <ele>86</ele>
        <time>2025-05-13T14:07:18Z</time>
      </trkpt>
      <trkpt lat="47.52629" lon="-2.77194">
        <ele>85</ele>
        <time>2025-05-13T14:07:19Z</time>
      </trkpt>
      <trkpt lat="47.5263" lon="-2.77189">
        <ele>86</ele>
        <time>2025-05-13T14:07:20Z</time>
      </trkpt>
      <trkpt lat="47.52632" lon="-2.77184">
        <ele>86</ele>
        <time>2025-05-13T14:07:21Z</time>
      </trkpt>
      <trkpt lat="47.52633" lon="-2.77179">
        <ele>86</ele>
        <time>2025-05-13T14:07:22Z</time>
      </trkpt>
      <trkpt lat="47.52634" lon="-2.77174">
        <ele>87</ele>
        <time>2025-05-13T14:07:23Z</time>
      </trkpt>
      <trkpt lat="47.52635" lon="-2.7717">
        <ele>87</ele>
        <time>2025-05-13T14:07:24Z</time>
      </trkpt>
      <trkpt lat="47.52636" lon="-2.77166">
        <ele>87</ele>
        <time>2025-05-13T14:07:25Z</time>
      </trkpt>
      <trkpt lat="47.52636" lon="-2.77161">
        <ele>87</ele>
        <time>2025-05-13T14:07:26Z</time>
      </trkpt>
      <trkpt lat="47.52636" lon="-2.77157">
        <ele>87</ele>
        <time>2025-05-13T14:07:27Z</time>
      </trkpt>
      <trkpt lat="47.52637" lon="-2.77153">
        <ele>87</ele>
        <time>2025-05-13T14:07:28Z</time>
      </trkpt>
      <trkpt lat="47.52638" lon="-2.77149">
        <ele>87</ele>
        <time>2025-05-13T14:07:29Z</time>
      </trkpt>
      <trkpt lat="47.52639" lon="-2.77145">
        <ele>87</ele>
        <time>2025-05-13T14:07:30Z</time>
      </trkpt>
      <trkpt lat="47.5264" lon="-2.7714">
        <ele>86</ele>
        <time>2025-05-13T14:07:31Z</time>
      </trkpt>
      <trkpt lat="47.52641" lon="-2.77136">
        <ele>86</ele>
        <time>2025-05-13T14:07:32Z</time>
      </trkpt>
      <trkpt lat="47.52642" lon="-2.77132">
        <ele>86</ele>
        <time>2025-05-13T14:07:33Z</time>
      </trkpt>
      <trkpt lat="47.52643" lon="-2.77128">
        <ele>85</ele>
        <time>2025-05-13T14:07:34Z</time>
      </trkpt>
      <trkpt lat="47.52644" lon="-2.77123">
        <ele>85</ele>
        <time>2025-05-13T14:07:35Z</time>
      </trkpt>
      <trkpt lat="47.52645" lon="-2.77119">
        <ele>86</ele>
        <time>2025-05-13T14:07:36Z</time>
      </trkpt>
      <trkpt lat="47.52646" lon="-2.77114">
        <ele>86</ele>
        <time>2025-05-13T14:07:37Z</time>
      </trkpt>
      <trkpt lat="47.52647" lon="-2.77109">
        <ele>85</ele>
        <time>2025-05-13T14:07:38Z</time>
      </trkpt>
      <trkpt lat="47.52648" lon="-2.77105">
        <ele>85</ele>
        <time>2025-05-13T14:07:39Z</time>
      </trkpt>
      <trkpt lat="47.52649" lon="-2.77101">
        <ele>85</ele>
        <time>2025-05-13T14:07:40Z</time>
      </trkpt>
      <trkpt lat="47.5265" lon="-2.77096">
        <ele>85</ele>
        <time>2025-05-13T14:07:41Z</time>
      </trkpt>
      <trkpt lat="47.52651" lon="-2.77092">
        <ele>85</ele>
        <time>2025-05-13T14:07:42Z</time>
      </trkpt>
      <trkpt lat="47.52652" lon="-2.77087">
        <ele>85</ele>
        <time>2025-05-13T14:07:43Z</time>
      </trkpt>
      <trkpt lat="47.52654" lon="-2.77083">
        <ele>85</ele>
        <time>2025-05-13T14:07:44Z</time>
      </trkpt>
      <trkpt lat="47.52655" lon="-2.77079">
        <ele>85</ele>
        <time>2025-05-13T14:07:45Z</time>
      </trkpt>
      <trkpt lat="47.52656" lon="-2.77075">
        <ele>85</ele>
        <time>2025-05-13T14:07:46Z</time>
      </trkpt>
      <trkpt lat="47.52657" lon="-2.77072">
        <ele>86</ele>
        <time>2025-05-13T14:07:47Z</time>
      </trkpt>
      <trkpt lat="47.52659" lon="-2.77069">
        <ele>85</ele>
        <time>2025-05-13T14:07:48Z</time>
      </trkpt>
      <trkpt lat="47.5266" lon="-2.77067">
        <ele>86</ele>
        <time>2025-05-13T14:07:49Z</time>
      </trkpt>
      <trkpt lat="47.52661" lon="-2.77064">
        <ele>85</ele>
        <time>2025-05-13T14:07:50Z</time>
      </trkpt>
      <trkpt lat="47.52662" lon="-2.77061">
        <ele>86</ele>
        <time>2025-05-13T14:07:51Z</time>
      </trkpt>
      <trkpt lat="47.52663" lon="-2.77058">
        <ele>86</ele>
        <time>2025-05-13T14:07:52Z</time>
      </trkpt>
      <trkpt lat="47.52663" lon="-2.77055">
        <ele>85</ele>
        <time>2025-05-13T14:07:53Z</time>
      </trkpt>
      <trkpt lat="47.52664" lon="-2.77051">
        <ele>85</ele>
        <time>2025-05-13T14:07:54Z</time>
      </trkpt>
      <trkpt lat="47.52664" lon="-2.77047">
        <ele>85</ele>
        <time>2025-05-13T14:07:55Z</time>
      </trkpt>
      <trkpt lat="47.52664" lon="-2.77044">
        <ele>85</ele>
        <time>2025-05-13T14:07:56Z</time>
      </trkpt>
      <trkpt lat="47.52664" lon="-2.7704">
        <ele>86</ele>
        <time>2025-05-13T14:07:57Z</time>
      </trkpt>
      <trkpt lat="47.52664" lon="-2.77037">
        <ele>86</ele>
        <time>2025-05-13T14:07:58Z</time>
      </trkpt>
      <trkpt lat="47.52664" lon="-2.77033">
        <ele>86</ele>
        <time>2025-05-13T14:07:59Z</time>
      </trkpt>
      <trkpt lat="47.52664" lon="-2.7703">
        <ele>86</ele>
        <time>2025-05-13T14:08:00Z</time>
      </trkpt>
      <trkpt lat="47.52664" lon="-2.77027">
        <ele>86</ele>
        <time>2025-05-13T14:08:01Z</time>
      </trkpt>
      <trkpt lat="47.52665" lon="-2.77024">
        <ele>86</ele>
        <time>2025-05-13T14:08:02Z</time>
      </trkpt>
      <trkpt lat="47.52665" lon="-2.7702">
        <ele>86</ele>
        <time>2025-05-13T14:08:03Z</time>
      </trkpt>
      <trkpt lat="47.52665" lon="-2.77017">
        <ele>86</ele>
        <time>2025-05-13T14:08:04Z</time>
      </trkpt>
      <trkpt lat="47.52665" lon="-2.77014">
        <ele>86</ele>
        <time>2025-05-13T14:08:05Z</time>
      </trkpt>
      <trkpt lat="47.52665" lon="-2.77011">
        <ele>86</ele>
        <time>2025-05-13T14:08:06Z</time>
      </trkpt>
      <trkpt lat="47.52663" lon="-2.77008">
        <ele>86</ele>
        <time>2025-05-13T14:08:07Z</time>
      </trkpt>
      <trkpt lat="47.52661" lon="-2.77005">
        <ele>86</ele>
        <time>2025-05-13T14:08:08Z</time>
      </trkpt>
      <trkpt lat="47.52658" lon="-2.77004">
        <ele>87</ele>
        <time>2025-05-13T14:08:09Z</time>
      </trkpt>
      <trkpt lat="47.52655" lon="-2.77003">
        <ele>87</ele>
        <time>2025-05-13T14:08:10Z</time>
      </trkpt>
      <trkpt lat="47.52652" lon="-2.77002">
        <ele>88</ele>
        <time>2025-05-13T14:08:11Z</time>
      </trkpt>
      <trkpt lat="47.5265" lon="-2.77001">
        <ele>88</ele>
        <time>2025-05-13T14:08:12Z</time>
      </trkpt>
      <trkpt lat="47.52647" lon="-2.77001">
        <ele>88</ele>
        <time>2025-05-13T14:08:13Z</time>
      </trkpt>
      <trkpt lat="47.52645" lon="-2.77">
        <ele>88</ele>
        <time>2025-05-13T14:08:14Z</time>
      </trkpt>
      <trkpt lat="47.52642" lon="-2.76999">
        <ele>88</ele>
        <time>2025-05-13T14:08:15Z</time>
      </trkpt>
      <trkpt lat="47.52639" lon="-2.76998">
        <ele>88</ele>
        <time>2025-05-13T14:08:16Z</time>
      </trkpt>
      <trkpt lat="47.52636" lon="-2.76998">
        <ele>88</ele>
        <time>2025-05-13T14:08:17Z</time>
      </trkpt>
      <trkpt lat="47.52633" lon="-2.76997">
        <ele>89</ele>
        <time>2025-05-13T14:08:18Z</time>
      </trkpt>
      <trkpt lat="47.52631" lon="-2.76996">
        <ele>89</ele>
        <time>2025-05-13T14:08:19Z</time>
      </trkpt>
      <trkpt lat="47.52628" lon="-2.76995">
        <ele>89</ele>
        <time>2025-05-13T14:08:20Z</time>
      </trkpt>
      <trkpt lat="47.52626" lon="-2.76994">
        <ele>89</ele>
        <time>2025-05-13T14:08:21Z</time>
      </trkpt>
      <trkpt lat="47.52622" lon="-2.76992">
        <ele>90</ele>
        <time>2025-05-13T14:08:22Z</time>
      </trkpt>
      <trkpt lat="47.5262" lon="-2.76991">
        <ele>89</ele>
        <time>2025-05-13T14:08:23Z</time>
      </trkpt>
      <trkpt lat="47.52617" lon="-2.76989">
        <ele>89</ele>
        <time>2025-05-13T14:08:24Z</time>
      </trkpt>
      <trkpt lat="47.52614" lon="-2.76988">
        <ele>89</ele>
        <time>2025-05-13T14:08:25Z</time>
      </trkpt>
      <trkpt lat="47.52611" lon="-2.76986">
        <ele>88</ele>
        <time>2025-05-13T14:08:26Z</time>
      </trkpt>
      <trkpt lat="47.52608" lon="-2.76986">
        <ele>88</ele>
        <time>2025-05-13T14:08:27Z</time>
      </trkpt>
      <trkpt lat="47.52606" lon="-2.76985">
        <ele>88</ele>
        <time>2025-05-13T14:08:28Z</time>
      </trkpt>
      <trkpt lat="47.52605" lon="-2.76984">
        <ele>88</ele>
        <time>2025-05-13T14:08:29Z</time>
      </trkpt>
      <trkpt lat="47.52605" lon="-2.76984">
        <ele>88</ele>
        <time>2025-05-13T14:08:30Z</time>
      </trkpt>
      <trkpt lat="47.52604" lon="-2.76984">
        <ele>88</ele>
        <time>2025-05-13T14:08:31Z</time>
      </trkpt>
      <trkpt lat="47.52604" lon="-2.76984">
        <ele>88</ele>
        <time>2025-05-13T14:08:32Z</time>
      </trkpt>
      <trkpt lat="47.52604" lon="-2.76984">
        <ele>88</ele>
        <time>2025-05-13T14:08:33Z</time>
      </trkpt>
      <trkpt lat="47.52604" lon="-2.76984">
        <ele>88</ele>
        <time>2025-05-13T14:08:34Z</time>
      </trkpt>
      <trkpt lat="47.52604" lon="-2.76984">
        <ele>88</ele>
        <time>2025-05-13T14:08:35Z</time>
      </trkpt>
      <trkpt lat="47.52604" lon="-2.76984">
        <ele>88</ele>
        <time>2025-05-13T14:08:36Z</time>
      </trkpt>
      <trkpt lat="47.52604" lon="-2.76984">
        <ele>88</ele>
        <time>2025-05-13T14:08:37Z</time>
      </trkpt>
      <trkpt lat="47.52604" lon="-2.76984">
        <ele>88</ele>
        <time>2025-05-13T14:08:38Z</time>
      </trkpt>
      <trkpt lat="47.52604" lon="-2.76984">
        <ele>88</ele>
        <time>2025-05-13T14:08:39Z</time>
      </trkpt>
      <trkpt lat="47.52604" lon="-2.76984">
        <ele>88</ele>
        <time>2025-05-13T14:08:40Z</time>
      </trkpt>
      <trkpt lat="47.52604" lon="-2.76984">
        <ele>88</ele>
        <time>2025-05-13T14:08:41Z</time>
      </trkpt>
      <trkpt lat="47.52604" lon="-2.76984">
        <ele>88</ele>
        <time>2025-05-13T14:08:42Z</time>
      </trkpt>
      <trkpt lat="47.52604" lon="-2.76984">
        <ele>88</ele>
        <time>2025-05-13T14:08:43Z</time>
      </trkpt>
      <trkpt lat="47.52602" lon="-2.76979">
        <ele>89</ele>
        <time>2025-05-13T14:08:44Z</time>
      </trkpt>
      <trkpt lat="47.52603" lon="-2.76977">
        <ele>89</ele>
        <time>2025-05-13T14:08:45Z</time>
      </trkpt>
      <trkpt lat="47.52604" lon="-2.76976">
        <ele>90</ele>
        <time>2025-05-13T14:08:46Z</time>
      </trkpt>
      <trkpt lat="47.52607" lon="-2.76977">
        <ele>90</ele>
        <time>2025-05-13T14:08:47Z</time>
      </trkpt>
      <trkpt lat="47.52608" lon="-2.76978">
        <ele>90</ele>
        <time>2025-05-13T14:08:48Z</time>
      </trkpt>
      <trkpt lat="47.5261" lon="-2.76979">
        <ele>90</ele>
        <time>2025-05-13T14:08:49Z</time>
      </trkpt>
      <trkpt lat="47.52612" lon="-2.7698">
        <ele>90</ele>
        <time>2025-05-13T14:08:50Z</time>
      </trkpt>
      <trkpt lat="47.52613" lon="-2.76981">
        <ele>90</ele>
        <time>2025-05-13T14:08:51Z</time>
      </trkpt>
      <trkpt lat="47.52615" lon="-2.76982">
        <ele>90</ele>
        <time>2025-05-13T14:08:52Z</time>
      </trkpt>
      <trkpt lat="47.52617" lon="-2.76983">
        <ele>90</ele>
        <time>2025-05-13T14:08:53Z</time>
      </trkpt>
      <trkpt lat="47.52619" lon="-2.76984">
        <ele>90</ele>
        <time>2025-05-13T14:08:54Z</time>
      </trkpt>
      <trkpt lat="47.52622" lon="-2.76985">
        <ele>90</ele>
        <time>2025-05-13T14:08:55Z</time>
      </trkpt>
      <trkpt lat="47.52625" lon="-2.76986">
        <ele>90</ele>
        <time>2025-05-13T14:08:56Z</time>
      </trkpt>
      <trkpt lat="47.52627" lon="-2.76987">
        <ele>90</ele>
        <time>2025-05-13T14:08:57Z</time>
      </trkpt>
      <trkpt lat="47.5263" lon="-2.76989">
        <ele>91</ele>
        <time>2025-05-13T14:08:58Z</time>
      </trkpt>
      <trkpt lat="47.52632" lon="-2.7699">
        <ele>91</ele>
        <time>2025-05-13T14:08:59Z</time>
      </trkpt>
      <trkpt lat="47.52635" lon="-2.76991">
        <ele>91</ele>
        <time>2025-05-13T14:09:00Z</time>
      </trkpt>
      <trkpt lat="47.52638" lon="-2.76992">
        <ele>92</ele>
        <time>2025-05-13T14:09:01Z</time>
      </trkpt>
      <trkpt lat="47.52641" lon="-2.76993">
        <ele>92</ele>
        <time>2025-05-13T14:09:02Z</time>
      </trkpt>
      <trkpt lat="47.52644" lon="-2.76994">
        <ele>92</ele>
        <time>2025-05-13T14:09:03Z</time>
      </trkpt>
      <trkpt lat="47.52646" lon="-2.76996">
        <ele>93</ele>
        <time>2025-05-13T14:09:04Z</time>
      </trkpt>
      <trkpt lat="47.52649" lon="-2.76997">
        <ele>93</ele>
        <time>2025-05-13T14:09:05Z</time>
      </trkpt>
      <trkpt lat="47.52652" lon="-2.76998">
        <ele>93</ele>
        <time>2025-05-13T14:09:06Z</time>
      </trkpt>
      <trkpt lat="47.52655" lon="-2.76998">
        <ele>93</ele>
        <time>2025-05-13T14:09:07Z</time>
      </trkpt>
      <trkpt lat="47.52657" lon="-2.76997">
        <ele>93</ele>
        <time>2025-05-13T14:09:08Z</time>
      </trkpt>
      <trkpt lat="47.52659" lon="-2.76994">
        <ele>92</ele>
        <time>2025-05-13T14:09:09Z</time>
      </trkpt>
      <trkpt lat="47.52661" lon="-2.76991">
        <ele>91</ele>
        <time>2025-05-13T14:09:10Z</time>
      </trkpt>
      <trkpt lat="47.52662" lon="-2.76988">
        <ele>91</ele>
        <time>2025-05-13T14:09:11Z</time>
      </trkpt>
      <trkpt lat="47.52663" lon="-2.76986">
        <ele>90</ele>
        <time>2025-05-13T14:09:12Z</time>
      </trkpt>
      <trkpt lat="47.52665" lon="-2.76984">
        <ele>89</ele>
        <time>2025-05-13T14:09:13Z</time>
      </trkpt>
      <trkpt lat="47.52666" lon="-2.76982">
        <ele>88</ele>
        <time>2025-05-13T14:09:14Z</time>
      </trkpt>
      <trkpt lat="47.52668" lon="-2.76979">
        <ele>88</ele>
        <time>2025-05-13T14:09:15Z</time>
      </trkpt>
      <trkpt lat="47.5267" lon="-2.76977">
        <ele>87</ele>
        <time>2025-05-13T14:09:16Z</time>
      </trkpt>
      <trkpt lat="47.52672" lon="-2.76975">
        <ele>87</ele>
        <time>2025-05-13T14:09:17Z</time>
      </trkpt>
      <trkpt lat="47.52673" lon="-2.76974">
        <ele>87</ele>
        <time>2025-05-13T14:09:18Z</time>
      </trkpt>
      <trkpt lat="47.52675" lon="-2.76972">
        <ele>86</ele>
        <time>2025-05-13T14:09:19Z</time>
      </trkpt>
      <trkpt lat="47.52676" lon="-2.7697">
        <ele>87</ele>
        <time>2025-05-13T14:09:20Z</time>
      </trkpt>
      <trkpt lat="47.52677" lon="-2.76968">
        <ele>87</ele>
        <time>2025-05-13T14:09:21Z</time>
      </trkpt>
      <trkpt lat="47.52677" lon="-2.76965">
        <ele>87</ele>
        <time>2025-05-13T14:09:22Z</time>
      </trkpt>
      <trkpt lat="47.52678" lon="-2.76963">
        <ele>87</ele>
        <time>2025-05-13T14:09:23Z</time>
      </trkpt>
      <trkpt lat="47.52679" lon="-2.76961">
        <ele>87</ele>
        <time>2025-05-13T14:09:24Z</time>
      </trkpt>
      <trkpt lat="47.52681" lon="-2.76958">
        <ele>87</ele>
        <time>2025-05-13T14:09:25Z</time>
      </trkpt>
      <trkpt lat="47.52682" lon="-2.76956">
        <ele>86</ele>
        <time>2025-05-13T14:09:26Z</time>
      </trkpt>
      <trkpt lat="47.52683" lon="-2.76953">
        <ele>86</ele>
        <time>2025-05-13T14:09:27Z</time>
      </trkpt>
      <trkpt lat="47.52685" lon="-2.7695">
        <ele>87</ele>
        <time>2025-05-13T14:09:28Z</time>
      </trkpt>
      <trkpt lat="47.52687" lon="-2.76948">
        <ele>87</ele>
        <time>2025-05-13T14:09:29Z</time>
      </trkpt>
      <trkpt lat="47.52688" lon="-2.76947">
        <ele>87</ele>
        <time>2025-05-13T14:09:30Z</time>
      </trkpt>
      <trkpt lat="47.5269" lon="-2.76945">
        <ele>87</ele>
        <time>2025-05-13T14:09:31Z</time>
      </trkpt>
      <trkpt lat="47.52692" lon="-2.76943">
        <ele>88</ele>
        <time>2025-05-13T14:09:32Z</time>
      </trkpt>
      <trkpt lat="47.52694" lon="-2.76941">
        <ele>88</ele>
        <time>2025-05-13T14:09:33Z</time>
      </trkpt>
      <trkpt lat="47.52696" lon="-2.76939">
        <ele>88</ele>
        <time>2025-05-13T14:09:34Z</time>
      </trkpt>
      <trkpt lat="47.52699" lon="-2.76937">
        <ele>89</ele>
        <time>2025-05-13T14:09:35Z</time>
      </trkpt>
      <trkpt lat="47.52701" lon="-2.76936">
        <ele>89</ele>
        <time>2025-05-13T14:09:36Z</time>
      </trkpt>
      <trkpt lat="47.52703" lon="-2.76934">
        <ele>90</ele>
        <time>2025-05-13T14:09:37Z</time>
      </trkpt>
      <trkpt lat="47.52705" lon="-2.76933">
        <ele>90</ele>
        <time>2025-05-13T14:09:38Z</time>
      </trkpt>
      <trkpt lat="47.52707" lon="-2.76932">
        <ele>91</ele>
        <time>2025-05-13T14:09:39Z</time>
      </trkpt>
      <trkpt lat="47.52709" lon="-2.76931">
        <ele>92</ele>
        <time>2025-05-13T14:09:40Z</time>
      </trkpt>
      <trkpt lat="47.52711" lon="-2.76929">
        <ele>92</ele>
        <time>2025-05-13T14:09:41Z</time>
      </trkpt>
      <trkpt lat="47.52713" lon="-2.76926">
        <ele>91</ele>
        <time>2025-05-13T14:09:42Z</time>
      </trkpt>
      <trkpt lat="47.52715" lon="-2.76923">
        <ele>91</ele>
        <time>2025-05-13T14:09:43Z</time>
      </trkpt>
      <trkpt lat="47.52717" lon="-2.76919">
        <ele>91</ele>
        <time>2025-05-13T14:09:44Z</time>
      </trkpt>
      <trkpt lat="47.52719" lon="-2.76915">
        <ele>90</ele>
        <time>2025-05-13T14:09:45Z</time>
      </trkpt>
      <trkpt lat="47.52721" lon="-2.7691">
        <ele>90</ele>
        <time>2025-05-13T14:09:46Z</time>
      </trkpt>
      <trkpt lat="47.52723" lon="-2.76907">
        <ele>90</ele>
        <time>2025-05-13T14:09:47Z</time>
      </trkpt>
      <trkpt lat="47.52724" lon="-2.76904">
        <ele>89</ele>
        <time>2025-05-13T14:09:48Z</time>
      </trkpt>
      <trkpt lat="47.52724" lon="-2.76901">
        <ele>89</ele>
        <time>2025-05-13T14:09:49Z</time>
      </trkpt>
      <trkpt lat="47.52725" lon="-2.76897">
        <ele>88</ele>
        <time>2025-05-13T14:09:50Z</time>
      </trkpt>
      <trkpt lat="47.52726" lon="-2.76893">
        <ele>87</ele>
        <time>2025-05-13T14:09:51Z</time>
      </trkpt>
      <trkpt lat="47.52728" lon="-2.76889">
        <ele>87</ele>
        <time>2025-05-13T14:09:52Z</time>
      </trkpt>
      <trkpt lat="47.52729" lon="-2.76885">
        <ele>86</ele>
        <time>2025-05-13T14:09:53Z</time>
      </trkpt>
      <trkpt lat="47.5273" lon="-2.76882">
        <ele>86</ele>
        <time>2025-05-13T14:09:54Z</time>
      </trkpt>
      <trkpt lat="47.52729" lon="-2.76879">
        <ele>86</ele>
        <time>2025-05-13T14:09:55Z</time>
      </trkpt>
      <trkpt lat="47.52727" lon="-2.76877">
        <ele>86</ele>
        <time>2025-05-13T14:09:56Z</time>
      </trkpt>
      <trkpt lat="47.52725" lon="-2.76876">
        <ele>85</ele>
        <time>2025-05-13T14:09:57Z</time>
      </trkpt>
      <trkpt lat="47.52722" lon="-2.76875">
        <ele>85</ele>
        <time>2025-05-13T14:09:58Z</time>
      </trkpt>
      <trkpt lat="47.52721" lon="-2.76873">
        <ele>85</ele>
        <time>2025-05-13T14:09:59Z</time>
      </trkpt>
      <trkpt lat="47.52719" lon="-2.76871">
        <ele>84</ele>
        <time>2025-05-13T14:10:00Z</time>
      </trkpt>
      <trkpt lat="47.52719" lon="-2.76869">
        <ele>84</ele>
        <time>2025-05-13T14:10:01Z</time>
      </trkpt>
      <trkpt lat="47.52718" lon="-2.76865">
        <ele>83</ele>
        <time>2025-05-13T14:10:02Z</time>
      </trkpt>
      <trkpt lat="47.52718" lon="-2.76862">
        <ele>84</ele>
        <time>2025-05-13T14:10:03Z</time>
      </trkpt>
      <trkpt lat="47.52717" lon="-2.76859">
        <ele>84</ele>
        <time>2025-05-13T14:10:04Z</time>
      </trkpt>
      <trkpt lat="47.52716" lon="-2.76857">
        <ele>84</ele>
        <time>2025-05-13T14:10:05Z</time>
      </trkpt>
      <trkpt lat="47.52717" lon="-2.76854">
        <ele>85</ele>
        <time>2025-05-13T14:10:06Z</time>
      </trkpt>
      <trkpt lat="47.52717" lon="-2.76852">
        <ele>85</ele>
        <time>2025-05-13T14:10:07Z</time>
      </trkpt>
      <trkpt lat="47.52717" lon="-2.7685">
        <ele>85</ele>
        <time>2025-05-13T14:10:08Z</time>
      </trkpt>
      <trkpt lat="47.52717" lon="-2.76848">
        <ele>85</ele>
        <time>2025-05-13T14:10:09Z</time>
      </trkpt>
      <trkpt lat="47.52717" lon="-2.76847">
        <ele>86</ele>
        <time>2025-05-13T14:10:10Z</time>
      </trkpt>
      <trkpt lat="47.52717" lon="-2.76847">
        <ele>86</ele>
        <time>2025-05-13T14:10:11Z</time>
      </trkpt>
      <trkpt lat="47.52717" lon="-2.76847">
        <ele>86</ele>
        <time>2025-05-13T14:10:12Z</time>
      </trkpt>
      <trkpt lat="47.52717" lon="-2.76847">
        <ele>86</ele>
        <time>2025-05-13T14:10:13Z</time>
      </trkpt>
      <trkpt lat="47.52717" lon="-2.76847">
        <ele>86</ele>
        <time>2025-05-13T14:10:14Z</time>
      </trkpt>
      <trkpt lat="47.52717" lon="-2.76847">
        <ele>86</ele>
        <time>2025-05-13T14:10:15Z</time>
      </trkpt>
      <trkpt lat="47.52717" lon="-2.76847">
        <ele>86</ele>
        <time>2025-05-13T14:10:16Z</time>
      </trkpt>
    </trkseg>
  </trk>
</gpx>